<?xml version="1.0" encoding="UTF-8" standalone="no" ?>
<gpx xmlns="http://www.topografix.com/GPX/1/1" xmlns:xsi="http://www.w3.org/2001/XMLSchema-instance" xsi:schemaLocation="http://www.topografix.com/GPX/1/1 http://www.topografix.com/GPX/1/1/gpx.xsd" version="1.1" creator="VisuGPX - https://www.visugpx.com">
  <metadata>
    <name>Randonnée Blainville (Manche)</name>
    <desc><![CDATA[Circuit au départ de l\'église de Blainville dans la Manche en bord de mer jusqu\'à la pointe d\'Agon. Retour en bord de la baie vers le point de départ.]]></desc>
  </metadata>
  <trk>
    <name><![CDATA[Randonnée Blainville (Manche)_1]]></name>
    <trkseg>
      <trkpt lat="49.06632" lon="-1.58268">
        <ele>23.8</ele>
        <time>2015-06-03T10:39:41Z</time>
      </trkpt>
      <trkpt lat="49.06631" lon="-1.58268">
        <ele>23.8</ele>
        <time>2015-06-03T10:39:46Z</time>
      </trkpt>
      <trkpt lat="49.06631" lon="-1.58268">
        <ele>23.8</ele>
        <time>2015-06-03T10:39:51Z</time>
      </trkpt>
      <trkpt lat="49.0663" lon="-1.58268">
        <ele>23.8</ele>
        <time>2015-06-03T10:39:56Z</time>
      </trkpt>
      <trkpt lat="49.06629" lon="-1.58267">
        <ele>23.8</ele>
        <time>2015-06-03T10:40:01Z</time>
      </trkpt>
      <trkpt lat="49.06627" lon="-1.58265">
        <ele>23.8</ele>
        <time>2015-06-03T10:40:06Z</time>
      </trkpt>
      <trkpt lat="49.06627" lon="-1.58265">
        <ele>23.8</ele>
        <time>2015-06-03T10:40:11Z</time>
      </trkpt>
      <trkpt lat="49.06628" lon="-1.58265">
        <ele>23.8</ele>
        <time>2015-06-03T10:40:16Z</time>
      </trkpt>
      <trkpt lat="49.06628" lon="-1.58265">
        <ele>23.8</ele>
        <time>2015-06-03T10:40:21Z</time>
      </trkpt>
      <trkpt lat="49.0663" lon="-1.58265">
        <ele>25.761257</ele>
        <time>2015-06-03T10:40:26Z</time>
      </trkpt>
      <trkpt lat="49.06631" lon="-1.58265">
        <ele>25.761257</ele>
        <time>2015-06-03T10:40:31Z</time>
      </trkpt>
      <trkpt lat="49.06631" lon="-1.58265">
        <ele>25.761257</ele>
        <time>2015-06-03T10:40:36Z</time>
      </trkpt>
      <trkpt lat="49.06631" lon="-1.58265">
        <ele>25.761257</ele>
        <time>2015-06-03T10:40:41Z</time>
      </trkpt>
      <trkpt lat="49.0663" lon="-1.58265">
        <ele>25.761257</ele>
        <time>2015-06-03T10:40:46Z</time>
      </trkpt>
      <trkpt lat="49.06631" lon="-1.58265">
        <ele>25.761257</ele>
        <time>2015-06-03T10:40:51Z</time>
      </trkpt>
      <trkpt lat="49.06631" lon="-1.58266">
        <ele>25.761257</ele>
        <time>2015-06-03T10:40:56Z</time>
      </trkpt>
      <trkpt lat="49.06631" lon="-1.58267">
        <ele>25.761257</ele>
        <time>2015-06-03T10:41:01Z</time>
      </trkpt>
      <trkpt lat="49.0663" lon="-1.58267">
        <ele>25.761257</ele>
        <time>2015-06-03T10:41:06Z</time>
      </trkpt>
      <trkpt lat="49.0663" lon="-1.58267">
        <ele>25.761257</ele>
        <time>2015-06-03T10:41:11Z</time>
      </trkpt>
      <trkpt lat="49.0663" lon="-1.58266">
        <ele>25.761257</ele>
        <time>2015-06-03T10:41:16Z</time>
      </trkpt>
      <trkpt lat="49.06629" lon="-1.58265">
        <ele>25.761257</ele>
        <time>2015-06-03T10:41:21Z</time>
      </trkpt>
      <trkpt lat="49.0663" lon="-1.58265">
        <ele>25.761257</ele>
        <time>2015-06-03T10:41:26Z</time>
      </trkpt>
      <trkpt lat="49.06632" lon="-1.58265">
        <ele>25.307642</ele>
        <time>2015-06-03T10:41:31Z</time>
      </trkpt>
      <trkpt lat="49.06633" lon="-1.58266">
        <ele>25.307642</ele>
        <time>2015-06-03T10:41:36Z</time>
      </trkpt>
      <trkpt lat="49.06631" lon="-1.58266">
        <ele>25.307642</ele>
        <time>2015-06-03T10:41:41Z</time>
      </trkpt>
      <trkpt lat="49.0663" lon="-1.58266">
        <ele>25.307642</ele>
        <time>2015-06-03T10:41:46Z</time>
      </trkpt>
      <trkpt lat="49.0663" lon="-1.58266">
        <ele>25.307642</ele>
        <time>2015-06-03T10:41:51Z</time>
      </trkpt>
      <trkpt lat="49.06629" lon="-1.58265">
        <ele>25.307642</ele>
        <time>2015-06-03T10:41:56Z</time>
      </trkpt>
      <trkpt lat="49.06628" lon="-1.58265">
        <ele>25.307642</ele>
        <time>2015-06-03T10:42:01Z</time>
      </trkpt>
      <trkpt lat="49.06627" lon="-1.58265">
        <ele>25.307642</ele>
        <time>2015-06-03T10:42:06Z</time>
      </trkpt>
      <trkpt lat="49.06629" lon="-1.58264">
        <ele>25.307642</ele>
        <time>2015-06-03T10:42:11Z</time>
      </trkpt>
      <trkpt lat="49.0663" lon="-1.58265">
        <ele>25.230413</ele>
        <time>2015-06-03T10:42:16Z</time>
      </trkpt>
      <trkpt lat="49.0663" lon="-1.58265">
        <ele>25.230413</ele>
        <time>2015-06-03T10:42:21Z</time>
      </trkpt>
      <trkpt lat="49.0663" lon="-1.58265">
        <ele>25.230413</ele>
        <time>2015-06-03T10:42:26Z</time>
      </trkpt>
      <trkpt lat="49.0663" lon="-1.58265">
        <ele>25.230413</ele>
        <time>2015-06-03T10:42:31Z</time>
      </trkpt>
      <trkpt lat="49.06629" lon="-1.58265">
        <ele>25.230413</ele>
        <time>2015-06-03T10:42:36Z</time>
      </trkpt>
      <trkpt lat="49.06629" lon="-1.58265">
        <ele>25.230413</ele>
        <time>2015-06-03T10:42:41Z</time>
      </trkpt>
      <trkpt lat="49.06629" lon="-1.58265">
        <ele>25.230413</ele>
        <time>2015-06-03T10:42:46Z</time>
      </trkpt>
      <trkpt lat="49.06628" lon="-1.58264">
        <ele>25.230413</ele>
        <time>2015-06-03T10:42:51Z</time>
      </trkpt>
      <trkpt lat="49.06629" lon="-1.58264">
        <ele>25.230413</ele>
        <time>2015-06-03T10:42:56Z</time>
      </trkpt>
      <trkpt lat="49.06629" lon="-1.58263">
        <ele>25.230413</ele>
        <time>2015-06-03T10:43:01Z</time>
      </trkpt>
      <trkpt lat="49.06629" lon="-1.58263">
        <ele>25.230413</ele>
        <time>2015-06-03T10:43:06Z</time>
      </trkpt>
      <trkpt lat="49.06629" lon="-1.58263">
        <ele>25.230413</ele>
        <time>2015-06-03T10:43:11Z</time>
      </trkpt>
      <trkpt lat="49.06628" lon="-1.58262">
        <ele>25.230413</ele>
        <time>2015-06-03T10:43:16Z</time>
      </trkpt>
      <trkpt lat="49.06628" lon="-1.58262">
        <ele>25.230413</ele>
        <time>2015-06-03T10:43:21Z</time>
      </trkpt>
      <trkpt lat="49.06628" lon="-1.58262">
        <ele>25.230413</ele>
        <time>2015-06-03T10:43:26Z</time>
      </trkpt>
      <trkpt lat="49.06628" lon="-1.58262">
        <ele>25.230413</ele>
        <time>2015-06-03T10:43:31Z</time>
      </trkpt>
      <trkpt lat="49.06629" lon="-1.58262">
        <ele>25.230413</ele>
        <time>2015-06-03T10:43:36Z</time>
      </trkpt>
      <trkpt lat="49.06629" lon="-1.58262">
        <ele>25.230413</ele>
        <time>2015-06-03T10:43:41Z</time>
      </trkpt>
      <trkpt lat="49.06629" lon="-1.58261">
        <ele>25.230413</ele>
        <time>2015-06-03T10:43:46Z</time>
      </trkpt>
      <trkpt lat="49.0663" lon="-1.58259">
        <ele>24.598198</ele>
        <time>2015-06-03T10:43:51Z</time>
      </trkpt>
      <trkpt lat="49.06629" lon="-1.58258">
        <ele>24.598198</ele>
        <time>2015-06-03T10:43:56Z</time>
      </trkpt>
      <trkpt lat="49.06628" lon="-1.58257">
        <ele>24.598198</ele>
        <time>2015-06-03T10:44:01Z</time>
      </trkpt>
      <trkpt lat="49.06628" lon="-1.58256">
        <ele>24.598198</ele>
        <time>2015-06-03T10:44:06Z</time>
      </trkpt>
      <trkpt lat="49.06627" lon="-1.58257">
        <ele>24.598198</ele>
        <time>2015-06-03T10:44:11Z</time>
      </trkpt>
      <trkpt lat="49.06627" lon="-1.58257">
        <ele>24.598198</ele>
        <time>2015-06-03T10:44:16Z</time>
      </trkpt>
      <trkpt lat="49.06627" lon="-1.58257">
        <ele>24.598198</ele>
        <time>2015-06-03T10:44:21Z</time>
      </trkpt>
      <trkpt lat="49.06627" lon="-1.58257">
        <ele>24.598198</ele>
        <time>2015-06-03T10:44:26Z</time>
      </trkpt>
      <trkpt lat="49.06627" lon="-1.58257">
        <ele>24.598198</ele>
        <time>2015-06-03T10:44:31Z</time>
      </trkpt>
      <trkpt lat="49.06626" lon="-1.58257">
        <ele>24.598198</ele>
        <time>2015-06-03T10:44:36Z</time>
      </trkpt>
      <trkpt lat="49.06628" lon="-1.58257">
        <ele>24.598198</ele>
        <time>2015-06-03T10:44:41Z</time>
      </trkpt>
      <trkpt lat="49.06629" lon="-1.5826">
        <ele>24.22941</ele>
        <time>2015-06-03T10:44:46Z</time>
      </trkpt>
      <trkpt lat="49.06627" lon="-1.58268">
        <ele>24.22941</ele>
        <time>2015-06-03T10:44:51Z</time>
      </trkpt>
      <trkpt lat="49.06628" lon="-1.58269">
        <ele>24.22941</ele>
        <time>2015-06-03T10:44:56Z</time>
      </trkpt>
      <trkpt lat="49.0663" lon="-1.58267">
        <ele>24.22941</ele>
        <time>2015-06-03T10:45:01Z</time>
      </trkpt>
      <trkpt lat="49.06632" lon="-1.58266">
        <ele>24.1341</ele>
        <time>2015-06-03T10:45:06Z</time>
      </trkpt>
      <trkpt lat="49.06633" lon="-1.58267">
        <ele>24.1341</ele>
        <time>2015-06-03T10:45:11Z</time>
      </trkpt>
      <trkpt lat="49.06632" lon="-1.58267">
        <ele>24.1341</ele>
        <time>2015-06-03T10:45:16Z</time>
      </trkpt>
      <trkpt lat="49.06631" lon="-1.58267">
        <ele>24.1341</ele>
        <time>2015-06-03T10:45:21Z</time>
      </trkpt>
      <trkpt lat="49.06629" lon="-1.58268">
        <ele>24.1341</ele>
        <time>2015-06-03T10:45:26Z</time>
      </trkpt>
      <trkpt lat="49.06628" lon="-1.58269">
        <ele>24.1341</ele>
        <time>2015-06-03T10:45:31Z</time>
      </trkpt>
      <trkpt lat="49.06629" lon="-1.58268">
        <ele>24.1341</ele>
        <time>2015-06-03T10:45:36Z</time>
      </trkpt>
      <trkpt lat="49.0663" lon="-1.58266">
        <ele>24.1341</ele>
        <time>2015-06-03T10:45:41Z</time>
      </trkpt>
      <trkpt lat="49.0663" lon="-1.58266">
        <ele>24.1341</ele>
        <time>2015-06-03T10:45:46Z</time>
      </trkpt>
      <trkpt lat="49.06628" lon="-1.58268">
        <ele>24.083502</ele>
        <time>2015-06-03T10:45:51Z</time>
      </trkpt>
      <trkpt lat="49.06625" lon="-1.58273">
        <ele>24.083502</ele>
        <time>2015-06-03T10:45:56Z</time>
      </trkpt>
      <trkpt lat="49.06622" lon="-1.58277">
        <ele>24.083502</ele>
        <time>2015-06-03T10:46:01Z</time>
      </trkpt>
      <trkpt lat="49.06619" lon="-1.58281">
        <ele>23.93741</ele>
        <time>2015-06-03T10:46:06Z</time>
      </trkpt>
      <trkpt lat="49.06617" lon="-1.58279">
        <ele>23.93741</ele>
        <time>2015-06-03T10:46:11Z</time>
      </trkpt>
      <trkpt lat="49.06616" lon="-1.58278">
        <ele>23.93741</ele>
        <time>2015-06-03T10:46:16Z</time>
      </trkpt>
      <trkpt lat="49.06616" lon="-1.58277">
        <ele>23.93741</ele>
        <time>2015-06-03T10:46:21Z</time>
      </trkpt>
      <trkpt lat="49.06615" lon="-1.58278">
        <ele>23.93741</ele>
        <time>2015-06-03T10:46:26Z</time>
      </trkpt>
      <trkpt lat="49.06615" lon="-1.58279">
        <ele>23.93741</ele>
        <time>2015-06-03T10:46:31Z</time>
      </trkpt>
      <trkpt lat="49.06614" lon="-1.5828">
        <ele>23.93741</ele>
        <time>2015-06-03T10:46:36Z</time>
      </trkpt>
      <trkpt lat="49.06614" lon="-1.58282">
        <ele>23.93741</ele>
        <time>2015-06-03T10:46:41Z</time>
      </trkpt>
      <trkpt lat="49.06615" lon="-1.58282">
        <ele>23.93741</ele>
        <time>2015-06-03T10:46:46Z</time>
      </trkpt>
      <trkpt lat="49.06615" lon="-1.58283">
        <ele>23.51854</ele>
        <time>2015-06-03T10:46:51Z</time>
      </trkpt>
      <trkpt lat="49.06615" lon="-1.58283">
        <ele>23.51854</ele>
        <time>2015-06-03T10:46:56Z</time>
      </trkpt>
      <trkpt lat="49.06615" lon="-1.58283">
        <ele>23.51854</ele>
        <time>2015-06-03T10:47:01Z</time>
      </trkpt>
      <trkpt lat="49.06615" lon="-1.58283">
        <ele>23.51854</ele>
        <time>2015-06-03T10:47:06Z</time>
      </trkpt>
      <trkpt lat="49.06616" lon="-1.58284">
        <ele>23.51854</ele>
        <time>2015-06-03T10:48:21Z</time>
      </trkpt>
      <trkpt lat="49.06619" lon="-1.58288">
        <ele>23.51854</ele>
        <time>2015-06-03T10:48:26Z</time>
      </trkpt>
      <trkpt lat="49.06624" lon="-1.58293">
        <ele>23.334803</ele>
        <time>2015-06-03T10:48:31Z</time>
      </trkpt>
      <trkpt lat="49.06629" lon="-1.58296">
        <ele>23.334803</ele>
        <time>2015-06-03T10:48:36Z</time>
      </trkpt>
      <trkpt lat="49.06633" lon="-1.58302">
        <ele>23.245382</ele>
        <time>2015-06-03T10:48:41Z</time>
      </trkpt>
      <trkpt lat="49.06637" lon="-1.5831">
        <ele>23.245382</ele>
        <time>2015-06-03T10:48:46Z</time>
      </trkpt>
      <trkpt lat="49.06642" lon="-1.58317">
        <ele>23.192776</ele>
        <time>2015-06-03T10:48:51Z</time>
      </trkpt>
      <trkpt lat="49.06645" lon="-1.58322">
        <ele>23.192776</ele>
        <time>2015-06-03T10:48:56Z</time>
      </trkpt>
      <trkpt lat="49.06648" lon="-1.58327">
        <ele>23.224897</ele>
        <time>2015-06-03T10:49:01Z</time>
      </trkpt>
      <trkpt lat="49.06653" lon="-1.58332">
        <ele>23.224897</ele>
        <time>2015-06-03T10:49:06Z</time>
      </trkpt>
      <trkpt lat="49.06657" lon="-1.58334">
        <ele>23.234814</ele>
        <time>2015-06-03T10:49:11Z</time>
      </trkpt>
      <trkpt lat="49.06663" lon="-1.58339">
        <ele>23.234814</ele>
        <time>2015-06-03T10:49:16Z</time>
      </trkpt>
      <trkpt lat="49.06672" lon="-1.58342">
        <ele>23.175032</ele>
        <time>2015-06-03T10:49:21Z</time>
      </trkpt>
      <trkpt lat="49.06676" lon="-1.58344">
        <ele>23.175032</ele>
        <time>2015-06-03T10:49:26Z</time>
      </trkpt>
      <trkpt lat="49.06683" lon="-1.58344">
        <ele>23.152155</ele>
        <time>2015-06-03T10:49:31Z</time>
      </trkpt>
      <trkpt lat="49.06689" lon="-1.58346">
        <ele>23.152155</ele>
        <time>2015-06-03T10:49:36Z</time>
      </trkpt>
      <trkpt lat="49.06695" lon="-1.58346">
        <ele>23.048687</ele>
        <time>2015-06-03T10:49:41Z</time>
      </trkpt>
      <trkpt lat="49.06699" lon="-1.58343">
        <ele>23.048687</ele>
        <time>2015-06-03T10:49:46Z</time>
      </trkpt>
      <trkpt lat="49.06702" lon="-1.58336">
        <ele>22.987293</ele>
        <time>2015-06-03T10:49:51Z</time>
      </trkpt>
      <trkpt lat="49.06708" lon="-1.58331">
        <ele>22.987293</ele>
        <time>2015-06-03T10:49:56Z</time>
      </trkpt>
      <trkpt lat="49.06712" lon="-1.5833">
        <ele>22.963902</ele>
        <time>2015-06-03T10:50:01Z</time>
      </trkpt>
      <trkpt lat="49.0672" lon="-1.58333">
        <ele>22.963902</ele>
        <time>2015-06-03T10:50:06Z</time>
      </trkpt>
      <trkpt lat="49.06724" lon="-1.58341">
        <ele>22.927362</ele>
        <time>2015-06-03T10:50:11Z</time>
      </trkpt>
      <trkpt lat="49.06728" lon="-1.58344">
        <ele>22.927362</ele>
        <time>2015-06-03T10:50:16Z</time>
      </trkpt>
      <trkpt lat="49.06733" lon="-1.58348">
        <ele>22.833057</ele>
        <time>2015-06-03T10:50:21Z</time>
      </trkpt>
      <trkpt lat="49.06739" lon="-1.58353">
        <ele>22.833057</ele>
        <time>2015-06-03T10:50:26Z</time>
      </trkpt>
      <trkpt lat="49.06743" lon="-1.58359">
        <ele>22.611917</ele>
        <time>2015-06-03T10:50:31Z</time>
      </trkpt>
      <trkpt lat="49.06748" lon="-1.58365">
        <ele>22.611917</ele>
        <time>2015-06-03T10:50:36Z</time>
      </trkpt>
      <trkpt lat="49.06753" lon="-1.5837">
        <ele>22.249</ele>
        <time>2015-06-03T10:50:41Z</time>
      </trkpt>
      <trkpt lat="49.06759" lon="-1.58377">
        <ele>22.249</ele>
        <time>2015-06-03T10:50:46Z</time>
      </trkpt>
      <trkpt lat="49.06764" lon="-1.58382">
        <ele>21.864225</ele>
        <time>2015-06-03T10:50:51Z</time>
      </trkpt>
      <trkpt lat="49.0677" lon="-1.58387">
        <ele>21.864225</ele>
        <time>2015-06-03T10:50:56Z</time>
      </trkpt>
      <trkpt lat="49.06777" lon="-1.58392">
        <ele>21.518745</ele>
        <time>2015-06-03T10:51:01Z</time>
      </trkpt>
      <trkpt lat="49.06783" lon="-1.58395">
        <ele>21.518745</ele>
        <time>2015-06-03T10:51:06Z</time>
      </trkpt>
      <trkpt lat="49.06789" lon="-1.58399">
        <ele>21.266258</ele>
        <time>2015-06-03T10:51:11Z</time>
      </trkpt>
      <trkpt lat="49.06796" lon="-1.58403">
        <ele>21.266258</ele>
        <time>2015-06-03T10:51:16Z</time>
      </trkpt>
      <trkpt lat="49.06801" lon="-1.58409">
        <ele>21.040462</ele>
        <time>2015-06-03T10:51:21Z</time>
      </trkpt>
      <trkpt lat="49.06809" lon="-1.58415">
        <ele>21.040462</ele>
        <time>2015-06-03T10:51:26Z</time>
      </trkpt>
      <trkpt lat="49.06814" lon="-1.58422">
        <ele>20.796455</ele>
        <time>2015-06-03T10:51:31Z</time>
      </trkpt>
      <trkpt lat="49.06818" lon="-1.58424">
        <ele>20.796455</ele>
        <time>2015-06-03T10:51:36Z</time>
      </trkpt>
      <trkpt lat="49.06825" lon="-1.58426">
        <ele>20.50789</ele>
        <time>2015-06-03T10:51:41Z</time>
      </trkpt>
      <trkpt lat="49.0683" lon="-1.58429">
        <ele>20.50789</ele>
        <time>2015-06-03T10:51:46Z</time>
      </trkpt>
      <trkpt lat="49.06836" lon="-1.58433">
        <ele>20.192598</ele>
        <time>2015-06-03T10:51:51Z</time>
      </trkpt>
      <trkpt lat="49.06842" lon="-1.58438">
        <ele>20.192598</ele>
        <time>2015-06-03T10:51:56Z</time>
      </trkpt>
      <trkpt lat="49.06846" lon="-1.58443">
        <ele>19.852804</ele>
        <time>2015-06-03T10:52:01Z</time>
      </trkpt>
      <trkpt lat="49.0685" lon="-1.58446">
        <ele>19.852804</ele>
        <time>2015-06-03T10:52:06Z</time>
      </trkpt>
      <trkpt lat="49.06855" lon="-1.5845">
        <ele>19.448866</ele>
        <time>2015-06-03T10:52:11Z</time>
      </trkpt>
      <trkpt lat="49.06861" lon="-1.58454">
        <ele>19.448866</ele>
        <time>2015-06-03T10:52:16Z</time>
      </trkpt>
      <trkpt lat="49.06864" lon="-1.5846">
        <ele>18.98565</ele>
        <time>2015-06-03T10:52:21Z</time>
      </trkpt>
      <trkpt lat="49.06871" lon="-1.58463">
        <ele>18.98565</ele>
        <time>2015-06-03T10:52:26Z</time>
      </trkpt>
      <trkpt lat="49.06877" lon="-1.58466">
        <ele>18.411947</ele>
        <time>2015-06-03T10:52:31Z</time>
      </trkpt>
      <trkpt lat="49.06881" lon="-1.58468">
        <ele>18.411947</ele>
        <time>2015-06-03T10:52:36Z</time>
      </trkpt>
      <trkpt lat="49.06887" lon="-1.58471">
        <ele>17.735569</ele>
        <time>2015-06-03T10:52:41Z</time>
      </trkpt>
      <trkpt lat="49.06895" lon="-1.58472">
        <ele>17.735569</ele>
        <time>2015-06-03T10:52:46Z</time>
      </trkpt>
      <trkpt lat="49.069" lon="-1.58474">
        <ele>16.977875</ele>
        <time>2015-06-03T10:52:51Z</time>
      </trkpt>
      <trkpt lat="49.06908" lon="-1.58476">
        <ele>16.977875</ele>
        <time>2015-06-03T10:52:56Z</time>
      </trkpt>
      <trkpt lat="49.06916" lon="-1.58477">
        <ele>16.060545</ele>
        <time>2015-06-03T10:53:01Z</time>
      </trkpt>
      <trkpt lat="49.06924" lon="-1.58478">
        <ele>16.060545</ele>
        <time>2015-06-03T10:53:06Z</time>
      </trkpt>
      <trkpt lat="49.06931" lon="-1.58481">
        <ele>15.136652</ele>
        <time>2015-06-03T10:53:11Z</time>
      </trkpt>
      <trkpt lat="49.06934" lon="-1.58481">
        <ele>15.136652</ele>
        <time>2015-06-03T10:53:16Z</time>
      </trkpt>
      <trkpt lat="49.06941" lon="-1.58484">
        <ele>14.266029</ele>
        <time>2015-06-03T10:53:21Z</time>
      </trkpt>
      <trkpt lat="49.06938" lon="-1.58484">
        <ele>14.266029</ele>
        <time>2015-06-03T10:53:26Z</time>
      </trkpt>
      <trkpt lat="49.06939" lon="-1.58485">
        <ele>14.266029</ele>
        <time>2015-06-03T10:53:31Z</time>
      </trkpt>
      <trkpt lat="49.06939" lon="-1.58487">
        <ele>14.266029</ele>
        <time>2015-06-03T10:53:36Z</time>
      </trkpt>
      <trkpt lat="49.0694" lon="-1.58489">
        <ele>14.266029</ele>
        <time>2015-06-03T10:53:41Z</time>
      </trkpt>
      <trkpt lat="49.06942" lon="-1.58491">
        <ele>14.266029</ele>
        <time>2015-06-03T10:53:46Z</time>
      </trkpt>
      <trkpt lat="49.06947" lon="-1.58494">
        <ele>13.519979</ele>
        <time>2015-06-03T10:53:51Z</time>
      </trkpt>
      <trkpt lat="49.06953" lon="-1.58494">
        <ele>13.519979</ele>
        <time>2015-06-03T10:53:56Z</time>
      </trkpt>
      <trkpt lat="49.06958" lon="-1.58495">
        <ele>12.87912</ele>
        <time>2015-06-03T10:54:01Z</time>
      </trkpt>
      <trkpt lat="49.06964" lon="-1.58496">
        <ele>12.87912</ele>
        <time>2015-06-03T10:54:06Z</time>
      </trkpt>
      <trkpt lat="49.0697" lon="-1.58497">
        <ele>12.222622</ele>
        <time>2015-06-03T10:54:11Z</time>
      </trkpt>
      <trkpt lat="49.06978" lon="-1.58498">
        <ele>12.222622</ele>
        <time>2015-06-03T10:54:16Z</time>
      </trkpt>
      <trkpt lat="49.06985" lon="-1.58501">
        <ele>11.655778</ele>
        <time>2015-06-03T10:54:21Z</time>
      </trkpt>
      <trkpt lat="49.06992" lon="-1.58503">
        <ele>11.655778</ele>
        <time>2015-06-03T10:54:26Z</time>
      </trkpt>
      <trkpt lat="49.06999" lon="-1.58504">
        <ele>11.174553</ele>
        <time>2015-06-03T10:54:31Z</time>
      </trkpt>
      <trkpt lat="49.07007" lon="-1.58509">
        <ele>11.174553</ele>
        <time>2015-06-03T10:54:36Z</time>
      </trkpt>
      <trkpt lat="49.07013" lon="-1.58511">
        <ele>10.819016</ele>
        <time>2015-06-03T10:54:41Z</time>
      </trkpt>
      <trkpt lat="49.07016" lon="-1.58511">
        <ele>10.819016</ele>
        <time>2015-06-03T10:54:46Z</time>
      </trkpt>
      <trkpt lat="49.0702" lon="-1.5851">
        <ele>10.819016</ele>
        <time>2015-06-03T10:54:51Z</time>
      </trkpt>
      <trkpt lat="49.07025" lon="-1.58512">
        <ele>9.761988</ele>
        <time>2015-06-03T10:54:56Z</time>
      </trkpt>
      <trkpt lat="49.0703" lon="-1.58513">
        <ele>9.761988</ele>
        <time>2015-06-03T10:55:01Z</time>
      </trkpt>
      <trkpt lat="49.07032" lon="-1.58513">
        <ele>9.761988</ele>
        <time>2015-06-03T10:55:06Z</time>
      </trkpt>
      <trkpt lat="49.07034" lon="-1.58514">
        <ele>8.321646</ele>
        <time>2015-06-03T10:55:11Z</time>
      </trkpt>
      <trkpt lat="49.07036" lon="-1.58511">
        <ele>8.321646</ele>
        <time>2015-06-03T10:55:16Z</time>
      </trkpt>
      <trkpt lat="49.07035" lon="-1.58503">
        <ele>8.321646</ele>
        <time>2015-06-03T10:55:21Z</time>
      </trkpt>
      <trkpt lat="49.07036" lon="-1.58491">
        <ele>7.3690352</ele>
        <time>2015-06-03T10:55:26Z</time>
      </trkpt>
      <trkpt lat="49.07037" lon="-1.5848">
        <ele>7.3690352</ele>
        <time>2015-06-03T10:55:31Z</time>
      </trkpt>
      <trkpt lat="49.07036" lon="-1.5847">
        <ele>6.8128495</ele>
        <time>2015-06-03T10:55:36Z</time>
      </trkpt>
      <trkpt lat="49.07035" lon="-1.58462">
        <ele>6.8128495</ele>
        <time>2015-06-03T10:55:41Z</time>
      </trkpt>
      <trkpt lat="49.07034" lon="-1.58455">
        <ele>6.550182</ele>
        <time>2015-06-03T10:55:46Z</time>
      </trkpt>
      <trkpt lat="49.07037" lon="-1.58445">
        <ele>6.550182</ele>
        <time>2015-06-03T10:55:51Z</time>
      </trkpt>
      <trkpt lat="49.07042" lon="-1.58438">
        <ele>6.5438056</ele>
        <time>2015-06-03T10:55:56Z</time>
      </trkpt>
      <trkpt lat="49.07049" lon="-1.58435">
        <ele>6.5438056</ele>
        <time>2015-06-03T10:56:01Z</time>
      </trkpt>
      <trkpt lat="49.07055" lon="-1.58431">
        <ele>6.7727923</ele>
        <time>2015-06-03T10:56:06Z</time>
      </trkpt>
      <trkpt lat="49.07061" lon="-1.58426">
        <ele>6.7727923</ele>
        <time>2015-06-03T10:56:11Z</time>
      </trkpt>
      <trkpt lat="49.07066" lon="-1.58422">
        <ele>7.156155</ele>
        <time>2015-06-03T10:56:16Z</time>
      </trkpt>
      <trkpt lat="49.07073" lon="-1.58419">
        <ele>7.156155</ele>
        <time>2015-06-03T10:56:21Z</time>
      </trkpt>
      <trkpt lat="49.07078" lon="-1.58416">
        <ele>7.603346</ele>
        <time>2015-06-03T10:56:26Z</time>
      </trkpt>
      <trkpt lat="49.07086" lon="-1.58413">
        <ele>7.603346</ele>
        <time>2015-06-03T10:56:31Z</time>
      </trkpt>
      <trkpt lat="49.07092" lon="-1.58407">
        <ele>8.136281</ele>
        <time>2015-06-03T10:56:36Z</time>
      </trkpt>
      <trkpt lat="49.07097" lon="-1.58401">
        <ele>8.136281</ele>
        <time>2015-06-03T10:56:41Z</time>
      </trkpt>
      <trkpt lat="49.07105" lon="-1.58399">
        <ele>8.805015</ele>
        <time>2015-06-03T10:56:46Z</time>
      </trkpt>
      <trkpt lat="49.07109" lon="-1.58397">
        <ele>8.805015</ele>
        <time>2015-06-03T10:56:51Z</time>
      </trkpt>
      <trkpt lat="49.07115" lon="-1.58393">
        <ele>9.610054</ele>
        <time>2015-06-03T10:56:56Z</time>
      </trkpt>
      <trkpt lat="49.0712" lon="-1.5839">
        <ele>9.610054</ele>
        <time>2015-06-03T10:57:01Z</time>
      </trkpt>
      <trkpt lat="49.07126" lon="-1.58387">
        <ele>10.461516</ele>
        <time>2015-06-03T10:57:06Z</time>
      </trkpt>
      <trkpt lat="49.07133" lon="-1.58385">
        <ele>10.461516</ele>
        <time>2015-06-03T10:57:11Z</time>
      </trkpt>
      <trkpt lat="49.07138" lon="-1.58382">
        <ele>11.366786</ele>
        <time>2015-06-03T10:57:16Z</time>
      </trkpt>
      <trkpt lat="49.07145" lon="-1.5838">
        <ele>11.366786</ele>
        <time>2015-06-03T10:57:21Z</time>
      </trkpt>
      <trkpt lat="49.07152" lon="-1.58377">
        <ele>12.18332</ele>
        <time>2015-06-03T10:57:26Z</time>
      </trkpt>
      <trkpt lat="49.07157" lon="-1.58373">
        <ele>12.18332</ele>
        <time>2015-06-03T10:57:31Z</time>
      </trkpt>
      <trkpt lat="49.07163" lon="-1.58367">
        <ele>13.019308</ele>
        <time>2015-06-03T10:57:36Z</time>
      </trkpt>
      <trkpt lat="49.07168" lon="-1.58363">
        <ele>13.019308</ele>
        <time>2015-06-03T10:57:41Z</time>
      </trkpt>
      <trkpt lat="49.07173" lon="-1.58357">
        <ele>13.780777</ele>
        <time>2015-06-03T10:57:46Z</time>
      </trkpt>
      <trkpt lat="49.07179" lon="-1.58351">
        <ele>13.780777</ele>
        <time>2015-06-03T10:57:51Z</time>
      </trkpt>
      <trkpt lat="49.07182" lon="-1.58342">
        <ele>14.470923</ele>
        <time>2015-06-03T10:57:56Z</time>
      </trkpt>
      <trkpt lat="49.07187" lon="-1.58335">
        <ele>14.470923</ele>
        <time>2015-06-03T10:58:01Z</time>
      </trkpt>
      <trkpt lat="49.07192" lon="-1.5833">
        <ele>15.048624</ele>
        <time>2015-06-03T10:58:06Z</time>
      </trkpt>
      <trkpt lat="49.07197" lon="-1.58323">
        <ele>15.048624</ele>
        <time>2015-06-03T10:58:11Z</time>
      </trkpt>
      <trkpt lat="49.07202" lon="-1.58318">
        <ele>15.565062</ele>
        <time>2015-06-03T10:58:16Z</time>
      </trkpt>
      <trkpt lat="49.07208" lon="-1.58311">
        <ele>15.565062</ele>
        <time>2015-06-03T10:58:21Z</time>
      </trkpt>
      <trkpt lat="49.07213" lon="-1.58307">
        <ele>16.03794</ele>
        <time>2015-06-03T10:58:26Z</time>
      </trkpt>
      <trkpt lat="49.07218" lon="-1.58303">
        <ele>16.03794</ele>
        <time>2015-06-03T10:58:31Z</time>
      </trkpt>
      <trkpt lat="49.07224" lon="-1.583">
        <ele>16.380898</ele>
        <time>2015-06-03T10:58:36Z</time>
      </trkpt>
      <trkpt lat="49.0723" lon="-1.58295">
        <ele>16.380898</ele>
        <time>2015-06-03T10:58:41Z</time>
      </trkpt>
      <trkpt lat="49.07236" lon="-1.58291">
        <ele>16.602951</ele>
        <time>2015-06-03T10:58:46Z</time>
      </trkpt>
      <trkpt lat="49.07243" lon="-1.58287">
        <ele>16.602951</ele>
        <time>2015-06-03T10:58:51Z</time>
      </trkpt>
      <trkpt lat="49.0725" lon="-1.58282">
        <ele>16.75654</ele>
        <time>2015-06-03T10:58:56Z</time>
      </trkpt>
      <trkpt lat="49.07255" lon="-1.58279">
        <ele>16.75654</ele>
        <time>2015-06-03T10:59:01Z</time>
      </trkpt>
      <trkpt lat="49.07259" lon="-1.58277">
        <ele>16.904613</ele>
        <time>2015-06-03T10:59:06Z</time>
      </trkpt>
      <trkpt lat="49.07266" lon="-1.58274">
        <ele>16.904613</ele>
        <time>2015-06-03T10:59:11Z</time>
      </trkpt>
      <trkpt lat="49.07274" lon="-1.5827">
        <ele>17.090517</ele>
        <time>2015-06-03T10:59:16Z</time>
      </trkpt>
      <trkpt lat="49.07279" lon="-1.58267">
        <ele>17.090517</ele>
        <time>2015-06-03T10:59:21Z</time>
      </trkpt>
      <trkpt lat="49.07286" lon="-1.58262">
        <ele>17.368628</ele>
        <time>2015-06-03T10:59:26Z</time>
      </trkpt>
      <trkpt lat="49.07292" lon="-1.58258">
        <ele>17.368628</ele>
        <time>2015-06-03T10:59:31Z</time>
      </trkpt>
      <trkpt lat="49.07299" lon="-1.58253">
        <ele>17.716238</ele>
        <time>2015-06-03T10:59:36Z</time>
      </trkpt>
      <trkpt lat="49.07304" lon="-1.58249">
        <ele>17.716238</ele>
        <time>2015-06-03T10:59:41Z</time>
      </trkpt>
      <trkpt lat="49.07309" lon="-1.58246">
        <ele>18.010801</ele>
        <time>2015-06-03T10:59:46Z</time>
      </trkpt>
      <trkpt lat="49.07315" lon="-1.5824">
        <ele>18.010801</ele>
        <time>2015-06-03T10:59:51Z</time>
      </trkpt>
      <trkpt lat="49.07319" lon="-1.58235">
        <ele>18.154028</ele>
        <time>2015-06-03T10:59:56Z</time>
      </trkpt>
      <trkpt lat="49.0732" lon="-1.58231">
        <ele>18.154028</ele>
        <time>2015-06-03T11:00:01Z</time>
      </trkpt>
      <trkpt lat="49.07319" lon="-1.58232">
        <ele>18.154028</ele>
        <time>2015-06-03T11:00:06Z</time>
      </trkpt>
      <trkpt lat="49.07323" lon="-1.58226">
        <ele>18.15695</ele>
        <time>2015-06-03T11:00:11Z</time>
      </trkpt>
      <trkpt lat="49.07327" lon="-1.58221">
        <ele>18.15695</ele>
        <time>2015-06-03T11:00:16Z</time>
      </trkpt>
      <trkpt lat="49.0733" lon="-1.58216">
        <ele>18.232569</ele>
        <time>2015-06-03T11:00:21Z</time>
      </trkpt>
      <trkpt lat="49.07332" lon="-1.58207">
        <ele>18.232569</ele>
        <time>2015-06-03T11:00:26Z</time>
      </trkpt>
      <trkpt lat="49.07333" lon="-1.58198">
        <ele>18.33176</ele>
        <time>2015-06-03T11:00:31Z</time>
      </trkpt>
      <trkpt lat="49.07329" lon="-1.5819">
        <ele>18.33176</ele>
        <time>2015-06-03T11:00:36Z</time>
      </trkpt>
      <trkpt lat="49.07324" lon="-1.58185">
        <ele>18.409143</ele>
        <time>2015-06-03T11:00:41Z</time>
      </trkpt>
      <trkpt lat="49.07318" lon="-1.5818">
        <ele>18.409143</ele>
        <time>2015-06-03T11:00:46Z</time>
      </trkpt>
      <trkpt lat="49.07312" lon="-1.58177">
        <ele>18.40843</ele>
        <time>2015-06-03T11:00:51Z</time>
      </trkpt>
      <trkpt lat="49.07306" lon="-1.58174">
        <ele>18.40843</ele>
        <time>2015-06-03T11:00:56Z</time>
      </trkpt>
      <trkpt lat="49.07303" lon="-1.58169">
        <ele>18.436537</ele>
        <time>2015-06-03T11:01:01Z</time>
      </trkpt>
      <trkpt lat="49.07303" lon="-1.58167">
        <ele>18.436537</ele>
        <time>2015-06-03T11:01:06Z</time>
      </trkpt>
      <trkpt lat="49.07298" lon="-1.58163">
        <ele>18.436537</ele>
        <time>2015-06-03T11:01:11Z</time>
      </trkpt>
      <trkpt lat="49.07292" lon="-1.58161">
        <ele>18.53463</ele>
        <time>2015-06-03T11:01:16Z</time>
      </trkpt>
      <trkpt lat="49.07284" lon="-1.58156">
        <ele>18.53463</ele>
        <time>2015-06-03T11:01:21Z</time>
      </trkpt>
      <trkpt lat="49.07278" lon="-1.58153">
        <ele>18.654137</ele>
        <time>2015-06-03T11:01:26Z</time>
      </trkpt>
      <trkpt lat="49.07272" lon="-1.58148">
        <ele>18.654137</ele>
        <time>2015-06-03T11:01:31Z</time>
      </trkpt>
      <trkpt lat="49.0727" lon="-1.58145">
        <ele>18.793337</ele>
        <time>2015-06-03T11:01:36Z</time>
      </trkpt>
      <trkpt lat="49.0727" lon="-1.58143">
        <ele>18.793337</ele>
        <time>2015-06-03T11:01:41Z</time>
      </trkpt>
      <trkpt lat="49.0727" lon="-1.58143">
        <ele>18.793337</ele>
        <time>2015-06-03T11:01:46Z</time>
      </trkpt>
      <trkpt lat="49.0727" lon="-1.58143">
        <ele>18.793337</ele>
        <time>2015-06-03T11:01:51Z</time>
      </trkpt>
      <trkpt lat="49.07271" lon="-1.58143">
        <ele>18.793337</ele>
        <time>2015-06-03T11:01:56Z</time>
      </trkpt>
      <trkpt lat="49.0727" lon="-1.58144">
        <ele>18.793337</ele>
        <time>2015-06-03T11:02:01Z</time>
      </trkpt>
      <trkpt lat="49.07268" lon="-1.58141">
        <ele>18.793337</ele>
        <time>2015-06-03T11:02:06Z</time>
      </trkpt>
      <trkpt lat="49.07265" lon="-1.58132">
        <ele>18.792011</ele>
        <time>2015-06-03T11:02:11Z</time>
      </trkpt>
      <trkpt lat="49.07263" lon="-1.5812">
        <ele>18.792011</ele>
        <time>2015-06-03T11:02:16Z</time>
      </trkpt>
      <trkpt lat="49.0726" lon="-1.58109">
        <ele>18.804958</ele>
        <time>2015-06-03T11:02:21Z</time>
      </trkpt>
      <trkpt lat="49.07259" lon="-1.58101">
        <ele>18.804958</ele>
        <time>2015-06-03T11:02:26Z</time>
      </trkpt>
      <trkpt lat="49.07259" lon="-1.58093">
        <ele>18.816952</ele>
        <time>2015-06-03T11:02:31Z</time>
      </trkpt>
      <trkpt lat="49.07257" lon="-1.58085">
        <ele>18.816952</ele>
        <time>2015-06-03T11:02:36Z</time>
      </trkpt>
      <trkpt lat="49.07254" lon="-1.58075">
        <ele>18.828337</ele>
        <time>2015-06-03T11:02:41Z</time>
      </trkpt>
      <trkpt lat="49.07252" lon="-1.58068">
        <ele>18.828337</ele>
        <time>2015-06-03T11:02:46Z</time>
      </trkpt>
      <trkpt lat="49.07248" lon="-1.58059">
        <ele>18.825039</ele>
        <time>2015-06-03T11:02:51Z</time>
      </trkpt>
      <trkpt lat="49.07245" lon="-1.58048">
        <ele>18.825039</ele>
        <time>2015-06-03T11:02:56Z</time>
      </trkpt>
      <trkpt lat="49.07242" lon="-1.58041">
        <ele>18.822912</ele>
        <time>2015-06-03T11:03:01Z</time>
      </trkpt>
      <trkpt lat="49.07237" lon="-1.5803">
        <ele>18.807823</ele>
        <time>2015-06-03T11:03:06Z</time>
      </trkpt>
      <trkpt lat="49.07234" lon="-1.58022">
        <ele>18.807823</ele>
        <time>2015-06-03T11:03:11Z</time>
      </trkpt>
      <trkpt lat="49.07231" lon="-1.58012">
        <ele>18.809984</ele>
        <time>2015-06-03T11:03:16Z</time>
      </trkpt>
      <trkpt lat="49.07229" lon="-1.58002">
        <ele>18.809984</ele>
        <time>2015-06-03T11:03:21Z</time>
      </trkpt>
      <trkpt lat="49.07228" lon="-1.57994">
        <ele>18.814095</ele>
        <time>2015-06-03T11:03:26Z</time>
      </trkpt>
      <trkpt lat="49.07227" lon="-1.57983">
        <ele>18.814095</ele>
        <time>2015-06-03T11:03:31Z</time>
      </trkpt>
      <trkpt lat="49.07229" lon="-1.57971">
        <ele>18.820396</ele>
        <time>2015-06-03T11:03:36Z</time>
      </trkpt>
      <trkpt lat="49.07228" lon="-1.57963">
        <ele>18.820396</ele>
        <time>2015-06-03T11:03:41Z</time>
      </trkpt>
      <trkpt lat="49.07226" lon="-1.5796">
        <ele>18.820396</ele>
        <time>2015-06-03T11:03:46Z</time>
      </trkpt>
      <trkpt lat="49.07227" lon="-1.57963">
        <ele>18.857964</ele>
        <time>2015-06-03T11:03:51Z</time>
      </trkpt>
      <trkpt lat="49.07224" lon="-1.57963">
        <ele>18.857964</ele>
        <time>2015-06-03T11:03:56Z</time>
      </trkpt>
      <trkpt lat="49.0722" lon="-1.57963">
        <ele>18.857964</ele>
        <time>2015-06-03T11:04:01Z</time>
      </trkpt>
      <trkpt lat="49.0722" lon="-1.57963">
        <ele>18.857964</ele>
        <time>2015-06-03T11:04:06Z</time>
      </trkpt>
      <trkpt lat="49.0722" lon="-1.57963">
        <ele>18.857964</ele>
        <time>2015-06-03T11:04:11Z</time>
      </trkpt>
      <trkpt lat="49.0722" lon="-1.57962">
        <ele>18.857964</ele>
        <time>2015-06-03T11:04:16Z</time>
      </trkpt>
      <trkpt lat="49.07221" lon="-1.57961">
        <ele>18.857964</ele>
        <time>2015-06-03T11:04:21Z</time>
      </trkpt>
      <trkpt lat="49.07222" lon="-1.5796">
        <ele>18.939228</ele>
        <time>2015-06-03T11:04:26Z</time>
      </trkpt>
      <trkpt lat="49.07222" lon="-1.5796">
        <ele>18.939228</ele>
        <time>2015-06-03T11:04:31Z</time>
      </trkpt>
      <trkpt lat="49.07222" lon="-1.57959">
        <ele>18.939228</ele>
        <time>2015-06-03T11:04:36Z</time>
      </trkpt>
      <trkpt lat="49.07222" lon="-1.57959">
        <ele>18.939228</ele>
        <time>2015-06-03T11:04:41Z</time>
      </trkpt>
      <trkpt lat="49.07223" lon="-1.5796">
        <ele>18.939228</ele>
        <time>2015-06-03T11:04:46Z</time>
      </trkpt>
      <trkpt lat="49.07223" lon="-1.57962">
        <ele>18.939228</ele>
        <time>2015-06-03T11:04:51Z</time>
      </trkpt>
      <trkpt lat="49.07224" lon="-1.57963">
        <ele>18.939228</ele>
        <time>2015-06-03T11:04:56Z</time>
      </trkpt>
      <trkpt lat="49.07226" lon="-1.57959">
        <ele>18.939228</ele>
        <time>2015-06-03T11:05:01Z</time>
      </trkpt>
      <trkpt lat="49.07229" lon="-1.57949">
        <ele>18.84481</ele>
        <time>2015-06-03T11:05:06Z</time>
      </trkpt>
      <trkpt lat="49.07233" lon="-1.57935">
        <ele>18.77581</ele>
        <time>2015-06-03T11:05:11Z</time>
      </trkpt>
      <trkpt lat="49.07236" lon="-1.57923">
        <ele>18.77581</ele>
        <time>2015-06-03T11:05:16Z</time>
      </trkpt>
      <trkpt lat="49.07238" lon="-1.57912">
        <ele>18.81751</ele>
        <time>2015-06-03T11:05:21Z</time>
      </trkpt>
      <trkpt lat="49.0724" lon="-1.57902">
        <ele>18.81751</ele>
        <time>2015-06-03T11:05:26Z</time>
      </trkpt>
      <trkpt lat="49.07242" lon="-1.57893">
        <ele>18.904379</ele>
        <time>2015-06-03T11:05:31Z</time>
      </trkpt>
      <trkpt lat="49.07244" lon="-1.57881">
        <ele>18.904379</ele>
        <time>2015-06-03T11:05:36Z</time>
      </trkpt>
      <trkpt lat="49.07246" lon="-1.5787">
        <ele>19.018831</ele>
        <time>2015-06-03T11:05:41Z</time>
      </trkpt>
      <trkpt lat="49.07248" lon="-1.57858">
        <ele>19.018831</ele>
        <time>2015-06-03T11:05:46Z</time>
      </trkpt>
      <trkpt lat="49.07249" lon="-1.57849">
        <ele>19.187773</ele>
        <time>2015-06-03T11:05:51Z</time>
      </trkpt>
      <trkpt lat="49.0725" lon="-1.5784">
        <ele>19.187773</ele>
        <time>2015-06-03T11:05:56Z</time>
      </trkpt>
      <trkpt lat="49.0725" lon="-1.57829">
        <ele>19.421547</ele>
        <time>2015-06-03T11:06:01Z</time>
      </trkpt>
      <trkpt lat="49.0725" lon="-1.57818">
        <ele>19.421547</ele>
        <time>2015-06-03T11:06:06Z</time>
      </trkpt>
      <trkpt lat="49.07251" lon="-1.57808">
        <ele>19.686277</ele>
        <time>2015-06-03T11:06:11Z</time>
      </trkpt>
      <trkpt lat="49.0725" lon="-1.57796">
        <ele>19.686277</ele>
        <time>2015-06-03T11:06:16Z</time>
      </trkpt>
      <trkpt lat="49.07251" lon="-1.57786">
        <ele>20.037033</ele>
        <time>2015-06-03T11:06:21Z</time>
      </trkpt>
      <trkpt lat="49.07251" lon="-1.57776">
        <ele>20.037033</ele>
        <time>2015-06-03T11:06:26Z</time>
      </trkpt>
      <trkpt lat="49.07251" lon="-1.57765">
        <ele>20.481316</ele>
        <time>2015-06-03T11:06:31Z</time>
      </trkpt>
      <trkpt lat="49.0725" lon="-1.57757">
        <ele>20.481316</ele>
        <time>2015-06-03T11:06:36Z</time>
      </trkpt>
      <trkpt lat="49.07251" lon="-1.57745">
        <ele>20.96813</ele>
        <time>2015-06-03T11:06:41Z</time>
      </trkpt>
      <trkpt lat="49.07252" lon="-1.57735">
        <ele>20.96813</ele>
        <time>2015-06-03T11:06:46Z</time>
      </trkpt>
      <trkpt lat="49.07252" lon="-1.57724">
        <ele>21.49338</ele>
        <time>2015-06-03T11:06:51Z</time>
      </trkpt>
      <trkpt lat="49.0725" lon="-1.57713">
        <ele>21.49338</ele>
        <time>2015-06-03T11:06:56Z</time>
      </trkpt>
      <trkpt lat="49.07249" lon="-1.57703">
        <ele>22.082014</ele>
        <time>2015-06-03T11:07:01Z</time>
      </trkpt>
      <trkpt lat="49.07249" lon="-1.57693">
        <ele>22.082014</ele>
        <time>2015-06-03T11:07:06Z</time>
      </trkpt>
      <trkpt lat="49.07249" lon="-1.57683">
        <ele>22.713717</ele>
        <time>2015-06-03T11:07:11Z</time>
      </trkpt>
      <trkpt lat="49.07249" lon="-1.57673">
        <ele>22.713717</ele>
        <time>2015-06-03T11:07:16Z</time>
      </trkpt>
      <trkpt lat="49.07249" lon="-1.57661">
        <ele>23.383976</ele>
        <time>2015-06-03T11:07:21Z</time>
      </trkpt>
      <trkpt lat="49.07249" lon="-1.5765">
        <ele>23.383976</ele>
        <time>2015-06-03T11:07:26Z</time>
      </trkpt>
      <trkpt lat="49.0725" lon="-1.57637">
        <ele>24.102945</ele>
        <time>2015-06-03T11:07:31Z</time>
      </trkpt>
      <trkpt lat="49.07251" lon="-1.57627">
        <ele>24.102945</ele>
        <time>2015-06-03T11:07:36Z</time>
      </trkpt>
      <trkpt lat="49.07252" lon="-1.57618">
        <ele>24.85107</ele>
        <time>2015-06-03T11:07:41Z</time>
      </trkpt>
      <trkpt lat="49.07253" lon="-1.57606">
        <ele>24.85107</ele>
        <time>2015-06-03T11:07:46Z</time>
      </trkpt>
      <trkpt lat="49.07253" lon="-1.57595">
        <ele>25.566936</ele>
        <time>2015-06-03T11:07:51Z</time>
      </trkpt>
      <trkpt lat="49.07254" lon="-1.57583">
        <ele>25.566936</ele>
        <time>2015-06-03T11:07:56Z</time>
      </trkpt>
      <trkpt lat="49.07256" lon="-1.57568">
        <ele>26.251421</ele>
        <time>2015-06-03T11:08:01Z</time>
      </trkpt>
      <trkpt lat="49.07256" lon="-1.57559">
        <ele>26.251421</ele>
        <time>2015-06-03T11:08:06Z</time>
      </trkpt>
      <trkpt lat="49.07257" lon="-1.57552">
        <ele>26.991955</ele>
        <time>2015-06-03T11:08:11Z</time>
      </trkpt>
      <trkpt lat="49.07257" lon="-1.57541">
        <ele>26.991955</ele>
        <time>2015-06-03T11:08:16Z</time>
      </trkpt>
      <trkpt lat="49.07257" lon="-1.57533">
        <ele>27.696417</ele>
        <time>2015-06-03T11:08:21Z</time>
      </trkpt>
      <trkpt lat="49.07257" lon="-1.57523">
        <ele>27.696417</ele>
        <time>2015-06-03T11:08:26Z</time>
      </trkpt>
      <trkpt lat="49.07256" lon="-1.57515">
        <ele>28.366095</ele>
        <time>2015-06-03T11:08:31Z</time>
      </trkpt>
      <trkpt lat="49.07253" lon="-1.57507">
        <ele>28.366095</ele>
        <time>2015-06-03T11:08:36Z</time>
      </trkpt>
      <trkpt lat="49.07248" lon="-1.57496">
        <ele>29.002302</ele>
        <time>2015-06-03T11:08:41Z</time>
      </trkpt>
      <trkpt lat="49.07244" lon="-1.57488">
        <ele>29.002302</ele>
        <time>2015-06-03T11:08:46Z</time>
      </trkpt>
      <trkpt lat="49.07242" lon="-1.57478">
        <ele>29.664045</ele>
        <time>2015-06-03T11:08:51Z</time>
      </trkpt>
      <trkpt lat="49.07243" lon="-1.57468">
        <ele>29.664045</ele>
        <time>2015-06-03T11:08:56Z</time>
      </trkpt>
      <trkpt lat="49.07244" lon="-1.57458">
        <ele>30.362709</ele>
        <time>2015-06-03T11:09:01Z</time>
      </trkpt>
      <trkpt lat="49.07244" lon="-1.5745">
        <ele>30.362709</ele>
        <time>2015-06-03T11:09:06Z</time>
      </trkpt>
      <trkpt lat="49.07243" lon="-1.57441">
        <ele>31.152014</ele>
        <time>2015-06-03T11:09:11Z</time>
      </trkpt>
      <trkpt lat="49.07242" lon="-1.57433">
        <ele>31.152014</ele>
        <time>2015-06-03T11:09:16Z</time>
      </trkpt>
      <trkpt lat="49.07242" lon="-1.57423">
        <ele>32.009453</ele>
        <time>2015-06-03T11:09:21Z</time>
      </trkpt>
      <trkpt lat="49.0724" lon="-1.57414">
        <ele>32.009453</ele>
        <time>2015-06-03T11:09:26Z</time>
      </trkpt>
      <trkpt lat="49.0724" lon="-1.57409">
        <ele>32.841957</ele>
        <time>2015-06-03T11:09:31Z</time>
      </trkpt>
      <trkpt lat="49.07241" lon="-1.5741">
        <ele>32.841957</ele>
        <time>2015-06-03T11:09:36Z</time>
      </trkpt>
      <trkpt lat="49.07242" lon="-1.57411">
        <ele>32.841957</ele>
        <time>2015-06-03T11:09:41Z</time>
      </trkpt>
      <trkpt lat="49.07242" lon="-1.57412">
        <ele>32.841957</ele>
        <time>2015-06-03T11:09:46Z</time>
      </trkpt>
      <trkpt lat="49.07242" lon="-1.57414">
        <ele>32.841957</ele>
        <time>2015-06-03T11:09:51Z</time>
      </trkpt>
      <trkpt lat="49.07243" lon="-1.57421">
        <ele>32.841957</ele>
        <time>2015-06-03T11:09:56Z</time>
      </trkpt>
      <trkpt lat="49.07243" lon="-1.57429">
        <ele>33.433712</ele>
        <time>2015-06-03T11:10:01Z</time>
      </trkpt>
      <trkpt lat="49.07243" lon="-1.57438">
        <ele>33.433712</ele>
        <time>2015-06-03T11:10:06Z</time>
      </trkpt>
      <trkpt lat="49.07241" lon="-1.57448">
        <ele>33.816063</ele>
        <time>2015-06-03T11:10:11Z</time>
      </trkpt>
      <trkpt lat="49.07242" lon="-1.57455">
        <ele>33.816063</ele>
        <time>2015-06-03T11:10:16Z</time>
      </trkpt>
      <trkpt lat="49.07242" lon="-1.57462">
        <ele>33.903385</ele>
        <time>2015-06-03T11:10:21Z</time>
      </trkpt>
      <trkpt lat="49.07244" lon="-1.57472">
        <ele>33.903385</ele>
        <time>2015-06-03T11:10:26Z</time>
      </trkpt>
      <trkpt lat="49.07246" lon="-1.57484">
        <ele>33.746902</ele>
        <time>2015-06-03T11:10:31Z</time>
      </trkpt>
      <trkpt lat="49.07249" lon="-1.57495">
        <ele>33.746902</ele>
        <time>2015-06-03T11:10:36Z</time>
      </trkpt>
      <trkpt lat="49.07252" lon="-1.57505">
        <ele>33.510094</ele>
        <time>2015-06-03T11:10:41Z</time>
      </trkpt>
      <trkpt lat="49.07255" lon="-1.57512">
        <ele>33.510094</ele>
        <time>2015-06-03T11:10:46Z</time>
      </trkpt>
      <trkpt lat="49.07258" lon="-1.57516">
        <ele>33.402313</ele>
        <time>2015-06-03T11:10:51Z</time>
      </trkpt>
      <trkpt lat="49.07265" lon="-1.57511">
        <ele>33.402313</ele>
        <time>2015-06-03T11:10:56Z</time>
      </trkpt>
      <trkpt lat="49.0727" lon="-1.57504">
        <ele>33.415436</ele>
        <time>2015-06-03T11:11:01Z</time>
      </trkpt>
      <trkpt lat="49.07275" lon="-1.57496">
        <ele>33.415436</ele>
        <time>2015-06-03T11:11:06Z</time>
      </trkpt>
      <trkpt lat="49.07279" lon="-1.5749">
        <ele>33.512783</ele>
        <time>2015-06-03T11:11:11Z</time>
      </trkpt>
      <trkpt lat="49.07283" lon="-1.57483">
        <ele>33.512783</ele>
        <time>2015-06-03T11:11:16Z</time>
      </trkpt>
      <trkpt lat="49.07285" lon="-1.57474">
        <ele>33.645744</ele>
        <time>2015-06-03T11:11:21Z</time>
      </trkpt>
      <trkpt lat="49.07284" lon="-1.57465">
        <ele>33.645744</ele>
        <time>2015-06-03T11:11:26Z</time>
      </trkpt>
      <trkpt lat="49.07285" lon="-1.57458">
        <ele>33.798004</ele>
        <time>2015-06-03T11:11:31Z</time>
      </trkpt>
      <trkpt lat="49.07285" lon="-1.57452">
        <ele>33.798004</ele>
        <time>2015-06-03T11:11:36Z</time>
      </trkpt>
      <trkpt lat="49.07287" lon="-1.57443">
        <ele>33.92557</ele>
        <time>2015-06-03T11:11:41Z</time>
      </trkpt>
      <trkpt lat="49.07287" lon="-1.57435">
        <ele>33.92557</ele>
        <time>2015-06-03T11:11:46Z</time>
      </trkpt>
      <trkpt lat="49.07288" lon="-1.57427">
        <ele>34.074223</ele>
        <time>2015-06-03T11:11:51Z</time>
      </trkpt>
      <trkpt lat="49.07287" lon="-1.5742">
        <ele>34.074223</ele>
        <time>2015-06-03T11:11:56Z</time>
      </trkpt>
      <trkpt lat="49.07287" lon="-1.57411">
        <ele>34.214268</ele>
        <time>2015-06-03T11:12:01Z</time>
      </trkpt>
      <trkpt lat="49.07288" lon="-1.57402">
        <ele>34.214268</ele>
        <time>2015-06-03T11:12:06Z</time>
      </trkpt>
      <trkpt lat="49.0729" lon="-1.57394">
        <ele>34.347023</ele>
        <time>2015-06-03T11:12:11Z</time>
      </trkpt>
      <trkpt lat="49.0729" lon="-1.57387">
        <ele>34.347023</ele>
        <time>2015-06-03T11:12:16Z</time>
      </trkpt>
      <trkpt lat="49.07291" lon="-1.57378">
        <ele>34.516975</ele>
        <time>2015-06-03T11:12:21Z</time>
      </trkpt>
      <trkpt lat="49.07292" lon="-1.57365">
        <ele>34.516975</ele>
        <time>2015-06-03T11:12:26Z</time>
      </trkpt>
      <trkpt lat="49.07295" lon="-1.57354">
        <ele>34.69317</ele>
        <time>2015-06-03T11:12:31Z</time>
      </trkpt>
      <trkpt lat="49.07297" lon="-1.57345">
        <ele>34.69317</ele>
        <time>2015-06-03T11:12:36Z</time>
      </trkpt>
      <trkpt lat="49.073" lon="-1.57335">
        <ele>34.918945</ele>
        <time>2015-06-03T11:12:41Z</time>
      </trkpt>
      <trkpt lat="49.07303" lon="-1.57327">
        <ele>34.918945</ele>
        <time>2015-06-03T11:12:46Z</time>
      </trkpt>
      <trkpt lat="49.07305" lon="-1.57321">
        <ele>35.20551</ele>
        <time>2015-06-03T11:12:51Z</time>
      </trkpt>
      <trkpt lat="49.07308" lon="-1.57311">
        <ele>35.20551</ele>
        <time>2015-06-03T11:12:56Z</time>
      </trkpt>
      <trkpt lat="49.0731" lon="-1.57299">
        <ele>35.519817</ele>
        <time>2015-06-03T11:13:01Z</time>
      </trkpt>
      <trkpt lat="49.07312" lon="-1.57288">
        <ele>35.519817</ele>
        <time>2015-06-03T11:13:06Z</time>
      </trkpt>
      <trkpt lat="49.07315" lon="-1.5728">
        <ele>35.90322</ele>
        <time>2015-06-03T11:13:11Z</time>
      </trkpt>
      <trkpt lat="49.07319" lon="-1.57271">
        <ele>35.90322</ele>
        <time>2015-06-03T11:13:16Z</time>
      </trkpt>
      <trkpt lat="49.07323" lon="-1.57265">
        <ele>36.292957</ele>
        <time>2015-06-03T11:13:21Z</time>
      </trkpt>
      <trkpt lat="49.07327" lon="-1.57258">
        <ele>36.292957</ele>
        <time>2015-06-03T11:13:26Z</time>
      </trkpt>
      <trkpt lat="49.0733" lon="-1.57249">
        <ele>36.674076</ele>
        <time>2015-06-03T11:13:31Z</time>
      </trkpt>
      <trkpt lat="49.07334" lon="-1.5724">
        <ele>36.674076</ele>
        <time>2015-06-03T11:13:36Z</time>
      </trkpt>
      <trkpt lat="49.07338" lon="-1.57231">
        <ele>37.047165</ele>
        <time>2015-06-03T11:13:41Z</time>
      </trkpt>
      <trkpt lat="49.07342" lon="-1.57224">
        <ele>37.047165</ele>
        <time>2015-06-03T11:13:46Z</time>
      </trkpt>
      <trkpt lat="49.07346" lon="-1.57214">
        <ele>37.41277</ele>
        <time>2015-06-03T11:13:51Z</time>
      </trkpt>
      <trkpt lat="49.07349" lon="-1.57206">
        <ele>37.41277</ele>
        <time>2015-06-03T11:13:56Z</time>
      </trkpt>
      <trkpt lat="49.07352" lon="-1.57201">
        <ele>37.77142</ele>
        <time>2015-06-03T11:14:01Z</time>
      </trkpt>
      <trkpt lat="49.07358" lon="-1.57194">
        <ele>37.77142</ele>
        <time>2015-06-03T11:14:06Z</time>
      </trkpt>
      <trkpt lat="49.07362" lon="-1.57186">
        <ele>38.080376</ele>
        <time>2015-06-03T11:14:11Z</time>
      </trkpt>
      <trkpt lat="49.07366" lon="-1.57177">
        <ele>38.080376</ele>
        <time>2015-06-03T11:14:16Z</time>
      </trkpt>
      <trkpt lat="49.07369" lon="-1.57169">
        <ele>38.314598</ele>
        <time>2015-06-03T11:14:21Z</time>
      </trkpt>
      <trkpt lat="49.07373" lon="-1.5716">
        <ele>38.314598</ele>
        <time>2015-06-03T11:14:26Z</time>
      </trkpt>
      <trkpt lat="49.07377" lon="-1.57154">
        <ele>38.523132</ele>
        <time>2015-06-03T11:14:31Z</time>
      </trkpt>
      <trkpt lat="49.07383" lon="-1.57147">
        <ele>38.523132</ele>
        <time>2015-06-03T11:14:36Z</time>
      </trkpt>
      <trkpt lat="49.0739" lon="-1.57143">
        <ele>38.737083</ele>
        <time>2015-06-03T11:14:41Z</time>
      </trkpt>
      <trkpt lat="49.07396" lon="-1.5714">
        <ele>38.737083</ele>
        <time>2015-06-03T11:14:46Z</time>
      </trkpt>
      <trkpt lat="49.07402" lon="-1.57138">
        <ele>38.84114</ele>
        <time>2015-06-03T11:14:51Z</time>
      </trkpt>
      <trkpt lat="49.07407" lon="-1.57134">
        <ele>38.84114</ele>
        <time>2015-06-03T11:14:56Z</time>
      </trkpt>
      <trkpt lat="49.07412" lon="-1.57131">
        <ele>38.901688</ele>
        <time>2015-06-03T11:15:01Z</time>
      </trkpt>
      <trkpt lat="49.07421" lon="-1.57126">
        <ele>38.95153</ele>
        <time>2015-06-03T11:15:06Z</time>
      </trkpt>
      <trkpt lat="49.07426" lon="-1.57125">
        <ele>38.95153</ele>
        <time>2015-06-03T11:15:11Z</time>
      </trkpt>
      <trkpt lat="49.07432" lon="-1.57125">
        <ele>38.97785</ele>
        <time>2015-06-03T11:15:16Z</time>
      </trkpt>
      <trkpt lat="49.07438" lon="-1.57123">
        <ele>38.97785</ele>
        <time>2015-06-03T11:15:21Z</time>
      </trkpt>
      <trkpt lat="49.07444" lon="-1.5712">
        <ele>38.940002</ele>
        <time>2015-06-03T11:15:26Z</time>
      </trkpt>
      <trkpt lat="49.0745" lon="-1.57119">
        <ele>38.940002</ele>
        <time>2015-06-03T11:15:31Z</time>
      </trkpt>
      <trkpt lat="49.07455" lon="-1.57116">
        <ele>38.843723</ele>
        <time>2015-06-03T11:15:36Z</time>
      </trkpt>
      <trkpt lat="49.07461" lon="-1.57107">
        <ele>38.843723</ele>
        <time>2015-06-03T11:15:41Z</time>
      </trkpt>
      <trkpt lat="49.0746" lon="-1.57103">
        <ele>38.70889</ele>
        <time>2015-06-03T11:15:46Z</time>
      </trkpt>
      <trkpt lat="49.07461" lon="-1.57092">
        <ele>38.70889</ele>
        <time>2015-06-03T11:15:51Z</time>
      </trkpt>
      <trkpt lat="49.0746" lon="-1.57084">
        <ele>38.55401</ele>
        <time>2015-06-03T11:15:56Z</time>
      </trkpt>
      <trkpt lat="49.07459" lon="-1.5707">
        <ele>38.425083</ele>
        <time>2015-06-03T11:16:01Z</time>
      </trkpt>
      <trkpt lat="49.07457" lon="-1.57061">
        <ele>38.425083</ele>
        <time>2015-06-03T11:16:06Z</time>
      </trkpt>
      <trkpt lat="49.07455" lon="-1.57052">
        <ele>38.37906</ele>
        <time>2015-06-03T11:16:11Z</time>
      </trkpt>
      <trkpt lat="49.07452" lon="-1.57044">
        <ele>38.37906</ele>
        <time>2015-06-03T11:16:16Z</time>
      </trkpt>
      <trkpt lat="49.07451" lon="-1.57036">
        <ele>38.353138</ele>
        <time>2015-06-03T11:16:21Z</time>
      </trkpt>
      <trkpt lat="49.0745" lon="-1.57025">
        <ele>38.353138</ele>
        <time>2015-06-03T11:16:26Z</time>
      </trkpt>
      <trkpt lat="49.0745" lon="-1.57015">
        <ele>38.346718</ele>
        <time>2015-06-03T11:16:31Z</time>
      </trkpt>
      <trkpt lat="49.07451" lon="-1.57004">
        <ele>38.346718</ele>
        <time>2015-06-03T11:16:36Z</time>
      </trkpt>
      <trkpt lat="49.07456" lon="-1.56996">
        <ele>38.387962</ele>
        <time>2015-06-03T11:16:41Z</time>
      </trkpt>
      <trkpt lat="49.0746" lon="-1.5699">
        <ele>38.387962</ele>
        <time>2015-06-03T11:16:46Z</time>
      </trkpt>
      <trkpt lat="49.07465" lon="-1.56986">
        <ele>38.373123</ele>
        <time>2015-06-03T11:16:51Z</time>
      </trkpt>
      <trkpt lat="49.0747" lon="-1.56983">
        <ele>38.373123</ele>
        <time>2015-06-03T11:16:56Z</time>
      </trkpt>
      <trkpt lat="49.07475" lon="-1.56977">
        <ele>38.30707</ele>
        <time>2015-06-03T11:17:01Z</time>
      </trkpt>
      <trkpt lat="49.07479" lon="-1.56972">
        <ele>38.30707</ele>
        <time>2015-06-03T11:17:06Z</time>
      </trkpt>
      <trkpt lat="49.07485" lon="-1.56968">
        <ele>38.13679</ele>
        <time>2015-06-03T11:17:11Z</time>
      </trkpt>
      <trkpt lat="49.07491" lon="-1.56961">
        <ele>38.13679</ele>
        <time>2015-06-03T11:17:16Z</time>
      </trkpt>
      <trkpt lat="49.07497" lon="-1.56955">
        <ele>37.914307</ele>
        <time>2015-06-03T11:17:21Z</time>
      </trkpt>
      <trkpt lat="49.075" lon="-1.56946">
        <ele>37.914307</ele>
        <time>2015-06-03T11:17:26Z</time>
      </trkpt>
      <trkpt lat="49.07501" lon="-1.56944">
        <ele>37.914307</ele>
        <time>2015-06-03T11:17:31Z</time>
      </trkpt>
      <trkpt lat="49.07501" lon="-1.56945">
        <ele>37.702354</ele>
        <time>2015-06-03T11:17:36Z</time>
      </trkpt>
      <trkpt lat="49.07504" lon="-1.56935">
        <ele>37.702354</ele>
        <time>2015-06-03T11:17:41Z</time>
      </trkpt>
      <trkpt lat="49.07508" lon="-1.56927">
        <ele>37.443703</ele>
        <time>2015-06-03T11:17:46Z</time>
      </trkpt>
      <trkpt lat="49.07513" lon="-1.5692">
        <ele>37.443703</ele>
        <time>2015-06-03T11:17:51Z</time>
      </trkpt>
      <trkpt lat="49.07518" lon="-1.5691">
        <ele>37.18631</ele>
        <time>2015-06-03T11:17:56Z</time>
      </trkpt>
      <trkpt lat="49.07521" lon="-1.56901">
        <ele>37.18631</ele>
        <time>2015-06-03T11:18:01Z</time>
      </trkpt>
      <trkpt lat="49.07523" lon="-1.56895">
        <ele>37.032215</ele>
        <time>2015-06-03T11:18:06Z</time>
      </trkpt>
      <trkpt lat="49.07527" lon="-1.56889">
        <ele>37.032215</ele>
        <time>2015-06-03T11:18:11Z</time>
      </trkpt>
      <trkpt lat="49.07531" lon="-1.56882">
        <ele>36.931522</ele>
        <time>2015-06-03T11:18:16Z</time>
      </trkpt>
      <trkpt lat="49.07536" lon="-1.56872">
        <ele>36.931522</ele>
        <time>2015-06-03T11:18:21Z</time>
      </trkpt>
      <trkpt lat="49.07539" lon="-1.56863">
        <ele>36.80901</ele>
        <time>2015-06-03T11:18:26Z</time>
      </trkpt>
      <trkpt lat="49.07544" lon="-1.56853">
        <ele>36.80901</ele>
        <time>2015-06-03T11:18:31Z</time>
      </trkpt>
      <trkpt lat="49.07547" lon="-1.56846">
        <ele>36.710278</ele>
        <time>2015-06-03T11:18:36Z</time>
      </trkpt>
      <trkpt lat="49.07552" lon="-1.56841">
        <ele>36.710278</ele>
        <time>2015-06-03T11:18:41Z</time>
      </trkpt>
      <trkpt lat="49.07557" lon="-1.56834">
        <ele>36.64867</ele>
        <time>2015-06-03T11:18:46Z</time>
      </trkpt>
      <trkpt lat="49.07561" lon="-1.56827">
        <ele>36.64867</ele>
        <time>2015-06-03T11:18:51Z</time>
      </trkpt>
      <trkpt lat="49.07564" lon="-1.56819">
        <ele>36.607582</ele>
        <time>2015-06-03T11:18:56Z</time>
      </trkpt>
      <trkpt lat="49.07567" lon="-1.56815">
        <ele>36.607582</ele>
        <time>2015-06-03T11:19:01Z</time>
      </trkpt>
      <trkpt lat="49.07568" lon="-1.56815">
        <ele>36.607582</ele>
        <time>2015-06-03T11:19:06Z</time>
      </trkpt>
      <trkpt lat="49.07574" lon="-1.56813">
        <ele>36.47066</ele>
        <time>2015-06-03T11:19:11Z</time>
      </trkpt>
      <trkpt lat="49.0758" lon="-1.56812">
        <ele>36.47066</ele>
        <time>2015-06-03T11:19:16Z</time>
      </trkpt>
      <trkpt lat="49.07586" lon="-1.56813">
        <ele>36.260048</ele>
        <time>2015-06-03T11:19:21Z</time>
      </trkpt>
      <trkpt lat="49.07594" lon="-1.56816">
        <ele>36.260048</ele>
        <time>2015-06-03T11:19:26Z</time>
      </trkpt>
      <trkpt lat="49.07599" lon="-1.56817">
        <ele>35.98201</ele>
        <time>2015-06-03T11:19:31Z</time>
      </trkpt>
      <trkpt lat="49.07605" lon="-1.56817">
        <ele>35.98201</ele>
        <time>2015-06-03T11:19:36Z</time>
      </trkpt>
      <trkpt lat="49.07611" lon="-1.56816">
        <ele>35.642513</ele>
        <time>2015-06-03T11:19:41Z</time>
      </trkpt>
      <trkpt lat="49.07611" lon="-1.56817">
        <ele>35.642513</ele>
        <time>2015-06-03T11:19:46Z</time>
      </trkpt>
      <trkpt lat="49.07612" lon="-1.56818">
        <ele>35.642513</ele>
        <time>2015-06-03T11:19:51Z</time>
      </trkpt>
      <trkpt lat="49.07612" lon="-1.56819">
        <ele>35.642513</ele>
        <time>2015-06-03T11:19:56Z</time>
      </trkpt>
      <trkpt lat="49.07612" lon="-1.5682">
        <ele>35.642513</ele>
        <time>2015-06-03T11:20:01Z</time>
      </trkpt>
      <trkpt lat="49.07611" lon="-1.56818">
        <ele>35.642513</ele>
        <time>2015-06-03T11:20:06Z</time>
      </trkpt>
      <trkpt lat="49.07611" lon="-1.56819">
        <ele>35.642513</ele>
        <time>2015-06-03T11:20:11Z</time>
      </trkpt>
      <trkpt lat="49.07611" lon="-1.5682">
        <ele>35.642513</ele>
        <time>2015-06-03T11:20:16Z</time>
      </trkpt>
      <trkpt lat="49.0761" lon="-1.56821">
        <ele>35.642513</ele>
        <time>2015-06-03T11:20:21Z</time>
      </trkpt>
      <trkpt lat="49.0761" lon="-1.56819">
        <ele>35.642513</ele>
        <time>2015-06-03T11:20:26Z</time>
      </trkpt>
      <trkpt lat="49.07611" lon="-1.56818">
        <ele>35.642513</ele>
        <time>2015-06-03T11:20:31Z</time>
      </trkpt>
      <trkpt lat="49.07612" lon="-1.56818">
        <ele>35.362522</ele>
        <time>2015-06-03T11:20:36Z</time>
      </trkpt>
      <trkpt lat="49.07611" lon="-1.5682">
        <ele>35.362522</ele>
        <time>2015-06-03T11:20:41Z</time>
      </trkpt>
      <trkpt lat="49.07611" lon="-1.5682">
        <ele>35.362522</ele>
        <time>2015-06-03T11:20:46Z</time>
      </trkpt>
      <trkpt lat="49.07611" lon="-1.5682">
        <ele>35.362522</ele>
        <time>2015-06-03T11:20:51Z</time>
      </trkpt>
      <trkpt lat="49.07611" lon="-1.56819">
        <ele>35.362522</ele>
        <time>2015-06-03T11:20:56Z</time>
      </trkpt>
      <trkpt lat="49.07611" lon="-1.5682">
        <ele>35.362522</ele>
        <time>2015-06-03T11:21:01Z</time>
      </trkpt>
      <trkpt lat="49.0761" lon="-1.56821">
        <ele>35.362522</ele>
        <time>2015-06-03T11:21:06Z</time>
      </trkpt>
      <trkpt lat="49.0761" lon="-1.56822">
        <ele>35.362522</ele>
        <time>2015-06-03T11:21:11Z</time>
      </trkpt>
      <trkpt lat="49.0761" lon="-1.5682">
        <ele>35.362522</ele>
        <time>2015-06-03T11:21:16Z</time>
      </trkpt>
      <trkpt lat="49.0761" lon="-1.56821">
        <ele>35.362522</ele>
        <time>2015-06-03T11:21:21Z</time>
      </trkpt>
      <trkpt lat="49.0761" lon="-1.56821">
        <ele>35.362522</ele>
        <time>2015-06-03T11:21:26Z</time>
      </trkpt>
      <trkpt lat="49.0761" lon="-1.56821">
        <ele>35.362522</ele>
        <time>2015-06-03T11:21:31Z</time>
      </trkpt>
      <trkpt lat="49.0761" lon="-1.56822">
        <ele>35.362522</ele>
        <time>2015-06-03T11:21:36Z</time>
      </trkpt>
      <trkpt lat="49.0761" lon="-1.56822">
        <ele>35.362522</ele>
        <time>2015-06-03T11:21:41Z</time>
      </trkpt>
      <trkpt lat="49.07611" lon="-1.56822">
        <ele>35.362522</ele>
        <time>2015-06-03T11:21:46Z</time>
      </trkpt>
      <trkpt lat="49.07611" lon="-1.56822">
        <ele>35.362522</ele>
        <time>2015-06-03T11:21:51Z</time>
      </trkpt>
      <trkpt lat="49.0761" lon="-1.56821">
        <ele>35.153027</ele>
        <time>2015-06-03T11:21:56Z</time>
      </trkpt>
      <trkpt lat="49.0761" lon="-1.56819">
        <ele>35.153027</ele>
        <time>2015-06-03T11:22:01Z</time>
      </trkpt>
      <trkpt lat="49.07611" lon="-1.56818">
        <ele>35.153027</ele>
        <time>2015-06-03T11:22:06Z</time>
      </trkpt>
      <trkpt lat="49.0761" lon="-1.56818">
        <ele>35.153027</ele>
        <time>2015-06-03T11:22:11Z</time>
      </trkpt>
      <trkpt lat="49.07611" lon="-1.56819">
        <ele>35.153027</ele>
        <time>2015-06-03T11:22:16Z</time>
      </trkpt>
      <trkpt lat="49.07611" lon="-1.56819">
        <ele>35.153027</ele>
        <time>2015-06-03T11:22:21Z</time>
      </trkpt>
      <trkpt lat="49.07611" lon="-1.56819">
        <ele>35.153027</ele>
        <time>2015-06-03T11:22:26Z</time>
      </trkpt>
      <trkpt lat="49.0761" lon="-1.56821">
        <ele>35.153027</ele>
        <time>2015-06-03T11:22:31Z</time>
      </trkpt>
      <trkpt lat="49.0761" lon="-1.5682">
        <ele>35.153027</ele>
        <time>2015-06-03T11:22:36Z</time>
      </trkpt>
      <trkpt lat="49.0761" lon="-1.56821">
        <ele>35.153027</ele>
        <time>2015-06-03T11:22:41Z</time>
      </trkpt>
      <trkpt lat="49.07609" lon="-1.56821">
        <ele>35.153027</ele>
        <time>2015-06-03T11:22:46Z</time>
      </trkpt>
      <trkpt lat="49.07609" lon="-1.56821">
        <ele>35.153027</ele>
        <time>2015-06-03T11:22:51Z</time>
      </trkpt>
      <trkpt lat="49.07611" lon="-1.56821">
        <ele>35.153027</ele>
        <time>2015-06-03T11:22:56Z</time>
      </trkpt>
      <trkpt lat="49.07612" lon="-1.56819">
        <ele>35.081635</ele>
        <time>2015-06-03T11:23:01Z</time>
      </trkpt>
      <trkpt lat="49.07613" lon="-1.56817">
        <ele>35.081635</ele>
        <time>2015-06-03T11:23:06Z</time>
      </trkpt>
      <trkpt lat="49.07614" lon="-1.56819">
        <ele>35.081635</ele>
        <time>2015-06-03T11:23:11Z</time>
      </trkpt>
      <trkpt lat="49.07614" lon="-1.56819">
        <ele>35.081635</ele>
        <time>2015-06-03T11:23:16Z</time>
      </trkpt>
      <trkpt lat="49.07614" lon="-1.56819">
        <ele>35.081635</ele>
        <time>2015-06-03T11:23:21Z</time>
      </trkpt>
      <trkpt lat="49.07614" lon="-1.56818">
        <ele>35.081635</ele>
        <time>2015-06-03T11:23:26Z</time>
      </trkpt>
      <trkpt lat="49.07614" lon="-1.56817">
        <ele>35.081635</ele>
        <time>2015-06-03T11:23:31Z</time>
      </trkpt>
      <trkpt lat="49.07614" lon="-1.56814">
        <ele>35.081635</ele>
        <time>2015-06-03T11:23:36Z</time>
      </trkpt>
      <trkpt lat="49.07614" lon="-1.56813">
        <ele>35.081635</ele>
        <time>2015-06-03T11:23:41Z</time>
      </trkpt>
      <trkpt lat="49.07615" lon="-1.56814">
        <ele>35.081635</ele>
        <time>2015-06-03T11:23:46Z</time>
      </trkpt>
      <trkpt lat="49.07614" lon="-1.56815">
        <ele>34.936752</ele>
        <time>2015-06-03T11:23:51Z</time>
      </trkpt>
      <trkpt lat="49.07612" lon="-1.56817">
        <ele>34.936752</ele>
        <time>2015-06-03T11:23:56Z</time>
      </trkpt>
      <trkpt lat="49.07612" lon="-1.5682">
        <ele>34.936752</ele>
        <time>2015-06-03T11:24:01Z</time>
      </trkpt>
      <trkpt lat="49.07612" lon="-1.5682">
        <ele>34.936752</ele>
        <time>2015-06-03T11:24:06Z</time>
      </trkpt>
      <trkpt lat="49.07614" lon="-1.56821">
        <ele>34.936752</ele>
        <time>2015-06-03T11:24:11Z</time>
      </trkpt>
      <trkpt lat="49.07619" lon="-1.56822">
        <ele>34.767487</ele>
        <time>2015-06-03T11:24:16Z</time>
      </trkpt>
      <trkpt lat="49.07625" lon="-1.56823">
        <ele>34.767487</ele>
        <time>2015-06-03T11:24:21Z</time>
      </trkpt>
      <trkpt lat="49.07631" lon="-1.56822">
        <ele>34.518505</ele>
        <time>2015-06-03T11:24:26Z</time>
      </trkpt>
      <trkpt lat="49.07637" lon="-1.56823">
        <ele>34.518505</ele>
        <time>2015-06-03T11:24:31Z</time>
      </trkpt>
      <trkpt lat="49.07644" lon="-1.56824">
        <ele>34.196377</ele>
        <time>2015-06-03T11:24:36Z</time>
      </trkpt>
      <trkpt lat="49.07651" lon="-1.56827">
        <ele>34.196377</ele>
        <time>2015-06-03T11:24:41Z</time>
      </trkpt>
      <trkpt lat="49.07657" lon="-1.56827">
        <ele>33.865</ele>
        <time>2015-06-03T11:24:46Z</time>
      </trkpt>
      <trkpt lat="49.07665" lon="-1.56829">
        <ele>33.865</ele>
        <time>2015-06-03T11:24:51Z</time>
      </trkpt>
      <trkpt lat="49.07671" lon="-1.56833">
        <ele>33.68447</ele>
        <time>2015-06-03T11:24:56Z</time>
      </trkpt>
      <trkpt lat="49.07677" lon="-1.56836">
        <ele>33.68447</ele>
        <time>2015-06-03T11:25:01Z</time>
      </trkpt>
      <trkpt lat="49.07684" lon="-1.56839">
        <ele>33.615303</ele>
        <time>2015-06-03T11:25:06Z</time>
      </trkpt>
      <trkpt lat="49.07689" lon="-1.56844">
        <ele>33.615303</ele>
        <time>2015-06-03T11:25:11Z</time>
      </trkpt>
      <trkpt lat="49.07696" lon="-1.56847">
        <ele>33.678234</ele>
        <time>2015-06-03T11:25:16Z</time>
      </trkpt>
      <trkpt lat="49.07703" lon="-1.56851">
        <ele>33.678234</ele>
        <time>2015-06-03T11:25:21Z</time>
      </trkpt>
      <trkpt lat="49.07708" lon="-1.56856">
        <ele>33.877663</ele>
        <time>2015-06-03T11:25:26Z</time>
      </trkpt>
      <trkpt lat="49.07715" lon="-1.56859">
        <ele>33.877663</ele>
        <time>2015-06-03T11:25:31Z</time>
      </trkpt>
      <trkpt lat="49.07722" lon="-1.56863">
        <ele>34.174023</ele>
        <time>2015-06-03T11:25:36Z</time>
      </trkpt>
      <trkpt lat="49.07727" lon="-1.56867">
        <ele>34.174023</ele>
        <time>2015-06-03T11:25:41Z</time>
      </trkpt>
      <trkpt lat="49.07732" lon="-1.56872">
        <ele>34.544777</ele>
        <time>2015-06-03T11:25:46Z</time>
      </trkpt>
      <trkpt lat="49.07739" lon="-1.56875">
        <ele>34.544777</ele>
        <time>2015-06-03T11:25:51Z</time>
      </trkpt>
      <trkpt lat="49.07745" lon="-1.5688">
        <ele>34.954414</ele>
        <time>2015-06-03T11:25:56Z</time>
      </trkpt>
      <trkpt lat="49.0775" lon="-1.5688">
        <ele>34.954414</ele>
        <time>2015-06-03T11:26:01Z</time>
      </trkpt>
      <trkpt lat="49.07757" lon="-1.56879">
        <ele>35.326664</ele>
        <time>2015-06-03T11:26:06Z</time>
      </trkpt>
      <trkpt lat="49.07763" lon="-1.56878">
        <ele>35.326664</ele>
        <time>2015-06-03T11:26:11Z</time>
      </trkpt>
      <trkpt lat="49.07771" lon="-1.56877">
        <ele>35.576557</ele>
        <time>2015-06-03T11:26:16Z</time>
      </trkpt>
      <trkpt lat="49.07778" lon="-1.56873">
        <ele>35.576557</ele>
        <time>2015-06-03T11:26:21Z</time>
      </trkpt>
      <trkpt lat="49.07784" lon="-1.56872">
        <ele>35.712173</ele>
        <time>2015-06-03T11:26:26Z</time>
      </trkpt>
      <trkpt lat="49.07789" lon="-1.5687">
        <ele>35.712173</ele>
        <time>2015-06-03T11:26:31Z</time>
      </trkpt>
      <trkpt lat="49.07796" lon="-1.5687">
        <ele>35.755722</ele>
        <time>2015-06-03T11:26:36Z</time>
      </trkpt>
      <trkpt lat="49.07803" lon="-1.5687">
        <ele>35.755722</ele>
        <time>2015-06-03T11:26:41Z</time>
      </trkpt>
      <trkpt lat="49.07809" lon="-1.56868">
        <ele>35.785698</ele>
        <time>2015-06-03T11:26:46Z</time>
      </trkpt>
      <trkpt lat="49.07816" lon="-1.56869">
        <ele>35.785698</ele>
        <time>2015-06-03T11:26:51Z</time>
      </trkpt>
      <trkpt lat="49.07822" lon="-1.56868">
        <ele>35.83163</ele>
        <time>2015-06-03T11:26:56Z</time>
      </trkpt>
      <trkpt lat="49.07829" lon="-1.5687">
        <ele>35.83163</ele>
        <time>2015-06-03T11:27:01Z</time>
      </trkpt>
      <trkpt lat="49.07835" lon="-1.56872">
        <ele>35.93525</ele>
        <time>2015-06-03T11:27:06Z</time>
      </trkpt>
      <trkpt lat="49.07841" lon="-1.56875">
        <ele>35.93525</ele>
        <time>2015-06-03T11:27:11Z</time>
      </trkpt>
      <trkpt lat="49.07848" lon="-1.56876">
        <ele>36.048603</ele>
        <time>2015-06-03T11:27:16Z</time>
      </trkpt>
      <trkpt lat="49.07852" lon="-1.56874">
        <ele>36.048603</ele>
        <time>2015-06-03T11:27:21Z</time>
      </trkpt>
      <trkpt lat="49.07854" lon="-1.56876">
        <ele>36.048603</ele>
        <time>2015-06-03T11:27:26Z</time>
      </trkpt>
      <trkpt lat="49.07859" lon="-1.5688">
        <ele>36.14164</ele>
        <time>2015-06-03T11:27:31Z</time>
      </trkpt>
      <trkpt lat="49.07865" lon="-1.5688">
        <ele>36.14164</ele>
        <time>2015-06-03T11:27:36Z</time>
      </trkpt>
      <trkpt lat="49.07872" lon="-1.56882">
        <ele>36.24424</ele>
        <time>2015-06-03T11:27:41Z</time>
      </trkpt>
      <trkpt lat="49.07879" lon="-1.56883">
        <ele>36.24424</ele>
        <time>2015-06-03T11:27:46Z</time>
      </trkpt>
      <trkpt lat="49.07885" lon="-1.56885">
        <ele>36.28318</ele>
        <time>2015-06-03T11:27:51Z</time>
      </trkpt>
      <trkpt lat="49.07892" lon="-1.56887">
        <ele>36.28318</ele>
        <time>2015-06-03T11:27:56Z</time>
      </trkpt>
      <trkpt lat="49.07899" lon="-1.56885">
        <ele>36.320507</ele>
        <time>2015-06-03T11:28:01Z</time>
      </trkpt>
      <trkpt lat="49.07906" lon="-1.56889">
        <ele>36.320507</ele>
        <time>2015-06-03T11:28:06Z</time>
      </trkpt>
      <trkpt lat="49.07914" lon="-1.56891">
        <ele>36.370483</ele>
        <time>2015-06-03T11:28:11Z</time>
      </trkpt>
      <trkpt lat="49.0792" lon="-1.56891">
        <ele>36.370483</ele>
        <time>2015-06-03T11:28:16Z</time>
      </trkpt>
      <trkpt lat="49.07927" lon="-1.56892">
        <ele>36.4319</ele>
        <time>2015-06-03T11:28:21Z</time>
      </trkpt>
      <trkpt lat="49.07933" lon="-1.56898">
        <ele>36.4319</ele>
        <time>2015-06-03T11:28:26Z</time>
      </trkpt>
      <trkpt lat="49.07935" lon="-1.56907">
        <ele>36.53243</ele>
        <time>2015-06-03T11:28:31Z</time>
      </trkpt>
      <trkpt lat="49.07935" lon="-1.56919">
        <ele>36.53243</ele>
        <time>2015-06-03T11:28:36Z</time>
      </trkpt>
      <trkpt lat="49.07936" lon="-1.56928">
        <ele>36.639954</ele>
        <time>2015-06-03T11:28:41Z</time>
      </trkpt>
      <trkpt lat="49.07937" lon="-1.56939">
        <ele>36.639954</ele>
        <time>2015-06-03T11:28:46Z</time>
      </trkpt>
      <trkpt lat="49.07938" lon="-1.56948">
        <ele>36.76796</ele>
        <time>2015-06-03T11:28:51Z</time>
      </trkpt>
      <trkpt lat="49.07938" lon="-1.56959">
        <ele>36.76796</ele>
        <time>2015-06-03T11:28:56Z</time>
      </trkpt>
      <trkpt lat="49.07939" lon="-1.56969">
        <ele>36.799187</ele>
        <time>2015-06-03T11:29:01Z</time>
      </trkpt>
      <trkpt lat="49.07939" lon="-1.56979">
        <ele>36.799187</ele>
        <time>2015-06-03T11:29:06Z</time>
      </trkpt>
      <trkpt lat="49.0794" lon="-1.56988">
        <ele>36.783783</ele>
        <time>2015-06-03T11:29:11Z</time>
      </trkpt>
      <trkpt lat="49.07942" lon="-1.56997">
        <ele>36.783783</ele>
        <time>2015-06-03T11:29:16Z</time>
      </trkpt>
      <trkpt lat="49.07943" lon="-1.5701">
        <ele>36.73955</ele>
        <time>2015-06-03T11:29:21Z</time>
      </trkpt>
      <trkpt lat="49.07945" lon="-1.57019">
        <ele>36.73955</ele>
        <time>2015-06-03T11:29:26Z</time>
      </trkpt>
      <trkpt lat="49.07947" lon="-1.57028">
        <ele>36.769527</ele>
        <time>2015-06-03T11:29:31Z</time>
      </trkpt>
      <trkpt lat="49.07948" lon="-1.57039">
        <ele>36.769527</ele>
        <time>2015-06-03T11:29:36Z</time>
      </trkpt>
      <trkpt lat="49.07949" lon="-1.57048">
        <ele>36.86811</ele>
        <time>2015-06-03T11:29:41Z</time>
      </trkpt>
      <trkpt lat="49.0795" lon="-1.57059">
        <ele>36.86811</ele>
        <time>2015-06-03T11:29:46Z</time>
      </trkpt>
      <trkpt lat="49.07951" lon="-1.57068">
        <ele>36.98669</ele>
        <time>2015-06-03T11:29:51Z</time>
      </trkpt>
      <trkpt lat="49.07953" lon="-1.57077">
        <ele>36.98669</ele>
        <time>2015-06-03T11:29:56Z</time>
      </trkpt>
      <trkpt lat="49.07955" lon="-1.57087">
        <ele>37.094597</ele>
        <time>2015-06-03T11:30:01Z</time>
      </trkpt>
      <trkpt lat="49.07957" lon="-1.57097">
        <ele>37.094597</ele>
        <time>2015-06-03T11:30:06Z</time>
      </trkpt>
      <trkpt lat="49.07959" lon="-1.57106">
        <ele>37.249916</ele>
        <time>2015-06-03T11:30:11Z</time>
      </trkpt>
      <trkpt lat="49.0796" lon="-1.57116">
        <ele>37.249916</ele>
        <time>2015-06-03T11:30:16Z</time>
      </trkpt>
      <trkpt lat="49.07962" lon="-1.57127">
        <ele>37.405464</ele>
        <time>2015-06-03T11:30:21Z</time>
      </trkpt>
      <trkpt lat="49.07963" lon="-1.57137">
        <ele>37.405464</ele>
        <time>2015-06-03T11:30:26Z</time>
      </trkpt>
      <trkpt lat="49.07963" lon="-1.57148">
        <ele>37.575188</ele>
        <time>2015-06-03T11:30:31Z</time>
      </trkpt>
      <trkpt lat="49.07964" lon="-1.57157">
        <ele>37.575188</ele>
        <time>2015-06-03T11:30:36Z</time>
      </trkpt>
      <trkpt lat="49.07965" lon="-1.57167">
        <ele>37.74314</ele>
        <time>2015-06-03T11:30:41Z</time>
      </trkpt>
      <trkpt lat="49.07966" lon="-1.57176">
        <ele>37.74314</ele>
        <time>2015-06-03T11:30:46Z</time>
      </trkpt>
      <trkpt lat="49.07968" lon="-1.57186">
        <ele>37.937817</ele>
        <time>2015-06-03T11:30:51Z</time>
      </trkpt>
      <trkpt lat="49.07969" lon="-1.57194">
        <ele>37.937817</ele>
        <time>2015-06-03T11:30:56Z</time>
      </trkpt>
      <trkpt lat="49.0797" lon="-1.57203">
        <ele>38.11349</ele>
        <time>2015-06-03T11:31:01Z</time>
      </trkpt>
      <trkpt lat="49.07972" lon="-1.57214">
        <ele>38.11349</ele>
        <time>2015-06-03T11:31:06Z</time>
      </trkpt>
      <trkpt lat="49.07974" lon="-1.57223">
        <ele>38.285503</ele>
        <time>2015-06-03T11:31:11Z</time>
      </trkpt>
      <trkpt lat="49.07975" lon="-1.57232">
        <ele>38.285503</ele>
        <time>2015-06-03T11:31:16Z</time>
      </trkpt>
      <trkpt lat="49.07977" lon="-1.57243">
        <ele>38.482506</ele>
        <time>2015-06-03T11:31:21Z</time>
      </trkpt>
      <trkpt lat="49.07978" lon="-1.57252">
        <ele>38.482506</ele>
        <time>2015-06-03T11:31:26Z</time>
      </trkpt>
      <trkpt lat="49.07979" lon="-1.57264">
        <ele>38.71658</ele>
        <time>2015-06-03T11:31:31Z</time>
      </trkpt>
      <trkpt lat="49.07979" lon="-1.57273">
        <ele>38.71658</ele>
        <time>2015-06-03T11:31:36Z</time>
      </trkpt>
      <trkpt lat="49.07979" lon="-1.57283">
        <ele>38.998833</ele>
        <time>2015-06-03T11:31:41Z</time>
      </trkpt>
      <trkpt lat="49.07981" lon="-1.57295">
        <ele>38.998833</ele>
        <time>2015-06-03T11:31:46Z</time>
      </trkpt>
      <trkpt lat="49.07982" lon="-1.573">
        <ele>39.29619</ele>
        <time>2015-06-03T11:31:51Z</time>
      </trkpt>
      <trkpt lat="49.07983" lon="-1.57311">
        <ele>39.29619</ele>
        <time>2015-06-03T11:31:56Z</time>
      </trkpt>
      <trkpt lat="49.07984" lon="-1.57322">
        <ele>39.56358</ele>
        <time>2015-06-03T11:32:01Z</time>
      </trkpt>
      <trkpt lat="49.07984" lon="-1.57332">
        <ele>39.56358</ele>
        <time>2015-06-03T11:32:06Z</time>
      </trkpt>
      <trkpt lat="49.07986" lon="-1.57342">
        <ele>39.788166</ele>
        <time>2015-06-03T11:32:11Z</time>
      </trkpt>
      <trkpt lat="49.07987" lon="-1.57351">
        <ele>39.788166</ele>
        <time>2015-06-03T11:32:16Z</time>
      </trkpt>
      <trkpt lat="49.07987" lon="-1.57361">
        <ele>39.987007</ele>
        <time>2015-06-03T11:32:21Z</time>
      </trkpt>
      <trkpt lat="49.07987" lon="-1.57372">
        <ele>39.987007</ele>
        <time>2015-06-03T11:32:26Z</time>
      </trkpt>
      <trkpt lat="49.07988" lon="-1.57383">
        <ele>40.161587</ele>
        <time>2015-06-03T11:32:31Z</time>
      </trkpt>
      <trkpt lat="49.07988" lon="-1.57395">
        <ele>40.161587</ele>
        <time>2015-06-03T11:32:36Z</time>
      </trkpt>
      <trkpt lat="49.07989" lon="-1.57402">
        <ele>40.313377</ele>
        <time>2015-06-03T11:32:41Z</time>
      </trkpt>
      <trkpt lat="49.0799" lon="-1.57415">
        <ele>40.313377</ele>
        <time>2015-06-03T11:32:46Z</time>
      </trkpt>
      <trkpt lat="49.07991" lon="-1.57425">
        <ele>40.50145</ele>
        <time>2015-06-03T11:32:51Z</time>
      </trkpt>
      <trkpt lat="49.07992" lon="-1.57435">
        <ele>40.50145</ele>
        <time>2015-06-03T11:32:56Z</time>
      </trkpt>
      <trkpt lat="49.07992" lon="-1.57446">
        <ele>40.665176</ele>
        <time>2015-06-03T11:33:01Z</time>
      </trkpt>
      <trkpt lat="49.07994" lon="-1.57455">
        <ele>40.665176</ele>
        <time>2015-06-03T11:33:06Z</time>
      </trkpt>
      <trkpt lat="49.07995" lon="-1.57467">
        <ele>40.820522</ele>
        <time>2015-06-03T11:33:11Z</time>
      </trkpt>
      <trkpt lat="49.07996" lon="-1.57474">
        <ele>40.820522</ele>
        <time>2015-06-03T11:33:16Z</time>
      </trkpt>
      <trkpt lat="49.07997" lon="-1.57484">
        <ele>40.982307</ele>
        <time>2015-06-03T11:33:21Z</time>
      </trkpt>
      <trkpt lat="49.07998" lon="-1.57495">
        <ele>40.982307</ele>
        <time>2015-06-03T11:33:26Z</time>
      </trkpt>
      <trkpt lat="49.07999" lon="-1.57506">
        <ele>41.077805</ele>
        <time>2015-06-03T11:33:31Z</time>
      </trkpt>
      <trkpt lat="49.08" lon="-1.57516">
        <ele>41.077805</ele>
        <time>2015-06-03T11:33:36Z</time>
      </trkpt>
      <trkpt lat="49.08002" lon="-1.57527">
        <ele>41.155113</ele>
        <time>2015-06-03T11:33:41Z</time>
      </trkpt>
      <trkpt lat="49.08003" lon="-1.57538">
        <ele>41.155113</ele>
        <time>2015-06-03T11:33:46Z</time>
      </trkpt>
      <trkpt lat="49.08004" lon="-1.57546">
        <ele>41.186813</ele>
        <time>2015-06-03T11:33:51Z</time>
      </trkpt>
      <trkpt lat="49.08004" lon="-1.57558">
        <ele>41.186813</ele>
        <time>2015-06-03T11:33:56Z</time>
      </trkpt>
      <trkpt lat="49.08006" lon="-1.57567">
        <ele>41.176456</ele>
        <time>2015-06-03T11:34:01Z</time>
      </trkpt>
      <trkpt lat="49.08008" lon="-1.57577">
        <ele>41.176456</ele>
        <time>2015-06-03T11:34:06Z</time>
      </trkpt>
      <trkpt lat="49.08009" lon="-1.57589">
        <ele>41.08423</ele>
        <time>2015-06-03T11:34:11Z</time>
      </trkpt>
      <trkpt lat="49.0801" lon="-1.57599">
        <ele>41.08423</ele>
        <time>2015-06-03T11:34:16Z</time>
      </trkpt>
      <trkpt lat="49.08013" lon="-1.57608">
        <ele>40.945534</ele>
        <time>2015-06-03T11:34:21Z</time>
      </trkpt>
      <trkpt lat="49.08015" lon="-1.57618">
        <ele>40.945534</ele>
        <time>2015-06-03T11:34:26Z</time>
      </trkpt>
      <trkpt lat="49.08017" lon="-1.57627">
        <ele>40.73567</ele>
        <time>2015-06-03T11:34:31Z</time>
      </trkpt>
      <trkpt lat="49.08019" lon="-1.57638">
        <ele>40.73567</ele>
        <time>2015-06-03T11:34:36Z</time>
      </trkpt>
      <trkpt lat="49.0802" lon="-1.57647">
        <ele>40.44636</ele>
        <time>2015-06-03T11:34:41Z</time>
      </trkpt>
      <trkpt lat="49.08023" lon="-1.57657">
        <ele>40.44636</ele>
        <time>2015-06-03T11:34:46Z</time>
      </trkpt>
      <trkpt lat="49.08025" lon="-1.57668">
        <ele>40.1134</ele>
        <time>2015-06-03T11:34:51Z</time>
      </trkpt>
      <trkpt lat="49.08027" lon="-1.57679">
        <ele>40.1134</ele>
        <time>2015-06-03T11:34:56Z</time>
      </trkpt>
      <trkpt lat="49.08029" lon="-1.57687">
        <ele>39.74124</ele>
        <time>2015-06-03T11:35:01Z</time>
      </trkpt>
      <trkpt lat="49.08031" lon="-1.57696">
        <ele>39.74124</ele>
        <time>2015-06-03T11:35:06Z</time>
      </trkpt>
      <trkpt lat="49.08033" lon="-1.57707">
        <ele>39.26207</ele>
        <time>2015-06-03T11:35:11Z</time>
      </trkpt>
      <trkpt lat="49.08036" lon="-1.57717">
        <ele>39.26207</ele>
        <time>2015-06-03T11:35:16Z</time>
      </trkpt>
      <trkpt lat="49.08037" lon="-1.57726">
        <ele>38.75744</ele>
        <time>2015-06-03T11:35:21Z</time>
      </trkpt>
      <trkpt lat="49.08039" lon="-1.57736">
        <ele>38.75744</ele>
        <time>2015-06-03T11:35:26Z</time>
      </trkpt>
      <trkpt lat="49.08042" lon="-1.57747">
        <ele>38.25975</ele>
        <time>2015-06-03T11:35:31Z</time>
      </trkpt>
      <trkpt lat="49.08044" lon="-1.57756">
        <ele>38.25975</ele>
        <time>2015-06-03T11:35:36Z</time>
      </trkpt>
      <trkpt lat="49.08045" lon="-1.57766">
        <ele>37.741333</ele>
        <time>2015-06-03T11:35:41Z</time>
      </trkpt>
      <trkpt lat="49.0805" lon="-1.57775">
        <ele>37.741333</ele>
        <time>2015-06-03T11:35:46Z</time>
      </trkpt>
      <trkpt lat="49.08054" lon="-1.57782">
        <ele>37.162174</ele>
        <time>2015-06-03T11:35:51Z</time>
      </trkpt>
      <trkpt lat="49.08058" lon="-1.57791">
        <ele>37.162174</ele>
        <time>2015-06-03T11:35:56Z</time>
      </trkpt>
      <trkpt lat="49.08062" lon="-1.57799">
        <ele>36.586235</ele>
        <time>2015-06-03T11:36:01Z</time>
      </trkpt>
      <trkpt lat="49.08066" lon="-1.57806">
        <ele>36.586235</ele>
        <time>2015-06-03T11:36:06Z</time>
      </trkpt>
      <trkpt lat="49.08073" lon="-1.57813">
        <ele>35.971844</ele>
        <time>2015-06-03T11:36:11Z</time>
      </trkpt>
      <trkpt lat="49.08076" lon="-1.57822">
        <ele>35.971844</ele>
        <time>2015-06-03T11:36:16Z</time>
      </trkpt>
      <trkpt lat="49.08078" lon="-1.57832">
        <ele>35.381363</ele>
        <time>2015-06-03T11:36:21Z</time>
      </trkpt>
      <trkpt lat="49.08079" lon="-1.57841">
        <ele>35.381363</ele>
        <time>2015-06-03T11:36:26Z</time>
      </trkpt>
      <trkpt lat="49.08079" lon="-1.57852">
        <ele>34.81481</ele>
        <time>2015-06-03T11:36:31Z</time>
      </trkpt>
      <trkpt lat="49.08079" lon="-1.57862">
        <ele>34.81481</ele>
        <time>2015-06-03T11:36:36Z</time>
      </trkpt>
      <trkpt lat="49.08079" lon="-1.57871">
        <ele>34.28652</ele>
        <time>2015-06-03T11:36:41Z</time>
      </trkpt>
      <trkpt lat="49.08076" lon="-1.5788">
        <ele>34.28652</ele>
        <time>2015-06-03T11:36:46Z</time>
      </trkpt>
      <trkpt lat="49.0807" lon="-1.5789">
        <ele>33.694332</ele>
        <time>2015-06-03T11:36:51Z</time>
      </trkpt>
      <trkpt lat="49.08068" lon="-1.57898">
        <ele>33.694332</ele>
        <time>2015-06-03T11:36:56Z</time>
      </trkpt>
      <trkpt lat="49.08063" lon="-1.57908">
        <ele>33.030193</ele>
        <time>2015-06-03T11:37:01Z</time>
      </trkpt>
      <trkpt lat="49.0806" lon="-1.57915">
        <ele>33.030193</ele>
        <time>2015-06-03T11:37:06Z</time>
      </trkpt>
      <trkpt lat="49.08056" lon="-1.57923">
        <ele>32.272392</ele>
        <time>2015-06-03T11:37:11Z</time>
      </trkpt>
      <trkpt lat="49.08052" lon="-1.57932">
        <ele>32.272392</ele>
        <time>2015-06-03T11:37:16Z</time>
      </trkpt>
      <trkpt lat="49.08051" lon="-1.57942">
        <ele>31.386618</ele>
        <time>2015-06-03T11:37:21Z</time>
      </trkpt>
      <trkpt lat="49.08051" lon="-1.57954">
        <ele>31.386618</ele>
        <time>2015-06-03T11:37:26Z</time>
      </trkpt>
      <trkpt lat="49.08052" lon="-1.57961">
        <ele>30.51432</ele>
        <time>2015-06-03T11:37:31Z</time>
      </trkpt>
      <trkpt lat="49.08052" lon="-1.57972">
        <ele>30.51432</ele>
        <time>2015-06-03T11:37:36Z</time>
      </trkpt>
      <trkpt lat="49.08051" lon="-1.57983">
        <ele>29.714415</ele>
        <time>2015-06-03T11:37:41Z</time>
      </trkpt>
      <trkpt lat="49.08051" lon="-1.57992">
        <ele>29.714415</ele>
        <time>2015-06-03T11:37:46Z</time>
      </trkpt>
      <trkpt lat="49.08049" lon="-1.58002">
        <ele>28.925941</ele>
        <time>2015-06-03T11:37:51Z</time>
      </trkpt>
      <trkpt lat="49.08048" lon="-1.58014">
        <ele>28.925941</ele>
        <time>2015-06-03T11:37:56Z</time>
      </trkpt>
      <trkpt lat="49.08047" lon="-1.58024">
        <ele>28.178797</ele>
        <time>2015-06-03T11:38:01Z</time>
      </trkpt>
      <trkpt lat="49.08046" lon="-1.58034">
        <ele>28.178797</ele>
        <time>2015-06-03T11:38:06Z</time>
      </trkpt>
      <trkpt lat="49.08046" lon="-1.58045">
        <ele>27.442867</ele>
        <time>2015-06-03T11:38:11Z</time>
      </trkpt>
      <trkpt lat="49.08044" lon="-1.58055">
        <ele>27.442867</ele>
        <time>2015-06-03T11:38:16Z</time>
      </trkpt>
      <trkpt lat="49.08042" lon="-1.58064">
        <ele>26.603687</ele>
        <time>2015-06-03T11:38:21Z</time>
      </trkpt>
      <trkpt lat="49.08041" lon="-1.58075">
        <ele>26.603687</ele>
        <time>2015-06-03T11:38:26Z</time>
      </trkpt>
      <trkpt lat="49.0804" lon="-1.58085">
        <ele>25.771603</ele>
        <time>2015-06-03T11:38:31Z</time>
      </trkpt>
      <trkpt lat="49.08039" lon="-1.58096">
        <ele>25.771603</ele>
        <time>2015-06-03T11:38:36Z</time>
      </trkpt>
      <trkpt lat="49.08038" lon="-1.58104">
        <ele>25.034357</ele>
        <time>2015-06-03T11:38:41Z</time>
      </trkpt>
      <trkpt lat="49.08037" lon="-1.58114">
        <ele>25.034357</ele>
        <time>2015-06-03T11:38:46Z</time>
      </trkpt>
      <trkpt lat="49.08034" lon="-1.58125">
        <ele>24.343224</ele>
        <time>2015-06-03T11:38:51Z</time>
      </trkpt>
      <trkpt lat="49.08032" lon="-1.58136">
        <ele>24.343224</ele>
        <time>2015-06-03T11:38:56Z</time>
      </trkpt>
      <trkpt lat="49.08032" lon="-1.58148">
        <ele>23.609632</ele>
        <time>2015-06-03T11:39:01Z</time>
      </trkpt>
      <trkpt lat="49.08031" lon="-1.58155">
        <ele>23.609632</ele>
        <time>2015-06-03T11:39:06Z</time>
      </trkpt>
      <trkpt lat="49.0803" lon="-1.58166">
        <ele>22.895687</ele>
        <time>2015-06-03T11:39:11Z</time>
      </trkpt>
      <trkpt lat="49.08029" lon="-1.58175">
        <ele>22.895687</ele>
        <time>2015-06-03T11:39:16Z</time>
      </trkpt>
      <trkpt lat="49.0803" lon="-1.58186">
        <ele>22.143526</ele>
        <time>2015-06-03T11:39:21Z</time>
      </trkpt>
      <trkpt lat="49.08028" lon="-1.58194">
        <ele>22.143526</ele>
        <time>2015-06-03T11:39:26Z</time>
      </trkpt>
      <trkpt lat="49.08028" lon="-1.58205">
        <ele>21.501343</ele>
        <time>2015-06-03T11:39:31Z</time>
      </trkpt>
      <trkpt lat="49.08028" lon="-1.58215">
        <ele>21.501343</ele>
        <time>2015-06-03T11:39:36Z</time>
      </trkpt>
      <trkpt lat="49.08028" lon="-1.58223">
        <ele>20.889912</ele>
        <time>2015-06-03T11:39:41Z</time>
      </trkpt>
      <trkpt lat="49.08028" lon="-1.58235">
        <ele>20.889912</ele>
        <time>2015-06-03T11:39:46Z</time>
      </trkpt>
      <trkpt lat="49.08028" lon="-1.58244">
        <ele>20.29333</ele>
        <time>2015-06-03T11:39:51Z</time>
      </trkpt>
      <trkpt lat="49.08029" lon="-1.58254">
        <ele>20.29333</ele>
        <time>2015-06-03T11:39:56Z</time>
      </trkpt>
      <trkpt lat="49.08029" lon="-1.58264">
        <ele>19.768816</ele>
        <time>2015-06-03T11:40:01Z</time>
      </trkpt>
      <trkpt lat="49.08027" lon="-1.58274">
        <ele>19.768816</ele>
        <time>2015-06-03T11:40:06Z</time>
      </trkpt>
      <trkpt lat="49.08027" lon="-1.58286">
        <ele>19.325907</ele>
        <time>2015-06-03T11:40:11Z</time>
      </trkpt>
      <trkpt lat="49.08027" lon="-1.58293">
        <ele>19.325907</ele>
        <time>2015-06-03T11:40:16Z</time>
      </trkpt>
      <trkpt lat="49.08028" lon="-1.58303">
        <ele>18.944332</ele>
        <time>2015-06-03T11:40:21Z</time>
      </trkpt>
      <trkpt lat="49.08029" lon="-1.58315">
        <ele>18.944332</ele>
        <time>2015-06-03T11:40:26Z</time>
      </trkpt>
      <trkpt lat="49.08031" lon="-1.58324">
        <ele>18.605093</ele>
        <time>2015-06-03T11:40:31Z</time>
      </trkpt>
      <trkpt lat="49.0803" lon="-1.58334">
        <ele>18.605093</ele>
        <time>2015-06-03T11:40:36Z</time>
      </trkpt>
      <trkpt lat="49.0803" lon="-1.58342">
        <ele>18.290428</ele>
        <time>2015-06-03T11:40:41Z</time>
      </trkpt>
      <trkpt lat="49.08029" lon="-1.5835">
        <ele>18.290428</ele>
        <time>2015-06-03T11:40:46Z</time>
      </trkpt>
      <trkpt lat="49.08026" lon="-1.58362">
        <ele>17.969358</ele>
        <time>2015-06-03T11:40:51Z</time>
      </trkpt>
      <trkpt lat="49.08025" lon="-1.58372">
        <ele>17.969358</ele>
        <time>2015-06-03T11:40:56Z</time>
      </trkpt>
      <trkpt lat="49.08024" lon="-1.58383">
        <ele>17.598757</ele>
        <time>2015-06-03T11:41:01Z</time>
      </trkpt>
      <trkpt lat="49.08023" lon="-1.58389">
        <ele>17.598757</ele>
        <time>2015-06-03T11:41:06Z</time>
      </trkpt>
      <trkpt lat="49.08024" lon="-1.58398">
        <ele>17.282877</ele>
        <time>2015-06-03T11:41:11Z</time>
      </trkpt>
      <trkpt lat="49.08025" lon="-1.58405">
        <ele>17.282877</ele>
        <time>2015-06-03T11:41:16Z</time>
      </trkpt>
      <trkpt lat="49.08026" lon="-1.58415">
        <ele>16.988441</ele>
        <time>2015-06-03T11:41:21Z</time>
      </trkpt>
      <trkpt lat="49.08027" lon="-1.58426">
        <ele>16.988441</ele>
        <time>2015-06-03T11:41:26Z</time>
      </trkpt>
      <trkpt lat="49.08027" lon="-1.58436">
        <ele>16.698935</ele>
        <time>2015-06-03T11:41:31Z</time>
      </trkpt>
      <trkpt lat="49.08028" lon="-1.58447">
        <ele>16.698935</ele>
        <time>2015-06-03T11:41:36Z</time>
      </trkpt>
      <trkpt lat="49.08029" lon="-1.58457">
        <ele>16.442263</ele>
        <time>2015-06-03T11:41:41Z</time>
      </trkpt>
      <trkpt lat="49.08029" lon="-1.58466">
        <ele>16.442263</ele>
        <time>2015-06-03T11:41:46Z</time>
      </trkpt>
      <trkpt lat="49.08029" lon="-1.58475">
        <ele>16.20093</ele>
        <time>2015-06-03T11:41:51Z</time>
      </trkpt>
      <trkpt lat="49.0803" lon="-1.58484">
        <ele>16.20093</ele>
        <time>2015-06-03T11:41:56Z</time>
      </trkpt>
      <trkpt lat="49.08031" lon="-1.58494">
        <ele>16.001907</ele>
        <time>2015-06-03T11:42:01Z</time>
      </trkpt>
      <trkpt lat="49.08033" lon="-1.58502">
        <ele>16.001907</ele>
        <time>2015-06-03T11:42:06Z</time>
      </trkpt>
      <trkpt lat="49.08033" lon="-1.58513">
        <ele>15.812409</ele>
        <time>2015-06-03T11:42:11Z</time>
      </trkpt>
      <trkpt lat="49.08034" lon="-1.58524">
        <ele>15.812409</ele>
        <time>2015-06-03T11:42:16Z</time>
      </trkpt>
      <trkpt lat="49.08033" lon="-1.58531">
        <ele>15.746136</ele>
        <time>2015-06-03T11:42:21Z</time>
      </trkpt>
      <trkpt lat="49.08031" lon="-1.58543">
        <ele>15.746136</ele>
        <time>2015-06-03T11:42:26Z</time>
      </trkpt>
      <trkpt lat="49.08029" lon="-1.58552">
        <ele>15.59104</ele>
        <time>2015-06-03T11:42:31Z</time>
      </trkpt>
      <trkpt lat="49.0803" lon="-1.58557">
        <ele>15.59104</ele>
        <time>2015-06-03T11:42:36Z</time>
      </trkpt>
      <trkpt lat="49.0803" lon="-1.58561">
        <ele>15.59104</ele>
        <time>2015-06-03T11:42:41Z</time>
      </trkpt>
      <trkpt lat="49.08029" lon="-1.58562">
        <ele>15.59104</ele>
        <time>2015-06-03T11:42:46Z</time>
      </trkpt>
      <trkpt lat="49.08029" lon="-1.58564">
        <ele>15.59104</ele>
        <time>2015-06-03T11:42:51Z</time>
      </trkpt>
      <trkpt lat="49.08029" lon="-1.58564">
        <ele>15.59104</ele>
        <time>2015-06-03T11:42:56Z</time>
      </trkpt>
      <trkpt lat="49.08028" lon="-1.58566">
        <ele>15.381477</ele>
        <time>2015-06-03T11:43:01Z</time>
      </trkpt>
      <trkpt lat="49.08028" lon="-1.58567">
        <ele>15.381477</ele>
        <time>2015-06-03T11:43:06Z</time>
      </trkpt>
      <trkpt lat="49.08028" lon="-1.58566">
        <ele>15.381477</ele>
        <time>2015-06-03T11:43:11Z</time>
      </trkpt>
      <trkpt lat="49.08027" lon="-1.58564">
        <ele>15.381477</ele>
        <time>2015-06-03T11:43:16Z</time>
      </trkpt>
      <trkpt lat="49.08028" lon="-1.58564">
        <ele>15.381477</ele>
        <time>2015-06-03T11:43:21Z</time>
      </trkpt>
      <trkpt lat="49.08029" lon="-1.58565">
        <ele>15.381477</ele>
        <time>2015-06-03T11:43:26Z</time>
      </trkpt>
      <trkpt lat="49.08028" lon="-1.58565">
        <ele>15.381477</ele>
        <time>2015-06-03T11:43:31Z</time>
      </trkpt>
      <trkpt lat="49.08028" lon="-1.58562">
        <ele>15.381477</ele>
        <time>2015-06-03T11:43:36Z</time>
      </trkpt>
      <trkpt lat="49.08028" lon="-1.58561">
        <ele>15.381477</ele>
        <time>2015-06-03T11:43:41Z</time>
      </trkpt>
      <trkpt lat="49.08028" lon="-1.5856">
        <ele>15.381477</ele>
        <time>2015-06-03T11:43:46Z</time>
      </trkpt>
      <trkpt lat="49.08034" lon="-1.5857">
        <ele>14.93327</ele>
        <time>2015-06-03T11:43:51Z</time>
      </trkpt>
      <trkpt lat="49.0804" lon="-1.5857">
        <ele>14.93327</ele>
        <time>2015-06-03T11:43:56Z</time>
      </trkpt>
      <trkpt lat="49.08047" lon="-1.58566">
        <ele>14.508777</ele>
        <time>2015-06-03T11:44:01Z</time>
      </trkpt>
      <trkpt lat="49.08053" lon="-1.5856">
        <ele>14.508777</ele>
        <time>2015-06-03T11:44:06Z</time>
      </trkpt>
      <trkpt lat="49.08055" lon="-1.58555">
        <ele>14.106029</ele>
        <time>2015-06-03T11:44:11Z</time>
      </trkpt>
      <trkpt lat="49.08061" lon="-1.5855">
        <ele>14.106029</ele>
        <time>2015-06-03T11:44:16Z</time>
      </trkpt>
      <trkpt lat="49.08068" lon="-1.58547">
        <ele>13.766383</ele>
        <time>2015-06-03T11:44:21Z</time>
      </trkpt>
      <trkpt lat="49.08075" lon="-1.58541">
        <ele>13.766383</ele>
        <time>2015-06-03T11:44:26Z</time>
      </trkpt>
      <trkpt lat="49.0808" lon="-1.58538">
        <ele>13.499167</ele>
        <time>2015-06-03T11:44:31Z</time>
      </trkpt>
      <trkpt lat="49.08085" lon="-1.58536">
        <ele>13.499167</ele>
        <time>2015-06-03T11:44:36Z</time>
      </trkpt>
      <trkpt lat="49.08092" lon="-1.58533">
        <ele>13.298415</ele>
        <time>2015-06-03T11:44:41Z</time>
      </trkpt>
      <trkpt lat="49.08097" lon="-1.58529">
        <ele>13.298415</ele>
        <time>2015-06-03T11:44:46Z</time>
      </trkpt>
      <trkpt lat="49.08102" lon="-1.58525">
        <ele>13.14401</ele>
        <time>2015-06-03T11:44:51Z</time>
      </trkpt>
      <trkpt lat="49.08108" lon="-1.58523">
        <ele>13.14401</ele>
        <time>2015-06-03T11:44:56Z</time>
      </trkpt>
      <trkpt lat="49.08115" lon="-1.5852">
        <ele>13.002781</ele>
        <time>2015-06-03T11:45:01Z</time>
      </trkpt>
      <trkpt lat="49.08122" lon="-1.58515">
        <ele>13.002781</ele>
        <time>2015-06-03T11:45:06Z</time>
      </trkpt>
      <trkpt lat="49.08129" lon="-1.58511">
        <ele>12.901615</ele>
        <time>2015-06-03T11:45:11Z</time>
      </trkpt>
      <trkpt lat="49.08135" lon="-1.58506">
        <ele>12.901615</ele>
        <time>2015-06-03T11:45:16Z</time>
      </trkpt>
      <trkpt lat="49.08141" lon="-1.58503">
        <ele>12.879739</ele>
        <time>2015-06-03T11:45:21Z</time>
      </trkpt>
      <trkpt lat="49.08146" lon="-1.58498">
        <ele>12.879739</ele>
        <time>2015-06-03T11:45:26Z</time>
      </trkpt>
      <trkpt lat="49.08152" lon="-1.58494">
        <ele>12.944467</ele>
        <time>2015-06-03T11:45:31Z</time>
      </trkpt>
      <trkpt lat="49.08158" lon="-1.5849">
        <ele>12.944467</ele>
        <time>2015-06-03T11:45:36Z</time>
      </trkpt>
      <trkpt lat="49.08164" lon="-1.58487">
        <ele>13.073531</ele>
        <time>2015-06-03T11:45:41Z</time>
      </trkpt>
      <trkpt lat="49.0817" lon="-1.58484">
        <ele>13.073531</ele>
        <time>2015-06-03T11:45:46Z</time>
      </trkpt>
      <trkpt lat="49.08177" lon="-1.5848">
        <ele>13.20291</ele>
        <time>2015-06-03T11:45:51Z</time>
      </trkpt>
      <trkpt lat="49.08184" lon="-1.58479">
        <ele>13.20291</ele>
        <time>2015-06-03T11:45:56Z</time>
      </trkpt>
      <trkpt lat="49.08192" lon="-1.58478">
        <ele>13.330951</ele>
        <time>2015-06-03T11:46:01Z</time>
      </trkpt>
      <trkpt lat="49.08198" lon="-1.58477">
        <ele>13.330951</ele>
        <time>2015-06-03T11:46:06Z</time>
      </trkpt>
      <trkpt lat="49.08204" lon="-1.58476">
        <ele>13.470568</ele>
        <time>2015-06-03T11:46:11Z</time>
      </trkpt>
      <trkpt lat="49.0821" lon="-1.58475">
        <ele>13.470568</ele>
        <time>2015-06-03T11:46:16Z</time>
      </trkpt>
      <trkpt lat="49.08217" lon="-1.58475">
        <ele>13.619311</ele>
        <time>2015-06-03T11:46:21Z</time>
      </trkpt>
      <trkpt lat="49.08224" lon="-1.58473">
        <ele>13.619311</ele>
        <time>2015-06-03T11:46:26Z</time>
      </trkpt>
      <trkpt lat="49.08231" lon="-1.58473">
        <ele>13.789332</ele>
        <time>2015-06-03T11:46:31Z</time>
      </trkpt>
      <trkpt lat="49.08237" lon="-1.58473">
        <ele>13.789332</ele>
        <time>2015-06-03T11:46:36Z</time>
      </trkpt>
      <trkpt lat="49.08245" lon="-1.58475">
        <ele>13.963043</ele>
        <time>2015-06-03T11:46:41Z</time>
      </trkpt>
      <trkpt lat="49.0825" lon="-1.58475">
        <ele>13.963043</ele>
        <time>2015-06-03T11:46:46Z</time>
      </trkpt>
      <trkpt lat="49.08257" lon="-1.58475">
        <ele>14.080942</ele>
        <time>2015-06-03T11:46:51Z</time>
      </trkpt>
      <trkpt lat="49.08265" lon="-1.58474">
        <ele>14.080942</ele>
        <time>2015-06-03T11:46:56Z</time>
      </trkpt>
      <trkpt lat="49.08272" lon="-1.58472">
        <ele>14.188971</ele>
        <time>2015-06-03T11:47:01Z</time>
      </trkpt>
      <trkpt lat="49.08279" lon="-1.58471">
        <ele>14.188971</ele>
        <time>2015-06-03T11:47:06Z</time>
      </trkpt>
      <trkpt lat="49.08286" lon="-1.58471">
        <ele>14.372999</ele>
        <time>2015-06-03T11:47:11Z</time>
      </trkpt>
      <trkpt lat="49.08291" lon="-1.5847">
        <ele>14.372999</ele>
        <time>2015-06-03T11:47:16Z</time>
      </trkpt>
      <trkpt lat="49.08296" lon="-1.58467">
        <ele>14.59713</ele>
        <time>2015-06-03T11:47:21Z</time>
      </trkpt>
      <trkpt lat="49.08302" lon="-1.58467">
        <ele>14.59713</ele>
        <time>2015-06-03T11:47:26Z</time>
      </trkpt>
      <trkpt lat="49.08311" lon="-1.58467">
        <ele>14.914498</ele>
        <time>2015-06-03T11:47:31Z</time>
      </trkpt>
      <trkpt lat="49.08316" lon="-1.58467">
        <ele>14.914498</ele>
        <time>2015-06-03T11:47:36Z</time>
      </trkpt>
      <trkpt lat="49.08322" lon="-1.58467">
        <ele>15.23001</ele>
        <time>2015-06-03T11:47:41Z</time>
      </trkpt>
      <trkpt lat="49.08327" lon="-1.58467">
        <ele>15.23001</ele>
        <time>2015-06-03T11:47:46Z</time>
      </trkpt>
      <trkpt lat="49.0833" lon="-1.58466">
        <ele>15.23001</ele>
        <time>2015-06-03T11:47:51Z</time>
      </trkpt>
      <trkpt lat="49.08338" lon="-1.58466">
        <ele>15.628542</ele>
        <time>2015-06-03T11:47:56Z</time>
      </trkpt>
      <trkpt lat="49.08344" lon="-1.58466">
        <ele>15.628542</ele>
        <time>2015-06-03T11:48:01Z</time>
      </trkpt>
      <trkpt lat="49.08351" lon="-1.58465">
        <ele>16.058851</ele>
        <time>2015-06-03T11:48:06Z</time>
      </trkpt>
      <trkpt lat="49.08356" lon="-1.58467">
        <ele>16.058851</ele>
        <time>2015-06-03T11:48:11Z</time>
      </trkpt>
      <trkpt lat="49.08362" lon="-1.58467">
        <ele>16.444597</ele>
        <time>2015-06-03T11:48:16Z</time>
      </trkpt>
      <trkpt lat="49.08367" lon="-1.58466">
        <ele>16.444597</ele>
        <time>2015-06-03T11:48:21Z</time>
      </trkpt>
      <trkpt lat="49.08371" lon="-1.58467">
        <ele>16.444597</ele>
        <time>2015-06-03T11:48:26Z</time>
      </trkpt>
      <trkpt lat="49.08373" lon="-1.58466">
        <ele>16.715225</ele>
        <time>2015-06-03T11:48:31Z</time>
      </trkpt>
      <trkpt lat="49.08371" lon="-1.58464">
        <ele>16.715225</ele>
        <time>2015-06-03T11:48:36Z</time>
      </trkpt>
      <trkpt lat="49.08372" lon="-1.58463">
        <ele>16.715225</ele>
        <time>2015-06-03T11:48:41Z</time>
      </trkpt>
      <trkpt lat="49.08372" lon="-1.58467">
        <ele>16.715225</ele>
        <time>2015-06-03T11:48:46Z</time>
      </trkpt>
      <trkpt lat="49.08373" lon="-1.58467">
        <ele>16.715225</ele>
        <time>2015-06-03T11:48:51Z</time>
      </trkpt>
      <trkpt lat="49.08372" lon="-1.58468">
        <ele>16.715225</ele>
        <time>2015-06-03T11:48:56Z</time>
      </trkpt>
      <trkpt lat="49.0837" lon="-1.58468">
        <ele>16.949852</ele>
        <time>2015-06-03T11:49:01Z</time>
      </trkpt>
      <trkpt lat="49.0837" lon="-1.58475">
        <ele>16.949852</ele>
        <time>2015-06-03T11:49:06Z</time>
      </trkpt>
      <trkpt lat="49.0837" lon="-1.58486">
        <ele>17.1787</ele>
        <time>2015-06-03T11:49:11Z</time>
      </trkpt>
      <trkpt lat="49.0837" lon="-1.58491">
        <ele>17.1787</ele>
        <time>2015-06-03T11:49:16Z</time>
      </trkpt>
      <trkpt lat="49.0837" lon="-1.58501">
        <ele>17.53072</ele>
        <time>2015-06-03T11:49:21Z</time>
      </trkpt>
      <trkpt lat="49.08371" lon="-1.58514">
        <ele>17.53072</ele>
        <time>2015-06-03T11:49:26Z</time>
      </trkpt>
      <trkpt lat="49.08369" lon="-1.58526">
        <ele>17.980991</ele>
        <time>2015-06-03T11:49:31Z</time>
      </trkpt>
      <trkpt lat="49.0837" lon="-1.58534">
        <ele>17.980991</ele>
        <time>2015-06-03T11:49:36Z</time>
      </trkpt>
      <trkpt lat="49.0837" lon="-1.58542">
        <ele>18.549433</ele>
        <time>2015-06-03T11:49:41Z</time>
      </trkpt>
      <trkpt lat="49.08369" lon="-1.58552">
        <ele>18.549433</ele>
        <time>2015-06-03T11:49:46Z</time>
      </trkpt>
      <trkpt lat="49.08368" lon="-1.58561">
        <ele>19.167755</ele>
        <time>2015-06-03T11:49:51Z</time>
      </trkpt>
      <trkpt lat="49.08366" lon="-1.5857">
        <ele>19.167755</ele>
        <time>2015-06-03T11:49:56Z</time>
      </trkpt>
      <trkpt lat="49.08366" lon="-1.58579">
        <ele>19.772604</ele>
        <time>2015-06-03T11:50:01Z</time>
      </trkpt>
      <trkpt lat="49.08364" lon="-1.58591">
        <ele>19.772604</ele>
        <time>2015-06-03T11:50:06Z</time>
      </trkpt>
      <trkpt lat="49.08361" lon="-1.58603">
        <ele>20.36302</ele>
        <time>2015-06-03T11:50:11Z</time>
      </trkpt>
      <trkpt lat="49.08361" lon="-1.58612">
        <ele>20.36302</ele>
        <time>2015-06-03T11:50:16Z</time>
      </trkpt>
      <trkpt lat="49.08359" lon="-1.58622">
        <ele>20.909391</ele>
        <time>2015-06-03T11:50:21Z</time>
      </trkpt>
      <trkpt lat="49.08359" lon="-1.58631">
        <ele>20.909391</ele>
        <time>2015-06-03T11:50:26Z</time>
      </trkpt>
      <trkpt lat="49.08357" lon="-1.58643">
        <ele>21.398874</ele>
        <time>2015-06-03T11:50:31Z</time>
      </trkpt>
      <trkpt lat="49.08356" lon="-1.58655">
        <ele>21.398874</ele>
        <time>2015-06-03T11:50:36Z</time>
      </trkpt>
      <trkpt lat="49.08356" lon="-1.58664">
        <ele>21.80538</ele>
        <time>2015-06-03T11:50:41Z</time>
      </trkpt>
      <trkpt lat="49.08355" lon="-1.58674">
        <ele>21.80538</ele>
        <time>2015-06-03T11:50:46Z</time>
      </trkpt>
      <trkpt lat="49.08354" lon="-1.58684">
        <ele>22.177082</ele>
        <time>2015-06-03T11:50:51Z</time>
      </trkpt>
      <trkpt lat="49.08355" lon="-1.58694">
        <ele>22.177082</ele>
        <time>2015-06-03T11:50:56Z</time>
      </trkpt>
      <trkpt lat="49.08354" lon="-1.58705">
        <ele>22.515543</ele>
        <time>2015-06-03T11:51:01Z</time>
      </trkpt>
      <trkpt lat="49.08353" lon="-1.58715">
        <ele>22.515543</ele>
        <time>2015-06-03T11:51:06Z</time>
      </trkpt>
      <trkpt lat="49.08352" lon="-1.58725">
        <ele>22.764715</ele>
        <time>2015-06-03T11:51:11Z</time>
      </trkpt>
      <trkpt lat="49.0835" lon="-1.58735">
        <ele>22.764715</ele>
        <time>2015-06-03T11:51:16Z</time>
      </trkpt>
      <trkpt lat="49.0835" lon="-1.58744">
        <ele>22.916203</ele>
        <time>2015-06-03T11:51:21Z</time>
      </trkpt>
      <trkpt lat="49.08349" lon="-1.58752">
        <ele>22.916203</ele>
        <time>2015-06-03T11:51:26Z</time>
      </trkpt>
      <trkpt lat="49.0835" lon="-1.58763">
        <ele>23.020206</ele>
        <time>2015-06-03T11:51:31Z</time>
      </trkpt>
      <trkpt lat="49.08352" lon="-1.58773">
        <ele>23.020206</ele>
        <time>2015-06-03T11:51:36Z</time>
      </trkpt>
      <trkpt lat="49.08356" lon="-1.58775">
        <ele>23.094595</ele>
        <time>2015-06-03T11:51:41Z</time>
      </trkpt>
      <trkpt lat="49.08362" lon="-1.58778">
        <ele>23.094595</ele>
        <time>2015-06-03T11:51:46Z</time>
      </trkpt>
      <trkpt lat="49.08368" lon="-1.58775">
        <ele>23.141642</ele>
        <time>2015-06-03T11:51:51Z</time>
      </trkpt>
      <trkpt lat="49.08374" lon="-1.58773">
        <ele>23.141642</ele>
        <time>2015-06-03T11:51:56Z</time>
      </trkpt>
      <trkpt lat="49.0838" lon="-1.58772">
        <ele>23.07711</ele>
        <time>2015-06-03T11:52:01Z</time>
      </trkpt>
      <trkpt lat="49.08384" lon="-1.5877">
        <ele>23.07711</ele>
        <time>2015-06-03T11:52:06Z</time>
      </trkpt>
      <trkpt lat="49.08389" lon="-1.58767">
        <ele>22.880943</ele>
        <time>2015-06-03T11:52:11Z</time>
      </trkpt>
      <trkpt lat="49.08398" lon="-1.5876">
        <ele>22.65025</ele>
        <time>2015-06-03T11:52:16Z</time>
      </trkpt>
      <trkpt lat="49.08402" lon="-1.58756">
        <ele>22.65025</ele>
        <time>2015-06-03T11:52:21Z</time>
      </trkpt>
      <trkpt lat="49.08409" lon="-1.58755">
        <ele>22.345428</ele>
        <time>2015-06-03T11:52:26Z</time>
      </trkpt>
      <trkpt lat="49.08414" lon="-1.58755">
        <ele>22.345428</ele>
        <time>2015-06-03T11:52:31Z</time>
      </trkpt>
      <trkpt lat="49.08421" lon="-1.58754">
        <ele>22.045311</ele>
        <time>2015-06-03T11:52:36Z</time>
      </trkpt>
      <trkpt lat="49.08428" lon="-1.58752">
        <ele>22.045311</ele>
        <time>2015-06-03T11:52:41Z</time>
      </trkpt>
      <trkpt lat="49.08434" lon="-1.58751">
        <ele>21.736473</ele>
        <time>2015-06-03T11:52:46Z</time>
      </trkpt>
      <trkpt lat="49.08439" lon="-1.58749">
        <ele>21.736473</ele>
        <time>2015-06-03T11:52:51Z</time>
      </trkpt>
      <trkpt lat="49.08447" lon="-1.58747">
        <ele>21.3921</ele>
        <time>2015-06-03T11:52:56Z</time>
      </trkpt>
      <trkpt lat="49.08453" lon="-1.58747">
        <ele>21.3921</ele>
        <time>2015-06-03T11:53:01Z</time>
      </trkpt>
      <trkpt lat="49.08462" lon="-1.58748">
        <ele>21.102745</ele>
        <time>2015-06-03T11:53:06Z</time>
      </trkpt>
      <trkpt lat="49.08467" lon="-1.58748">
        <ele>21.102745</ele>
        <time>2015-06-03T11:53:11Z</time>
      </trkpt>
      <trkpt lat="49.08472" lon="-1.58747">
        <ele>20.880102</ele>
        <time>2015-06-03T11:53:16Z</time>
      </trkpt>
      <trkpt lat="49.08478" lon="-1.58748">
        <ele>20.880102</ele>
        <time>2015-06-03T11:53:21Z</time>
      </trkpt>
      <trkpt lat="49.08482" lon="-1.58749">
        <ele>20.590704</ele>
        <time>2015-06-03T11:53:26Z</time>
      </trkpt>
      <trkpt lat="49.08489" lon="-1.58749">
        <ele>20.590704</ele>
        <time>2015-06-03T11:53:31Z</time>
      </trkpt>
      <trkpt lat="49.08496" lon="-1.5875">
        <ele>20.255182</ele>
        <time>2015-06-03T11:53:36Z</time>
      </trkpt>
      <trkpt lat="49.08502" lon="-1.58749">
        <ele>20.255182</ele>
        <time>2015-06-03T11:53:41Z</time>
      </trkpt>
      <trkpt lat="49.08507" lon="-1.58749">
        <ele>19.950415</ele>
        <time>2015-06-03T11:53:46Z</time>
      </trkpt>
      <trkpt lat="49.08516" lon="-1.58743">
        <ele>19.603426</ele>
        <time>2015-06-03T11:53:51Z</time>
      </trkpt>
      <trkpt lat="49.08521" lon="-1.5874">
        <ele>19.603426</ele>
        <time>2015-06-03T11:53:56Z</time>
      </trkpt>
      <trkpt lat="49.08527" lon="-1.58737">
        <ele>19.161112</ele>
        <time>2015-06-03T11:54:01Z</time>
      </trkpt>
      <trkpt lat="49.08533" lon="-1.58733">
        <ele>19.161112</ele>
        <time>2015-06-03T11:54:06Z</time>
      </trkpt>
      <trkpt lat="49.08538" lon="-1.58731">
        <ele>18.632162</ele>
        <time>2015-06-03T11:54:11Z</time>
      </trkpt>
      <trkpt lat="49.08546" lon="-1.58729">
        <ele>18.632162</ele>
        <time>2015-06-03T11:54:16Z</time>
      </trkpt>
      <trkpt lat="49.08551" lon="-1.58726">
        <ele>18.06808</ele>
        <time>2015-06-03T11:54:21Z</time>
      </trkpt>
      <trkpt lat="49.08558" lon="-1.58723">
        <ele>18.06808</ele>
        <time>2015-06-03T11:54:26Z</time>
      </trkpt>
      <trkpt lat="49.08564" lon="-1.58719">
        <ele>17.631952</ele>
        <time>2015-06-03T11:54:31Z</time>
      </trkpt>
      <trkpt lat="49.08569" lon="-1.58713">
        <ele>17.631952</ele>
        <time>2015-06-03T11:54:36Z</time>
      </trkpt>
      <trkpt lat="49.08574" lon="-1.58709">
        <ele>17.416843</ele>
        <time>2015-06-03T11:54:41Z</time>
      </trkpt>
      <trkpt lat="49.08578" lon="-1.58706">
        <ele>17.416843</ele>
        <time>2015-06-03T11:54:46Z</time>
      </trkpt>
      <trkpt lat="49.08583" lon="-1.58703">
        <ele>17.436283</ele>
        <time>2015-06-03T11:54:51Z</time>
      </trkpt>
      <trkpt lat="49.0859" lon="-1.58693">
        <ele>17.436283</ele>
        <time>2015-06-03T11:54:56Z</time>
      </trkpt>
      <trkpt lat="49.08593" lon="-1.58687">
        <ele>17.557999</ele>
        <time>2015-06-03T11:55:01Z</time>
      </trkpt>
      <trkpt lat="49.08601" lon="-1.5868">
        <ele>17.557999</ele>
        <time>2015-06-03T11:55:06Z</time>
      </trkpt>
      <trkpt lat="49.08605" lon="-1.58675">
        <ele>17.702356</ele>
        <time>2015-06-03T11:55:11Z</time>
      </trkpt>
      <trkpt lat="49.08612" lon="-1.58663">
        <ele>17.809885</ele>
        <time>2015-06-03T11:55:16Z</time>
      </trkpt>
      <trkpt lat="49.08617" lon="-1.58657">
        <ele>17.809885</ele>
        <time>2015-06-03T11:55:21Z</time>
      </trkpt>
      <trkpt lat="49.08621" lon="-1.58649">
        <ele>17.825565</ele>
        <time>2015-06-03T11:55:26Z</time>
      </trkpt>
      <trkpt lat="49.08627" lon="-1.5864">
        <ele>17.825565</ele>
        <time>2015-06-03T11:55:31Z</time>
      </trkpt>
      <trkpt lat="49.08634" lon="-1.58635">
        <ele>17.813932</ele>
        <time>2015-06-03T11:55:36Z</time>
      </trkpt>
      <trkpt lat="49.0864" lon="-1.5863">
        <ele>17.813932</ele>
        <time>2015-06-03T11:55:41Z</time>
      </trkpt>
      <trkpt lat="49.08644" lon="-1.58624">
        <ele>17.834845</ele>
        <time>2015-06-03T11:55:46Z</time>
      </trkpt>
      <trkpt lat="49.08649" lon="-1.58619">
        <ele>17.834845</ele>
        <time>2015-06-03T11:55:51Z</time>
      </trkpt>
      <trkpt lat="49.08654" lon="-1.58614">
        <ele>17.842764</ele>
        <time>2015-06-03T11:55:56Z</time>
      </trkpt>
      <trkpt lat="49.0866" lon="-1.58609">
        <ele>17.842764</ele>
        <time>2015-06-03T11:56:01Z</time>
      </trkpt>
      <trkpt lat="49.08667" lon="-1.58603">
        <ele>17.910809</ele>
        <time>2015-06-03T11:56:06Z</time>
      </trkpt>
      <trkpt lat="49.08673" lon="-1.58598">
        <ele>17.910809</ele>
        <time>2015-06-03T11:56:11Z</time>
      </trkpt>
      <trkpt lat="49.08677" lon="-1.58592">
        <ele>17.948011</ele>
        <time>2015-06-03T11:56:16Z</time>
      </trkpt>
      <trkpt lat="49.08682" lon="-1.58584">
        <ele>17.948011</ele>
        <time>2015-06-03T11:56:21Z</time>
      </trkpt>
      <trkpt lat="49.08685" lon="-1.58575">
        <ele>17.985449</ele>
        <time>2015-06-03T11:56:26Z</time>
      </trkpt>
      <trkpt lat="49.08688" lon="-1.58568">
        <ele>17.985449</ele>
        <time>2015-06-03T11:56:31Z</time>
      </trkpt>
      <trkpt lat="49.08693" lon="-1.58561">
        <ele>17.994253</ele>
        <time>2015-06-03T11:56:36Z</time>
      </trkpt>
      <trkpt lat="49.08697" lon="-1.58556">
        <ele>17.994253</ele>
        <time>2015-06-03T11:56:41Z</time>
      </trkpt>
      <trkpt lat="49.08698" lon="-1.58552">
        <ele>17.994253</ele>
        <time>2015-06-03T11:56:46Z</time>
      </trkpt>
      <trkpt lat="49.08698" lon="-1.58551">
        <ele>17.918919</ele>
        <time>2015-06-03T11:56:51Z</time>
      </trkpt>
      <trkpt lat="49.08699" lon="-1.58551">
        <ele>17.918919</ele>
        <time>2015-06-03T11:56:56Z</time>
      </trkpt>
      <trkpt lat="49.08699" lon="-1.58551">
        <ele>17.918919</ele>
        <time>2015-06-03T11:57:01Z</time>
      </trkpt>
      <trkpt lat="49.08699" lon="-1.58552">
        <ele>17.918919</ele>
        <time>2015-06-03T11:57:06Z</time>
      </trkpt>
      <trkpt lat="49.08699" lon="-1.58554">
        <ele>17.918919</ele>
        <time>2015-06-03T11:57:11Z</time>
      </trkpt>
      <trkpt lat="49.08698" lon="-1.58555">
        <ele>17.918919</ele>
        <time>2015-06-03T11:57:16Z</time>
      </trkpt>
      <trkpt lat="49.08699" lon="-1.58551">
        <ele>17.918919</ele>
        <time>2015-06-03T11:57:21Z</time>
      </trkpt>
      <trkpt lat="49.087" lon="-1.58549">
        <ele>18.08293</ele>
        <time>2015-06-03T11:57:26Z</time>
      </trkpt>
      <trkpt lat="49.08701" lon="-1.5855">
        <ele>18.08293</ele>
        <time>2015-06-03T11:57:31Z</time>
      </trkpt>
      <trkpt lat="49.08701" lon="-1.5855">
        <ele>18.08293</ele>
        <time>2015-06-03T11:57:36Z</time>
      </trkpt>
      <trkpt lat="49.08701" lon="-1.5855">
        <ele>18.08293</ele>
        <time>2015-06-03T11:57:41Z</time>
      </trkpt>
      <trkpt lat="49.08704" lon="-1.5855">
        <ele>18.08293</ele>
        <time>2015-06-03T11:57:46Z</time>
      </trkpt>
      <trkpt lat="49.08709" lon="-1.58551">
        <ele>18.439457</ele>
        <time>2015-06-03T11:57:51Z</time>
      </trkpt>
      <trkpt lat="49.08715" lon="-1.58556">
        <ele>18.439457</ele>
        <time>2015-06-03T11:57:56Z</time>
      </trkpt>
      <trkpt lat="49.08722" lon="-1.58563">
        <ele>18.728392</ele>
        <time>2015-06-03T11:58:01Z</time>
      </trkpt>
      <trkpt lat="49.08728" lon="-1.58568">
        <ele>18.728392</ele>
        <time>2015-06-03T11:58:06Z</time>
      </trkpt>
      <trkpt lat="49.08733" lon="-1.58574">
        <ele>19.025965</ele>
        <time>2015-06-03T11:58:11Z</time>
      </trkpt>
      <trkpt lat="49.08738" lon="-1.58582">
        <ele>19.025965</ele>
        <time>2015-06-03T11:58:16Z</time>
      </trkpt>
      <trkpt lat="49.08741" lon="-1.58591">
        <ele>19.359543</ele>
        <time>2015-06-03T11:58:21Z</time>
      </trkpt>
      <trkpt lat="49.08744" lon="-1.58601">
        <ele>19.359543</ele>
        <time>2015-06-03T11:58:26Z</time>
      </trkpt>
      <trkpt lat="49.08746" lon="-1.58612">
        <ele>19.696732</ele>
        <time>2015-06-03T11:58:31Z</time>
      </trkpt>
      <trkpt lat="49.08748" lon="-1.58622">
        <ele>19.696732</ele>
        <time>2015-06-03T11:58:36Z</time>
      </trkpt>
      <trkpt lat="49.08749" lon="-1.58633">
        <ele>20.108393</ele>
        <time>2015-06-03T11:58:41Z</time>
      </trkpt>
      <trkpt lat="49.08751" lon="-1.58642">
        <ele>20.108393</ele>
        <time>2015-06-03T11:58:46Z</time>
      </trkpt>
      <trkpt lat="49.08752" lon="-1.58652">
        <ele>20.559093</ele>
        <time>2015-06-03T11:58:51Z</time>
      </trkpt>
      <trkpt lat="49.08752" lon="-1.58663">
        <ele>20.559093</ele>
        <time>2015-06-03T11:58:56Z</time>
      </trkpt>
      <trkpt lat="49.08751" lon="-1.58675">
        <ele>20.97267</ele>
        <time>2015-06-03T11:59:01Z</time>
      </trkpt>
      <trkpt lat="49.08751" lon="-1.58685">
        <ele>20.97267</ele>
        <time>2015-06-03T11:59:06Z</time>
      </trkpt>
      <trkpt lat="49.08752" lon="-1.58694">
        <ele>21.365139</ele>
        <time>2015-06-03T11:59:11Z</time>
      </trkpt>
      <trkpt lat="49.0875" lon="-1.58706">
        <ele>21.365139</ele>
        <time>2015-06-03T11:59:16Z</time>
      </trkpt>
      <trkpt lat="49.08749" lon="-1.58716">
        <ele>21.736994</ele>
        <time>2015-06-03T11:59:21Z</time>
      </trkpt>
      <trkpt lat="49.0875" lon="-1.58725">
        <ele>21.736994</ele>
        <time>2015-06-03T11:59:26Z</time>
      </trkpt>
      <trkpt lat="49.0875" lon="-1.58737">
        <ele>22.05995</ele>
        <time>2015-06-03T11:59:31Z</time>
      </trkpt>
      <trkpt lat="49.0875" lon="-1.58748">
        <ele>22.05995</ele>
        <time>2015-06-03T11:59:36Z</time>
      </trkpt>
      <trkpt lat="49.0875" lon="-1.58757">
        <ele>22.351183</ele>
        <time>2015-06-03T11:59:41Z</time>
      </trkpt>
      <trkpt lat="49.0875" lon="-1.58768">
        <ele>22.351183</ele>
        <time>2015-06-03T11:59:46Z</time>
      </trkpt>
      <trkpt lat="49.0875" lon="-1.58778">
        <ele>22.626713</ele>
        <time>2015-06-03T11:59:51Z</time>
      </trkpt>
      <trkpt lat="49.08751" lon="-1.58788">
        <ele>22.626713</ele>
        <time>2015-06-03T11:59:56Z</time>
      </trkpt>
      <trkpt lat="49.08751" lon="-1.58799">
        <ele>22.829393</ele>
        <time>2015-06-03T12:00:01Z</time>
      </trkpt>
      <trkpt lat="49.0875" lon="-1.5881">
        <ele>22.829393</ele>
        <time>2015-06-03T12:00:06Z</time>
      </trkpt>
      <trkpt lat="49.0875" lon="-1.58823">
        <ele>22.992964</ele>
        <time>2015-06-03T12:00:11Z</time>
      </trkpt>
      <trkpt lat="49.08749" lon="-1.58833">
        <ele>22.992964</ele>
        <time>2015-06-03T12:00:16Z</time>
      </trkpt>
      <trkpt lat="49.08748" lon="-1.58841">
        <ele>23.119993</ele>
        <time>2015-06-03T12:00:21Z</time>
      </trkpt>
      <trkpt lat="49.08749" lon="-1.58851">
        <ele>23.119993</ele>
        <time>2015-06-03T12:00:26Z</time>
      </trkpt>
      <trkpt lat="49.08749" lon="-1.58861">
        <ele>23.212984</ele>
        <time>2015-06-03T12:00:31Z</time>
      </trkpt>
      <trkpt lat="49.08749" lon="-1.58872">
        <ele>23.212984</ele>
        <time>2015-06-03T12:00:36Z</time>
      </trkpt>
      <trkpt lat="49.08747" lon="-1.58882">
        <ele>23.274363</ele>
        <time>2015-06-03T12:00:41Z</time>
      </trkpt>
      <trkpt lat="49.08747" lon="-1.58893">
        <ele>23.274363</ele>
        <time>2015-06-03T12:00:46Z</time>
      </trkpt>
      <trkpt lat="49.08747" lon="-1.58905">
        <ele>23.320902</ele>
        <time>2015-06-03T12:00:51Z</time>
      </trkpt>
      <trkpt lat="49.08746" lon="-1.58915">
        <ele>23.320902</ele>
        <time>2015-06-03T12:00:56Z</time>
      </trkpt>
      <trkpt lat="49.08744" lon="-1.58925">
        <ele>23.36819</ele>
        <time>2015-06-03T12:01:01Z</time>
      </trkpt>
      <trkpt lat="49.08741" lon="-1.58935">
        <ele>23.36819</ele>
        <time>2015-06-03T12:01:06Z</time>
      </trkpt>
      <trkpt lat="49.08739" lon="-1.58945">
        <ele>23.358637</ele>
        <time>2015-06-03T12:01:11Z</time>
      </trkpt>
      <trkpt lat="49.08736" lon="-1.58955">
        <ele>23.358637</ele>
        <time>2015-06-03T12:01:16Z</time>
      </trkpt>
      <trkpt lat="49.08732" lon="-1.58964">
        <ele>23.267866</ele>
        <time>2015-06-03T12:01:21Z</time>
      </trkpt>
      <trkpt lat="49.08729" lon="-1.58972">
        <ele>23.267866</ele>
        <time>2015-06-03T12:01:26Z</time>
      </trkpt>
      <trkpt lat="49.08725" lon="-1.58981">
        <ele>23.116772</ele>
        <time>2015-06-03T12:01:31Z</time>
      </trkpt>
      <trkpt lat="49.08722" lon="-1.58989">
        <ele>23.116772</ele>
        <time>2015-06-03T12:01:36Z</time>
      </trkpt>
      <trkpt lat="49.0872" lon="-1.58998">
        <ele>22.924885</ele>
        <time>2015-06-03T12:01:41Z</time>
      </trkpt>
      <trkpt lat="49.08717" lon="-1.59008">
        <ele>22.924885</ele>
        <time>2015-06-03T12:01:46Z</time>
      </trkpt>
      <trkpt lat="49.08715" lon="-1.5902">
        <ele>22.696016</ele>
        <time>2015-06-03T12:01:51Z</time>
      </trkpt>
      <trkpt lat="49.08713" lon="-1.5903">
        <ele>22.696016</ele>
        <time>2015-06-03T12:01:56Z</time>
      </trkpt>
      <trkpt lat="49.08711" lon="-1.59039">
        <ele>22.419386</ele>
        <time>2015-06-03T12:02:01Z</time>
      </trkpt>
      <trkpt lat="49.0871" lon="-1.59048">
        <ele>22.419386</ele>
        <time>2015-06-03T12:02:06Z</time>
      </trkpt>
      <trkpt lat="49.08707" lon="-1.59059">
        <ele>21.984264</ele>
        <time>2015-06-03T12:02:11Z</time>
      </trkpt>
      <trkpt lat="49.08706" lon="-1.59067">
        <ele>21.984264</ele>
        <time>2015-06-03T12:02:16Z</time>
      </trkpt>
      <trkpt lat="49.08707" lon="-1.59076">
        <ele>21.475843</ele>
        <time>2015-06-03T12:02:21Z</time>
      </trkpt>
      <trkpt lat="49.08706" lon="-1.59088">
        <ele>21.475843</ele>
        <time>2015-06-03T12:02:26Z</time>
      </trkpt>
      <trkpt lat="49.08704" lon="-1.59097">
        <ele>21.00207</ele>
        <time>2015-06-03T12:02:31Z</time>
      </trkpt>
      <trkpt lat="49.08702" lon="-1.59106">
        <ele>21.00207</ele>
        <time>2015-06-03T12:02:36Z</time>
      </trkpt>
      <trkpt lat="49.08702" lon="-1.59119">
        <ele>20.561981</ele>
        <time>2015-06-03T12:02:41Z</time>
      </trkpt>
      <trkpt lat="49.087" lon="-1.59127">
        <ele>20.561981</ele>
        <time>2015-06-03T12:02:46Z</time>
      </trkpt>
      <trkpt lat="49.087" lon="-1.59136">
        <ele>20.154573</ele>
        <time>2015-06-03T12:02:51Z</time>
      </trkpt>
      <trkpt lat="49.087" lon="-1.59142">
        <ele>20.154573</ele>
        <time>2015-06-03T12:02:56Z</time>
      </trkpt>
      <trkpt lat="49.08699" lon="-1.59155">
        <ele>19.73557</ele>
        <time>2015-06-03T12:03:01Z</time>
      </trkpt>
      <trkpt lat="49.08699" lon="-1.59164">
        <ele>19.73557</ele>
        <time>2015-06-03T12:03:06Z</time>
      </trkpt>
      <trkpt lat="49.08698" lon="-1.59173">
        <ele>19.364838</ele>
        <time>2015-06-03T12:03:11Z</time>
      </trkpt>
      <trkpt lat="49.08698" lon="-1.59183">
        <ele>19.364838</ele>
        <time>2015-06-03T12:03:16Z</time>
      </trkpt>
      <trkpt lat="49.08696" lon="-1.59188">
        <ele>19.083277</ele>
        <time>2015-06-03T12:03:21Z</time>
      </trkpt>
      <trkpt lat="49.08692" lon="-1.59197">
        <ele>19.083277</ele>
        <time>2015-06-03T12:03:26Z</time>
      </trkpt>
      <trkpt lat="49.08689" lon="-1.59208">
        <ele>18.89968</ele>
        <time>2015-06-03T12:03:31Z</time>
      </trkpt>
      <trkpt lat="49.08687" lon="-1.59215">
        <ele>18.89968</ele>
        <time>2015-06-03T12:03:36Z</time>
      </trkpt>
      <trkpt lat="49.08686" lon="-1.59221">
        <ele>18.89968</ele>
        <time>2015-06-03T12:03:41Z</time>
      </trkpt>
      <trkpt lat="49.08684" lon="-1.59228">
        <ele>18.706608</ele>
        <time>2015-06-03T12:03:46Z</time>
      </trkpt>
      <trkpt lat="49.08683" lon="-1.59241">
        <ele>18.706608</ele>
        <time>2015-06-03T12:03:51Z</time>
      </trkpt>
      <trkpt lat="49.0868" lon="-1.59249">
        <ele>18.505392</ele>
        <time>2015-06-03T12:03:56Z</time>
      </trkpt>
      <trkpt lat="49.08678" lon="-1.59259">
        <ele>18.505392</ele>
        <time>2015-06-03T12:04:01Z</time>
      </trkpt>
      <trkpt lat="49.08679" lon="-1.59269">
        <ele>18.311672</ele>
        <time>2015-06-03T12:04:06Z</time>
      </trkpt>
      <trkpt lat="49.08679" lon="-1.59277">
        <ele>18.311672</ele>
        <time>2015-06-03T12:04:11Z</time>
      </trkpt>
      <trkpt lat="49.08678" lon="-1.59284">
        <ele>18.125479</ele>
        <time>2015-06-03T12:04:16Z</time>
      </trkpt>
      <trkpt lat="49.08677" lon="-1.59297">
        <ele>18.125479</ele>
        <time>2015-06-03T12:04:21Z</time>
      </trkpt>
      <trkpt lat="49.08676" lon="-1.59305">
        <ele>17.932383</ele>
        <time>2015-06-03T12:04:26Z</time>
      </trkpt>
      <trkpt lat="49.08676" lon="-1.59316">
        <ele>17.932383</ele>
        <time>2015-06-03T12:04:31Z</time>
      </trkpt>
      <trkpt lat="49.08676" lon="-1.59325">
        <ele>17.8343</ele>
        <time>2015-06-03T12:04:36Z</time>
      </trkpt>
      <trkpt lat="49.08676" lon="-1.59337">
        <ele>17.8343</ele>
        <time>2015-06-03T12:04:41Z</time>
      </trkpt>
      <trkpt lat="49.08674" lon="-1.59346">
        <ele>17.824484</ele>
        <time>2015-06-03T12:04:46Z</time>
      </trkpt>
      <trkpt lat="49.08672" lon="-1.59354">
        <ele>17.824484</ele>
        <time>2015-06-03T12:04:51Z</time>
      </trkpt>
      <trkpt lat="49.08668" lon="-1.59364">
        <ele>17.795542</ele>
        <time>2015-06-03T12:04:56Z</time>
      </trkpt>
      <trkpt lat="49.08667" lon="-1.59373">
        <ele>17.795542</ele>
        <time>2015-06-03T12:05:01Z</time>
      </trkpt>
      <trkpt lat="49.08666" lon="-1.59383">
        <ele>17.777697</ele>
        <time>2015-06-03T12:05:06Z</time>
      </trkpt>
      <trkpt lat="49.08664" lon="-1.59391">
        <ele>17.777697</ele>
        <time>2015-06-03T12:05:11Z</time>
      </trkpt>
      <trkpt lat="49.08663" lon="-1.59398">
        <ele>17.770079</ele>
        <time>2015-06-03T12:05:16Z</time>
      </trkpt>
      <trkpt lat="49.08661" lon="-1.59409">
        <ele>17.770079</ele>
        <time>2015-06-03T12:05:21Z</time>
      </trkpt>
      <trkpt lat="49.08659" lon="-1.5942">
        <ele>17.771833</ele>
        <time>2015-06-03T12:05:26Z</time>
      </trkpt>
      <trkpt lat="49.08659" lon="-1.59429">
        <ele>17.771833</ele>
        <time>2015-06-03T12:05:31Z</time>
      </trkpt>
      <trkpt lat="49.08655" lon="-1.59438">
        <ele>17.854183</ele>
        <time>2015-06-03T12:05:36Z</time>
      </trkpt>
      <trkpt lat="49.08651" lon="-1.59448">
        <ele>17.854183</ele>
        <time>2015-06-03T12:05:41Z</time>
      </trkpt>
      <trkpt lat="49.08648" lon="-1.59455">
        <ele>18.010818</ele>
        <time>2015-06-03T12:05:46Z</time>
      </trkpt>
      <trkpt lat="49.08646" lon="-1.59467">
        <ele>18.010818</ele>
        <time>2015-06-03T12:05:51Z</time>
      </trkpt>
      <trkpt lat="49.08643" lon="-1.59477">
        <ele>18.192446</ele>
        <time>2015-06-03T12:05:56Z</time>
      </trkpt>
      <trkpt lat="49.0864" lon="-1.59487">
        <ele>18.192446</ele>
        <time>2015-06-03T12:06:01Z</time>
      </trkpt>
      <trkpt lat="49.08639" lon="-1.59497">
        <ele>18.32448</ele>
        <time>2015-06-03T12:06:06Z</time>
      </trkpt>
      <trkpt lat="49.08636" lon="-1.59506">
        <ele>18.32448</ele>
        <time>2015-06-03T12:06:11Z</time>
      </trkpt>
      <trkpt lat="49.08633" lon="-1.59516">
        <ele>18.482067</ele>
        <time>2015-06-03T12:06:16Z</time>
      </trkpt>
      <trkpt lat="49.08632" lon="-1.59524">
        <ele>18.482067</ele>
        <time>2015-06-03T12:06:21Z</time>
      </trkpt>
      <trkpt lat="49.08629" lon="-1.59533">
        <ele>18.662693</ele>
        <time>2015-06-03T12:06:26Z</time>
      </trkpt>
      <trkpt lat="49.08627" lon="-1.59537">
        <ele>18.662693</ele>
        <time>2015-06-03T12:06:31Z</time>
      </trkpt>
      <trkpt lat="49.08623" lon="-1.59544">
        <ele>18.734266</ele>
        <time>2015-06-03T12:06:36Z</time>
      </trkpt>
      <trkpt lat="49.08621" lon="-1.59554">
        <ele>18.734266</ele>
        <time>2015-06-03T12:06:41Z</time>
      </trkpt>
      <trkpt lat="49.08618" lon="-1.59565">
        <ele>18.747635</ele>
        <time>2015-06-03T12:06:46Z</time>
      </trkpt>
      <trkpt lat="49.08617" lon="-1.59573">
        <ele>18.747635</ele>
        <time>2015-06-03T12:06:51Z</time>
      </trkpt>
      <trkpt lat="49.08616" lon="-1.59584">
        <ele>18.750074</ele>
        <time>2015-06-03T12:06:56Z</time>
      </trkpt>
      <trkpt lat="49.08614" lon="-1.59591">
        <ele>18.750074</ele>
        <time>2015-06-03T12:07:01Z</time>
      </trkpt>
      <trkpt lat="49.08612" lon="-1.59601">
        <ele>18.698954</ele>
        <time>2015-06-03T12:07:06Z</time>
      </trkpt>
      <trkpt lat="49.0861" lon="-1.5961">
        <ele>18.698954</ele>
        <time>2015-06-03T12:07:11Z</time>
      </trkpt>
      <trkpt lat="49.08608" lon="-1.59621">
        <ele>18.62698</ele>
        <time>2015-06-03T12:07:16Z</time>
      </trkpt>
      <trkpt lat="49.08605" lon="-1.59629">
        <ele>18.62698</ele>
        <time>2015-06-03T12:07:21Z</time>
      </trkpt>
      <trkpt lat="49.08602" lon="-1.59638">
        <ele>18.636574</ele>
        <time>2015-06-03T12:07:26Z</time>
      </trkpt>
      <trkpt lat="49.086" lon="-1.59649">
        <ele>18.636574</ele>
        <time>2015-06-03T12:07:31Z</time>
      </trkpt>
      <trkpt lat="49.08599" lon="-1.59657">
        <ele>18.635061</ele>
        <time>2015-06-03T12:07:36Z</time>
      </trkpt>
      <trkpt lat="49.08596" lon="-1.59663">
        <ele>18.635061</ele>
        <time>2015-06-03T12:07:41Z</time>
      </trkpt>
      <trkpt lat="49.08594" lon="-1.5967">
        <ele>18.594255</ele>
        <time>2015-06-03T12:07:46Z</time>
      </trkpt>
      <trkpt lat="49.08592" lon="-1.59683">
        <ele>18.594255</ele>
        <time>2015-06-03T12:07:51Z</time>
      </trkpt>
      <trkpt lat="49.08592" lon="-1.59694">
        <ele>18.545794</ele>
        <time>2015-06-03T12:07:56Z</time>
      </trkpt>
      <trkpt lat="49.08591" lon="-1.597">
        <ele>18.545794</ele>
        <time>2015-06-03T12:08:01Z</time>
      </trkpt>
      <trkpt lat="49.0859" lon="-1.59708">
        <ele>18.533426</ele>
        <time>2015-06-03T12:08:06Z</time>
      </trkpt>
      <trkpt lat="49.08588" lon="-1.59717">
        <ele>18.533426</ele>
        <time>2015-06-03T12:08:11Z</time>
      </trkpt>
      <trkpt lat="49.08587" lon="-1.59724">
        <ele>18.496714</ele>
        <time>2015-06-03T12:08:16Z</time>
      </trkpt>
      <trkpt lat="49.08588" lon="-1.59729">
        <ele>18.496714</ele>
        <time>2015-06-03T12:08:21Z</time>
      </trkpt>
      <trkpt lat="49.08588" lon="-1.59729">
        <ele>18.496714</ele>
        <time>2015-06-03T12:08:26Z</time>
      </trkpt>
      <trkpt lat="49.08588" lon="-1.5973">
        <ele>18.496714</ele>
        <time>2015-06-03T12:08:31Z</time>
      </trkpt>
      <trkpt lat="49.08588" lon="-1.59731">
        <ele>18.496714</ele>
        <time>2015-06-03T12:08:36Z</time>
      </trkpt>
      <trkpt lat="49.08587" lon="-1.59731">
        <ele>18.496714</ele>
        <time>2015-06-03T12:08:41Z</time>
      </trkpt>
      <trkpt lat="49.08587" lon="-1.59731">
        <ele>18.496714</ele>
        <time>2015-06-03T12:08:46Z</time>
      </trkpt>
      <trkpt lat="49.08587" lon="-1.59731">
        <ele>18.496714</ele>
        <time>2015-06-03T12:08:51Z</time>
      </trkpt>
      <trkpt lat="49.08587" lon="-1.59731">
        <ele>18.496714</ele>
        <time>2015-06-03T12:08:56Z</time>
      </trkpt>
      <trkpt lat="49.08589" lon="-1.59732">
        <ele>18.379726</ele>
        <time>2015-06-03T12:09:01Z</time>
      </trkpt>
      <trkpt lat="49.08588" lon="-1.59735">
        <ele>18.379726</ele>
        <time>2015-06-03T12:09:06Z</time>
      </trkpt>
      <trkpt lat="49.08587" lon="-1.59734">
        <ele>18.379726</ele>
        <time>2015-06-03T12:09:11Z</time>
      </trkpt>
      <trkpt lat="49.08588" lon="-1.59732">
        <ele>18.379726</ele>
        <time>2015-06-03T12:09:16Z</time>
      </trkpt>
      <trkpt lat="49.08589" lon="-1.59728">
        <ele>18.379726</ele>
        <time>2015-06-03T12:09:21Z</time>
      </trkpt>
      <trkpt lat="49.0859" lon="-1.59729">
        <ele>18.379726</ele>
        <time>2015-06-03T12:09:26Z</time>
      </trkpt>
      <trkpt lat="49.08588" lon="-1.59729">
        <ele>18.303806</ele>
        <time>2015-06-03T12:09:31Z</time>
      </trkpt>
      <trkpt lat="49.08588" lon="-1.59731">
        <ele>18.303806</ele>
        <time>2015-06-03T12:09:36Z</time>
      </trkpt>
      <trkpt lat="49.08586" lon="-1.59744">
        <ele>18.237156</ele>
        <time>2015-06-03T12:09:41Z</time>
      </trkpt>
      <trkpt lat="49.08584" lon="-1.59752">
        <ele>18.237156</ele>
        <time>2015-06-03T12:09:46Z</time>
      </trkpt>
      <trkpt lat="49.08583" lon="-1.5976">
        <ele>18.236755</ele>
        <time>2015-06-03T12:09:51Z</time>
      </trkpt>
      <trkpt lat="49.08581" lon="-1.59771">
        <ele>18.236755</ele>
        <time>2015-06-03T12:09:56Z</time>
      </trkpt>
      <trkpt lat="49.08581" lon="-1.5978">
        <ele>18.283163</ele>
        <time>2015-06-03T12:10:01Z</time>
      </trkpt>
      <trkpt lat="49.0858" lon="-1.5979">
        <ele>18.283163</ele>
        <time>2015-06-03T12:10:06Z</time>
      </trkpt>
      <trkpt lat="49.08578" lon="-1.59801">
        <ele>18.257355</ele>
        <time>2015-06-03T12:10:11Z</time>
      </trkpt>
      <trkpt lat="49.08576" lon="-1.59811">
        <ele>18.257355</ele>
        <time>2015-06-03T12:10:16Z</time>
      </trkpt>
      <trkpt lat="49.08573" lon="-1.59822">
        <ele>18.164545</ele>
        <time>2015-06-03T12:10:21Z</time>
      </trkpt>
      <trkpt lat="49.08573" lon="-1.59831">
        <ele>18.164545</ele>
        <time>2015-06-03T12:10:26Z</time>
      </trkpt>
      <trkpt lat="49.08572" lon="-1.59838">
        <ele>17.995344</ele>
        <time>2015-06-03T12:10:31Z</time>
      </trkpt>
      <trkpt lat="49.08571" lon="-1.59844">
        <ele>17.995344</ele>
        <time>2015-06-03T12:10:36Z</time>
      </trkpt>
      <trkpt lat="49.08571" lon="-1.59855">
        <ele>17.669216</ele>
        <time>2015-06-03T12:10:41Z</time>
      </trkpt>
      <trkpt lat="49.08571" lon="-1.59864">
        <ele>17.669216</ele>
        <time>2015-06-03T12:10:46Z</time>
      </trkpt>
      <trkpt lat="49.0857" lon="-1.59873">
        <ele>17.328142</ele>
        <time>2015-06-03T12:10:51Z</time>
      </trkpt>
      <trkpt lat="49.08569" lon="-1.59889">
        <ele>17.046076</ele>
        <time>2015-06-03T12:10:56Z</time>
      </trkpt>
      <trkpt lat="49.08567" lon="-1.599">
        <ele>17.046076</ele>
        <time>2015-06-03T12:11:01Z</time>
      </trkpt>
      <trkpt lat="49.08565" lon="-1.59912">
        <ele>16.790485</ele>
        <time>2015-06-03T12:11:06Z</time>
      </trkpt>
      <trkpt lat="49.08564" lon="-1.59921">
        <ele>16.790485</ele>
        <time>2015-06-03T12:11:11Z</time>
      </trkpt>
      <trkpt lat="49.08563" lon="-1.59932">
        <ele>16.57439</ele>
        <time>2015-06-03T12:11:16Z</time>
      </trkpt>
      <trkpt lat="49.08562" lon="-1.59942">
        <ele>16.57439</ele>
        <time>2015-06-03T12:11:21Z</time>
      </trkpt>
      <trkpt lat="49.08561" lon="-1.59953">
        <ele>16.39532</ele>
        <time>2015-06-03T12:11:26Z</time>
      </trkpt>
      <trkpt lat="49.0856" lon="-1.59966">
        <ele>16.39532</ele>
        <time>2015-06-03T12:11:31Z</time>
      </trkpt>
      <trkpt lat="49.08559" lon="-1.59973">
        <ele>16.279701</ele>
        <time>2015-06-03T12:11:36Z</time>
      </trkpt>
      <trkpt lat="49.08558" lon="-1.59983">
        <ele>16.279701</ele>
        <time>2015-06-03T12:11:41Z</time>
      </trkpt>
      <trkpt lat="49.08556" lon="-1.59993">
        <ele>16.165361</ele>
        <time>2015-06-03T12:11:46Z</time>
      </trkpt>
      <trkpt lat="49.08555" lon="-1.60001">
        <ele>16.165361</ele>
        <time>2015-06-03T12:11:51Z</time>
      </trkpt>
      <trkpt lat="49.08553" lon="-1.60011">
        <ele>16.037924</ele>
        <time>2015-06-03T12:11:56Z</time>
      </trkpt>
      <trkpt lat="49.08552" lon="-1.60022">
        <ele>16.037924</ele>
        <time>2015-06-03T12:12:01Z</time>
      </trkpt>
      <trkpt lat="49.0855" lon="-1.60032">
        <ele>15.912917</ele>
        <time>2015-06-03T12:12:06Z</time>
      </trkpt>
      <trkpt lat="49.08549" lon="-1.60042">
        <ele>15.912917</ele>
        <time>2015-06-03T12:12:11Z</time>
      </trkpt>
      <trkpt lat="49.08549" lon="-1.60053">
        <ele>15.790302</ele>
        <time>2015-06-03T12:12:16Z</time>
      </trkpt>
      <trkpt lat="49.08548" lon="-1.60062">
        <ele>15.790302</ele>
        <time>2015-06-03T12:12:21Z</time>
      </trkpt>
      <trkpt lat="49.08547" lon="-1.60071">
        <ele>15.742087</ele>
        <time>2015-06-03T12:12:26Z</time>
      </trkpt>
      <trkpt lat="49.08547" lon="-1.60079">
        <ele>15.742087</ele>
        <time>2015-06-03T12:12:31Z</time>
      </trkpt>
      <trkpt lat="49.08546" lon="-1.60087">
        <ele>15.690663</ele>
        <time>2015-06-03T12:12:36Z</time>
      </trkpt>
      <trkpt lat="49.08545" lon="-1.60097">
        <ele>15.690663</ele>
        <time>2015-06-03T12:12:41Z</time>
      </trkpt>
      <trkpt lat="49.08544" lon="-1.60101">
        <ele>15.679415</ele>
        <time>2015-06-03T12:12:46Z</time>
      </trkpt>
      <trkpt lat="49.08543" lon="-1.601">
        <ele>15.679415</ele>
        <time>2015-06-03T12:12:51Z</time>
      </trkpt>
      <trkpt lat="49.08545" lon="-1.60101">
        <ele>15.679415</ele>
        <time>2015-06-03T12:12:56Z</time>
      </trkpt>
      <trkpt lat="49.08544" lon="-1.60104">
        <ele>15.679415</ele>
        <time>2015-06-03T12:13:01Z</time>
      </trkpt>
      <trkpt lat="49.08543" lon="-1.60106">
        <ele>15.679415</ele>
        <time>2015-06-03T12:13:06Z</time>
      </trkpt>
      <trkpt lat="49.08543" lon="-1.60106">
        <ele>15.679415</ele>
        <time>2015-06-03T12:13:11Z</time>
      </trkpt>
      <trkpt lat="49.08543" lon="-1.60106">
        <ele>15.679415</ele>
        <time>2015-06-03T12:13:16Z</time>
      </trkpt>
      <trkpt lat="49.08543" lon="-1.60107">
        <ele>15.679415</ele>
        <time>2015-06-03T12:13:21Z</time>
      </trkpt>
      <trkpt lat="49.08543" lon="-1.6011">
        <ele>15.661954</ele>
        <time>2015-06-03T12:13:26Z</time>
      </trkpt>
      <trkpt lat="49.08543" lon="-1.60112">
        <ele>15.661954</ele>
        <time>2015-06-03T12:13:31Z</time>
      </trkpt>
      <trkpt lat="49.08544" lon="-1.60119">
        <ele>15.661954</ele>
        <time>2015-06-03T12:13:36Z</time>
      </trkpt>
      <trkpt lat="49.08544" lon="-1.60126">
        <ele>15.710604</ele>
        <time>2015-06-03T12:13:41Z</time>
      </trkpt>
      <trkpt lat="49.08544" lon="-1.60133">
        <ele>15.710604</ele>
        <time>2015-06-03T12:13:46Z</time>
      </trkpt>
      <trkpt lat="49.08546" lon="-1.60143">
        <ele>15.776895</ele>
        <time>2015-06-03T12:13:51Z</time>
      </trkpt>
      <trkpt lat="49.08546" lon="-1.60153">
        <ele>15.776895</ele>
        <time>2015-06-03T12:13:56Z</time>
      </trkpt>
      <trkpt lat="49.08547" lon="-1.60162">
        <ele>15.830279</ele>
        <time>2015-06-03T12:14:01Z</time>
      </trkpt>
      <trkpt lat="49.08548" lon="-1.60172">
        <ele>15.830279</ele>
        <time>2015-06-03T12:14:06Z</time>
      </trkpt>
      <trkpt lat="49.08548" lon="-1.60182">
        <ele>15.871311</ele>
        <time>2015-06-03T12:14:11Z</time>
      </trkpt>
      <trkpt lat="49.08548" lon="-1.60192">
        <ele>15.871311</ele>
        <time>2015-06-03T12:14:16Z</time>
      </trkpt>
      <trkpt lat="49.08548" lon="-1.602">
        <ele>15.8573065</ele>
        <time>2015-06-03T12:14:21Z</time>
      </trkpt>
      <trkpt lat="49.08548" lon="-1.6021">
        <ele>15.8573065</ele>
        <time>2015-06-03T12:14:26Z</time>
      </trkpt>
      <trkpt lat="49.08549" lon="-1.60215">
        <ele>15.835336</ele>
        <time>2015-06-03T12:14:31Z</time>
      </trkpt>
      <trkpt lat="49.08548" lon="-1.60224">
        <ele>15.835336</ele>
        <time>2015-06-03T12:14:36Z</time>
      </trkpt>
      <trkpt lat="49.08549" lon="-1.60234">
        <ele>15.791394</ele>
        <time>2015-06-03T12:14:41Z</time>
      </trkpt>
      <trkpt lat="49.0855" lon="-1.60243">
        <ele>15.791394</ele>
        <time>2015-06-03T12:14:46Z</time>
      </trkpt>
      <trkpt lat="49.08551" lon="-1.60253">
        <ele>15.813449</ele>
        <time>2015-06-03T12:14:51Z</time>
      </trkpt>
      <trkpt lat="49.08552" lon="-1.60259">
        <ele>15.813449</ele>
        <time>2015-06-03T12:14:56Z</time>
      </trkpt>
      <trkpt lat="49.08553" lon="-1.60267">
        <ele>15.809885</ele>
        <time>2015-06-03T12:15:01Z</time>
      </trkpt>
      <trkpt lat="49.08554" lon="-1.60276">
        <ele>15.809885</ele>
        <time>2015-06-03T12:15:06Z</time>
      </trkpt>
      <trkpt lat="49.08554" lon="-1.60285">
        <ele>15.868832</ele>
        <time>2015-06-03T12:15:11Z</time>
      </trkpt>
      <trkpt lat="49.08555" lon="-1.60292">
        <ele>15.868832</ele>
        <time>2015-06-03T12:15:16Z</time>
      </trkpt>
      <trkpt lat="49.08554" lon="-1.603">
        <ele>15.927658</ele>
        <time>2015-06-03T12:15:21Z</time>
      </trkpt>
      <trkpt lat="49.08555" lon="-1.6031">
        <ele>15.927658</ele>
        <time>2015-06-03T12:15:26Z</time>
      </trkpt>
      <trkpt lat="49.08555" lon="-1.60319">
        <ele>15.985984</ele>
        <time>2015-06-03T12:15:31Z</time>
      </trkpt>
      <trkpt lat="49.08555" lon="-1.60327">
        <ele>15.985984</ele>
        <time>2015-06-03T12:15:36Z</time>
      </trkpt>
      <trkpt lat="49.08556" lon="-1.60336">
        <ele>15.985822</ele>
        <time>2015-06-03T12:15:41Z</time>
      </trkpt>
      <trkpt lat="49.08558" lon="-1.60346">
        <ele>15.985822</ele>
        <time>2015-06-03T12:15:46Z</time>
      </trkpt>
      <trkpt lat="49.08558" lon="-1.60355">
        <ele>15.945665</ele>
        <time>2015-06-03T12:15:51Z</time>
      </trkpt>
      <trkpt lat="49.08558" lon="-1.60365">
        <ele>15.945665</ele>
        <time>2015-06-03T12:15:56Z</time>
      </trkpt>
      <trkpt lat="49.08559" lon="-1.60373">
        <ele>15.911594</ele>
        <time>2015-06-03T12:16:01Z</time>
      </trkpt>
      <trkpt lat="49.08559" lon="-1.60383">
        <ele>15.911594</ele>
        <time>2015-06-03T12:16:06Z</time>
      </trkpt>
      <trkpt lat="49.08559" lon="-1.6039">
        <ele>15.854235</ele>
        <time>2015-06-03T12:16:11Z</time>
      </trkpt>
      <trkpt lat="49.0856" lon="-1.604">
        <ele>15.854235</ele>
        <time>2015-06-03T12:16:16Z</time>
      </trkpt>
      <trkpt lat="49.08561" lon="-1.60409">
        <ele>15.861731</ele>
        <time>2015-06-03T12:16:21Z</time>
      </trkpt>
      <trkpt lat="49.08561" lon="-1.60417">
        <ele>15.861731</ele>
        <time>2015-06-03T12:16:26Z</time>
      </trkpt>
      <trkpt lat="49.08561" lon="-1.60426">
        <ele>15.871466</ele>
        <time>2015-06-03T12:16:31Z</time>
      </trkpt>
      <trkpt lat="49.0856" lon="-1.60435">
        <ele>15.871466</ele>
        <time>2015-06-03T12:16:36Z</time>
      </trkpt>
      <trkpt lat="49.08559" lon="-1.60444">
        <ele>15.883065</ele>
        <time>2015-06-03T12:16:41Z</time>
      </trkpt>
      <trkpt lat="49.0856" lon="-1.60452">
        <ele>15.883065</ele>
        <time>2015-06-03T12:16:46Z</time>
      </trkpt>
      <trkpt lat="49.08559" lon="-1.60461">
        <ele>15.896185</ele>
        <time>2015-06-03T12:16:51Z</time>
      </trkpt>
      <trkpt lat="49.08558" lon="-1.60471">
        <ele>15.896185</ele>
        <time>2015-06-03T12:16:56Z</time>
      </trkpt>
      <trkpt lat="49.08557" lon="-1.60481">
        <ele>15.881683</ele>
        <time>2015-06-03T12:17:01Z</time>
      </trkpt>
      <trkpt lat="49.08556" lon="-1.60491">
        <ele>15.881683</ele>
        <time>2015-06-03T12:17:06Z</time>
      </trkpt>
      <trkpt lat="49.08555" lon="-1.60498">
        <ele>15.899114</ele>
        <time>2015-06-03T12:17:11Z</time>
      </trkpt>
      <trkpt lat="49.08555" lon="-1.60508">
        <ele>15.899114</ele>
        <time>2015-06-03T12:17:16Z</time>
      </trkpt>
      <trkpt lat="49.08555" lon="-1.60517">
        <ele>15.989156</ele>
        <time>2015-06-03T12:17:21Z</time>
      </trkpt>
      <trkpt lat="49.08555" lon="-1.60527">
        <ele>15.989156</ele>
        <time>2015-06-03T12:17:26Z</time>
      </trkpt>
      <trkpt lat="49.08555" lon="-1.60535">
        <ele>16.10284</ele>
        <time>2015-06-03T12:17:31Z</time>
      </trkpt>
      <trkpt lat="49.08554" lon="-1.60543">
        <ele>16.10284</ele>
        <time>2015-06-03T12:17:36Z</time>
      </trkpt>
      <trkpt lat="49.08552" lon="-1.6055">
        <ele>16.194736</ele>
        <time>2015-06-03T12:17:41Z</time>
      </trkpt>
      <trkpt lat="49.0855" lon="-1.60559">
        <ele>16.194736</ele>
        <time>2015-06-03T12:17:46Z</time>
      </trkpt>
      <trkpt lat="49.08549" lon="-1.6057">
        <ele>16.266052</ele>
        <time>2015-06-03T12:17:51Z</time>
      </trkpt>
      <trkpt lat="49.08549" lon="-1.60578">
        <ele>16.266052</ele>
        <time>2015-06-03T12:17:56Z</time>
      </trkpt>
      <trkpt lat="49.08549" lon="-1.60586">
        <ele>16.361204</ele>
        <time>2015-06-03T12:18:01Z</time>
      </trkpt>
      <trkpt lat="49.08549" lon="-1.60589">
        <ele>16.361204</ele>
        <time>2015-06-03T12:18:06Z</time>
      </trkpt>
      <trkpt lat="49.0855" lon="-1.60589">
        <ele>16.361204</ele>
        <time>2015-06-03T12:18:11Z</time>
      </trkpt>
      <trkpt lat="49.0855" lon="-1.60589">
        <ele>16.361204</ele>
        <time>2015-06-03T12:18:16Z</time>
      </trkpt>
      <trkpt lat="49.0855" lon="-1.60589">
        <ele>16.361204</ele>
        <time>2015-06-03T12:18:21Z</time>
      </trkpt>
      <trkpt lat="49.08549" lon="-1.60592">
        <ele>16.361204</ele>
        <time>2015-06-03T12:18:26Z</time>
      </trkpt>
      <trkpt lat="49.0855" lon="-1.60592">
        <ele>16.361204</ele>
        <time>2015-06-03T12:18:31Z</time>
      </trkpt>
      <trkpt lat="49.08551" lon="-1.60593">
        <ele>16.361204</ele>
        <time>2015-06-03T12:18:36Z</time>
      </trkpt>
      <trkpt lat="49.08552" lon="-1.60591">
        <ele>16.361204</ele>
        <time>2015-06-03T12:18:41Z</time>
      </trkpt>
      <trkpt lat="49.08553" lon="-1.60591">
        <ele>16.361204</ele>
        <time>2015-06-03T12:18:46Z</time>
      </trkpt>
      <trkpt lat="49.08552" lon="-1.60596">
        <ele>16.492472</ele>
        <time>2015-06-03T12:18:51Z</time>
      </trkpt>
      <trkpt lat="49.08551" lon="-1.60603">
        <ele>16.492472</ele>
        <time>2015-06-03T12:18:56Z</time>
      </trkpt>
      <trkpt lat="49.0855" lon="-1.6061">
        <ele>16.656723</ele>
        <time>2015-06-03T12:19:01Z</time>
      </trkpt>
      <trkpt lat="49.0855" lon="-1.60617">
        <ele>16.656723</ele>
        <time>2015-06-03T12:19:06Z</time>
      </trkpt>
      <trkpt lat="49.0855" lon="-1.60624">
        <ele>16.865389</ele>
        <time>2015-06-03T12:19:11Z</time>
      </trkpt>
      <trkpt lat="49.0855" lon="-1.60632">
        <ele>16.865389</ele>
        <time>2015-06-03T12:19:16Z</time>
      </trkpt>
      <trkpt lat="49.08549" lon="-1.6064">
        <ele>17.143358</ele>
        <time>2015-06-03T12:19:21Z</time>
      </trkpt>
      <trkpt lat="49.08549" lon="-1.60648">
        <ele>17.143358</ele>
        <time>2015-06-03T12:19:26Z</time>
      </trkpt>
      <trkpt lat="49.08548" lon="-1.60655">
        <ele>17.42704</ele>
        <time>2015-06-03T12:19:31Z</time>
      </trkpt>
      <trkpt lat="49.08548" lon="-1.60661">
        <ele>17.42704</ele>
        <time>2015-06-03T12:19:36Z</time>
      </trkpt>
      <trkpt lat="49.08548" lon="-1.60668">
        <ele>17.42704</ele>
        <time>2015-06-03T12:19:41Z</time>
      </trkpt>
      <trkpt lat="49.08548" lon="-1.60674">
        <ele>17.729574</ele>
        <time>2015-06-03T12:19:46Z</time>
      </trkpt>
      <trkpt lat="49.08548" lon="-1.60678">
        <ele>17.729574</ele>
        <time>2015-06-03T12:19:51Z</time>
      </trkpt>
      <trkpt lat="49.08548" lon="-1.60685">
        <ele>17.729574</ele>
        <time>2015-06-03T12:19:56Z</time>
      </trkpt>
      <trkpt lat="49.08547" lon="-1.60691">
        <ele>18.063091</ele>
        <time>2015-06-03T12:20:01Z</time>
      </trkpt>
      <trkpt lat="49.08545" lon="-1.60701">
        <ele>18.063091</ele>
        <time>2015-06-03T12:20:06Z</time>
      </trkpt>
      <trkpt lat="49.08544" lon="-1.60707">
        <ele>18.39553</ele>
        <time>2015-06-03T12:20:11Z</time>
      </trkpt>
      <trkpt lat="49.08544" lon="-1.60717">
        <ele>18.39553</ele>
        <time>2015-06-03T12:20:16Z</time>
      </trkpt>
      <trkpt lat="49.08544" lon="-1.60726">
        <ele>18.783676</ele>
        <time>2015-06-03T12:20:21Z</time>
      </trkpt>
      <trkpt lat="49.08543" lon="-1.60734">
        <ele>18.783676</ele>
        <time>2015-06-03T12:20:26Z</time>
      </trkpt>
      <trkpt lat="49.08542" lon="-1.60743">
        <ele>19.179125</ele>
        <time>2015-06-03T12:20:31Z</time>
      </trkpt>
      <trkpt lat="49.08543" lon="-1.60751">
        <ele>19.179125</ele>
        <time>2015-06-03T12:20:36Z</time>
      </trkpt>
      <trkpt lat="49.08542" lon="-1.60759">
        <ele>19.508207</ele>
        <time>2015-06-03T12:20:41Z</time>
      </trkpt>
      <trkpt lat="49.08542" lon="-1.6077">
        <ele>19.508207</ele>
        <time>2015-06-03T12:20:46Z</time>
      </trkpt>
      <trkpt lat="49.08542" lon="-1.60776">
        <ele>19.746109</ele>
        <time>2015-06-03T12:20:51Z</time>
      </trkpt>
      <trkpt lat="49.08543" lon="-1.60784">
        <ele>19.746109</ele>
        <time>2015-06-03T12:20:56Z</time>
      </trkpt>
      <trkpt lat="49.08542" lon="-1.60794">
        <ele>19.942175</ele>
        <time>2015-06-03T12:21:01Z</time>
      </trkpt>
      <trkpt lat="49.08542" lon="-1.60801">
        <ele>19.942175</ele>
        <time>2015-06-03T12:21:06Z</time>
      </trkpt>
      <trkpt lat="49.08543" lon="-1.60808">
        <ele>20.055798</ele>
        <time>2015-06-03T12:21:11Z</time>
      </trkpt>
      <trkpt lat="49.08542" lon="-1.60811">
        <ele>20.055798</ele>
        <time>2015-06-03T12:21:16Z</time>
      </trkpt>
      <trkpt lat="49.08541" lon="-1.60816">
        <ele>20.055798</ele>
        <time>2015-06-03T12:21:21Z</time>
      </trkpt>
      <trkpt lat="49.0854" lon="-1.60823">
        <ele>20.121664</ele>
        <time>2015-06-03T12:21:26Z</time>
      </trkpt>
      <trkpt lat="49.08536" lon="-1.60828">
        <ele>20.121664</ele>
        <time>2015-06-03T12:21:31Z</time>
      </trkpt>
      <trkpt lat="49.08528" lon="-1.60832">
        <ele>20.157654</ele>
        <time>2015-06-03T12:21:36Z</time>
      </trkpt>
      <trkpt lat="49.08524" lon="-1.60833">
        <ele>20.157654</ele>
        <time>2015-06-03T12:21:41Z</time>
      </trkpt>
      <trkpt lat="49.0852" lon="-1.60835">
        <ele>20.157654</ele>
        <time>2015-06-03T12:21:46Z</time>
      </trkpt>
      <trkpt lat="49.08515" lon="-1.60837">
        <ele>20.122799</ele>
        <time>2015-06-03T12:21:51Z</time>
      </trkpt>
      <trkpt lat="49.08511" lon="-1.60839">
        <ele>20.122799</ele>
        <time>2015-06-03T12:21:56Z</time>
      </trkpt>
      <trkpt lat="49.08508" lon="-1.60841">
        <ele>20.122799</ele>
        <time>2015-06-03T12:22:01Z</time>
      </trkpt>
      <trkpt lat="49.08505" lon="-1.60843">
        <ele>20.022587</ele>
        <time>2015-06-03T12:22:06Z</time>
      </trkpt>
      <trkpt lat="49.08505" lon="-1.60844">
        <ele>20.022587</ele>
        <time>2015-06-03T12:22:11Z</time>
      </trkpt>
      <trkpt lat="49.08505" lon="-1.60849">
        <ele>20.022587</ele>
        <time>2015-06-03T12:22:16Z</time>
      </trkpt>
      <trkpt lat="49.08504" lon="-1.60853">
        <ele>20.022587</ele>
        <time>2015-06-03T12:22:21Z</time>
      </trkpt>
      <trkpt lat="49.08501" lon="-1.60859">
        <ele>19.718193</ele>
        <time>2015-06-03T12:22:26Z</time>
      </trkpt>
      <trkpt lat="49.08497" lon="-1.60863">
        <ele>19.718193</ele>
        <time>2015-06-03T12:22:31Z</time>
      </trkpt>
      <trkpt lat="49.08495" lon="-1.60866">
        <ele>19.718193</ele>
        <time>2015-06-03T12:22:36Z</time>
      </trkpt>
      <trkpt lat="49.08492" lon="-1.60868">
        <ele>19.355387</ele>
        <time>2015-06-03T12:22:41Z</time>
      </trkpt>
      <trkpt lat="49.08491" lon="-1.60867">
        <ele>19.355387</ele>
        <time>2015-06-03T12:22:46Z</time>
      </trkpt>
      <trkpt lat="49.0849" lon="-1.60868">
        <ele>19.355387</ele>
        <time>2015-06-03T12:22:51Z</time>
      </trkpt>
      <trkpt lat="49.08489" lon="-1.60868">
        <ele>19.355387</ele>
        <time>2015-06-03T12:22:56Z</time>
      </trkpt>
      <trkpt lat="49.08488" lon="-1.60868">
        <ele>19.355387</ele>
        <time>2015-06-03T12:23:01Z</time>
      </trkpt>
      <trkpt lat="49.08489" lon="-1.60868">
        <ele>19.355387</ele>
        <time>2015-06-03T12:23:06Z</time>
      </trkpt>
      <trkpt lat="49.0849" lon="-1.60868">
        <ele>19.355387</ele>
        <time>2015-06-03T12:23:11Z</time>
      </trkpt>
      <trkpt lat="49.0849" lon="-1.60867">
        <ele>19.355387</ele>
        <time>2015-06-03T12:23:16Z</time>
      </trkpt>
      <trkpt lat="49.08491" lon="-1.60866">
        <ele>19.355387</ele>
        <time>2015-06-03T12:23:21Z</time>
      </trkpt>
      <trkpt lat="49.08491" lon="-1.60868">
        <ele>19.355387</ele>
        <time>2015-06-03T12:23:26Z</time>
      </trkpt>
      <trkpt lat="49.08492" lon="-1.60869">
        <ele>18.824413</ele>
        <time>2015-06-03T12:23:31Z</time>
      </trkpt>
      <trkpt lat="49.08489" lon="-1.60873">
        <ele>18.824413</ele>
        <time>2015-06-03T12:23:36Z</time>
      </trkpt>
      <trkpt lat="49.08483" lon="-1.60882">
        <ele>18.312279</ele>
        <time>2015-06-03T12:23:41Z</time>
      </trkpt>
      <trkpt lat="49.08478" lon="-1.60888">
        <ele>18.312279</ele>
        <time>2015-06-03T12:23:46Z</time>
      </trkpt>
      <trkpt lat="49.08473" lon="-1.60893">
        <ele>17.89132</ele>
        <time>2015-06-03T12:23:51Z</time>
      </trkpt>
      <trkpt lat="49.08468" lon="-1.60894">
        <ele>17.89132</ele>
        <time>2015-06-03T12:23:56Z</time>
      </trkpt>
      <trkpt lat="49.08463" lon="-1.60894">
        <ele>17.570658</ele>
        <time>2015-06-03T12:24:01Z</time>
      </trkpt>
      <trkpt lat="49.08459" lon="-1.60897">
        <ele>17.570658</ele>
        <time>2015-06-03T12:24:06Z</time>
      </trkpt>
      <trkpt lat="49.08456" lon="-1.60901">
        <ele>17.570658</ele>
        <time>2015-06-03T12:24:11Z</time>
      </trkpt>
      <trkpt lat="49.08452" lon="-1.60905">
        <ele>17.257572</ele>
        <time>2015-06-03T12:24:16Z</time>
      </trkpt>
      <trkpt lat="49.08448" lon="-1.6091">
        <ele>17.257572</ele>
        <time>2015-06-03T12:24:21Z</time>
      </trkpt>
      <trkpt lat="49.08445" lon="-1.60916">
        <ele>17.039059</ele>
        <time>2015-06-03T12:24:26Z</time>
      </trkpt>
      <trkpt lat="49.0844" lon="-1.60921">
        <ele>17.039059</ele>
        <time>2015-06-03T12:24:31Z</time>
      </trkpt>
      <trkpt lat="49.08435" lon="-1.60925">
        <ele>16.865742</ele>
        <time>2015-06-03T12:24:36Z</time>
      </trkpt>
      <trkpt lat="49.08432" lon="-1.60931">
        <ele>16.865742</ele>
        <time>2015-06-03T12:24:41Z</time>
      </trkpt>
      <trkpt lat="49.08427" lon="-1.6094">
        <ele>16.749372</ele>
        <time>2015-06-03T12:24:46Z</time>
      </trkpt>
      <trkpt lat="49.08421" lon="-1.60945">
        <ele>16.749372</ele>
        <time>2015-06-03T12:24:51Z</time>
      </trkpt>
      <trkpt lat="49.08419" lon="-1.6095">
        <ele>16.700668</ele>
        <time>2015-06-03T12:24:56Z</time>
      </trkpt>
      <trkpt lat="49.08414" lon="-1.60954">
        <ele>16.700668</ele>
        <time>2015-06-03T12:25:01Z</time>
      </trkpt>
      <trkpt lat="49.08413" lon="-1.60955">
        <ele>16.700668</ele>
        <time>2015-06-03T12:25:06Z</time>
      </trkpt>
      <trkpt lat="49.08412" lon="-1.60953">
        <ele>16.700668</ele>
        <time>2015-06-03T12:25:11Z</time>
      </trkpt>
      <trkpt lat="49.08414" lon="-1.60951">
        <ele>16.700525</ele>
        <time>2015-06-03T12:25:16Z</time>
      </trkpt>
      <trkpt lat="49.08414" lon="-1.6095">
        <ele>16.700525</ele>
        <time>2015-06-03T12:25:21Z</time>
      </trkpt>
      <trkpt lat="49.08411" lon="-1.60953">
        <ele>16.700525</ele>
        <time>2015-06-03T12:25:26Z</time>
      </trkpt>
      <trkpt lat="49.08409" lon="-1.60957">
        <ele>16.700525</ele>
        <time>2015-06-03T12:25:31Z</time>
      </trkpt>
      <trkpt lat="49.08409" lon="-1.60958">
        <ele>16.700525</ele>
        <time>2015-06-03T12:25:36Z</time>
      </trkpt>
      <trkpt lat="49.08408" lon="-1.60959">
        <ele>16.65904</ele>
        <time>2015-06-03T12:25:41Z</time>
      </trkpt>
      <trkpt lat="49.08407" lon="-1.60959">
        <ele>16.65904</ele>
        <time>2015-06-03T12:25:46Z</time>
      </trkpt>
      <trkpt lat="49.08407" lon="-1.60962">
        <ele>16.65904</ele>
        <time>2015-06-03T12:25:51Z</time>
      </trkpt>
      <trkpt lat="49.08404" lon="-1.60966">
        <ele>16.65904</ele>
        <time>2015-06-03T12:25:56Z</time>
      </trkpt>
      <trkpt lat="49.08402" lon="-1.60969">
        <ele>16.694767</ele>
        <time>2015-06-03T12:26:01Z</time>
      </trkpt>
      <trkpt lat="49.08398" lon="-1.60972">
        <ele>16.694767</ele>
        <time>2015-06-03T12:26:06Z</time>
      </trkpt>
      <trkpt lat="49.08396" lon="-1.60975">
        <ele>16.694767</ele>
        <time>2015-06-03T12:26:11Z</time>
      </trkpt>
      <trkpt lat="49.08394" lon="-1.60977">
        <ele>16.816442</ele>
        <time>2015-06-03T12:26:16Z</time>
      </trkpt>
      <trkpt lat="49.08393" lon="-1.60976">
        <ele>16.816442</ele>
        <time>2015-06-03T12:26:21Z</time>
      </trkpt>
      <trkpt lat="49.08391" lon="-1.60976">
        <ele>16.816442</ele>
        <time>2015-06-03T12:26:26Z</time>
      </trkpt>
      <trkpt lat="49.0839" lon="-1.60977">
        <ele>16.816442</ele>
        <time>2015-06-03T12:26:31Z</time>
      </trkpt>
      <trkpt lat="49.08388" lon="-1.60978">
        <ele>16.816442</ele>
        <time>2015-06-03T12:26:36Z</time>
      </trkpt>
      <trkpt lat="49.08388" lon="-1.6098">
        <ele>16.816442</ele>
        <time>2015-06-03T12:26:41Z</time>
      </trkpt>
      <trkpt lat="49.08386" lon="-1.6098">
        <ele>17.017496</ele>
        <time>2015-06-03T12:26:46Z</time>
      </trkpt>
      <trkpt lat="49.08383" lon="-1.60982">
        <ele>17.017496</ele>
        <time>2015-06-03T12:26:51Z</time>
      </trkpt>
      <trkpt lat="49.08381" lon="-1.60985">
        <ele>17.017496</ele>
        <time>2015-06-03T12:26:56Z</time>
      </trkpt>
      <trkpt lat="49.0838" lon="-1.60987">
        <ele>17.017496</ele>
        <time>2015-06-03T12:27:01Z</time>
      </trkpt>
      <trkpt lat="49.0838" lon="-1.60987">
        <ele>17.017496</ele>
        <time>2015-06-03T12:27:06Z</time>
      </trkpt>
      <trkpt lat="49.08377" lon="-1.60987">
        <ele>17.378077</ele>
        <time>2015-06-03T12:27:11Z</time>
      </trkpt>
      <trkpt lat="49.08373" lon="-1.60987">
        <ele>17.378077</ele>
        <time>2015-06-03T12:27:16Z</time>
      </trkpt>
      <trkpt lat="49.08369" lon="-1.60989">
        <ele>17.378077</ele>
        <time>2015-06-03T12:27:21Z</time>
      </trkpt>
      <trkpt lat="49.08365" lon="-1.60991">
        <ele>17.741402</ele>
        <time>2015-06-03T12:27:26Z</time>
      </trkpt>
      <trkpt lat="49.08361" lon="-1.60992">
        <ele>17.741402</ele>
        <time>2015-06-03T12:27:31Z</time>
      </trkpt>
      <trkpt lat="49.08358" lon="-1.60995">
        <ele>17.741402</ele>
        <time>2015-06-03T12:27:36Z</time>
      </trkpt>
      <trkpt lat="49.08359" lon="-1.60996">
        <ele>17.741402</ele>
        <time>2015-06-03T12:27:41Z</time>
      </trkpt>
      <trkpt lat="49.0836" lon="-1.60998">
        <ele>18.091904</ele>
        <time>2015-06-03T12:27:46Z</time>
      </trkpt>
      <trkpt lat="49.0836" lon="-1.61003">
        <ele>18.091904</ele>
        <time>2015-06-03T12:27:51Z</time>
      </trkpt>
      <trkpt lat="49.08359" lon="-1.61003">
        <ele>18.091904</ele>
        <time>2015-06-03T12:27:56Z</time>
      </trkpt>
      <trkpt lat="49.08359" lon="-1.61004">
        <ele>18.091904</ele>
        <time>2015-06-03T12:28:01Z</time>
      </trkpt>
      <trkpt lat="49.08355" lon="-1.61002">
        <ele>18.091904</ele>
        <time>2015-06-03T12:28:06Z</time>
      </trkpt>
      <trkpt lat="49.08353" lon="-1.61001">
        <ele>18.458416</ele>
        <time>2015-06-03T12:28:11Z</time>
      </trkpt>
      <trkpt lat="49.08354" lon="-1.61001">
        <ele>18.458416</ele>
        <time>2015-06-03T12:28:16Z</time>
      </trkpt>
      <trkpt lat="49.08352" lon="-1.61">
        <ele>18.458416</ele>
        <time>2015-06-03T12:28:21Z</time>
      </trkpt>
      <trkpt lat="49.0835" lon="-1.60998">
        <ele>18.458416</ele>
        <time>2015-06-03T12:28:26Z</time>
      </trkpt>
      <trkpt lat="49.08345" lon="-1.60997">
        <ele>18.752327</ele>
        <time>2015-06-03T12:28:31Z</time>
      </trkpt>
      <trkpt lat="49.08339" lon="-1.60997">
        <ele>18.752327</ele>
        <time>2015-06-03T12:28:36Z</time>
      </trkpt>
      <trkpt lat="49.08335" lon="-1.60999">
        <ele>18.963789</ele>
        <time>2015-06-03T12:28:41Z</time>
      </trkpt>
      <trkpt lat="49.08331" lon="-1.61001">
        <ele>18.963789</ele>
        <time>2015-06-03T12:28:46Z</time>
      </trkpt>
      <trkpt lat="49.08326" lon="-1.61002">
        <ele>18.963789</ele>
        <time>2015-06-03T12:28:51Z</time>
      </trkpt>
      <trkpt lat="49.08321" lon="-1.61001">
        <ele>19.127155</ele>
        <time>2015-06-03T12:28:56Z</time>
      </trkpt>
      <trkpt lat="49.08316" lon="-1.61001">
        <ele>19.127155</ele>
        <time>2015-06-03T12:29:01Z</time>
      </trkpt>
      <trkpt lat="49.08312" lon="-1.60998">
        <ele>19.27439</ele>
        <time>2015-06-03T12:29:06Z</time>
      </trkpt>
      <trkpt lat="49.0831" lon="-1.60999">
        <ele>19.27439</ele>
        <time>2015-06-03T12:29:11Z</time>
      </trkpt>
      <trkpt lat="49.08307" lon="-1.61004">
        <ele>19.27439</ele>
        <time>2015-06-03T12:29:16Z</time>
      </trkpt>
      <trkpt lat="49.08305" lon="-1.61007">
        <ele>19.478397</ele>
        <time>2015-06-03T12:29:21Z</time>
      </trkpt>
      <trkpt lat="49.08301" lon="-1.6101">
        <ele>19.478397</ele>
        <time>2015-06-03T12:29:26Z</time>
      </trkpt>
      <trkpt lat="49.08296" lon="-1.61008">
        <ele>19.691288</ele>
        <time>2015-06-03T12:29:31Z</time>
      </trkpt>
      <trkpt lat="49.08293" lon="-1.61006">
        <ele>19.691288</ele>
        <time>2015-06-03T12:29:36Z</time>
      </trkpt>
      <trkpt lat="49.0829" lon="-1.61005">
        <ele>19.691288</ele>
        <time>2015-06-03T12:29:41Z</time>
      </trkpt>
      <trkpt lat="49.08285" lon="-1.6101">
        <ele>19.854261</ele>
        <time>2015-06-03T12:29:46Z</time>
      </trkpt>
      <trkpt lat="49.08282" lon="-1.61011">
        <ele>19.854261</ele>
        <time>2015-06-03T12:29:51Z</time>
      </trkpt>
      <trkpt lat="49.08277" lon="-1.6101">
        <ele>19.854261</ele>
        <time>2015-06-03T12:29:56Z</time>
      </trkpt>
      <trkpt lat="49.08274" lon="-1.61008">
        <ele>19.86975</ele>
        <time>2015-06-03T12:30:01Z</time>
      </trkpt>
      <trkpt lat="49.0827" lon="-1.61004">
        <ele>19.86975</ele>
        <time>2015-06-03T12:30:06Z</time>
      </trkpt>
      <trkpt lat="49.08269" lon="-1.61001">
        <ele>19.86975</ele>
        <time>2015-06-03T12:30:11Z</time>
      </trkpt>
      <trkpt lat="49.08267" lon="-1.61001">
        <ele>19.86975</ele>
        <time>2015-06-03T12:30:16Z</time>
      </trkpt>
      <trkpt lat="49.08266" lon="-1.61002">
        <ele>19.8063</ele>
        <time>2015-06-03T12:30:21Z</time>
      </trkpt>
      <trkpt lat="49.08265" lon="-1.61005">
        <ele>19.8063</ele>
        <time>2015-06-03T12:30:26Z</time>
      </trkpt>
      <trkpt lat="49.08261" lon="-1.61006">
        <ele>19.8063</ele>
        <time>2015-06-03T12:30:31Z</time>
      </trkpt>
      <trkpt lat="49.08259" lon="-1.61012">
        <ele>19.670008</ele>
        <time>2015-06-03T12:30:36Z</time>
      </trkpt>
      <trkpt lat="49.08255" lon="-1.61012">
        <ele>19.670008</ele>
        <time>2015-06-03T12:30:41Z</time>
      </trkpt>
      <trkpt lat="49.08251" lon="-1.61013">
        <ele>19.670008</ele>
        <time>2015-06-03T12:30:46Z</time>
      </trkpt>
      <trkpt lat="49.08251" lon="-1.6102">
        <ele>19.466734</ele>
        <time>2015-06-03T12:30:51Z</time>
      </trkpt>
      <trkpt lat="49.08252" lon="-1.61029">
        <ele>19.466734</ele>
        <time>2015-06-03T12:30:56Z</time>
      </trkpt>
      <trkpt lat="49.08252" lon="-1.61037">
        <ele>19.245333</ele>
        <time>2015-06-03T12:31:01Z</time>
      </trkpt>
      <trkpt lat="49.08252" lon="-1.61044">
        <ele>19.245333</ele>
        <time>2015-06-03T12:31:06Z</time>
      </trkpt>
      <trkpt lat="49.08251" lon="-1.6105">
        <ele>19.245333</ele>
        <time>2015-06-03T12:31:11Z</time>
      </trkpt>
      <trkpt lat="49.08251" lon="-1.61056">
        <ele>18.964657</ele>
        <time>2015-06-03T12:31:16Z</time>
      </trkpt>
      <trkpt lat="49.08251" lon="-1.61064">
        <ele>18.964657</ele>
        <time>2015-06-03T12:31:21Z</time>
      </trkpt>
      <trkpt lat="49.08251" lon="-1.61072">
        <ele>18.615572</ele>
        <time>2015-06-03T12:31:26Z</time>
      </trkpt>
      <trkpt lat="49.08251" lon="-1.61082">
        <ele>18.615572</ele>
        <time>2015-06-03T12:31:31Z</time>
      </trkpt>
      <trkpt lat="49.08251" lon="-1.6109">
        <ele>18.247444</ele>
        <time>2015-06-03T12:31:36Z</time>
      </trkpt>
      <trkpt lat="49.08251" lon="-1.61096">
        <ele>18.247444</ele>
        <time>2015-06-03T12:31:41Z</time>
      </trkpt>
      <trkpt lat="49.08251" lon="-1.61105">
        <ele>17.805187</ele>
        <time>2015-06-03T12:31:46Z</time>
      </trkpt>
      <trkpt lat="49.08251" lon="-1.6111">
        <ele>17.805187</ele>
        <time>2015-06-03T12:31:51Z</time>
      </trkpt>
      <trkpt lat="49.08251" lon="-1.61119">
        <ele>17.28119</ele>
        <time>2015-06-03T12:31:56Z</time>
      </trkpt>
      <trkpt lat="49.08251" lon="-1.61125">
        <ele>17.28119</ele>
        <time>2015-06-03T12:32:01Z</time>
      </trkpt>
      <trkpt lat="49.08249" lon="-1.61131">
        <ele>17.28119</ele>
        <time>2015-06-03T12:32:06Z</time>
      </trkpt>
      <trkpt lat="49.08243" lon="-1.61126">
        <ele>16.538921</ele>
        <time>2015-06-03T12:32:11Z</time>
      </trkpt>
      <trkpt lat="49.0824" lon="-1.6112">
        <ele>16.538921</ele>
        <time>2015-06-03T12:32:16Z</time>
      </trkpt>
      <trkpt lat="49.08237" lon="-1.61114">
        <ele>15.6398115</ele>
        <time>2015-06-03T12:32:21Z</time>
      </trkpt>
      <trkpt lat="49.08232" lon="-1.61111">
        <ele>15.6398115</ele>
        <time>2015-06-03T12:32:26Z</time>
      </trkpt>
      <trkpt lat="49.08229" lon="-1.61106">
        <ele>14.641205</ele>
        <time>2015-06-03T12:32:31Z</time>
      </trkpt>
      <trkpt lat="49.08224" lon="-1.61099">
        <ele>14.641205</ele>
        <time>2015-06-03T12:32:36Z</time>
      </trkpt>
      <trkpt lat="49.08219" lon="-1.61095">
        <ele>13.639711</ele>
        <time>2015-06-03T12:32:41Z</time>
      </trkpt>
      <trkpt lat="49.08215" lon="-1.61095">
        <ele>13.639711</ele>
        <time>2015-06-03T12:32:46Z</time>
      </trkpt>
      <trkpt lat="49.0821" lon="-1.61095">
        <ele>12.652764</ele>
        <time>2015-06-03T12:32:51Z</time>
      </trkpt>
      <trkpt lat="49.08204" lon="-1.61095">
        <ele>12.652764</ele>
        <time>2015-06-03T12:32:56Z</time>
      </trkpt>
      <trkpt lat="49.08198" lon="-1.61095">
        <ele>11.653205</ele>
        <time>2015-06-03T12:33:01Z</time>
      </trkpt>
      <trkpt lat="49.08192" lon="-1.61095">
        <ele>11.653205</ele>
        <time>2015-06-03T12:33:06Z</time>
      </trkpt>
      <trkpt lat="49.08188" lon="-1.61094">
        <ele>10.687913</ele>
        <time>2015-06-03T12:33:11Z</time>
      </trkpt>
      <trkpt lat="49.08181" lon="-1.61092">
        <ele>10.687913</ele>
        <time>2015-06-03T12:33:16Z</time>
      </trkpt>
      <trkpt lat="49.08175" lon="-1.61092">
        <ele>9.800179</ele>
        <time>2015-06-03T12:33:21Z</time>
      </trkpt>
      <trkpt lat="49.08169" lon="-1.61092">
        <ele>9.800179</ele>
        <time>2015-06-03T12:33:26Z</time>
      </trkpt>
      <trkpt lat="49.08165" lon="-1.61092">
        <ele>8.9289665</ele>
        <time>2015-06-03T12:33:31Z</time>
      </trkpt>
      <trkpt lat="49.08159" lon="-1.61092">
        <ele>8.9289665</ele>
        <time>2015-06-03T12:33:36Z</time>
      </trkpt>
      <trkpt lat="49.08154" lon="-1.61092">
        <ele>8.118496</ele>
        <time>2015-06-03T12:33:41Z</time>
      </trkpt>
      <trkpt lat="49.08149" lon="-1.61093">
        <ele>8.118496</ele>
        <time>2015-06-03T12:33:46Z</time>
      </trkpt>
      <trkpt lat="49.08144" lon="-1.61092">
        <ele>7.3951015</ele>
        <time>2015-06-03T12:33:51Z</time>
      </trkpt>
      <trkpt lat="49.08138" lon="-1.61091">
        <ele>7.3951015</ele>
        <time>2015-06-03T12:33:56Z</time>
      </trkpt>
      <trkpt lat="49.08133" lon="-1.6109">
        <ele>6.7684655</ele>
        <time>2015-06-03T12:34:01Z</time>
      </trkpt>
      <trkpt lat="49.08127" lon="-1.6109">
        <ele>6.7684655</ele>
        <time>2015-06-03T12:34:06Z</time>
      </trkpt>
      <trkpt lat="49.08123" lon="-1.6109">
        <ele>6.218406</ele>
        <time>2015-06-03T12:34:11Z</time>
      </trkpt>
      <trkpt lat="49.08119" lon="-1.61088">
        <ele>6.218406</ele>
        <time>2015-06-03T12:34:16Z</time>
      </trkpt>
      <trkpt lat="49.08115" lon="-1.61084">
        <ele>5.7403607</ele>
        <time>2015-06-03T12:34:21Z</time>
      </trkpt>
      <trkpt lat="49.08112" lon="-1.6108">
        <ele>5.7403607</ele>
        <time>2015-06-03T12:34:26Z</time>
      </trkpt>
      <trkpt lat="49.0811" lon="-1.61076">
        <ele>5.7403607</ele>
        <time>2015-06-03T12:34:31Z</time>
      </trkpt>
      <trkpt lat="49.08107" lon="-1.61072">
        <ele>5.329841</ele>
        <time>2015-06-03T12:34:36Z</time>
      </trkpt>
      <trkpt lat="49.08104" lon="-1.61067">
        <ele>5.329841</ele>
        <time>2015-06-03T12:34:41Z</time>
      </trkpt>
      <trkpt lat="49.08102" lon="-1.61065">
        <ele>5.329841</ele>
        <time>2015-06-03T12:34:46Z</time>
      </trkpt>
      <trkpt lat="49.08103" lon="-1.61065">
        <ele>5.329841</ele>
        <time>2015-06-03T12:34:51Z</time>
      </trkpt>
      <trkpt lat="49.08103" lon="-1.61066">
        <ele>5.329841</ele>
        <time>2015-06-03T12:34:56Z</time>
      </trkpt>
      <trkpt lat="49.08103" lon="-1.61066">
        <ele>5.329841</ele>
        <time>2015-06-03T12:35:01Z</time>
      </trkpt>
      <trkpt lat="49.08103" lon="-1.61065">
        <ele>5.329841</ele>
        <time>2015-06-03T12:35:06Z</time>
      </trkpt>
      <trkpt lat="49.08104" lon="-1.61065">
        <ele>4.9536204</ele>
        <time>2015-06-03T12:35:11Z</time>
      </trkpt>
      <trkpt lat="49.08103" lon="-1.61065">
        <ele>4.9536204</ele>
        <time>2015-06-03T12:35:16Z</time>
      </trkpt>
      <trkpt lat="49.08102" lon="-1.61064">
        <ele>4.9536204</ele>
        <time>2015-06-03T12:35:21Z</time>
      </trkpt>
      <trkpt lat="49.08099" lon="-1.61064">
        <ele>4.9536204</ele>
        <time>2015-06-03T12:35:26Z</time>
      </trkpt>
      <trkpt lat="49.08095" lon="-1.61064">
        <ele>4.724874</ele>
        <time>2015-06-03T12:35:31Z</time>
      </trkpt>
      <trkpt lat="49.08091" lon="-1.61065">
        <ele>4.724874</ele>
        <time>2015-06-03T12:35:36Z</time>
      </trkpt>
      <trkpt lat="49.08086" lon="-1.61064">
        <ele>4.647121</ele>
        <time>2015-06-03T12:35:41Z</time>
      </trkpt>
      <trkpt lat="49.08079" lon="-1.61063">
        <ele>4.647121</ele>
        <time>2015-06-03T12:35:46Z</time>
      </trkpt>
      <trkpt lat="49.08074" lon="-1.61064">
        <ele>4.607863</ele>
        <time>2015-06-03T12:35:51Z</time>
      </trkpt>
      <trkpt lat="49.08067" lon="-1.61064">
        <ele>4.607863</ele>
        <time>2015-06-03T12:35:56Z</time>
      </trkpt>
      <trkpt lat="49.08061" lon="-1.61064">
        <ele>4.618006</ele>
        <time>2015-06-03T12:36:01Z</time>
      </trkpt>
      <trkpt lat="49.08056" lon="-1.61064">
        <ele>4.618006</ele>
        <time>2015-06-03T12:36:06Z</time>
      </trkpt>
      <trkpt lat="49.0805" lon="-1.61065">
        <ele>4.644245</ele>
        <time>2015-06-03T12:36:11Z</time>
      </trkpt>
      <trkpt lat="49.08044" lon="-1.61065">
        <ele>4.644245</ele>
        <time>2015-06-03T12:36:16Z</time>
      </trkpt>
      <trkpt lat="49.08038" lon="-1.61066">
        <ele>4.7277007</ele>
        <time>2015-06-03T12:36:21Z</time>
      </trkpt>
      <trkpt lat="49.08032" lon="-1.61065">
        <ele>4.7277007</ele>
        <time>2015-06-03T12:36:26Z</time>
      </trkpt>
      <trkpt lat="49.08026" lon="-1.61063">
        <ele>4.8486423</ele>
        <time>2015-06-03T12:36:31Z</time>
      </trkpt>
      <trkpt lat="49.0802" lon="-1.61064">
        <ele>4.8486423</ele>
        <time>2015-06-03T12:36:36Z</time>
      </trkpt>
      <trkpt lat="49.08015" lon="-1.61066">
        <ele>5.003073</ele>
        <time>2015-06-03T12:36:41Z</time>
      </trkpt>
      <trkpt lat="49.08009" lon="-1.61066">
        <ele>5.003073</ele>
        <time>2015-06-03T12:36:46Z</time>
      </trkpt>
      <trkpt lat="49.08003" lon="-1.61067">
        <ele>5.172771</ele>
        <time>2015-06-03T12:36:51Z</time>
      </trkpt>
      <trkpt lat="49.07997" lon="-1.61066">
        <ele>5.172771</ele>
        <time>2015-06-03T12:36:56Z</time>
      </trkpt>
      <trkpt lat="49.0799" lon="-1.61067">
        <ele>5.3984413</ele>
        <time>2015-06-03T12:37:01Z</time>
      </trkpt>
      <trkpt lat="49.07986" lon="-1.61069">
        <ele>5.3984413</ele>
        <time>2015-06-03T12:37:06Z</time>
      </trkpt>
      <trkpt lat="49.07978" lon="-1.61069">
        <ele>5.674406</ele>
        <time>2015-06-03T12:37:11Z</time>
      </trkpt>
      <trkpt lat="49.07972" lon="-1.6107">
        <ele>5.674406</ele>
        <time>2015-06-03T12:37:16Z</time>
      </trkpt>
      <trkpt lat="49.07966" lon="-1.61069">
        <ele>5.9952626</ele>
        <time>2015-06-03T12:37:21Z</time>
      </trkpt>
      <trkpt lat="49.07961" lon="-1.61068">
        <ele>5.9952626</ele>
        <time>2015-06-03T12:37:26Z</time>
      </trkpt>
      <trkpt lat="49.07957" lon="-1.61068">
        <ele>6.3270617</ele>
        <time>2015-06-03T12:37:31Z</time>
      </trkpt>
      <trkpt lat="49.07951" lon="-1.61066">
        <ele>6.3270617</ele>
        <time>2015-06-03T12:37:36Z</time>
      </trkpt>
      <trkpt lat="49.07946" lon="-1.61065">
        <ele>6.6671505</ele>
        <time>2015-06-03T12:37:41Z</time>
      </trkpt>
      <trkpt lat="49.07939" lon="-1.61063">
        <ele>6.6671505</ele>
        <time>2015-06-03T12:37:46Z</time>
      </trkpt>
      <trkpt lat="49.07933" lon="-1.61061">
        <ele>6.955417</ele>
        <time>2015-06-03T12:37:51Z</time>
      </trkpt>
      <trkpt lat="49.07927" lon="-1.6106">
        <ele>6.955417</ele>
        <time>2015-06-03T12:37:56Z</time>
      </trkpt>
      <trkpt lat="49.0792" lon="-1.6106">
        <ele>7.136331</ele>
        <time>2015-06-03T12:38:01Z</time>
      </trkpt>
      <trkpt lat="49.07915" lon="-1.6106">
        <ele>7.136331</ele>
        <time>2015-06-03T12:38:06Z</time>
      </trkpt>
      <trkpt lat="49.0791" lon="-1.61061">
        <ele>7.2596416</ele>
        <time>2015-06-03T12:38:11Z</time>
      </trkpt>
      <trkpt lat="49.07902" lon="-1.61062">
        <ele>7.2596416</ele>
        <time>2015-06-03T12:38:16Z</time>
      </trkpt>
      <trkpt lat="49.07896" lon="-1.61061">
        <ele>7.4004517</ele>
        <time>2015-06-03T12:38:21Z</time>
      </trkpt>
      <trkpt lat="49.0789" lon="-1.61061">
        <ele>7.4004517</ele>
        <time>2015-06-03T12:38:26Z</time>
      </trkpt>
      <trkpt lat="49.07883" lon="-1.61061">
        <ele>7.5850935</ele>
        <time>2015-06-03T12:38:31Z</time>
      </trkpt>
      <trkpt lat="49.07877" lon="-1.61061">
        <ele>7.5850935</ele>
        <time>2015-06-03T12:38:36Z</time>
      </trkpt>
      <trkpt lat="49.07871" lon="-1.61061">
        <ele>7.7946367</ele>
        <time>2015-06-03T12:38:41Z</time>
      </trkpt>
      <trkpt lat="49.07864" lon="-1.61062">
        <ele>7.7946367</ele>
        <time>2015-06-03T12:38:46Z</time>
      </trkpt>
      <trkpt lat="49.07858" lon="-1.61062">
        <ele>8.040324</ele>
        <time>2015-06-03T12:38:51Z</time>
      </trkpt>
      <trkpt lat="49.07853" lon="-1.61061">
        <ele>8.040324</ele>
        <time>2015-06-03T12:38:56Z</time>
      </trkpt>
      <trkpt lat="49.07846" lon="-1.61062">
        <ele>8.260449</ele>
        <time>2015-06-03T12:39:01Z</time>
      </trkpt>
      <trkpt lat="49.0784" lon="-1.6106">
        <ele>8.260449</ele>
        <time>2015-06-03T12:39:06Z</time>
      </trkpt>
      <trkpt lat="49.07835" lon="-1.61057">
        <ele>8.441176</ele>
        <time>2015-06-03T12:39:11Z</time>
      </trkpt>
      <trkpt lat="49.07828" lon="-1.61058">
        <ele>8.441176</ele>
        <time>2015-06-03T12:39:16Z</time>
      </trkpt>
      <trkpt lat="49.07823" lon="-1.6106">
        <ele>8.641888</ele>
        <time>2015-06-03T12:39:21Z</time>
      </trkpt>
      <trkpt lat="49.07817" lon="-1.61058">
        <ele>8.641888</ele>
        <time>2015-06-03T12:39:26Z</time>
      </trkpt>
      <trkpt lat="49.07811" lon="-1.61059">
        <ele>8.802294</ele>
        <time>2015-06-03T12:39:31Z</time>
      </trkpt>
      <trkpt lat="49.07804" lon="-1.61057">
        <ele>8.802294</ele>
        <time>2015-06-03T12:39:36Z</time>
      </trkpt>
      <trkpt lat="49.07798" lon="-1.61058">
        <ele>8.938741</ele>
        <time>2015-06-03T12:39:41Z</time>
      </trkpt>
      <trkpt lat="49.07792" lon="-1.61057">
        <ele>8.938741</ele>
        <time>2015-06-03T12:39:46Z</time>
      </trkpt>
      <trkpt lat="49.07787" lon="-1.61058">
        <ele>9.152944</ele>
        <time>2015-06-03T12:39:51Z</time>
      </trkpt>
      <trkpt lat="49.0778" lon="-1.61058">
        <ele>9.152944</ele>
        <time>2015-06-03T12:39:56Z</time>
      </trkpt>
      <trkpt lat="49.07774" lon="-1.61059">
        <ele>9.4236765</ele>
        <time>2015-06-03T12:40:01Z</time>
      </trkpt>
      <trkpt lat="49.07768" lon="-1.61057">
        <ele>9.4236765</ele>
        <time>2015-06-03T12:40:06Z</time>
      </trkpt>
      <trkpt lat="49.07762" lon="-1.61056">
        <ele>9.702331</ele>
        <time>2015-06-03T12:40:11Z</time>
      </trkpt>
      <trkpt lat="49.07758" lon="-1.61054">
        <ele>9.702331</ele>
        <time>2015-06-03T12:40:16Z</time>
      </trkpt>
      <trkpt lat="49.07751" lon="-1.61054">
        <ele>9.929472</ele>
        <time>2015-06-03T12:40:21Z</time>
      </trkpt>
      <trkpt lat="49.07745" lon="-1.61054">
        <ele>9.929472</ele>
        <time>2015-06-03T12:40:26Z</time>
      </trkpt>
      <trkpt lat="49.07739" lon="-1.61054">
        <ele>10.1222725</ele>
        <time>2015-06-03T12:40:31Z</time>
      </trkpt>
      <trkpt lat="49.07733" lon="-1.61053">
        <ele>10.1222725</ele>
        <time>2015-06-03T12:40:36Z</time>
      </trkpt>
      <trkpt lat="49.07728" lon="-1.61052">
        <ele>10.325601</ele>
        <time>2015-06-03T12:40:41Z</time>
      </trkpt>
      <trkpt lat="49.07722" lon="-1.61053">
        <ele>10.325601</ele>
        <time>2015-06-03T12:40:46Z</time>
      </trkpt>
      <trkpt lat="49.07716" lon="-1.61053">
        <ele>10.480159</ele>
        <time>2015-06-03T12:40:51Z</time>
      </trkpt>
      <trkpt lat="49.0771" lon="-1.61052">
        <ele>10.480159</ele>
        <time>2015-06-03T12:40:56Z</time>
      </trkpt>
      <trkpt lat="49.07704" lon="-1.61052">
        <ele>10.560004</ele>
        <time>2015-06-03T12:41:01Z</time>
      </trkpt>
      <trkpt lat="49.07699" lon="-1.61053">
        <ele>10.560004</ele>
        <time>2015-06-03T12:41:06Z</time>
      </trkpt>
      <trkpt lat="49.07693" lon="-1.61052">
        <ele>10.642223</ele>
        <time>2015-06-03T12:41:11Z</time>
      </trkpt>
      <trkpt lat="49.07689" lon="-1.61051">
        <ele>10.642223</ele>
        <time>2015-06-03T12:41:16Z</time>
      </trkpt>
      <trkpt lat="49.07683" lon="-1.61049">
        <ele>10.63975</ele>
        <time>2015-06-03T12:41:21Z</time>
      </trkpt>
      <trkpt lat="49.07678" lon="-1.61048">
        <ele>10.63975</ele>
        <time>2015-06-03T12:41:26Z</time>
      </trkpt>
      <trkpt lat="49.07672" lon="-1.61048">
        <ele>10.558648</ele>
        <time>2015-06-03T12:41:31Z</time>
      </trkpt>
      <trkpt lat="49.07667" lon="-1.61048">
        <ele>10.558648</ele>
        <time>2015-06-03T12:41:36Z</time>
      </trkpt>
      <trkpt lat="49.07662" lon="-1.61047">
        <ele>10.47685</ele>
        <time>2015-06-03T12:41:41Z</time>
      </trkpt>
      <trkpt lat="49.07655" lon="-1.61046">
        <ele>10.47685</ele>
        <time>2015-06-03T12:41:46Z</time>
      </trkpt>
      <trkpt lat="49.07648" lon="-1.61046">
        <ele>10.365711</ele>
        <time>2015-06-03T12:41:51Z</time>
      </trkpt>
      <trkpt lat="49.07643" lon="-1.61046">
        <ele>10.365711</ele>
        <time>2015-06-03T12:41:56Z</time>
      </trkpt>
      <trkpt lat="49.07637" lon="-1.61045">
        <ele>10.242039</ele>
        <time>2015-06-03T12:42:01Z</time>
      </trkpt>
      <trkpt lat="49.07632" lon="-1.61044">
        <ele>10.242039</ele>
        <time>2015-06-03T12:42:06Z</time>
      </trkpt>
      <trkpt lat="49.07627" lon="-1.61042">
        <ele>10.107053</ele>
        <time>2015-06-03T12:42:11Z</time>
      </trkpt>
      <trkpt lat="49.0762" lon="-1.61042">
        <ele>10.107053</ele>
        <time>2015-06-03T12:42:16Z</time>
      </trkpt>
      <trkpt lat="49.07614" lon="-1.61041">
        <ele>9.947524</ele>
        <time>2015-06-03T12:42:21Z</time>
      </trkpt>
      <trkpt lat="49.07609" lon="-1.61041">
        <ele>9.947524</ele>
        <time>2015-06-03T12:42:26Z</time>
      </trkpt>
      <trkpt lat="49.07602" lon="-1.6104">
        <ele>9.794518</ele>
        <time>2015-06-03T12:42:31Z</time>
      </trkpt>
      <trkpt lat="49.07596" lon="-1.6104">
        <ele>9.794518</ele>
        <time>2015-06-03T12:42:36Z</time>
      </trkpt>
      <trkpt lat="49.07591" lon="-1.61039">
        <ele>9.676817</ele>
        <time>2015-06-03T12:42:41Z</time>
      </trkpt>
      <trkpt lat="49.07585" lon="-1.61038">
        <ele>9.676817</ele>
        <time>2015-06-03T12:42:46Z</time>
      </trkpt>
      <trkpt lat="49.07578" lon="-1.61038">
        <ele>9.548945</ele>
        <time>2015-06-03T12:42:51Z</time>
      </trkpt>
      <trkpt lat="49.07573" lon="-1.61036">
        <ele>9.548945</ele>
        <time>2015-06-03T12:42:56Z</time>
      </trkpt>
      <trkpt lat="49.07567" lon="-1.61037">
        <ele>9.397633</ele>
        <time>2015-06-03T12:43:01Z</time>
      </trkpt>
      <trkpt lat="49.07562" lon="-1.61036">
        <ele>9.397633</ele>
        <time>2015-06-03T12:43:06Z</time>
      </trkpt>
      <trkpt lat="49.07556" lon="-1.61035">
        <ele>9.297125</ele>
        <time>2015-06-03T12:43:11Z</time>
      </trkpt>
      <trkpt lat="49.07551" lon="-1.61032">
        <ele>9.297125</ele>
        <time>2015-06-03T12:43:16Z</time>
      </trkpt>
      <trkpt lat="49.07546" lon="-1.61031">
        <ele>9.258433</ele>
        <time>2015-06-03T12:43:21Z</time>
      </trkpt>
      <trkpt lat="49.0754" lon="-1.61031">
        <ele>9.258433</ele>
        <time>2015-06-03T12:43:26Z</time>
      </trkpt>
      <trkpt lat="49.07534" lon="-1.61031">
        <ele>9.21954</ele>
        <time>2015-06-03T12:43:31Z</time>
      </trkpt>
      <trkpt lat="49.07528" lon="-1.6103">
        <ele>9.21954</ele>
        <time>2015-06-03T12:43:36Z</time>
      </trkpt>
      <trkpt lat="49.07524" lon="-1.6103">
        <ele>9.166219</ele>
        <time>2015-06-03T12:43:41Z</time>
      </trkpt>
      <trkpt lat="49.07518" lon="-1.61027">
        <ele>9.166219</ele>
        <time>2015-06-03T12:43:46Z</time>
      </trkpt>
      <trkpt lat="49.07512" lon="-1.61027">
        <ele>9.114157</ele>
        <time>2015-06-03T12:43:51Z</time>
      </trkpt>
      <trkpt lat="49.07505" lon="-1.61026">
        <ele>9.114157</ele>
        <time>2015-06-03T12:43:56Z</time>
      </trkpt>
      <trkpt lat="49.075" lon="-1.61025">
        <ele>9.0634775</ele>
        <time>2015-06-03T12:44:01Z</time>
      </trkpt>
      <trkpt lat="49.07493" lon="-1.61024">
        <ele>9.0634775</ele>
        <time>2015-06-03T12:44:06Z</time>
      </trkpt>
      <trkpt lat="49.07487" lon="-1.61025">
        <ele>9.043115</ele>
        <time>2015-06-03T12:44:11Z</time>
      </trkpt>
      <trkpt lat="49.07481" lon="-1.61024">
        <ele>9.043115</ele>
        <time>2015-06-03T12:44:16Z</time>
      </trkpt>
      <trkpt lat="49.07476" lon="-1.61023">
        <ele>9.094205</ele>
        <time>2015-06-03T12:44:21Z</time>
      </trkpt>
      <trkpt lat="49.0747" lon="-1.61023">
        <ele>9.094205</ele>
        <time>2015-06-03T12:44:26Z</time>
      </trkpt>
      <trkpt lat="49.07465" lon="-1.61022">
        <ele>9.182608</ele>
        <time>2015-06-03T12:44:31Z</time>
      </trkpt>
      <trkpt lat="49.07459" lon="-1.61021">
        <ele>9.182608</ele>
        <time>2015-06-03T12:44:36Z</time>
      </trkpt>
      <trkpt lat="49.07455" lon="-1.61019">
        <ele>9.290998</ele>
        <time>2015-06-03T12:44:41Z</time>
      </trkpt>
      <trkpt lat="49.07449" lon="-1.61018">
        <ele>9.290998</ele>
        <time>2015-06-03T12:44:46Z</time>
      </trkpt>
      <trkpt lat="49.07444" lon="-1.61017">
        <ele>9.316804</ele>
        <time>2015-06-03T12:44:51Z</time>
      </trkpt>
      <trkpt lat="49.07437" lon="-1.61016">
        <ele>9.316804</ele>
        <time>2015-06-03T12:44:56Z</time>
      </trkpt>
      <trkpt lat="49.07432" lon="-1.61015">
        <ele>9.266096</ele>
        <time>2015-06-03T12:45:01Z</time>
      </trkpt>
      <trkpt lat="49.07426" lon="-1.61015">
        <ele>9.266096</ele>
        <time>2015-06-03T12:45:06Z</time>
      </trkpt>
      <trkpt lat="49.0742" lon="-1.61013">
        <ele>9.144718</ele>
        <time>2015-06-03T12:45:11Z</time>
      </trkpt>
      <trkpt lat="49.07414" lon="-1.61011">
        <ele>9.144718</ele>
        <time>2015-06-03T12:45:16Z</time>
      </trkpt>
      <trkpt lat="49.07409" lon="-1.6101">
        <ele>9.030336</ele>
        <time>2015-06-03T12:45:21Z</time>
      </trkpt>
      <trkpt lat="49.07403" lon="-1.61009">
        <ele>9.030336</ele>
        <time>2015-06-03T12:45:26Z</time>
      </trkpt>
      <trkpt lat="49.07397" lon="-1.61008">
        <ele>8.850782</ele>
        <time>2015-06-03T12:45:31Z</time>
      </trkpt>
      <trkpt lat="49.07391" lon="-1.61007">
        <ele>8.850782</ele>
        <time>2015-06-03T12:45:36Z</time>
      </trkpt>
      <trkpt lat="49.07385" lon="-1.61007">
        <ele>8.755536</ele>
        <time>2015-06-03T12:45:41Z</time>
      </trkpt>
      <trkpt lat="49.07379" lon="-1.61006">
        <ele>8.755536</ele>
        <time>2015-06-03T12:45:46Z</time>
      </trkpt>
      <trkpt lat="49.07373" lon="-1.61005">
        <ele>8.695514</ele>
        <time>2015-06-03T12:45:51Z</time>
      </trkpt>
      <trkpt lat="49.07368" lon="-1.61005">
        <ele>8.695514</ele>
        <time>2015-06-03T12:45:56Z</time>
      </trkpt>
      <trkpt lat="49.07361" lon="-1.61003">
        <ele>8.6251335</ele>
        <time>2015-06-03T12:46:01Z</time>
      </trkpt>
      <trkpt lat="49.07356" lon="-1.61002">
        <ele>8.6251335</ele>
        <time>2015-06-03T12:46:06Z</time>
      </trkpt>
      <trkpt lat="49.0735" lon="-1.61001">
        <ele>8.531011</ele>
        <time>2015-06-03T12:46:11Z</time>
      </trkpt>
      <trkpt lat="49.07343" lon="-1.61001">
        <ele>8.531011</ele>
        <time>2015-06-03T12:46:16Z</time>
      </trkpt>
      <trkpt lat="49.07338" lon="-1.60999">
        <ele>8.35757</ele>
        <time>2015-06-03T12:46:21Z</time>
      </trkpt>
      <trkpt lat="49.07331" lon="-1.60998">
        <ele>8.35757</ele>
        <time>2015-06-03T12:46:26Z</time>
      </trkpt>
      <trkpt lat="49.07325" lon="-1.60997">
        <ele>8.11118</ele>
        <time>2015-06-03T12:46:31Z</time>
      </trkpt>
      <trkpt lat="49.07321" lon="-1.60995">
        <ele>8.11118</ele>
        <time>2015-06-03T12:46:36Z</time>
      </trkpt>
      <trkpt lat="49.07315" lon="-1.60993">
        <ele>7.855586</ele>
        <time>2015-06-03T12:46:41Z</time>
      </trkpt>
      <trkpt lat="49.07309" lon="-1.60992">
        <ele>7.855586</ele>
        <time>2015-06-03T12:46:46Z</time>
      </trkpt>
      <trkpt lat="49.07302" lon="-1.60991">
        <ele>7.5778084</ele>
        <time>2015-06-03T12:46:51Z</time>
      </trkpt>
      <trkpt lat="49.07295" lon="-1.60989">
        <ele>7.5778084</ele>
        <time>2015-06-03T12:46:56Z</time>
      </trkpt>
      <trkpt lat="49.07291" lon="-1.60988">
        <ele>7.251465</ele>
        <time>2015-06-03T12:47:01Z</time>
      </trkpt>
      <trkpt lat="49.07286" lon="-1.60986">
        <ele>7.251465</ele>
        <time>2015-06-03T12:47:06Z</time>
      </trkpt>
      <trkpt lat="49.07281" lon="-1.60984">
        <ele>6.9963455</ele>
        <time>2015-06-03T12:47:11Z</time>
      </trkpt>
      <trkpt lat="49.07276" lon="-1.60982">
        <ele>6.9963455</ele>
        <time>2015-06-03T12:47:16Z</time>
      </trkpt>
      <trkpt lat="49.07269" lon="-1.6098">
        <ele>6.779117</ele>
        <time>2015-06-03T12:47:21Z</time>
      </trkpt>
      <trkpt lat="49.07263" lon="-1.60979">
        <ele>6.779117</ele>
        <time>2015-06-03T12:47:26Z</time>
      </trkpt>
      <trkpt lat="49.07257" lon="-1.60977">
        <ele>6.6120067</ele>
        <time>2015-06-03T12:47:31Z</time>
      </trkpt>
      <trkpt lat="49.07253" lon="-1.60974">
        <ele>6.6120067</ele>
        <time>2015-06-03T12:47:36Z</time>
      </trkpt>
      <trkpt lat="49.07246" lon="-1.60972">
        <ele>6.462955</ele>
        <time>2015-06-03T12:47:41Z</time>
      </trkpt>
      <trkpt lat="49.07241" lon="-1.6097">
        <ele>6.462955</ele>
        <time>2015-06-03T12:47:46Z</time>
      </trkpt>
      <trkpt lat="49.07235" lon="-1.60967">
        <ele>6.3166027</ele>
        <time>2015-06-03T12:47:51Z</time>
      </trkpt>
      <trkpt lat="49.07229" lon="-1.60967">
        <ele>6.3166027</ele>
        <time>2015-06-03T12:47:56Z</time>
      </trkpt>
      <trkpt lat="49.07222" lon="-1.60965">
        <ele>6.2019286</ele>
        <time>2015-06-03T12:48:01Z</time>
      </trkpt>
      <trkpt lat="49.07215" lon="-1.60964">
        <ele>6.2019286</ele>
        <time>2015-06-03T12:48:06Z</time>
      </trkpt>
      <trkpt lat="49.0721" lon="-1.60962">
        <ele>6.145679</ele>
        <time>2015-06-03T12:48:11Z</time>
      </trkpt>
      <trkpt lat="49.07204" lon="-1.60961">
        <ele>6.145679</ele>
        <time>2015-06-03T12:48:16Z</time>
      </trkpt>
      <trkpt lat="49.07198" lon="-1.60959">
        <ele>6.158046</ele>
        <time>2015-06-03T12:48:21Z</time>
      </trkpt>
      <trkpt lat="49.07191" lon="-1.60958">
        <ele>6.158046</ele>
        <time>2015-06-03T12:48:26Z</time>
      </trkpt>
      <trkpt lat="49.07186" lon="-1.60957">
        <ele>6.2626762</ele>
        <time>2015-06-03T12:48:31Z</time>
      </trkpt>
      <trkpt lat="49.0718" lon="-1.60957">
        <ele>6.2626762</ele>
        <time>2015-06-03T12:48:36Z</time>
      </trkpt>
      <trkpt lat="49.07174" lon="-1.60955">
        <ele>6.3803334</ele>
        <time>2015-06-03T12:48:41Z</time>
      </trkpt>
      <trkpt lat="49.07169" lon="-1.60955">
        <ele>6.3803334</ele>
        <time>2015-06-03T12:48:46Z</time>
      </trkpt>
      <trkpt lat="49.07162" lon="-1.60952">
        <ele>6.495197</ele>
        <time>2015-06-03T12:48:51Z</time>
      </trkpt>
      <trkpt lat="49.07155" lon="-1.6095">
        <ele>6.495197</ele>
        <time>2015-06-03T12:48:56Z</time>
      </trkpt>
      <trkpt lat="49.07149" lon="-1.6095">
        <ele>6.6070194</ele>
        <time>2015-06-03T12:49:01Z</time>
      </trkpt>
      <trkpt lat="49.07144" lon="-1.60948">
        <ele>6.6070194</ele>
        <time>2015-06-03T12:49:06Z</time>
      </trkpt>
      <trkpt lat="49.07139" lon="-1.60948">
        <ele>6.7299867</ele>
        <time>2015-06-03T12:49:11Z</time>
      </trkpt>
      <trkpt lat="49.07134" lon="-1.60945">
        <ele>6.7299867</ele>
        <time>2015-06-03T12:49:16Z</time>
      </trkpt>
      <trkpt lat="49.07128" lon="-1.60942">
        <ele>6.891615</ele>
        <time>2015-06-03T12:49:21Z</time>
      </trkpt>
      <trkpt lat="49.07122" lon="-1.60941">
        <ele>6.891615</ele>
        <time>2015-06-03T12:49:26Z</time>
      </trkpt>
      <trkpt lat="49.07116" lon="-1.6094">
        <ele>7.059646</ele>
        <time>2015-06-03T12:49:31Z</time>
      </trkpt>
      <trkpt lat="49.07109" lon="-1.60939">
        <ele>7.059646</ele>
        <time>2015-06-03T12:49:36Z</time>
      </trkpt>
      <trkpt lat="49.07104" lon="-1.60938">
        <ele>7.1897607</ele>
        <time>2015-06-03T12:49:41Z</time>
      </trkpt>
      <trkpt lat="49.07098" lon="-1.60938">
        <ele>7.1897607</ele>
        <time>2015-06-03T12:49:46Z</time>
      </trkpt>
      <trkpt lat="49.07093" lon="-1.60936">
        <ele>7.3562913</ele>
        <time>2015-06-03T12:49:51Z</time>
      </trkpt>
      <trkpt lat="49.07087" lon="-1.60935">
        <ele>7.3562913</ele>
        <time>2015-06-03T12:49:56Z</time>
      </trkpt>
      <trkpt lat="49.07081" lon="-1.60934">
        <ele>7.527134</ele>
        <time>2015-06-03T12:50:01Z</time>
      </trkpt>
      <trkpt lat="49.07075" lon="-1.60934">
        <ele>7.527134</ele>
        <time>2015-06-03T12:50:06Z</time>
      </trkpt>
      <trkpt lat="49.0707" lon="-1.60933">
        <ele>7.7013555</ele>
        <time>2015-06-03T12:50:11Z</time>
      </trkpt>
      <trkpt lat="49.07064" lon="-1.6093">
        <ele>7.7013555</ele>
        <time>2015-06-03T12:50:16Z</time>
      </trkpt>
      <trkpt lat="49.07058" lon="-1.60929">
        <ele>7.9069123</ele>
        <time>2015-06-03T12:50:21Z</time>
      </trkpt>
      <trkpt lat="49.07051" lon="-1.60928">
        <ele>7.9069123</ele>
        <time>2015-06-03T12:50:26Z</time>
      </trkpt>
      <trkpt lat="49.07045" lon="-1.60926">
        <ele>8.169624</ele>
        <time>2015-06-03T12:50:31Z</time>
      </trkpt>
      <trkpt lat="49.07041" lon="-1.60924">
        <ele>8.169624</ele>
        <time>2015-06-03T12:50:36Z</time>
      </trkpt>
      <trkpt lat="49.07037" lon="-1.60922">
        <ele>8.169624</ele>
        <time>2015-06-03T12:50:41Z</time>
      </trkpt>
      <trkpt lat="49.07032" lon="-1.60916">
        <ele>8.369154</ele>
        <time>2015-06-03T12:50:46Z</time>
      </trkpt>
      <trkpt lat="49.07029" lon="-1.6091">
        <ele>8.369154</ele>
        <time>2015-06-03T12:50:51Z</time>
      </trkpt>
      <trkpt lat="49.07028" lon="-1.60907">
        <ele>8.369154</ele>
        <time>2015-06-03T12:50:56Z</time>
      </trkpt>
      <trkpt lat="49.07028" lon="-1.60908">
        <ele>8.369154</ele>
        <time>2015-06-03T12:51:01Z</time>
      </trkpt>
      <trkpt lat="49.07028" lon="-1.60908">
        <ele>8.369154</ele>
        <time>2015-06-03T12:51:06Z</time>
      </trkpt>
      <trkpt lat="49.07029" lon="-1.60907">
        <ele>8.552713</ele>
        <time>2015-06-03T12:51:11Z</time>
      </trkpt>
      <trkpt lat="49.07029" lon="-1.60906">
        <ele>8.552713</ele>
        <time>2015-06-03T12:51:16Z</time>
      </trkpt>
      <trkpt lat="49.07029" lon="-1.60905">
        <ele>8.552713</ele>
        <time>2015-06-03T12:51:21Z</time>
      </trkpt>
      <trkpt lat="49.07028" lon="-1.60907">
        <ele>8.552713</ele>
        <time>2015-06-03T12:51:26Z</time>
      </trkpt>
      <trkpt lat="49.07027" lon="-1.60908">
        <ele>8.552713</ele>
        <time>2015-06-03T12:51:31Z</time>
      </trkpt>
      <trkpt lat="49.07028" lon="-1.60908">
        <ele>8.552713</ele>
        <time>2015-06-03T12:51:36Z</time>
      </trkpt>
      <trkpt lat="49.07028" lon="-1.60908">
        <ele>8.552713</ele>
        <time>2015-06-03T12:51:41Z</time>
      </trkpt>
      <trkpt lat="49.07029" lon="-1.60908">
        <ele>8.552713</ele>
        <time>2015-06-03T12:51:46Z</time>
      </trkpt>
      <trkpt lat="49.07029" lon="-1.60907">
        <ele>8.552713</ele>
        <time>2015-06-03T12:51:51Z</time>
      </trkpt>
      <trkpt lat="49.07029" lon="-1.60906">
        <ele>8.552713</ele>
        <time>2015-06-03T12:51:56Z</time>
      </trkpt>
      <trkpt lat="49.07028" lon="-1.60906">
        <ele>8.552713</ele>
        <time>2015-06-03T12:52:01Z</time>
      </trkpt>
      <trkpt lat="49.07028" lon="-1.60906">
        <ele>8.552713</ele>
        <time>2015-06-03T12:52:06Z</time>
      </trkpt>
      <trkpt lat="49.07028" lon="-1.60908">
        <ele>8.552713</ele>
        <time>2015-06-03T12:52:11Z</time>
      </trkpt>
      <trkpt lat="49.07028" lon="-1.60908">
        <ele>8.552713</ele>
        <time>2015-06-03T12:52:16Z</time>
      </trkpt>
      <trkpt lat="49.07029" lon="-1.60908">
        <ele>8.552713</ele>
        <time>2015-06-03T12:52:21Z</time>
      </trkpt>
      <trkpt lat="49.07028" lon="-1.60908">
        <ele>8.73528</ele>
        <time>2015-06-03T12:52:26Z</time>
      </trkpt>
      <trkpt lat="49.07026" lon="-1.60904">
        <ele>8.73528</ele>
        <time>2015-06-03T12:52:31Z</time>
      </trkpt>
      <trkpt lat="49.07023" lon="-1.60898">
        <ele>8.73528</ele>
        <time>2015-06-03T12:52:36Z</time>
      </trkpt>
      <trkpt lat="49.07022" lon="-1.60893">
        <ele>8.945158</ele>
        <time>2015-06-03T12:52:41Z</time>
      </trkpt>
      <trkpt lat="49.07021" lon="-1.60887">
        <ele>8.945158</ele>
        <time>2015-06-03T12:52:46Z</time>
      </trkpt>
      <trkpt lat="49.0702" lon="-1.60881">
        <ele>8.945158</ele>
        <time>2015-06-03T12:52:51Z</time>
      </trkpt>
      <trkpt lat="49.07018" lon="-1.60876">
        <ele>9.136455</ele>
        <time>2015-06-03T12:52:56Z</time>
      </trkpt>
      <trkpt lat="49.07015" lon="-1.6087">
        <ele>9.136455</ele>
        <time>2015-06-03T12:53:01Z</time>
      </trkpt>
      <trkpt lat="49.07012" lon="-1.60865">
        <ele>9.309946</ele>
        <time>2015-06-03T12:53:06Z</time>
      </trkpt>
      <trkpt lat="49.0701" lon="-1.6086">
        <ele>9.309946</ele>
        <time>2015-06-03T12:53:11Z</time>
      </trkpt>
      <trkpt lat="49.07007" lon="-1.60853">
        <ele>9.495242</ele>
        <time>2015-06-03T12:53:16Z</time>
      </trkpt>
      <trkpt lat="49.07004" lon="-1.60847">
        <ele>9.495242</ele>
        <time>2015-06-03T12:53:21Z</time>
      </trkpt>
      <trkpt lat="49.07002" lon="-1.6084">
        <ele>9.662113</ele>
        <time>2015-06-03T12:53:26Z</time>
      </trkpt>
      <trkpt lat="49.07" lon="-1.60831">
        <ele>9.662113</ele>
        <time>2015-06-03T12:53:31Z</time>
      </trkpt>
      <trkpt lat="49.06999" lon="-1.60824">
        <ele>9.825852</ele>
        <time>2015-06-03T12:53:36Z</time>
      </trkpt>
      <trkpt lat="49.06996" lon="-1.60816">
        <ele>9.825852</ele>
        <time>2015-06-03T12:53:41Z</time>
      </trkpt>
      <trkpt lat="49.06993" lon="-1.6081">
        <ele>9.971831</ele>
        <time>2015-06-03T12:53:46Z</time>
      </trkpt>
      <trkpt lat="49.06989" lon="-1.60807">
        <ele>9.971831</ele>
        <time>2015-06-03T12:53:51Z</time>
      </trkpt>
      <trkpt lat="49.06985" lon="-1.60804">
        <ele>10.072152</ele>
        <time>2015-06-03T12:53:56Z</time>
      </trkpt>
      <trkpt lat="49.0698" lon="-1.60805">
        <ele>10.072152</ele>
        <time>2015-06-03T12:54:01Z</time>
      </trkpt>
      <trkpt lat="49.06974" lon="-1.60806">
        <ele>10.115521</ele>
        <time>2015-06-03T12:54:06Z</time>
      </trkpt>
      <trkpt lat="49.06969" lon="-1.60807">
        <ele>10.115521</ele>
        <time>2015-06-03T12:54:11Z</time>
      </trkpt>
      <trkpt lat="49.06965" lon="-1.60808">
        <ele>10.091648</ele>
        <time>2015-06-03T12:54:16Z</time>
      </trkpt>
      <trkpt lat="49.06959" lon="-1.6081">
        <ele>10.091648</ele>
        <time>2015-06-03T12:54:21Z</time>
      </trkpt>
      <trkpt lat="49.06954" lon="-1.60809">
        <ele>10.005616</ele>
        <time>2015-06-03T12:54:26Z</time>
      </trkpt>
      <trkpt lat="49.06949" lon="-1.60809">
        <ele>10.005616</ele>
        <time>2015-06-03T12:54:31Z</time>
      </trkpt>
      <trkpt lat="49.06944" lon="-1.60811">
        <ele>9.862317</ele>
        <time>2015-06-03T12:54:36Z</time>
      </trkpt>
      <trkpt lat="49.0694" lon="-1.6081">
        <ele>9.862317</ele>
        <time>2015-06-03T12:54:41Z</time>
      </trkpt>
      <trkpt lat="49.06939" lon="-1.6081">
        <ele>9.862317</ele>
        <time>2015-06-03T12:54:46Z</time>
      </trkpt>
      <trkpt lat="49.06939" lon="-1.6081">
        <ele>9.862317</ele>
        <time>2015-06-03T12:54:51Z</time>
      </trkpt>
      <trkpt lat="49.06937" lon="-1.60806">
        <ele>9.862317</ele>
        <time>2015-06-03T12:54:56Z</time>
      </trkpt>
      <trkpt lat="49.06934" lon="-1.60804">
        <ele>9.66646</ele>
        <time>2015-06-03T12:55:01Z</time>
      </trkpt>
      <trkpt lat="49.06929" lon="-1.60803">
        <ele>9.66646</ele>
        <time>2015-06-03T12:55:06Z</time>
      </trkpt>
      <trkpt lat="49.06927" lon="-1.60804">
        <ele>9.66646</ele>
        <time>2015-06-03T12:55:11Z</time>
      </trkpt>
      <trkpt lat="49.06926" lon="-1.60805">
        <ele>9.66646</ele>
        <time>2015-06-03T12:55:16Z</time>
      </trkpt>
      <trkpt lat="49.06927" lon="-1.60804">
        <ele>9.66646</ele>
        <time>2015-06-03T12:55:21Z</time>
      </trkpt>
      <trkpt lat="49.06925" lon="-1.60804">
        <ele>9.408151</ele>
        <time>2015-06-03T12:55:26Z</time>
      </trkpt>
      <trkpt lat="49.06923" lon="-1.60805">
        <ele>9.408151</ele>
        <time>2015-06-03T12:55:31Z</time>
      </trkpt>
      <trkpt lat="49.06923" lon="-1.60803">
        <ele>9.408151</ele>
        <time>2015-06-03T12:55:36Z</time>
      </trkpt>
      <trkpt lat="49.06922" lon="-1.60802">
        <ele>9.408151</ele>
        <time>2015-06-03T12:55:41Z</time>
      </trkpt>
      <trkpt lat="49.06922" lon="-1.60801">
        <ele>9.408151</ele>
        <time>2015-06-03T12:55:46Z</time>
      </trkpt>
      <trkpt lat="49.06923" lon="-1.60803">
        <ele>9.408151</ele>
        <time>2015-06-03T12:55:51Z</time>
      </trkpt>
      <trkpt lat="49.06922" lon="-1.60805">
        <ele>9.408151</ele>
        <time>2015-06-03T12:55:56Z</time>
      </trkpt>
      <trkpt lat="49.06921" lon="-1.60805">
        <ele>9.408151</ele>
        <time>2015-06-03T12:56:01Z</time>
      </trkpt>
      <trkpt lat="49.0692" lon="-1.60805">
        <ele>9.408151</ele>
        <time>2015-06-03T12:56:06Z</time>
      </trkpt>
      <trkpt lat="49.06921" lon="-1.60805">
        <ele>9.078402</ele>
        <time>2015-06-03T12:56:11Z</time>
      </trkpt>
      <trkpt lat="49.06922" lon="-1.60804">
        <ele>9.078402</ele>
        <time>2015-06-03T12:56:16Z</time>
      </trkpt>
      <trkpt lat="49.06921" lon="-1.60803">
        <ele>9.078402</ele>
        <time>2015-06-03T12:56:21Z</time>
      </trkpt>
      <trkpt lat="49.0692" lon="-1.60803">
        <ele>9.078402</ele>
        <time>2015-06-03T12:56:26Z</time>
      </trkpt>
      <trkpt lat="49.0692" lon="-1.60805">
        <ele>9.078402</ele>
        <time>2015-06-03T12:56:31Z</time>
      </trkpt>
      <trkpt lat="49.06919" lon="-1.60805">
        <ele>9.078402</ele>
        <time>2015-06-03T12:56:36Z</time>
      </trkpt>
      <trkpt lat="49.06921" lon="-1.60805">
        <ele>9.078402</ele>
        <time>2015-06-03T12:56:41Z</time>
      </trkpt>
      <trkpt lat="49.06921" lon="-1.60806">
        <ele>9.078402</ele>
        <time>2015-06-03T12:56:46Z</time>
      </trkpt>
      <trkpt lat="49.06921" lon="-1.60806">
        <ele>9.078402</ele>
        <time>2015-06-03T12:56:51Z</time>
      </trkpt>
      <trkpt lat="49.06921" lon="-1.60806">
        <ele>9.078402</ele>
        <time>2015-06-03T12:56:56Z</time>
      </trkpt>
      <trkpt lat="49.0692" lon="-1.60806">
        <ele>9.078402</ele>
        <time>2015-06-03T12:57:01Z</time>
      </trkpt>
      <trkpt lat="49.06919" lon="-1.60806">
        <ele>9.078402</ele>
        <time>2015-06-03T12:57:06Z</time>
      </trkpt>
      <trkpt lat="49.06919" lon="-1.60805">
        <ele>8.654679</ele>
        <time>2015-06-03T12:57:11Z</time>
      </trkpt>
      <trkpt lat="49.0692" lon="-1.60805">
        <ele>8.654679</ele>
        <time>2015-06-03T12:57:16Z</time>
      </trkpt>
      <trkpt lat="49.0692" lon="-1.60805">
        <ele>8.654679</ele>
        <time>2015-06-03T12:57:21Z</time>
      </trkpt>
      <trkpt lat="49.0692" lon="-1.60806">
        <ele>8.654679</ele>
        <time>2015-06-03T12:57:26Z</time>
      </trkpt>
      <trkpt lat="49.06919" lon="-1.60804">
        <ele>8.654679</ele>
        <time>2015-06-03T12:57:31Z</time>
      </trkpt>
      <trkpt lat="49.06918" lon="-1.60799">
        <ele>8.654679</ele>
        <time>2015-06-03T12:57:36Z</time>
      </trkpt>
      <trkpt lat="49.06918" lon="-1.60798">
        <ele>8.654679</ele>
        <time>2015-06-03T12:57:41Z</time>
      </trkpt>
      <trkpt lat="49.06917" lon="-1.60795">
        <ele>8.332535</ele>
        <time>2015-06-03T12:57:46Z</time>
      </trkpt>
      <trkpt lat="49.06915" lon="-1.60794">
        <ele>8.332535</ele>
        <time>2015-06-03T12:57:51Z</time>
      </trkpt>
      <trkpt lat="49.06914" lon="-1.60792">
        <ele>8.332535</ele>
        <time>2015-06-03T12:57:56Z</time>
      </trkpt>
      <trkpt lat="49.06913" lon="-1.60791">
        <ele>8.332535</ele>
        <time>2015-06-03T12:58:01Z</time>
      </trkpt>
      <trkpt lat="49.06911" lon="-1.60788">
        <ele>8.332535</ele>
        <time>2015-06-03T12:58:06Z</time>
      </trkpt>
      <trkpt lat="49.06906" lon="-1.60786">
        <ele>8.062288</ele>
        <time>2015-06-03T12:58:11Z</time>
      </trkpt>
      <trkpt lat="49.06904" lon="-1.60782">
        <ele>8.062288</ele>
        <time>2015-06-03T12:58:16Z</time>
      </trkpt>
      <trkpt lat="49.06903" lon="-1.6078">
        <ele>8.062288</ele>
        <time>2015-06-03T12:58:21Z</time>
      </trkpt>
      <trkpt lat="49.06903" lon="-1.60781">
        <ele>8.062288</ele>
        <time>2015-06-03T12:58:26Z</time>
      </trkpt>
      <trkpt lat="49.06903" lon="-1.60782">
        <ele>8.062288</ele>
        <time>2015-06-03T12:58:31Z</time>
      </trkpt>
      <trkpt lat="49.06903" lon="-1.60783">
        <ele>8.062288</ele>
        <time>2015-06-03T12:58:36Z</time>
      </trkpt>
      <trkpt lat="49.06903" lon="-1.60783">
        <ele>8.062288</ele>
        <time>2015-06-03T12:58:41Z</time>
      </trkpt>
      <trkpt lat="49.06903" lon="-1.60782">
        <ele>8.062288</ele>
        <time>2015-06-03T12:58:46Z</time>
      </trkpt>
      <trkpt lat="49.06904" lon="-1.60781">
        <ele>7.624823</ele>
        <time>2015-06-03T12:58:51Z</time>
      </trkpt>
      <trkpt lat="49.06904" lon="-1.60781">
        <ele>7.624823</ele>
        <time>2015-06-03T12:58:56Z</time>
      </trkpt>
      <trkpt lat="49.06904" lon="-1.60781">
        <ele>7.624823</ele>
        <time>2015-06-03T12:59:01Z</time>
      </trkpt>
      <trkpt lat="49.06905" lon="-1.60781">
        <ele>7.624823</ele>
        <time>2015-06-03T12:59:06Z</time>
      </trkpt>
      <trkpt lat="49.06905" lon="-1.60782">
        <ele>7.624823</ele>
        <time>2015-06-03T12:59:11Z</time>
      </trkpt>
      <trkpt lat="49.06905" lon="-1.60781">
        <ele>7.624823</ele>
        <time>2015-06-03T12:59:16Z</time>
      </trkpt>
      <trkpt lat="49.06904" lon="-1.60782">
        <ele>7.624823</ele>
        <time>2015-06-03T12:59:21Z</time>
      </trkpt>
      <trkpt lat="49.06904" lon="-1.60782">
        <ele>7.624823</ele>
        <time>2015-06-03T12:59:26Z</time>
      </trkpt>
      <trkpt lat="49.06904" lon="-1.60782">
        <ele>7.624823</ele>
        <time>2015-06-03T12:59:31Z</time>
      </trkpt>
      <trkpt lat="49.06904" lon="-1.60782">
        <ele>7.624823</ele>
        <time>2015-06-03T12:59:36Z</time>
      </trkpt>
      <trkpt lat="49.06904" lon="-1.60782">
        <ele>7.624823</ele>
        <time>2015-06-03T12:59:41Z</time>
      </trkpt>
      <trkpt lat="49.06904" lon="-1.60783">
        <ele>7.624823</ele>
        <time>2015-06-03T12:59:46Z</time>
      </trkpt>
      <trkpt lat="49.06904" lon="-1.60783">
        <ele>7.624823</ele>
        <time>2015-06-03T12:59:51Z</time>
      </trkpt>
      <trkpt lat="49.06904" lon="-1.60783">
        <ele>7.624823</ele>
        <time>2015-06-03T12:59:56Z</time>
      </trkpt>
      <trkpt lat="49.06904" lon="-1.60783">
        <ele>7.624823</ele>
        <time>2015-06-03T13:00:01Z</time>
      </trkpt>
      <trkpt lat="49.06904" lon="-1.60783">
        <ele>7.624823</ele>
        <time>2015-06-03T13:00:06Z</time>
      </trkpt>
      <trkpt lat="49.06904" lon="-1.60782">
        <ele>7.624823</ele>
        <time>2015-06-03T13:00:11Z</time>
      </trkpt>
      <trkpt lat="49.06904" lon="-1.60782">
        <ele>7.624823</ele>
        <time>2015-06-03T13:00:16Z</time>
      </trkpt>
      <trkpt lat="49.06904" lon="-1.60781">
        <ele>7.624823</ele>
        <time>2015-06-03T13:00:21Z</time>
      </trkpt>
      <trkpt lat="49.06904" lon="-1.60781">
        <ele>7.624823</ele>
        <time>2015-06-03T13:00:26Z</time>
      </trkpt>
      <trkpt lat="49.06904" lon="-1.6078">
        <ele>7.321968</ele>
        <time>2015-06-03T13:00:31Z</time>
      </trkpt>
      <trkpt lat="49.06904" lon="-1.6078">
        <ele>7.321968</ele>
        <time>2015-06-03T13:00:36Z</time>
      </trkpt>
      <trkpt lat="49.06904" lon="-1.6078">
        <ele>7.321968</ele>
        <time>2015-06-03T13:00:41Z</time>
      </trkpt>
      <trkpt lat="49.06904" lon="-1.6078">
        <ele>7.321968</ele>
        <time>2015-06-03T13:00:46Z</time>
      </trkpt>
      <trkpt lat="49.06904" lon="-1.60779">
        <ele>7.321968</ele>
        <time>2015-06-03T13:00:51Z</time>
      </trkpt>
      <trkpt lat="49.06904" lon="-1.60779">
        <ele>7.321968</ele>
        <time>2015-06-03T13:00:56Z</time>
      </trkpt>
      <trkpt lat="49.06903" lon="-1.60781">
        <ele>7.321968</ele>
        <time>2015-06-03T13:01:01Z</time>
      </trkpt>
      <trkpt lat="49.06903" lon="-1.60781">
        <ele>7.321968</ele>
        <time>2015-06-03T13:01:06Z</time>
      </trkpt>
      <trkpt lat="49.06904" lon="-1.60782">
        <ele>7.321968</ele>
        <time>2015-06-03T13:01:11Z</time>
      </trkpt>
      <trkpt lat="49.06906" lon="-1.60781">
        <ele>7.321968</ele>
        <time>2015-06-03T13:01:16Z</time>
      </trkpt>
      <trkpt lat="49.06905" lon="-1.60782">
        <ele>7.321968</ele>
        <time>2015-06-03T13:01:21Z</time>
      </trkpt>
      <trkpt lat="49.06904" lon="-1.60783">
        <ele>7.321968</ele>
        <time>2015-06-03T13:01:26Z</time>
      </trkpt>
      <trkpt lat="49.06904" lon="-1.60783">
        <ele>7.1015344</ele>
        <time>2015-06-03T13:01:31Z</time>
      </trkpt>
      <trkpt lat="49.06904" lon="-1.60783">
        <ele>7.1015344</ele>
        <time>2015-06-03T13:01:36Z</time>
      </trkpt>
      <trkpt lat="49.06904" lon="-1.60783">
        <ele>7.1015344</ele>
        <time>2015-06-03T13:01:41Z</time>
      </trkpt>
      <trkpt lat="49.06903" lon="-1.60783">
        <ele>7.1015344</ele>
        <time>2015-06-03T13:01:46Z</time>
      </trkpt>
      <trkpt lat="49.06904" lon="-1.60783">
        <ele>7.1015344</ele>
        <time>2015-06-03T13:01:51Z</time>
      </trkpt>
      <trkpt lat="49.06904" lon="-1.60784">
        <ele>7.1015344</ele>
        <time>2015-06-03T13:01:56Z</time>
      </trkpt>
      <trkpt lat="49.06905" lon="-1.60783">
        <ele>7.1015344</ele>
        <time>2015-06-03T13:02:01Z</time>
      </trkpt>
      <trkpt lat="49.06905" lon="-1.60783">
        <ele>7.1015344</ele>
        <time>2015-06-03T13:02:06Z</time>
      </trkpt>
      <trkpt lat="49.06905" lon="-1.60783">
        <ele>7.1015344</ele>
        <time>2015-06-03T13:02:11Z</time>
      </trkpt>
      <trkpt lat="49.06905" lon="-1.60783">
        <ele>7.1015344</ele>
        <time>2015-06-03T13:02:16Z</time>
      </trkpt>
      <trkpt lat="49.06904" lon="-1.60784">
        <ele>7.1015344</ele>
        <time>2015-06-03T13:02:21Z</time>
      </trkpt>
      <trkpt lat="49.06904" lon="-1.60783">
        <ele>7.1015344</ele>
        <time>2015-06-03T13:02:26Z</time>
      </trkpt>
      <trkpt lat="49.06904" lon="-1.60782">
        <ele>7.1015344</ele>
        <time>2015-06-03T13:02:31Z</time>
      </trkpt>
      <trkpt lat="49.06904" lon="-1.60783">
        <ele>7.1015344</ele>
        <time>2015-06-03T13:02:36Z</time>
      </trkpt>
      <trkpt lat="49.06905" lon="-1.60783">
        <ele>7.1015344</ele>
        <time>2015-06-03T13:02:41Z</time>
      </trkpt>
      <trkpt lat="49.06905" lon="-1.60782">
        <ele>7.1015344</ele>
        <time>2015-06-03T13:02:46Z</time>
      </trkpt>
      <trkpt lat="49.06905" lon="-1.60782">
        <ele>7.1015344</ele>
        <time>2015-06-03T13:02:51Z</time>
      </trkpt>
      <trkpt lat="49.06905" lon="-1.60782">
        <ele>6.9581566</ele>
        <time>2015-06-03T13:02:56Z</time>
      </trkpt>
      <trkpt lat="49.06906" lon="-1.60783">
        <ele>6.9581566</ele>
        <time>2015-06-03T13:03:01Z</time>
      </trkpt>
      <trkpt lat="49.06907" lon="-1.60784">
        <ele>6.9581566</ele>
        <time>2015-06-03T13:03:06Z</time>
      </trkpt>
      <trkpt lat="49.06906" lon="-1.60784">
        <ele>6.9581566</ele>
        <time>2015-06-03T13:03:11Z</time>
      </trkpt>
      <trkpt lat="49.06906" lon="-1.60783">
        <ele>6.9581566</ele>
        <time>2015-06-03T13:03:16Z</time>
      </trkpt>
      <trkpt lat="49.06905" lon="-1.60783">
        <ele>6.9581566</ele>
        <time>2015-06-03T13:03:21Z</time>
      </trkpt>
      <trkpt lat="49.06905" lon="-1.60782">
        <ele>6.9581566</ele>
        <time>2015-06-03T13:03:26Z</time>
      </trkpt>
      <trkpt lat="49.06905" lon="-1.60782">
        <ele>6.9581566</ele>
        <time>2015-06-03T13:03:31Z</time>
      </trkpt>
      <trkpt lat="49.06905" lon="-1.60782">
        <ele>6.9581566</ele>
        <time>2015-06-03T13:03:36Z</time>
      </trkpt>
      <trkpt lat="49.06905" lon="-1.60781">
        <ele>6.9581566</ele>
        <time>2015-06-03T13:03:41Z</time>
      </trkpt>
      <trkpt lat="49.06904" lon="-1.6078">
        <ele>6.9581566</ele>
        <time>2015-06-03T13:03:46Z</time>
      </trkpt>
      <trkpt lat="49.06904" lon="-1.6078">
        <ele>6.9581566</ele>
        <time>2015-06-03T13:03:51Z</time>
      </trkpt>
      <trkpt lat="49.06904" lon="-1.6078">
        <ele>6.9581566</ele>
        <time>2015-06-03T13:03:56Z</time>
      </trkpt>
      <trkpt lat="49.06904" lon="-1.60781">
        <ele>6.9581566</ele>
        <time>2015-06-03T13:04:01Z</time>
      </trkpt>
      <trkpt lat="49.06904" lon="-1.60781">
        <ele>6.9581566</ele>
        <time>2015-06-03T13:04:06Z</time>
      </trkpt>
      <trkpt lat="49.06903" lon="-1.60781">
        <ele>6.9581566</ele>
        <time>2015-06-03T13:04:11Z</time>
      </trkpt>
      <trkpt lat="49.06904" lon="-1.60782">
        <ele>6.9581566</ele>
        <time>2015-06-03T13:04:16Z</time>
      </trkpt>
      <trkpt lat="49.06905" lon="-1.60782">
        <ele>6.85781</ele>
        <time>2015-06-03T13:04:21Z</time>
      </trkpt>
      <trkpt lat="49.06905" lon="-1.60782">
        <ele>6.85781</ele>
        <time>2015-06-03T13:04:26Z</time>
      </trkpt>
      <trkpt lat="49.06905" lon="-1.60782">
        <ele>6.85781</ele>
        <time>2015-06-03T13:04:31Z</time>
      </trkpt>
      <trkpt lat="49.06905" lon="-1.60781">
        <ele>6.85781</ele>
        <time>2015-06-03T13:04:36Z</time>
      </trkpt>
      <trkpt lat="49.06905" lon="-1.60781">
        <ele>6.85781</ele>
        <time>2015-06-03T13:04:41Z</time>
      </trkpt>
      <trkpt lat="49.06904" lon="-1.60781">
        <ele>6.85781</ele>
        <time>2015-06-03T13:04:46Z</time>
      </trkpt>
      <trkpt lat="49.06904" lon="-1.6078">
        <ele>6.85781</ele>
        <time>2015-06-03T13:04:51Z</time>
      </trkpt>
      <trkpt lat="49.06904" lon="-1.6078">
        <ele>6.85781</ele>
        <time>2015-06-03T13:04:56Z</time>
      </trkpt>
      <trkpt lat="49.06903" lon="-1.6078">
        <ele>6.85781</ele>
        <time>2015-06-03T13:05:01Z</time>
      </trkpt>
      <trkpt lat="49.06903" lon="-1.6078">
        <ele>6.85781</ele>
        <time>2015-06-03T13:05:06Z</time>
      </trkpt>
      <trkpt lat="49.06903" lon="-1.60781">
        <ele>6.85781</ele>
        <time>2015-06-03T13:05:11Z</time>
      </trkpt>
      <trkpt lat="49.06903" lon="-1.60781">
        <ele>6.85781</ele>
        <time>2015-06-03T13:05:16Z</time>
      </trkpt>
      <trkpt lat="49.06904" lon="-1.60781">
        <ele>6.85781</ele>
        <time>2015-06-03T13:05:21Z</time>
      </trkpt>
      <trkpt lat="49.06904" lon="-1.60782">
        <ele>6.85781</ele>
        <time>2015-06-03T13:05:26Z</time>
      </trkpt>
      <trkpt lat="49.06904" lon="-1.60781">
        <ele>6.85781</ele>
        <time>2015-06-03T13:05:31Z</time>
      </trkpt>
      <trkpt lat="49.06904" lon="-1.60782">
        <ele>6.85781</ele>
        <time>2015-06-03T13:05:36Z</time>
      </trkpt>
      <trkpt lat="49.06904" lon="-1.60782">
        <ele>6.85781</ele>
        <time>2015-06-03T13:05:41Z</time>
      </trkpt>
      <trkpt lat="49.06904" lon="-1.60781">
        <ele>6.85781</ele>
        <time>2015-06-03T13:05:46Z</time>
      </trkpt>
      <trkpt lat="49.06904" lon="-1.60781">
        <ele>6.85781</ele>
        <time>2015-06-03T13:05:51Z</time>
      </trkpt>
      <trkpt lat="49.06905" lon="-1.60781">
        <ele>6.85781</ele>
        <time>2015-06-03T13:05:56Z</time>
      </trkpt>
      <trkpt lat="49.06905" lon="-1.60781">
        <ele>6.85781</ele>
        <time>2015-06-03T13:06:01Z</time>
      </trkpt>
      <trkpt lat="49.06904" lon="-1.60781">
        <ele>6.826478</ele>
        <time>2015-06-03T13:06:06Z</time>
      </trkpt>
      <trkpt lat="49.06904" lon="-1.60782">
        <ele>6.826478</ele>
        <time>2015-06-03T13:06:11Z</time>
      </trkpt>
      <trkpt lat="49.06904" lon="-1.60782">
        <ele>6.826478</ele>
        <time>2015-06-03T13:06:16Z</time>
      </trkpt>
      <trkpt lat="49.06904" lon="-1.60781">
        <ele>6.826478</ele>
        <time>2015-06-03T13:06:21Z</time>
      </trkpt>
      <trkpt lat="49.06903" lon="-1.60781">
        <ele>6.826478</ele>
        <time>2015-06-03T13:06:26Z</time>
      </trkpt>
      <trkpt lat="49.06903" lon="-1.60782">
        <ele>6.826478</ele>
        <time>2015-06-03T13:06:31Z</time>
      </trkpt>
      <trkpt lat="49.06903" lon="-1.60783">
        <ele>6.826478</ele>
        <time>2015-06-03T13:06:36Z</time>
      </trkpt>
      <trkpt lat="49.06903" lon="-1.60783">
        <ele>6.826478</ele>
        <time>2015-06-03T13:06:41Z</time>
      </trkpt>
      <trkpt lat="49.06903" lon="-1.60782">
        <ele>6.826478</ele>
        <time>2015-06-03T13:06:46Z</time>
      </trkpt>
      <trkpt lat="49.06903" lon="-1.60782">
        <ele>6.826478</ele>
        <time>2015-06-03T13:06:51Z</time>
      </trkpt>
      <trkpt lat="49.06904" lon="-1.60781">
        <ele>6.826478</ele>
        <time>2015-06-03T13:06:56Z</time>
      </trkpt>
      <trkpt lat="49.06904" lon="-1.6078">
        <ele>6.826478</ele>
        <time>2015-06-03T13:07:01Z</time>
      </trkpt>
      <trkpt lat="49.06904" lon="-1.6078">
        <ele>6.826478</ele>
        <time>2015-06-03T13:07:06Z</time>
      </trkpt>
      <trkpt lat="49.06904" lon="-1.6078">
        <ele>6.826478</ele>
        <time>2015-06-03T13:07:11Z</time>
      </trkpt>
      <trkpt lat="49.06905" lon="-1.6078">
        <ele>6.826478</ele>
        <time>2015-06-03T13:07:16Z</time>
      </trkpt>
      <trkpt lat="49.06905" lon="-1.60781">
        <ele>6.826478</ele>
        <time>2015-06-03T13:07:21Z</time>
      </trkpt>
      <trkpt lat="49.06905" lon="-1.60781">
        <ele>6.826478</ele>
        <time>2015-06-03T13:07:26Z</time>
      </trkpt>
      <trkpt lat="49.06905" lon="-1.60782">
        <ele>6.826478</ele>
        <time>2015-06-03T13:07:31Z</time>
      </trkpt>
      <trkpt lat="49.06905" lon="-1.60782">
        <ele>6.826478</ele>
        <time>2015-06-03T13:07:36Z</time>
      </trkpt>
      <trkpt lat="49.06904" lon="-1.60781">
        <ele>6.826478</ele>
        <time>2015-06-03T13:07:41Z</time>
      </trkpt>
      <trkpt lat="49.06903" lon="-1.60781">
        <ele>6.8159714</ele>
        <time>2015-06-03T13:07:46Z</time>
      </trkpt>
      <trkpt lat="49.06903" lon="-1.60782">
        <ele>6.8159714</ele>
        <time>2015-06-03T13:07:51Z</time>
      </trkpt>
      <trkpt lat="49.06904" lon="-1.60781">
        <ele>6.8159714</ele>
        <time>2015-06-03T13:07:56Z</time>
      </trkpt>
      <trkpt lat="49.06903" lon="-1.60782">
        <ele>6.8159714</ele>
        <time>2015-06-03T13:08:01Z</time>
      </trkpt>
      <trkpt lat="49.06904" lon="-1.60781">
        <ele>6.8159714</ele>
        <time>2015-06-03T13:08:06Z</time>
      </trkpt>
      <trkpt lat="49.06904" lon="-1.60783">
        <ele>6.8159714</ele>
        <time>2015-06-03T13:08:11Z</time>
      </trkpt>
      <trkpt lat="49.06904" lon="-1.60783">
        <ele>6.8159714</ele>
        <time>2015-06-03T13:08:16Z</time>
      </trkpt>
      <trkpt lat="49.06903" lon="-1.60783">
        <ele>6.8159714</ele>
        <time>2015-06-03T13:08:21Z</time>
      </trkpt>
      <trkpt lat="49.06903" lon="-1.60783">
        <ele>6.8159714</ele>
        <time>2015-06-03T13:08:26Z</time>
      </trkpt>
      <trkpt lat="49.06904" lon="-1.60782">
        <ele>6.8159714</ele>
        <time>2015-06-03T13:08:31Z</time>
      </trkpt>
      <trkpt lat="49.06904" lon="-1.60782">
        <ele>6.8159714</ele>
        <time>2015-06-03T13:08:36Z</time>
      </trkpt>
      <trkpt lat="49.06904" lon="-1.60782">
        <ele>6.8159714</ele>
        <time>2015-06-03T13:08:41Z</time>
      </trkpt>
      <trkpt lat="49.06904" lon="-1.60782">
        <ele>6.8159714</ele>
        <time>2015-06-03T13:08:46Z</time>
      </trkpt>
      <trkpt lat="49.06904" lon="-1.60782">
        <ele>6.8159714</ele>
        <time>2015-06-03T13:08:51Z</time>
      </trkpt>
      <trkpt lat="49.06903" lon="-1.60782">
        <ele>6.8159714</ele>
        <time>2015-06-03T13:08:56Z</time>
      </trkpt>
      <trkpt lat="49.06904" lon="-1.60784">
        <ele>6.8536243</ele>
        <time>2015-06-03T13:09:01Z</time>
      </trkpt>
      <trkpt lat="49.06904" lon="-1.60783">
        <ele>6.8536243</ele>
        <time>2015-06-03T13:09:06Z</time>
      </trkpt>
      <trkpt lat="49.06904" lon="-1.60783">
        <ele>6.8536243</ele>
        <time>2015-06-03T13:09:11Z</time>
      </trkpt>
      <trkpt lat="49.06904" lon="-1.60783">
        <ele>6.8536243</ele>
        <time>2015-06-03T13:09:16Z</time>
      </trkpt>
      <trkpt lat="49.06904" lon="-1.60782">
        <ele>6.8536243</ele>
        <time>2015-06-03T13:09:21Z</time>
      </trkpt>
      <trkpt lat="49.06903" lon="-1.60782">
        <ele>6.8536243</ele>
        <time>2015-06-03T13:09:26Z</time>
      </trkpt>
      <trkpt lat="49.06904" lon="-1.60781">
        <ele>6.8536243</ele>
        <time>2015-06-03T13:09:31Z</time>
      </trkpt>
      <trkpt lat="49.06904" lon="-1.6078">
        <ele>6.8536243</ele>
        <time>2015-06-03T13:09:36Z</time>
      </trkpt>
      <trkpt lat="49.06904" lon="-1.60781">
        <ele>6.8536243</ele>
        <time>2015-06-03T13:09:41Z</time>
      </trkpt>
      <trkpt lat="49.06904" lon="-1.60782">
        <ele>6.8536243</ele>
        <time>2015-06-03T13:09:46Z</time>
      </trkpt>
      <trkpt lat="49.06904" lon="-1.60781">
        <ele>6.8536243</ele>
        <time>2015-06-03T13:09:51Z</time>
      </trkpt>
      <trkpt lat="49.06904" lon="-1.60782">
        <ele>6.8536243</ele>
        <time>2015-06-03T13:09:56Z</time>
      </trkpt>
      <trkpt lat="49.06905" lon="-1.60782">
        <ele>6.8536243</ele>
        <time>2015-06-03T13:10:01Z</time>
      </trkpt>
      <trkpt lat="49.06905" lon="-1.60782">
        <ele>6.8536243</ele>
        <time>2015-06-03T13:10:06Z</time>
      </trkpt>
      <trkpt lat="49.06904" lon="-1.60782">
        <ele>6.8536243</ele>
        <time>2015-06-03T13:10:11Z</time>
      </trkpt>
      <trkpt lat="49.06904" lon="-1.60782">
        <ele>6.8536243</ele>
        <time>2015-06-03T13:10:16Z</time>
      </trkpt>
      <trkpt lat="49.06905" lon="-1.60782">
        <ele>6.8536243</ele>
        <time>2015-06-03T13:10:21Z</time>
      </trkpt>
      <trkpt lat="49.06905" lon="-1.60782">
        <ele>6.8536243</ele>
        <time>2015-06-03T13:10:26Z</time>
      </trkpt>
      <trkpt lat="49.06905" lon="-1.60781">
        <ele>6.8536243</ele>
        <time>2015-06-03T13:10:31Z</time>
      </trkpt>
      <trkpt lat="49.06905" lon="-1.60782">
        <ele>6.8536243</ele>
        <time>2015-06-03T13:10:36Z</time>
      </trkpt>
      <trkpt lat="49.06905" lon="-1.60781">
        <ele>6.8536243</ele>
        <time>2015-06-03T13:10:41Z</time>
      </trkpt>
      <trkpt lat="49.06905" lon="-1.60781">
        <ele>6.892558</ele>
        <time>2015-06-03T13:10:46Z</time>
      </trkpt>
      <trkpt lat="49.06904" lon="-1.6078">
        <ele>6.892558</ele>
        <time>2015-06-03T13:10:51Z</time>
      </trkpt>
      <trkpt lat="49.06904" lon="-1.6078">
        <ele>6.892558</ele>
        <time>2015-06-03T13:10:56Z</time>
      </trkpt>
      <trkpt lat="49.06903" lon="-1.6078">
        <ele>6.892558</ele>
        <time>2015-06-03T13:11:01Z</time>
      </trkpt>
      <trkpt lat="49.06903" lon="-1.60781">
        <ele>6.892558</ele>
        <time>2015-06-03T13:11:06Z</time>
      </trkpt>
      <trkpt lat="49.06903" lon="-1.60781">
        <ele>6.892558</ele>
        <time>2015-06-03T13:11:11Z</time>
      </trkpt>
      <trkpt lat="49.06904" lon="-1.60781">
        <ele>6.892558</ele>
        <time>2015-06-03T13:11:16Z</time>
      </trkpt>
      <trkpt lat="49.06904" lon="-1.60781">
        <ele>6.892558</ele>
        <time>2015-06-03T13:11:21Z</time>
      </trkpt>
      <trkpt lat="49.06904" lon="-1.60779">
        <ele>6.892558</ele>
        <time>2015-06-03T13:11:26Z</time>
      </trkpt>
      <trkpt lat="49.06903" lon="-1.60778">
        <ele>6.892558</ele>
        <time>2015-06-03T13:11:31Z</time>
      </trkpt>
      <trkpt lat="49.06903" lon="-1.60777">
        <ele>6.892558</ele>
        <time>2015-06-03T13:11:36Z</time>
      </trkpt>
      <trkpt lat="49.06903" lon="-1.60777">
        <ele>6.892558</ele>
        <time>2015-06-03T13:11:41Z</time>
      </trkpt>
      <trkpt lat="49.06902" lon="-1.60778">
        <ele>6.892558</ele>
        <time>2015-06-03T13:11:46Z</time>
      </trkpt>
      <trkpt lat="49.06903" lon="-1.60778">
        <ele>6.892558</ele>
        <time>2015-06-03T13:11:51Z</time>
      </trkpt>
      <trkpt lat="49.06903" lon="-1.60778">
        <ele>7.0334344</ele>
        <time>2015-06-03T13:11:56Z</time>
      </trkpt>
      <trkpt lat="49.06903" lon="-1.60777">
        <ele>7.0334344</ele>
        <time>2015-06-03T13:12:01Z</time>
      </trkpt>
      <trkpt lat="49.06904" lon="-1.60777">
        <ele>7.0334344</ele>
        <time>2015-06-03T13:12:06Z</time>
      </trkpt>
      <trkpt lat="49.06903" lon="-1.60777">
        <ele>7.0334344</ele>
        <time>2015-06-03T13:12:11Z</time>
      </trkpt>
      <trkpt lat="49.06903" lon="-1.60777">
        <ele>7.0334344</ele>
        <time>2015-06-03T13:12:16Z</time>
      </trkpt>
      <trkpt lat="49.06903" lon="-1.60777">
        <ele>7.0334344</ele>
        <time>2015-06-03T13:12:21Z</time>
      </trkpt>
      <trkpt lat="49.06902" lon="-1.60777">
        <ele>7.0334344</ele>
        <time>2015-06-03T13:12:26Z</time>
      </trkpt>
      <trkpt lat="49.06902" lon="-1.60775">
        <ele>7.0334344</ele>
        <time>2015-06-03T13:12:31Z</time>
      </trkpt>
      <trkpt lat="49.06901" lon="-1.60774">
        <ele>7.0334344</ele>
        <time>2015-06-03T13:12:36Z</time>
      </trkpt>
      <trkpt lat="49.069" lon="-1.6077">
        <ele>7.0334344</ele>
        <time>2015-06-03T13:12:41Z</time>
      </trkpt>
      <trkpt lat="49.06896" lon="-1.60766">
        <ele>7.1674676</ele>
        <time>2015-06-03T13:12:46Z</time>
      </trkpt>
      <trkpt lat="49.06893" lon="-1.60763">
        <ele>7.1674676</ele>
        <time>2015-06-03T13:12:51Z</time>
      </trkpt>
      <trkpt lat="49.06889" lon="-1.60758">
        <ele>7.1674676</ele>
        <time>2015-06-03T13:12:56Z</time>
      </trkpt>
      <trkpt lat="49.06887" lon="-1.60754">
        <ele>7.410042</ele>
        <time>2015-06-03T13:13:01Z</time>
      </trkpt>
      <trkpt lat="49.06882" lon="-1.60747">
        <ele>7.410042</ele>
        <time>2015-06-03T13:13:06Z</time>
      </trkpt>
      <trkpt lat="49.06877" lon="-1.60742">
        <ele>7.5507083</ele>
        <time>2015-06-03T13:13:11Z</time>
      </trkpt>
      <trkpt lat="49.06872" lon="-1.60738">
        <ele>7.5507083</ele>
        <time>2015-06-03T13:13:16Z</time>
      </trkpt>
      <trkpt lat="49.06868" lon="-1.60733">
        <ele>7.65416</ele>
        <time>2015-06-03T13:13:21Z</time>
      </trkpt>
      <trkpt lat="49.06863" lon="-1.60728">
        <ele>7.65416</ele>
        <time>2015-06-03T13:13:26Z</time>
      </trkpt>
      <trkpt lat="49.0686" lon="-1.60722">
        <ele>7.79485</ele>
        <time>2015-06-03T13:13:31Z</time>
      </trkpt>
      <trkpt lat="49.06853" lon="-1.60721">
        <ele>7.79485</ele>
        <time>2015-06-03T13:13:36Z</time>
      </trkpt>
      <trkpt lat="49.06847" lon="-1.60719">
        <ele>8.027245</ele>
        <time>2015-06-03T13:13:41Z</time>
      </trkpt>
      <trkpt lat="49.06841" lon="-1.60717">
        <ele>8.027245</ele>
        <time>2015-06-03T13:13:46Z</time>
      </trkpt>
      <trkpt lat="49.06835" lon="-1.60713">
        <ele>8.358322</ele>
        <time>2015-06-03T13:13:51Z</time>
      </trkpt>
      <trkpt lat="49.0683" lon="-1.6071">
        <ele>8.358322</ele>
        <time>2015-06-03T13:13:56Z</time>
      </trkpt>
      <trkpt lat="49.06824" lon="-1.60706">
        <ele>8.779859</ele>
        <time>2015-06-03T13:14:01Z</time>
      </trkpt>
      <trkpt lat="49.06819" lon="-1.607">
        <ele>8.779859</ele>
        <time>2015-06-03T13:14:06Z</time>
      </trkpt>
      <trkpt lat="49.06814" lon="-1.60696">
        <ele>9.211934</ele>
        <time>2015-06-03T13:14:11Z</time>
      </trkpt>
      <trkpt lat="49.06809" lon="-1.60691">
        <ele>9.211934</ele>
        <time>2015-06-03T13:14:16Z</time>
      </trkpt>
      <trkpt lat="49.06805" lon="-1.60685">
        <ele>9.710177</ele>
        <time>2015-06-03T13:14:21Z</time>
      </trkpt>
      <trkpt lat="49.068" lon="-1.60679">
        <ele>9.710177</ele>
        <time>2015-06-03T13:14:26Z</time>
      </trkpt>
      <trkpt lat="49.06796" lon="-1.60675">
        <ele>10.181845</ele>
        <time>2015-06-03T13:14:31Z</time>
      </trkpt>
      <trkpt lat="49.06791" lon="-1.60668">
        <ele>10.181845</ele>
        <time>2015-06-03T13:14:36Z</time>
      </trkpt>
      <trkpt lat="49.06788" lon="-1.60661">
        <ele>10.58433</ele>
        <time>2015-06-03T13:14:41Z</time>
      </trkpt>
      <trkpt lat="49.06785" lon="-1.60655">
        <ele>10.58433</ele>
        <time>2015-06-03T13:14:46Z</time>
      </trkpt>
      <trkpt lat="49.06785" lon="-1.6065">
        <ele>10.58433</ele>
        <time>2015-06-03T13:14:51Z</time>
      </trkpt>
      <trkpt lat="49.06784" lon="-1.6065">
        <ele>10.9071865</ele>
        <time>2015-06-03T13:14:56Z</time>
      </trkpt>
      <trkpt lat="49.06783" lon="-1.6065">
        <ele>10.9071865</ele>
        <time>2015-06-03T13:15:01Z</time>
      </trkpt>
      <trkpt lat="49.06783" lon="-1.60648">
        <ele>10.9071865</ele>
        <time>2015-06-03T13:15:06Z</time>
      </trkpt>
      <trkpt lat="49.06782" lon="-1.60644">
        <ele>10.9071865</ele>
        <time>2015-06-03T13:15:11Z</time>
      </trkpt>
      <trkpt lat="49.06782" lon="-1.60645">
        <ele>10.9071865</ele>
        <time>2015-06-03T13:15:16Z</time>
      </trkpt>
      <trkpt lat="49.06782" lon="-1.60645">
        <ele>10.9071865</ele>
        <time>2015-06-03T13:15:21Z</time>
      </trkpt>
      <trkpt lat="49.06782" lon="-1.60644">
        <ele>10.9071865</ele>
        <time>2015-06-03T13:15:26Z</time>
      </trkpt>
      <trkpt lat="49.06781" lon="-1.60644">
        <ele>10.9071865</ele>
        <time>2015-06-03T13:15:31Z</time>
      </trkpt>
      <trkpt lat="49.06781" lon="-1.60645">
        <ele>10.9071865</ele>
        <time>2015-06-03T13:15:36Z</time>
      </trkpt>
      <trkpt lat="49.06781" lon="-1.60645">
        <ele>10.9071865</ele>
        <time>2015-06-03T13:15:41Z</time>
      </trkpt>
      <trkpt lat="49.06781" lon="-1.60646">
        <ele>10.9071865</ele>
        <time>2015-06-03T13:15:46Z</time>
      </trkpt>
      <trkpt lat="49.06781" lon="-1.60647">
        <ele>11.2418585</ele>
        <time>2015-06-03T13:15:51Z</time>
      </trkpt>
      <trkpt lat="49.06781" lon="-1.60647">
        <ele>11.2418585</ele>
        <time>2015-06-03T13:15:56Z</time>
      </trkpt>
      <trkpt lat="49.06781" lon="-1.60647">
        <ele>11.2418585</ele>
        <time>2015-06-03T13:16:01Z</time>
      </trkpt>
      <trkpt lat="49.06781" lon="-1.60647">
        <ele>11.2418585</ele>
        <time>2015-06-03T13:16:06Z</time>
      </trkpt>
      <trkpt lat="49.0678" lon="-1.60646">
        <ele>11.2418585</ele>
        <time>2015-06-03T13:16:11Z</time>
      </trkpt>
      <trkpt lat="49.06779" lon="-1.60644">
        <ele>11.2418585</ele>
        <time>2015-06-03T13:16:16Z</time>
      </trkpt>
      <trkpt lat="49.06779" lon="-1.60644">
        <ele>11.2418585</ele>
        <time>2015-06-03T13:16:21Z</time>
      </trkpt>
      <trkpt lat="49.0678" lon="-1.60644">
        <ele>11.2418585</ele>
        <time>2015-06-03T13:16:26Z</time>
      </trkpt>
      <trkpt lat="49.0678" lon="-1.60643">
        <ele>11.2418585</ele>
        <time>2015-06-03T13:16:31Z</time>
      </trkpt>
      <trkpt lat="49.0678" lon="-1.60643">
        <ele>11.2418585</ele>
        <time>2015-06-03T13:16:36Z</time>
      </trkpt>
      <trkpt lat="49.0678" lon="-1.60643">
        <ele>11.2418585</ele>
        <time>2015-06-03T13:16:41Z</time>
      </trkpt>
      <trkpt lat="49.0678" lon="-1.60643">
        <ele>11.2418585</ele>
        <time>2015-06-03T13:16:46Z</time>
      </trkpt>
      <trkpt lat="49.06779" lon="-1.60644">
        <ele>11.2418585</ele>
        <time>2015-06-03T13:16:51Z</time>
      </trkpt>
      <trkpt lat="49.0678" lon="-1.60644">
        <ele>11.2418585</ele>
        <time>2015-06-03T13:16:56Z</time>
      </trkpt>
      <trkpt lat="49.0678" lon="-1.60645">
        <ele>11.2418585</ele>
        <time>2015-06-03T13:17:01Z</time>
      </trkpt>
      <trkpt lat="49.0678" lon="-1.60646">
        <ele>11.514538</ele>
        <time>2015-06-03T13:17:06Z</time>
      </trkpt>
      <trkpt lat="49.06781" lon="-1.60645">
        <ele>11.514538</ele>
        <time>2015-06-03T13:17:11Z</time>
      </trkpt>
      <trkpt lat="49.06781" lon="-1.60646">
        <ele>11.514538</ele>
        <time>2015-06-03T13:17:16Z</time>
      </trkpt>
      <trkpt lat="49.06781" lon="-1.60646">
        <ele>11.514538</ele>
        <time>2015-06-03T13:17:21Z</time>
      </trkpt>
      <trkpt lat="49.06781" lon="-1.60646">
        <ele>11.514538</ele>
        <time>2015-06-03T13:17:26Z</time>
      </trkpt>
      <trkpt lat="49.06781" lon="-1.60646">
        <ele>11.514538</ele>
        <time>2015-06-03T13:17:31Z</time>
      </trkpt>
      <trkpt lat="49.06781" lon="-1.60645">
        <ele>11.514538</ele>
        <time>2015-06-03T13:17:36Z</time>
      </trkpt>
      <trkpt lat="49.06782" lon="-1.60645">
        <ele>11.514538</ele>
        <time>2015-06-03T13:17:41Z</time>
      </trkpt>
      <trkpt lat="49.06782" lon="-1.60645">
        <ele>11.514538</ele>
        <time>2015-06-03T13:17:46Z</time>
      </trkpt>
      <trkpt lat="49.06781" lon="-1.60647">
        <ele>11.514538</ele>
        <time>2015-06-03T13:17:51Z</time>
      </trkpt>
      <trkpt lat="49.06781" lon="-1.60647">
        <ele>11.514538</ele>
        <time>2015-06-03T13:17:56Z</time>
      </trkpt>
      <trkpt lat="49.06782" lon="-1.60646">
        <ele>11.514538</ele>
        <time>2015-06-03T13:18:01Z</time>
      </trkpt>
      <trkpt lat="49.06781" lon="-1.60646">
        <ele>11.514538</ele>
        <time>2015-06-03T13:18:06Z</time>
      </trkpt>
      <trkpt lat="49.06782" lon="-1.60645">
        <ele>11.514538</ele>
        <time>2015-06-03T13:18:11Z</time>
      </trkpt>
      <trkpt lat="49.06782" lon="-1.60645">
        <ele>11.514538</ele>
        <time>2015-06-03T13:18:16Z</time>
      </trkpt>
      <trkpt lat="49.06781" lon="-1.60645">
        <ele>11.514538</ele>
        <time>2015-06-03T13:18:21Z</time>
      </trkpt>
      <trkpt lat="49.06781" lon="-1.60645">
        <ele>11.514538</ele>
        <time>2015-06-03T13:18:26Z</time>
      </trkpt>
      <trkpt lat="49.06781" lon="-1.60646">
        <ele>11.514538</ele>
        <time>2015-06-03T13:18:31Z</time>
      </trkpt>
      <trkpt lat="49.06781" lon="-1.60646">
        <ele>11.514538</ele>
        <time>2015-06-03T13:18:36Z</time>
      </trkpt>
      <trkpt lat="49.06781" lon="-1.60646">
        <ele>11.514538</ele>
        <time>2015-06-03T13:18:41Z</time>
      </trkpt>
      <trkpt lat="49.06782" lon="-1.60646">
        <ele>11.671444</ele>
        <time>2015-06-03T13:18:46Z</time>
      </trkpt>
      <trkpt lat="49.06782" lon="-1.60646">
        <ele>11.671444</ele>
        <time>2015-06-03T13:18:51Z</time>
      </trkpt>
      <trkpt lat="49.06781" lon="-1.60646">
        <ele>11.671444</ele>
        <time>2015-06-03T13:18:56Z</time>
      </trkpt>
      <trkpt lat="49.06781" lon="-1.60646">
        <ele>11.671444</ele>
        <time>2015-06-03T13:19:01Z</time>
      </trkpt>
      <trkpt lat="49.06781" lon="-1.60645">
        <ele>11.671444</ele>
        <time>2015-06-03T13:19:06Z</time>
      </trkpt>
      <trkpt lat="49.06781" lon="-1.60646">
        <ele>11.671444</ele>
        <time>2015-06-03T13:19:11Z</time>
      </trkpt>
      <trkpt lat="49.06781" lon="-1.60646">
        <ele>11.671444</ele>
        <time>2015-06-03T13:19:16Z</time>
      </trkpt>
      <trkpt lat="49.06781" lon="-1.60645">
        <ele>11.671444</ele>
        <time>2015-06-03T13:19:21Z</time>
      </trkpt>
      <trkpt lat="49.06781" lon="-1.60645">
        <ele>11.671444</ele>
        <time>2015-06-03T13:19:26Z</time>
      </trkpt>
      <trkpt lat="49.06781" lon="-1.60645">
        <ele>11.671444</ele>
        <time>2015-06-03T13:19:31Z</time>
      </trkpt>
      <trkpt lat="49.06781" lon="-1.60646">
        <ele>11.671444</ele>
        <time>2015-06-03T13:19:36Z</time>
      </trkpt>
      <trkpt lat="49.06781" lon="-1.60646">
        <ele>11.671444</ele>
        <time>2015-06-03T13:19:41Z</time>
      </trkpt>
      <trkpt lat="49.06781" lon="-1.60646">
        <ele>11.671444</ele>
        <time>2015-06-03T13:19:46Z</time>
      </trkpt>
      <trkpt lat="49.0678" lon="-1.60646">
        <ele>11.671444</ele>
        <time>2015-06-03T13:19:51Z</time>
      </trkpt>
      <trkpt lat="49.06781" lon="-1.60645">
        <ele>11.671444</ele>
        <time>2015-06-03T13:19:56Z</time>
      </trkpt>
      <trkpt lat="49.0678" lon="-1.60646">
        <ele>11.671444</ele>
        <time>2015-06-03T13:20:01Z</time>
      </trkpt>
      <trkpt lat="49.06779" lon="-1.60646">
        <ele>11.671444</ele>
        <time>2015-06-03T13:20:06Z</time>
      </trkpt>
      <trkpt lat="49.0678" lon="-1.60645">
        <ele>11.671444</ele>
        <time>2015-06-03T13:20:11Z</time>
      </trkpt>
      <trkpt lat="49.0678" lon="-1.60645">
        <ele>11.671444</ele>
        <time>2015-06-03T13:20:16Z</time>
      </trkpt>
      <trkpt lat="49.0678" lon="-1.60645">
        <ele>11.671444</ele>
        <time>2015-06-03T13:20:21Z</time>
      </trkpt>
      <trkpt lat="49.0678" lon="-1.60645">
        <ele>11.671444</ele>
        <time>2015-06-03T13:20:26Z</time>
      </trkpt>
      <trkpt lat="49.0678" lon="-1.60645">
        <ele>11.671444</ele>
        <time>2015-06-03T13:20:31Z</time>
      </trkpt>
      <trkpt lat="49.0678" lon="-1.60645">
        <ele>11.671444</ele>
        <time>2015-06-03T13:20:36Z</time>
      </trkpt>
      <trkpt lat="49.0678" lon="-1.60644">
        <ele>11.706326</ele>
        <time>2015-06-03T13:20:41Z</time>
      </trkpt>
      <trkpt lat="49.0678" lon="-1.60644">
        <ele>11.706326</ele>
        <time>2015-06-03T13:20:46Z</time>
      </trkpt>
      <trkpt lat="49.0678" lon="-1.60644">
        <ele>11.706326</ele>
        <time>2015-06-03T13:20:51Z</time>
      </trkpt>
      <trkpt lat="49.0678" lon="-1.60645">
        <ele>11.706326</ele>
        <time>2015-06-03T13:20:56Z</time>
      </trkpt>
      <trkpt lat="49.0678" lon="-1.60645">
        <ele>11.706326</ele>
        <time>2015-06-03T13:21:01Z</time>
      </trkpt>
      <trkpt lat="49.06781" lon="-1.60646">
        <ele>11.706326</ele>
        <time>2015-06-03T13:21:06Z</time>
      </trkpt>
      <trkpt lat="49.0678" lon="-1.60646">
        <ele>11.706326</ele>
        <time>2015-06-03T13:21:11Z</time>
      </trkpt>
      <trkpt lat="49.06781" lon="-1.60645">
        <ele>11.706326</ele>
        <time>2015-06-03T13:21:16Z</time>
      </trkpt>
      <trkpt lat="49.06781" lon="-1.60645">
        <ele>11.706326</ele>
        <time>2015-06-03T13:21:21Z</time>
      </trkpt>
      <trkpt lat="49.06781" lon="-1.60645">
        <ele>11.706326</ele>
        <time>2015-06-03T13:21:26Z</time>
      </trkpt>
      <trkpt lat="49.06781" lon="-1.60645">
        <ele>11.706326</ele>
        <time>2015-06-03T13:21:31Z</time>
      </trkpt>
      <trkpt lat="49.06781" lon="-1.60645">
        <ele>11.706326</ele>
        <time>2015-06-03T13:21:36Z</time>
      </trkpt>
      <trkpt lat="49.06781" lon="-1.60645">
        <ele>11.706326</ele>
        <time>2015-06-03T13:21:41Z</time>
      </trkpt>
      <trkpt lat="49.06782" lon="-1.60644">
        <ele>11.706326</ele>
        <time>2015-06-03T13:21:46Z</time>
      </trkpt>
      <trkpt lat="49.06782" lon="-1.60645">
        <ele>11.706326</ele>
        <time>2015-06-03T13:21:51Z</time>
      </trkpt>
      <trkpt lat="49.06781" lon="-1.60645">
        <ele>11.706326</ele>
        <time>2015-06-03T13:21:56Z</time>
      </trkpt>
      <trkpt lat="49.0678" lon="-1.60645">
        <ele>11.685811</ele>
        <time>2015-06-03T13:22:01Z</time>
      </trkpt>
      <trkpt lat="49.0678" lon="-1.60644">
        <ele>11.685811</ele>
        <time>2015-06-03T13:22:06Z</time>
      </trkpt>
      <trkpt lat="49.06779" lon="-1.60643">
        <ele>11.685811</ele>
        <time>2015-06-03T13:22:11Z</time>
      </trkpt>
      <trkpt lat="49.0678" lon="-1.60643">
        <ele>11.685811</ele>
        <time>2015-06-03T13:22:16Z</time>
      </trkpt>
      <trkpt lat="49.0678" lon="-1.60643">
        <ele>11.685811</ele>
        <time>2015-06-03T13:22:21Z</time>
      </trkpt>
      <trkpt lat="49.0678" lon="-1.60644">
        <ele>11.685811</ele>
        <time>2015-06-03T13:22:26Z</time>
      </trkpt>
      <trkpt lat="49.0678" lon="-1.60645">
        <ele>11.685811</ele>
        <time>2015-06-03T13:22:31Z</time>
      </trkpt>
      <trkpt lat="49.0678" lon="-1.60645">
        <ele>11.685811</ele>
        <time>2015-06-03T13:22:36Z</time>
      </trkpt>
      <trkpt lat="49.0678" lon="-1.60645">
        <ele>11.685811</ele>
        <time>2015-06-03T13:22:41Z</time>
      </trkpt>
      <trkpt lat="49.06781" lon="-1.60644">
        <ele>11.685811</ele>
        <time>2015-06-03T13:22:46Z</time>
      </trkpt>
      <trkpt lat="49.06781" lon="-1.60644">
        <ele>11.685811</ele>
        <time>2015-06-03T13:22:51Z</time>
      </trkpt>
      <trkpt lat="49.06781" lon="-1.60644">
        <ele>11.685811</ele>
        <time>2015-06-03T13:22:56Z</time>
      </trkpt>
      <trkpt lat="49.0678" lon="-1.60644">
        <ele>11.685811</ele>
        <time>2015-06-03T13:23:01Z</time>
      </trkpt>
      <trkpt lat="49.0678" lon="-1.60645">
        <ele>11.685811</ele>
        <time>2015-06-03T13:23:06Z</time>
      </trkpt>
      <trkpt lat="49.0678" lon="-1.60645">
        <ele>11.685811</ele>
        <time>2015-06-03T13:23:11Z</time>
      </trkpt>
      <trkpt lat="49.06781" lon="-1.60644">
        <ele>11.685811</ele>
        <time>2015-06-03T13:23:16Z</time>
      </trkpt>
      <trkpt lat="49.06782" lon="-1.60644">
        <ele>11.628576</ele>
        <time>2015-06-03T13:23:21Z</time>
      </trkpt>
      <trkpt lat="49.06782" lon="-1.60644">
        <ele>11.628576</ele>
        <time>2015-06-03T13:23:26Z</time>
      </trkpt>
      <trkpt lat="49.06781" lon="-1.60644">
        <ele>11.628576</ele>
        <time>2015-06-03T13:23:31Z</time>
      </trkpt>
      <trkpt lat="49.0678" lon="-1.60645">
        <ele>11.628576</ele>
        <time>2015-06-03T13:23:36Z</time>
      </trkpt>
      <trkpt lat="49.0678" lon="-1.60645">
        <ele>11.628576</ele>
        <time>2015-06-03T13:23:41Z</time>
      </trkpt>
      <trkpt lat="49.0678" lon="-1.60645">
        <ele>11.628576</ele>
        <time>2015-06-03T13:23:46Z</time>
      </trkpt>
      <trkpt lat="49.0678" lon="-1.60645">
        <ele>11.628576</ele>
        <time>2015-06-03T13:23:51Z</time>
      </trkpt>
      <trkpt lat="49.06781" lon="-1.60645">
        <ele>11.628576</ele>
        <time>2015-06-03T13:23:56Z</time>
      </trkpt>
      <trkpt lat="49.06781" lon="-1.60645">
        <ele>11.628576</ele>
        <time>2015-06-03T13:24:01Z</time>
      </trkpt>
      <trkpt lat="49.06781" lon="-1.60645">
        <ele>11.628576</ele>
        <time>2015-06-03T13:24:06Z</time>
      </trkpt>
      <trkpt lat="49.0678" lon="-1.60645">
        <ele>11.628576</ele>
        <time>2015-06-03T13:24:11Z</time>
      </trkpt>
      <trkpt lat="49.0678" lon="-1.60646">
        <ele>11.628576</ele>
        <time>2015-06-03T13:24:16Z</time>
      </trkpt>
      <trkpt lat="49.06781" lon="-1.60646">
        <ele>11.628576</ele>
        <time>2015-06-03T13:24:21Z</time>
      </trkpt>
      <trkpt lat="49.06781" lon="-1.60646">
        <ele>11.628576</ele>
        <time>2015-06-03T13:24:26Z</time>
      </trkpt>
      <trkpt lat="49.06781" lon="-1.60646">
        <ele>11.628576</ele>
        <time>2015-06-03T13:24:31Z</time>
      </trkpt>
      <trkpt lat="49.06782" lon="-1.60646">
        <ele>11.628576</ele>
        <time>2015-06-03T13:24:36Z</time>
      </trkpt>
      <trkpt lat="49.06782" lon="-1.60647">
        <ele>11.566456</ele>
        <time>2015-06-03T13:24:41Z</time>
      </trkpt>
      <trkpt lat="49.06782" lon="-1.60646">
        <ele>11.566456</ele>
        <time>2015-06-03T13:24:46Z</time>
      </trkpt>
      <trkpt lat="49.06782" lon="-1.60646">
        <ele>11.566456</ele>
        <time>2015-06-03T13:24:51Z</time>
      </trkpt>
      <trkpt lat="49.06781" lon="-1.60645">
        <ele>11.566456</ele>
        <time>2015-06-03T13:24:56Z</time>
      </trkpt>
      <trkpt lat="49.06781" lon="-1.60645">
        <ele>11.566456</ele>
        <time>2015-06-03T13:25:01Z</time>
      </trkpt>
      <trkpt lat="49.06781" lon="-1.60647">
        <ele>11.566456</ele>
        <time>2015-06-03T13:25:06Z</time>
      </trkpt>
      <trkpt lat="49.06782" lon="-1.60647">
        <ele>11.566456</ele>
        <time>2015-06-03T13:25:11Z</time>
      </trkpt>
      <trkpt lat="49.06782" lon="-1.60647">
        <ele>11.566456</ele>
        <time>2015-06-03T13:25:16Z</time>
      </trkpt>
      <trkpt lat="49.06781" lon="-1.60647">
        <ele>11.566456</ele>
        <time>2015-06-03T13:25:21Z</time>
      </trkpt>
      <trkpt lat="49.0678" lon="-1.60647">
        <ele>11.566456</ele>
        <time>2015-06-03T13:25:26Z</time>
      </trkpt>
      <trkpt lat="49.06781" lon="-1.60646">
        <ele>11.566456</ele>
        <time>2015-06-03T13:25:31Z</time>
      </trkpt>
      <trkpt lat="49.0678" lon="-1.60646">
        <ele>11.566456</ele>
        <time>2015-06-03T13:25:36Z</time>
      </trkpt>
      <trkpt lat="49.06781" lon="-1.60646">
        <ele>11.566456</ele>
        <time>2015-06-03T13:25:41Z</time>
      </trkpt>
      <trkpt lat="49.06781" lon="-1.60646">
        <ele>11.566456</ele>
        <time>2015-06-03T13:25:46Z</time>
      </trkpt>
      <trkpt lat="49.06781" lon="-1.60646">
        <ele>11.566456</ele>
        <time>2015-06-03T13:25:51Z</time>
      </trkpt>
      <trkpt lat="49.06781" lon="-1.60646">
        <ele>11.566456</ele>
        <time>2015-06-03T13:25:56Z</time>
      </trkpt>
      <trkpt lat="49.06781" lon="-1.60646">
        <ele>11.566456</ele>
        <time>2015-06-03T13:26:01Z</time>
      </trkpt>
      <trkpt lat="49.06781" lon="-1.60646">
        <ele>11.485743</ele>
        <time>2015-06-03T13:26:06Z</time>
      </trkpt>
      <trkpt lat="49.06781" lon="-1.60645">
        <ele>11.485743</ele>
        <time>2015-06-03T13:26:11Z</time>
      </trkpt>
      <trkpt lat="49.06782" lon="-1.60645">
        <ele>11.485743</ele>
        <time>2015-06-03T13:26:16Z</time>
      </trkpt>
      <trkpt lat="49.06782" lon="-1.60644">
        <ele>11.485743</ele>
        <time>2015-06-03T13:26:21Z</time>
      </trkpt>
      <trkpt lat="49.06781" lon="-1.60644">
        <ele>11.485743</ele>
        <time>2015-06-03T13:26:26Z</time>
      </trkpt>
      <trkpt lat="49.06781" lon="-1.60645">
        <ele>11.485743</ele>
        <time>2015-06-03T13:26:31Z</time>
      </trkpt>
      <trkpt lat="49.06781" lon="-1.60645">
        <ele>11.485743</ele>
        <time>2015-06-03T13:26:36Z</time>
      </trkpt>
      <trkpt lat="49.06782" lon="-1.60644">
        <ele>11.485743</ele>
        <time>2015-06-03T13:26:41Z</time>
      </trkpt>
      <trkpt lat="49.06781" lon="-1.60644">
        <ele>11.485743</ele>
        <time>2015-06-03T13:26:46Z</time>
      </trkpt>
      <trkpt lat="49.06781" lon="-1.60645">
        <ele>11.485743</ele>
        <time>2015-06-03T13:26:51Z</time>
      </trkpt>
      <trkpt lat="49.06782" lon="-1.60645">
        <ele>11.485743</ele>
        <time>2015-06-03T13:26:56Z</time>
      </trkpt>
      <trkpt lat="49.06782" lon="-1.60645">
        <ele>11.485743</ele>
        <time>2015-06-03T13:27:01Z</time>
      </trkpt>
      <trkpt lat="49.06781" lon="-1.60645">
        <ele>11.485743</ele>
        <time>2015-06-03T13:27:06Z</time>
      </trkpt>
      <trkpt lat="49.06781" lon="-1.60646">
        <ele>11.485743</ele>
        <time>2015-06-03T13:27:11Z</time>
      </trkpt>
      <trkpt lat="49.06781" lon="-1.60647">
        <ele>11.485743</ele>
        <time>2015-06-03T13:27:16Z</time>
      </trkpt>
      <trkpt lat="49.06782" lon="-1.60646">
        <ele>11.485743</ele>
        <time>2015-06-03T13:27:21Z</time>
      </trkpt>
      <trkpt lat="49.06782" lon="-1.60647">
        <ele>11.485743</ele>
        <time>2015-06-03T13:27:26Z</time>
      </trkpt>
      <trkpt lat="49.06782" lon="-1.60647">
        <ele>11.485743</ele>
        <time>2015-06-03T13:27:31Z</time>
      </trkpt>
      <trkpt lat="49.06782" lon="-1.60646">
        <ele>11.330566</ele>
        <time>2015-06-03T13:27:36Z</time>
      </trkpt>
      <trkpt lat="49.06781" lon="-1.60645">
        <ele>11.330566</ele>
        <time>2015-06-03T13:27:41Z</time>
      </trkpt>
      <trkpt lat="49.0678" lon="-1.60645">
        <ele>11.330566</ele>
        <time>2015-06-03T13:27:46Z</time>
      </trkpt>
      <trkpt lat="49.0678" lon="-1.60645">
        <ele>11.330566</ele>
        <time>2015-06-03T13:27:51Z</time>
      </trkpt>
      <trkpt lat="49.06781" lon="-1.60646">
        <ele>11.330566</ele>
        <time>2015-06-03T13:27:56Z</time>
      </trkpt>
      <trkpt lat="49.06781" lon="-1.60647">
        <ele>11.330566</ele>
        <time>2015-06-03T13:28:01Z</time>
      </trkpt>
      <trkpt lat="49.06781" lon="-1.60647">
        <ele>11.330566</ele>
        <time>2015-06-03T13:28:06Z</time>
      </trkpt>
      <trkpt lat="49.0678" lon="-1.60647">
        <ele>11.330566</ele>
        <time>2015-06-03T13:28:11Z</time>
      </trkpt>
      <trkpt lat="49.0678" lon="-1.60647">
        <ele>11.330566</ele>
        <time>2015-06-03T13:28:16Z</time>
      </trkpt>
      <trkpt lat="49.0678" lon="-1.60646">
        <ele>11.330566</ele>
        <time>2015-06-03T13:28:21Z</time>
      </trkpt>
      <trkpt lat="49.06781" lon="-1.60645">
        <ele>11.330566</ele>
        <time>2015-06-03T13:28:26Z</time>
      </trkpt>
      <trkpt lat="49.06781" lon="-1.60646">
        <ele>11.330566</ele>
        <time>2015-06-03T13:28:31Z</time>
      </trkpt>
      <trkpt lat="49.06781" lon="-1.60646">
        <ele>11.330566</ele>
        <time>2015-06-03T13:28:36Z</time>
      </trkpt>
      <trkpt lat="49.06781" lon="-1.60646">
        <ele>11.330566</ele>
        <time>2015-06-03T13:28:41Z</time>
      </trkpt>
      <trkpt lat="49.06781" lon="-1.60647">
        <ele>11.330566</ele>
        <time>2015-06-03T13:28:46Z</time>
      </trkpt>
      <trkpt lat="49.06781" lon="-1.60647">
        <ele>11.330566</ele>
        <time>2015-06-03T13:28:51Z</time>
      </trkpt>
      <trkpt lat="49.06782" lon="-1.60647">
        <ele>11.330566</ele>
        <time>2015-06-03T13:28:56Z</time>
      </trkpt>
      <trkpt lat="49.06781" lon="-1.60647">
        <ele>11.179085</ele>
        <time>2015-06-03T13:29:01Z</time>
      </trkpt>
      <trkpt lat="49.06781" lon="-1.60646">
        <ele>11.179085</ele>
        <time>2015-06-03T13:29:06Z</time>
      </trkpt>
      <trkpt lat="49.06781" lon="-1.60645">
        <ele>11.179085</ele>
        <time>2015-06-03T13:29:11Z</time>
      </trkpt>
      <trkpt lat="49.06781" lon="-1.60645">
        <ele>11.179085</ele>
        <time>2015-06-03T13:29:16Z</time>
      </trkpt>
      <trkpt lat="49.06781" lon="-1.60645">
        <ele>11.179085</ele>
        <time>2015-06-03T13:29:21Z</time>
      </trkpt>
      <trkpt lat="49.06781" lon="-1.60645">
        <ele>11.179085</ele>
        <time>2015-06-03T13:29:26Z</time>
      </trkpt>
      <trkpt lat="49.06781" lon="-1.60645">
        <ele>11.179085</ele>
        <time>2015-06-03T13:29:31Z</time>
      </trkpt>
      <trkpt lat="49.06781" lon="-1.60644">
        <ele>11.179085</ele>
        <time>2015-06-03T13:29:36Z</time>
      </trkpt>
      <trkpt lat="49.0678" lon="-1.60645">
        <ele>11.179085</ele>
        <time>2015-06-03T13:29:41Z</time>
      </trkpt>
      <trkpt lat="49.0678" lon="-1.60644">
        <ele>11.179085</ele>
        <time>2015-06-03T13:29:46Z</time>
      </trkpt>
      <trkpt lat="49.06781" lon="-1.60645">
        <ele>11.179085</ele>
        <time>2015-06-03T13:29:51Z</time>
      </trkpt>
      <trkpt lat="49.06781" lon="-1.60644">
        <ele>11.179085</ele>
        <time>2015-06-03T13:29:56Z</time>
      </trkpt>
      <trkpt lat="49.06781" lon="-1.60645">
        <ele>11.179085</ele>
        <time>2015-06-03T13:30:01Z</time>
      </trkpt>
      <trkpt lat="49.06781" lon="-1.60645">
        <ele>11.179085</ele>
        <time>2015-06-03T13:30:06Z</time>
      </trkpt>
      <trkpt lat="49.06781" lon="-1.60645">
        <ele>11.179085</ele>
        <time>2015-06-03T13:30:11Z</time>
      </trkpt>
      <trkpt lat="49.06781" lon="-1.60646">
        <ele>11.179085</ele>
        <time>2015-06-03T13:30:16Z</time>
      </trkpt>
      <trkpt lat="49.0678" lon="-1.60647">
        <ele>11.179085</ele>
        <time>2015-06-03T13:30:21Z</time>
      </trkpt>
      <trkpt lat="49.06781" lon="-1.60646">
        <ele>11.179085</ele>
        <time>2015-06-03T13:30:26Z</time>
      </trkpt>
      <trkpt lat="49.06781" lon="-1.60646">
        <ele>11.179085</ele>
        <time>2015-06-03T13:30:31Z</time>
      </trkpt>
      <trkpt lat="49.06781" lon="-1.60645">
        <ele>10.930774</ele>
        <time>2015-06-03T13:30:36Z</time>
      </trkpt>
      <trkpt lat="49.0678" lon="-1.60644">
        <ele>10.930774</ele>
        <time>2015-06-03T13:30:41Z</time>
      </trkpt>
      <trkpt lat="49.06779" lon="-1.60644">
        <ele>10.930774</ele>
        <time>2015-06-03T13:30:46Z</time>
      </trkpt>
      <trkpt lat="49.06779" lon="-1.60644">
        <ele>10.930774</ele>
        <time>2015-06-03T13:30:51Z</time>
      </trkpt>
      <trkpt lat="49.0678" lon="-1.60644">
        <ele>10.930774</ele>
        <time>2015-06-03T13:30:56Z</time>
      </trkpt>
      <trkpt lat="49.0678" lon="-1.60644">
        <ele>10.930774</ele>
        <time>2015-06-03T13:31:01Z</time>
      </trkpt>
      <trkpt lat="49.0678" lon="-1.60644">
        <ele>10.930774</ele>
        <time>2015-06-03T13:31:06Z</time>
      </trkpt>
      <trkpt lat="49.06779" lon="-1.60643">
        <ele>10.930774</ele>
        <time>2015-06-03T13:31:11Z</time>
      </trkpt>
      <trkpt lat="49.0678" lon="-1.60644">
        <ele>10.930774</ele>
        <time>2015-06-03T13:31:16Z</time>
      </trkpt>
      <trkpt lat="49.0678" lon="-1.60644">
        <ele>10.930774</ele>
        <time>2015-06-03T13:31:21Z</time>
      </trkpt>
      <trkpt lat="49.06779" lon="-1.60644">
        <ele>10.930774</ele>
        <time>2015-06-03T13:31:26Z</time>
      </trkpt>
      <trkpt lat="49.0678" lon="-1.60644">
        <ele>10.930774</ele>
        <time>2015-06-03T13:31:31Z</time>
      </trkpt>
      <trkpt lat="49.06779" lon="-1.60645">
        <ele>10.930774</ele>
        <time>2015-06-03T13:31:36Z</time>
      </trkpt>
      <trkpt lat="49.06779" lon="-1.60645">
        <ele>10.930774</ele>
        <time>2015-06-03T13:31:41Z</time>
      </trkpt>
      <trkpt lat="49.0678" lon="-1.60645">
        <ele>10.930774</ele>
        <time>2015-06-03T13:31:46Z</time>
      </trkpt>
      <trkpt lat="49.0678" lon="-1.60646">
        <ele>10.930774</ele>
        <time>2015-06-03T13:31:51Z</time>
      </trkpt>
      <trkpt lat="49.0678" lon="-1.60646">
        <ele>10.930774</ele>
        <time>2015-06-03T13:31:56Z</time>
      </trkpt>
      <trkpt lat="49.0678" lon="-1.60647">
        <ele>10.694531</ele>
        <time>2015-06-03T13:32:01Z</time>
      </trkpt>
      <trkpt lat="49.0678" lon="-1.60646">
        <ele>10.694531</ele>
        <time>2015-06-03T13:32:06Z</time>
      </trkpt>
      <trkpt lat="49.0678" lon="-1.60646">
        <ele>10.694531</ele>
        <time>2015-06-03T13:32:11Z</time>
      </trkpt>
      <trkpt lat="49.0678" lon="-1.60646">
        <ele>10.694531</ele>
        <time>2015-06-03T13:32:16Z</time>
      </trkpt>
      <trkpt lat="49.0678" lon="-1.60646">
        <ele>10.694531</ele>
        <time>2015-06-03T13:32:21Z</time>
      </trkpt>
      <trkpt lat="49.0678" lon="-1.60644">
        <ele>10.694531</ele>
        <time>2015-06-03T13:32:26Z</time>
      </trkpt>
      <trkpt lat="49.06781" lon="-1.60644">
        <ele>10.694531</ele>
        <time>2015-06-03T13:32:31Z</time>
      </trkpt>
      <trkpt lat="49.06781" lon="-1.60644">
        <ele>10.694531</ele>
        <time>2015-06-03T13:32:36Z</time>
      </trkpt>
      <trkpt lat="49.06781" lon="-1.60644">
        <ele>10.694531</ele>
        <time>2015-06-03T13:32:41Z</time>
      </trkpt>
      <trkpt lat="49.06781" lon="-1.60644">
        <ele>10.694531</ele>
        <time>2015-06-03T13:32:46Z</time>
      </trkpt>
      <trkpt lat="49.0678" lon="-1.60645">
        <ele>10.694531</ele>
        <time>2015-06-03T13:32:51Z</time>
      </trkpt>
      <trkpt lat="49.06781" lon="-1.60646">
        <ele>10.694531</ele>
        <time>2015-06-03T13:32:56Z</time>
      </trkpt>
      <trkpt lat="49.06781" lon="-1.60646">
        <ele>10.694531</ele>
        <time>2015-06-03T13:33:01Z</time>
      </trkpt>
      <trkpt lat="49.06781" lon="-1.60646">
        <ele>10.694531</ele>
        <time>2015-06-03T13:33:06Z</time>
      </trkpt>
      <trkpt lat="49.06781" lon="-1.60646">
        <ele>10.694531</ele>
        <time>2015-06-03T13:33:11Z</time>
      </trkpt>
      <trkpt lat="49.06781" lon="-1.60646">
        <ele>10.694531</ele>
        <time>2015-06-03T13:33:16Z</time>
      </trkpt>
      <trkpt lat="49.06781" lon="-1.60645">
        <ele>10.694531</ele>
        <time>2015-06-03T13:33:21Z</time>
      </trkpt>
      <trkpt lat="49.06781" lon="-1.60645">
        <ele>10.694531</ele>
        <time>2015-06-03T13:33:26Z</time>
      </trkpt>
      <trkpt lat="49.06781" lon="-1.60646">
        <ele>10.694531</ele>
        <time>2015-06-03T13:33:31Z</time>
      </trkpt>
      <trkpt lat="49.06781" lon="-1.60646">
        <ele>10.455932</ele>
        <time>2015-06-03T13:33:36Z</time>
      </trkpt>
      <trkpt lat="49.06781" lon="-1.60646">
        <ele>10.455932</ele>
        <time>2015-06-03T13:33:41Z</time>
      </trkpt>
      <trkpt lat="49.06781" lon="-1.60646">
        <ele>10.455932</ele>
        <time>2015-06-03T13:33:46Z</time>
      </trkpt>
      <trkpt lat="49.06781" lon="-1.60646">
        <ele>10.455932</ele>
        <time>2015-06-03T13:33:51Z</time>
      </trkpt>
      <trkpt lat="49.06781" lon="-1.60646">
        <ele>10.455932</ele>
        <time>2015-06-03T13:33:56Z</time>
      </trkpt>
      <trkpt lat="49.06781" lon="-1.60645">
        <ele>10.455932</ele>
        <time>2015-06-03T13:34:01Z</time>
      </trkpt>
      <trkpt lat="49.06781" lon="-1.60645">
        <ele>10.455932</ele>
        <time>2015-06-03T13:34:06Z</time>
      </trkpt>
      <trkpt lat="49.0678" lon="-1.60645">
        <ele>10.455932</ele>
        <time>2015-06-03T13:34:11Z</time>
      </trkpt>
      <trkpt lat="49.0678" lon="-1.60645">
        <ele>10.455932</ele>
        <time>2015-06-03T13:34:16Z</time>
      </trkpt>
      <trkpt lat="49.06779" lon="-1.60645">
        <ele>10.455932</ele>
        <time>2015-06-03T13:34:21Z</time>
      </trkpt>
      <trkpt lat="49.06779" lon="-1.60645">
        <ele>10.455932</ele>
        <time>2015-06-03T13:34:26Z</time>
      </trkpt>
      <trkpt lat="49.0678" lon="-1.60644">
        <ele>10.455932</ele>
        <time>2015-06-03T13:34:31Z</time>
      </trkpt>
      <trkpt lat="49.0678" lon="-1.60644">
        <ele>10.455932</ele>
        <time>2015-06-03T13:34:36Z</time>
      </trkpt>
      <trkpt lat="49.0678" lon="-1.60645">
        <ele>10.455932</ele>
        <time>2015-06-03T13:34:41Z</time>
      </trkpt>
      <trkpt lat="49.0678" lon="-1.60646">
        <ele>10.455932</ele>
        <time>2015-06-03T13:34:46Z</time>
      </trkpt>
      <trkpt lat="49.0678" lon="-1.60646">
        <ele>10.455932</ele>
        <time>2015-06-03T13:34:51Z</time>
      </trkpt>
      <trkpt lat="49.0678" lon="-1.60646">
        <ele>10.455932</ele>
        <time>2015-06-03T13:34:56Z</time>
      </trkpt>
      <trkpt lat="49.06781" lon="-1.60645">
        <ele>10.455932</ele>
        <time>2015-06-03T13:35:01Z</time>
      </trkpt>
      <trkpt lat="49.06781" lon="-1.60645">
        <ele>10.455932</ele>
        <time>2015-06-03T13:35:06Z</time>
      </trkpt>
      <trkpt lat="49.06781" lon="-1.60646">
        <ele>10.455932</ele>
        <time>2015-06-03T13:35:11Z</time>
      </trkpt>
      <trkpt lat="49.06782" lon="-1.60646">
        <ele>10.455932</ele>
        <time>2015-06-03T13:35:16Z</time>
      </trkpt>
      <trkpt lat="49.06783" lon="-1.60646">
        <ele>10.244852</ele>
        <time>2015-06-03T13:35:21Z</time>
      </trkpt>
      <trkpt lat="49.06783" lon="-1.60646">
        <ele>10.244852</ele>
        <time>2015-06-03T13:35:26Z</time>
      </trkpt>
      <trkpt lat="49.06783" lon="-1.60646">
        <ele>10.244852</ele>
        <time>2015-06-03T13:35:31Z</time>
      </trkpt>
      <trkpt lat="49.06782" lon="-1.60646">
        <ele>10.244852</ele>
        <time>2015-06-03T13:35:36Z</time>
      </trkpt>
      <trkpt lat="49.06782" lon="-1.60647">
        <ele>10.244852</ele>
        <time>2015-06-03T13:35:41Z</time>
      </trkpt>
      <trkpt lat="49.06782" lon="-1.60647">
        <ele>10.244852</ele>
        <time>2015-06-03T13:35:46Z</time>
      </trkpt>
      <trkpt lat="49.06782" lon="-1.60646">
        <ele>10.244852</ele>
        <time>2015-06-03T13:35:51Z</time>
      </trkpt>
      <trkpt lat="49.06782" lon="-1.60646">
        <ele>10.244852</ele>
        <time>2015-06-03T13:35:56Z</time>
      </trkpt>
      <trkpt lat="49.06781" lon="-1.60645">
        <ele>10.244852</ele>
        <time>2015-06-03T13:36:01Z</time>
      </trkpt>
      <trkpt lat="49.06781" lon="-1.60644">
        <ele>10.244852</ele>
        <time>2015-06-03T13:36:06Z</time>
      </trkpt>
      <trkpt lat="49.06781" lon="-1.60645">
        <ele>10.244852</ele>
        <time>2015-06-03T13:36:11Z</time>
      </trkpt>
      <trkpt lat="49.06781" lon="-1.60645">
        <ele>10.244852</ele>
        <time>2015-06-03T13:36:16Z</time>
      </trkpt>
      <trkpt lat="49.06781" lon="-1.60645">
        <ele>10.244852</ele>
        <time>2015-06-03T13:36:21Z</time>
      </trkpt>
      <trkpt lat="49.06781" lon="-1.60645">
        <ele>10.244852</ele>
        <time>2015-06-03T13:36:26Z</time>
      </trkpt>
      <trkpt lat="49.06781" lon="-1.60645">
        <ele>10.244852</ele>
        <time>2015-06-03T13:36:31Z</time>
      </trkpt>
      <trkpt lat="49.0678" lon="-1.60645">
        <ele>10.244852</ele>
        <time>2015-06-03T13:36:36Z</time>
      </trkpt>
      <trkpt lat="49.0678" lon="-1.60645">
        <ele>10.244852</ele>
        <time>2015-06-03T13:36:41Z</time>
      </trkpt>
      <trkpt lat="49.0678" lon="-1.60645">
        <ele>10.244852</ele>
        <time>2015-06-03T13:36:46Z</time>
      </trkpt>
      <trkpt lat="49.06779" lon="-1.60644">
        <ele>10.244852</ele>
        <time>2015-06-03T13:36:51Z</time>
      </trkpt>
      <trkpt lat="49.06779" lon="-1.60644">
        <ele>10.244852</ele>
        <time>2015-06-03T13:36:56Z</time>
      </trkpt>
      <trkpt lat="49.06779" lon="-1.60644">
        <ele>10.244852</ele>
        <time>2015-06-03T13:37:01Z</time>
      </trkpt>
      <trkpt lat="49.06779" lon="-1.60644">
        <ele>10.244852</ele>
        <time>2015-06-03T13:37:06Z</time>
      </trkpt>
      <trkpt lat="49.0678" lon="-1.60644">
        <ele>10.031248</ele>
        <time>2015-06-03T13:37:11Z</time>
      </trkpt>
      <trkpt lat="49.0678" lon="-1.60644">
        <ele>10.031248</ele>
        <time>2015-06-03T13:37:16Z</time>
      </trkpt>
      <trkpt lat="49.06781" lon="-1.60645">
        <ele>10.031248</ele>
        <time>2015-06-03T13:37:21Z</time>
      </trkpt>
      <trkpt lat="49.06781" lon="-1.60645">
        <ele>10.031248</ele>
        <time>2015-06-03T13:37:26Z</time>
      </trkpt>
      <trkpt lat="49.06781" lon="-1.60645">
        <ele>10.031248</ele>
        <time>2015-06-03T13:37:31Z</time>
      </trkpt>
      <trkpt lat="49.06781" lon="-1.60645">
        <ele>10.031248</ele>
        <time>2015-06-03T13:37:36Z</time>
      </trkpt>
      <trkpt lat="49.06781" lon="-1.60645">
        <ele>10.031248</ele>
        <time>2015-06-03T13:37:41Z</time>
      </trkpt>
      <trkpt lat="49.06781" lon="-1.60645">
        <ele>10.031248</ele>
        <time>2015-06-03T13:37:46Z</time>
      </trkpt>
      <trkpt lat="49.06781" lon="-1.60645">
        <ele>10.031248</ele>
        <time>2015-06-03T13:37:51Z</time>
      </trkpt>
      <trkpt lat="49.06781" lon="-1.60644">
        <ele>10.031248</ele>
        <time>2015-06-03T13:37:56Z</time>
      </trkpt>
      <trkpt lat="49.06781" lon="-1.60644">
        <ele>10.031248</ele>
        <time>2015-06-03T13:38:01Z</time>
      </trkpt>
      <trkpt lat="49.06781" lon="-1.60643">
        <ele>10.031248</ele>
        <time>2015-06-03T13:38:06Z</time>
      </trkpt>
      <trkpt lat="49.06781" lon="-1.60643">
        <ele>10.031248</ele>
        <time>2015-06-03T13:38:11Z</time>
      </trkpt>
      <trkpt lat="49.06781" lon="-1.60643">
        <ele>10.031248</ele>
        <time>2015-06-03T13:38:16Z</time>
      </trkpt>
      <trkpt lat="49.06781" lon="-1.60644">
        <ele>10.031248</ele>
        <time>2015-06-03T13:38:21Z</time>
      </trkpt>
      <trkpt lat="49.06781" lon="-1.60644">
        <ele>10.031248</ele>
        <time>2015-06-03T13:38:26Z</time>
      </trkpt>
      <trkpt lat="49.0678" lon="-1.60646">
        <ele>10.031248</ele>
        <time>2015-06-03T13:38:31Z</time>
      </trkpt>
      <trkpt lat="49.06781" lon="-1.60646">
        <ele>10.031248</ele>
        <time>2015-06-03T13:38:36Z</time>
      </trkpt>
      <trkpt lat="49.06781" lon="-1.60646">
        <ele>10.031248</ele>
        <time>2015-06-03T13:38:41Z</time>
      </trkpt>
      <trkpt lat="49.06781" lon="-1.60646">
        <ele>10.031248</ele>
        <time>2015-06-03T13:38:46Z</time>
      </trkpt>
      <trkpt lat="49.06781" lon="-1.60646">
        <ele>10.031248</ele>
        <time>2015-06-03T13:38:51Z</time>
      </trkpt>
      <trkpt lat="49.06781" lon="-1.60645">
        <ele>10.031248</ele>
        <time>2015-06-03T13:38:56Z</time>
      </trkpt>
      <trkpt lat="49.06781" lon="-1.60645">
        <ele>10.031248</ele>
        <time>2015-06-03T13:39:01Z</time>
      </trkpt>
      <trkpt lat="49.06781" lon="-1.60644">
        <ele>10.031248</ele>
        <time>2015-06-03T13:39:06Z</time>
      </trkpt>
      <trkpt lat="49.06782" lon="-1.60644">
        <ele>10.031248</ele>
        <time>2015-06-03T13:39:11Z</time>
      </trkpt>
      <trkpt lat="49.06782" lon="-1.60645">
        <ele>9.772874</ele>
        <time>2015-06-03T13:39:16Z</time>
      </trkpt>
      <trkpt lat="49.06783" lon="-1.60645">
        <ele>9.772874</ele>
        <time>2015-06-03T13:39:21Z</time>
      </trkpt>
      <trkpt lat="49.06782" lon="-1.60645">
        <ele>9.772874</ele>
        <time>2015-06-03T13:39:26Z</time>
      </trkpt>
      <trkpt lat="49.06782" lon="-1.60645">
        <ele>9.772874</ele>
        <time>2015-06-03T13:39:31Z</time>
      </trkpt>
      <trkpt lat="49.06782" lon="-1.60645">
        <ele>9.772874</ele>
        <time>2015-06-03T13:39:36Z</time>
      </trkpt>
      <trkpt lat="49.06782" lon="-1.60645">
        <ele>9.772874</ele>
        <time>2015-06-03T13:39:41Z</time>
      </trkpt>
      <trkpt lat="49.06782" lon="-1.60645">
        <ele>9.772874</ele>
        <time>2015-06-03T13:39:46Z</time>
      </trkpt>
      <trkpt lat="49.06782" lon="-1.60645">
        <ele>9.772874</ele>
        <time>2015-06-03T13:39:51Z</time>
      </trkpt>
      <trkpt lat="49.06781" lon="-1.60645">
        <ele>9.772874</ele>
        <time>2015-06-03T13:39:56Z</time>
      </trkpt>
      <trkpt lat="49.0678" lon="-1.60644">
        <ele>9.772874</ele>
        <time>2015-06-03T13:40:01Z</time>
      </trkpt>
      <trkpt lat="49.06781" lon="-1.60642">
        <ele>9.772874</ele>
        <time>2015-06-03T13:40:06Z</time>
      </trkpt>
      <trkpt lat="49.0678" lon="-1.60642">
        <ele>9.772874</ele>
        <time>2015-06-03T13:40:11Z</time>
      </trkpt>
      <trkpt lat="49.0678" lon="-1.60642">
        <ele>9.772874</ele>
        <time>2015-06-03T13:40:16Z</time>
      </trkpt>
      <trkpt lat="49.0678" lon="-1.60642">
        <ele>9.772874</ele>
        <time>2015-06-03T13:40:21Z</time>
      </trkpt>
      <trkpt lat="49.0678" lon="-1.60643">
        <ele>9.772874</ele>
        <time>2015-06-03T13:40:26Z</time>
      </trkpt>
      <trkpt lat="49.0678" lon="-1.60643">
        <ele>9.772874</ele>
        <time>2015-06-03T13:40:31Z</time>
      </trkpt>
      <trkpt lat="49.0678" lon="-1.60644">
        <ele>9.772874</ele>
        <time>2015-06-03T13:40:36Z</time>
      </trkpt>
      <trkpt lat="49.0678" lon="-1.60644">
        <ele>9.772874</ele>
        <time>2015-06-03T13:40:41Z</time>
      </trkpt>
      <trkpt lat="49.0678" lon="-1.60643">
        <ele>9.772874</ele>
        <time>2015-06-03T13:40:46Z</time>
      </trkpt>
      <trkpt lat="49.0678" lon="-1.60642">
        <ele>9.772874</ele>
        <time>2015-06-03T13:40:51Z</time>
      </trkpt>
      <trkpt lat="49.06781" lon="-1.60641">
        <ele>9.60364</ele>
        <time>2015-06-03T13:40:56Z</time>
      </trkpt>
      <trkpt lat="49.06781" lon="-1.60641">
        <ele>9.60364</ele>
        <time>2015-06-03T13:41:01Z</time>
      </trkpt>
      <trkpt lat="49.06781" lon="-1.60641">
        <ele>9.60364</ele>
        <time>2015-06-03T13:41:06Z</time>
      </trkpt>
      <trkpt lat="49.06781" lon="-1.60643">
        <ele>9.60364</ele>
        <time>2015-06-03T13:41:11Z</time>
      </trkpt>
      <trkpt lat="49.06779" lon="-1.60643">
        <ele>9.60364</ele>
        <time>2015-06-03T13:41:16Z</time>
      </trkpt>
      <trkpt lat="49.06779" lon="-1.60642">
        <ele>9.60364</ele>
        <time>2015-06-03T13:41:21Z</time>
      </trkpt>
      <trkpt lat="49.06779" lon="-1.60642">
        <ele>9.60364</ele>
        <time>2015-06-03T13:41:26Z</time>
      </trkpt>
      <trkpt lat="49.06779" lon="-1.60641">
        <ele>9.60364</ele>
        <time>2015-06-03T13:41:31Z</time>
      </trkpt>
      <trkpt lat="49.06778" lon="-1.60641">
        <ele>9.60364</ele>
        <time>2015-06-03T13:41:36Z</time>
      </trkpt>
      <trkpt lat="49.06779" lon="-1.6064">
        <ele>9.60364</ele>
        <time>2015-06-03T13:41:41Z</time>
      </trkpt>
      <trkpt lat="49.06779" lon="-1.60641">
        <ele>9.60364</ele>
        <time>2015-06-03T13:41:46Z</time>
      </trkpt>
      <trkpt lat="49.06779" lon="-1.60642">
        <ele>9.60364</ele>
        <time>2015-06-03T13:41:51Z</time>
      </trkpt>
      <trkpt lat="49.06779" lon="-1.60644">
        <ele>9.3879595</ele>
        <time>2015-06-03T13:41:56Z</time>
      </trkpt>
      <trkpt lat="49.06779" lon="-1.60644">
        <ele>9.3879595</ele>
        <time>2015-06-03T13:42:01Z</time>
      </trkpt>
      <trkpt lat="49.06779" lon="-1.60644">
        <ele>9.3879595</ele>
        <time>2015-06-03T13:42:06Z</time>
      </trkpt>
      <trkpt lat="49.06779" lon="-1.60645">
        <ele>9.3879595</ele>
        <time>2015-06-03T13:42:11Z</time>
      </trkpt>
      <trkpt lat="49.0678" lon="-1.60645">
        <ele>9.3879595</ele>
        <time>2015-06-03T13:42:16Z</time>
      </trkpt>
      <trkpt lat="49.0678" lon="-1.60645">
        <ele>9.3879595</ele>
        <time>2015-06-03T13:42:21Z</time>
      </trkpt>
      <trkpt lat="49.06781" lon="-1.60645">
        <ele>9.3879595</ele>
        <time>2015-06-03T13:42:26Z</time>
      </trkpt>
      <trkpt lat="49.06781" lon="-1.60644">
        <ele>9.3879595</ele>
        <time>2015-06-03T13:42:31Z</time>
      </trkpt>
      <trkpt lat="49.06779" lon="-1.60643">
        <ele>9.3879595</ele>
        <time>2015-06-03T13:42:36Z</time>
      </trkpt>
      <trkpt lat="49.06777" lon="-1.60641">
        <ele>9.3879595</ele>
        <time>2015-06-03T13:42:41Z</time>
      </trkpt>
      <trkpt lat="49.06775" lon="-1.6064">
        <ele>9.30296</ele>
        <time>2015-06-03T13:42:46Z</time>
      </trkpt>
      <trkpt lat="49.06772" lon="-1.60639">
        <ele>9.30296</ele>
        <time>2015-06-03T13:42:51Z</time>
      </trkpt>
      <trkpt lat="49.06768" lon="-1.60638">
        <ele>9.30296</ele>
        <time>2015-06-03T13:42:56Z</time>
      </trkpt>
      <trkpt lat="49.06763" lon="-1.60637">
        <ele>9.469147</ele>
        <time>2015-06-03T13:43:01Z</time>
      </trkpt>
      <trkpt lat="49.06759" lon="-1.60634">
        <ele>9.469147</ele>
        <time>2015-06-03T13:43:06Z</time>
      </trkpt>
      <trkpt lat="49.06755" lon="-1.60632">
        <ele>9.709233</ele>
        <time>2015-06-03T13:43:11Z</time>
      </trkpt>
      <trkpt lat="49.06754" lon="-1.60631">
        <ele>9.709233</ele>
        <time>2015-06-03T13:43:16Z</time>
      </trkpt>
      <trkpt lat="49.06752" lon="-1.60628">
        <ele>9.709233</ele>
        <time>2015-06-03T13:43:21Z</time>
      </trkpt>
      <trkpt lat="49.06747" lon="-1.60625">
        <ele>9.709233</ele>
        <time>2015-06-03T13:43:26Z</time>
      </trkpt>
      <trkpt lat="49.06744" lon="-1.60623">
        <ele>9.959618</ele>
        <time>2015-06-03T13:43:31Z</time>
      </trkpt>
      <trkpt lat="49.06739" lon="-1.60621">
        <ele>9.959618</ele>
        <time>2015-06-03T13:43:36Z</time>
      </trkpt>
      <trkpt lat="49.06735" lon="-1.60619">
        <ele>9.959618</ele>
        <time>2015-06-03T13:43:41Z</time>
      </trkpt>
      <trkpt lat="49.06731" lon="-1.60619">
        <ele>10.089276</ele>
        <time>2015-06-03T13:43:46Z</time>
      </trkpt>
      <trkpt lat="49.06727" lon="-1.60619">
        <ele>10.089276</ele>
        <time>2015-06-03T13:43:51Z</time>
      </trkpt>
      <trkpt lat="49.06725" lon="-1.60618">
        <ele>10.089276</ele>
        <time>2015-06-03T13:43:56Z</time>
      </trkpt>
      <trkpt lat="49.06725" lon="-1.60618">
        <ele>10.089276</ele>
        <time>2015-06-03T13:44:01Z</time>
      </trkpt>
      <trkpt lat="49.06722" lon="-1.60618">
        <ele>10.16449</ele>
        <time>2015-06-03T13:44:06Z</time>
      </trkpt>
      <trkpt lat="49.06721" lon="-1.60617">
        <ele>10.16449</ele>
        <time>2015-06-03T13:44:11Z</time>
      </trkpt>
      <trkpt lat="49.06722" lon="-1.60617">
        <ele>10.16449</ele>
        <time>2015-06-03T13:44:16Z</time>
      </trkpt>
      <trkpt lat="49.06722" lon="-1.60617">
        <ele>10.16449</ele>
        <time>2015-06-03T13:44:21Z</time>
      </trkpt>
      <trkpt lat="49.06724" lon="-1.60618">
        <ele>10.16449</ele>
        <time>2015-06-03T13:44:26Z</time>
      </trkpt>
      <trkpt lat="49.06724" lon="-1.60617">
        <ele>10.16449</ele>
        <time>2015-06-03T13:44:31Z</time>
      </trkpt>
      <trkpt lat="49.06723" lon="-1.60616">
        <ele>10.16449</ele>
        <time>2015-06-03T13:44:36Z</time>
      </trkpt>
      <trkpt lat="49.06723" lon="-1.60614">
        <ele>10.16449</ele>
        <time>2015-06-03T13:44:41Z</time>
      </trkpt>
      <trkpt lat="49.0672" lon="-1.60614">
        <ele>10.16449</ele>
        <time>2015-06-03T13:44:46Z</time>
      </trkpt>
      <trkpt lat="49.06719" lon="-1.60612">
        <ele>10.232404</ele>
        <time>2015-06-03T13:44:51Z</time>
      </trkpt>
      <trkpt lat="49.0672" lon="-1.60613">
        <ele>10.232404</ele>
        <time>2015-06-03T13:44:56Z</time>
      </trkpt>
      <trkpt lat="49.06718" lon="-1.60614">
        <ele>10.232404</ele>
        <time>2015-06-03T13:45:01Z</time>
      </trkpt>
      <trkpt lat="49.06716" lon="-1.60614">
        <ele>10.232404</ele>
        <time>2015-06-03T13:45:06Z</time>
      </trkpt>
      <trkpt lat="49.06716" lon="-1.60614">
        <ele>10.232404</ele>
        <time>2015-06-03T13:45:11Z</time>
      </trkpt>
      <trkpt lat="49.06715" lon="-1.60613">
        <ele>10.232404</ele>
        <time>2015-06-03T13:45:16Z</time>
      </trkpt>
      <trkpt lat="49.06715" lon="-1.60613">
        <ele>10.232404</ele>
        <time>2015-06-03T13:45:21Z</time>
      </trkpt>
      <trkpt lat="49.06716" lon="-1.60612">
        <ele>10.232404</ele>
        <time>2015-06-03T13:45:26Z</time>
      </trkpt>
      <trkpt lat="49.06715" lon="-1.60612">
        <ele>10.232404</ele>
        <time>2015-06-03T13:45:31Z</time>
      </trkpt>
      <trkpt lat="49.06715" lon="-1.60612">
        <ele>10.232404</ele>
        <time>2015-06-03T13:45:36Z</time>
      </trkpt>
      <trkpt lat="49.06714" lon="-1.60613">
        <ele>10.149372</ele>
        <time>2015-06-03T13:45:41Z</time>
      </trkpt>
      <trkpt lat="49.06713" lon="-1.60613">
        <ele>10.149372</ele>
        <time>2015-06-03T13:45:46Z</time>
      </trkpt>
      <trkpt lat="49.06712" lon="-1.60612">
        <ele>10.149372</ele>
        <time>2015-06-03T13:45:51Z</time>
      </trkpt>
      <trkpt lat="49.06712" lon="-1.60611">
        <ele>10.149372</ele>
        <time>2015-06-03T13:45:56Z</time>
      </trkpt>
      <trkpt lat="49.06711" lon="-1.6061">
        <ele>10.149372</ele>
        <time>2015-06-03T13:46:01Z</time>
      </trkpt>
      <trkpt lat="49.06706" lon="-1.60608">
        <ele>9.941244</ele>
        <time>2015-06-03T13:46:06Z</time>
      </trkpt>
      <trkpt lat="49.06702" lon="-1.60604">
        <ele>9.941244</ele>
        <time>2015-06-03T13:46:11Z</time>
      </trkpt>
      <trkpt lat="49.06698" lon="-1.60602">
        <ele>9.71878</ele>
        <time>2015-06-03T13:46:16Z</time>
      </trkpt>
      <trkpt lat="49.06693" lon="-1.60599">
        <ele>9.71878</ele>
        <time>2015-06-03T13:46:21Z</time>
      </trkpt>
      <trkpt lat="49.06689" lon="-1.60597">
        <ele>9.46935</ele>
        <time>2015-06-03T13:46:26Z</time>
      </trkpt>
      <trkpt lat="49.06685" lon="-1.60594">
        <ele>9.46935</ele>
        <time>2015-06-03T13:46:31Z</time>
      </trkpt>
      <trkpt lat="49.0668" lon="-1.60589">
        <ele>9.16691</ele>
        <time>2015-06-03T13:46:36Z</time>
      </trkpt>
      <trkpt lat="49.06675" lon="-1.60587">
        <ele>9.16691</ele>
        <time>2015-06-03T13:46:41Z</time>
      </trkpt>
      <trkpt lat="49.0667" lon="-1.60585">
        <ele>8.845109</ele>
        <time>2015-06-03T13:46:46Z</time>
      </trkpt>
      <trkpt lat="49.06665" lon="-1.60583">
        <ele>8.845109</ele>
        <time>2015-06-03T13:46:51Z</time>
      </trkpt>
      <trkpt lat="49.0666" lon="-1.6058">
        <ele>8.549582</ele>
        <time>2015-06-03T13:46:56Z</time>
      </trkpt>
      <trkpt lat="49.06653" lon="-1.60576">
        <ele>8.549582</ele>
        <time>2015-06-03T13:47:01Z</time>
      </trkpt>
      <trkpt lat="49.06649" lon="-1.60573">
        <ele>8.293698</ele>
        <time>2015-06-03T13:47:06Z</time>
      </trkpt>
      <trkpt lat="49.06642" lon="-1.60571">
        <ele>8.293698</ele>
        <time>2015-06-03T13:47:11Z</time>
      </trkpt>
      <trkpt lat="49.06637" lon="-1.60569">
        <ele>8.089722</ele>
        <time>2015-06-03T13:47:16Z</time>
      </trkpt>
      <trkpt lat="49.06634" lon="-1.60568">
        <ele>8.089722</ele>
        <time>2015-06-03T13:47:21Z</time>
      </trkpt>
      <trkpt lat="49.06631" lon="-1.60566">
        <ele>8.089722</ele>
        <time>2015-06-03T13:47:26Z</time>
      </trkpt>
      <trkpt lat="49.06625" lon="-1.60563">
        <ele>7.9056177</ele>
        <time>2015-06-03T13:47:31Z</time>
      </trkpt>
      <trkpt lat="49.06619" lon="-1.60561">
        <ele>7.9056177</ele>
        <time>2015-06-03T13:47:36Z</time>
      </trkpt>
      <trkpt lat="49.06613" lon="-1.60558">
        <ele>7.7981014</ele>
        <time>2015-06-03T13:47:41Z</time>
      </trkpt>
      <trkpt lat="49.06608" lon="-1.60556">
        <ele>7.7981014</ele>
        <time>2015-06-03T13:47:46Z</time>
      </trkpt>
      <trkpt lat="49.06605" lon="-1.60555">
        <ele>7.7981014</ele>
        <time>2015-06-03T13:47:51Z</time>
      </trkpt>
      <trkpt lat="49.06598" lon="-1.60551">
        <ele>7.646555</ele>
        <time>2015-06-03T13:47:56Z</time>
      </trkpt>
      <trkpt lat="49.06592" lon="-1.60549">
        <ele>7.646555</ele>
        <time>2015-06-03T13:48:01Z</time>
      </trkpt>
      <trkpt lat="49.06585" lon="-1.60546">
        <ele>7.3969727</ele>
        <time>2015-06-03T13:48:06Z</time>
      </trkpt>
      <trkpt lat="49.0658" lon="-1.60546">
        <ele>7.3969727</ele>
        <time>2015-06-03T13:48:11Z</time>
      </trkpt>
      <trkpt lat="49.06573" lon="-1.60543">
        <ele>7.1725054</ele>
        <time>2015-06-03T13:48:16Z</time>
      </trkpt>
      <trkpt lat="49.06565" lon="-1.60542">
        <ele>7.1725054</ele>
        <time>2015-06-03T13:48:21Z</time>
      </trkpt>
      <trkpt lat="49.06557" lon="-1.60539">
        <ele>7.000705</ele>
        <time>2015-06-03T13:48:26Z</time>
      </trkpt>
      <trkpt lat="49.06551" lon="-1.60537">
        <ele>7.000705</ele>
        <time>2015-06-03T13:48:31Z</time>
      </trkpt>
      <trkpt lat="49.06544" lon="-1.60535">
        <ele>6.8781095</ele>
        <time>2015-06-03T13:48:36Z</time>
      </trkpt>
      <trkpt lat="49.06539" lon="-1.60534">
        <ele>6.8781095</ele>
        <time>2015-06-03T13:48:41Z</time>
      </trkpt>
      <trkpt lat="49.06533" lon="-1.60532">
        <ele>6.772536</ele>
        <time>2015-06-03T13:48:46Z</time>
      </trkpt>
      <trkpt lat="49.06527" lon="-1.6053">
        <ele>6.772536</ele>
        <time>2015-06-03T13:48:51Z</time>
      </trkpt>
      <trkpt lat="49.0652" lon="-1.60528">
        <ele>6.668509</ele>
        <time>2015-06-03T13:48:56Z</time>
      </trkpt>
      <trkpt lat="49.06514" lon="-1.60526">
        <ele>6.668509</ele>
        <time>2015-06-03T13:49:01Z</time>
      </trkpt>
      <trkpt lat="49.06509" lon="-1.60525">
        <ele>6.53726</ele>
        <time>2015-06-03T13:49:06Z</time>
      </trkpt>
      <trkpt lat="49.06502" lon="-1.60522">
        <ele>6.53726</ele>
        <time>2015-06-03T13:49:11Z</time>
      </trkpt>
      <trkpt lat="49.06496" lon="-1.60521">
        <ele>6.4098387</ele>
        <time>2015-06-03T13:49:16Z</time>
      </trkpt>
      <trkpt lat="49.0649" lon="-1.60518">
        <ele>6.4098387</ele>
        <time>2015-06-03T13:49:21Z</time>
      </trkpt>
      <trkpt lat="49.06482" lon="-1.60516">
        <ele>6.286164</ele>
        <time>2015-06-03T13:49:26Z</time>
      </trkpt>
      <trkpt lat="49.06477" lon="-1.60514">
        <ele>6.286164</ele>
        <time>2015-06-03T13:49:31Z</time>
      </trkpt>
      <trkpt lat="49.06473" lon="-1.60511">
        <ele>6.166137</ele>
        <time>2015-06-03T13:49:36Z</time>
      </trkpt>
      <trkpt lat="49.06467" lon="-1.6051">
        <ele>6.166137</ele>
        <time>2015-06-03T13:49:41Z</time>
      </trkpt>
      <trkpt lat="49.06463" lon="-1.60508">
        <ele>6.0496416</ele>
        <time>2015-06-03T13:49:46Z</time>
      </trkpt>
      <trkpt lat="49.06456" lon="-1.60506">
        <ele>6.0496416</ele>
        <time>2015-06-03T13:49:51Z</time>
      </trkpt>
      <trkpt lat="49.0645" lon="-1.60504">
        <ele>5.9797797</ele>
        <time>2015-06-03T13:49:56Z</time>
      </trkpt>
      <trkpt lat="49.06445" lon="-1.605">
        <ele>5.9797797</ele>
        <time>2015-06-03T13:50:01Z</time>
      </trkpt>
      <trkpt lat="49.0644" lon="-1.60497">
        <ele>5.9386992</ele>
        <time>2015-06-03T13:50:06Z</time>
      </trkpt>
      <trkpt lat="49.06434" lon="-1.60493">
        <ele>5.9386992</ele>
        <time>2015-06-03T13:50:11Z</time>
      </trkpt>
      <trkpt lat="49.06429" lon="-1.60488">
        <ele>5.9385896</ele>
        <time>2015-06-03T13:50:16Z</time>
      </trkpt>
      <trkpt lat="49.06422" lon="-1.60486">
        <ele>5.9385896</ele>
        <time>2015-06-03T13:50:21Z</time>
      </trkpt>
      <trkpt lat="49.06415" lon="-1.60485">
        <ele>5.9906197</ele>
        <time>2015-06-03T13:50:26Z</time>
      </trkpt>
      <trkpt lat="49.06411" lon="-1.60482">
        <ele>5.9906197</ele>
        <time>2015-06-03T13:50:31Z</time>
      </trkpt>
      <trkpt lat="49.06405" lon="-1.60479">
        <ele>6.1193933</ele>
        <time>2015-06-03T13:50:36Z</time>
      </trkpt>
      <trkpt lat="49.06399" lon="-1.60477">
        <ele>6.1193933</ele>
        <time>2015-06-03T13:50:41Z</time>
      </trkpt>
      <trkpt lat="49.06394" lon="-1.60476">
        <ele>6.333075</ele>
        <time>2015-06-03T13:50:46Z</time>
      </trkpt>
      <trkpt lat="49.06386" lon="-1.60475">
        <ele>6.333075</ele>
        <time>2015-06-03T13:50:51Z</time>
      </trkpt>
      <trkpt lat="49.06379" lon="-1.60471">
        <ele>6.5813417</ele>
        <time>2015-06-03T13:50:56Z</time>
      </trkpt>
      <trkpt lat="49.06372" lon="-1.60468">
        <ele>6.5813417</ele>
        <time>2015-06-03T13:51:01Z</time>
      </trkpt>
      <trkpt lat="49.06366" lon="-1.60465">
        <ele>6.7742343</ele>
        <time>2015-06-03T13:51:06Z</time>
      </trkpt>
      <trkpt lat="49.06361" lon="-1.6046">
        <ele>6.7742343</ele>
        <time>2015-06-03T13:51:11Z</time>
      </trkpt>
      <trkpt lat="49.06354" lon="-1.60457">
        <ele>6.9438486</ele>
        <time>2015-06-03T13:51:16Z</time>
      </trkpt>
      <trkpt lat="49.06349" lon="-1.60455">
        <ele>6.9438486</ele>
        <time>2015-06-03T13:51:21Z</time>
      </trkpt>
      <trkpt lat="49.06343" lon="-1.60454">
        <ele>7.1199894</ele>
        <time>2015-06-03T13:51:26Z</time>
      </trkpt>
      <trkpt lat="49.06336" lon="-1.60453">
        <ele>7.1199894</ele>
        <time>2015-06-03T13:51:31Z</time>
      </trkpt>
      <trkpt lat="49.06331" lon="-1.60449">
        <ele>7.3158493</ele>
        <time>2015-06-03T13:51:36Z</time>
      </trkpt>
      <trkpt lat="49.06325" lon="-1.60448">
        <ele>7.3158493</ele>
        <time>2015-06-03T13:51:41Z</time>
      </trkpt>
      <trkpt lat="49.06318" lon="-1.60445">
        <ele>7.572425</ele>
        <time>2015-06-03T13:51:46Z</time>
      </trkpt>
      <trkpt lat="49.06311" lon="-1.6044">
        <ele>7.572425</ele>
        <time>2015-06-03T13:51:51Z</time>
      </trkpt>
      <trkpt lat="49.06305" lon="-1.60437">
        <ele>7.7978415</ele>
        <time>2015-06-03T13:51:56Z</time>
      </trkpt>
      <trkpt lat="49.06298" lon="-1.60435">
        <ele>7.7978415</ele>
        <time>2015-06-03T13:52:01Z</time>
      </trkpt>
      <trkpt lat="49.06291" lon="-1.60432">
        <ele>7.9358926</ele>
        <time>2015-06-03T13:52:06Z</time>
      </trkpt>
      <trkpt lat="49.06285" lon="-1.60428">
        <ele>7.9358926</ele>
        <time>2015-06-03T13:52:11Z</time>
      </trkpt>
      <trkpt lat="49.06277" lon="-1.60428">
        <ele>8.021226</ele>
        <time>2015-06-03T13:52:16Z</time>
      </trkpt>
      <trkpt lat="49.06271" lon="-1.60424">
        <ele>8.021226</ele>
        <time>2015-06-03T13:52:21Z</time>
      </trkpt>
      <trkpt lat="49.06265" lon="-1.60419">
        <ele>8.071692</ele>
        <time>2015-06-03T13:52:26Z</time>
      </trkpt>
      <trkpt lat="49.06259" lon="-1.60417">
        <ele>8.071692</ele>
        <time>2015-06-03T13:52:31Z</time>
      </trkpt>
      <trkpt lat="49.06253" lon="-1.60415">
        <ele>8.132768</ele>
        <time>2015-06-03T13:52:36Z</time>
      </trkpt>
      <trkpt lat="49.06248" lon="-1.60415">
        <ele>8.132768</ele>
        <time>2015-06-03T13:52:41Z</time>
      </trkpt>
      <trkpt lat="49.06242" lon="-1.60412">
        <ele>8.217747</ele>
        <time>2015-06-03T13:52:46Z</time>
      </trkpt>
      <trkpt lat="49.06237" lon="-1.60411">
        <ele>8.217747</ele>
        <time>2015-06-03T13:52:51Z</time>
      </trkpt>
      <trkpt lat="49.06231" lon="-1.60407">
        <ele>8.295662</ele>
        <time>2015-06-03T13:52:56Z</time>
      </trkpt>
      <trkpt lat="49.06225" lon="-1.60406">
        <ele>8.295662</ele>
        <time>2015-06-03T13:53:01Z</time>
      </trkpt>
      <trkpt lat="49.06217" lon="-1.60404">
        <ele>8.352266</ele>
        <time>2015-06-03T13:53:06Z</time>
      </trkpt>
      <trkpt lat="49.06211" lon="-1.60403">
        <ele>8.352266</ele>
        <time>2015-06-03T13:53:11Z</time>
      </trkpt>
      <trkpt lat="49.06207" lon="-1.60401">
        <ele>8.432077</ele>
        <time>2015-06-03T13:53:16Z</time>
      </trkpt>
      <trkpt lat="49.062" lon="-1.60401">
        <ele>8.432077</ele>
        <time>2015-06-03T13:53:21Z</time>
      </trkpt>
      <trkpt lat="49.06194" lon="-1.60399">
        <ele>8.56188</ele>
        <time>2015-06-03T13:53:26Z</time>
      </trkpt>
      <trkpt lat="49.06187" lon="-1.60399">
        <ele>8.56188</ele>
        <time>2015-06-03T13:53:31Z</time>
      </trkpt>
      <trkpt lat="49.06182" lon="-1.60398">
        <ele>8.737542</ele>
        <time>2015-06-03T13:53:36Z</time>
      </trkpt>
      <trkpt lat="49.06177" lon="-1.60393">
        <ele>8.737542</ele>
        <time>2015-06-03T13:53:41Z</time>
      </trkpt>
      <trkpt lat="49.06172" lon="-1.6039">
        <ele>9.070412</ele>
        <time>2015-06-03T13:53:46Z</time>
      </trkpt>
      <trkpt lat="49.06172" lon="-1.6039">
        <ele>9.070412</ele>
        <time>2015-06-03T13:53:51Z</time>
      </trkpt>
      <trkpt lat="49.06173" lon="-1.60391">
        <ele>9.070412</ele>
        <time>2015-06-03T13:53:56Z</time>
      </trkpt>
      <trkpt lat="49.06171" lon="-1.60379">
        <ele>9.070412</ele>
        <time>2015-06-03T13:54:01Z</time>
      </trkpt>
      <trkpt lat="49.06168" lon="-1.60376">
        <ele>9.317363</ele>
        <time>2015-06-03T13:54:06Z</time>
      </trkpt>
      <trkpt lat="49.06165" lon="-1.60376">
        <ele>9.317363</ele>
        <time>2015-06-03T13:54:11Z</time>
      </trkpt>
      <trkpt lat="49.06163" lon="-1.60375">
        <ele>9.317363</ele>
        <time>2015-06-03T13:54:16Z</time>
      </trkpt>
      <trkpt lat="49.06163" lon="-1.60374">
        <ele>9.317363</ele>
        <time>2015-06-03T13:54:21Z</time>
      </trkpt>
      <trkpt lat="49.06164" lon="-1.60374">
        <ele>9.317363</ele>
        <time>2015-06-03T13:54:26Z</time>
      </trkpt>
      <trkpt lat="49.06164" lon="-1.60373">
        <ele>9.317363</ele>
        <time>2015-06-03T13:54:31Z</time>
      </trkpt>
      <trkpt lat="49.06165" lon="-1.60373">
        <ele>9.317363</ele>
        <time>2015-06-03T13:54:36Z</time>
      </trkpt>
      <trkpt lat="49.06163" lon="-1.60372">
        <ele>9.5272</ele>
        <time>2015-06-03T13:54:41Z</time>
      </trkpt>
      <trkpt lat="49.06159" lon="-1.60372">
        <ele>9.5272</ele>
        <time>2015-06-03T13:54:46Z</time>
      </trkpt>
      <trkpt lat="49.06157" lon="-1.60371">
        <ele>9.5272</ele>
        <time>2015-06-03T13:54:51Z</time>
      </trkpt>
      <trkpt lat="49.06154" lon="-1.60366">
        <ele>9.457039</ele>
        <time>2015-06-03T13:54:56Z</time>
      </trkpt>
      <trkpt lat="49.06151" lon="-1.60359">
        <ele>9.457039</ele>
        <time>2015-06-03T13:55:01Z</time>
      </trkpt>
      <trkpt lat="49.06147" lon="-1.6035">
        <ele>9.300565</ele>
        <time>2015-06-03T13:55:06Z</time>
      </trkpt>
      <trkpt lat="49.06146" lon="-1.60341">
        <ele>9.300565</ele>
        <time>2015-06-03T13:55:11Z</time>
      </trkpt>
      <trkpt lat="49.06143" lon="-1.60333">
        <ele>9.179846</ele>
        <time>2015-06-03T13:55:16Z</time>
      </trkpt>
      <trkpt lat="49.06141" lon="-1.60324">
        <ele>9.179846</ele>
        <time>2015-06-03T13:55:21Z</time>
      </trkpt>
      <trkpt lat="49.0614" lon="-1.60318">
        <ele>9.135841</ele>
        <time>2015-06-03T13:55:26Z</time>
      </trkpt>
      <trkpt lat="49.06141" lon="-1.60318">
        <ele>9.135841</ele>
        <time>2015-06-03T13:55:31Z</time>
      </trkpt>
      <trkpt lat="49.06142" lon="-1.60319">
        <ele>9.135841</ele>
        <time>2015-06-03T13:55:36Z</time>
      </trkpt>
      <trkpt lat="49.06142" lon="-1.60317">
        <ele>9.135841</ele>
        <time>2015-06-03T13:55:41Z</time>
      </trkpt>
      <trkpt lat="49.06142" lon="-1.60316">
        <ele>9.135841</ele>
        <time>2015-06-03T13:55:46Z</time>
      </trkpt>
      <trkpt lat="49.06142" lon="-1.60316">
        <ele>9.135841</ele>
        <time>2015-06-03T13:55:51Z</time>
      </trkpt>
      <trkpt lat="49.06141" lon="-1.60315">
        <ele>9.135841</ele>
        <time>2015-06-03T13:55:56Z</time>
      </trkpt>
      <trkpt lat="49.06141" lon="-1.60314">
        <ele>9.135841</ele>
        <time>2015-06-03T13:56:01Z</time>
      </trkpt>
      <trkpt lat="49.0614" lon="-1.60315">
        <ele>9.135841</ele>
        <time>2015-06-03T13:56:06Z</time>
      </trkpt>
      <trkpt lat="49.0614" lon="-1.60316">
        <ele>9.135841</ele>
        <time>2015-06-03T13:56:11Z</time>
      </trkpt>
      <trkpt lat="49.06139" lon="-1.60316">
        <ele>9.135841</ele>
        <time>2015-06-03T13:56:16Z</time>
      </trkpt>
      <trkpt lat="49.0614" lon="-1.60315">
        <ele>9.135841</ele>
        <time>2015-06-03T13:56:21Z</time>
      </trkpt>
      <trkpt lat="49.0614" lon="-1.60314">
        <ele>9.135841</ele>
        <time>2015-06-03T13:56:26Z</time>
      </trkpt>
      <trkpt lat="49.06139" lon="-1.60313">
        <ele>8.97572</ele>
        <time>2015-06-03T13:56:31Z</time>
      </trkpt>
      <trkpt lat="49.06139" lon="-1.60314">
        <ele>8.97572</ele>
        <time>2015-06-03T13:56:36Z</time>
      </trkpt>
      <trkpt lat="49.06139" lon="-1.60315">
        <ele>8.97572</ele>
        <time>2015-06-03T13:56:41Z</time>
      </trkpt>
      <trkpt lat="49.06139" lon="-1.60316">
        <ele>8.97572</ele>
        <time>2015-06-03T13:56:46Z</time>
      </trkpt>
      <trkpt lat="49.06139" lon="-1.6032">
        <ele>8.97572</ele>
        <time>2015-06-03T13:56:51Z</time>
      </trkpt>
      <trkpt lat="49.06139" lon="-1.6032">
        <ele>8.97572</ele>
        <time>2015-06-03T13:56:56Z</time>
      </trkpt>
      <trkpt lat="49.0614" lon="-1.60318">
        <ele>8.97572</ele>
        <time>2015-06-03T13:57:01Z</time>
      </trkpt>
      <trkpt lat="49.06139" lon="-1.60318">
        <ele>8.97572</ele>
        <time>2015-06-03T13:57:06Z</time>
      </trkpt>
      <trkpt lat="49.06139" lon="-1.60318">
        <ele>8.97572</ele>
        <time>2015-06-03T13:57:11Z</time>
      </trkpt>
      <trkpt lat="49.06139" lon="-1.60317">
        <ele>8.97572</ele>
        <time>2015-06-03T13:57:16Z</time>
      </trkpt>
      <trkpt lat="49.0614" lon="-1.60317">
        <ele>8.97572</ele>
        <time>2015-06-03T13:57:21Z</time>
      </trkpt>
      <trkpt lat="49.0614" lon="-1.60317">
        <ele>8.97572</ele>
        <time>2015-06-03T13:57:26Z</time>
      </trkpt>
      <trkpt lat="49.06139" lon="-1.60317">
        <ele>8.97572</ele>
        <time>2015-06-03T13:57:31Z</time>
      </trkpt>
      <trkpt lat="49.06139" lon="-1.60323">
        <ele>8.665266</ele>
        <time>2015-06-03T13:57:36Z</time>
      </trkpt>
      <trkpt lat="49.06137" lon="-1.60328">
        <ele>8.665266</ele>
        <time>2015-06-03T13:57:41Z</time>
      </trkpt>
      <trkpt lat="49.06136" lon="-1.60333">
        <ele>8.665266</ele>
        <time>2015-06-03T13:57:46Z</time>
      </trkpt>
      <trkpt lat="49.06135" lon="-1.60339">
        <ele>8.274078</ele>
        <time>2015-06-03T13:57:51Z</time>
      </trkpt>
      <trkpt lat="49.06135" lon="-1.6034">
        <ele>8.274078</ele>
        <time>2015-06-03T13:57:56Z</time>
      </trkpt>
      <trkpt lat="49.06135" lon="-1.60342">
        <ele>8.274078</ele>
        <time>2015-06-03T13:58:01Z</time>
      </trkpt>
      <trkpt lat="49.06135" lon="-1.60342">
        <ele>8.274078</ele>
        <time>2015-06-03T13:58:06Z</time>
      </trkpt>
      <trkpt lat="49.06134" lon="-1.60342">
        <ele>8.274078</ele>
        <time>2015-06-03T13:58:11Z</time>
      </trkpt>
      <trkpt lat="49.06133" lon="-1.60341">
        <ele>8.274078</ele>
        <time>2015-06-03T13:58:16Z</time>
      </trkpt>
      <trkpt lat="49.06132" lon="-1.6034">
        <ele>8.274078</ele>
        <time>2015-06-03T13:58:21Z</time>
      </trkpt>
      <trkpt lat="49.0613" lon="-1.6034">
        <ele>8.274078</ele>
        <time>2015-06-03T13:58:26Z</time>
      </trkpt>
      <trkpt lat="49.0613" lon="-1.60341">
        <ele>8.274078</ele>
        <time>2015-06-03T13:58:31Z</time>
      </trkpt>
      <trkpt lat="49.06129" lon="-1.60341">
        <ele>8.274078</ele>
        <time>2015-06-03T13:58:36Z</time>
      </trkpt>
      <trkpt lat="49.06128" lon="-1.60345">
        <ele>7.766</ele>
        <time>2015-06-03T13:58:41Z</time>
      </trkpt>
      <trkpt lat="49.06127" lon="-1.60346">
        <ele>7.766</ele>
        <time>2015-06-03T13:58:46Z</time>
      </trkpt>
      <trkpt lat="49.06127" lon="-1.60347">
        <ele>7.766</ele>
        <time>2015-06-03T13:58:51Z</time>
      </trkpt>
      <trkpt lat="49.06124" lon="-1.60344">
        <ele>7.766</ele>
        <time>2015-06-03T13:58:56Z</time>
      </trkpt>
      <trkpt lat="49.06123" lon="-1.60343">
        <ele>7.766</ele>
        <time>2015-06-03T13:59:01Z</time>
      </trkpt>
      <trkpt lat="49.06124" lon="-1.6034">
        <ele>7.5978336</ele>
        <time>2015-06-03T13:59:06Z</time>
      </trkpt>
      <trkpt lat="49.06124" lon="-1.6034">
        <ele>7.5978336</ele>
        <time>2015-06-03T13:59:11Z</time>
      </trkpt>
      <trkpt lat="49.06125" lon="-1.60341">
        <ele>7.5978336</ele>
        <time>2015-06-03T13:59:16Z</time>
      </trkpt>
      <trkpt lat="49.06126" lon="-1.60344">
        <ele>7.5978336</ele>
        <time>2015-06-03T13:59:21Z</time>
      </trkpt>
      <trkpt lat="49.06126" lon="-1.60345">
        <ele>7.5978336</ele>
        <time>2015-06-03T13:59:26Z</time>
      </trkpt>
      <trkpt lat="49.06124" lon="-1.60344">
        <ele>7.5978336</ele>
        <time>2015-06-03T13:59:31Z</time>
      </trkpt>
      <trkpt lat="49.06124" lon="-1.60342">
        <ele>7.5978336</ele>
        <time>2015-06-03T13:59:36Z</time>
      </trkpt>
      <trkpt lat="49.06123" lon="-1.60341">
        <ele>7.5978336</ele>
        <time>2015-06-03T13:59:41Z</time>
      </trkpt>
      <trkpt lat="49.06122" lon="-1.60342">
        <ele>7.6730733</ele>
        <time>2015-06-03T13:59:46Z</time>
      </trkpt>
      <trkpt lat="49.06123" lon="-1.60342">
        <ele>7.6730733</ele>
        <time>2015-06-03T13:59:51Z</time>
      </trkpt>
      <trkpt lat="49.06123" lon="-1.60342">
        <ele>7.6730733</ele>
        <time>2015-06-03T13:59:56Z</time>
      </trkpt>
      <trkpt lat="49.06122" lon="-1.60342">
        <ele>7.6730733</ele>
        <time>2015-06-03T14:00:01Z</time>
      </trkpt>
      <trkpt lat="49.06122" lon="-1.60342">
        <ele>7.6730733</ele>
        <time>2015-06-03T14:00:06Z</time>
      </trkpt>
      <trkpt lat="49.06122" lon="-1.60341">
        <ele>7.6730733</ele>
        <time>2015-06-03T14:00:11Z</time>
      </trkpt>
      <trkpt lat="49.06122" lon="-1.60341">
        <ele>7.6730733</ele>
        <time>2015-06-03T14:00:16Z</time>
      </trkpt>
      <trkpt lat="49.06123" lon="-1.60341">
        <ele>7.6730733</ele>
        <time>2015-06-03T14:00:21Z</time>
      </trkpt>
      <trkpt lat="49.06123" lon="-1.60339">
        <ele>7.6730733</ele>
        <time>2015-06-03T14:00:26Z</time>
      </trkpt>
      <trkpt lat="49.06123" lon="-1.60339">
        <ele>7.6730733</ele>
        <time>2015-06-03T14:00:31Z</time>
      </trkpt>
      <trkpt lat="49.06122" lon="-1.60339">
        <ele>7.6730733</ele>
        <time>2015-06-03T14:00:36Z</time>
      </trkpt>
      <trkpt lat="49.06123" lon="-1.60338">
        <ele>7.6730733</ele>
        <time>2015-06-03T14:00:41Z</time>
      </trkpt>
      <trkpt lat="49.06122" lon="-1.60337">
        <ele>7.6730733</ele>
        <time>2015-06-03T14:00:46Z</time>
      </trkpt>
      <trkpt lat="49.0612" lon="-1.6034">
        <ele>7.6730733</ele>
        <time>2015-06-03T14:00:51Z</time>
      </trkpt>
      <trkpt lat="49.06118" lon="-1.60345">
        <ele>8.016903</ele>
        <time>2015-06-03T14:00:56Z</time>
      </trkpt>
      <trkpt lat="49.06117" lon="-1.60351">
        <ele>8.016903</ele>
        <time>2015-06-03T14:01:01Z</time>
      </trkpt>
      <trkpt lat="49.06116" lon="-1.60351">
        <ele>8.016903</ele>
        <time>2015-06-03T14:01:06Z</time>
      </trkpt>
      <trkpt lat="49.06114" lon="-1.60352">
        <ele>8.016903</ele>
        <time>2015-06-03T14:01:11Z</time>
      </trkpt>
      <trkpt lat="49.06114" lon="-1.60353">
        <ele>8.016903</ele>
        <time>2015-06-03T14:01:16Z</time>
      </trkpt>
      <trkpt lat="49.06115" lon="-1.60354">
        <ele>8.421324</ele>
        <time>2015-06-03T14:01:21Z</time>
      </trkpt>
      <trkpt lat="49.06114" lon="-1.60359">
        <ele>8.421324</ele>
        <time>2015-06-03T14:01:26Z</time>
      </trkpt>
      <trkpt lat="49.06112" lon="-1.60366">
        <ele>8.421324</ele>
        <time>2015-06-03T14:01:31Z</time>
      </trkpt>
      <trkpt lat="49.0611" lon="-1.60374">
        <ele>8.679035</ele>
        <time>2015-06-03T14:01:36Z</time>
      </trkpt>
      <trkpt lat="49.06106" lon="-1.60381">
        <ele>8.679035</ele>
        <time>2015-06-03T14:01:41Z</time>
      </trkpt>
      <trkpt lat="49.06104" lon="-1.60391">
        <ele>8.886599</ele>
        <time>2015-06-03T14:01:46Z</time>
      </trkpt>
      <trkpt lat="49.06102" lon="-1.60397">
        <ele>8.886599</ele>
        <time>2015-06-03T14:01:51Z</time>
      </trkpt>
      <trkpt lat="49.06099" lon="-1.60403">
        <ele>9.003927</ele>
        <time>2015-06-03T14:01:56Z</time>
      </trkpt>
      <trkpt lat="49.06096" lon="-1.6041">
        <ele>9.003927</ele>
        <time>2015-06-03T14:02:01Z</time>
      </trkpt>
      <trkpt lat="49.06091" lon="-1.60416">
        <ele>9.037371</ele>
        <time>2015-06-03T14:02:06Z</time>
      </trkpt>
      <trkpt lat="49.06085" lon="-1.60421">
        <ele>9.037371</ele>
        <time>2015-06-03T14:02:11Z</time>
      </trkpt>
      <trkpt lat="49.06081" lon="-1.60427">
        <ele>8.964229</ele>
        <time>2015-06-03T14:02:16Z</time>
      </trkpt>
      <trkpt lat="49.06077" lon="-1.60435">
        <ele>8.964229</ele>
        <time>2015-06-03T14:02:21Z</time>
      </trkpt>
      <trkpt lat="49.06074" lon="-1.60444">
        <ele>8.850243</ele>
        <time>2015-06-03T14:02:26Z</time>
      </trkpt>
      <trkpt lat="49.06071" lon="-1.60449">
        <ele>8.850243</ele>
        <time>2015-06-03T14:02:31Z</time>
      </trkpt>
      <trkpt lat="49.06068" lon="-1.60452">
        <ele>8.850243</ele>
        <time>2015-06-03T14:02:36Z</time>
      </trkpt>
      <trkpt lat="49.06066" lon="-1.60452">
        <ele>8.799673</ele>
        <time>2015-06-03T14:02:41Z</time>
      </trkpt>
      <trkpt lat="49.06065" lon="-1.60451">
        <ele>8.799673</ele>
        <time>2015-06-03T14:02:46Z</time>
      </trkpt>
      <trkpt lat="49.06061" lon="-1.6045">
        <ele>8.799673</ele>
        <time>2015-06-03T14:02:51Z</time>
      </trkpt>
      <trkpt lat="49.06057" lon="-1.60448">
        <ele>8.865715</ele>
        <time>2015-06-03T14:02:56Z</time>
      </trkpt>
      <trkpt lat="49.06056" lon="-1.60446">
        <ele>8.865715</ele>
        <time>2015-06-03T14:03:01Z</time>
      </trkpt>
      <trkpt lat="49.06056" lon="-1.60445">
        <ele>8.865715</ele>
        <time>2015-06-03T14:03:06Z</time>
      </trkpt>
      <trkpt lat="49.06056" lon="-1.60445">
        <ele>8.865715</ele>
        <time>2015-06-03T14:03:11Z</time>
      </trkpt>
      <trkpt lat="49.06056" lon="-1.60442">
        <ele>8.865715</ele>
        <time>2015-06-03T14:03:16Z</time>
      </trkpt>
      <trkpt lat="49.06056" lon="-1.60438">
        <ele>8.865715</ele>
        <time>2015-06-03T14:03:21Z</time>
      </trkpt>
      <trkpt lat="49.06055" lon="-1.60436">
        <ele>8.865715</ele>
        <time>2015-06-03T14:03:26Z</time>
      </trkpt>
      <trkpt lat="49.06054" lon="-1.6043">
        <ele>9.342322</ele>
        <time>2015-06-03T14:03:31Z</time>
      </trkpt>
      <trkpt lat="49.06055" lon="-1.60424">
        <ele>9.342322</ele>
        <time>2015-06-03T14:03:36Z</time>
      </trkpt>
      <trkpt lat="49.06057" lon="-1.60418">
        <ele>9.342322</ele>
        <time>2015-06-03T14:03:41Z</time>
      </trkpt>
      <trkpt lat="49.06057" lon="-1.60416">
        <ele>9.981907</ele>
        <time>2015-06-03T14:03:46Z</time>
      </trkpt>
      <trkpt lat="49.06056" lon="-1.6042">
        <ele>9.981907</ele>
        <time>2015-06-03T14:03:51Z</time>
      </trkpt>
      <trkpt lat="49.06057" lon="-1.60422">
        <ele>9.981907</ele>
        <time>2015-06-03T14:03:56Z</time>
      </trkpt>
      <trkpt lat="49.06058" lon="-1.60421">
        <ele>9.981907</ele>
        <time>2015-06-03T14:04:01Z</time>
      </trkpt>
      <trkpt lat="49.06058" lon="-1.6042">
        <ele>9.981907</ele>
        <time>2015-06-03T14:04:06Z</time>
      </trkpt>
      <trkpt lat="49.06059" lon="-1.60417">
        <ele>9.981907</ele>
        <time>2015-06-03T14:04:11Z</time>
      </trkpt>
      <trkpt lat="49.06059" lon="-1.60413">
        <ele>10.569029</ele>
        <time>2015-06-03T14:04:16Z</time>
      </trkpt>
      <trkpt lat="49.06059" lon="-1.60414">
        <ele>10.569029</ele>
        <time>2015-06-03T14:04:21Z</time>
      </trkpt>
      <trkpt lat="49.06055" lon="-1.6041">
        <ele>10.569029</ele>
        <time>2015-06-03T14:04:26Z</time>
      </trkpt>
      <trkpt lat="49.06047" lon="-1.60403">
        <ele>11.278921</ele>
        <time>2015-06-03T14:04:31Z</time>
      </trkpt>
      <trkpt lat="49.06041" lon="-1.604">
        <ele>11.278921</ele>
        <time>2015-06-03T14:04:36Z</time>
      </trkpt>
      <trkpt lat="49.06036" lon="-1.60396">
        <ele>11.970982</ele>
        <time>2015-06-03T14:04:41Z</time>
      </trkpt>
      <trkpt lat="49.06032" lon="-1.60398">
        <ele>11.970982</ele>
        <time>2015-06-03T14:04:46Z</time>
      </trkpt>
      <trkpt lat="49.06028" lon="-1.60398">
        <ele>11.970982</ele>
        <time>2015-06-03T14:04:51Z</time>
      </trkpt>
      <trkpt lat="49.06025" lon="-1.604">
        <ele>12.45736</ele>
        <time>2015-06-03T14:04:56Z</time>
      </trkpt>
      <trkpt lat="49.06023" lon="-1.60401">
        <ele>12.45736</ele>
        <time>2015-06-03T14:05:01Z</time>
      </trkpt>
      <trkpt lat="49.06021" lon="-1.60402">
        <ele>12.45736</ele>
        <time>2015-06-03T14:05:06Z</time>
      </trkpt>
      <trkpt lat="49.06018" lon="-1.60404">
        <ele>12.45736</ele>
        <time>2015-06-03T14:05:11Z</time>
      </trkpt>
      <trkpt lat="49.06014" lon="-1.60408">
        <ele>12.910474</ele>
        <time>2015-06-03T14:05:16Z</time>
      </trkpt>
      <trkpt lat="49.06011" lon="-1.60408">
        <ele>12.910474</ele>
        <time>2015-06-03T14:05:21Z</time>
      </trkpt>
      <trkpt lat="49.06011" lon="-1.60408">
        <ele>12.910474</ele>
        <time>2015-06-03T14:05:26Z</time>
      </trkpt>
      <trkpt lat="49.06008" lon="-1.60406">
        <ele>12.910474</ele>
        <time>2015-06-03T14:05:31Z</time>
      </trkpt>
      <trkpt lat="49.06003" lon="-1.60405">
        <ele>13.490188</ele>
        <time>2015-06-03T14:05:36Z</time>
      </trkpt>
      <trkpt lat="49.05996" lon="-1.60406">
        <ele>13.490188</ele>
        <time>2015-06-03T14:05:41Z</time>
      </trkpt>
      <trkpt lat="49.0599" lon="-1.60405">
        <ele>14.056078</ele>
        <time>2015-06-03T14:05:46Z</time>
      </trkpt>
      <trkpt lat="49.05984" lon="-1.60403">
        <ele>14.056078</ele>
        <time>2015-06-03T14:05:51Z</time>
      </trkpt>
      <trkpt lat="49.05977" lon="-1.604">
        <ele>14.564566</ele>
        <time>2015-06-03T14:05:56Z</time>
      </trkpt>
      <trkpt lat="49.05972" lon="-1.60397">
        <ele>14.564566</ele>
        <time>2015-06-03T14:06:01Z</time>
      </trkpt>
      <trkpt lat="49.05967" lon="-1.60395">
        <ele>14.989878</ele>
        <time>2015-06-03T14:06:06Z</time>
      </trkpt>
      <trkpt lat="49.05962" lon="-1.60395">
        <ele>14.989878</ele>
        <time>2015-06-03T14:06:11Z</time>
      </trkpt>
      <trkpt lat="49.05958" lon="-1.60393">
        <ele>14.989878</ele>
        <time>2015-06-03T14:06:16Z</time>
      </trkpt>
      <trkpt lat="49.05954" lon="-1.6039">
        <ele>15.380454</ele>
        <time>2015-06-03T14:06:21Z</time>
      </trkpt>
      <trkpt lat="49.05949" lon="-1.60389">
        <ele>15.380454</ele>
        <time>2015-06-03T14:06:26Z</time>
      </trkpt>
      <trkpt lat="49.05943" lon="-1.60384">
        <ele>15.666018</ele>
        <time>2015-06-03T14:06:31Z</time>
      </trkpt>
      <trkpt lat="49.05938" lon="-1.60381">
        <ele>15.666018</ele>
        <time>2015-06-03T14:06:36Z</time>
      </trkpt>
      <trkpt lat="49.05933" lon="-1.60379">
        <ele>15.868245</ele>
        <time>2015-06-03T14:06:41Z</time>
      </trkpt>
      <trkpt lat="49.05928" lon="-1.60378">
        <ele>15.868245</ele>
        <time>2015-06-03T14:06:46Z</time>
      </trkpt>
      <trkpt lat="49.05922" lon="-1.60377">
        <ele>16.021894</ele>
        <time>2015-06-03T14:06:51Z</time>
      </trkpt>
      <trkpt lat="49.05916" lon="-1.60373">
        <ele>16.021894</ele>
        <time>2015-06-03T14:06:56Z</time>
      </trkpt>
      <trkpt lat="49.0591" lon="-1.60369">
        <ele>16.101696</ele>
        <time>2015-06-03T14:07:01Z</time>
      </trkpt>
      <trkpt lat="49.05905" lon="-1.60366">
        <ele>16.101696</ele>
        <time>2015-06-03T14:07:06Z</time>
      </trkpt>
      <trkpt lat="49.05898" lon="-1.60364">
        <ele>16.142109</ele>
        <time>2015-06-03T14:07:11Z</time>
      </trkpt>
      <trkpt lat="49.05891" lon="-1.60361">
        <ele>16.142109</ele>
        <time>2015-06-03T14:07:16Z</time>
      </trkpt>
      <trkpt lat="49.05886" lon="-1.60361">
        <ele>16.088734</ele>
        <time>2015-06-03T14:07:21Z</time>
      </trkpt>
      <trkpt lat="49.0588" lon="-1.6036">
        <ele>16.088734</ele>
        <time>2015-06-03T14:07:26Z</time>
      </trkpt>
      <trkpt lat="49.05875" lon="-1.60357">
        <ele>16.035557</ele>
        <time>2015-06-03T14:07:31Z</time>
      </trkpt>
      <trkpt lat="49.0587" lon="-1.60354">
        <ele>16.035557</ele>
        <time>2015-06-03T14:07:36Z</time>
      </trkpt>
      <trkpt lat="49.05865" lon="-1.60351">
        <ele>15.997628</ele>
        <time>2015-06-03T14:07:41Z</time>
      </trkpt>
      <trkpt lat="49.0586" lon="-1.60347">
        <ele>15.997628</ele>
        <time>2015-06-03T14:07:46Z</time>
      </trkpt>
      <trkpt lat="49.05855" lon="-1.60345">
        <ele>16.075327</ele>
        <time>2015-06-03T14:07:51Z</time>
      </trkpt>
      <trkpt lat="49.0585" lon="-1.60344">
        <ele>16.075327</ele>
        <time>2015-06-03T14:07:56Z</time>
      </trkpt>
      <trkpt lat="49.05844" lon="-1.60343">
        <ele>16.202826</ele>
        <time>2015-06-03T14:08:01Z</time>
      </trkpt>
      <trkpt lat="49.05839" lon="-1.6034">
        <ele>16.202826</ele>
        <time>2015-06-03T14:08:06Z</time>
      </trkpt>
      <trkpt lat="49.05833" lon="-1.60339">
        <ele>16.347824</ele>
        <time>2015-06-03T14:08:11Z</time>
      </trkpt>
      <trkpt lat="49.05828" lon="-1.60337">
        <ele>16.347824</ele>
        <time>2015-06-03T14:08:16Z</time>
      </trkpt>
      <trkpt lat="49.05823" lon="-1.60336">
        <ele>16.494768</ele>
        <time>2015-06-03T14:08:21Z</time>
      </trkpt>
      <trkpt lat="49.05818" lon="-1.60333">
        <ele>16.494768</ele>
        <time>2015-06-03T14:08:26Z</time>
      </trkpt>
      <trkpt lat="49.05812" lon="-1.60331">
        <ele>16.68689</ele>
        <time>2015-06-03T14:08:31Z</time>
      </trkpt>
      <trkpt lat="49.05807" lon="-1.60329">
        <ele>16.68689</ele>
        <time>2015-06-03T14:08:36Z</time>
      </trkpt>
      <trkpt lat="49.05801" lon="-1.60328">
        <ele>16.964127</ele>
        <time>2015-06-03T14:08:41Z</time>
      </trkpt>
      <trkpt lat="49.05796" lon="-1.60324">
        <ele>16.964127</ele>
        <time>2015-06-03T14:08:46Z</time>
      </trkpt>
      <trkpt lat="49.05791" lon="-1.6032">
        <ele>17.190317</ele>
        <time>2015-06-03T14:08:51Z</time>
      </trkpt>
      <trkpt lat="49.05788" lon="-1.60317">
        <ele>17.190317</ele>
        <time>2015-06-03T14:08:56Z</time>
      </trkpt>
      <trkpt lat="49.05783" lon="-1.60314">
        <ele>17.369148</ele>
        <time>2015-06-03T14:09:01Z</time>
      </trkpt>
      <trkpt lat="49.05778" lon="-1.60311">
        <ele>17.369148</ele>
        <time>2015-06-03T14:09:06Z</time>
      </trkpt>
      <trkpt lat="49.05772" lon="-1.6031">
        <ele>17.504177</ele>
        <time>2015-06-03T14:09:11Z</time>
      </trkpt>
      <trkpt lat="49.05767" lon="-1.60307">
        <ele>17.504177</ele>
        <time>2015-06-03T14:09:16Z</time>
      </trkpt>
      <trkpt lat="49.05761" lon="-1.60308">
        <ele>17.62765</ele>
        <time>2015-06-03T14:09:21Z</time>
      </trkpt>
      <trkpt lat="49.05755" lon="-1.60304">
        <ele>17.62765</ele>
        <time>2015-06-03T14:09:26Z</time>
      </trkpt>
      <trkpt lat="49.0575" lon="-1.60302">
        <ele>17.783886</ele>
        <time>2015-06-03T14:09:31Z</time>
      </trkpt>
      <trkpt lat="49.05743" lon="-1.60298">
        <ele>17.783886</ele>
        <time>2015-06-03T14:09:36Z</time>
      </trkpt>
      <trkpt lat="49.0574" lon="-1.60296">
        <ele>17.99946</ele>
        <time>2015-06-03T14:09:41Z</time>
      </trkpt>
      <trkpt lat="49.05735" lon="-1.60295">
        <ele>17.99946</ele>
        <time>2015-06-03T14:09:46Z</time>
      </trkpt>
      <trkpt lat="49.05728" lon="-1.60293">
        <ele>18.298819</ele>
        <time>2015-06-03T14:09:51Z</time>
      </trkpt>
      <trkpt lat="49.05723" lon="-1.60291">
        <ele>18.298819</ele>
        <time>2015-06-03T14:09:56Z</time>
      </trkpt>
      <trkpt lat="49.05718" lon="-1.60289">
        <ele>18.68998</ele>
        <time>2015-06-03T14:10:01Z</time>
      </trkpt>
      <trkpt lat="49.05712" lon="-1.60287">
        <ele>18.68998</ele>
        <time>2015-06-03T14:10:06Z</time>
      </trkpt>
      <trkpt lat="49.05708" lon="-1.60284">
        <ele>19.079231</ele>
        <time>2015-06-03T14:10:11Z</time>
      </trkpt>
      <trkpt lat="49.05703" lon="-1.60283">
        <ele>19.079231</ele>
        <time>2015-06-03T14:10:16Z</time>
      </trkpt>
      <trkpt lat="49.05698" lon="-1.60283">
        <ele>19.495049</ele>
        <time>2015-06-03T14:10:21Z</time>
      </trkpt>
      <trkpt lat="49.05692" lon="-1.60282">
        <ele>19.495049</ele>
        <time>2015-06-03T14:10:26Z</time>
      </trkpt>
      <trkpt lat="49.05686" lon="-1.60279">
        <ele>19.920515</ele>
        <time>2015-06-03T14:10:31Z</time>
      </trkpt>
      <trkpt lat="49.05681" lon="-1.60275">
        <ele>19.920515</ele>
        <time>2015-06-03T14:10:36Z</time>
      </trkpt>
      <trkpt lat="49.05678" lon="-1.60272">
        <ele>20.282284</ele>
        <time>2015-06-03T14:10:41Z</time>
      </trkpt>
      <trkpt lat="49.05673" lon="-1.60268">
        <ele>20.282284</ele>
        <time>2015-06-03T14:10:46Z</time>
      </trkpt>
      <trkpt lat="49.05669" lon="-1.60267">
        <ele>20.483767</ele>
        <time>2015-06-03T14:10:51Z</time>
      </trkpt>
      <trkpt lat="49.05665" lon="-1.60265">
        <ele>20.483767</ele>
        <time>2015-06-03T14:10:56Z</time>
      </trkpt>
      <trkpt lat="49.05659" lon="-1.60263">
        <ele>20.536804</ele>
        <time>2015-06-03T14:11:01Z</time>
      </trkpt>
      <trkpt lat="49.05653" lon="-1.60262">
        <ele>20.536804</ele>
        <time>2015-06-03T14:11:06Z</time>
      </trkpt>
      <trkpt lat="49.05646" lon="-1.60259">
        <ele>20.596895</ele>
        <time>2015-06-03T14:11:11Z</time>
      </trkpt>
      <trkpt lat="49.05641" lon="-1.60259">
        <ele>20.596895</ele>
        <time>2015-06-03T14:11:16Z</time>
      </trkpt>
      <trkpt lat="49.05636" lon="-1.60258">
        <ele>20.692822</ele>
        <time>2015-06-03T14:11:21Z</time>
      </trkpt>
      <trkpt lat="49.05631" lon="-1.60257">
        <ele>20.692822</ele>
        <time>2015-06-03T14:11:26Z</time>
      </trkpt>
      <trkpt lat="49.05627" lon="-1.60253">
        <ele>20.692822</ele>
        <time>2015-06-03T14:11:31Z</time>
      </trkpt>
      <trkpt lat="49.05622" lon="-1.60251">
        <ele>20.707037</ele>
        <time>2015-06-03T14:11:36Z</time>
      </trkpt>
      <trkpt lat="49.05617" lon="-1.60249">
        <ele>20.707037</ele>
        <time>2015-06-03T14:11:41Z</time>
      </trkpt>
      <trkpt lat="49.05612" lon="-1.60247">
        <ele>20.747028</ele>
        <time>2015-06-03T14:11:46Z</time>
      </trkpt>
      <trkpt lat="49.05606" lon="-1.60247">
        <ele>20.747028</ele>
        <time>2015-06-03T14:11:51Z</time>
      </trkpt>
      <trkpt lat="49.05601" lon="-1.6025">
        <ele>20.782618</ele>
        <time>2015-06-03T14:11:56Z</time>
      </trkpt>
      <trkpt lat="49.05596" lon="-1.6025">
        <ele>20.782618</ele>
        <time>2015-06-03T14:12:01Z</time>
      </trkpt>
      <trkpt lat="49.05592" lon="-1.60255">
        <ele>20.757029</ele>
        <time>2015-06-03T14:12:06Z</time>
      </trkpt>
      <trkpt lat="49.05588" lon="-1.60259">
        <ele>20.757029</ele>
        <time>2015-06-03T14:12:11Z</time>
      </trkpt>
      <trkpt lat="49.05583" lon="-1.6026">
        <ele>20.516949</ele>
        <time>2015-06-03T14:12:16Z</time>
      </trkpt>
      <trkpt lat="49.05578" lon="-1.60261">
        <ele>20.516949</ele>
        <time>2015-06-03T14:12:21Z</time>
      </trkpt>
      <trkpt lat="49.05572" lon="-1.60262">
        <ele>20.165913</ele>
        <time>2015-06-03T14:12:26Z</time>
      </trkpt>
      <trkpt lat="49.05568" lon="-1.60265">
        <ele>20.165913</ele>
        <time>2015-06-03T14:12:31Z</time>
      </trkpt>
      <trkpt lat="49.05564" lon="-1.60266">
        <ele>20.165913</ele>
        <time>2015-06-03T14:12:36Z</time>
      </trkpt>
      <trkpt lat="49.05564" lon="-1.60273">
        <ele>19.728092</ele>
        <time>2015-06-03T14:12:41Z</time>
      </trkpt>
      <trkpt lat="49.05563" lon="-1.6028">
        <ele>19.728092</ele>
        <time>2015-06-03T14:12:46Z</time>
      </trkpt>
      <trkpt lat="49.05559" lon="-1.60281">
        <ele>19.728092</ele>
        <time>2015-06-03T14:12:51Z</time>
      </trkpt>
      <trkpt lat="49.05555" lon="-1.60283">
        <ele>19.154062</ele>
        <time>2015-06-03T14:12:56Z</time>
      </trkpt>
      <trkpt lat="49.05555" lon="-1.60283">
        <ele>19.154062</ele>
        <time>2015-06-03T14:13:01Z</time>
      </trkpt>
      <trkpt lat="49.05553" lon="-1.60284">
        <ele>19.154062</ele>
        <time>2015-06-03T14:13:06Z</time>
      </trkpt>
      <trkpt lat="49.0555" lon="-1.60285">
        <ele>19.154062</ele>
        <time>2015-06-03T14:13:11Z</time>
      </trkpt>
      <trkpt lat="49.05548" lon="-1.60285">
        <ele>19.154062</ele>
        <time>2015-06-03T14:13:16Z</time>
      </trkpt>
      <trkpt lat="49.05547" lon="-1.60286">
        <ele>19.154062</ele>
        <time>2015-06-03T14:13:21Z</time>
      </trkpt>
      <trkpt lat="49.05547" lon="-1.60286">
        <ele>18.456034</ele>
        <time>2015-06-03T14:13:26Z</time>
      </trkpt>
      <trkpt lat="49.05546" lon="-1.60287">
        <ele>18.456034</ele>
        <time>2015-06-03T14:13:31Z</time>
      </trkpt>
      <trkpt lat="49.05547" lon="-1.60288">
        <ele>18.456034</ele>
        <time>2015-06-03T14:13:36Z</time>
      </trkpt>
      <trkpt lat="49.05546" lon="-1.60289">
        <ele>18.456034</ele>
        <time>2015-06-03T14:13:41Z</time>
      </trkpt>
      <trkpt lat="49.05546" lon="-1.6029">
        <ele>18.456034</ele>
        <time>2015-06-03T14:13:46Z</time>
      </trkpt>
      <trkpt lat="49.05546" lon="-1.60288">
        <ele>18.456034</ele>
        <time>2015-06-03T14:13:51Z</time>
      </trkpt>
      <trkpt lat="49.05547" lon="-1.60287">
        <ele>18.456034</ele>
        <time>2015-06-03T14:13:56Z</time>
      </trkpt>
      <trkpt lat="49.05549" lon="-1.60285">
        <ele>18.456034</ele>
        <time>2015-06-03T14:14:01Z</time>
      </trkpt>
      <trkpt lat="49.0555" lon="-1.60284">
        <ele>18.456034</ele>
        <time>2015-06-03T14:14:06Z</time>
      </trkpt>
      <trkpt lat="49.05551" lon="-1.60283">
        <ele>17.660059</ele>
        <time>2015-06-03T14:14:11Z</time>
      </trkpt>
      <trkpt lat="49.05549" lon="-1.60282">
        <ele>17.660059</ele>
        <time>2015-06-03T14:14:16Z</time>
      </trkpt>
      <trkpt lat="49.05546" lon="-1.60284">
        <ele>17.660059</ele>
        <time>2015-06-03T14:14:21Z</time>
      </trkpt>
      <trkpt lat="49.05539" lon="-1.60287">
        <ele>16.80493</ele>
        <time>2015-06-03T14:14:26Z</time>
      </trkpt>
      <trkpt lat="49.05533" lon="-1.6029">
        <ele>16.80493</ele>
        <time>2015-06-03T14:14:31Z</time>
      </trkpt>
      <trkpt lat="49.05528" lon="-1.6029">
        <ele>16.085247</ele>
        <time>2015-06-03T14:14:36Z</time>
      </trkpt>
      <trkpt lat="49.05523" lon="-1.60291">
        <ele>16.085247</ele>
        <time>2015-06-03T14:14:41Z</time>
      </trkpt>
      <trkpt lat="49.05516" lon="-1.60289">
        <ele>15.507958</ele>
        <time>2015-06-03T14:14:46Z</time>
      </trkpt>
      <trkpt lat="49.05511" lon="-1.60288">
        <ele>15.507958</ele>
        <time>2015-06-03T14:14:51Z</time>
      </trkpt>
      <trkpt lat="49.05505" lon="-1.60287">
        <ele>15.035827</ele>
        <time>2015-06-03T14:14:56Z</time>
      </trkpt>
      <trkpt lat="49.05498" lon="-1.60287">
        <ele>15.035827</ele>
        <time>2015-06-03T14:15:01Z</time>
      </trkpt>
      <trkpt lat="49.05492" lon="-1.60285">
        <ele>14.648418</ele>
        <time>2015-06-03T14:15:06Z</time>
      </trkpt>
      <trkpt lat="49.05486" lon="-1.60283">
        <ele>14.648418</ele>
        <time>2015-06-03T14:15:11Z</time>
      </trkpt>
      <trkpt lat="49.05481" lon="-1.60283">
        <ele>14.427392</ele>
        <time>2015-06-03T14:15:16Z</time>
      </trkpt>
      <trkpt lat="49.05476" lon="-1.6028">
        <ele>14.427392</ele>
        <time>2015-06-03T14:15:21Z</time>
      </trkpt>
      <trkpt lat="49.05471" lon="-1.60279">
        <ele>14.202905</ele>
        <time>2015-06-03T14:15:26Z</time>
      </trkpt>
      <trkpt lat="49.05464" lon="-1.6028">
        <ele>14.202905</ele>
        <time>2015-06-03T14:15:31Z</time>
      </trkpt>
      <trkpt lat="49.05457" lon="-1.60279">
        <ele>13.96166</ele>
        <time>2015-06-03T14:15:36Z</time>
      </trkpt>
      <trkpt lat="49.05452" lon="-1.60279">
        <ele>13.96166</ele>
        <time>2015-06-03T14:15:41Z</time>
      </trkpt>
      <trkpt lat="49.05447" lon="-1.60277">
        <ele>13.763394</ele>
        <time>2015-06-03T14:15:46Z</time>
      </trkpt>
      <trkpt lat="49.05441" lon="-1.60277">
        <ele>13.763394</ele>
        <time>2015-06-03T14:15:51Z</time>
      </trkpt>
      <trkpt lat="49.05434" lon="-1.60275">
        <ele>13.605643</ele>
        <time>2015-06-03T14:15:56Z</time>
      </trkpt>
      <trkpt lat="49.05428" lon="-1.6027">
        <ele>13.605643</ele>
        <time>2015-06-03T14:16:01Z</time>
      </trkpt>
      <trkpt lat="49.05421" lon="-1.60269">
        <ele>13.558021</ele>
        <time>2015-06-03T14:16:06Z</time>
      </trkpt>
      <trkpt lat="49.05414" lon="-1.60268">
        <ele>13.558021</ele>
        <time>2015-06-03T14:16:11Z</time>
      </trkpt>
      <trkpt lat="49.05407" lon="-1.60265">
        <ele>13.655853</ele>
        <time>2015-06-03T14:16:16Z</time>
      </trkpt>
      <trkpt lat="49.05401" lon="-1.60263">
        <ele>13.655853</ele>
        <time>2015-06-03T14:16:21Z</time>
      </trkpt>
      <trkpt lat="49.05396" lon="-1.60261">
        <ele>13.88819</ele>
        <time>2015-06-03T14:16:26Z</time>
      </trkpt>
      <trkpt lat="49.05389" lon="-1.60258">
        <ele>13.88819</ele>
        <time>2015-06-03T14:16:31Z</time>
      </trkpt>
      <trkpt lat="49.05383" lon="-1.60257">
        <ele>14.18683</ele>
        <time>2015-06-03T14:16:36Z</time>
      </trkpt>
      <trkpt lat="49.05376" lon="-1.60254">
        <ele>14.18683</ele>
        <time>2015-06-03T14:16:41Z</time>
      </trkpt>
      <trkpt lat="49.05371" lon="-1.6025">
        <ele>14.574826</ele>
        <time>2015-06-03T14:16:46Z</time>
      </trkpt>
      <trkpt lat="49.05365" lon="-1.60247">
        <ele>14.574826</ele>
        <time>2015-06-03T14:16:51Z</time>
      </trkpt>
      <trkpt lat="49.05359" lon="-1.60243">
        <ele>14.957976</ele>
        <time>2015-06-03T14:16:56Z</time>
      </trkpt>
      <trkpt lat="49.05353" lon="-1.6024">
        <ele>14.957976</ele>
        <time>2015-06-03T14:17:01Z</time>
      </trkpt>
      <trkpt lat="49.05347" lon="-1.60239">
        <ele>15.248989</ele>
        <time>2015-06-03T14:17:06Z</time>
      </trkpt>
      <trkpt lat="49.0534" lon="-1.60239">
        <ele>15.248989</ele>
        <time>2015-06-03T14:17:11Z</time>
      </trkpt>
      <trkpt lat="49.05334" lon="-1.60237">
        <ele>15.525748</ele>
        <time>2015-06-03T14:17:16Z</time>
      </trkpt>
      <trkpt lat="49.05327" lon="-1.60234">
        <ele>15.525748</ele>
        <time>2015-06-03T14:17:21Z</time>
      </trkpt>
      <trkpt lat="49.05322" lon="-1.60233">
        <ele>15.817211</ele>
        <time>2015-06-03T14:17:26Z</time>
      </trkpt>
      <trkpt lat="49.05315" lon="-1.60231">
        <ele>15.817211</ele>
        <time>2015-06-03T14:17:31Z</time>
      </trkpt>
      <trkpt lat="49.05309" lon="-1.60229">
        <ele>16.121338</ele>
        <time>2015-06-03T14:17:36Z</time>
      </trkpt>
      <trkpt lat="49.05304" lon="-1.60228">
        <ele>16.121338</ele>
        <time>2015-06-03T14:17:41Z</time>
      </trkpt>
      <trkpt lat="49.05297" lon="-1.60228">
        <ele>16.349728</ele>
        <time>2015-06-03T14:17:46Z</time>
      </trkpt>
      <trkpt lat="49.05291" lon="-1.60224">
        <ele>16.349728</ele>
        <time>2015-06-03T14:17:51Z</time>
      </trkpt>
      <trkpt lat="49.05285" lon="-1.6022">
        <ele>16.5648</ele>
        <time>2015-06-03T14:17:56Z</time>
      </trkpt>
      <trkpt lat="49.05279" lon="-1.60219">
        <ele>16.5648</ele>
        <time>2015-06-03T14:18:01Z</time>
      </trkpt>
      <trkpt lat="49.05271" lon="-1.60217">
        <ele>16.78119</ele>
        <time>2015-06-03T14:18:06Z</time>
      </trkpt>
      <trkpt lat="49.05265" lon="-1.60214">
        <ele>16.78119</ele>
        <time>2015-06-03T14:18:11Z</time>
      </trkpt>
      <trkpt lat="49.0526" lon="-1.60213">
        <ele>16.969225</ele>
        <time>2015-06-03T14:18:16Z</time>
      </trkpt>
      <trkpt lat="49.05255" lon="-1.60213">
        <ele>16.969225</ele>
        <time>2015-06-03T14:18:21Z</time>
      </trkpt>
      <trkpt lat="49.05248" lon="-1.60212">
        <ele>17.087088</ele>
        <time>2015-06-03T14:18:26Z</time>
      </trkpt>
      <trkpt lat="49.05242" lon="-1.60211">
        <ele>17.087088</ele>
        <time>2015-06-03T14:18:31Z</time>
      </trkpt>
      <trkpt lat="49.05235" lon="-1.60208">
        <ele>17.182697</ele>
        <time>2015-06-03T14:18:36Z</time>
      </trkpt>
      <trkpt lat="49.05229" lon="-1.60207">
        <ele>17.182697</ele>
        <time>2015-06-03T14:18:41Z</time>
      </trkpt>
      <trkpt lat="49.05223" lon="-1.60209">
        <ele>17.257296</ele>
        <time>2015-06-03T14:18:46Z</time>
      </trkpt>
      <trkpt lat="49.05216" lon="-1.60207">
        <ele>17.257296</ele>
        <time>2015-06-03T14:18:51Z</time>
      </trkpt>
      <trkpt lat="49.0521" lon="-1.60208">
        <ele>17.34092</ele>
        <time>2015-06-03T14:18:56Z</time>
      </trkpt>
      <trkpt lat="49.05204" lon="-1.60205">
        <ele>17.34092</ele>
        <time>2015-06-03T14:19:01Z</time>
      </trkpt>
      <trkpt lat="49.05199" lon="-1.60204">
        <ele>17.403738</ele>
        <time>2015-06-03T14:19:06Z</time>
      </trkpt>
      <trkpt lat="49.05196" lon="-1.60207">
        <ele>17.403738</ele>
        <time>2015-06-03T14:19:11Z</time>
      </trkpt>
      <trkpt lat="49.05196" lon="-1.60206">
        <ele>17.403738</ele>
        <time>2015-06-03T14:19:16Z</time>
      </trkpt>
      <trkpt lat="49.05196" lon="-1.60206">
        <ele>17.403738</ele>
        <time>2015-06-03T14:19:21Z</time>
      </trkpt>
      <trkpt lat="49.05197" lon="-1.60207">
        <ele>17.403738</ele>
        <time>2015-06-03T14:19:26Z</time>
      </trkpt>
      <trkpt lat="49.05197" lon="-1.60206">
        <ele>17.403738</ele>
        <time>2015-06-03T14:19:31Z</time>
      </trkpt>
      <trkpt lat="49.05197" lon="-1.60206">
        <ele>17.403738</ele>
        <time>2015-06-03T14:19:36Z</time>
      </trkpt>
      <trkpt lat="49.05196" lon="-1.60204">
        <ele>17.403738</ele>
        <time>2015-06-03T14:19:41Z</time>
      </trkpt>
      <trkpt lat="49.05197" lon="-1.60204">
        <ele>17.403738</ele>
        <time>2015-06-03T14:19:46Z</time>
      </trkpt>
      <trkpt lat="49.05196" lon="-1.60206">
        <ele>17.403738</ele>
        <time>2015-06-03T14:19:51Z</time>
      </trkpt>
      <trkpt lat="49.05197" lon="-1.60206">
        <ele>17.403738</ele>
        <time>2015-06-03T14:19:56Z</time>
      </trkpt>
      <trkpt lat="49.05196" lon="-1.60204">
        <ele>17.230837</ele>
        <time>2015-06-03T14:20:01Z</time>
      </trkpt>
      <trkpt lat="49.05196" lon="-1.60202">
        <ele>17.230837</ele>
        <time>2015-06-03T14:20:06Z</time>
      </trkpt>
      <trkpt lat="49.05195" lon="-1.60202">
        <ele>17.230837</ele>
        <time>2015-06-03T14:20:11Z</time>
      </trkpt>
      <trkpt lat="49.05194" lon="-1.60204">
        <ele>17.230837</ele>
        <time>2015-06-03T14:20:16Z</time>
      </trkpt>
      <trkpt lat="49.05193" lon="-1.60205">
        <ele>17.230837</ele>
        <time>2015-06-03T14:20:21Z</time>
      </trkpt>
      <trkpt lat="49.05193" lon="-1.60203">
        <ele>17.230837</ele>
        <time>2015-06-03T14:20:26Z</time>
      </trkpt>
      <trkpt lat="49.05188" lon="-1.60202">
        <ele>16.594933</ele>
        <time>2015-06-03T14:20:31Z</time>
      </trkpt>
      <trkpt lat="49.05182" lon="-1.60199">
        <ele>16.594933</ele>
        <time>2015-06-03T14:20:36Z</time>
      </trkpt>
      <trkpt lat="49.05177" lon="-1.60197">
        <ele>16.108177</ele>
        <time>2015-06-03T14:20:41Z</time>
      </trkpt>
      <trkpt lat="49.0517" lon="-1.60197">
        <ele>16.108177</ele>
        <time>2015-06-03T14:20:46Z</time>
      </trkpt>
      <trkpt lat="49.05165" lon="-1.60196">
        <ele>15.789715</ele>
        <time>2015-06-03T14:20:51Z</time>
      </trkpt>
      <trkpt lat="49.05163" lon="-1.60196">
        <ele>15.789715</ele>
        <time>2015-06-03T14:20:56Z</time>
      </trkpt>
      <trkpt lat="49.05159" lon="-1.60196">
        <ele>15.789715</ele>
        <time>2015-06-03T14:21:01Z</time>
      </trkpt>
      <trkpt lat="49.05155" lon="-1.60195">
        <ele>15.613579</ele>
        <time>2015-06-03T14:21:06Z</time>
      </trkpt>
      <trkpt lat="49.05149" lon="-1.60193">
        <ele>15.613579</ele>
        <time>2015-06-03T14:21:11Z</time>
      </trkpt>
      <trkpt lat="49.05144" lon="-1.60189">
        <ele>15.454427</ele>
        <time>2015-06-03T14:21:16Z</time>
      </trkpt>
      <trkpt lat="49.05137" lon="-1.60185">
        <ele>15.454427</ele>
        <time>2015-06-03T14:21:21Z</time>
      </trkpt>
      <trkpt lat="49.05131" lon="-1.60185">
        <ele>15.340186</ele>
        <time>2015-06-03T14:21:26Z</time>
      </trkpt>
      <trkpt lat="49.05126" lon="-1.60186">
        <ele>15.340186</ele>
        <time>2015-06-03T14:21:31Z</time>
      </trkpt>
      <trkpt lat="49.05119" lon="-1.60183">
        <ele>15.296598</ele>
        <time>2015-06-03T14:21:36Z</time>
      </trkpt>
      <trkpt lat="49.05113" lon="-1.60181">
        <ele>15.296598</ele>
        <time>2015-06-03T14:21:41Z</time>
      </trkpt>
      <trkpt lat="49.05108" lon="-1.6018">
        <ele>15.260843</ele>
        <time>2015-06-03T14:21:46Z</time>
      </trkpt>
      <trkpt lat="49.05106" lon="-1.60179">
        <ele>15.260843</ele>
        <time>2015-06-03T14:21:51Z</time>
      </trkpt>
      <trkpt lat="49.05106" lon="-1.6018">
        <ele>15.260843</ele>
        <time>2015-06-03T14:21:56Z</time>
      </trkpt>
      <trkpt lat="49.05106" lon="-1.6018">
        <ele>15.260843</ele>
        <time>2015-06-03T14:22:01Z</time>
      </trkpt>
      <trkpt lat="49.05105" lon="-1.6018">
        <ele>15.260843</ele>
        <time>2015-06-03T14:22:06Z</time>
      </trkpt>
      <trkpt lat="49.05103" lon="-1.60178">
        <ele>15.260843</ele>
        <time>2015-06-03T14:22:11Z</time>
      </trkpt>
      <trkpt lat="49.05097" lon="-1.60175">
        <ele>15.117044</ele>
        <time>2015-06-03T14:22:16Z</time>
      </trkpt>
      <trkpt lat="49.05092" lon="-1.60175">
        <ele>15.117044</ele>
        <time>2015-06-03T14:22:21Z</time>
      </trkpt>
      <trkpt lat="49.05084" lon="-1.60172">
        <ele>15.031945</ele>
        <time>2015-06-03T14:22:26Z</time>
      </trkpt>
      <trkpt lat="49.05078" lon="-1.60169">
        <ele>15.031945</ele>
        <time>2015-06-03T14:22:31Z</time>
      </trkpt>
      <trkpt lat="49.05072" lon="-1.60168">
        <ele>15.015759</ele>
        <time>2015-06-03T14:22:36Z</time>
      </trkpt>
      <trkpt lat="49.05066" lon="-1.60169">
        <ele>15.015759</ele>
        <time>2015-06-03T14:22:41Z</time>
      </trkpt>
      <trkpt lat="49.05062" lon="-1.6017">
        <ele>14.9480505</ele>
        <time>2015-06-03T14:22:46Z</time>
      </trkpt>
      <trkpt lat="49.05055" lon="-1.60169">
        <ele>14.9480505</ele>
        <time>2015-06-03T14:22:51Z</time>
      </trkpt>
      <trkpt lat="49.05049" lon="-1.60166">
        <ele>14.818248</ele>
        <time>2015-06-03T14:22:56Z</time>
      </trkpt>
      <trkpt lat="49.05042" lon="-1.60163">
        <ele>14.818248</ele>
        <time>2015-06-03T14:23:01Z</time>
      </trkpt>
      <trkpt lat="49.05037" lon="-1.60162">
        <ele>14.717603</ele>
        <time>2015-06-03T14:23:06Z</time>
      </trkpt>
      <trkpt lat="49.0503" lon="-1.6016">
        <ele>14.717603</ele>
        <time>2015-06-03T14:23:11Z</time>
      </trkpt>
      <trkpt lat="49.05025" lon="-1.60159">
        <ele>14.687345</ele>
        <time>2015-06-03T14:23:16Z</time>
      </trkpt>
      <trkpt lat="49.05017" lon="-1.60156">
        <ele>14.687345</ele>
        <time>2015-06-03T14:23:21Z</time>
      </trkpt>
      <trkpt lat="49.05011" lon="-1.60153">
        <ele>14.736649</ele>
        <time>2015-06-03T14:23:26Z</time>
      </trkpt>
      <trkpt lat="49.05006" lon="-1.60151">
        <ele>14.736649</ele>
        <time>2015-06-03T14:23:31Z</time>
      </trkpt>
      <trkpt lat="49.05001" lon="-1.6015">
        <ele>14.787323</ele>
        <time>2015-06-03T14:23:36Z</time>
      </trkpt>
      <trkpt lat="49.04994" lon="-1.60149">
        <ele>14.787323</ele>
        <time>2015-06-03T14:23:41Z</time>
      </trkpt>
      <trkpt lat="49.04988" lon="-1.60147">
        <ele>14.853378</ele>
        <time>2015-06-03T14:23:46Z</time>
      </trkpt>
      <trkpt lat="49.04981" lon="-1.60145">
        <ele>14.853378</ele>
        <time>2015-06-03T14:23:51Z</time>
      </trkpt>
      <trkpt lat="49.04975" lon="-1.60143">
        <ele>14.962163</ele>
        <time>2015-06-03T14:23:56Z</time>
      </trkpt>
      <trkpt lat="49.0497" lon="-1.60142">
        <ele>14.962163</ele>
        <time>2015-06-03T14:24:01Z</time>
      </trkpt>
      <trkpt lat="49.04965" lon="-1.60138">
        <ele>15.066839</ele>
        <time>2015-06-03T14:24:06Z</time>
      </trkpt>
      <trkpt lat="49.04958" lon="-1.60138">
        <ele>15.066839</ele>
        <time>2015-06-03T14:24:11Z</time>
      </trkpt>
      <trkpt lat="49.04953" lon="-1.60137">
        <ele>15.181667</ele>
        <time>2015-06-03T14:24:16Z</time>
      </trkpt>
      <trkpt lat="49.04946" lon="-1.60134">
        <ele>15.181667</ele>
        <time>2015-06-03T14:24:21Z</time>
      </trkpt>
      <trkpt lat="49.04941" lon="-1.60131">
        <ele>15.305422</ele>
        <time>2015-06-03T14:24:26Z</time>
      </trkpt>
      <trkpt lat="49.04935" lon="-1.6013">
        <ele>15.305422</ele>
        <time>2015-06-03T14:24:31Z</time>
      </trkpt>
      <trkpt lat="49.04928" lon="-1.60127">
        <ele>15.408123</ele>
        <time>2015-06-03T14:24:36Z</time>
      </trkpt>
      <trkpt lat="49.04922" lon="-1.60124">
        <ele>15.408123</ele>
        <time>2015-06-03T14:24:41Z</time>
      </trkpt>
      <trkpt lat="49.04915" lon="-1.60122">
        <ele>15.577347</ele>
        <time>2015-06-03T14:24:46Z</time>
      </trkpt>
      <trkpt lat="49.0491" lon="-1.60121">
        <ele>15.577347</ele>
        <time>2015-06-03T14:24:51Z</time>
      </trkpt>
      <trkpt lat="49.04903" lon="-1.60122">
        <ele>15.764352</ele>
        <time>2015-06-03T14:24:56Z</time>
      </trkpt>
      <trkpt lat="49.04897" lon="-1.60121">
        <ele>15.764352</ele>
        <time>2015-06-03T14:25:01Z</time>
      </trkpt>
      <trkpt lat="49.04889" lon="-1.60119">
        <ele>16.010406</ele>
        <time>2015-06-03T14:25:06Z</time>
      </trkpt>
      <trkpt lat="49.04883" lon="-1.60118">
        <ele>16.010406</ele>
        <time>2015-06-03T14:25:11Z</time>
      </trkpt>
      <trkpt lat="49.04877" lon="-1.60115">
        <ele>16.31035</ele>
        <time>2015-06-03T14:25:16Z</time>
      </trkpt>
      <trkpt lat="49.04872" lon="-1.60114">
        <ele>16.31035</ele>
        <time>2015-06-03T14:25:21Z</time>
      </trkpt>
      <trkpt lat="49.04866" lon="-1.60113">
        <ele>16.515158</ele>
        <time>2015-06-03T14:25:26Z</time>
      </trkpt>
      <trkpt lat="49.04859" lon="-1.60109">
        <ele>16.515158</ele>
        <time>2015-06-03T14:25:31Z</time>
      </trkpt>
      <trkpt lat="49.04852" lon="-1.60106">
        <ele>16.70319</ele>
        <time>2015-06-03T14:25:36Z</time>
      </trkpt>
      <trkpt lat="49.04846" lon="-1.60106">
        <ele>16.70319</ele>
        <time>2015-06-03T14:25:41Z</time>
      </trkpt>
      <trkpt lat="49.04839" lon="-1.60106">
        <ele>16.831825</ele>
        <time>2015-06-03T14:25:46Z</time>
      </trkpt>
      <trkpt lat="49.04834" lon="-1.60102">
        <ele>16.831825</ele>
        <time>2015-06-03T14:25:51Z</time>
      </trkpt>
      <trkpt lat="49.04836" lon="-1.60098">
        <ele>16.94822</ele>
        <time>2015-06-03T14:25:56Z</time>
      </trkpt>
      <trkpt lat="49.0484" lon="-1.60097">
        <ele>17.222788</ele>
        <time>2015-06-03T14:26:01Z</time>
      </trkpt>
      <trkpt lat="49.04846" lon="-1.60097">
        <ele>17.497356</ele>
        <time>2015-06-03T14:26:11Z</time>
      </trkpt>
      <trkpt lat="49.04866" lon="-1.60104">
        <ele>17.771925</ele>
        <time>2015-06-03T14:26:26Z</time>
      </trkpt>
      <trkpt lat="49.04869" lon="-1.60106">
        <ele>18.046494</ele>
        <time>2015-06-03T14:26:31Z</time>
      </trkpt>
      <trkpt lat="49.04812" lon="-1.60099">
        <ele>18.32106</ele>
        <time>2015-06-03T13:27:31Z</time>
      </trkpt>
      <trkpt lat="49.04824" lon="-1.60102">
        <ele>19.45628</ele>
        <time>2015-06-03T13:27:36Z</time>
      </trkpt>
      <trkpt lat="49.04829" lon="-1.60102">
        <ele>19.45628</ele>
        <time>2015-06-03T13:27:41Z</time>
      </trkpt>
      <trkpt lat="49.0483" lon="-1.60101">
        <ele>19.45628</ele>
        <time>2015-06-03T13:27:46Z</time>
      </trkpt>
      <trkpt lat="49.0483" lon="-1.60102">
        <ele>19.45628</ele>
        <time>2015-06-03T13:27:51Z</time>
      </trkpt>
      <trkpt lat="49.04833" lon="-1.60105">
        <ele>20.267252</ele>
        <time>2015-06-03T14:27:56Z</time>
      </trkpt>
      <trkpt lat="49.04834" lon="-1.60106">
        <ele>20.267252</ele>
        <time>2015-06-03T14:28:01Z</time>
      </trkpt>
      <trkpt lat="49.04833" lon="-1.60107">
        <ele>20.267252</ele>
        <time>2015-06-03T14:28:06Z</time>
      </trkpt>
      <trkpt lat="49.04832" lon="-1.60105">
        <ele>20.267252</ele>
        <time>2015-06-03T14:28:11Z</time>
      </trkpt>
      <trkpt lat="49.04829" lon="-1.60102">
        <ele>20.267252</ele>
        <time>2015-06-03T14:28:16Z</time>
      </trkpt>
      <trkpt lat="49.04828" lon="-1.60101">
        <ele>20.919641</ele>
        <time>2015-06-03T14:28:21Z</time>
      </trkpt>
      <trkpt lat="49.04828" lon="-1.60101">
        <ele>20.919641</ele>
        <time>2015-06-03T14:28:26Z</time>
      </trkpt>
      <trkpt lat="49.04828" lon="-1.601">
        <ele>20.919641</ele>
        <time>2015-06-03T14:28:31Z</time>
      </trkpt>
      <trkpt lat="49.04829" lon="-1.60099">
        <ele>20.919641</ele>
        <time>2015-06-03T14:28:36Z</time>
      </trkpt>
      <trkpt lat="49.04829" lon="-1.60099">
        <ele>20.919641</ele>
        <time>2015-06-03T14:28:41Z</time>
      </trkpt>
      <trkpt lat="49.04828" lon="-1.60101">
        <ele>20.919641</ele>
        <time>2015-06-03T14:28:46Z</time>
      </trkpt>
      <trkpt lat="49.04827" lon="-1.60103">
        <ele>20.919641</ele>
        <time>2015-06-03T14:28:51Z</time>
      </trkpt>
      <trkpt lat="49.04827" lon="-1.60103">
        <ele>20.919641</ele>
        <time>2015-06-03T14:28:56Z</time>
      </trkpt>
      <trkpt lat="49.04826" lon="-1.60103">
        <ele>20.919641</ele>
        <time>2015-06-03T14:29:01Z</time>
      </trkpt>
      <trkpt lat="49.04825" lon="-1.60103">
        <ele>20.919641</ele>
        <time>2015-06-03T14:29:06Z</time>
      </trkpt>
      <trkpt lat="49.04825" lon="-1.60102">
        <ele>20.919641</ele>
        <time>2015-06-03T14:29:11Z</time>
      </trkpt>
      <trkpt lat="49.04827" lon="-1.60102">
        <ele>21.509787</ele>
        <time>2015-06-03T14:29:16Z</time>
      </trkpt>
      <trkpt lat="49.04827" lon="-1.60103">
        <ele>21.509787</ele>
        <time>2015-06-03T14:29:21Z</time>
      </trkpt>
      <trkpt lat="49.04827" lon="-1.60103">
        <ele>21.509787</ele>
        <time>2015-06-03T14:29:26Z</time>
      </trkpt>
      <trkpt lat="49.04827" lon="-1.60102">
        <ele>21.509787</ele>
        <time>2015-06-03T14:31:01Z</time>
      </trkpt>
      <trkpt lat="49.04827" lon="-1.60102">
        <ele>21.509787</ele>
        <time>2015-06-03T14:31:06Z</time>
      </trkpt>
      <trkpt lat="49.04827" lon="-1.60103">
        <ele>21.509787</ele>
        <time>2015-06-03T14:31:31Z</time>
      </trkpt>
      <trkpt lat="49.04827" lon="-1.60103">
        <ele>21.509787</ele>
        <time>2015-06-03T14:31:36Z</time>
      </trkpt>
      <trkpt lat="49.04826" lon="-1.60102">
        <ele>21.509787</ele>
        <time>2015-06-03T14:31:51Z</time>
      </trkpt>
      <trkpt lat="49.04826" lon="-1.60102">
        <ele>21.509787</ele>
        <time>2015-06-03T14:31:56Z</time>
      </trkpt>
      <trkpt lat="49.04826" lon="-1.60101">
        <ele>21.509787</ele>
        <time>2015-06-03T14:32:56Z</time>
      </trkpt>
      <trkpt lat="49.04826" lon="-1.60101">
        <ele>21.509787</ele>
        <time>2015-06-03T14:33:01Z</time>
      </trkpt>
      <trkpt lat="49.04826" lon="-1.601">
        <ele>21.509787</ele>
        <time>2015-06-03T14:33:21Z</time>
      </trkpt>
      <trkpt lat="49.04826" lon="-1.601">
        <ele>21.509787</ele>
        <time>2015-06-03T14:33:26Z</time>
      </trkpt>
      <trkpt lat="49.04826" lon="-1.60101">
        <ele>21.509787</ele>
        <time>2015-06-03T14:33:31Z</time>
      </trkpt>
      <trkpt lat="49.0482" lon="-1.60103">
        <ele>21.392187</ele>
        <time>2015-06-03T14:33:36Z</time>
      </trkpt>
      <trkpt lat="49.04812" lon="-1.60108">
        <ele>21.392187</ele>
        <time>2015-06-03T14:33:41Z</time>
      </trkpt>
      <trkpt lat="49.04807" lon="-1.6011">
        <ele>21.13809</ele>
        <time>2015-06-03T14:33:46Z</time>
      </trkpt>
      <trkpt lat="49.04801" lon="-1.60101">
        <ele>21.13809</ele>
        <time>2015-06-03T14:33:51Z</time>
      </trkpt>
      <trkpt lat="49.04794" lon="-1.60095">
        <ele>20.974562</ele>
        <time>2015-06-03T14:33:56Z</time>
      </trkpt>
      <trkpt lat="49.04787" lon="-1.6009">
        <ele>20.974562</ele>
        <time>2015-06-03T14:34:01Z</time>
      </trkpt>
      <trkpt lat="49.04781" lon="-1.60087">
        <ele>20.895597</ele>
        <time>2015-06-03T14:34:06Z</time>
      </trkpt>
      <trkpt lat="49.04775" lon="-1.60085">
        <ele>20.895597</ele>
        <time>2015-06-03T14:34:11Z</time>
      </trkpt>
      <trkpt lat="49.04769" lon="-1.60085">
        <ele>20.938662</ele>
        <time>2015-06-03T14:34:16Z</time>
      </trkpt>
      <trkpt lat="49.04762" lon="-1.60083">
        <ele>20.938662</ele>
        <time>2015-06-03T14:34:21Z</time>
      </trkpt>
      <trkpt lat="49.04756" lon="-1.60081">
        <ele>20.965214</ele>
        <time>2015-06-03T14:34:26Z</time>
      </trkpt>
      <trkpt lat="49.04751" lon="-1.60078">
        <ele>20.965214</ele>
        <time>2015-06-03T14:34:31Z</time>
      </trkpt>
      <trkpt lat="49.04744" lon="-1.60077">
        <ele>21.019894</ele>
        <time>2015-06-03T14:34:36Z</time>
      </trkpt>
      <trkpt lat="49.04737" lon="-1.60075">
        <ele>21.019894</ele>
        <time>2015-06-03T14:34:41Z</time>
      </trkpt>
      <trkpt lat="49.04733" lon="-1.60074">
        <ele>21.028711</ele>
        <time>2015-06-03T14:34:46Z</time>
      </trkpt>
      <trkpt lat="49.04726" lon="-1.60073">
        <ele>21.028711</ele>
        <time>2015-06-03T14:34:51Z</time>
      </trkpt>
      <trkpt lat="49.04721" lon="-1.60071">
        <ele>20.937672</ele>
        <time>2015-06-03T14:34:56Z</time>
      </trkpt>
      <trkpt lat="49.04714" lon="-1.60068">
        <ele>20.937672</ele>
        <time>2015-06-03T14:35:01Z</time>
      </trkpt>
      <trkpt lat="49.04706" lon="-1.60066">
        <ele>20.812325</ele>
        <time>2015-06-03T14:35:06Z</time>
      </trkpt>
      <trkpt lat="49.047" lon="-1.60066">
        <ele>20.812325</ele>
        <time>2015-06-03T14:35:11Z</time>
      </trkpt>
      <trkpt lat="49.04693" lon="-1.60067">
        <ele>20.670288</ele>
        <time>2015-06-03T14:35:16Z</time>
      </trkpt>
      <trkpt lat="49.04688" lon="-1.60064">
        <ele>20.670288</ele>
        <time>2015-06-03T14:35:21Z</time>
      </trkpt>
      <trkpt lat="49.04683" lon="-1.60061">
        <ele>20.47029</ele>
        <time>2015-06-03T14:35:26Z</time>
      </trkpt>
      <trkpt lat="49.04677" lon="-1.60058">
        <ele>20.47029</ele>
        <time>2015-06-03T14:35:31Z</time>
      </trkpt>
      <trkpt lat="49.04671" lon="-1.60056">
        <ele>20.246317</ele>
        <time>2015-06-03T14:35:36Z</time>
      </trkpt>
      <trkpt lat="49.04666" lon="-1.60055">
        <ele>20.246317</ele>
        <time>2015-06-03T14:35:41Z</time>
      </trkpt>
      <trkpt lat="49.0466" lon="-1.60053">
        <ele>19.943466</ele>
        <time>2015-06-03T14:35:46Z</time>
      </trkpt>
      <trkpt lat="49.04653" lon="-1.60052">
        <ele>19.943466</ele>
        <time>2015-06-03T14:35:51Z</time>
      </trkpt>
      <trkpt lat="49.04645" lon="-1.60049">
        <ele>19.611963</ele>
        <time>2015-06-03T14:35:56Z</time>
      </trkpt>
      <trkpt lat="49.0464" lon="-1.60048">
        <ele>19.611963</ele>
        <time>2015-06-03T14:36:01Z</time>
      </trkpt>
      <trkpt lat="49.04634" lon="-1.60046">
        <ele>19.269596</ele>
        <time>2015-06-03T14:36:06Z</time>
      </trkpt>
      <trkpt lat="49.04626" lon="-1.60045">
        <ele>19.269596</ele>
        <time>2015-06-03T14:36:11Z</time>
      </trkpt>
      <trkpt lat="49.04619" lon="-1.60043">
        <ele>19.004932</ele>
        <time>2015-06-03T14:36:16Z</time>
      </trkpt>
      <trkpt lat="49.04613" lon="-1.60042">
        <ele>19.004932</ele>
        <time>2015-06-03T14:36:21Z</time>
      </trkpt>
      <trkpt lat="49.04607" lon="-1.6004">
        <ele>18.79892</ele>
        <time>2015-06-03T14:36:26Z</time>
      </trkpt>
      <trkpt lat="49.04602" lon="-1.60039">
        <ele>18.79892</ele>
        <time>2015-06-03T14:36:31Z</time>
      </trkpt>
      <trkpt lat="49.04595" lon="-1.60038">
        <ele>18.590502</ele>
        <time>2015-06-03T14:36:36Z</time>
      </trkpt>
      <trkpt lat="49.0459" lon="-1.60035">
        <ele>18.590502</ele>
        <time>2015-06-03T14:36:41Z</time>
      </trkpt>
      <trkpt lat="49.04584" lon="-1.60033">
        <ele>18.36633</ele>
        <time>2015-06-03T14:36:46Z</time>
      </trkpt>
      <trkpt lat="49.04578" lon="-1.6003">
        <ele>18.36633</ele>
        <time>2015-06-03T14:36:51Z</time>
      </trkpt>
      <trkpt lat="49.04572" lon="-1.60029">
        <ele>18.171705</ele>
        <time>2015-06-03T14:36:56Z</time>
      </trkpt>
      <trkpt lat="49.04566" lon="-1.60028">
        <ele>18.171705</ele>
        <time>2015-06-03T14:37:01Z</time>
      </trkpt>
      <trkpt lat="49.0456" lon="-1.60025">
        <ele>17.990862</ele>
        <time>2015-06-03T14:37:06Z</time>
      </trkpt>
      <trkpt lat="49.04553" lon="-1.60024">
        <ele>17.990862</ele>
        <time>2015-06-03T14:37:11Z</time>
      </trkpt>
      <trkpt lat="49.04547" lon="-1.60023">
        <ele>17.852367</ele>
        <time>2015-06-03T14:37:16Z</time>
      </trkpt>
      <trkpt lat="49.0454" lon="-1.60021">
        <ele>17.852367</ele>
        <time>2015-06-03T14:37:21Z</time>
      </trkpt>
      <trkpt lat="49.04533" lon="-1.60019">
        <ele>17.739313</ele>
        <time>2015-06-03T14:37:26Z</time>
      </trkpt>
      <trkpt lat="49.04528" lon="-1.60018">
        <ele>17.739313</ele>
        <time>2015-06-03T14:37:31Z</time>
      </trkpt>
      <trkpt lat="49.04522" lon="-1.60017">
        <ele>17.621538</ele>
        <time>2015-06-03T14:37:36Z</time>
      </trkpt>
      <trkpt lat="49.04517" lon="-1.60017">
        <ele>17.621538</ele>
        <time>2015-06-03T14:37:41Z</time>
      </trkpt>
      <trkpt lat="49.04511" lon="-1.60017">
        <ele>17.370209</ele>
        <time>2015-06-03T14:37:46Z</time>
      </trkpt>
      <trkpt lat="49.04504" lon="-1.60015">
        <ele>17.370209</ele>
        <time>2015-06-03T14:37:51Z</time>
      </trkpt>
      <trkpt lat="49.04498" lon="-1.60015">
        <ele>17.024828</ele>
        <time>2015-06-03T14:37:56Z</time>
      </trkpt>
      <trkpt lat="49.04491" lon="-1.60012">
        <ele>17.024828</ele>
        <time>2015-06-03T14:38:01Z</time>
      </trkpt>
      <trkpt lat="49.04485" lon="-1.60009">
        <ele>16.636656</ele>
        <time>2015-06-03T14:38:06Z</time>
      </trkpt>
      <trkpt lat="49.04478" lon="-1.60006">
        <ele>16.636656</ele>
        <time>2015-06-03T14:38:11Z</time>
      </trkpt>
      <trkpt lat="49.04472" lon="-1.60006">
        <ele>16.2821</ele>
        <time>2015-06-03T14:38:16Z</time>
      </trkpt>
      <trkpt lat="49.04465" lon="-1.60004">
        <ele>16.2821</ele>
        <time>2015-06-03T14:38:21Z</time>
      </trkpt>
      <trkpt lat="49.04458" lon="-1.60004">
        <ele>16.017431</ele>
        <time>2015-06-03T14:38:26Z</time>
      </trkpt>
      <trkpt lat="49.04451" lon="-1.60002">
        <ele>16.017431</ele>
        <time>2015-06-03T14:38:31Z</time>
      </trkpt>
      <trkpt lat="49.04445" lon="-1.60002">
        <ele>15.865683</ele>
        <time>2015-06-03T14:38:36Z</time>
      </trkpt>
      <trkpt lat="49.0444" lon="-1.60001">
        <ele>15.865683</ele>
        <time>2015-06-03T14:38:41Z</time>
      </trkpt>
      <trkpt lat="49.04435" lon="-1.59998">
        <ele>15.761387</ele>
        <time>2015-06-03T14:38:46Z</time>
      </trkpt>
      <trkpt lat="49.0443" lon="-1.59996">
        <ele>15.761387</ele>
        <time>2015-06-03T14:38:51Z</time>
      </trkpt>
      <trkpt lat="49.04424" lon="-1.59996">
        <ele>15.629316</ele>
        <time>2015-06-03T14:38:56Z</time>
      </trkpt>
      <trkpt lat="49.04417" lon="-1.59993">
        <ele>15.629316</ele>
        <time>2015-06-03T14:39:01Z</time>
      </trkpt>
      <trkpt lat="49.04411" lon="-1.5999">
        <ele>15.443054</ele>
        <time>2015-06-03T14:39:06Z</time>
      </trkpt>
      <trkpt lat="49.04405" lon="-1.5999">
        <ele>15.443054</ele>
        <time>2015-06-03T14:39:11Z</time>
      </trkpt>
      <trkpt lat="49.04399" lon="-1.5999">
        <ele>15.250308</ele>
        <time>2015-06-03T14:39:16Z</time>
      </trkpt>
      <trkpt lat="49.04392" lon="-1.59988">
        <ele>15.250308</ele>
        <time>2015-06-03T14:39:21Z</time>
      </trkpt>
      <trkpt lat="49.04386" lon="-1.59987">
        <ele>15.066453</ele>
        <time>2015-06-03T14:39:26Z</time>
      </trkpt>
      <trkpt lat="49.04381" lon="-1.59986">
        <ele>15.066453</ele>
        <time>2015-06-03T14:39:31Z</time>
      </trkpt>
      <trkpt lat="49.04374" lon="-1.59985">
        <ele>14.804808</ele>
        <time>2015-06-03T14:39:36Z</time>
      </trkpt>
      <trkpt lat="49.04368" lon="-1.59982">
        <ele>14.804808</ele>
        <time>2015-06-03T14:39:41Z</time>
      </trkpt>
      <trkpt lat="49.04361" lon="-1.59982">
        <ele>14.558186</ele>
        <time>2015-06-03T14:39:46Z</time>
      </trkpt>
      <trkpt lat="49.04355" lon="-1.59979">
        <ele>14.558186</ele>
        <time>2015-06-03T14:39:51Z</time>
      </trkpt>
      <trkpt lat="49.04348" lon="-1.59979">
        <ele>14.41252</ele>
        <time>2015-06-03T14:39:56Z</time>
      </trkpt>
      <trkpt lat="49.04342" lon="-1.59979">
        <ele>14.41252</ele>
        <time>2015-06-03T14:40:01Z</time>
      </trkpt>
      <trkpt lat="49.04337" lon="-1.59978">
        <ele>14.331833</ele>
        <time>2015-06-03T14:40:06Z</time>
      </trkpt>
      <trkpt lat="49.04331" lon="-1.59978">
        <ele>14.331833</ele>
        <time>2015-06-03T14:40:11Z</time>
      </trkpt>
      <trkpt lat="49.04325" lon="-1.59976">
        <ele>14.239355</ele>
        <time>2015-06-03T14:40:16Z</time>
      </trkpt>
      <trkpt lat="49.04318" lon="-1.59974">
        <ele>14.239355</ele>
        <time>2015-06-03T14:40:21Z</time>
      </trkpt>
      <trkpt lat="49.04312" lon="-1.59973">
        <ele>14.1648445</ele>
        <time>2015-06-03T14:40:26Z</time>
      </trkpt>
      <trkpt lat="49.04307" lon="-1.59972">
        <ele>14.1648445</ele>
        <time>2015-06-03T14:40:31Z</time>
      </trkpt>
      <trkpt lat="49.043" lon="-1.59968">
        <ele>14.092571</ele>
        <time>2015-06-03T14:40:36Z</time>
      </trkpt>
      <trkpt lat="49.04294" lon="-1.59967">
        <ele>14.092571</ele>
        <time>2015-06-03T14:40:41Z</time>
      </trkpt>
      <trkpt lat="49.04288" lon="-1.59965">
        <ele>13.979114</ele>
        <time>2015-06-03T14:40:46Z</time>
      </trkpt>
      <trkpt lat="49.04283" lon="-1.59965">
        <ele>13.979114</ele>
        <time>2015-06-03T14:40:51Z</time>
      </trkpt>
      <trkpt lat="49.04277" lon="-1.59965">
        <ele>13.856396</ele>
        <time>2015-06-03T14:40:56Z</time>
      </trkpt>
      <trkpt lat="49.0427" lon="-1.59965">
        <ele>13.856396</ele>
        <time>2015-06-03T14:41:01Z</time>
      </trkpt>
      <trkpt lat="49.04264" lon="-1.59963">
        <ele>13.696361</ele>
        <time>2015-06-03T14:41:06Z</time>
      </trkpt>
      <trkpt lat="49.04257" lon="-1.59964">
        <ele>13.696361</ele>
        <time>2015-06-03T14:41:11Z</time>
      </trkpt>
      <trkpt lat="49.04251" lon="-1.59963">
        <ele>13.530746</ele>
        <time>2015-06-03T14:41:16Z</time>
      </trkpt>
      <trkpt lat="49.04245" lon="-1.59964">
        <ele>13.530746</ele>
        <time>2015-06-03T14:41:21Z</time>
      </trkpt>
      <trkpt lat="49.04239" lon="-1.59963">
        <ele>13.374553</ele>
        <time>2015-06-03T14:41:26Z</time>
      </trkpt>
      <trkpt lat="49.04238" lon="-1.59962">
        <ele>13.374553</ele>
        <time>2015-06-03T14:41:31Z</time>
      </trkpt>
      <trkpt lat="49.04237" lon="-1.5996">
        <ele>13.374553</ele>
        <time>2015-06-03T14:41:36Z</time>
      </trkpt>
      <trkpt lat="49.04236" lon="-1.59961">
        <ele>13.374553</ele>
        <time>2015-06-03T14:41:41Z</time>
      </trkpt>
      <trkpt lat="49.04234" lon="-1.59962">
        <ele>13.374553</ele>
        <time>2015-06-03T14:41:46Z</time>
      </trkpt>
      <trkpt lat="49.04233" lon="-1.59962">
        <ele>13.374553</ele>
        <time>2015-06-03T14:41:51Z</time>
      </trkpt>
      <trkpt lat="49.04231" lon="-1.59962">
        <ele>13.374553</ele>
        <time>2015-06-03T14:41:56Z</time>
      </trkpt>
      <trkpt lat="49.04229" lon="-1.59964">
        <ele>13.097525</ele>
        <time>2015-06-03T14:42:01Z</time>
      </trkpt>
      <trkpt lat="49.04229" lon="-1.59963">
        <ele>13.097525</ele>
        <time>2015-06-03T14:42:06Z</time>
      </trkpt>
      <trkpt lat="49.0423" lon="-1.59956">
        <ele>13.097525</ele>
        <time>2015-06-03T14:42:11Z</time>
      </trkpt>
      <trkpt lat="49.04229" lon="-1.59957">
        <ele>13.097525</ele>
        <time>2015-06-03T14:42:16Z</time>
      </trkpt>
      <trkpt lat="49.04228" lon="-1.59957">
        <ele>13.097525</ele>
        <time>2015-06-03T14:42:21Z</time>
      </trkpt>
      <trkpt lat="49.04228" lon="-1.59957">
        <ele>13.097525</ele>
        <time>2015-06-03T14:42:26Z</time>
      </trkpt>
      <trkpt lat="49.04229" lon="-1.59956">
        <ele>12.896346</ele>
        <time>2015-06-03T14:42:31Z</time>
      </trkpt>
      <trkpt lat="49.04229" lon="-1.59955">
        <ele>12.896346</ele>
        <time>2015-06-03T14:42:36Z</time>
      </trkpt>
      <trkpt lat="49.0423" lon="-1.59954">
        <ele>12.896346</ele>
        <time>2015-06-03T14:42:41Z</time>
      </trkpt>
      <trkpt lat="49.0423" lon="-1.59954">
        <ele>12.896346</ele>
        <time>2015-06-03T14:42:46Z</time>
      </trkpt>
      <trkpt lat="49.04228" lon="-1.59957">
        <ele>12.896346</ele>
        <time>2015-06-03T14:42:51Z</time>
      </trkpt>
      <trkpt lat="49.04224" lon="-1.59959">
        <ele>12.751271</ele>
        <time>2015-06-03T14:42:56Z</time>
      </trkpt>
      <trkpt lat="49.04218" lon="-1.5996">
        <ele>12.751271</ele>
        <time>2015-06-03T14:43:01Z</time>
      </trkpt>
      <trkpt lat="49.04212" lon="-1.59961">
        <ele>12.528545</ele>
        <time>2015-06-03T14:43:06Z</time>
      </trkpt>
      <trkpt lat="49.04205" lon="-1.59959">
        <ele>12.528545</ele>
        <time>2015-06-03T14:43:11Z</time>
      </trkpt>
      <trkpt lat="49.04197" lon="-1.5996">
        <ele>12.320613</ele>
        <time>2015-06-03T14:43:16Z</time>
      </trkpt>
      <trkpt lat="49.04191" lon="-1.59959">
        <ele>12.320613</ele>
        <time>2015-06-03T14:43:21Z</time>
      </trkpt>
      <trkpt lat="49.04185" lon="-1.59958">
        <ele>12.083373</ele>
        <time>2015-06-03T14:43:26Z</time>
      </trkpt>
      <trkpt lat="49.0418" lon="-1.59956">
        <ele>12.083373</ele>
        <time>2015-06-03T14:43:31Z</time>
      </trkpt>
      <trkpt lat="49.04173" lon="-1.59954">
        <ele>11.804856</ele>
        <time>2015-06-03T14:43:36Z</time>
      </trkpt>
      <trkpt lat="49.04167" lon="-1.59954">
        <ele>11.804856</ele>
        <time>2015-06-03T14:43:41Z</time>
      </trkpt>
      <trkpt lat="49.04161" lon="-1.59954">
        <ele>11.531721</ele>
        <time>2015-06-03T14:43:46Z</time>
      </trkpt>
      <trkpt lat="49.04153" lon="-1.59951">
        <ele>11.531721</ele>
        <time>2015-06-03T14:43:51Z</time>
      </trkpt>
      <trkpt lat="49.04147" lon="-1.5995">
        <ele>11.321584</ele>
        <time>2015-06-03T14:43:56Z</time>
      </trkpt>
      <trkpt lat="49.04142" lon="-1.59948">
        <ele>11.321584</ele>
        <time>2015-06-03T14:44:01Z</time>
      </trkpt>
      <trkpt lat="49.04134" lon="-1.59949">
        <ele>11.198814</ele>
        <time>2015-06-03T14:44:06Z</time>
      </trkpt>
      <trkpt lat="49.04129" lon="-1.59948">
        <ele>11.198814</ele>
        <time>2015-06-03T14:44:11Z</time>
      </trkpt>
      <trkpt lat="49.04122" lon="-1.59943">
        <ele>11.128097</ele>
        <time>2015-06-03T14:44:16Z</time>
      </trkpt>
      <trkpt lat="49.04117" lon="-1.5994">
        <ele>11.128097</ele>
        <time>2015-06-03T14:44:21Z</time>
      </trkpt>
      <trkpt lat="49.04111" lon="-1.5994">
        <ele>11.119781</ele>
        <time>2015-06-03T14:44:26Z</time>
      </trkpt>
      <trkpt lat="49.04104" lon="-1.59938">
        <ele>11.119781</ele>
        <time>2015-06-03T14:44:31Z</time>
      </trkpt>
      <trkpt lat="49.04097" lon="-1.59938">
        <ele>11.183276</ele>
        <time>2015-06-03T14:44:36Z</time>
      </trkpt>
      <trkpt lat="49.0409" lon="-1.59936">
        <ele>11.183276</ele>
        <time>2015-06-03T14:44:41Z</time>
      </trkpt>
      <trkpt lat="49.04085" lon="-1.59934">
        <ele>11.327091</ele>
        <time>2015-06-03T14:44:46Z</time>
      </trkpt>
      <trkpt lat="49.04079" lon="-1.59932">
        <ele>11.327091</ele>
        <time>2015-06-03T14:44:51Z</time>
      </trkpt>
      <trkpt lat="49.04073" lon="-1.59931">
        <ele>11.501236</ele>
        <time>2015-06-03T14:44:56Z</time>
      </trkpt>
      <trkpt lat="49.04066" lon="-1.59929">
        <ele>11.501236</ele>
        <time>2015-06-03T14:45:01Z</time>
      </trkpt>
      <trkpt lat="49.0406" lon="-1.59928">
        <ele>11.688127</ele>
        <time>2015-06-03T14:45:06Z</time>
      </trkpt>
      <trkpt lat="49.04054" lon="-1.59927">
        <ele>11.688127</ele>
        <time>2015-06-03T14:45:11Z</time>
      </trkpt>
      <trkpt lat="49.04046" lon="-1.59925">
        <ele>11.929085</ele>
        <time>2015-06-03T14:45:16Z</time>
      </trkpt>
      <trkpt lat="49.04041" lon="-1.59922">
        <ele>11.929085</ele>
        <time>2015-06-03T14:45:21Z</time>
      </trkpt>
      <trkpt lat="49.04035" lon="-1.5992">
        <ele>12.262244</ele>
        <time>2015-06-03T14:45:26Z</time>
      </trkpt>
      <trkpt lat="49.04029" lon="-1.59918">
        <ele>12.262244</ele>
        <time>2015-06-03T14:45:31Z</time>
      </trkpt>
      <trkpt lat="49.04023" lon="-1.59917">
        <ele>12.564168</ele>
        <time>2015-06-03T14:45:36Z</time>
      </trkpt>
      <trkpt lat="49.04017" lon="-1.59914">
        <ele>12.564168</ele>
        <time>2015-06-03T14:45:41Z</time>
      </trkpt>
      <trkpt lat="49.0401" lon="-1.59914">
        <ele>12.864694</ele>
        <time>2015-06-03T14:45:46Z</time>
      </trkpt>
      <trkpt lat="49.04003" lon="-1.59913">
        <ele>12.864694</ele>
        <time>2015-06-03T14:45:51Z</time>
      </trkpt>
      <trkpt lat="49.03997" lon="-1.5991">
        <ele>13.234719</ele>
        <time>2015-06-03T14:45:56Z</time>
      </trkpt>
      <trkpt lat="49.03992" lon="-1.59909">
        <ele>13.234719</ele>
        <time>2015-06-03T14:46:01Z</time>
      </trkpt>
      <trkpt lat="49.03985" lon="-1.59909">
        <ele>13.595645</ele>
        <time>2015-06-03T14:46:06Z</time>
      </trkpt>
      <trkpt lat="49.03981" lon="-1.59908">
        <ele>13.595645</ele>
        <time>2015-06-03T14:46:11Z</time>
      </trkpt>
      <trkpt lat="49.03975" lon="-1.59905">
        <ele>13.874689</ele>
        <time>2015-06-03T14:46:16Z</time>
      </trkpt>
      <trkpt lat="49.03968" lon="-1.59904">
        <ele>13.874689</ele>
        <time>2015-06-03T14:46:21Z</time>
      </trkpt>
      <trkpt lat="49.03961" lon="-1.59902">
        <ele>14.076724</ele>
        <time>2015-06-03T14:46:26Z</time>
      </trkpt>
      <trkpt lat="49.03954" lon="-1.59902">
        <ele>14.076724</ele>
        <time>2015-06-03T14:46:31Z</time>
      </trkpt>
      <trkpt lat="49.03947" lon="-1.59899">
        <ele>14.321794</ele>
        <time>2015-06-03T14:46:36Z</time>
      </trkpt>
      <trkpt lat="49.03941" lon="-1.59898">
        <ele>14.321794</ele>
        <time>2015-06-03T14:46:41Z</time>
      </trkpt>
      <trkpt lat="49.03936" lon="-1.59895">
        <ele>14.533682</ele>
        <time>2015-06-03T14:46:46Z</time>
      </trkpt>
      <trkpt lat="49.0393" lon="-1.59893">
        <ele>14.533682</ele>
        <time>2015-06-03T14:46:51Z</time>
      </trkpt>
      <trkpt lat="49.03924" lon="-1.59892">
        <ele>14.699535</ele>
        <time>2015-06-03T14:46:56Z</time>
      </trkpt>
      <trkpt lat="49.03916" lon="-1.59891">
        <ele>14.699535</ele>
        <time>2015-06-03T14:47:01Z</time>
      </trkpt>
      <trkpt lat="49.03909" lon="-1.59889">
        <ele>14.879656</ele>
        <time>2015-06-03T14:47:06Z</time>
      </trkpt>
      <trkpt lat="49.03903" lon="-1.59886">
        <ele>14.879656</ele>
        <time>2015-06-03T14:47:11Z</time>
      </trkpt>
      <trkpt lat="49.03898" lon="-1.59885">
        <ele>15.014615</ele>
        <time>2015-06-03T14:47:16Z</time>
      </trkpt>
      <trkpt lat="49.03891" lon="-1.59883">
        <ele>15.014615</ele>
        <time>2015-06-03T14:47:21Z</time>
      </trkpt>
      <trkpt lat="49.03885" lon="-1.59883">
        <ele>15.135967</ele>
        <time>2015-06-03T14:47:26Z</time>
      </trkpt>
      <trkpt lat="49.03879" lon="-1.59881">
        <ele>15.135967</ele>
        <time>2015-06-03T14:47:31Z</time>
      </trkpt>
      <trkpt lat="49.03872" lon="-1.5988">
        <ele>15.273017</ele>
        <time>2015-06-03T14:47:36Z</time>
      </trkpt>
      <trkpt lat="49.03866" lon="-1.59876">
        <ele>15.273017</ele>
        <time>2015-06-03T14:47:41Z</time>
      </trkpt>
      <trkpt lat="49.03859" lon="-1.59875">
        <ele>15.395251</ele>
        <time>2015-06-03T14:47:46Z</time>
      </trkpt>
      <trkpt lat="49.03853" lon="-1.59874">
        <ele>15.395251</ele>
        <time>2015-06-03T14:47:51Z</time>
      </trkpt>
      <trkpt lat="49.03847" lon="-1.59873">
        <ele>15.560936</ele>
        <time>2015-06-03T14:47:56Z</time>
      </trkpt>
      <trkpt lat="49.03841" lon="-1.59873">
        <ele>15.560936</ele>
        <time>2015-06-03T14:48:01Z</time>
      </trkpt>
      <trkpt lat="49.03835" lon="-1.59871">
        <ele>15.723079</ele>
        <time>2015-06-03T14:48:06Z</time>
      </trkpt>
      <trkpt lat="49.03829" lon="-1.59868">
        <ele>15.723079</ele>
        <time>2015-06-03T14:48:11Z</time>
      </trkpt>
      <trkpt lat="49.03823" lon="-1.59865">
        <ele>15.823766</ele>
        <time>2015-06-03T14:48:16Z</time>
      </trkpt>
      <trkpt lat="49.03816" lon="-1.59863">
        <ele>15.823766</ele>
        <time>2015-06-03T14:48:21Z</time>
      </trkpt>
      <trkpt lat="49.0381" lon="-1.5986">
        <ele>15.852768</ele>
        <time>2015-06-03T14:48:26Z</time>
      </trkpt>
      <trkpt lat="49.03805" lon="-1.59859">
        <ele>15.852768</ele>
        <time>2015-06-03T14:48:31Z</time>
      </trkpt>
      <trkpt lat="49.03797" lon="-1.59855">
        <ele>15.772009</ele>
        <time>2015-06-03T14:48:36Z</time>
      </trkpt>
      <trkpt lat="49.03791" lon="-1.59853">
        <ele>15.772009</ele>
        <time>2015-06-03T14:48:41Z</time>
      </trkpt>
      <trkpt lat="49.03785" lon="-1.5985">
        <ele>15.647416</ele>
        <time>2015-06-03T14:48:46Z</time>
      </trkpt>
      <trkpt lat="49.03778" lon="-1.59848">
        <ele>15.647416</ele>
        <time>2015-06-03T14:48:51Z</time>
      </trkpt>
      <trkpt lat="49.03772" lon="-1.59846">
        <ele>15.4825735</ele>
        <time>2015-06-03T14:48:56Z</time>
      </trkpt>
      <trkpt lat="49.03765" lon="-1.59844">
        <ele>15.4825735</ele>
        <time>2015-06-03T14:49:01Z</time>
      </trkpt>
      <trkpt lat="49.03759" lon="-1.59843">
        <ele>15.352988</ele>
        <time>2015-06-03T14:49:06Z</time>
      </trkpt>
      <trkpt lat="49.03753" lon="-1.59841">
        <ele>15.352988</ele>
        <time>2015-06-03T14:49:11Z</time>
      </trkpt>
      <trkpt lat="49.03746" lon="-1.5984">
        <ele>15.270891</ele>
        <time>2015-06-03T14:49:16Z</time>
      </trkpt>
      <trkpt lat="49.0374" lon="-1.59838">
        <ele>15.270891</ele>
        <time>2015-06-03T14:49:21Z</time>
      </trkpt>
      <trkpt lat="49.03732" lon="-1.59835">
        <ele>15.204261</ele>
        <time>2015-06-03T14:49:26Z</time>
      </trkpt>
      <trkpt lat="49.03726" lon="-1.59832">
        <ele>15.204261</ele>
        <time>2015-06-03T14:49:31Z</time>
      </trkpt>
      <trkpt lat="49.0372" lon="-1.59831">
        <ele>15.209862</ele>
        <time>2015-06-03T14:49:36Z</time>
      </trkpt>
      <trkpt lat="49.03714" lon="-1.59828">
        <ele>15.209862</ele>
        <time>2015-06-03T14:49:41Z</time>
      </trkpt>
      <trkpt lat="49.0371" lon="-1.59823">
        <ele>15.195986</ele>
        <time>2015-06-03T14:49:46Z</time>
      </trkpt>
      <trkpt lat="49.03703" lon="-1.59816">
        <ele>15.195986</ele>
        <time>2015-06-03T14:49:51Z</time>
      </trkpt>
      <trkpt lat="49.03697" lon="-1.59809">
        <ele>15.236244</ele>
        <time>2015-06-03T14:49:56Z</time>
      </trkpt>
      <trkpt lat="49.03693" lon="-1.59806">
        <ele>15.236244</ele>
        <time>2015-06-03T14:50:01Z</time>
      </trkpt>
      <trkpt lat="49.03689" lon="-1.59809">
        <ele>15.341055</ele>
        <time>2015-06-03T14:50:06Z</time>
      </trkpt>
      <trkpt lat="49.03685" lon="-1.59814">
        <ele>15.341055</ele>
        <time>2015-06-03T14:50:11Z</time>
      </trkpt>
      <trkpt lat="49.03679" lon="-1.59818">
        <ele>15.404605</ele>
        <time>2015-06-03T14:50:16Z</time>
      </trkpt>
      <trkpt lat="49.03673" lon="-1.5982">
        <ele>15.404605</ele>
        <time>2015-06-03T14:50:21Z</time>
      </trkpt>
      <trkpt lat="49.03666" lon="-1.59818">
        <ele>15.3578</ele>
        <time>2015-06-03T14:50:26Z</time>
      </trkpt>
      <trkpt lat="49.03659" lon="-1.59816">
        <ele>15.3578</ele>
        <time>2015-06-03T14:50:31Z</time>
      </trkpt>
      <trkpt lat="49.03653" lon="-1.59813">
        <ele>15.266634</ele>
        <time>2015-06-03T14:50:36Z</time>
      </trkpt>
      <trkpt lat="49.03647" lon="-1.59812">
        <ele>15.266634</ele>
        <time>2015-06-03T14:50:41Z</time>
      </trkpt>
      <trkpt lat="49.03641" lon="-1.59811">
        <ele>15.163564</ele>
        <time>2015-06-03T14:50:46Z</time>
      </trkpt>
      <trkpt lat="49.03635" lon="-1.5981">
        <ele>15.163564</ele>
        <time>2015-06-03T14:50:51Z</time>
      </trkpt>
      <trkpt lat="49.03629" lon="-1.59808">
        <ele>15.049874</ele>
        <time>2015-06-03T14:50:56Z</time>
      </trkpt>
      <trkpt lat="49.03624" lon="-1.59807">
        <ele>15.049874</ele>
        <time>2015-06-03T14:51:01Z</time>
      </trkpt>
      <trkpt lat="49.03617" lon="-1.59806">
        <ele>14.869144</ele>
        <time>2015-06-03T14:51:06Z</time>
      </trkpt>
      <trkpt lat="49.03613" lon="-1.59803">
        <ele>14.869144</ele>
        <time>2015-06-03T14:51:11Z</time>
      </trkpt>
      <trkpt lat="49.03606" lon="-1.59802">
        <ele>14.569285</ele>
        <time>2015-06-03T14:51:16Z</time>
      </trkpt>
      <trkpt lat="49.03599" lon="-1.59799">
        <ele>14.569285</ele>
        <time>2015-06-03T14:51:21Z</time>
      </trkpt>
      <trkpt lat="49.03592" lon="-1.59797">
        <ele>14.260888</ele>
        <time>2015-06-03T14:51:26Z</time>
      </trkpt>
      <trkpt lat="49.03586" lon="-1.59795">
        <ele>14.260888</ele>
        <time>2015-06-03T14:51:31Z</time>
      </trkpt>
      <trkpt lat="49.0358" lon="-1.59792">
        <ele>14.003208</ele>
        <time>2015-06-03T14:51:36Z</time>
      </trkpt>
      <trkpt lat="49.03575" lon="-1.59791">
        <ele>14.003208</ele>
        <time>2015-06-03T14:51:41Z</time>
      </trkpt>
      <trkpt lat="49.03567" lon="-1.59788">
        <ele>13.706887</ele>
        <time>2015-06-03T14:51:46Z</time>
      </trkpt>
      <trkpt lat="49.03562" lon="-1.59788">
        <ele>13.706887</ele>
        <time>2015-06-03T14:51:51Z</time>
      </trkpt>
      <trkpt lat="49.03557" lon="-1.59787">
        <ele>13.390108</ele>
        <time>2015-06-03T14:51:56Z</time>
      </trkpt>
      <trkpt lat="49.03549" lon="-1.59786">
        <ele>13.390108</ele>
        <time>2015-06-03T14:52:01Z</time>
      </trkpt>
      <trkpt lat="49.03542" lon="-1.59785">
        <ele>13.055354</ele>
        <time>2015-06-03T14:52:06Z</time>
      </trkpt>
      <trkpt lat="49.03536" lon="-1.59782">
        <ele>13.055354</ele>
        <time>2015-06-03T14:52:11Z</time>
      </trkpt>
      <trkpt lat="49.0353" lon="-1.59781">
        <ele>12.748196</ele>
        <time>2015-06-03T14:52:16Z</time>
      </trkpt>
      <trkpt lat="49.03523" lon="-1.5978">
        <ele>12.748196</ele>
        <time>2015-06-03T14:52:21Z</time>
      </trkpt>
      <trkpt lat="49.03517" lon="-1.59777">
        <ele>12.481942</ele>
        <time>2015-06-03T14:52:26Z</time>
      </trkpt>
      <trkpt lat="49.03509" lon="-1.59776">
        <ele>12.481942</ele>
        <time>2015-06-03T14:52:31Z</time>
      </trkpt>
      <trkpt lat="49.03503" lon="-1.59774">
        <ele>12.254383</ele>
        <time>2015-06-03T14:52:36Z</time>
      </trkpt>
      <trkpt lat="49.03497" lon="-1.59772">
        <ele>12.254383</ele>
        <time>2015-06-03T14:52:41Z</time>
      </trkpt>
      <trkpt lat="49.03492" lon="-1.59769">
        <ele>12.106576</ele>
        <time>2015-06-03T14:52:46Z</time>
      </trkpt>
      <trkpt lat="49.03486" lon="-1.59768">
        <ele>12.106576</ele>
        <time>2015-06-03T14:52:51Z</time>
      </trkpt>
      <trkpt lat="49.0348" lon="-1.59767">
        <ele>11.946621</ele>
        <time>2015-06-03T14:52:56Z</time>
      </trkpt>
      <trkpt lat="49.03475" lon="-1.59765">
        <ele>11.946621</ele>
        <time>2015-06-03T14:53:01Z</time>
      </trkpt>
      <trkpt lat="49.03469" lon="-1.59764">
        <ele>11.775853</ele>
        <time>2015-06-03T14:53:06Z</time>
      </trkpt>
      <trkpt lat="49.03462" lon="-1.59763">
        <ele>11.775853</ele>
        <time>2015-06-03T14:53:11Z</time>
      </trkpt>
      <trkpt lat="49.03456" lon="-1.5976">
        <ele>11.566698</ele>
        <time>2015-06-03T14:53:16Z</time>
      </trkpt>
      <trkpt lat="49.03448" lon="-1.59758">
        <ele>11.566698</ele>
        <time>2015-06-03T14:53:21Z</time>
      </trkpt>
      <trkpt lat="49.03442" lon="-1.59755">
        <ele>11.322516</ele>
        <time>2015-06-03T14:53:26Z</time>
      </trkpt>
      <trkpt lat="49.03437" lon="-1.59754">
        <ele>11.322516</ele>
        <time>2015-06-03T14:53:31Z</time>
      </trkpt>
      <trkpt lat="49.0343" lon="-1.59753">
        <ele>11.032092</ele>
        <time>2015-06-03T14:53:36Z</time>
      </trkpt>
      <trkpt lat="49.03424" lon="-1.59752">
        <ele>11.032092</ele>
        <time>2015-06-03T14:53:41Z</time>
      </trkpt>
      <trkpt lat="49.03416" lon="-1.59751">
        <ele>10.786022</ele>
        <time>2015-06-03T14:53:46Z</time>
      </trkpt>
      <trkpt lat="49.03409" lon="-1.59749">
        <ele>10.786022</ele>
        <time>2015-06-03T14:53:51Z</time>
      </trkpt>
      <trkpt lat="49.03403" lon="-1.59746">
        <ele>10.653691</ele>
        <time>2015-06-03T14:53:56Z</time>
      </trkpt>
      <trkpt lat="49.03397" lon="-1.59744">
        <ele>10.653691</ele>
        <time>2015-06-03T14:54:01Z</time>
      </trkpt>
      <trkpt lat="49.03391" lon="-1.59743">
        <ele>10.612583</ele>
        <time>2015-06-03T14:54:06Z</time>
      </trkpt>
      <trkpt lat="49.03386" lon="-1.5974">
        <ele>10.612583</ele>
        <time>2015-06-03T14:54:11Z</time>
      </trkpt>
      <trkpt lat="49.0338" lon="-1.59739">
        <ele>10.540683</ele>
        <time>2015-06-03T14:54:16Z</time>
      </trkpt>
      <trkpt lat="49.03372" lon="-1.59737">
        <ele>10.540683</ele>
        <time>2015-06-03T14:54:21Z</time>
      </trkpt>
      <trkpt lat="49.03367" lon="-1.59737">
        <ele>10.454708</ele>
        <time>2015-06-03T14:54:26Z</time>
      </trkpt>
      <trkpt lat="49.03361" lon="-1.59735">
        <ele>10.454708</ele>
        <time>2015-06-03T14:54:31Z</time>
      </trkpt>
      <trkpt lat="49.03354" lon="-1.59733">
        <ele>10.38458</ele>
        <time>2015-06-03T14:54:36Z</time>
      </trkpt>
      <trkpt lat="49.03348" lon="-1.5973">
        <ele>10.38458</ele>
        <time>2015-06-03T14:54:41Z</time>
      </trkpt>
      <trkpt lat="49.03342" lon="-1.59729">
        <ele>10.271497</ele>
        <time>2015-06-03T14:54:46Z</time>
      </trkpt>
      <trkpt lat="49.03335" lon="-1.59726">
        <ele>10.271497</ele>
        <time>2015-06-03T14:54:51Z</time>
      </trkpt>
      <trkpt lat="49.03329" lon="-1.59726">
        <ele>10.133139</ele>
        <time>2015-06-03T14:54:56Z</time>
      </trkpt>
      <trkpt lat="49.03323" lon="-1.59724">
        <ele>10.133139</ele>
        <time>2015-06-03T14:55:01Z</time>
      </trkpt>
      <trkpt lat="49.03317" lon="-1.59722">
        <ele>10.08682</ele>
        <time>2015-06-03T14:55:06Z</time>
      </trkpt>
      <trkpt lat="49.03311" lon="-1.5972">
        <ele>10.08682</ele>
        <time>2015-06-03T14:55:11Z</time>
      </trkpt>
      <trkpt lat="49.03304" lon="-1.5972">
        <ele>10.068034</ele>
        <time>2015-06-03T14:55:16Z</time>
      </trkpt>
      <trkpt lat="49.03297" lon="-1.59717">
        <ele>10.068034</ele>
        <time>2015-06-03T14:55:21Z</time>
      </trkpt>
      <trkpt lat="49.03291" lon="-1.59715">
        <ele>10.1754465</ele>
        <time>2015-06-03T14:55:26Z</time>
      </trkpt>
      <trkpt lat="49.03284" lon="-1.59713">
        <ele>10.1754465</ele>
        <time>2015-06-03T14:55:31Z</time>
      </trkpt>
      <trkpt lat="49.03278" lon="-1.59712">
        <ele>10.298356</ele>
        <time>2015-06-03T14:55:36Z</time>
      </trkpt>
      <trkpt lat="49.03271" lon="-1.59709">
        <ele>10.298356</ele>
        <time>2015-06-03T14:55:41Z</time>
      </trkpt>
      <trkpt lat="49.03264" lon="-1.59706">
        <ele>10.420608</ele>
        <time>2015-06-03T14:55:46Z</time>
      </trkpt>
      <trkpt lat="49.03258" lon="-1.59706">
        <ele>10.420608</ele>
        <time>2015-06-03T14:55:51Z</time>
      </trkpt>
      <trkpt lat="49.03252" lon="-1.59706">
        <ele>10.613698</ele>
        <time>2015-06-03T14:55:56Z</time>
      </trkpt>
      <trkpt lat="49.03246" lon="-1.59704">
        <ele>10.613698</ele>
        <time>2015-06-03T14:56:01Z</time>
      </trkpt>
      <trkpt lat="49.0324" lon="-1.59704">
        <ele>10.842792</ele>
        <time>2015-06-03T14:56:06Z</time>
      </trkpt>
      <trkpt lat="49.03234" lon="-1.597">
        <ele>10.842792</ele>
        <time>2015-06-03T14:56:11Z</time>
      </trkpt>
      <trkpt lat="49.03227" lon="-1.59698">
        <ele>11.07551</ele>
        <time>2015-06-03T14:56:16Z</time>
      </trkpt>
      <trkpt lat="49.03222" lon="-1.59696">
        <ele>11.07551</ele>
        <time>2015-06-03T14:56:21Z</time>
      </trkpt>
      <trkpt lat="49.03216" lon="-1.59694">
        <ele>11.281845</ele>
        <time>2015-06-03T14:56:26Z</time>
      </trkpt>
      <trkpt lat="49.0321" lon="-1.59691">
        <ele>11.281845</ele>
        <time>2015-06-03T14:56:31Z</time>
      </trkpt>
      <trkpt lat="49.03204" lon="-1.5969">
        <ele>11.462896</ele>
        <time>2015-06-03T14:56:36Z</time>
      </trkpt>
      <trkpt lat="49.03197" lon="-1.59689">
        <ele>11.462896</ele>
        <time>2015-06-03T14:56:41Z</time>
      </trkpt>
      <trkpt lat="49.03191" lon="-1.59688">
        <ele>11.605346</ele>
        <time>2015-06-03T14:56:46Z</time>
      </trkpt>
      <trkpt lat="49.03185" lon="-1.59685">
        <ele>11.605346</ele>
        <time>2015-06-03T14:56:51Z</time>
      </trkpt>
      <trkpt lat="49.03179" lon="-1.59685">
        <ele>11.725796</ele>
        <time>2015-06-03T14:56:56Z</time>
      </trkpt>
      <trkpt lat="49.03173" lon="-1.59685">
        <ele>11.725796</ele>
        <time>2015-06-03T14:57:01Z</time>
      </trkpt>
      <trkpt lat="49.03168" lon="-1.59682">
        <ele>11.839699</ele>
        <time>2015-06-03T14:57:06Z</time>
      </trkpt>
      <trkpt lat="49.03161" lon="-1.59681">
        <ele>11.839699</ele>
        <time>2015-06-03T14:57:11Z</time>
      </trkpt>
      <trkpt lat="49.03155" lon="-1.5968">
        <ele>11.846112</ele>
        <time>2015-06-03T14:57:16Z</time>
      </trkpt>
      <trkpt lat="49.03149" lon="-1.59679">
        <ele>11.846112</ele>
        <time>2015-06-03T14:57:21Z</time>
      </trkpt>
      <trkpt lat="49.03143" lon="-1.59677">
        <ele>11.767113</ele>
        <time>2015-06-03T14:57:26Z</time>
      </trkpt>
      <trkpt lat="49.03136" lon="-1.59675">
        <ele>11.767113</ele>
        <time>2015-06-03T14:57:31Z</time>
      </trkpt>
      <trkpt lat="49.03129" lon="-1.59673">
        <ele>11.666636</ele>
        <time>2015-06-03T14:57:36Z</time>
      </trkpt>
      <trkpt lat="49.03123" lon="-1.59671">
        <ele>11.666636</ele>
        <time>2015-06-03T14:57:41Z</time>
      </trkpt>
      <trkpt lat="49.03116" lon="-1.59669">
        <ele>11.589584</ele>
        <time>2015-06-03T14:57:46Z</time>
      </trkpt>
      <trkpt lat="49.03111" lon="-1.59668">
        <ele>11.589584</ele>
        <time>2015-06-03T14:57:51Z</time>
      </trkpt>
      <trkpt lat="49.03105" lon="-1.59667">
        <ele>11.4766245</ele>
        <time>2015-06-03T14:57:56Z</time>
      </trkpt>
      <trkpt lat="49.031" lon="-1.59666">
        <ele>11.4766245</ele>
        <time>2015-06-03T14:58:01Z</time>
      </trkpt>
      <trkpt lat="49.03093" lon="-1.59664">
        <ele>11.301715</ele>
        <time>2015-06-03T14:58:06Z</time>
      </trkpt>
      <trkpt lat="49.03087" lon="-1.59662">
        <ele>11.301715</ele>
        <time>2015-06-03T14:58:11Z</time>
      </trkpt>
      <trkpt lat="49.03081" lon="-1.59659">
        <ele>11.127376</ele>
        <time>2015-06-03T14:58:16Z</time>
      </trkpt>
      <trkpt lat="49.03077" lon="-1.59657">
        <ele>11.127376</ele>
        <time>2015-06-03T14:58:21Z</time>
      </trkpt>
      <trkpt lat="49.03075" lon="-1.59657">
        <ele>11.127376</ele>
        <time>2015-06-03T14:58:26Z</time>
      </trkpt>
      <trkpt lat="49.03073" lon="-1.59658">
        <ele>11.127376</ele>
        <time>2015-06-03T14:58:31Z</time>
      </trkpt>
      <trkpt lat="49.03072" lon="-1.59658">
        <ele>10.982716</ele>
        <time>2015-06-03T14:58:36Z</time>
      </trkpt>
      <trkpt lat="49.03072" lon="-1.59657">
        <ele>10.982716</ele>
        <time>2015-06-03T14:58:41Z</time>
      </trkpt>
      <trkpt lat="49.03071" lon="-1.59656">
        <ele>10.982716</ele>
        <time>2015-06-03T14:58:46Z</time>
      </trkpt>
      <trkpt lat="49.03072" lon="-1.59656">
        <ele>10.982716</ele>
        <time>2015-06-03T14:58:51Z</time>
      </trkpt>
      <trkpt lat="49.03074" lon="-1.59657">
        <ele>10.982716</ele>
        <time>2015-06-03T14:58:56Z</time>
      </trkpt>
      <trkpt lat="49.03074" lon="-1.59658">
        <ele>10.982716</ele>
        <time>2015-06-03T14:59:01Z</time>
      </trkpt>
      <trkpt lat="49.03075" lon="-1.59659">
        <ele>10.982716</ele>
        <time>2015-06-03T14:59:06Z</time>
      </trkpt>
      <trkpt lat="49.03075" lon="-1.59658">
        <ele>10.982716</ele>
        <time>2015-06-03T14:59:11Z</time>
      </trkpt>
      <trkpt lat="49.03075" lon="-1.59657">
        <ele>10.982716</ele>
        <time>2015-06-03T14:59:16Z</time>
      </trkpt>
      <trkpt lat="49.03074" lon="-1.59656">
        <ele>10.982716</ele>
        <time>2015-06-03T14:59:21Z</time>
      </trkpt>
      <trkpt lat="49.03074" lon="-1.59656">
        <ele>10.982716</ele>
        <time>2015-06-03T14:59:26Z</time>
      </trkpt>
      <trkpt lat="49.03074" lon="-1.59657">
        <ele>10.982716</ele>
        <time>2015-06-03T14:59:31Z</time>
      </trkpt>
      <trkpt lat="49.03074" lon="-1.59658">
        <ele>10.93786</ele>
        <time>2015-06-03T14:59:36Z</time>
      </trkpt>
      <trkpt lat="49.03071" lon="-1.59657">
        <ele>10.93786</ele>
        <time>2015-06-03T14:59:41Z</time>
      </trkpt>
      <trkpt lat="49.03067" lon="-1.59656">
        <ele>10.93786</ele>
        <time>2015-06-03T14:59:46Z</time>
      </trkpt>
      <trkpt lat="49.03062" lon="-1.59652">
        <ele>11.057508</ele>
        <time>2015-06-03T14:59:51Z</time>
      </trkpt>
      <trkpt lat="49.03059" lon="-1.59645">
        <ele>11.057508</ele>
        <time>2015-06-03T14:59:56Z</time>
      </trkpt>
      <trkpt lat="49.03055" lon="-1.5964">
        <ele>11.257038</ele>
        <time>2015-06-03T15:00:01Z</time>
      </trkpt>
      <trkpt lat="49.03053" lon="-1.59633">
        <ele>11.257038</ele>
        <time>2015-06-03T15:00:06Z</time>
      </trkpt>
      <trkpt lat="49.0305" lon="-1.59627">
        <ele>11.529881</ele>
        <time>2015-06-03T15:00:11Z</time>
      </trkpt>
      <trkpt lat="49.03048" lon="-1.59622">
        <ele>11.529881</ele>
        <time>2015-06-03T15:00:16Z</time>
      </trkpt>
      <trkpt lat="49.03046" lon="-1.59619">
        <ele>11.529881</ele>
        <time>2015-06-03T15:00:21Z</time>
      </trkpt>
      <trkpt lat="49.03046" lon="-1.59621">
        <ele>11.529881</ele>
        <time>2015-06-03T15:00:26Z</time>
      </trkpt>
      <trkpt lat="49.03046" lon="-1.59621">
        <ele>11.529881</ele>
        <time>2015-06-03T15:00:31Z</time>
      </trkpt>
      <trkpt lat="49.03046" lon="-1.5962">
        <ele>11.855339</ele>
        <time>2015-06-03T15:00:36Z</time>
      </trkpt>
      <trkpt lat="49.03046" lon="-1.59618">
        <ele>11.855339</ele>
        <time>2015-06-03T15:00:41Z</time>
      </trkpt>
      <trkpt lat="49.03047" lon="-1.59617">
        <ele>11.855339</ele>
        <time>2015-06-03T15:00:46Z</time>
      </trkpt>
      <trkpt lat="49.03047" lon="-1.59617">
        <ele>11.855339</ele>
        <time>2015-06-03T15:00:51Z</time>
      </trkpt>
      <trkpt lat="49.03047" lon="-1.59618">
        <ele>11.855339</ele>
        <time>2015-06-03T15:00:56Z</time>
      </trkpt>
      <trkpt lat="49.03048" lon="-1.59618">
        <ele>11.855339</ele>
        <time>2015-06-03T15:01:01Z</time>
      </trkpt>
      <trkpt lat="49.03047" lon="-1.59618">
        <ele>11.855339</ele>
        <time>2015-06-03T15:01:06Z</time>
      </trkpt>
      <trkpt lat="49.03048" lon="-1.59618">
        <ele>11.855339</ele>
        <time>2015-06-03T15:01:11Z</time>
      </trkpt>
      <trkpt lat="49.03047" lon="-1.59617">
        <ele>11.855339</ele>
        <time>2015-06-03T15:01:16Z</time>
      </trkpt>
      <trkpt lat="49.03046" lon="-1.59616">
        <ele>11.855339</ele>
        <time>2015-06-03T15:01:21Z</time>
      </trkpt>
      <trkpt lat="49.03047" lon="-1.5962">
        <ele>12.170866</ele>
        <time>2015-06-03T15:01:26Z</time>
      </trkpt>
      <trkpt lat="49.03047" lon="-1.5962">
        <ele>12.170866</ele>
        <time>2015-06-03T15:01:31Z</time>
      </trkpt>
      <trkpt lat="49.03048" lon="-1.59618">
        <ele>12.170866</ele>
        <time>2015-06-03T15:01:36Z</time>
      </trkpt>
      <trkpt lat="49.03048" lon="-1.59616">
        <ele>12.170866</ele>
        <time>2015-06-03T15:01:41Z</time>
      </trkpt>
      <trkpt lat="49.03048" lon="-1.59615">
        <ele>12.170866</ele>
        <time>2015-06-03T15:01:46Z</time>
      </trkpt>
      <trkpt lat="49.03048" lon="-1.59615">
        <ele>12.170866</ele>
        <time>2015-06-03T15:01:51Z</time>
      </trkpt>
      <trkpt lat="49.03048" lon="-1.59615">
        <ele>12.170866</ele>
        <time>2015-06-03T15:01:56Z</time>
      </trkpt>
      <trkpt lat="49.03048" lon="-1.59616">
        <ele>12.170866</ele>
        <time>2015-06-03T15:02:01Z</time>
      </trkpt>
      <trkpt lat="49.03048" lon="-1.59617">
        <ele>12.170866</ele>
        <time>2015-06-03T15:02:06Z</time>
      </trkpt>
      <trkpt lat="49.03048" lon="-1.59618">
        <ele>12.170866</ele>
        <time>2015-06-03T15:02:11Z</time>
      </trkpt>
      <trkpt lat="49.03047" lon="-1.59619">
        <ele>12.170866</ele>
        <time>2015-06-03T15:02:16Z</time>
      </trkpt>
      <trkpt lat="49.03047" lon="-1.59618">
        <ele>12.170866</ele>
        <time>2015-06-03T15:02:21Z</time>
      </trkpt>
      <trkpt lat="49.03046" lon="-1.59619">
        <ele>11.856511</ele>
        <time>2015-06-03T15:02:26Z</time>
      </trkpt>
      <trkpt lat="49.03045" lon="-1.59619">
        <ele>11.856511</ele>
        <time>2015-06-03T15:02:31Z</time>
      </trkpt>
      <trkpt lat="49.03045" lon="-1.59619">
        <ele>11.856511</ele>
        <time>2015-06-03T15:02:36Z</time>
      </trkpt>
      <trkpt lat="49.03046" lon="-1.59615">
        <ele>11.856511</ele>
        <time>2015-06-03T15:02:41Z</time>
      </trkpt>
      <trkpt lat="49.03049" lon="-1.5961">
        <ele>11.856511</ele>
        <time>2015-06-03T15:02:46Z</time>
      </trkpt>
      <trkpt lat="49.03052" lon="-1.59603">
        <ele>11.7087</ele>
        <time>2015-06-03T15:02:51Z</time>
      </trkpt>
      <trkpt lat="49.03055" lon="-1.59597">
        <ele>11.7087</ele>
        <time>2015-06-03T15:02:56Z</time>
      </trkpt>
      <trkpt lat="49.03057" lon="-1.59589">
        <ele>11.758753</ele>
        <time>2015-06-03T15:03:01Z</time>
      </trkpt>
      <trkpt lat="49.03059" lon="-1.59585">
        <ele>11.758753</ele>
        <time>2015-06-03T15:03:06Z</time>
      </trkpt>
      <trkpt lat="49.03058" lon="-1.59579">
        <ele>11.758753</ele>
        <time>2015-06-03T15:03:11Z</time>
      </trkpt>
      <trkpt lat="49.03055" lon="-1.59567">
        <ele>11.934262</ele>
        <time>2015-06-03T15:03:16Z</time>
      </trkpt>
      <trkpt lat="49.03052" lon="-1.5956">
        <ele>11.934262</ele>
        <time>2015-06-03T15:03:21Z</time>
      </trkpt>
      <trkpt lat="49.03048" lon="-1.59556">
        <ele>12.311912</ele>
        <time>2015-06-03T15:03:26Z</time>
      </trkpt>
      <trkpt lat="49.03044" lon="-1.59549">
        <ele>12.311912</ele>
        <time>2015-06-03T15:03:31Z</time>
      </trkpt>
      <trkpt lat="49.0304" lon="-1.59546">
        <ele>12.803671</ele>
        <time>2015-06-03T15:03:36Z</time>
      </trkpt>
      <trkpt lat="49.03033" lon="-1.59543">
        <ele>12.803671</ele>
        <time>2015-06-03T15:03:41Z</time>
      </trkpt>
      <trkpt lat="49.03027" lon="-1.59539">
        <ele>13.356493</ele>
        <time>2015-06-03T15:03:46Z</time>
      </trkpt>
      <trkpt lat="49.03022" lon="-1.59534">
        <ele>13.356493</ele>
        <time>2015-06-03T15:03:51Z</time>
      </trkpt>
      <trkpt lat="49.03017" lon="-1.59531">
        <ele>13.935483</ele>
        <time>2015-06-03T15:03:56Z</time>
      </trkpt>
      <trkpt lat="49.03011" lon="-1.59529">
        <ele>13.935483</ele>
        <time>2015-06-03T15:04:01Z</time>
      </trkpt>
      <trkpt lat="49.0301" lon="-1.59532">
        <ele>13.935483</ele>
        <time>2015-06-03T15:04:06Z</time>
      </trkpt>
      <trkpt lat="49.03005" lon="-1.59525">
        <ele>14.47943</ele>
        <time>2015-06-03T15:04:11Z</time>
      </trkpt>
      <trkpt lat="49.02999" lon="-1.59521">
        <ele>14.47943</ele>
        <time>2015-06-03T15:04:16Z</time>
      </trkpt>
      <trkpt lat="49.02995" lon="-1.59517">
        <ele>15.047033</ele>
        <time>2015-06-03T15:04:21Z</time>
      </trkpt>
      <trkpt lat="49.02989" lon="-1.59511">
        <ele>15.047033</ele>
        <time>2015-06-03T15:04:26Z</time>
      </trkpt>
      <trkpt lat="49.02984" lon="-1.59507">
        <ele>15.663815</ele>
        <time>2015-06-03T15:04:31Z</time>
      </trkpt>
      <trkpt lat="49.02979" lon="-1.59502">
        <ele>15.663815</ele>
        <time>2015-06-03T15:04:36Z</time>
      </trkpt>
      <trkpt lat="49.02974" lon="-1.59499">
        <ele>16.209198</ele>
        <time>2015-06-03T15:04:41Z</time>
      </trkpt>
      <trkpt lat="49.0297" lon="-1.59494">
        <ele>16.209198</ele>
        <time>2015-06-03T15:04:46Z</time>
      </trkpt>
      <trkpt lat="49.02967" lon="-1.5949">
        <ele>16.54288</ele>
        <time>2015-06-03T15:04:51Z</time>
      </trkpt>
      <trkpt lat="49.02963" lon="-1.59486">
        <ele>16.54288</ele>
        <time>2015-06-03T15:04:56Z</time>
      </trkpt>
      <trkpt lat="49.02958" lon="-1.59483">
        <ele>16.535479</ele>
        <time>2015-06-03T15:05:01Z</time>
      </trkpt>
      <trkpt lat="49.02951" lon="-1.59479">
        <ele>16.535479</ele>
        <time>2015-06-03T15:05:06Z</time>
      </trkpt>
      <trkpt lat="49.02944" lon="-1.59477">
        <ele>16.442804</ele>
        <time>2015-06-03T15:05:11Z</time>
      </trkpt>
      <trkpt lat="49.02939" lon="-1.59479">
        <ele>16.442804</ele>
        <time>2015-06-03T15:05:16Z</time>
      </trkpt>
      <trkpt lat="49.02934" lon="-1.5948">
        <ele>16.473314</ele>
        <time>2015-06-03T15:05:21Z</time>
      </trkpt>
      <trkpt lat="49.02931" lon="-1.59483">
        <ele>16.473314</ele>
        <time>2015-06-03T15:05:26Z</time>
      </trkpt>
      <trkpt lat="49.02927" lon="-1.59487">
        <ele>16.473314</ele>
        <time>2015-06-03T15:05:31Z</time>
      </trkpt>
      <trkpt lat="49.02921" lon="-1.59492">
        <ele>16.71896</ele>
        <time>2015-06-03T15:05:36Z</time>
      </trkpt>
      <trkpt lat="49.02915" lon="-1.59495">
        <ele>16.71896</ele>
        <time>2015-06-03T15:05:41Z</time>
      </trkpt>
      <trkpt lat="49.02909" lon="-1.595">
        <ele>17.01937</ele>
        <time>2015-06-03T15:05:46Z</time>
      </trkpt>
      <trkpt lat="49.02903" lon="-1.59503">
        <ele>17.01937</ele>
        <time>2015-06-03T15:05:51Z</time>
      </trkpt>
      <trkpt lat="49.02898" lon="-1.59505">
        <ele>17.31229</ele>
        <time>2015-06-03T15:05:56Z</time>
      </trkpt>
      <trkpt lat="49.02892" lon="-1.59507">
        <ele>17.31229</ele>
        <time>2015-06-03T15:06:01Z</time>
      </trkpt>
      <trkpt lat="49.02886" lon="-1.59508">
        <ele>17.583323</ele>
        <time>2015-06-03T15:06:06Z</time>
      </trkpt>
      <trkpt lat="49.0288" lon="-1.59506">
        <ele>17.583323</ele>
        <time>2015-06-03T15:06:11Z</time>
      </trkpt>
      <trkpt lat="49.02874" lon="-1.59502">
        <ele>17.804792</ele>
        <time>2015-06-03T15:06:16Z</time>
      </trkpt>
      <trkpt lat="49.02867" lon="-1.59501">
        <ele>17.804792</ele>
        <time>2015-06-03T15:06:21Z</time>
      </trkpt>
      <trkpt lat="49.02861" lon="-1.595">
        <ele>17.980047</ele>
        <time>2015-06-03T15:06:26Z</time>
      </trkpt>
      <trkpt lat="49.02855" lon="-1.59499">
        <ele>17.980047</ele>
        <time>2015-06-03T15:06:31Z</time>
      </trkpt>
      <trkpt lat="49.02848" lon="-1.59498">
        <ele>18.155571</ele>
        <time>2015-06-03T15:06:36Z</time>
      </trkpt>
      <trkpt lat="49.02842" lon="-1.59496">
        <ele>18.155571</ele>
        <time>2015-06-03T15:06:41Z</time>
      </trkpt>
      <trkpt lat="49.02837" lon="-1.59494">
        <ele>18.316813</ele>
        <time>2015-06-03T15:06:46Z</time>
      </trkpt>
      <trkpt lat="49.02832" lon="-1.59493">
        <ele>18.316813</ele>
        <time>2015-06-03T15:06:51Z</time>
      </trkpt>
      <trkpt lat="49.02826" lon="-1.59492">
        <ele>18.407108</ele>
        <time>2015-06-03T15:06:56Z</time>
      </trkpt>
      <trkpt lat="49.02821" lon="-1.59493">
        <ele>18.407108</ele>
        <time>2015-06-03T15:07:01Z</time>
      </trkpt>
      <trkpt lat="49.02814" lon="-1.59492">
        <ele>18.431828</ele>
        <time>2015-06-03T15:07:06Z</time>
      </trkpt>
      <trkpt lat="49.02808" lon="-1.59491">
        <ele>18.431828</ele>
        <time>2015-06-03T15:07:11Z</time>
      </trkpt>
      <trkpt lat="49.02802" lon="-1.59489">
        <ele>18.453783</ele>
        <time>2015-06-03T15:07:16Z</time>
      </trkpt>
      <trkpt lat="49.02798" lon="-1.59488">
        <ele>18.453783</ele>
        <time>2015-06-03T15:07:21Z</time>
      </trkpt>
      <trkpt lat="49.02793" lon="-1.59486">
        <ele>18.459143</ele>
        <time>2015-06-03T15:07:26Z</time>
      </trkpt>
      <trkpt lat="49.02788" lon="-1.59487">
        <ele>18.459143</ele>
        <time>2015-06-03T15:07:31Z</time>
      </trkpt>
      <trkpt lat="49.02783" lon="-1.59488">
        <ele>18.521614</ele>
        <time>2015-06-03T15:07:36Z</time>
      </trkpt>
      <trkpt lat="49.02779" lon="-1.59492">
        <ele>18.521614</ele>
        <time>2015-06-03T15:07:41Z</time>
      </trkpt>
      <trkpt lat="49.02774" lon="-1.59493">
        <ele>18.56523</ele>
        <time>2015-06-03T15:07:46Z</time>
      </trkpt>
      <trkpt lat="49.02769" lon="-1.5949">
        <ele>18.56523</ele>
        <time>2015-06-03T15:07:51Z</time>
      </trkpt>
      <trkpt lat="49.02763" lon="-1.59488">
        <ele>18.59172</ele>
        <time>2015-06-03T15:07:56Z</time>
      </trkpt>
      <trkpt lat="49.02758" lon="-1.59484">
        <ele>18.59172</ele>
        <time>2015-06-03T15:08:01Z</time>
      </trkpt>
      <trkpt lat="49.02754" lon="-1.59479">
        <ele>18.588333</ele>
        <time>2015-06-03T15:08:06Z</time>
      </trkpt>
      <trkpt lat="49.0275" lon="-1.59478">
        <ele>18.588333</ele>
        <time>2015-06-03T15:08:11Z</time>
      </trkpt>
      <trkpt lat="49.02745" lon="-1.59476">
        <ele>18.543337</ele>
        <time>2015-06-03T15:08:16Z</time>
      </trkpt>
      <trkpt lat="49.0274" lon="-1.59474">
        <ele>18.543337</ele>
        <time>2015-06-03T15:08:21Z</time>
      </trkpt>
      <trkpt lat="49.02735" lon="-1.5947">
        <ele>18.431574</ele>
        <time>2015-06-03T15:08:26Z</time>
      </trkpt>
      <trkpt lat="49.0273" lon="-1.59468">
        <ele>18.431574</ele>
        <time>2015-06-03T15:08:31Z</time>
      </trkpt>
      <trkpt lat="49.02724" lon="-1.59466">
        <ele>18.287565</ele>
        <time>2015-06-03T15:08:36Z</time>
      </trkpt>
      <trkpt lat="49.02718" lon="-1.59464">
        <ele>18.287565</ele>
        <time>2015-06-03T15:08:41Z</time>
      </trkpt>
      <trkpt lat="49.02713" lon="-1.59461">
        <ele>18.229853</ele>
        <time>2015-06-03T15:08:46Z</time>
      </trkpt>
      <trkpt lat="49.02707" lon="-1.59458">
        <ele>18.229853</ele>
        <time>2015-06-03T15:08:51Z</time>
      </trkpt>
      <trkpt lat="49.02702" lon="-1.59455">
        <ele>18.18068</ele>
        <time>2015-06-03T15:08:56Z</time>
      </trkpt>
      <trkpt lat="49.02696" lon="-1.59451">
        <ele>18.18068</ele>
        <time>2015-06-03T15:09:01Z</time>
      </trkpt>
      <trkpt lat="49.02692" lon="-1.5945">
        <ele>18.111202</ele>
        <time>2015-06-03T15:09:06Z</time>
      </trkpt>
      <trkpt lat="49.02688" lon="-1.59448">
        <ele>18.111202</ele>
        <time>2015-06-03T15:09:11Z</time>
      </trkpt>
      <trkpt lat="49.02684" lon="-1.59447">
        <ele>18.111202</ele>
        <time>2015-06-03T15:09:16Z</time>
      </trkpt>
      <trkpt lat="49.0268" lon="-1.59446">
        <ele>18.037985</ele>
        <time>2015-06-03T15:09:21Z</time>
      </trkpt>
      <trkpt lat="49.02675" lon="-1.59445">
        <ele>18.037985</ele>
        <time>2015-06-03T15:09:26Z</time>
      </trkpt>
      <trkpt lat="49.02671" lon="-1.59442">
        <ele>17.96196</ele>
        <time>2015-06-03T15:09:31Z</time>
      </trkpt>
      <trkpt lat="49.02666" lon="-1.59438">
        <ele>17.96196</ele>
        <time>2015-06-03T15:09:36Z</time>
      </trkpt>
      <trkpt lat="49.0266" lon="-1.59436">
        <ele>17.927223</ele>
        <time>2015-06-03T15:09:41Z</time>
      </trkpt>
      <trkpt lat="49.02656" lon="-1.59432">
        <ele>17.927223</ele>
        <time>2015-06-03T15:09:46Z</time>
      </trkpt>
      <trkpt lat="49.02651" lon="-1.59428">
        <ele>17.8304</ele>
        <time>2015-06-03T15:09:51Z</time>
      </trkpt>
      <trkpt lat="49.02647" lon="-1.59426">
        <ele>17.8304</ele>
        <time>2015-06-03T15:09:56Z</time>
      </trkpt>
      <trkpt lat="49.02642" lon="-1.59427">
        <ele>17.8304</ele>
        <time>2015-06-03T15:10:01Z</time>
      </trkpt>
      <trkpt lat="49.02637" lon="-1.59426">
        <ele>17.662329</ele>
        <time>2015-06-03T15:10:06Z</time>
      </trkpt>
      <trkpt lat="49.02631" lon="-1.59426">
        <ele>17.662329</ele>
        <time>2015-06-03T15:10:11Z</time>
      </trkpt>
      <trkpt lat="49.02625" lon="-1.59426">
        <ele>17.486769</ele>
        <time>2015-06-03T15:10:16Z</time>
      </trkpt>
      <trkpt lat="49.02619" lon="-1.59422">
        <ele>17.486769</ele>
        <time>2015-06-03T15:10:21Z</time>
      </trkpt>
      <trkpt lat="49.02612" lon="-1.59419">
        <ele>17.319567</ele>
        <time>2015-06-03T15:10:26Z</time>
      </trkpt>
      <trkpt lat="49.02606" lon="-1.59417">
        <ele>17.319567</ele>
        <time>2015-06-03T15:10:31Z</time>
      </trkpt>
      <trkpt lat="49.026" lon="-1.59416">
        <ele>17.247421</ele>
        <time>2015-06-03T15:10:36Z</time>
      </trkpt>
      <trkpt lat="49.02595" lon="-1.59415">
        <ele>17.247421</ele>
        <time>2015-06-03T15:10:41Z</time>
      </trkpt>
      <trkpt lat="49.02589" lon="-1.59413">
        <ele>17.235088</ele>
        <time>2015-06-03T15:10:46Z</time>
      </trkpt>
      <trkpt lat="49.02583" lon="-1.59412">
        <ele>17.235088</ele>
        <time>2015-06-03T15:10:51Z</time>
      </trkpt>
      <trkpt lat="49.02575" lon="-1.59408">
        <ele>17.292965</ele>
        <time>2015-06-03T15:10:56Z</time>
      </trkpt>
      <trkpt lat="49.02569" lon="-1.59403">
        <ele>17.292965</ele>
        <time>2015-06-03T15:11:01Z</time>
      </trkpt>
      <trkpt lat="49.02563" lon="-1.59399">
        <ele>17.372822</ele>
        <time>2015-06-03T15:11:06Z</time>
      </trkpt>
      <trkpt lat="49.02557" lon="-1.59398">
        <ele>17.372822</ele>
        <time>2015-06-03T15:11:11Z</time>
      </trkpt>
      <trkpt lat="49.02552" lon="-1.59397">
        <ele>17.401072</ele>
        <time>2015-06-03T15:11:16Z</time>
      </trkpt>
      <trkpt lat="49.02546" lon="-1.59393">
        <ele>17.401072</ele>
        <time>2015-06-03T15:11:21Z</time>
      </trkpt>
      <trkpt lat="49.02541" lon="-1.59391">
        <ele>17.352898</ele>
        <time>2015-06-03T15:11:26Z</time>
      </trkpt>
      <trkpt lat="49.02535" lon="-1.59389">
        <ele>17.352898</ele>
        <time>2015-06-03T15:11:31Z</time>
      </trkpt>
      <trkpt lat="49.02529" lon="-1.59391">
        <ele>17.263147</ele>
        <time>2015-06-03T15:11:36Z</time>
      </trkpt>
      <trkpt lat="49.02524" lon="-1.59396">
        <ele>17.263147</ele>
        <time>2015-06-03T15:11:41Z</time>
      </trkpt>
      <trkpt lat="49.0252" lon="-1.594">
        <ele>17.207443</ele>
        <time>2015-06-03T15:11:46Z</time>
      </trkpt>
      <trkpt lat="49.02515" lon="-1.59403">
        <ele>17.207443</ele>
        <time>2015-06-03T15:11:51Z</time>
      </trkpt>
      <trkpt lat="49.0251" lon="-1.59404">
        <ele>17.154861</ele>
        <time>2015-06-03T15:11:56Z</time>
      </trkpt>
      <trkpt lat="49.02503" lon="-1.59405">
        <ele>17.154861</ele>
        <time>2015-06-03T15:12:01Z</time>
      </trkpt>
      <trkpt lat="49.02497" lon="-1.59403">
        <ele>17.119963</ele>
        <time>2015-06-03T15:12:06Z</time>
      </trkpt>
      <trkpt lat="49.02492" lon="-1.594">
        <ele>17.119963</ele>
        <time>2015-06-03T15:12:11Z</time>
      </trkpt>
      <trkpt lat="49.02485" lon="-1.59397">
        <ele>17.072937</ele>
        <time>2015-06-03T15:12:16Z</time>
      </trkpt>
      <trkpt lat="49.02479" lon="-1.59391">
        <ele>17.072937</ele>
        <time>2015-06-03T15:12:21Z</time>
      </trkpt>
      <trkpt lat="49.02473" lon="-1.59385">
        <ele>16.971771</ele>
        <time>2015-06-03T15:12:26Z</time>
      </trkpt>
      <trkpt lat="49.02468" lon="-1.5938">
        <ele>16.971771</ele>
        <time>2015-06-03T15:12:31Z</time>
      </trkpt>
      <trkpt lat="49.02463" lon="-1.59375">
        <ele>16.777676</ele>
        <time>2015-06-03T15:12:36Z</time>
      </trkpt>
      <trkpt lat="49.02458" lon="-1.59372">
        <ele>16.777676</ele>
        <time>2015-06-03T15:12:41Z</time>
      </trkpt>
      <trkpt lat="49.02451" lon="-1.59368">
        <ele>16.527008</ele>
        <time>2015-06-03T15:12:46Z</time>
      </trkpt>
      <trkpt lat="49.02446" lon="-1.59364">
        <ele>16.527008</ele>
        <time>2015-06-03T15:12:51Z</time>
      </trkpt>
      <trkpt lat="49.0244" lon="-1.59361">
        <ele>16.268013</ele>
        <time>2015-06-03T15:12:56Z</time>
      </trkpt>
      <trkpt lat="49.02434" lon="-1.59357">
        <ele>16.268013</ele>
        <time>2015-06-03T15:13:01Z</time>
      </trkpt>
      <trkpt lat="49.02429" lon="-1.59353">
        <ele>15.944515</ele>
        <time>2015-06-03T15:13:06Z</time>
      </trkpt>
      <trkpt lat="49.02423" lon="-1.59349">
        <ele>15.944515</ele>
        <time>2015-06-03T15:13:11Z</time>
      </trkpt>
      <trkpt lat="49.02418" lon="-1.59343">
        <ele>15.576683</ele>
        <time>2015-06-03T15:13:16Z</time>
      </trkpt>
      <trkpt lat="49.02413" lon="-1.59341">
        <ele>15.576683</ele>
        <time>2015-06-03T15:13:21Z</time>
      </trkpt>
      <trkpt lat="49.02408" lon="-1.59339">
        <ele>15.125664</ele>
        <time>2015-06-03T15:13:26Z</time>
      </trkpt>
      <trkpt lat="49.02401" lon="-1.59336">
        <ele>15.125664</ele>
        <time>2015-06-03T15:13:31Z</time>
      </trkpt>
      <trkpt lat="49.02398" lon="-1.59332">
        <ele>14.685368</ele>
        <time>2015-06-03T15:13:36Z</time>
      </trkpt>
      <trkpt lat="49.02393" lon="-1.5933">
        <ele>14.685368</ele>
        <time>2015-06-03T15:13:41Z</time>
      </trkpt>
      <trkpt lat="49.02387" lon="-1.59326">
        <ele>14.270697</ele>
        <time>2015-06-03T15:13:46Z</time>
      </trkpt>
      <trkpt lat="49.02383" lon="-1.59321">
        <ele>14.270697</ele>
        <time>2015-06-03T15:13:51Z</time>
      </trkpt>
      <trkpt lat="49.02376" lon="-1.59315">
        <ele>13.837717</ele>
        <time>2015-06-03T15:13:56Z</time>
      </trkpt>
      <trkpt lat="49.02371" lon="-1.59311">
        <ele>13.837717</ele>
        <time>2015-06-03T15:14:01Z</time>
      </trkpt>
      <trkpt lat="49.02366" lon="-1.59308">
        <ele>13.489854</ele>
        <time>2015-06-03T15:14:06Z</time>
      </trkpt>
      <trkpt lat="49.02361" lon="-1.59306">
        <ele>13.489854</ele>
        <time>2015-06-03T15:14:11Z</time>
      </trkpt>
      <trkpt lat="49.02354" lon="-1.59302">
        <ele>13.265024</ele>
        <time>2015-06-03T15:14:16Z</time>
      </trkpt>
      <trkpt lat="49.02347" lon="-1.59299">
        <ele>13.265024</ele>
        <time>2015-06-03T15:14:21Z</time>
      </trkpt>
      <trkpt lat="49.02341" lon="-1.59297">
        <ele>13.183574</ele>
        <time>2015-06-03T15:14:26Z</time>
      </trkpt>
      <trkpt lat="49.02335" lon="-1.59292">
        <ele>13.183574</ele>
        <time>2015-06-03T15:14:31Z</time>
      </trkpt>
      <trkpt lat="49.02331" lon="-1.59288">
        <ele>13.177455</ele>
        <time>2015-06-03T15:14:36Z</time>
      </trkpt>
      <trkpt lat="49.02326" lon="-1.59284">
        <ele>13.177455</ele>
        <time>2015-06-03T15:14:41Z</time>
      </trkpt>
      <trkpt lat="49.0232" lon="-1.59281">
        <ele>13.197793</ele>
        <time>2015-06-03T15:14:46Z</time>
      </trkpt>
      <trkpt lat="49.02315" lon="-1.59277">
        <ele>13.197793</ele>
        <time>2015-06-03T15:14:51Z</time>
      </trkpt>
      <trkpt lat="49.02307" lon="-1.59272">
        <ele>13.2280245</ele>
        <time>2015-06-03T15:14:56Z</time>
      </trkpt>
      <trkpt lat="49.02302" lon="-1.59269">
        <ele>13.2280245</ele>
        <time>2015-06-03T15:15:01Z</time>
      </trkpt>
      <trkpt lat="49.02296" lon="-1.59264">
        <ele>13.382455</ele>
        <time>2015-06-03T15:15:06Z</time>
      </trkpt>
      <trkpt lat="49.02291" lon="-1.59261">
        <ele>13.382455</ele>
        <time>2015-06-03T15:15:11Z</time>
      </trkpt>
      <trkpt lat="49.02285" lon="-1.59256">
        <ele>13.550455</ele>
        <time>2015-06-03T15:15:16Z</time>
      </trkpt>
      <trkpt lat="49.02279" lon="-1.59251">
        <ele>13.550455</ele>
        <time>2015-06-03T15:15:21Z</time>
      </trkpt>
      <trkpt lat="49.02273" lon="-1.59248">
        <ele>13.773581</ele>
        <time>2015-06-03T15:15:26Z</time>
      </trkpt>
      <trkpt lat="49.02267" lon="-1.59245">
        <ele>13.773581</ele>
        <time>2015-06-03T15:15:31Z</time>
      </trkpt>
      <trkpt lat="49.02262" lon="-1.59243">
        <ele>14.003699</ele>
        <time>2015-06-03T15:15:36Z</time>
      </trkpt>
      <trkpt lat="49.02256" lon="-1.59239">
        <ele>14.003699</ele>
        <time>2015-06-03T15:15:41Z</time>
      </trkpt>
      <trkpt lat="49.02251" lon="-1.59237">
        <ele>14.181774</ele>
        <time>2015-06-03T15:15:46Z</time>
      </trkpt>
      <trkpt lat="49.02245" lon="-1.59235">
        <ele>14.181774</ele>
        <time>2015-06-03T15:15:51Z</time>
      </trkpt>
      <trkpt lat="49.02237" lon="-1.5923">
        <ele>14.325298</ele>
        <time>2015-06-03T15:15:56Z</time>
      </trkpt>
      <trkpt lat="49.02232" lon="-1.59227">
        <ele>14.325298</ele>
        <time>2015-06-03T15:16:01Z</time>
      </trkpt>
      <trkpt lat="49.02225" lon="-1.59224">
        <ele>14.407342</ele>
        <time>2015-06-03T15:16:06Z</time>
      </trkpt>
      <trkpt lat="49.02221" lon="-1.59223">
        <ele>14.407342</ele>
        <time>2015-06-03T15:16:11Z</time>
      </trkpt>
      <trkpt lat="49.02214" lon="-1.59223">
        <ele>14.576056</ele>
        <time>2015-06-03T15:16:16Z</time>
      </trkpt>
      <trkpt lat="49.02207" lon="-1.59221">
        <ele>14.576056</ele>
        <time>2015-06-03T15:16:21Z</time>
      </trkpt>
      <trkpt lat="49.022" lon="-1.59219">
        <ele>14.795529</ele>
        <time>2015-06-03T15:16:26Z</time>
      </trkpt>
      <trkpt lat="49.02196" lon="-1.59213">
        <ele>14.795529</ele>
        <time>2015-06-03T15:16:31Z</time>
      </trkpt>
      <trkpt lat="49.0219" lon="-1.59206">
        <ele>14.917066</ele>
        <time>2015-06-03T15:16:36Z</time>
      </trkpt>
      <trkpt lat="49.02186" lon="-1.59201">
        <ele>14.917066</ele>
        <time>2015-06-03T15:16:41Z</time>
      </trkpt>
      <trkpt lat="49.0218" lon="-1.59197">
        <ele>14.932866</ele>
        <time>2015-06-03T15:16:46Z</time>
      </trkpt>
      <trkpt lat="49.02175" lon="-1.59196">
        <ele>14.932866</ele>
        <time>2015-06-03T15:16:51Z</time>
      </trkpt>
      <trkpt lat="49.0217" lon="-1.59195">
        <ele>14.864831</ele>
        <time>2015-06-03T15:16:56Z</time>
      </trkpt>
      <trkpt lat="49.02163" lon="-1.59194">
        <ele>14.864831</ele>
        <time>2015-06-03T15:17:01Z</time>
      </trkpt>
      <trkpt lat="49.02157" lon="-1.59194">
        <ele>14.819957</ele>
        <time>2015-06-03T15:17:06Z</time>
      </trkpt>
      <trkpt lat="49.02151" lon="-1.59194">
        <ele>14.819957</ele>
        <time>2015-06-03T15:17:11Z</time>
      </trkpt>
      <trkpt lat="49.02143" lon="-1.59189">
        <ele>14.868503</ele>
        <time>2015-06-03T15:17:16Z</time>
      </trkpt>
      <trkpt lat="49.0214" lon="-1.59185">
        <ele>14.868503</ele>
        <time>2015-06-03T15:17:21Z</time>
      </trkpt>
      <trkpt lat="49.02139" lon="-1.59188">
        <ele>14.868503</ele>
        <time>2015-06-03T15:17:26Z</time>
      </trkpt>
      <trkpt lat="49.02138" lon="-1.59189">
        <ele>14.868503</ele>
        <time>2015-06-03T15:17:31Z</time>
      </trkpt>
      <trkpt lat="49.02137" lon="-1.59186">
        <ele>14.988843</ele>
        <time>2015-06-03T15:17:36Z</time>
      </trkpt>
      <trkpt lat="49.02138" lon="-1.59186">
        <ele>14.988843</ele>
        <time>2015-06-03T15:17:41Z</time>
      </trkpt>
      <trkpt lat="49.02137" lon="-1.59185">
        <ele>14.988843</ele>
        <time>2015-06-03T15:17:46Z</time>
      </trkpt>
      <trkpt lat="49.02135" lon="-1.59186">
        <ele>14.988843</ele>
        <time>2015-06-03T15:17:51Z</time>
      </trkpt>
      <trkpt lat="49.02131" lon="-1.59185">
        <ele>14.988843</ele>
        <time>2015-06-03T15:17:56Z</time>
      </trkpt>
      <trkpt lat="49.02125" lon="-1.59185">
        <ele>15.189568</ele>
        <time>2015-06-03T15:18:01Z</time>
      </trkpt>
      <trkpt lat="49.02121" lon="-1.59185">
        <ele>15.189568</ele>
        <time>2015-06-03T15:18:06Z</time>
      </trkpt>
      <trkpt lat="49.02115" lon="-1.59185">
        <ele>15.492829</ele>
        <time>2015-06-03T15:18:11Z</time>
      </trkpt>
      <trkpt lat="49.0211" lon="-1.59182">
        <ele>15.492829</ele>
        <time>2015-06-03T15:18:16Z</time>
      </trkpt>
      <trkpt lat="49.02106" lon="-1.59174">
        <ele>15.774767</ele>
        <time>2015-06-03T15:18:21Z</time>
      </trkpt>
      <trkpt lat="49.021" lon="-1.59171">
        <ele>15.774767</ele>
        <time>2015-06-03T15:18:26Z</time>
      </trkpt>
      <trkpt lat="49.02097" lon="-1.59168">
        <ele>15.949509</ele>
        <time>2015-06-03T15:18:31Z</time>
      </trkpt>
      <trkpt lat="49.02098" lon="-1.59168">
        <ele>15.949509</ele>
        <time>2015-06-03T15:18:36Z</time>
      </trkpt>
      <trkpt lat="49.02097" lon="-1.59167">
        <ele>15.949509</ele>
        <time>2015-06-03T15:18:41Z</time>
      </trkpt>
      <trkpt lat="49.02098" lon="-1.59167">
        <ele>15.949509</ele>
        <time>2015-06-03T15:18:46Z</time>
      </trkpt>
      <trkpt lat="49.02098" lon="-1.59168">
        <ele>15.949509</ele>
        <time>2015-06-03T15:18:51Z</time>
      </trkpt>
      <trkpt lat="49.02098" lon="-1.59167">
        <ele>15.949509</ele>
        <time>2015-06-03T15:18:56Z</time>
      </trkpt>
      <trkpt lat="49.02098" lon="-1.59167">
        <ele>15.949509</ele>
        <time>2015-06-03T15:19:01Z</time>
      </trkpt>
      <trkpt lat="49.02099" lon="-1.59168">
        <ele>15.949509</ele>
        <time>2015-06-03T15:19:06Z</time>
      </trkpt>
      <trkpt lat="49.02101" lon="-1.59169">
        <ele>15.949509</ele>
        <time>2015-06-03T15:19:11Z</time>
      </trkpt>
      <trkpt lat="49.02101" lon="-1.59167">
        <ele>15.949509</ele>
        <time>2015-06-03T15:19:16Z</time>
      </trkpt>
      <trkpt lat="49.02101" lon="-1.59168">
        <ele>15.949509</ele>
        <time>2015-06-03T15:19:21Z</time>
      </trkpt>
      <trkpt lat="49.02101" lon="-1.59167">
        <ele>15.949509</ele>
        <time>2015-06-03T15:19:26Z</time>
      </trkpt>
      <trkpt lat="49.02101" lon="-1.59166">
        <ele>16.067507</ele>
        <time>2015-06-03T15:19:31Z</time>
      </trkpt>
      <trkpt lat="49.021" lon="-1.59167">
        <ele>16.067507</ele>
        <time>2015-06-03T15:19:36Z</time>
      </trkpt>
      <trkpt lat="49.02098" lon="-1.59167">
        <ele>16.067507</ele>
        <time>2015-06-03T15:19:41Z</time>
      </trkpt>
      <trkpt lat="49.02098" lon="-1.59166">
        <ele>16.067507</ele>
        <time>2015-06-03T15:19:46Z</time>
      </trkpt>
      <trkpt lat="49.02098" lon="-1.59164">
        <ele>16.067507</ele>
        <time>2015-06-03T15:19:51Z</time>
      </trkpt>
      <trkpt lat="49.02097" lon="-1.59165">
        <ele>16.067507</ele>
        <time>2015-06-03T15:19:56Z</time>
      </trkpt>
      <trkpt lat="49.02097" lon="-1.59166">
        <ele>16.067507</ele>
        <time>2015-06-03T15:20:01Z</time>
      </trkpt>
      <trkpt lat="49.02094" lon="-1.59164">
        <ele>16.089214</ele>
        <time>2015-06-03T15:20:06Z</time>
      </trkpt>
      <trkpt lat="49.0209" lon="-1.59162">
        <ele>16.089214</ele>
        <time>2015-06-03T15:20:11Z</time>
      </trkpt>
      <trkpt lat="49.02085" lon="-1.5916">
        <ele>16.122383</ele>
        <time>2015-06-03T15:20:16Z</time>
      </trkpt>
      <trkpt lat="49.02079" lon="-1.59157">
        <ele>16.122383</ele>
        <time>2015-06-03T15:20:21Z</time>
      </trkpt>
      <trkpt lat="49.02073" lon="-1.59155">
        <ele>16.093899</ele>
        <time>2015-06-03T15:20:26Z</time>
      </trkpt>
      <trkpt lat="49.02068" lon="-1.59154">
        <ele>16.093899</ele>
        <time>2015-06-03T15:20:31Z</time>
      </trkpt>
      <trkpt lat="49.02061" lon="-1.59152">
        <ele>16.051495</ele>
        <time>2015-06-03T15:20:36Z</time>
      </trkpt>
      <trkpt lat="49.02055" lon="-1.59149">
        <ele>16.051495</ele>
        <time>2015-06-03T15:20:41Z</time>
      </trkpt>
      <trkpt lat="49.02048" lon="-1.59145">
        <ele>16.02504</ele>
        <time>2015-06-03T15:20:46Z</time>
      </trkpt>
      <trkpt lat="49.02042" lon="-1.59139">
        <ele>16.02504</ele>
        <time>2015-06-03T15:20:51Z</time>
      </trkpt>
      <trkpt lat="49.02037" lon="-1.59133">
        <ele>15.912473</ele>
        <time>2015-06-03T15:20:56Z</time>
      </trkpt>
      <trkpt lat="49.02032" lon="-1.5913">
        <ele>15.912473</ele>
        <time>2015-06-03T15:21:01Z</time>
      </trkpt>
      <trkpt lat="49.02026" lon="-1.59128">
        <ele>15.7491865</ele>
        <time>2015-06-03T15:21:06Z</time>
      </trkpt>
      <trkpt lat="49.02021" lon="-1.59128">
        <ele>15.7491865</ele>
        <time>2015-06-03T15:21:11Z</time>
      </trkpt>
      <trkpt lat="49.02015" lon="-1.59123">
        <ele>15.568121</ele>
        <time>2015-06-03T15:21:16Z</time>
      </trkpt>
      <trkpt lat="49.02009" lon="-1.59116">
        <ele>15.568121</ele>
        <time>2015-06-03T15:21:21Z</time>
      </trkpt>
      <trkpt lat="49.02003" lon="-1.59114">
        <ele>15.3278</ele>
        <time>2015-06-03T15:21:26Z</time>
      </trkpt>
      <trkpt lat="49.01997" lon="-1.59112">
        <ele>15.3278</ele>
        <time>2015-06-03T15:21:31Z</time>
      </trkpt>
      <trkpt lat="49.01991" lon="-1.5911">
        <ele>15.119668</ele>
        <time>2015-06-03T15:21:36Z</time>
      </trkpt>
      <trkpt lat="49.01986" lon="-1.59105">
        <ele>15.119668</ele>
        <time>2015-06-03T15:21:41Z</time>
      </trkpt>
      <trkpt lat="49.0198" lon="-1.59105">
        <ele>14.9274845</ele>
        <time>2015-06-03T15:21:46Z</time>
      </trkpt>
      <trkpt lat="49.01974" lon="-1.59105">
        <ele>14.9274845</ele>
        <time>2015-06-03T15:21:51Z</time>
      </trkpt>
      <trkpt lat="49.01967" lon="-1.59104">
        <ele>14.736159</ele>
        <time>2015-06-03T15:21:56Z</time>
      </trkpt>
      <trkpt lat="49.01961" lon="-1.59101">
        <ele>14.736159</ele>
        <time>2015-06-03T15:22:01Z</time>
      </trkpt>
      <trkpt lat="49.01954" lon="-1.59096">
        <ele>14.560534</ele>
        <time>2015-06-03T15:22:06Z</time>
      </trkpt>
      <trkpt lat="49.01949" lon="-1.59091">
        <ele>14.560534</ele>
        <time>2015-06-03T15:22:11Z</time>
      </trkpt>
      <trkpt lat="49.01943" lon="-1.59085">
        <ele>14.399899</ele>
        <time>2015-06-03T15:22:16Z</time>
      </trkpt>
      <trkpt lat="49.01937" lon="-1.59078">
        <ele>14.399899</ele>
        <time>2015-06-03T15:22:21Z</time>
      </trkpt>
      <trkpt lat="49.01933" lon="-1.59071">
        <ele>14.181498</ele>
        <time>2015-06-03T15:22:26Z</time>
      </trkpt>
      <trkpt lat="49.01929" lon="-1.59065">
        <ele>14.181498</ele>
        <time>2015-06-03T15:22:31Z</time>
      </trkpt>
      <trkpt lat="49.01923" lon="-1.59061">
        <ele>13.794845</ele>
        <time>2015-06-03T15:22:36Z</time>
      </trkpt>
      <trkpt lat="49.01917" lon="-1.59055">
        <ele>13.794845</ele>
        <time>2015-06-03T15:22:41Z</time>
      </trkpt>
      <trkpt lat="49.01912" lon="-1.59052">
        <ele>13.411846</ele>
        <time>2015-06-03T15:22:46Z</time>
      </trkpt>
      <trkpt lat="49.01905" lon="-1.59049">
        <ele>13.411846</ele>
        <time>2015-06-03T15:22:51Z</time>
      </trkpt>
      <trkpt lat="49.019" lon="-1.59047">
        <ele>13.090884</ele>
        <time>2015-06-03T15:22:56Z</time>
      </trkpt>
      <trkpt lat="49.01895" lon="-1.59044">
        <ele>13.090884</ele>
        <time>2015-06-03T15:23:01Z</time>
      </trkpt>
      <trkpt lat="49.01888" lon="-1.59038">
        <ele>12.770578</ele>
        <time>2015-06-03T15:23:06Z</time>
      </trkpt>
      <trkpt lat="49.01881" lon="-1.59036">
        <ele>12.770578</ele>
        <time>2015-06-03T15:23:11Z</time>
      </trkpt>
      <trkpt lat="49.01876" lon="-1.59035">
        <ele>12.581392</ele>
        <time>2015-06-03T15:23:16Z</time>
      </trkpt>
      <trkpt lat="49.01869" lon="-1.5903">
        <ele>12.581392</ele>
        <time>2015-06-03T15:23:21Z</time>
      </trkpt>
      <trkpt lat="49.01864" lon="-1.59027">
        <ele>12.341186</ele>
        <time>2015-06-03T15:23:26Z</time>
      </trkpt>
      <trkpt lat="49.01859" lon="-1.59024">
        <ele>12.341186</ele>
        <time>2015-06-03T15:23:31Z</time>
      </trkpt>
      <trkpt lat="49.01852" lon="-1.59018">
        <ele>12.054266</ele>
        <time>2015-06-03T15:23:36Z</time>
      </trkpt>
      <trkpt lat="49.01847" lon="-1.59015">
        <ele>12.054266</ele>
        <time>2015-06-03T15:23:41Z</time>
      </trkpt>
      <trkpt lat="49.01841" lon="-1.5901">
        <ele>11.76797</ele>
        <time>2015-06-03T15:23:46Z</time>
      </trkpt>
      <trkpt lat="49.01836" lon="-1.59007">
        <ele>11.76797</ele>
        <time>2015-06-03T15:23:51Z</time>
      </trkpt>
      <trkpt lat="49.0183" lon="-1.59004">
        <ele>11.554966</ele>
        <time>2015-06-03T15:23:56Z</time>
      </trkpt>
      <trkpt lat="49.01825" lon="-1.59002">
        <ele>11.554966</ele>
        <time>2015-06-03T15:24:01Z</time>
      </trkpt>
      <trkpt lat="49.0182" lon="-1.59">
        <ele>11.467948</ele>
        <time>2015-06-03T15:24:06Z</time>
      </trkpt>
      <trkpt lat="49.01814" lon="-1.58998">
        <ele>11.467948</ele>
        <time>2015-06-03T15:24:11Z</time>
      </trkpt>
      <trkpt lat="49.01808" lon="-1.58995">
        <ele>11.497728</ele>
        <time>2015-06-03T15:24:16Z</time>
      </trkpt>
      <trkpt lat="49.01801" lon="-1.58991">
        <ele>11.497728</ele>
        <time>2015-06-03T15:24:21Z</time>
      </trkpt>
      <trkpt lat="49.01794" lon="-1.58988">
        <ele>11.563397</ele>
        <time>2015-06-03T15:24:26Z</time>
      </trkpt>
      <trkpt lat="49.01788" lon="-1.58984">
        <ele>11.563397</ele>
        <time>2015-06-03T15:24:31Z</time>
      </trkpt>
      <trkpt lat="49.01783" lon="-1.58982">
        <ele>11.633105</ele>
        <time>2015-06-03T15:24:36Z</time>
      </trkpt>
      <trkpt lat="49.01776" lon="-1.5898">
        <ele>11.633105</ele>
        <time>2015-06-03T15:24:41Z</time>
      </trkpt>
      <trkpt lat="49.01771" lon="-1.58977">
        <ele>11.763788</ele>
        <time>2015-06-03T15:24:46Z</time>
      </trkpt>
      <trkpt lat="49.01766" lon="-1.58975">
        <ele>11.763788</ele>
        <time>2015-06-03T15:24:51Z</time>
      </trkpt>
      <trkpt lat="49.0176" lon="-1.58971">
        <ele>11.979199</ele>
        <time>2015-06-03T15:24:56Z</time>
      </trkpt>
      <trkpt lat="49.01755" lon="-1.58969">
        <ele>11.979199</ele>
        <time>2015-06-03T15:25:01Z</time>
      </trkpt>
      <trkpt lat="49.01748" lon="-1.58966">
        <ele>12.27228</ele>
        <time>2015-06-03T15:25:06Z</time>
      </trkpt>
      <trkpt lat="49.01742" lon="-1.5896">
        <ele>12.27228</ele>
        <time>2015-06-03T15:25:11Z</time>
      </trkpt>
      <trkpt lat="49.01736" lon="-1.58956">
        <ele>12.549799</ele>
        <time>2015-06-03T15:25:16Z</time>
      </trkpt>
      <trkpt lat="49.0173" lon="-1.58954">
        <ele>12.549799</ele>
        <time>2015-06-03T15:25:21Z</time>
      </trkpt>
      <trkpt lat="49.01725" lon="-1.58953">
        <ele>12.797478</ele>
        <time>2015-06-03T15:25:26Z</time>
      </trkpt>
      <trkpt lat="49.01719" lon="-1.58954">
        <ele>12.797478</ele>
        <time>2015-06-03T15:25:31Z</time>
      </trkpt>
      <trkpt lat="49.01713" lon="-1.58952">
        <ele>13.045404</ele>
        <time>2015-06-03T15:25:36Z</time>
      </trkpt>
      <trkpt lat="49.01706" lon="-1.58947">
        <ele>13.045404</ele>
        <time>2015-06-03T15:25:41Z</time>
      </trkpt>
      <trkpt lat="49.01701" lon="-1.58941">
        <ele>13.234995</ele>
        <time>2015-06-03T15:25:46Z</time>
      </trkpt>
      <trkpt lat="49.01696" lon="-1.58938">
        <ele>13.234995</ele>
        <time>2015-06-03T15:25:51Z</time>
      </trkpt>
      <trkpt lat="49.0169" lon="-1.58935">
        <ele>13.355371</ele>
        <time>2015-06-03T15:25:56Z</time>
      </trkpt>
      <trkpt lat="49.01685" lon="-1.58931">
        <ele>13.355371</ele>
        <time>2015-06-03T15:26:01Z</time>
      </trkpt>
      <trkpt lat="49.0168" lon="-1.5893">
        <ele>13.396662</ele>
        <time>2015-06-03T15:26:06Z</time>
      </trkpt>
      <trkpt lat="49.01673" lon="-1.58927">
        <ele>13.396662</ele>
        <time>2015-06-03T15:26:11Z</time>
      </trkpt>
      <trkpt lat="49.01667" lon="-1.58923">
        <ele>13.422003</ele>
        <time>2015-06-03T15:26:16Z</time>
      </trkpt>
      <trkpt lat="49.01662" lon="-1.58919">
        <ele>13.422003</ele>
        <time>2015-06-03T15:26:21Z</time>
      </trkpt>
      <trkpt lat="49.01656" lon="-1.58916">
        <ele>13.417896</ele>
        <time>2015-06-03T15:26:26Z</time>
      </trkpt>
      <trkpt lat="49.01652" lon="-1.58916">
        <ele>13.417896</ele>
        <time>2015-06-03T15:26:31Z</time>
      </trkpt>
      <trkpt lat="49.01645" lon="-1.58911">
        <ele>13.458394</ele>
        <time>2015-06-03T15:26:36Z</time>
      </trkpt>
      <trkpt lat="49.01639" lon="-1.58909">
        <ele>13.458394</ele>
        <time>2015-06-03T15:26:41Z</time>
      </trkpt>
      <trkpt lat="49.01631" lon="-1.58906">
        <ele>13.496704</ele>
        <time>2015-06-03T15:26:46Z</time>
      </trkpt>
      <trkpt lat="49.01625" lon="-1.58901">
        <ele>13.496704</ele>
        <time>2015-06-03T15:26:51Z</time>
      </trkpt>
      <trkpt lat="49.01619" lon="-1.589">
        <ele>13.489488</ele>
        <time>2015-06-03T15:26:56Z</time>
      </trkpt>
      <trkpt lat="49.01613" lon="-1.58897">
        <ele>13.489488</ele>
        <time>2015-06-03T15:27:01Z</time>
      </trkpt>
      <trkpt lat="49.01606" lon="-1.58892">
        <ele>13.468786</ele>
        <time>2015-06-03T15:27:06Z</time>
      </trkpt>
      <trkpt lat="49.01601" lon="-1.5889">
        <ele>13.468786</ele>
        <time>2015-06-03T15:27:11Z</time>
      </trkpt>
      <trkpt lat="49.01595" lon="-1.58887">
        <ele>13.406687</ele>
        <time>2015-06-03T15:27:16Z</time>
      </trkpt>
      <trkpt lat="49.01589" lon="-1.58887">
        <ele>13.406687</ele>
        <time>2015-06-03T15:27:21Z</time>
      </trkpt>
      <trkpt lat="49.01582" lon="-1.58882">
        <ele>13.306277</ele>
        <time>2015-06-03T15:27:26Z</time>
      </trkpt>
      <trkpt lat="49.01577" lon="-1.58878">
        <ele>13.306277</ele>
        <time>2015-06-03T15:27:31Z</time>
      </trkpt>
      <trkpt lat="49.01574" lon="-1.58877">
        <ele>13.184945</ele>
        <time>2015-06-03T15:27:36Z</time>
      </trkpt>
      <trkpt lat="49.01569" lon="-1.58874">
        <ele>13.184945</ele>
        <time>2015-06-03T15:27:41Z</time>
      </trkpt>
      <trkpt lat="49.01562" lon="-1.5887">
        <ele>13.145332</ele>
        <time>2015-06-03T15:27:46Z</time>
      </trkpt>
      <trkpt lat="49.01556" lon="-1.58867">
        <ele>13.145332</ele>
        <time>2015-06-03T15:27:51Z</time>
      </trkpt>
      <trkpt lat="49.01551" lon="-1.58863">
        <ele>13.123797</ele>
        <time>2015-06-03T15:27:56Z</time>
      </trkpt>
      <trkpt lat="49.01544" lon="-1.58859">
        <ele>13.123797</ele>
        <time>2015-06-03T15:28:01Z</time>
      </trkpt>
      <trkpt lat="49.01539" lon="-1.58856">
        <ele>13.118973</ele>
        <time>2015-06-03T15:28:06Z</time>
      </trkpt>
      <trkpt lat="49.01534" lon="-1.58852">
        <ele>13.118973</ele>
        <time>2015-06-03T15:28:11Z</time>
      </trkpt>
      <trkpt lat="49.01529" lon="-1.58848">
        <ele>13.100729</ele>
        <time>2015-06-03T15:28:16Z</time>
      </trkpt>
      <trkpt lat="49.01522" lon="-1.58845">
        <ele>13.100729</ele>
        <time>2015-06-03T15:28:21Z</time>
      </trkpt>
      <trkpt lat="49.01516" lon="-1.58844">
        <ele>13.026779</ele>
        <time>2015-06-03T15:28:26Z</time>
      </trkpt>
      <trkpt lat="49.01511" lon="-1.58839">
        <ele>13.026779</ele>
        <time>2015-06-03T15:28:31Z</time>
      </trkpt>
      <trkpt lat="49.01505" lon="-1.58835">
        <ele>12.901339</ele>
        <time>2015-06-03T15:28:36Z</time>
      </trkpt>
      <trkpt lat="49.01499" lon="-1.58832">
        <ele>12.901339</ele>
        <time>2015-06-03T15:28:41Z</time>
      </trkpt>
      <trkpt lat="49.01494" lon="-1.58829">
        <ele>12.757284</ele>
        <time>2015-06-03T15:28:46Z</time>
      </trkpt>
      <trkpt lat="49.01487" lon="-1.58826">
        <ele>12.757284</ele>
        <time>2015-06-03T15:28:51Z</time>
      </trkpt>
      <trkpt lat="49.01481" lon="-1.58821">
        <ele>12.59631</ele>
        <time>2015-06-03T15:28:56Z</time>
      </trkpt>
      <trkpt lat="49.01476" lon="-1.58818">
        <ele>12.59631</ele>
        <time>2015-06-03T15:29:01Z</time>
      </trkpt>
      <trkpt lat="49.01469" lon="-1.5882">
        <ele>12.448854</ele>
        <time>2015-06-03T15:29:06Z</time>
      </trkpt>
      <trkpt lat="49.01463" lon="-1.58818">
        <ele>12.448854</ele>
        <time>2015-06-03T15:29:11Z</time>
      </trkpt>
      <trkpt lat="49.01458" lon="-1.58815">
        <ele>12.3575</ele>
        <time>2015-06-03T15:29:16Z</time>
      </trkpt>
      <trkpt lat="49.01453" lon="-1.58811">
        <ele>12.3575</ele>
        <time>2015-06-03T15:29:21Z</time>
      </trkpt>
      <trkpt lat="49.01446" lon="-1.58808">
        <ele>12.332715</ele>
        <time>2015-06-03T15:29:26Z</time>
      </trkpt>
      <trkpt lat="49.0144" lon="-1.58803">
        <ele>12.332715</ele>
        <time>2015-06-03T15:29:31Z</time>
      </trkpt>
      <trkpt lat="49.01434" lon="-1.58799">
        <ele>12.398428</ele>
        <time>2015-06-03T15:29:36Z</time>
      </trkpt>
      <trkpt lat="49.01429" lon="-1.58798">
        <ele>12.398428</ele>
        <time>2015-06-03T15:29:41Z</time>
      </trkpt>
      <trkpt lat="49.01423" lon="-1.58794">
        <ele>12.475673</ele>
        <time>2015-06-03T15:29:46Z</time>
      </trkpt>
      <trkpt lat="49.01416" lon="-1.58791">
        <ele>12.475673</ele>
        <time>2015-06-03T15:29:51Z</time>
      </trkpt>
      <trkpt lat="49.01411" lon="-1.58789">
        <ele>12.462433</ele>
        <time>2015-06-03T15:29:56Z</time>
      </trkpt>
      <trkpt lat="49.01405" lon="-1.58785">
        <ele>12.462433</ele>
        <time>2015-06-03T15:30:01Z</time>
      </trkpt>
      <trkpt lat="49.01399" lon="-1.58782">
        <ele>12.379728</ele>
        <time>2015-06-03T15:30:06Z</time>
      </trkpt>
      <trkpt lat="49.01393" lon="-1.5878">
        <ele>12.379728</ele>
        <time>2015-06-03T15:30:11Z</time>
      </trkpt>
      <trkpt lat="49.01387" lon="-1.58779">
        <ele>12.2904625</ele>
        <time>2015-06-03T15:30:16Z</time>
      </trkpt>
      <trkpt lat="49.01381" lon="-1.58777">
        <ele>12.2904625</ele>
        <time>2015-06-03T15:30:21Z</time>
      </trkpt>
      <trkpt lat="49.01375" lon="-1.58773">
        <ele>12.224114</ele>
        <time>2015-06-03T15:30:26Z</time>
      </trkpt>
      <trkpt lat="49.01369" lon="-1.58771">
        <ele>12.224114</ele>
        <time>2015-06-03T15:30:31Z</time>
      </trkpt>
      <trkpt lat="49.01364" lon="-1.58768">
        <ele>12.179112</ele>
        <time>2015-06-03T15:30:36Z</time>
      </trkpt>
      <trkpt lat="49.01359" lon="-1.58766">
        <ele>12.179112</ele>
        <time>2015-06-03T15:30:41Z</time>
      </trkpt>
      <trkpt lat="49.01354" lon="-1.58766">
        <ele>12.096294</ele>
        <time>2015-06-03T15:30:46Z</time>
      </trkpt>
      <trkpt lat="49.01347" lon="-1.58762">
        <ele>12.096294</ele>
        <time>2015-06-03T15:30:51Z</time>
      </trkpt>
      <trkpt lat="49.01342" lon="-1.58758">
        <ele>12.007417</ele>
        <time>2015-06-03T15:30:56Z</time>
      </trkpt>
      <trkpt lat="49.01336" lon="-1.58754">
        <ele>12.007417</ele>
        <time>2015-06-03T15:31:01Z</time>
      </trkpt>
      <trkpt lat="49.01331" lon="-1.5875">
        <ele>11.941918</ele>
        <time>2015-06-03T15:31:06Z</time>
      </trkpt>
      <trkpt lat="49.01328" lon="-1.58748">
        <ele>11.941918</ele>
        <time>2015-06-03T15:31:11Z</time>
      </trkpt>
      <trkpt lat="49.01324" lon="-1.58744">
        <ele>11.941918</ele>
        <time>2015-06-03T15:31:16Z</time>
      </trkpt>
      <trkpt lat="49.01319" lon="-1.58741">
        <ele>11.79731</ele>
        <time>2015-06-03T15:31:21Z</time>
      </trkpt>
      <trkpt lat="49.01315" lon="-1.58737">
        <ele>11.79731</ele>
        <time>2015-06-03T15:31:26Z</time>
      </trkpt>
      <trkpt lat="49.01311" lon="-1.58735">
        <ele>11.79731</ele>
        <time>2015-06-03T15:31:31Z</time>
      </trkpt>
      <trkpt lat="49.01308" lon="-1.58734">
        <ele>11.695014</ele>
        <time>2015-06-03T15:31:36Z</time>
      </trkpt>
      <trkpt lat="49.01306" lon="-1.58732">
        <ele>11.695014</ele>
        <time>2015-06-03T15:31:41Z</time>
      </trkpt>
      <trkpt lat="49.01306" lon="-1.58733">
        <ele>11.695014</ele>
        <time>2015-06-03T15:31:46Z</time>
      </trkpt>
      <trkpt lat="49.01305" lon="-1.58734">
        <ele>11.695014</ele>
        <time>2015-06-03T15:31:51Z</time>
      </trkpt>
      <trkpt lat="49.01305" lon="-1.58733">
        <ele>11.695014</ele>
        <time>2015-06-03T15:31:56Z</time>
      </trkpt>
      <trkpt lat="49.01307" lon="-1.58733">
        <ele>11.695014</ele>
        <time>2015-06-03T15:32:01Z</time>
      </trkpt>
      <trkpt lat="49.01306" lon="-1.58733">
        <ele>11.695014</ele>
        <time>2015-06-03T15:32:06Z</time>
      </trkpt>
      <trkpt lat="49.01305" lon="-1.58733">
        <ele>11.695014</ele>
        <time>2015-06-03T15:32:11Z</time>
      </trkpt>
      <trkpt lat="49.01305" lon="-1.58734">
        <ele>11.695014</ele>
        <time>2015-06-03T15:32:16Z</time>
      </trkpt>
      <trkpt lat="49.01306" lon="-1.58733">
        <ele>11.473606</ele>
        <time>2015-06-03T15:32:21Z</time>
      </trkpt>
      <trkpt lat="49.01308" lon="-1.58723">
        <ele>11.473606</ele>
        <time>2015-06-03T15:32:26Z</time>
      </trkpt>
      <trkpt lat="49.01309" lon="-1.58717">
        <ele>11.214424</ele>
        <time>2015-06-03T15:32:31Z</time>
      </trkpt>
      <trkpt lat="49.01308" lon="-1.58717">
        <ele>11.214424</ele>
        <time>2015-06-03T15:32:36Z</time>
      </trkpt>
      <trkpt lat="49.01308" lon="-1.58717">
        <ele>11.214424</ele>
        <time>2015-06-03T15:32:41Z</time>
      </trkpt>
      <trkpt lat="49.01305" lon="-1.58713">
        <ele>11.214424</ele>
        <time>2015-06-03T15:32:46Z</time>
      </trkpt>
      <trkpt lat="49.01302" lon="-1.58712">
        <ele>11.214424</ele>
        <time>2015-06-03T15:32:51Z</time>
      </trkpt>
      <trkpt lat="49.01301" lon="-1.58712">
        <ele>10.892057</ele>
        <time>2015-06-03T15:32:56Z</time>
      </trkpt>
      <trkpt lat="49.01301" lon="-1.58707">
        <ele>10.892057</ele>
        <time>2015-06-03T15:33:01Z</time>
      </trkpt>
      <trkpt lat="49.01301" lon="-1.58705">
        <ele>10.892057</ele>
        <time>2015-06-03T15:33:06Z</time>
      </trkpt>
      <trkpt lat="49.01302" lon="-1.58704">
        <ele>10.892057</ele>
        <time>2015-06-03T15:33:11Z</time>
      </trkpt>
      <trkpt lat="49.01304" lon="-1.58704">
        <ele>10.892057</ele>
        <time>2015-06-03T15:33:16Z</time>
      </trkpt>
      <trkpt lat="49.01304" lon="-1.58704">
        <ele>10.892057</ele>
        <time>2015-06-03T15:33:21Z</time>
      </trkpt>
      <trkpt lat="49.01303" lon="-1.58706">
        <ele>10.670474</ele>
        <time>2015-06-03T15:33:26Z</time>
      </trkpt>
      <trkpt lat="49.01303" lon="-1.58706">
        <ele>10.670474</ele>
        <time>2015-06-03T15:33:31Z</time>
      </trkpt>
      <trkpt lat="49.01303" lon="-1.58706">
        <ele>10.670474</ele>
        <time>2015-06-03T15:33:36Z</time>
      </trkpt>
      <trkpt lat="49.01304" lon="-1.58707">
        <ele>10.670474</ele>
        <time>2015-06-03T15:33:41Z</time>
      </trkpt>
      <trkpt lat="49.01304" lon="-1.58707">
        <ele>10.670474</ele>
        <time>2015-06-03T15:33:46Z</time>
      </trkpt>
      <trkpt lat="49.01304" lon="-1.58708">
        <ele>10.670474</ele>
        <time>2015-06-03T15:33:51Z</time>
      </trkpt>
      <trkpt lat="49.01303" lon="-1.58707">
        <ele>10.670474</ele>
        <time>2015-06-03T15:33:56Z</time>
      </trkpt>
      <trkpt lat="49.01303" lon="-1.58706">
        <ele>10.670474</ele>
        <time>2015-06-03T15:34:01Z</time>
      </trkpt>
      <trkpt lat="49.01302" lon="-1.58704">
        <ele>10.670474</ele>
        <time>2015-06-03T15:34:06Z</time>
      </trkpt>
      <trkpt lat="49.01302" lon="-1.587">
        <ele>10.670474</ele>
        <time>2015-06-03T15:34:11Z</time>
      </trkpt>
      <trkpt lat="49.01303" lon="-1.587">
        <ele>10.670474</ele>
        <time>2015-06-03T15:34:16Z</time>
      </trkpt>
      <trkpt lat="49.01302" lon="-1.58697">
        <ele>10.485145</ele>
        <time>2015-06-03T15:34:21Z</time>
      </trkpt>
      <trkpt lat="49.01298" lon="-1.58691">
        <ele>10.485145</ele>
        <time>2015-06-03T15:34:26Z</time>
      </trkpt>
      <trkpt lat="49.01294" lon="-1.58687">
        <ele>10.304989</ele>
        <time>2015-06-03T15:34:31Z</time>
      </trkpt>
      <trkpt lat="49.01288" lon="-1.58684">
        <ele>10.304989</ele>
        <time>2015-06-03T15:34:36Z</time>
      </trkpt>
      <trkpt lat="49.01284" lon="-1.58682">
        <ele>10.086776</ele>
        <time>2015-06-03T15:34:41Z</time>
      </trkpt>
      <trkpt lat="49.01277" lon="-1.58679">
        <ele>10.086776</ele>
        <time>2015-06-03T15:34:46Z</time>
      </trkpt>
      <trkpt lat="49.01272" lon="-1.58676">
        <ele>9.920246</ele>
        <time>2015-06-03T15:34:51Z</time>
      </trkpt>
      <trkpt lat="49.01269" lon="-1.58674">
        <ele>9.920246</ele>
        <time>2015-06-03T15:34:56Z</time>
      </trkpt>
      <trkpt lat="49.01262" lon="-1.58671">
        <ele>9.816339</ele>
        <time>2015-06-03T15:35:01Z</time>
      </trkpt>
      <trkpt lat="49.01257" lon="-1.58669">
        <ele>9.816339</ele>
        <time>2015-06-03T15:35:06Z</time>
      </trkpt>
      <trkpt lat="49.01252" lon="-1.58664">
        <ele>9.727358</ele>
        <time>2015-06-03T15:35:11Z</time>
      </trkpt>
      <trkpt lat="49.01246" lon="-1.58657">
        <ele>9.727358</ele>
        <time>2015-06-03T15:35:16Z</time>
      </trkpt>
      <trkpt lat="49.01241" lon="-1.58653">
        <ele>9.623471</ele>
        <time>2015-06-03T15:35:21Z</time>
      </trkpt>
      <trkpt lat="49.01235" lon="-1.5865">
        <ele>9.623471</ele>
        <time>2015-06-03T15:35:26Z</time>
      </trkpt>
      <trkpt lat="49.01229" lon="-1.58647">
        <ele>9.549124</ele>
        <time>2015-06-03T15:35:31Z</time>
      </trkpt>
      <trkpt lat="49.01223" lon="-1.58643">
        <ele>9.549124</ele>
        <time>2015-06-03T15:35:36Z</time>
      </trkpt>
      <trkpt lat="49.01218" lon="-1.58641">
        <ele>9.516582</ele>
        <time>2015-06-03T15:35:41Z</time>
      </trkpt>
      <trkpt lat="49.01212" lon="-1.58637">
        <ele>9.516582</ele>
        <time>2015-06-03T15:35:46Z</time>
      </trkpt>
      <trkpt lat="49.01207" lon="-1.58634">
        <ele>9.493853</ele>
        <time>2015-06-03T15:35:51Z</time>
      </trkpt>
      <trkpt lat="49.01201" lon="-1.58632">
        <ele>9.493853</ele>
        <time>2015-06-03T15:35:56Z</time>
      </trkpt>
      <trkpt lat="49.01196" lon="-1.58628">
        <ele>9.408025</ele>
        <time>2015-06-03T15:36:01Z</time>
      </trkpt>
      <trkpt lat="49.0119" lon="-1.58624">
        <ele>9.408025</ele>
        <time>2015-06-03T15:36:06Z</time>
      </trkpt>
      <trkpt lat="49.01184" lon="-1.58621">
        <ele>9.32141</ele>
        <time>2015-06-03T15:36:11Z</time>
      </trkpt>
      <trkpt lat="49.01179" lon="-1.58617">
        <ele>9.32141</ele>
        <time>2015-06-03T15:36:16Z</time>
      </trkpt>
      <trkpt lat="49.01174" lon="-1.58614">
        <ele>9.277332</ele>
        <time>2015-06-03T15:36:21Z</time>
      </trkpt>
      <trkpt lat="49.01166" lon="-1.58612">
        <ele>9.277332</ele>
        <time>2015-06-03T15:36:26Z</time>
      </trkpt>
      <trkpt lat="49.01161" lon="-1.58611">
        <ele>9.258158</ele>
        <time>2015-06-03T15:36:31Z</time>
      </trkpt>
      <trkpt lat="49.01154" lon="-1.58609">
        <ele>9.258158</ele>
        <time>2015-06-03T15:36:36Z</time>
      </trkpt>
      <trkpt lat="49.01147" lon="-1.58606">
        <ele>9.261889</ele>
        <time>2015-06-03T15:36:41Z</time>
      </trkpt>
      <trkpt lat="49.01143" lon="-1.58604">
        <ele>9.261889</ele>
        <time>2015-06-03T15:36:46Z</time>
      </trkpt>
      <trkpt lat="49.01138" lon="-1.58602">
        <ele>9.301016</ele>
        <time>2015-06-03T15:36:51Z</time>
      </trkpt>
      <trkpt lat="49.01131" lon="-1.58598">
        <ele>9.301016</ele>
        <time>2015-06-03T15:36:56Z</time>
      </trkpt>
      <trkpt lat="49.01127" lon="-1.58596">
        <ele>9.314951</ele>
        <time>2015-06-03T15:37:01Z</time>
      </trkpt>
      <trkpt lat="49.01122" lon="-1.58592">
        <ele>9.314951</ele>
        <time>2015-06-03T15:37:06Z</time>
      </trkpt>
      <trkpt lat="49.01117" lon="-1.58591">
        <ele>9.377331</ele>
        <time>2015-06-03T15:37:11Z</time>
      </trkpt>
      <trkpt lat="49.0111" lon="-1.58587">
        <ele>9.377331</ele>
        <time>2015-06-03T15:37:16Z</time>
      </trkpt>
      <trkpt lat="49.01104" lon="-1.58581">
        <ele>9.426541</ele>
        <time>2015-06-03T15:37:21Z</time>
      </trkpt>
      <trkpt lat="49.011" lon="-1.58578">
        <ele>9.426541</ele>
        <time>2015-06-03T15:37:26Z</time>
      </trkpt>
      <trkpt lat="49.01095" lon="-1.58574">
        <ele>9.520823</ele>
        <time>2015-06-03T15:37:31Z</time>
      </trkpt>
      <trkpt lat="49.0109" lon="-1.58568">
        <ele>9.520823</ele>
        <time>2015-06-03T15:37:36Z</time>
      </trkpt>
      <trkpt lat="49.01084" lon="-1.58562">
        <ele>9.670779</ele>
        <time>2015-06-03T15:37:41Z</time>
      </trkpt>
      <trkpt lat="49.01079" lon="-1.58561">
        <ele>9.670779</ele>
        <time>2015-06-03T15:37:46Z</time>
      </trkpt>
      <trkpt lat="49.01073" lon="-1.58557">
        <ele>9.842848</ele>
        <time>2015-06-03T15:37:51Z</time>
      </trkpt>
      <trkpt lat="49.01068" lon="-1.58555">
        <ele>9.842848</ele>
        <time>2015-06-03T15:37:56Z</time>
      </trkpt>
      <trkpt lat="49.01063" lon="-1.5855">
        <ele>9.962643</ele>
        <time>2015-06-03T15:38:01Z</time>
      </trkpt>
      <trkpt lat="49.01058" lon="-1.58547">
        <ele>9.962643</ele>
        <time>2015-06-03T15:38:06Z</time>
      </trkpt>
      <trkpt lat="49.01053" lon="-1.58545">
        <ele>10.076682</ele>
        <time>2015-06-03T15:38:11Z</time>
      </trkpt>
      <trkpt lat="49.01048" lon="-1.58545">
        <ele>10.076682</ele>
        <time>2015-06-03T15:38:16Z</time>
      </trkpt>
      <trkpt lat="49.01042" lon="-1.58538">
        <ele>10.184857</ele>
        <time>2015-06-03T15:38:21Z</time>
      </trkpt>
      <trkpt lat="49.01036" lon="-1.58536">
        <ele>10.184857</ele>
        <time>2015-06-03T15:38:26Z</time>
      </trkpt>
      <trkpt lat="49.0103" lon="-1.58536">
        <ele>10.315915</ele>
        <time>2015-06-03T15:38:31Z</time>
      </trkpt>
      <trkpt lat="49.01025" lon="-1.58535">
        <ele>10.315915</ele>
        <time>2015-06-03T15:38:36Z</time>
      </trkpt>
      <trkpt lat="49.01019" lon="-1.58535">
        <ele>10.539671</ele>
        <time>2015-06-03T15:38:41Z</time>
      </trkpt>
      <trkpt lat="49.01011" lon="-1.58532">
        <ele>10.539671</ele>
        <time>2015-06-03T15:38:46Z</time>
      </trkpt>
      <trkpt lat="49.01007" lon="-1.5853">
        <ele>10.704392</ele>
        <time>2015-06-03T15:38:51Z</time>
      </trkpt>
      <trkpt lat="49.01002" lon="-1.58524">
        <ele>10.704392</ele>
        <time>2015-06-03T15:38:56Z</time>
      </trkpt>
      <trkpt lat="49.00996" lon="-1.58521">
        <ele>10.799373</ele>
        <time>2015-06-03T15:39:01Z</time>
      </trkpt>
      <trkpt lat="49.00991" lon="-1.58518">
        <ele>10.799373</ele>
        <time>2015-06-03T15:39:06Z</time>
      </trkpt>
      <trkpt lat="49.00984" lon="-1.58514">
        <ele>10.901367</ele>
        <time>2015-06-03T15:39:11Z</time>
      </trkpt>
      <trkpt lat="49.00979" lon="-1.58513">
        <ele>10.901367</ele>
        <time>2015-06-03T15:39:16Z</time>
      </trkpt>
      <trkpt lat="49.00974" lon="-1.58512">
        <ele>11.02384</ele>
        <time>2015-06-03T15:39:21Z</time>
      </trkpt>
      <trkpt lat="49.00967" lon="-1.5851">
        <ele>11.02384</ele>
        <time>2015-06-03T15:39:26Z</time>
      </trkpt>
      <trkpt lat="49.00962" lon="-1.58509">
        <ele>11.107167</ele>
        <time>2015-06-03T15:39:31Z</time>
      </trkpt>
      <trkpt lat="49.00955" lon="-1.58504">
        <ele>11.107167</ele>
        <time>2015-06-03T15:39:36Z</time>
      </trkpt>
      <trkpt lat="49.00949" lon="-1.58501">
        <ele>11.125052</ele>
        <time>2015-06-03T15:39:41Z</time>
      </trkpt>
      <trkpt lat="49.00945" lon="-1.58499">
        <ele>11.125052</ele>
        <time>2015-06-03T15:39:46Z</time>
      </trkpt>
      <trkpt lat="49.00941" lon="-1.58496">
        <ele>11.125052</ele>
        <time>2015-06-03T15:39:51Z</time>
      </trkpt>
      <trkpt lat="49.00936" lon="-1.58491">
        <ele>11.226261</ele>
        <time>2015-06-03T15:39:56Z</time>
      </trkpt>
      <trkpt lat="49.0093" lon="-1.58489">
        <ele>11.226261</ele>
        <time>2015-06-03T15:40:01Z</time>
      </trkpt>
      <trkpt lat="49.00924" lon="-1.58485">
        <ele>11.260185</ele>
        <time>2015-06-03T15:40:06Z</time>
      </trkpt>
      <trkpt lat="49.00919" lon="-1.58483">
        <ele>11.260185</ele>
        <time>2015-06-03T15:40:11Z</time>
      </trkpt>
      <trkpt lat="49.00916" lon="-1.58482">
        <ele>11.260185</ele>
        <time>2015-06-03T15:40:16Z</time>
      </trkpt>
      <trkpt lat="49.0091" lon="-1.58484">
        <ele>11.26042</ele>
        <time>2015-06-03T15:40:21Z</time>
      </trkpt>
      <trkpt lat="49.00905" lon="-1.58485">
        <ele>11.26042</ele>
        <time>2015-06-03T15:40:26Z</time>
      </trkpt>
      <trkpt lat="49.00897" lon="-1.58486">
        <ele>11.200552</ele>
        <time>2015-06-03T15:40:31Z</time>
      </trkpt>
      <trkpt lat="49.00893" lon="-1.58489">
        <ele>11.200552</ele>
        <time>2015-06-03T15:40:36Z</time>
      </trkpt>
      <trkpt lat="49.00887" lon="-1.58491">
        <ele>11.1283455</ele>
        <time>2015-06-03T15:40:41Z</time>
      </trkpt>
      <trkpt lat="49.00881" lon="-1.58487">
        <ele>11.1283455</ele>
        <time>2015-06-03T15:40:46Z</time>
      </trkpt>
      <trkpt lat="49.00875" lon="-1.58485">
        <ele>11.0016365</ele>
        <time>2015-06-03T15:40:51Z</time>
      </trkpt>
      <trkpt lat="49.0087" lon="-1.5848">
        <ele>11.0016365</ele>
        <time>2015-06-03T15:40:56Z</time>
      </trkpt>
      <trkpt lat="49.00865" lon="-1.5848">
        <ele>10.882396</ele>
        <time>2015-06-03T15:41:01Z</time>
      </trkpt>
      <trkpt lat="49.0086" lon="-1.58474">
        <ele>10.882396</ele>
        <time>2015-06-03T15:41:06Z</time>
      </trkpt>
      <trkpt lat="49.00857" lon="-1.58465">
        <ele>10.813619</ele>
        <time>2015-06-03T15:41:11Z</time>
      </trkpt>
      <trkpt lat="49.00851" lon="-1.58462">
        <ele>10.813619</ele>
        <time>2015-06-03T15:41:16Z</time>
      </trkpt>
      <trkpt lat="49.00846" lon="-1.58464">
        <ele>10.762953</ele>
        <time>2015-06-03T15:41:21Z</time>
      </trkpt>
      <trkpt lat="49.00841" lon="-1.5846">
        <ele>10.762953</ele>
        <time>2015-06-03T15:41:26Z</time>
      </trkpt>
      <trkpt lat="49.00835" lon="-1.58456">
        <ele>10.729197</ele>
        <time>2015-06-03T15:41:31Z</time>
      </trkpt>
      <trkpt lat="49.00828" lon="-1.58454">
        <ele>10.729197</ele>
        <time>2015-06-03T15:41:36Z</time>
      </trkpt>
      <trkpt lat="49.00822" lon="-1.58449">
        <ele>10.711198</ele>
        <time>2015-06-03T15:41:41Z</time>
      </trkpt>
      <trkpt lat="49.00816" lon="-1.58449">
        <ele>10.711198</ele>
        <time>2015-06-03T15:41:46Z</time>
      </trkpt>
      <trkpt lat="49.00811" lon="-1.58447">
        <ele>10.664612</ele>
        <time>2015-06-03T15:41:51Z</time>
      </trkpt>
      <trkpt lat="49.00807" lon="-1.58443">
        <ele>10.664612</ele>
        <time>2015-06-03T15:41:56Z</time>
      </trkpt>
      <trkpt lat="49.00801" lon="-1.58439">
        <ele>10.649314</ele>
        <time>2015-06-03T15:42:01Z</time>
      </trkpt>
      <trkpt lat="49.00794" lon="-1.58436">
        <ele>10.649314</ele>
        <time>2015-06-03T15:42:06Z</time>
      </trkpt>
      <trkpt lat="49.0079" lon="-1.58432">
        <ele>10.677465</ele>
        <time>2015-06-03T15:42:11Z</time>
      </trkpt>
      <trkpt lat="49.00784" lon="-1.58427">
        <ele>10.677465</ele>
        <time>2015-06-03T15:42:16Z</time>
      </trkpt>
      <trkpt lat="49.00779" lon="-1.58425">
        <ele>10.760211</ele>
        <time>2015-06-03T15:42:21Z</time>
      </trkpt>
      <trkpt lat="49.00774" lon="-1.58423">
        <ele>10.760211</ele>
        <time>2015-06-03T15:42:26Z</time>
      </trkpt>
      <trkpt lat="49.00769" lon="-1.58421">
        <ele>10.864497</ele>
        <time>2015-06-03T15:42:31Z</time>
      </trkpt>
      <trkpt lat="49.00763" lon="-1.58417">
        <ele>10.864497</ele>
        <time>2015-06-03T15:42:36Z</time>
      </trkpt>
      <trkpt lat="49.00756" lon="-1.58415">
        <ele>10.945227</ele>
        <time>2015-06-03T15:42:41Z</time>
      </trkpt>
      <trkpt lat="49.0075" lon="-1.58411">
        <ele>10.945227</ele>
        <time>2015-06-03T15:42:46Z</time>
      </trkpt>
      <trkpt lat="49.00744" lon="-1.58407">
        <ele>11.13362</ele>
        <time>2015-06-03T15:42:51Z</time>
      </trkpt>
      <trkpt lat="49.00739" lon="-1.58403">
        <ele>11.13362</ele>
        <time>2015-06-03T15:42:56Z</time>
      </trkpt>
      <trkpt lat="49.00733" lon="-1.58401">
        <ele>11.320382</ele>
        <time>2015-06-03T15:43:01Z</time>
      </trkpt>
      <trkpt lat="49.00726" lon="-1.58397">
        <ele>11.320382</ele>
        <time>2015-06-03T15:43:06Z</time>
      </trkpt>
      <trkpt lat="49.00722" lon="-1.58392">
        <ele>11.5195465</ele>
        <time>2015-06-03T15:43:11Z</time>
      </trkpt>
      <trkpt lat="49.00716" lon="-1.58387">
        <ele>11.5195465</ele>
        <time>2015-06-03T15:43:16Z</time>
      </trkpt>
      <trkpt lat="49.00711" lon="-1.58383">
        <ele>11.729675</ele>
        <time>2015-06-03T15:43:21Z</time>
      </trkpt>
      <trkpt lat="49.00705" lon="-1.58379">
        <ele>11.729675</ele>
        <time>2015-06-03T15:43:26Z</time>
      </trkpt>
      <trkpt lat="49.007" lon="-1.58377">
        <ele>11.862945</ele>
        <time>2015-06-03T15:43:31Z</time>
      </trkpt>
      <trkpt lat="49.00694" lon="-1.58372">
        <ele>11.862945</ele>
        <time>2015-06-03T15:43:36Z</time>
      </trkpt>
      <trkpt lat="49.00687" lon="-1.58371">
        <ele>11.953499</ele>
        <time>2015-06-03T15:43:41Z</time>
      </trkpt>
      <trkpt lat="49.00681" lon="-1.58368">
        <ele>11.953499</ele>
        <time>2015-06-03T15:43:46Z</time>
      </trkpt>
      <trkpt lat="49.00677" lon="-1.58365">
        <ele>12.033098</ele>
        <time>2015-06-03T15:43:51Z</time>
      </trkpt>
      <trkpt lat="49.00671" lon="-1.58363">
        <ele>12.033098</ele>
        <time>2015-06-03T15:43:56Z</time>
      </trkpt>
      <trkpt lat="49.00665" lon="-1.58358">
        <ele>12.059155</ele>
        <time>2015-06-03T15:44:01Z</time>
      </trkpt>
      <trkpt lat="49.00661" lon="-1.58354">
        <ele>12.059155</ele>
        <time>2015-06-03T15:44:06Z</time>
      </trkpt>
      <trkpt lat="49.00657" lon="-1.58351">
        <ele>12.0500145</ele>
        <time>2015-06-03T15:44:11Z</time>
      </trkpt>
      <trkpt lat="49.00653" lon="-1.5835">
        <ele>12.0500145</ele>
        <time>2015-06-03T15:44:16Z</time>
      </trkpt>
      <trkpt lat="49.00646" lon="-1.5835">
        <ele>12.066011</ele>
        <time>2015-06-03T15:44:21Z</time>
      </trkpt>
      <trkpt lat="49.00641" lon="-1.5835">
        <ele>12.066011</ele>
        <time>2015-06-03T15:44:26Z</time>
      </trkpt>
      <trkpt lat="49.00633" lon="-1.58348">
        <ele>12.047698</ele>
        <time>2015-06-03T15:44:31Z</time>
      </trkpt>
      <trkpt lat="49.00629" lon="-1.58344">
        <ele>12.047698</ele>
        <time>2015-06-03T15:44:36Z</time>
      </trkpt>
      <trkpt lat="49.00625" lon="-1.58337">
        <ele>12.113029</ele>
        <time>2015-06-03T15:44:41Z</time>
      </trkpt>
      <trkpt lat="49.00622" lon="-1.58329">
        <ele>12.113029</ele>
        <time>2015-06-03T15:44:46Z</time>
      </trkpt>
      <trkpt lat="49.00617" lon="-1.58324">
        <ele>12.183721</ele>
        <time>2015-06-03T15:44:51Z</time>
      </trkpt>
      <trkpt lat="49.00614" lon="-1.5832">
        <ele>12.183721</ele>
        <time>2015-06-03T15:44:56Z</time>
      </trkpt>
      <trkpt lat="49.00607" lon="-1.58318">
        <ele>12.172819</ele>
        <time>2015-06-03T15:45:01Z</time>
      </trkpt>
      <trkpt lat="49.006" lon="-1.58315">
        <ele>12.172819</ele>
        <time>2015-06-03T15:45:06Z</time>
      </trkpt>
      <trkpt lat="49.00594" lon="-1.58312">
        <ele>12.11528</ele>
        <time>2015-06-03T15:45:11Z</time>
      </trkpt>
      <trkpt lat="49.0059" lon="-1.58306">
        <ele>12.11528</ele>
        <time>2015-06-03T15:45:16Z</time>
      </trkpt>
      <trkpt lat="49.00585" lon="-1.58302">
        <ele>12.043628</ele>
        <time>2015-06-03T15:45:21Z</time>
      </trkpt>
      <trkpt lat="49.0058" lon="-1.58297">
        <ele>12.043628</ele>
        <time>2015-06-03T15:45:26Z</time>
      </trkpt>
      <trkpt lat="49.00574" lon="-1.58293">
        <ele>11.944805</ele>
        <time>2015-06-03T15:45:31Z</time>
      </trkpt>
      <trkpt lat="49.00569" lon="-1.58289">
        <ele>11.944805</ele>
        <time>2015-06-03T15:45:36Z</time>
      </trkpt>
      <trkpt lat="49.00565" lon="-1.58284">
        <ele>11.835615</ele>
        <time>2015-06-03T15:45:41Z</time>
      </trkpt>
      <trkpt lat="49.00562" lon="-1.58277">
        <ele>11.835615</ele>
        <time>2015-06-03T15:45:46Z</time>
      </trkpt>
      <trkpt lat="49.00557" lon="-1.58269">
        <ele>11.702833</ele>
        <time>2015-06-03T15:45:51Z</time>
      </trkpt>
      <trkpt lat="49.00553" lon="-1.58265">
        <ele>11.702833</ele>
        <time>2015-06-03T15:45:56Z</time>
      </trkpt>
      <trkpt lat="49.00549" lon="-1.58258">
        <ele>11.577506</ele>
        <time>2015-06-03T15:46:01Z</time>
      </trkpt>
      <trkpt lat="49.00544" lon="-1.58252">
        <ele>11.577506</ele>
        <time>2015-06-03T15:46:06Z</time>
      </trkpt>
      <trkpt lat="49.00541" lon="-1.58247">
        <ele>11.53161</ele>
        <time>2015-06-03T15:46:11Z</time>
      </trkpt>
      <trkpt lat="49.00536" lon="-1.58241">
        <ele>11.53161</ele>
        <time>2015-06-03T15:46:16Z</time>
      </trkpt>
      <trkpt lat="49.00532" lon="-1.58235">
        <ele>11.55955</ele>
        <time>2015-06-03T15:46:21Z</time>
      </trkpt>
      <trkpt lat="49.00528" lon="-1.58226">
        <ele>11.55955</ele>
        <time>2015-06-03T15:46:26Z</time>
      </trkpt>
      <trkpt lat="49.00525" lon="-1.5822">
        <ele>11.555059</ele>
        <time>2015-06-03T15:46:31Z</time>
      </trkpt>
      <trkpt lat="49.00521" lon="-1.58216">
        <ele>11.555059</ele>
        <time>2015-06-03T15:46:36Z</time>
      </trkpt>
      <trkpt lat="49.00518" lon="-1.58211">
        <ele>11.390937</ele>
        <time>2015-06-03T15:46:41Z</time>
      </trkpt>
      <trkpt lat="49.00514" lon="-1.58205">
        <ele>11.390937</ele>
        <time>2015-06-03T15:46:46Z</time>
      </trkpt>
      <trkpt lat="49.0051" lon="-1.58198">
        <ele>11.223583</ele>
        <time>2015-06-03T15:46:51Z</time>
      </trkpt>
      <trkpt lat="49.00509" lon="-1.58192">
        <ele>11.223583</ele>
        <time>2015-06-03T15:46:56Z</time>
      </trkpt>
      <trkpt lat="49.00508" lon="-1.58185">
        <ele>11.223583</ele>
        <time>2015-06-03T15:47:01Z</time>
      </trkpt>
      <trkpt lat="49.00508" lon="-1.58183">
        <ele>11.068212</ele>
        <time>2015-06-03T15:47:06Z</time>
      </trkpt>
      <trkpt lat="49.00507" lon="-1.58177">
        <ele>11.068212</ele>
        <time>2015-06-03T15:47:11Z</time>
      </trkpt>
      <trkpt lat="49.00506" lon="-1.5817">
        <ele>11.068212</ele>
        <time>2015-06-03T15:47:16Z</time>
      </trkpt>
      <trkpt lat="49.00506" lon="-1.58166">
        <ele>10.881235</ele>
        <time>2015-06-03T15:47:21Z</time>
      </trkpt>
      <trkpt lat="49.00507" lon="-1.58156">
        <ele>10.881235</ele>
        <time>2015-06-03T15:47:26Z</time>
      </trkpt>
      <trkpt lat="49.00506" lon="-1.58147">
        <ele>10.694404</ele>
        <time>2015-06-03T15:47:31Z</time>
      </trkpt>
      <trkpt lat="49.00504" lon="-1.58139">
        <ele>10.694404</ele>
        <time>2015-06-03T15:47:36Z</time>
      </trkpt>
      <trkpt lat="49.00501" lon="-1.58132">
        <ele>10.522716</ele>
        <time>2015-06-03T15:47:41Z</time>
      </trkpt>
      <trkpt lat="49.00499" lon="-1.5813">
        <ele>10.522716</ele>
        <time>2015-06-03T15:47:46Z</time>
      </trkpt>
      <trkpt lat="49.00495" lon="-1.58121">
        <ele>10.452071</ele>
        <time>2015-06-03T15:47:51Z</time>
      </trkpt>
      <trkpt lat="49.00492" lon="-1.58116">
        <ele>10.452071</ele>
        <time>2015-06-03T15:47:56Z</time>
      </trkpt>
      <trkpt lat="49.0049" lon="-1.58111">
        <ele>10.452071</ele>
        <time>2015-06-03T15:48:01Z</time>
      </trkpt>
      <trkpt lat="49.00487" lon="-1.58105">
        <ele>10.345597</ele>
        <time>2015-06-03T15:48:06Z</time>
      </trkpt>
      <trkpt lat="49.00486" lon="-1.58104">
        <ele>10.345597</ele>
        <time>2015-06-03T15:48:11Z</time>
      </trkpt>
      <trkpt lat="49.00484" lon="-1.58101">
        <ele>10.345597</ele>
        <time>2015-06-03T15:48:16Z</time>
      </trkpt>
      <trkpt lat="49.00483" lon="-1.58096">
        <ele>10.345597</ele>
        <time>2015-06-03T15:48:21Z</time>
      </trkpt>
      <trkpt lat="49.00481" lon="-1.58088">
        <ele>10.263914</ele>
        <time>2015-06-03T15:48:26Z</time>
      </trkpt>
      <trkpt lat="49.0048" lon="-1.58079">
        <ele>10.263914</ele>
        <time>2015-06-03T15:48:31Z</time>
      </trkpt>
      <trkpt lat="49.00479" lon="-1.58072">
        <ele>10.248693</ele>
        <time>2015-06-03T15:48:36Z</time>
      </trkpt>
      <trkpt lat="49.00478" lon="-1.58066">
        <ele>10.248693</ele>
        <time>2015-06-03T15:48:41Z</time>
      </trkpt>
      <trkpt lat="49.00476" lon="-1.58058">
        <ele>10.323938</ele>
        <time>2015-06-03T15:48:46Z</time>
      </trkpt>
      <trkpt lat="49.00472" lon="-1.58047">
        <ele>10.323938</ele>
        <time>2015-06-03T15:48:51Z</time>
      </trkpt>
      <trkpt lat="49.0047" lon="-1.58041">
        <ele>10.453984</ele>
        <time>2015-06-03T15:48:56Z</time>
      </trkpt>
      <trkpt lat="49.0047" lon="-1.58036">
        <ele>10.453984</ele>
        <time>2015-06-03T15:49:01Z</time>
      </trkpt>
      <trkpt lat="49.00468" lon="-1.58031">
        <ele>10.453984</ele>
        <time>2015-06-03T15:49:06Z</time>
      </trkpt>
      <trkpt lat="49.00467" lon="-1.58024">
        <ele>10.6056185</ele>
        <time>2015-06-03T15:49:11Z</time>
      </trkpt>
      <trkpt lat="49.00464" lon="-1.58017">
        <ele>10.6056185</ele>
        <time>2015-06-03T15:49:16Z</time>
      </trkpt>
      <trkpt lat="49.00462" lon="-1.58009">
        <ele>10.719183</ele>
        <time>2015-06-03T15:49:21Z</time>
      </trkpt>
      <trkpt lat="49.00458" lon="-1.58001">
        <ele>10.719183</ele>
        <time>2015-06-03T15:49:26Z</time>
      </trkpt>
      <trkpt lat="49.00455" lon="-1.57995">
        <ele>10.753913</ele>
        <time>2015-06-03T15:49:31Z</time>
      </trkpt>
      <trkpt lat="49.00451" lon="-1.57989">
        <ele>10.753913</ele>
        <time>2015-06-03T15:49:36Z</time>
      </trkpt>
      <trkpt lat="49.00447" lon="-1.57983">
        <ele>10.758719</ele>
        <time>2015-06-03T15:49:41Z</time>
      </trkpt>
      <trkpt lat="49.00443" lon="-1.57975">
        <ele>10.758719</ele>
        <time>2015-06-03T15:49:46Z</time>
      </trkpt>
      <trkpt lat="49.00438" lon="-1.57967">
        <ele>10.750182</ele>
        <time>2015-06-03T15:49:51Z</time>
      </trkpt>
      <trkpt lat="49.00436" lon="-1.57962">
        <ele>10.750182</ele>
        <time>2015-06-03T15:49:56Z</time>
      </trkpt>
      <trkpt lat="49.00432" lon="-1.57954">
        <ele>10.758106</ele>
        <time>2015-06-03T15:50:01Z</time>
      </trkpt>
      <trkpt lat="49.00428" lon="-1.57946">
        <ele>10.758106</ele>
        <time>2015-06-03T15:50:06Z</time>
      </trkpt>
      <trkpt lat="49.00425" lon="-1.57939">
        <ele>10.752414</ele>
        <time>2015-06-03T15:50:11Z</time>
      </trkpt>
      <trkpt lat="49.00421" lon="-1.57934">
        <ele>10.752414</ele>
        <time>2015-06-03T15:50:16Z</time>
      </trkpt>
      <trkpt lat="49.00417" lon="-1.57928">
        <ele>10.719685</ele>
        <time>2015-06-03T15:50:21Z</time>
      </trkpt>
      <trkpt lat="49.00413" lon="-1.5792">
        <ele>10.719685</ele>
        <time>2015-06-03T15:50:26Z</time>
      </trkpt>
      <trkpt lat="49.00409" lon="-1.57914">
        <ele>10.661967</ele>
        <time>2015-06-03T15:50:31Z</time>
      </trkpt>
      <trkpt lat="49.00405" lon="-1.57907">
        <ele>10.661967</ele>
        <time>2015-06-03T15:50:36Z</time>
      </trkpt>
      <trkpt lat="49.00401" lon="-1.579">
        <ele>10.58123</ele>
        <time>2015-06-03T15:50:41Z</time>
      </trkpt>
      <trkpt lat="49.00397" lon="-1.57893">
        <ele>10.58123</ele>
        <time>2015-06-03T15:50:46Z</time>
      </trkpt>
      <trkpt lat="49.00394" lon="-1.57887">
        <ele>10.508179</ele>
        <time>2015-06-03T15:50:51Z</time>
      </trkpt>
      <trkpt lat="49.00391" lon="-1.5788">
        <ele>10.508179</ele>
        <time>2015-06-03T15:50:56Z</time>
      </trkpt>
      <trkpt lat="49.00385" lon="-1.57872">
        <ele>10.442418</ele>
        <time>2015-06-03T15:51:01Z</time>
      </trkpt>
      <trkpt lat="49.00381" lon="-1.57865">
        <ele>10.442418</ele>
        <time>2015-06-03T15:51:06Z</time>
      </trkpt>
      <trkpt lat="49.00377" lon="-1.57857">
        <ele>10.369146</ele>
        <time>2015-06-03T15:51:11Z</time>
      </trkpt>
      <trkpt lat="49.00373" lon="-1.57851">
        <ele>10.369146</ele>
        <time>2015-06-03T15:51:16Z</time>
      </trkpt>
      <trkpt lat="49.00368" lon="-1.57846">
        <ele>10.30349</ele>
        <time>2015-06-03T15:51:21Z</time>
      </trkpt>
      <trkpt lat="49.00363" lon="-1.5784">
        <ele>10.30349</ele>
        <time>2015-06-03T15:51:26Z</time>
      </trkpt>
      <trkpt lat="49.0036" lon="-1.57835">
        <ele>10.201794</ele>
        <time>2015-06-03T15:51:31Z</time>
      </trkpt>
      <trkpt lat="49.00355" lon="-1.57829">
        <ele>10.201794</ele>
        <time>2015-06-03T15:51:36Z</time>
      </trkpt>
      <trkpt lat="49.00351" lon="-1.57822">
        <ele>10.124585</ele>
        <time>2015-06-03T15:51:41Z</time>
      </trkpt>
      <trkpt lat="49.00348" lon="-1.57815">
        <ele>10.124585</ele>
        <time>2015-06-03T15:51:46Z</time>
      </trkpt>
      <trkpt lat="49.00342" lon="-1.57809">
        <ele>10.07023</ele>
        <time>2015-06-03T15:51:51Z</time>
      </trkpt>
      <trkpt lat="49.00338" lon="-1.57804">
        <ele>10.07023</ele>
        <time>2015-06-03T15:51:56Z</time>
      </trkpt>
      <trkpt lat="49.00334" lon="-1.57799">
        <ele>10.00832</ele>
        <time>2015-06-03T15:52:01Z</time>
      </trkpt>
      <trkpt lat="49.00331" lon="-1.57793">
        <ele>10.00832</ele>
        <time>2015-06-03T15:52:06Z</time>
      </trkpt>
      <trkpt lat="49.00327" lon="-1.57786">
        <ele>9.925111</ele>
        <time>2015-06-03T15:52:11Z</time>
      </trkpt>
      <trkpt lat="49.00323" lon="-1.57781">
        <ele>9.925111</ele>
        <time>2015-06-03T15:52:16Z</time>
      </trkpt>
      <trkpt lat="49.00319" lon="-1.57775">
        <ele>9.879979</ele>
        <time>2015-06-03T15:52:21Z</time>
      </trkpt>
      <trkpt lat="49.00314" lon="-1.57769">
        <ele>9.879979</ele>
        <time>2015-06-03T15:52:26Z</time>
      </trkpt>
      <trkpt lat="49.0031" lon="-1.57763">
        <ele>9.841361</ele>
        <time>2015-06-03T15:52:31Z</time>
      </trkpt>
      <trkpt lat="49.00305" lon="-1.57756">
        <ele>9.841361</ele>
        <time>2015-06-03T15:52:36Z</time>
      </trkpt>
      <trkpt lat="49.00302" lon="-1.5775">
        <ele>9.779989</ele>
        <time>2015-06-03T15:52:41Z</time>
      </trkpt>
      <trkpt lat="49.00299" lon="-1.57744">
        <ele>9.779989</ele>
        <time>2015-06-03T15:52:46Z</time>
      </trkpt>
      <trkpt lat="49.00297" lon="-1.57739">
        <ele>9.779989</ele>
        <time>2015-06-03T15:52:51Z</time>
      </trkpt>
      <trkpt lat="49.00295" lon="-1.57734">
        <ele>9.827329</ele>
        <time>2015-06-03T15:52:56Z</time>
      </trkpt>
      <trkpt lat="49.00296" lon="-1.5773">
        <ele>9.827329</ele>
        <time>2015-06-03T15:53:01Z</time>
      </trkpt>
      <trkpt lat="49.00294" lon="-1.57725">
        <ele>9.827329</ele>
        <time>2015-06-03T15:53:06Z</time>
      </trkpt>
      <trkpt lat="49.00293" lon="-1.5772">
        <ele>9.975177</ele>
        <time>2015-06-03T15:53:11Z</time>
      </trkpt>
      <trkpt lat="49.00292" lon="-1.57721">
        <ele>9.975177</ele>
        <time>2015-06-03T15:53:16Z</time>
      </trkpt>
      <trkpt lat="49.00293" lon="-1.57721">
        <ele>9.975177</ele>
        <time>2015-06-03T15:53:21Z</time>
      </trkpt>
      <trkpt lat="49.00293" lon="-1.57721">
        <ele>9.975177</ele>
        <time>2015-06-03T15:53:26Z</time>
      </trkpt>
      <trkpt lat="49.00293" lon="-1.57722">
        <ele>9.975177</ele>
        <time>2015-06-03T15:53:31Z</time>
      </trkpt>
      <trkpt lat="49.00292" lon="-1.57723">
        <ele>9.975177</ele>
        <time>2015-06-03T15:53:36Z</time>
      </trkpt>
      <trkpt lat="49.0029" lon="-1.57723">
        <ele>9.975177</ele>
        <time>2015-06-03T15:53:41Z</time>
      </trkpt>
      <trkpt lat="49.0029" lon="-1.57721">
        <ele>9.975177</ele>
        <time>2015-06-03T15:53:46Z</time>
      </trkpt>
      <trkpt lat="49.00292" lon="-1.57719">
        <ele>10.114775</ele>
        <time>2015-06-03T15:53:51Z</time>
      </trkpt>
      <trkpt lat="49.00292" lon="-1.57719">
        <ele>10.114775</ele>
        <time>2015-06-03T15:53:56Z</time>
      </trkpt>
      <trkpt lat="49.00292" lon="-1.5772">
        <ele>10.114775</ele>
        <time>2015-06-03T15:54:01Z</time>
      </trkpt>
      <trkpt lat="49.00292" lon="-1.57719">
        <ele>10.114775</ele>
        <time>2015-06-03T15:54:06Z</time>
      </trkpt>
      <trkpt lat="49.00292" lon="-1.5772">
        <ele>10.114775</ele>
        <time>2015-06-03T15:54:11Z</time>
      </trkpt>
      <trkpt lat="49.00292" lon="-1.57721">
        <ele>10.114775</ele>
        <time>2015-06-03T15:54:16Z</time>
      </trkpt>
      <trkpt lat="49.00292" lon="-1.57721">
        <ele>10.114775</ele>
        <time>2015-06-03T15:54:21Z</time>
      </trkpt>
      <trkpt lat="49.00292" lon="-1.57721">
        <ele>10.114775</ele>
        <time>2015-06-03T15:54:26Z</time>
      </trkpt>
      <trkpt lat="49.00292" lon="-1.5772">
        <ele>10.114775</ele>
        <time>2015-06-03T15:54:31Z</time>
      </trkpt>
      <trkpt lat="49.00292" lon="-1.57719">
        <ele>10.114775</ele>
        <time>2015-06-03T15:54:36Z</time>
      </trkpt>
      <trkpt lat="49.00292" lon="-1.57719">
        <ele>10.114775</ele>
        <time>2015-06-03T15:54:41Z</time>
      </trkpt>
      <trkpt lat="49.00292" lon="-1.57719">
        <ele>10.114775</ele>
        <time>2015-06-03T15:54:46Z</time>
      </trkpt>
      <trkpt lat="49.00292" lon="-1.57721">
        <ele>10.114775</ele>
        <time>2015-06-03T15:54:51Z</time>
      </trkpt>
      <trkpt lat="49.00292" lon="-1.57721">
        <ele>10.114775</ele>
        <time>2015-06-03T15:54:56Z</time>
      </trkpt>
      <trkpt lat="49.00292" lon="-1.57721">
        <ele>10.114775</ele>
        <time>2015-06-03T15:55:01Z</time>
      </trkpt>
      <trkpt lat="49.00291" lon="-1.57721">
        <ele>10.114775</ele>
        <time>2015-06-03T15:55:06Z</time>
      </trkpt>
      <trkpt lat="49.00292" lon="-1.57721">
        <ele>10.114775</ele>
        <time>2015-06-03T15:55:11Z</time>
      </trkpt>
      <trkpt lat="49.00293" lon="-1.57721">
        <ele>10.114775</ele>
        <time>2015-06-03T15:55:16Z</time>
      </trkpt>
      <trkpt lat="49.00292" lon="-1.57722">
        <ele>10.073317</ele>
        <time>2015-06-03T15:55:21Z</time>
      </trkpt>
      <trkpt lat="49.00292" lon="-1.57722">
        <ele>10.073317</ele>
        <time>2015-06-03T15:55:26Z</time>
      </trkpt>
      <trkpt lat="49.00292" lon="-1.57721">
        <ele>10.073317</ele>
        <time>2015-06-03T15:55:31Z</time>
      </trkpt>
      <trkpt lat="49.00292" lon="-1.57721">
        <ele>10.073317</ele>
        <time>2015-06-03T15:55:36Z</time>
      </trkpt>
      <trkpt lat="49.00292" lon="-1.5772">
        <ele>10.073317</ele>
        <time>2015-06-03T15:55:41Z</time>
      </trkpt>
      <trkpt lat="49.00291" lon="-1.57722">
        <ele>10.073317</ele>
        <time>2015-06-03T15:55:46Z</time>
      </trkpt>
      <trkpt lat="49.00291" lon="-1.57722">
        <ele>10.073317</ele>
        <time>2015-06-03T15:55:51Z</time>
      </trkpt>
      <trkpt lat="49.00292" lon="-1.57721">
        <ele>10.073317</ele>
        <time>2015-06-03T15:55:56Z</time>
      </trkpt>
      <trkpt lat="49.00292" lon="-1.5772">
        <ele>10.073317</ele>
        <time>2015-06-03T15:56:01Z</time>
      </trkpt>
      <trkpt lat="49.00291" lon="-1.57718">
        <ele>10.073317</ele>
        <time>2015-06-03T15:56:06Z</time>
      </trkpt>
      <trkpt lat="49.00292" lon="-1.57717">
        <ele>10.073317</ele>
        <time>2015-06-03T15:56:11Z</time>
      </trkpt>
      <trkpt lat="49.00294" lon="-1.57716">
        <ele>10.051476</ele>
        <time>2015-06-03T15:56:16Z</time>
      </trkpt>
      <trkpt lat="49.00294" lon="-1.57716">
        <ele>10.051476</ele>
        <time>2015-06-03T15:56:21Z</time>
      </trkpt>
      <trkpt lat="49.00293" lon="-1.57717">
        <ele>10.051476</ele>
        <time>2015-06-03T15:56:26Z</time>
      </trkpt>
      <trkpt lat="49.00292" lon="-1.57718">
        <ele>10.051476</ele>
        <time>2015-06-03T15:56:31Z</time>
      </trkpt>
      <trkpt lat="49.00292" lon="-1.57717">
        <ele>10.051476</ele>
        <time>2015-06-03T15:56:36Z</time>
      </trkpt>
      <trkpt lat="49.00293" lon="-1.57717">
        <ele>10.051476</ele>
        <time>2015-06-03T15:56:41Z</time>
      </trkpt>
      <trkpt lat="49.00294" lon="-1.57717">
        <ele>10.051476</ele>
        <time>2015-06-03T15:56:46Z</time>
      </trkpt>
      <trkpt lat="49.00293" lon="-1.57717">
        <ele>10.051476</ele>
        <time>2015-06-03T15:56:51Z</time>
      </trkpt>
      <trkpt lat="49.00294" lon="-1.57717">
        <ele>10.051476</ele>
        <time>2015-06-03T15:56:56Z</time>
      </trkpt>
      <trkpt lat="49.00294" lon="-1.57717">
        <ele>10.051476</ele>
        <time>2015-06-03T15:57:01Z</time>
      </trkpt>
      <trkpt lat="49.00294" lon="-1.57718">
        <ele>10.051476</ele>
        <time>2015-06-03T15:57:06Z</time>
      </trkpt>
      <trkpt lat="49.00294" lon="-1.57717">
        <ele>10.051476</ele>
        <time>2015-06-03T15:57:11Z</time>
      </trkpt>
      <trkpt lat="49.00293" lon="-1.57717">
        <ele>10.051476</ele>
        <time>2015-06-03T15:57:16Z</time>
      </trkpt>
      <trkpt lat="49.00292" lon="-1.57719">
        <ele>10.051476</ele>
        <time>2015-06-03T15:57:21Z</time>
      </trkpt>
      <trkpt lat="49.00292" lon="-1.57719">
        <ele>10.051476</ele>
        <time>2015-06-03T15:57:26Z</time>
      </trkpt>
      <trkpt lat="49.00292" lon="-1.57718">
        <ele>10.191896</ele>
        <time>2015-06-03T15:57:31Z</time>
      </trkpt>
      <trkpt lat="49.00292" lon="-1.57715">
        <ele>10.191896</ele>
        <time>2015-06-03T15:57:36Z</time>
      </trkpt>
      <trkpt lat="49.00293" lon="-1.57715">
        <ele>10.191896</ele>
        <time>2015-06-03T15:57:41Z</time>
      </trkpt>
      <trkpt lat="49.00293" lon="-1.57716">
        <ele>10.191896</ele>
        <time>2015-06-03T15:57:46Z</time>
      </trkpt>
      <trkpt lat="49.00293" lon="-1.57716">
        <ele>10.191896</ele>
        <time>2015-06-03T15:57:51Z</time>
      </trkpt>
      <trkpt lat="49.00294" lon="-1.57719">
        <ele>10.191896</ele>
        <time>2015-06-03T15:57:56Z</time>
      </trkpt>
      <trkpt lat="49.00294" lon="-1.5772">
        <ele>10.191896</ele>
        <time>2015-06-03T15:58:01Z</time>
      </trkpt>
      <trkpt lat="49.00294" lon="-1.5772">
        <ele>10.191896</ele>
        <time>2015-06-03T15:58:06Z</time>
      </trkpt>
      <trkpt lat="49.00294" lon="-1.5772">
        <ele>10.191896</ele>
        <time>2015-06-03T15:58:11Z</time>
      </trkpt>
      <trkpt lat="49.00293" lon="-1.57721">
        <ele>10.006612</ele>
        <time>2015-06-03T15:58:16Z</time>
      </trkpt>
      <trkpt lat="49.00294" lon="-1.5772">
        <ele>10.006612</ele>
        <time>2015-06-03T15:58:21Z</time>
      </trkpt>
      <trkpt lat="49.00295" lon="-1.57718">
        <ele>10.006612</ele>
        <time>2015-06-03T15:58:26Z</time>
      </trkpt>
      <trkpt lat="49.00296" lon="-1.57717">
        <ele>10.006612</ele>
        <time>2015-06-03T15:58:31Z</time>
      </trkpt>
      <trkpt lat="49.00296" lon="-1.57717">
        <ele>10.006612</ele>
        <time>2015-06-03T15:58:36Z</time>
      </trkpt>
      <trkpt lat="49.00297" lon="-1.57717">
        <ele>10.006612</ele>
        <time>2015-06-03T15:58:41Z</time>
      </trkpt>
      <trkpt lat="49.00296" lon="-1.57718">
        <ele>10.006612</ele>
        <time>2015-06-03T15:58:46Z</time>
      </trkpt>
      <trkpt lat="49.00296" lon="-1.57718">
        <ele>10.006612</ele>
        <time>2015-06-03T15:58:51Z</time>
      </trkpt>
      <trkpt lat="49.00296" lon="-1.57718">
        <ele>10.006612</ele>
        <time>2015-06-03T15:58:56Z</time>
      </trkpt>
      <trkpt lat="49.00296" lon="-1.57717">
        <ele>10.006612</ele>
        <time>2015-06-03T15:59:01Z</time>
      </trkpt>
      <trkpt lat="49.00296" lon="-1.57718">
        <ele>10.006612</ele>
        <time>2015-06-03T15:59:06Z</time>
      </trkpt>
      <trkpt lat="49.00295" lon="-1.57719">
        <ele>10.006612</ele>
        <time>2015-06-03T15:59:11Z</time>
      </trkpt>
      <trkpt lat="49.00295" lon="-1.57718">
        <ele>10.006612</ele>
        <time>2015-06-03T15:59:16Z</time>
      </trkpt>
      <trkpt lat="49.00295" lon="-1.57718">
        <ele>10.006612</ele>
        <time>2015-06-03T15:59:21Z</time>
      </trkpt>
      <trkpt lat="49.00294" lon="-1.5772">
        <ele>9.894671</ele>
        <time>2015-06-03T15:59:26Z</time>
      </trkpt>
      <trkpt lat="49.00294" lon="-1.5772">
        <ele>9.894671</ele>
        <time>2015-06-03T15:59:31Z</time>
      </trkpt>
      <trkpt lat="49.00294" lon="-1.5772">
        <ele>9.894671</ele>
        <time>2015-06-03T15:59:36Z</time>
      </trkpt>
      <trkpt lat="49.00294" lon="-1.57717">
        <ele>9.894671</ele>
        <time>2015-06-03T15:59:41Z</time>
      </trkpt>
      <trkpt lat="49.00293" lon="-1.57718">
        <ele>9.894671</ele>
        <time>2015-06-03T15:59:46Z</time>
      </trkpt>
      <trkpt lat="49.00293" lon="-1.57719">
        <ele>9.894671</ele>
        <time>2015-06-03T15:59:51Z</time>
      </trkpt>
      <trkpt lat="49.00293" lon="-1.57719">
        <ele>9.894671</ele>
        <time>2015-06-03T15:59:56Z</time>
      </trkpt>
      <trkpt lat="49.00293" lon="-1.5772">
        <ele>9.894671</ele>
        <time>2015-06-03T16:00:01Z</time>
      </trkpt>
      <trkpt lat="49.00293" lon="-1.57719">
        <ele>9.894671</ele>
        <time>2015-06-03T16:00:06Z</time>
      </trkpt>
      <trkpt lat="49.00292" lon="-1.57718">
        <ele>9.894671</ele>
        <time>2015-06-03T16:00:11Z</time>
      </trkpt>
      <trkpt lat="49.00292" lon="-1.57719">
        <ele>9.894671</ele>
        <time>2015-06-03T16:00:16Z</time>
      </trkpt>
      <trkpt lat="49.00292" lon="-1.57719">
        <ele>9.894671</ele>
        <time>2015-06-03T16:00:21Z</time>
      </trkpt>
      <trkpt lat="49.00293" lon="-1.57719">
        <ele>9.894671</ele>
        <time>2015-06-03T16:00:26Z</time>
      </trkpt>
      <trkpt lat="49.00293" lon="-1.57718">
        <ele>9.894671</ele>
        <time>2015-06-03T16:00:31Z</time>
      </trkpt>
      <trkpt lat="49.00292" lon="-1.57719">
        <ele>9.894671</ele>
        <time>2015-06-03T16:00:36Z</time>
      </trkpt>
      <trkpt lat="49.00292" lon="-1.57718">
        <ele>9.807681</ele>
        <time>2015-06-03T16:00:41Z</time>
      </trkpt>
      <trkpt lat="49.00291" lon="-1.57719">
        <ele>9.807681</ele>
        <time>2015-06-03T16:00:46Z</time>
      </trkpt>
      <trkpt lat="49.0029" lon="-1.57719">
        <ele>9.807681</ele>
        <time>2015-06-03T16:00:51Z</time>
      </trkpt>
      <trkpt lat="49.00289" lon="-1.5772">
        <ele>9.807681</ele>
        <time>2015-06-03T16:00:56Z</time>
      </trkpt>
      <trkpt lat="49.0029" lon="-1.5772">
        <ele>9.807681</ele>
        <time>2015-06-03T16:01:01Z</time>
      </trkpt>
      <trkpt lat="49.00291" lon="-1.57721">
        <ele>9.807681</ele>
        <time>2015-06-03T16:01:06Z</time>
      </trkpt>
      <trkpt lat="49.00292" lon="-1.57723">
        <ele>9.807681</ele>
        <time>2015-06-03T16:01:11Z</time>
      </trkpt>
      <trkpt lat="49.00292" lon="-1.57723">
        <ele>9.807681</ele>
        <time>2015-06-03T16:01:16Z</time>
      </trkpt>
      <trkpt lat="49.00293" lon="-1.57722">
        <ele>9.807681</ele>
        <time>2015-06-03T16:01:21Z</time>
      </trkpt>
      <trkpt lat="49.00293" lon="-1.5772">
        <ele>9.807681</ele>
        <time>2015-06-03T16:01:26Z</time>
      </trkpt>
      <trkpt lat="49.00293" lon="-1.57719">
        <ele>9.807681</ele>
        <time>2015-06-03T16:01:31Z</time>
      </trkpt>
      <trkpt lat="49.00294" lon="-1.57718">
        <ele>9.801611</ele>
        <time>2015-06-03T16:01:36Z</time>
      </trkpt>
      <trkpt lat="49.00294" lon="-1.57717">
        <ele>9.801611</ele>
        <time>2015-06-03T16:01:41Z</time>
      </trkpt>
      <trkpt lat="49.00293" lon="-1.57717">
        <ele>9.801611</ele>
        <time>2015-06-03T16:01:46Z</time>
      </trkpt>
      <trkpt lat="49.00294" lon="-1.57717">
        <ele>9.801611</ele>
        <time>2015-06-03T16:01:51Z</time>
      </trkpt>
      <trkpt lat="49.00295" lon="-1.57717">
        <ele>9.801611</ele>
        <time>2015-06-03T16:01:56Z</time>
      </trkpt>
      <trkpt lat="49.00295" lon="-1.57719">
        <ele>9.801611</ele>
        <time>2015-06-03T16:02:01Z</time>
      </trkpt>
      <trkpt lat="49.00295" lon="-1.57722">
        <ele>9.801611</ele>
        <time>2015-06-03T16:02:06Z</time>
      </trkpt>
      <trkpt lat="49.00296" lon="-1.57723">
        <ele>9.801611</ele>
        <time>2015-06-03T16:02:11Z</time>
      </trkpt>
      <trkpt lat="49.00296" lon="-1.57723">
        <ele>9.801611</ele>
        <time>2015-06-03T16:02:16Z</time>
      </trkpt>
      <trkpt lat="49.00295" lon="-1.57722">
        <ele>9.801611</ele>
        <time>2015-06-03T16:02:21Z</time>
      </trkpt>
      <trkpt lat="49.00295" lon="-1.57721">
        <ele>9.769569</ele>
        <time>2015-06-03T16:02:26Z</time>
      </trkpt>
      <trkpt lat="49.00294" lon="-1.57721">
        <ele>9.769569</ele>
        <time>2015-06-03T16:02:31Z</time>
      </trkpt>
      <trkpt lat="49.00294" lon="-1.5772">
        <ele>9.769569</ele>
        <time>2015-06-03T16:02:36Z</time>
      </trkpt>
      <trkpt lat="49.00293" lon="-1.5772">
        <ele>9.769569</ele>
        <time>2015-06-03T16:02:41Z</time>
      </trkpt>
      <trkpt lat="49.00293" lon="-1.57721">
        <ele>9.769569</ele>
        <time>2015-06-03T16:02:46Z</time>
      </trkpt>
      <trkpt lat="49.00293" lon="-1.57721">
        <ele>9.769569</ele>
        <time>2015-06-03T16:02:51Z</time>
      </trkpt>
      <trkpt lat="49.00295" lon="-1.5772">
        <ele>9.769569</ele>
        <time>2015-06-03T16:02:56Z</time>
      </trkpt>
      <trkpt lat="49.00296" lon="-1.5772">
        <ele>9.769569</ele>
        <time>2015-06-03T16:03:01Z</time>
      </trkpt>
      <trkpt lat="49.00298" lon="-1.5772">
        <ele>9.769569</ele>
        <time>2015-06-03T16:03:06Z</time>
      </trkpt>
      <trkpt lat="49.00298" lon="-1.57719">
        <ele>9.769569</ele>
        <time>2015-06-03T16:03:11Z</time>
      </trkpt>
      <trkpt lat="49.00297" lon="-1.57718">
        <ele>9.785522</ele>
        <time>2015-06-03T16:03:16Z</time>
      </trkpt>
      <trkpt lat="49.00296" lon="-1.57718">
        <ele>9.785522</ele>
        <time>2015-06-03T16:03:21Z</time>
      </trkpt>
      <trkpt lat="49.00295" lon="-1.57719">
        <ele>9.785522</ele>
        <time>2015-06-03T16:03:26Z</time>
      </trkpt>
      <trkpt lat="49.00295" lon="-1.57718">
        <ele>9.785522</ele>
        <time>2015-06-03T16:03:31Z</time>
      </trkpt>
      <trkpt lat="49.00295" lon="-1.57718">
        <ele>9.785522</ele>
        <time>2015-06-03T16:03:36Z</time>
      </trkpt>
      <trkpt lat="49.00295" lon="-1.57719">
        <ele>9.785522</ele>
        <time>2015-06-03T16:03:41Z</time>
      </trkpt>
      <trkpt lat="49.00296" lon="-1.57718">
        <ele>9.785522</ele>
        <time>2015-06-03T16:03:46Z</time>
      </trkpt>
      <trkpt lat="49.00295" lon="-1.57718">
        <ele>9.785522</ele>
        <time>2015-06-03T16:03:51Z</time>
      </trkpt>
      <trkpt lat="49.00295" lon="-1.57718">
        <ele>9.785522</ele>
        <time>2015-06-03T16:03:56Z</time>
      </trkpt>
      <trkpt lat="49.00295" lon="-1.57717">
        <ele>9.785522</ele>
        <time>2015-06-03T16:04:01Z</time>
      </trkpt>
      <trkpt lat="49.00294" lon="-1.57716">
        <ele>9.785522</ele>
        <time>2015-06-03T16:04:06Z</time>
      </trkpt>
      <trkpt lat="49.00293" lon="-1.57717">
        <ele>9.785522</ele>
        <time>2015-06-03T16:04:11Z</time>
      </trkpt>
      <trkpt lat="49.00293" lon="-1.57718">
        <ele>9.785522</ele>
        <time>2015-06-03T16:04:16Z</time>
      </trkpt>
      <trkpt lat="49.00294" lon="-1.57719">
        <ele>9.946691</ele>
        <time>2015-06-03T16:04:21Z</time>
      </trkpt>
      <trkpt lat="49.00296" lon="-1.5772">
        <ele>9.946691</ele>
        <time>2015-06-03T16:04:26Z</time>
      </trkpt>
      <trkpt lat="49.00297" lon="-1.57721">
        <ele>9.946691</ele>
        <time>2015-06-03T16:04:31Z</time>
      </trkpt>
      <trkpt lat="49.00297" lon="-1.57721">
        <ele>9.946691</ele>
        <time>2015-06-03T16:04:36Z</time>
      </trkpt>
      <trkpt lat="49.00297" lon="-1.5772">
        <ele>9.946691</ele>
        <time>2015-06-03T16:04:41Z</time>
      </trkpt>
      <trkpt lat="49.00296" lon="-1.5772">
        <ele>9.946691</ele>
        <time>2015-06-03T16:04:46Z</time>
      </trkpt>
      <trkpt lat="49.00296" lon="-1.57717">
        <ele>9.946691</ele>
        <time>2015-06-03T16:04:51Z</time>
      </trkpt>
      <trkpt lat="49.00296" lon="-1.57716">
        <ele>9.946691</ele>
        <time>2015-06-03T16:04:56Z</time>
      </trkpt>
      <trkpt lat="49.00296" lon="-1.57715">
        <ele>9.946691</ele>
        <time>2015-06-03T16:05:01Z</time>
      </trkpt>
      <trkpt lat="49.00294" lon="-1.57717">
        <ele>10.184221</ele>
        <time>2015-06-03T16:05:06Z</time>
      </trkpt>
      <trkpt lat="49.00294" lon="-1.57715">
        <ele>10.184221</ele>
        <time>2015-06-03T16:05:11Z</time>
      </trkpt>
      <trkpt lat="49.00294" lon="-1.57716">
        <ele>10.184221</ele>
        <time>2015-06-03T16:05:16Z</time>
      </trkpt>
      <trkpt lat="49.00294" lon="-1.57716">
        <ele>10.184221</ele>
        <time>2015-06-03T16:05:21Z</time>
      </trkpt>
      <trkpt lat="49.00293" lon="-1.57716">
        <ele>10.184221</ele>
        <time>2015-06-03T16:05:26Z</time>
      </trkpt>
      <trkpt lat="49.00292" lon="-1.57718">
        <ele>10.184221</ele>
        <time>2015-06-03T16:05:31Z</time>
      </trkpt>
      <trkpt lat="49.00292" lon="-1.57719">
        <ele>10.184221</ele>
        <time>2015-06-03T16:05:36Z</time>
      </trkpt>
      <trkpt lat="49.00291" lon="-1.57719">
        <ele>10.184221</ele>
        <time>2015-06-03T16:05:41Z</time>
      </trkpt>
      <trkpt lat="49.00291" lon="-1.57718">
        <ele>10.184221</ele>
        <time>2015-06-03T16:05:46Z</time>
      </trkpt>
      <trkpt lat="49.00291" lon="-1.57718">
        <ele>10.184221</ele>
        <time>2015-06-03T16:05:51Z</time>
      </trkpt>
      <trkpt lat="49.0029" lon="-1.57717">
        <ele>10.184221</ele>
        <time>2015-06-03T16:05:56Z</time>
      </trkpt>
      <trkpt lat="49.00291" lon="-1.57716">
        <ele>10.184221</ele>
        <time>2015-06-03T16:06:01Z</time>
      </trkpt>
      <trkpt lat="49.00291" lon="-1.57714">
        <ele>10.4917555</ele>
        <time>2015-06-03T16:06:06Z</time>
      </trkpt>
      <trkpt lat="49.00292" lon="-1.57712">
        <ele>10.4917555</ele>
        <time>2015-06-03T16:06:11Z</time>
      </trkpt>
      <trkpt lat="49.00293" lon="-1.57711">
        <ele>10.4917555</ele>
        <time>2015-06-03T16:06:16Z</time>
      </trkpt>
      <trkpt lat="49.00293" lon="-1.57712">
        <ele>10.4917555</ele>
        <time>2015-06-03T16:06:21Z</time>
      </trkpt>
      <trkpt lat="49.00293" lon="-1.57713">
        <ele>10.4917555</ele>
        <time>2015-06-03T16:06:26Z</time>
      </trkpt>
      <trkpt lat="49.00293" lon="-1.57716">
        <ele>10.4917555</ele>
        <time>2015-06-03T16:06:31Z</time>
      </trkpt>
      <trkpt lat="49.00293" lon="-1.57716">
        <ele>10.4917555</ele>
        <time>2015-06-03T16:06:36Z</time>
      </trkpt>
      <trkpt lat="49.00293" lon="-1.57714">
        <ele>10.4917555</ele>
        <time>2015-06-03T16:06:41Z</time>
      </trkpt>
      <trkpt lat="49.00292" lon="-1.57713">
        <ele>10.4917555</ele>
        <time>2015-06-03T16:06:46Z</time>
      </trkpt>
      <trkpt lat="49.00292" lon="-1.57714">
        <ele>10.4917555</ele>
        <time>2015-06-03T16:06:51Z</time>
      </trkpt>
      <trkpt lat="49.00292" lon="-1.57714">
        <ele>10.877618</ele>
        <time>2015-06-03T16:06:56Z</time>
      </trkpt>
      <trkpt lat="49.00293" lon="-1.57715">
        <ele>10.877618</ele>
        <time>2015-06-03T16:07:01Z</time>
      </trkpt>
      <trkpt lat="49.00293" lon="-1.57715">
        <ele>10.877618</ele>
        <time>2015-06-03T16:07:06Z</time>
      </trkpt>
      <trkpt lat="49.00292" lon="-1.57713">
        <ele>10.877618</ele>
        <time>2015-06-03T16:07:11Z</time>
      </trkpt>
      <trkpt lat="49.00291" lon="-1.57711">
        <ele>10.877618</ele>
        <time>2015-06-03T16:07:16Z</time>
      </trkpt>
      <trkpt lat="49.00291" lon="-1.57708">
        <ele>10.877618</ele>
        <time>2015-06-03T16:07:21Z</time>
      </trkpt>
      <trkpt lat="49.00291" lon="-1.57706">
        <ele>10.877618</ele>
        <time>2015-06-03T16:07:26Z</time>
      </trkpt>
      <trkpt lat="49.00291" lon="-1.577">
        <ele>11.147554</ele>
        <time>2015-06-03T16:07:31Z</time>
      </trkpt>
      <trkpt lat="49.00291" lon="-1.57693">
        <ele>11.147554</ele>
        <time>2015-06-03T16:07:36Z</time>
      </trkpt>
      <trkpt lat="49.00292" lon="-1.57687">
        <ele>11.147554</ele>
        <time>2015-06-03T16:07:41Z</time>
      </trkpt>
      <trkpt lat="49.00293" lon="-1.57681">
        <ele>11.294845</ele>
        <time>2015-06-03T16:07:46Z</time>
      </trkpt>
      <trkpt lat="49.00297" lon="-1.57676">
        <ele>11.294845</ele>
        <time>2015-06-03T16:07:51Z</time>
      </trkpt>
      <trkpt lat="49.00301" lon="-1.57675">
        <ele>11.3424425</ele>
        <time>2015-06-03T16:07:56Z</time>
      </trkpt>
      <trkpt lat="49.00301" lon="-1.57674">
        <ele>11.3424425</ele>
        <time>2015-06-03T16:08:01Z</time>
      </trkpt>
      <trkpt lat="49.00301" lon="-1.57674">
        <ele>11.3424425</ele>
        <time>2015-06-03T16:08:06Z</time>
      </trkpt>
      <trkpt lat="49.00303" lon="-1.57673">
        <ele>11.3424425</ele>
        <time>2015-06-03T16:08:11Z</time>
      </trkpt>
      <trkpt lat="49.00307" lon="-1.57675">
        <ele>11.3424425</ele>
        <time>2015-06-03T16:08:16Z</time>
      </trkpt>
      <trkpt lat="49.00311" lon="-1.57678">
        <ele>11.095735</ele>
        <time>2015-06-03T16:08:21Z</time>
      </trkpt>
      <trkpt lat="49.00316" lon="-1.57679">
        <ele>11.095735</ele>
        <time>2015-06-03T16:08:26Z</time>
      </trkpt>
      <trkpt lat="49.00322" lon="-1.57679">
        <ele>10.807576</ele>
        <time>2015-06-03T16:08:31Z</time>
      </trkpt>
      <trkpt lat="49.0033" lon="-1.57683">
        <ele>10.807576</ele>
        <time>2015-06-03T16:08:36Z</time>
      </trkpt>
      <trkpt lat="49.00335" lon="-1.57687">
        <ele>10.4817915</ele>
        <time>2015-06-03T16:08:41Z</time>
      </trkpt>
      <trkpt lat="49.0034" lon="-1.5769">
        <ele>10.4817915</ele>
        <time>2015-06-03T16:08:46Z</time>
      </trkpt>
      <trkpt lat="49.00344" lon="-1.5769">
        <ele>10.165271</ele>
        <time>2015-06-03T16:08:51Z</time>
      </trkpt>
      <trkpt lat="49.00348" lon="-1.57689">
        <ele>10.165271</ele>
        <time>2015-06-03T16:08:56Z</time>
      </trkpt>
      <trkpt lat="49.00357" lon="-1.57688">
        <ele>9.800555</ele>
        <time>2015-06-03T16:09:01Z</time>
      </trkpt>
      <trkpt lat="49.00361" lon="-1.57688">
        <ele>9.800555</ele>
        <time>2015-06-03T16:09:06Z</time>
      </trkpt>
      <trkpt lat="49.00366" lon="-1.57685">
        <ele>9.334543</ele>
        <time>2015-06-03T16:09:11Z</time>
      </trkpt>
      <trkpt lat="49.00372" lon="-1.57682">
        <ele>9.334543</ele>
        <time>2015-06-03T16:09:16Z</time>
      </trkpt>
      <trkpt lat="49.00378" lon="-1.57682">
        <ele>8.79037</ele>
        <time>2015-06-03T16:09:21Z</time>
      </trkpt>
      <trkpt lat="49.00385" lon="-1.57682">
        <ele>8.79037</ele>
        <time>2015-06-03T16:09:26Z</time>
      </trkpt>
      <trkpt lat="49.00391" lon="-1.57681">
        <ele>8.218504</ele>
        <time>2015-06-03T16:09:31Z</time>
      </trkpt>
      <trkpt lat="49.00395" lon="-1.57677">
        <ele>8.218504</ele>
        <time>2015-06-03T16:09:36Z</time>
      </trkpt>
      <trkpt lat="49.00398" lon="-1.57671">
        <ele>7.6657743</ele>
        <time>2015-06-03T16:09:41Z</time>
      </trkpt>
      <trkpt lat="49.00402" lon="-1.57665">
        <ele>7.6657743</ele>
        <time>2015-06-03T16:09:46Z</time>
      </trkpt>
      <trkpt lat="49.00407" lon="-1.5766">
        <ele>7.089034</ele>
        <time>2015-06-03T16:09:51Z</time>
      </trkpt>
      <trkpt lat="49.00411" lon="-1.57654">
        <ele>7.089034</ele>
        <time>2015-06-03T16:09:56Z</time>
      </trkpt>
      <trkpt lat="49.00414" lon="-1.57652">
        <ele>6.563644</ele>
        <time>2015-06-03T16:10:01Z</time>
      </trkpt>
      <trkpt lat="49.00417" lon="-1.57647">
        <ele>6.563644</ele>
        <time>2015-06-03T16:10:06Z</time>
      </trkpt>
      <trkpt lat="49.00422" lon="-1.57641">
        <ele>6.0872083</ele>
        <time>2015-06-03T16:10:11Z</time>
      </trkpt>
      <trkpt lat="49.00426" lon="-1.57634">
        <ele>6.0872083</ele>
        <time>2015-06-03T16:10:16Z</time>
      </trkpt>
      <trkpt lat="49.0043" lon="-1.57631">
        <ele>5.614113</ele>
        <time>2015-06-03T16:10:21Z</time>
      </trkpt>
      <trkpt lat="49.00435" lon="-1.57625">
        <ele>5.614113</ele>
        <time>2015-06-03T16:10:26Z</time>
      </trkpt>
      <trkpt lat="49.00439" lon="-1.57625">
        <ele>5.145293</ele>
        <time>2015-06-03T16:10:31Z</time>
      </trkpt>
      <trkpt lat="49.00446" lon="-1.57627">
        <ele>5.145293</ele>
        <time>2015-06-03T16:10:36Z</time>
      </trkpt>
      <trkpt lat="49.00453" lon="-1.57628">
        <ele>4.6671643</ele>
        <time>2015-06-03T16:10:41Z</time>
      </trkpt>
      <trkpt lat="49.00457" lon="-1.57627">
        <ele>4.6671643</ele>
        <time>2015-06-03T16:10:46Z</time>
      </trkpt>
      <trkpt lat="49.00462" lon="-1.57625">
        <ele>4.268015</ele>
        <time>2015-06-03T16:10:51Z</time>
      </trkpt>
      <trkpt lat="49.00467" lon="-1.57621">
        <ele>4.268015</ele>
        <time>2015-06-03T16:10:56Z</time>
      </trkpt>
      <trkpt lat="49.00472" lon="-1.57617">
        <ele>3.9285195</ele>
        <time>2015-06-03T16:11:01Z</time>
      </trkpt>
      <trkpt lat="49.00477" lon="-1.57613">
        <ele>3.9285195</ele>
        <time>2015-06-03T16:11:06Z</time>
      </trkpt>
      <trkpt lat="49.00482" lon="-1.57605">
        <ele>3.6449854</ele>
        <time>2015-06-03T16:11:11Z</time>
      </trkpt>
      <trkpt lat="49.00486" lon="-1.57602">
        <ele>3.6449854</ele>
        <time>2015-06-03T16:11:16Z</time>
      </trkpt>
      <trkpt lat="49.00492" lon="-1.57596">
        <ele>3.3417494</ele>
        <time>2015-06-03T16:11:21Z</time>
      </trkpt>
      <trkpt lat="49.00496" lon="-1.57592">
        <ele>3.3417494</ele>
        <time>2015-06-03T16:11:26Z</time>
      </trkpt>
      <trkpt lat="49.00501" lon="-1.57587">
        <ele>3.0496092</ele>
        <time>2015-06-03T16:11:31Z</time>
      </trkpt>
      <trkpt lat="49.00506" lon="-1.57582">
        <ele>3.0496092</ele>
        <time>2015-06-03T16:11:36Z</time>
      </trkpt>
      <trkpt lat="49.0051" lon="-1.5758">
        <ele>2.840274</ele>
        <time>2015-06-03T16:11:41Z</time>
      </trkpt>
      <trkpt lat="49.00515" lon="-1.57577">
        <ele>2.840274</ele>
        <time>2015-06-03T16:11:46Z</time>
      </trkpt>
      <trkpt lat="49.00519" lon="-1.57573">
        <ele>2.6790478</ele>
        <time>2015-06-03T16:11:51Z</time>
      </trkpt>
      <trkpt lat="49.00523" lon="-1.5757">
        <ele>2.6790478</ele>
        <time>2015-06-03T16:11:56Z</time>
      </trkpt>
      <trkpt lat="49.00527" lon="-1.57566">
        <ele>2.5768554</ele>
        <time>2015-06-03T16:12:01Z</time>
      </trkpt>
      <trkpt lat="49.00533" lon="-1.57564">
        <ele>2.5768554</ele>
        <time>2015-06-03T16:12:06Z</time>
      </trkpt>
      <trkpt lat="49.00539" lon="-1.57563">
        <ele>2.572451</ele>
        <time>2015-06-03T16:12:11Z</time>
      </trkpt>
      <trkpt lat="49.00545" lon="-1.57561">
        <ele>2.572451</ele>
        <time>2015-06-03T16:12:16Z</time>
      </trkpt>
      <trkpt lat="49.0055" lon="-1.57561">
        <ele>2.6293914</ele>
        <time>2015-06-03T16:12:21Z</time>
      </trkpt>
      <trkpt lat="49.00555" lon="-1.57559">
        <ele>2.6293914</ele>
        <time>2015-06-03T16:12:26Z</time>
      </trkpt>
      <trkpt lat="49.00562" lon="-1.57559">
        <ele>2.6416626</ele>
        <time>2015-06-03T16:12:31Z</time>
      </trkpt>
      <trkpt lat="49.00567" lon="-1.57558">
        <ele>2.6416626</ele>
        <time>2015-06-03T16:12:36Z</time>
      </trkpt>
      <trkpt lat="49.00572" lon="-1.57559">
        <ele>2.640848</ele>
        <time>2015-06-03T16:12:41Z</time>
      </trkpt>
      <trkpt lat="49.00576" lon="-1.5756">
        <ele>2.640848</ele>
        <time>2015-06-03T16:12:46Z</time>
      </trkpt>
      <trkpt lat="49.00581" lon="-1.57558">
        <ele>2.640848</ele>
        <time>2015-06-03T16:12:51Z</time>
      </trkpt>
      <trkpt lat="49.00584" lon="-1.57556">
        <ele>2.5553555</ele>
        <time>2015-06-03T16:12:56Z</time>
      </trkpt>
      <trkpt lat="49.00589" lon="-1.57553">
        <ele>2.5553555</ele>
        <time>2015-06-03T16:13:01Z</time>
      </trkpt>
      <trkpt lat="49.00594" lon="-1.57552">
        <ele>2.4631908</ele>
        <time>2015-06-03T16:13:06Z</time>
      </trkpt>
      <trkpt lat="49.00597" lon="-1.57552">
        <ele>2.4631908</ele>
        <time>2015-06-03T16:13:11Z</time>
      </trkpt>
      <trkpt lat="49.00599" lon="-1.57551">
        <ele>2.4631908</ele>
        <time>2015-06-03T16:13:16Z</time>
      </trkpt>
      <trkpt lat="49.00599" lon="-1.57551">
        <ele>2.4631908</ele>
        <time>2015-06-03T16:13:21Z</time>
      </trkpt>
      <trkpt lat="49.00602" lon="-1.5755">
        <ele>2.4631908</ele>
        <time>2015-06-03T16:13:26Z</time>
      </trkpt>
      <trkpt lat="49.00606" lon="-1.57549">
        <ele>2.3934045</ele>
        <time>2015-06-03T16:13:31Z</time>
      </trkpt>
      <trkpt lat="49.00611" lon="-1.57545">
        <ele>2.3934045</ele>
        <time>2015-06-03T16:13:36Z</time>
      </trkpt>
      <trkpt lat="49.00615" lon="-1.57543">
        <ele>2.2719657</ele>
        <time>2015-06-03T16:13:41Z</time>
      </trkpt>
      <trkpt lat="49.00621" lon="-1.5754">
        <ele>2.2719657</ele>
        <time>2015-06-03T16:13:46Z</time>
      </trkpt>
      <trkpt lat="49.00629" lon="-1.57541">
        <ele>2.2177646</ele>
        <time>2015-06-03T16:13:51Z</time>
      </trkpt>
      <trkpt lat="49.00635" lon="-1.57542">
        <ele>2.2177646</ele>
        <time>2015-06-03T16:13:56Z</time>
      </trkpt>
      <trkpt lat="49.00641" lon="-1.57544">
        <ele>2.1822422</ele>
        <time>2015-06-03T16:14:01Z</time>
      </trkpt>
      <trkpt lat="49.00647" lon="-1.57548">
        <ele>2.1822422</ele>
        <time>2015-06-03T16:14:06Z</time>
      </trkpt>
      <trkpt lat="49.00652" lon="-1.57549">
        <ele>2.2356403</ele>
        <time>2015-06-03T16:14:11Z</time>
      </trkpt>
      <trkpt lat="49.00655" lon="-1.57548">
        <ele>2.2356403</ele>
        <time>2015-06-03T16:14:16Z</time>
      </trkpt>
      <trkpt lat="49.0066" lon="-1.57545">
        <ele>2.2356403</ele>
        <time>2015-06-03T16:14:21Z</time>
      </trkpt>
      <trkpt lat="49.00665" lon="-1.57541">
        <ele>2.2698565</ele>
        <time>2015-06-03T16:14:26Z</time>
      </trkpt>
      <trkpt lat="49.00669" lon="-1.57536">
        <ele>2.2698565</ele>
        <time>2015-06-03T16:14:31Z</time>
      </trkpt>
      <trkpt lat="49.00672" lon="-1.57535">
        <ele>2.2698565</ele>
        <time>2015-06-03T16:14:36Z</time>
      </trkpt>
      <trkpt lat="49.00677" lon="-1.57536">
        <ele>2.256839</ele>
        <time>2015-06-03T16:14:41Z</time>
      </trkpt>
      <trkpt lat="49.0068" lon="-1.57535">
        <ele>2.256839</ele>
        <time>2015-06-03T16:14:46Z</time>
      </trkpt>
      <trkpt lat="49.00685" lon="-1.57533">
        <ele>2.257198</ele>
        <time>2015-06-03T16:14:51Z</time>
      </trkpt>
      <trkpt lat="49.00691" lon="-1.57529">
        <ele>2.257198</ele>
        <time>2015-06-03T16:14:56Z</time>
      </trkpt>
      <trkpt lat="49.00696" lon="-1.57526">
        <ele>2.2694135</ele>
        <time>2015-06-03T16:15:01Z</time>
      </trkpt>
      <trkpt lat="49.00701" lon="-1.57525">
        <ele>2.2694135</ele>
        <time>2015-06-03T16:15:06Z</time>
      </trkpt>
      <trkpt lat="49.00707" lon="-1.57525">
        <ele>2.3208702</ele>
        <time>2015-06-03T16:15:11Z</time>
      </trkpt>
      <trkpt lat="49.00712" lon="-1.57526">
        <ele>2.3208702</ele>
        <time>2015-06-03T16:15:16Z</time>
      </trkpt>
      <trkpt lat="49.00716" lon="-1.57525">
        <ele>2.3647826</ele>
        <time>2015-06-03T16:15:21Z</time>
      </trkpt>
      <trkpt lat="49.00724" lon="-1.57525">
        <ele>2.3647826</ele>
        <time>2015-06-03T16:15:26Z</time>
      </trkpt>
      <trkpt lat="49.00727" lon="-1.57525">
        <ele>2.4154754</ele>
        <time>2015-06-03T16:15:31Z</time>
      </trkpt>
      <trkpt lat="49.00731" lon="-1.57524">
        <ele>2.4154754</ele>
        <time>2015-06-03T16:15:36Z</time>
      </trkpt>
      <trkpt lat="49.00735" lon="-1.57521">
        <ele>2.4154754</ele>
        <time>2015-06-03T16:15:41Z</time>
      </trkpt>
      <trkpt lat="49.00739" lon="-1.57518">
        <ele>2.5006227</ele>
        <time>2015-06-03T16:15:46Z</time>
      </trkpt>
      <trkpt lat="49.00744" lon="-1.57517">
        <ele>2.5006227</ele>
        <time>2015-06-03T16:15:51Z</time>
      </trkpt>
      <trkpt lat="49.00752" lon="-1.57515">
        <ele>2.6601903</ele>
        <time>2015-06-03T16:15:56Z</time>
      </trkpt>
      <trkpt lat="49.00756" lon="-1.57513">
        <ele>2.6601903</ele>
        <time>2015-06-03T16:16:01Z</time>
      </trkpt>
      <trkpt lat="49.00763" lon="-1.57513">
        <ele>2.9454236</ele>
        <time>2015-06-03T16:16:06Z</time>
      </trkpt>
      <trkpt lat="49.00768" lon="-1.57513">
        <ele>2.9454236</ele>
        <time>2015-06-03T16:16:11Z</time>
      </trkpt>
      <trkpt lat="49.00773" lon="-1.57514">
        <ele>3.3169985</ele>
        <time>2015-06-03T16:16:16Z</time>
      </trkpt>
      <trkpt lat="49.00778" lon="-1.57514">
        <ele>3.3169985</ele>
        <time>2015-06-03T16:16:21Z</time>
      </trkpt>
      <trkpt lat="49.00784" lon="-1.57518">
        <ele>3.7670765</ele>
        <time>2015-06-03T16:16:26Z</time>
      </trkpt>
      <trkpt lat="49.00791" lon="-1.57521">
        <ele>3.7670765</ele>
        <time>2015-06-03T16:16:31Z</time>
      </trkpt>
      <trkpt lat="49.00796" lon="-1.57523">
        <ele>4.187318</ele>
        <time>2015-06-03T16:16:36Z</time>
      </trkpt>
      <trkpt lat="49.00801" lon="-1.57525">
        <ele>4.187318</ele>
        <time>2015-06-03T16:16:41Z</time>
      </trkpt>
      <trkpt lat="49.00806" lon="-1.57527">
        <ele>4.621559</ele>
        <time>2015-06-03T16:16:46Z</time>
      </trkpt>
      <trkpt lat="49.00811" lon="-1.57528">
        <ele>4.621559</ele>
        <time>2015-06-03T16:16:51Z</time>
      </trkpt>
      <trkpt lat="49.00816" lon="-1.57529">
        <ele>5.0239367</ele>
        <time>2015-06-03T16:16:56Z</time>
      </trkpt>
      <trkpt lat="49.00821" lon="-1.57531">
        <ele>5.0239367</ele>
        <time>2015-06-03T16:17:01Z</time>
      </trkpt>
      <trkpt lat="49.00828" lon="-1.57532">
        <ele>5.395308</ele>
        <time>2015-06-03T16:17:06Z</time>
      </trkpt>
      <trkpt lat="49.00834" lon="-1.57535">
        <ele>5.395308</ele>
        <time>2015-06-03T16:17:11Z</time>
      </trkpt>
      <trkpt lat="49.00837" lon="-1.57536">
        <ele>5.736586</ele>
        <time>2015-06-03T16:17:16Z</time>
      </trkpt>
      <trkpt lat="49.0084" lon="-1.57536">
        <ele>5.736586</ele>
        <time>2015-06-03T16:17:21Z</time>
      </trkpt>
      <trkpt lat="49.00845" lon="-1.57538">
        <ele>5.736586</ele>
        <time>2015-06-03T16:17:26Z</time>
      </trkpt>
      <trkpt lat="49.00852" lon="-1.5754">
        <ele>6.0343227</ele>
        <time>2015-06-03T16:17:31Z</time>
      </trkpt>
      <trkpt lat="49.00857" lon="-1.57545">
        <ele>6.0343227</ele>
        <time>2015-06-03T16:17:36Z</time>
      </trkpt>
      <trkpt lat="49.00862" lon="-1.57544">
        <ele>6.305036</ele>
        <time>2015-06-03T16:17:41Z</time>
      </trkpt>
      <trkpt lat="49.00865" lon="-1.57538">
        <ele>6.305036</ele>
        <time>2015-06-03T16:17:46Z</time>
      </trkpt>
      <trkpt lat="49.00868" lon="-1.57528">
        <ele>6.4776754</ele>
        <time>2015-06-03T16:17:51Z</time>
      </trkpt>
      <trkpt lat="49.00869" lon="-1.57519">
        <ele>6.4776754</ele>
        <time>2015-06-03T16:17:56Z</time>
      </trkpt>
      <trkpt lat="49.00869" lon="-1.57514">
        <ele>6.6596518</ele>
        <time>2015-06-03T16:18:01Z</time>
      </trkpt>
      <trkpt lat="49.0087" lon="-1.57509">
        <ele>6.6596518</ele>
        <time>2015-06-03T16:18:06Z</time>
      </trkpt>
      <trkpt lat="49.00877" lon="-1.57505">
        <ele>6.892851</ele>
        <time>2015-06-03T16:18:11Z</time>
      </trkpt>
      <trkpt lat="49.00883" lon="-1.57501">
        <ele>6.892851</ele>
        <time>2015-06-03T16:18:16Z</time>
      </trkpt>
      <trkpt lat="49.0089" lon="-1.575">
        <ele>6.9853935</ele>
        <time>2015-06-03T16:18:21Z</time>
      </trkpt>
      <trkpt lat="49.00896" lon="-1.57498">
        <ele>6.9853935</ele>
        <time>2015-06-03T16:18:26Z</time>
      </trkpt>
      <trkpt lat="49.009" lon="-1.57495">
        <ele>7.033736</ele>
        <time>2015-06-03T16:18:31Z</time>
      </trkpt>
      <trkpt lat="49.00907" lon="-1.57493">
        <ele>7.033736</ele>
        <time>2015-06-03T16:18:36Z</time>
      </trkpt>
      <trkpt lat="49.00914" lon="-1.5749">
        <ele>6.9977036</ele>
        <time>2015-06-03T16:18:41Z</time>
      </trkpt>
      <trkpt lat="49.00919" lon="-1.57489">
        <ele>6.9977036</ele>
        <time>2015-06-03T16:18:46Z</time>
      </trkpt>
      <trkpt lat="49.00927" lon="-1.57489">
        <ele>6.926806</ele>
        <time>2015-06-03T16:18:51Z</time>
      </trkpt>
      <trkpt lat="49.00933" lon="-1.5749">
        <ele>6.926806</ele>
        <time>2015-06-03T16:18:56Z</time>
      </trkpt>
      <trkpt lat="49.00939" lon="-1.5749">
        <ele>6.7805758</ele>
        <time>2015-06-03T16:19:01Z</time>
      </trkpt>
      <trkpt lat="49.00943" lon="-1.57491">
        <ele>6.7805758</ele>
        <time>2015-06-03T16:19:06Z</time>
      </trkpt>
      <trkpt lat="49.00952" lon="-1.57492">
        <ele>6.564987</ele>
        <time>2015-06-03T16:19:11Z</time>
      </trkpt>
      <trkpt lat="49.00958" lon="-1.57495">
        <ele>6.564987</ele>
        <time>2015-06-03T16:19:16Z</time>
      </trkpt>
      <trkpt lat="49.00964" lon="-1.57498">
        <ele>6.357847</ele>
        <time>2015-06-03T16:19:21Z</time>
      </trkpt>
      <trkpt lat="49.00968" lon="-1.57501">
        <ele>6.357847</ele>
        <time>2015-06-03T16:19:26Z</time>
      </trkpt>
      <trkpt lat="49.00975" lon="-1.57506">
        <ele>6.144775</ele>
        <time>2015-06-03T16:19:31Z</time>
      </trkpt>
      <trkpt lat="49.00979" lon="-1.5751">
        <ele>6.144775</ele>
        <time>2015-06-03T16:19:36Z</time>
      </trkpt>
      <trkpt lat="49.00983" lon="-1.57514">
        <ele>5.883655</ele>
        <time>2015-06-03T16:19:41Z</time>
      </trkpt>
      <trkpt lat="49.00989" lon="-1.57521">
        <ele>5.883655</ele>
        <time>2015-06-03T16:19:46Z</time>
      </trkpt>
      <trkpt lat="49.00995" lon="-1.57526">
        <ele>5.6076694</ele>
        <time>2015-06-03T16:19:51Z</time>
      </trkpt>
      <trkpt lat="49.01001" lon="-1.57532">
        <ele>5.6076694</ele>
        <time>2015-06-03T16:19:56Z</time>
      </trkpt>
      <trkpt lat="49.01007" lon="-1.57536">
        <ele>5.304377</ele>
        <time>2015-06-03T16:20:01Z</time>
      </trkpt>
      <trkpt lat="49.01013" lon="-1.5754">
        <ele>5.304377</ele>
        <time>2015-06-03T16:20:06Z</time>
      </trkpt>
      <trkpt lat="49.01019" lon="-1.57543">
        <ele>5.0055666</ele>
        <time>2015-06-03T16:20:11Z</time>
      </trkpt>
      <trkpt lat="49.01024" lon="-1.57547">
        <ele>5.0055666</ele>
        <time>2015-06-03T16:20:16Z</time>
      </trkpt>
      <trkpt lat="49.01029" lon="-1.57553">
        <ele>4.7262707</ele>
        <time>2015-06-03T16:20:21Z</time>
      </trkpt>
      <trkpt lat="49.01035" lon="-1.57559">
        <ele>4.7262707</ele>
        <time>2015-06-03T16:20:26Z</time>
      </trkpt>
      <trkpt lat="49.01039" lon="-1.57565">
        <ele>4.4659486</ele>
        <time>2015-06-03T16:20:31Z</time>
      </trkpt>
      <trkpt lat="49.01045" lon="-1.57571">
        <ele>4.4659486</ele>
        <time>2015-06-03T16:20:36Z</time>
      </trkpt>
      <trkpt lat="49.01049" lon="-1.57576">
        <ele>4.180811</ele>
        <time>2015-06-03T16:20:41Z</time>
      </trkpt>
      <trkpt lat="49.01055" lon="-1.57583">
        <ele>4.180811</ele>
        <time>2015-06-03T16:20:46Z</time>
      </trkpt>
      <trkpt lat="49.01061" lon="-1.5759">
        <ele>3.9168148</ele>
        <time>2015-06-03T16:20:51Z</time>
      </trkpt>
      <trkpt lat="49.01067" lon="-1.57595">
        <ele>3.9168148</ele>
        <time>2015-06-03T16:20:56Z</time>
      </trkpt>
      <trkpt lat="49.01072" lon="-1.57599">
        <ele>3.687651</ele>
        <time>2015-06-03T16:21:01Z</time>
      </trkpt>
      <trkpt lat="49.01077" lon="-1.57601">
        <ele>3.687651</ele>
        <time>2015-06-03T16:21:06Z</time>
      </trkpt>
      <trkpt lat="49.01084" lon="-1.57606">
        <ele>3.448253</ele>
        <time>2015-06-03T16:21:11Z</time>
      </trkpt>
      <trkpt lat="49.01089" lon="-1.5761">
        <ele>3.448253</ele>
        <time>2015-06-03T16:21:16Z</time>
      </trkpt>
      <trkpt lat="49.01095" lon="-1.57613">
        <ele>3.2433484</ele>
        <time>2015-06-03T16:21:21Z</time>
      </trkpt>
      <trkpt lat="49.01101" lon="-1.57617">
        <ele>3.2433484</ele>
        <time>2015-06-03T16:21:26Z</time>
      </trkpt>
      <trkpt lat="49.01108" lon="-1.5762">
        <ele>3.0422142</ele>
        <time>2015-06-03T16:21:31Z</time>
      </trkpt>
      <trkpt lat="49.01114" lon="-1.57624">
        <ele>3.0422142</ele>
        <time>2015-06-03T16:21:36Z</time>
      </trkpt>
      <trkpt lat="49.01119" lon="-1.57629">
        <ele>2.8740041</ele>
        <time>2015-06-03T16:21:41Z</time>
      </trkpt>
      <trkpt lat="49.01125" lon="-1.57634">
        <ele>2.8740041</ele>
        <time>2015-06-03T16:21:46Z</time>
      </trkpt>
      <trkpt lat="49.0113" lon="-1.57637">
        <ele>2.7512126</ele>
        <time>2015-06-03T16:21:51Z</time>
      </trkpt>
      <trkpt lat="49.01136" lon="-1.57641">
        <ele>2.7512126</ele>
        <time>2015-06-03T16:21:56Z</time>
      </trkpt>
      <trkpt lat="49.01141" lon="-1.57647">
        <ele>2.6420403</ele>
        <time>2015-06-03T16:22:01Z</time>
      </trkpt>
      <trkpt lat="49.01146" lon="-1.57654">
        <ele>2.6420403</ele>
        <time>2015-06-03T16:22:06Z</time>
      </trkpt>
      <trkpt lat="49.01151" lon="-1.57661">
        <ele>2.5890265</ele>
        <time>2015-06-03T16:22:11Z</time>
      </trkpt>
      <trkpt lat="49.01157" lon="-1.57665">
        <ele>2.5890265</ele>
        <time>2015-06-03T16:22:16Z</time>
      </trkpt>
      <trkpt lat="49.01162" lon="-1.5767">
        <ele>2.573769</ele>
        <time>2015-06-03T16:22:21Z</time>
      </trkpt>
      <trkpt lat="49.01167" lon="-1.57673">
        <ele>2.573769</ele>
        <time>2015-06-03T16:22:26Z</time>
      </trkpt>
      <trkpt lat="49.01173" lon="-1.57678">
        <ele>2.5214536</ele>
        <time>2015-06-03T16:22:31Z</time>
      </trkpt>
      <trkpt lat="49.01179" lon="-1.5768">
        <ele>2.5214536</ele>
        <time>2015-06-03T16:22:36Z</time>
      </trkpt>
      <trkpt lat="49.01185" lon="-1.57685">
        <ele>2.4349074</ele>
        <time>2015-06-03T16:22:41Z</time>
      </trkpt>
      <trkpt lat="49.0119" lon="-1.57687">
        <ele>2.4349074</ele>
        <time>2015-06-03T16:22:46Z</time>
      </trkpt>
      <trkpt lat="49.01196" lon="-1.57691">
        <ele>2.3168333</ele>
        <time>2015-06-03T16:22:51Z</time>
      </trkpt>
      <trkpt lat="49.01203" lon="-1.57696">
        <ele>2.3168333</ele>
        <time>2015-06-03T16:22:56Z</time>
      </trkpt>
      <trkpt lat="49.01209" lon="-1.57698">
        <ele>2.1409898</ele>
        <time>2015-06-03T16:23:01Z</time>
      </trkpt>
      <trkpt lat="49.01215" lon="-1.57701">
        <ele>2.1409898</ele>
        <time>2015-06-03T16:23:06Z</time>
      </trkpt>
      <trkpt lat="49.0122" lon="-1.57704">
        <ele>1.9552683</ele>
        <time>2015-06-03T16:23:11Z</time>
      </trkpt>
      <trkpt lat="49.01224" lon="-1.57705">
        <ele>1.9552683</ele>
        <time>2015-06-03T16:23:16Z</time>
      </trkpt>
      <trkpt lat="49.01232" lon="-1.5771">
        <ele>1.7608238</ele>
        <time>2015-06-03T16:23:21Z</time>
      </trkpt>
      <trkpt lat="49.01239" lon="-1.57713">
        <ele>1.7608238</ele>
        <time>2015-06-03T16:23:26Z</time>
      </trkpt>
      <trkpt lat="49.01245" lon="-1.57717">
        <ele>1.6163836</ele>
        <time>2015-06-03T16:23:31Z</time>
      </trkpt>
      <trkpt lat="49.0125" lon="-1.5772">
        <ele>1.6163836</ele>
        <time>2015-06-03T16:23:36Z</time>
      </trkpt>
      <trkpt lat="49.01256" lon="-1.57725">
        <ele>1.4753293</ele>
        <time>2015-06-03T16:23:41Z</time>
      </trkpt>
      <trkpt lat="49.01262" lon="-1.57727">
        <ele>1.4753293</ele>
        <time>2015-06-03T16:23:46Z</time>
      </trkpt>
      <trkpt lat="49.01268" lon="-1.57729">
        <ele>1.3376784</ele>
        <time>2015-06-03T16:23:51Z</time>
      </trkpt>
      <trkpt lat="49.01274" lon="-1.57731">
        <ele>1.3376784</ele>
        <time>2015-06-03T16:23:56Z</time>
      </trkpt>
      <trkpt lat="49.01281" lon="-1.57734">
        <ele>1.2322476</ele>
        <time>2015-06-03T16:24:01Z</time>
      </trkpt>
      <trkpt lat="49.01287" lon="-1.57739">
        <ele>1.2322476</ele>
        <time>2015-06-03T16:24:06Z</time>
      </trkpt>
      <trkpt lat="49.01291" lon="-1.57743">
        <ele>1.1712224</ele>
        <time>2015-06-03T16:24:11Z</time>
      </trkpt>
      <trkpt lat="49.01298" lon="-1.57749">
        <ele>1.1712224</ele>
        <time>2015-06-03T16:24:16Z</time>
      </trkpt>
      <trkpt lat="49.01303" lon="-1.57755">
        <ele>1.1225238</ele>
        <time>2015-06-03T16:24:21Z</time>
      </trkpt>
      <trkpt lat="49.01308" lon="-1.57761">
        <ele>1.1225238</ele>
        <time>2015-06-03T16:24:26Z</time>
      </trkpt>
      <trkpt lat="49.01313" lon="-1.57767">
        <ele>1.1140283</ele>
        <time>2015-06-03T16:24:31Z</time>
      </trkpt>
      <trkpt lat="49.01318" lon="-1.57774">
        <ele>1.1140283</ele>
        <time>2015-06-03T16:24:36Z</time>
      </trkpt>
      <trkpt lat="49.01324" lon="-1.57779">
        <ele>1.1426197</ele>
        <time>2015-06-03T16:24:41Z</time>
      </trkpt>
      <trkpt lat="49.01328" lon="-1.57779">
        <ele>1.1426197</ele>
        <time>2015-06-03T16:24:46Z</time>
      </trkpt>
      <trkpt lat="49.01334" lon="-1.57781">
        <ele>1.1908871</ele>
        <time>2015-06-03T16:24:51Z</time>
      </trkpt>
      <trkpt lat="49.0134" lon="-1.57785">
        <ele>1.1908871</ele>
        <time>2015-06-03T16:24:56Z</time>
      </trkpt>
      <trkpt lat="49.01346" lon="-1.57789">
        <ele>1.2858692</ele>
        <time>2015-06-03T16:25:01Z</time>
      </trkpt>
      <trkpt lat="49.01352" lon="-1.57793">
        <ele>1.2858692</ele>
        <time>2015-06-03T16:25:06Z</time>
      </trkpt>
      <trkpt lat="49.01358" lon="-1.57796">
        <ele>1.4380713</ele>
        <time>2015-06-03T16:25:11Z</time>
      </trkpt>
      <trkpt lat="49.01364" lon="-1.57799">
        <ele>1.4380713</ele>
        <time>2015-06-03T16:25:16Z</time>
      </trkpt>
      <trkpt lat="49.01369" lon="-1.57802">
        <ele>1.5994178</ele>
        <time>2015-06-03T16:25:21Z</time>
      </trkpt>
      <trkpt lat="49.01376" lon="-1.57806">
        <ele>1.5994178</ele>
        <time>2015-06-03T16:25:26Z</time>
      </trkpt>
      <trkpt lat="49.01381" lon="-1.57807">
        <ele>1.7541604</ele>
        <time>2015-06-03T16:25:31Z</time>
      </trkpt>
      <trkpt lat="49.01388" lon="-1.57813">
        <ele>1.7541604</ele>
        <time>2015-06-03T16:25:36Z</time>
      </trkpt>
      <trkpt lat="49.01394" lon="-1.57817">
        <ele>1.9021372</ele>
        <time>2015-06-03T16:25:41Z</time>
      </trkpt>
      <trkpt lat="49.01399" lon="-1.5782">
        <ele>1.9021372</ele>
        <time>2015-06-03T16:25:46Z</time>
      </trkpt>
      <trkpt lat="49.01405" lon="-1.57823">
        <ele>2.0432193</ele>
        <time>2015-06-03T16:25:51Z</time>
      </trkpt>
      <trkpt lat="49.01411" lon="-1.57826">
        <ele>2.0432193</ele>
        <time>2015-06-03T16:25:56Z</time>
      </trkpt>
      <trkpt lat="49.01417" lon="-1.5783">
        <ele>2.177311</ele>
        <time>2015-06-03T16:26:01Z</time>
      </trkpt>
      <trkpt lat="49.01422" lon="-1.57833">
        <ele>2.177311</ele>
        <time>2015-06-03T16:26:06Z</time>
      </trkpt>
      <trkpt lat="49.01429" lon="-1.57835">
        <ele>2.3475819</ele>
        <time>2015-06-03T16:26:11Z</time>
      </trkpt>
      <trkpt lat="49.01434" lon="-1.57838">
        <ele>2.3475819</ele>
        <time>2015-06-03T16:26:16Z</time>
      </trkpt>
      <trkpt lat="49.0144" lon="-1.57841">
        <ele>2.5362914</ele>
        <time>2015-06-03T16:26:21Z</time>
      </trkpt>
      <trkpt lat="49.01449" lon="-1.57846">
        <ele>2.5362914</ele>
        <time>2015-06-03T16:26:26Z</time>
      </trkpt>
      <trkpt lat="49.01455" lon="-1.57849">
        <ele>2.7269595</ele>
        <time>2015-06-03T16:26:31Z</time>
      </trkpt>
      <trkpt lat="49.01461" lon="-1.57852">
        <ele>2.7269595</ele>
        <time>2015-06-03T16:26:36Z</time>
      </trkpt>
      <trkpt lat="49.01466" lon="-1.57854">
        <ele>2.9043205</ele>
        <time>2015-06-03T16:26:41Z</time>
      </trkpt>
      <trkpt lat="49.01474" lon="-1.57855">
        <ele>2.9043205</ele>
        <time>2015-06-03T16:26:46Z</time>
      </trkpt>
      <trkpt lat="49.0148" lon="-1.57852">
        <ele>3.025457</ele>
        <time>2015-06-03T16:26:51Z</time>
      </trkpt>
      <trkpt lat="49.01486" lon="-1.5785">
        <ele>3.025457</ele>
        <time>2015-06-03T16:26:56Z</time>
      </trkpt>
      <trkpt lat="49.01486" lon="-1.57849">
        <ele>3.025457</ele>
        <time>2015-06-03T16:27:01Z</time>
      </trkpt>
      <trkpt lat="49.01487" lon="-1.57844">
        <ele>3.0795953</ele>
        <time>2015-06-03T16:27:06Z</time>
      </trkpt>
      <trkpt lat="49.01489" lon="-1.57843">
        <ele>3.0795953</ele>
        <time>2015-06-03T16:27:11Z</time>
      </trkpt>
      <trkpt lat="49.01494" lon="-1.5784">
        <ele>3.0795953</ele>
        <time>2015-06-03T16:27:16Z</time>
      </trkpt>
      <trkpt lat="49.01498" lon="-1.57837">
        <ele>2.984899</ele>
        <time>2015-06-03T16:27:21Z</time>
      </trkpt>
      <trkpt lat="49.01505" lon="-1.57833">
        <ele>2.984899</ele>
        <time>2015-06-03T16:27:26Z</time>
      </trkpt>
      <trkpt lat="49.01509" lon="-1.57827">
        <ele>2.8821392</ele>
        <time>2015-06-03T16:27:31Z</time>
      </trkpt>
      <trkpt lat="49.01517" lon="-1.57824">
        <ele>2.8821392</ele>
        <time>2015-06-03T16:27:36Z</time>
      </trkpt>
      <trkpt lat="49.01523" lon="-1.57822">
        <ele>2.786491</ele>
        <time>2015-06-03T16:27:41Z</time>
      </trkpt>
      <trkpt lat="49.01529" lon="-1.57822">
        <ele>2.786491</ele>
        <time>2015-06-03T16:27:46Z</time>
      </trkpt>
      <trkpt lat="49.01536" lon="-1.57821">
        <ele>2.697594</ele>
        <time>2015-06-03T16:27:51Z</time>
      </trkpt>
      <trkpt lat="49.01543" lon="-1.57821">
        <ele>2.697594</ele>
        <time>2015-06-03T16:27:56Z</time>
      </trkpt>
      <trkpt lat="49.01548" lon="-1.5782">
        <ele>2.6151042</ele>
        <time>2015-06-03T16:28:01Z</time>
      </trkpt>
      <trkpt lat="49.01555" lon="-1.57817">
        <ele>2.6151042</ele>
        <time>2015-06-03T16:28:06Z</time>
      </trkpt>
      <trkpt lat="49.0156" lon="-1.57816">
        <ele>2.5531042</ele>
        <time>2015-06-03T16:28:11Z</time>
      </trkpt>
      <trkpt lat="49.01567" lon="-1.57815">
        <ele>2.5531042</ele>
        <time>2015-06-03T16:28:16Z</time>
      </trkpt>
      <trkpt lat="49.01572" lon="-1.57811">
        <ele>2.495769</ele>
        <time>2015-06-03T16:28:21Z</time>
      </trkpt>
      <trkpt lat="49.01577" lon="-1.57807">
        <ele>2.495769</ele>
        <time>2015-06-03T16:28:26Z</time>
      </trkpt>
      <trkpt lat="49.01582" lon="-1.57805">
        <ele>2.4716625</ele>
        <time>2015-06-03T16:28:31Z</time>
      </trkpt>
      <trkpt lat="49.01588" lon="-1.57802">
        <ele>2.4716625</ele>
        <time>2015-06-03T16:28:36Z</time>
      </trkpt>
      <trkpt lat="49.01595" lon="-1.578">
        <ele>2.463929</ele>
        <time>2015-06-03T16:28:41Z</time>
      </trkpt>
      <trkpt lat="49.01598" lon="-1.57798">
        <ele>2.463929</ele>
        <time>2015-06-03T16:28:46Z</time>
      </trkpt>
      <trkpt lat="49.01599" lon="-1.57798">
        <ele>2.463929</ele>
        <time>2015-06-03T16:28:51Z</time>
      </trkpt>
      <trkpt lat="49.01605" lon="-1.57796">
        <ele>2.6010218</ele>
        <time>2015-06-03T16:28:56Z</time>
      </trkpt>
      <trkpt lat="49.0161" lon="-1.57793">
        <ele>2.6010218</ele>
        <time>2015-06-03T16:29:01Z</time>
      </trkpt>
      <trkpt lat="49.01615" lon="-1.5779">
        <ele>2.742157</ele>
        <time>2015-06-03T16:29:06Z</time>
      </trkpt>
      <trkpt lat="49.01622" lon="-1.5779">
        <ele>2.742157</ele>
        <time>2015-06-03T16:29:11Z</time>
      </trkpt>
      <trkpt lat="49.01628" lon="-1.57791">
        <ele>2.9298198</ele>
        <time>2015-06-03T16:29:16Z</time>
      </trkpt>
      <trkpt lat="49.01635" lon="-1.57791">
        <ele>2.9298198</ele>
        <time>2015-06-03T16:29:21Z</time>
      </trkpt>
      <trkpt lat="49.01641" lon="-1.57792">
        <ele>3.116785</ele>
        <time>2015-06-03T16:29:26Z</time>
      </trkpt>
      <trkpt lat="49.01648" lon="-1.57792">
        <ele>3.116785</ele>
        <time>2015-06-03T16:29:31Z</time>
      </trkpt>
      <trkpt lat="49.01655" lon="-1.5779">
        <ele>3.3025389</ele>
        <time>2015-06-03T16:29:36Z</time>
      </trkpt>
      <trkpt lat="49.01661" lon="-1.57788">
        <ele>3.3025389</ele>
        <time>2015-06-03T16:29:41Z</time>
      </trkpt>
      <trkpt lat="49.01666" lon="-1.57789">
        <ele>3.4577956</ele>
        <time>2015-06-03T16:29:46Z</time>
      </trkpt>
      <trkpt lat="49.01673" lon="-1.57788">
        <ele>3.4577956</ele>
        <time>2015-06-03T16:29:51Z</time>
      </trkpt>
      <trkpt lat="49.01679" lon="-1.57789">
        <ele>3.6419823</ele>
        <time>2015-06-03T16:29:56Z</time>
      </trkpt>
      <trkpt lat="49.01685" lon="-1.5779">
        <ele>3.6419823</ele>
        <time>2015-06-03T16:30:01Z</time>
      </trkpt>
      <trkpt lat="49.01691" lon="-1.57789">
        <ele>3.823624</ele>
        <time>2015-06-03T16:30:06Z</time>
      </trkpt>
      <trkpt lat="49.01697" lon="-1.57786">
        <ele>3.823624</ele>
        <time>2015-06-03T16:30:11Z</time>
      </trkpt>
      <trkpt lat="49.01703" lon="-1.57782">
        <ele>3.9879863</ele>
        <time>2015-06-03T16:30:16Z</time>
      </trkpt>
      <trkpt lat="49.01708" lon="-1.57778">
        <ele>3.9879863</ele>
        <time>2015-06-03T16:30:21Z</time>
      </trkpt>
      <trkpt lat="49.01712" lon="-1.57774">
        <ele>4.1214786</ele>
        <time>2015-06-03T16:30:26Z</time>
      </trkpt>
      <trkpt lat="49.01718" lon="-1.57771">
        <ele>4.1214786</ele>
        <time>2015-06-03T16:30:31Z</time>
      </trkpt>
      <trkpt lat="49.01723" lon="-1.57766">
        <ele>4.2116065</ele>
        <time>2015-06-03T16:30:36Z</time>
      </trkpt>
      <trkpt lat="49.01727" lon="-1.5776">
        <ele>4.2116065</ele>
        <time>2015-06-03T16:30:41Z</time>
      </trkpt>
      <trkpt lat="49.01732" lon="-1.57753">
        <ele>4.2613397</ele>
        <time>2015-06-03T16:30:46Z</time>
      </trkpt>
      <trkpt lat="49.01737" lon="-1.57747">
        <ele>4.2613397</ele>
        <time>2015-06-03T16:30:51Z</time>
      </trkpt>
      <trkpt lat="49.01741" lon="-1.57739">
        <ele>4.2591414</ele>
        <time>2015-06-03T16:30:56Z</time>
      </trkpt>
      <trkpt lat="49.01746" lon="-1.57735">
        <ele>4.2591414</ele>
        <time>2015-06-03T16:31:01Z</time>
      </trkpt>
      <trkpt lat="49.0175" lon="-1.57729">
        <ele>4.194482</ele>
        <time>2015-06-03T16:31:06Z</time>
      </trkpt>
      <trkpt lat="49.01756" lon="-1.57725">
        <ele>4.194482</ele>
        <time>2015-06-03T16:31:11Z</time>
      </trkpt>
      <trkpt lat="49.01761" lon="-1.57721">
        <ele>4.187489</ele>
        <time>2015-06-03T16:31:16Z</time>
      </trkpt>
      <trkpt lat="49.01765" lon="-1.57716">
        <ele>4.187489</ele>
        <time>2015-06-03T16:31:21Z</time>
      </trkpt>
      <trkpt lat="49.01771" lon="-1.57709">
        <ele>4.161969</ele>
        <time>2015-06-03T16:31:26Z</time>
      </trkpt>
      <trkpt lat="49.01776" lon="-1.57701">
        <ele>4.161969</ele>
        <time>2015-06-03T16:31:31Z</time>
      </trkpt>
      <trkpt lat="49.01779" lon="-1.57697">
        <ele>4.133853</ele>
        <time>2015-06-03T16:31:36Z</time>
      </trkpt>
      <trkpt lat="49.01784" lon="-1.57691">
        <ele>4.133853</ele>
        <time>2015-06-03T16:31:41Z</time>
      </trkpt>
      <trkpt lat="49.01791" lon="-1.57686">
        <ele>4.117914</ele>
        <time>2015-06-03T16:31:46Z</time>
      </trkpt>
      <trkpt lat="49.01796" lon="-1.57683">
        <ele>4.117914</ele>
        <time>2015-06-03T16:31:51Z</time>
      </trkpt>
      <trkpt lat="49.01802" lon="-1.57676">
        <ele>4.0557585</ele>
        <time>2015-06-03T16:31:56Z</time>
      </trkpt>
      <trkpt lat="49.01807" lon="-1.57674">
        <ele>4.0557585</ele>
        <time>2015-06-03T16:32:01Z</time>
      </trkpt>
      <trkpt lat="49.01814" lon="-1.57673">
        <ele>4.008703</ele>
        <time>2015-06-03T16:32:06Z</time>
      </trkpt>
      <trkpt lat="49.0182" lon="-1.57672">
        <ele>4.008703</ele>
        <time>2015-06-03T16:32:11Z</time>
      </trkpt>
      <trkpt lat="49.01827" lon="-1.57672">
        <ele>3.9902909</ele>
        <time>2015-06-03T16:32:16Z</time>
      </trkpt>
      <trkpt lat="49.01832" lon="-1.57669">
        <ele>3.9902909</ele>
        <time>2015-06-03T16:32:21Z</time>
      </trkpt>
      <trkpt lat="49.01838" lon="-1.57667">
        <ele>4.0418134</ele>
        <time>2015-06-03T16:32:26Z</time>
      </trkpt>
      <trkpt lat="49.01843" lon="-1.57672">
        <ele>4.0418134</ele>
        <time>2015-06-03T16:32:31Z</time>
      </trkpt>
      <trkpt lat="49.01849" lon="-1.5768">
        <ele>4.1004577</ele>
        <time>2015-06-03T16:32:36Z</time>
      </trkpt>
      <trkpt lat="49.01854" lon="-1.57685">
        <ele>4.1004577</ele>
        <time>2015-06-03T16:32:41Z</time>
      </trkpt>
      <trkpt lat="49.01859" lon="-1.57687">
        <ele>4.208885</ele>
        <time>2015-06-03T16:32:46Z</time>
      </trkpt>
      <trkpt lat="49.01865" lon="-1.57692">
        <ele>4.208885</ele>
        <time>2015-06-03T16:32:51Z</time>
      </trkpt>
      <trkpt lat="49.0187" lon="-1.57696">
        <ele>4.305608</ele>
        <time>2015-06-03T16:32:56Z</time>
      </trkpt>
      <trkpt lat="49.01876" lon="-1.577">
        <ele>4.305608</ele>
        <time>2015-06-03T16:33:01Z</time>
      </trkpt>
      <trkpt lat="49.01882" lon="-1.57705">
        <ele>4.3625126</ele>
        <time>2015-06-03T16:33:06Z</time>
      </trkpt>
      <trkpt lat="49.01888" lon="-1.57708">
        <ele>4.3625126</ele>
        <time>2015-06-03T16:33:11Z</time>
      </trkpt>
      <trkpt lat="49.01894" lon="-1.57712">
        <ele>4.42572</ele>
        <time>2015-06-03T16:33:16Z</time>
      </trkpt>
      <trkpt lat="49.019" lon="-1.57715">
        <ele>4.42572</ele>
        <time>2015-06-03T16:33:21Z</time>
      </trkpt>
      <trkpt lat="49.01906" lon="-1.5772">
        <ele>4.4947157</ele>
        <time>2015-06-03T16:33:26Z</time>
      </trkpt>
      <trkpt lat="49.01912" lon="-1.57725">
        <ele>4.4947157</ele>
        <time>2015-06-03T16:33:31Z</time>
      </trkpt>
      <trkpt lat="49.01918" lon="-1.57729">
        <ele>4.5257745</ele>
        <time>2015-06-03T16:33:36Z</time>
      </trkpt>
      <trkpt lat="49.01924" lon="-1.57731">
        <ele>4.5257745</ele>
        <time>2015-06-03T16:33:41Z</time>
      </trkpt>
      <trkpt lat="49.01928" lon="-1.57734">
        <ele>4.550548</ele>
        <time>2015-06-03T16:33:46Z</time>
      </trkpt>
      <trkpt lat="49.01937" lon="-1.57738">
        <ele>4.5839725</ele>
        <time>2015-06-03T16:33:51Z</time>
      </trkpt>
      <trkpt lat="49.01942" lon="-1.57741">
        <ele>4.5839725</ele>
        <time>2015-06-03T16:33:56Z</time>
      </trkpt>
      <trkpt lat="49.01949" lon="-1.57747">
        <ele>4.5822186</ele>
        <time>2015-06-03T16:34:01Z</time>
      </trkpt>
      <trkpt lat="49.01955" lon="-1.57753">
        <ele>4.5822186</ele>
        <time>2015-06-03T16:34:06Z</time>
      </trkpt>
      <trkpt lat="49.01961" lon="-1.57757">
        <ele>4.6344776</ele>
        <time>2015-06-03T16:34:11Z</time>
      </trkpt>
      <trkpt lat="49.01967" lon="-1.57762">
        <ele>4.6344776</ele>
        <time>2015-06-03T16:34:16Z</time>
      </trkpt>
      <trkpt lat="49.01972" lon="-1.57766">
        <ele>4.6935387</ele>
        <time>2015-06-03T16:34:21Z</time>
      </trkpt>
      <trkpt lat="49.01978" lon="-1.57769">
        <ele>4.6935387</ele>
        <time>2015-06-03T16:34:26Z</time>
      </trkpt>
      <trkpt lat="49.01985" lon="-1.57775">
        <ele>4.7588744</ele>
        <time>2015-06-03T16:34:31Z</time>
      </trkpt>
      <trkpt lat="49.01989" lon="-1.57778">
        <ele>4.7588744</ele>
        <time>2015-06-03T16:34:36Z</time>
      </trkpt>
      <trkpt lat="49.01996" lon="-1.57782">
        <ele>4.757923</ele>
        <time>2015-06-03T16:34:41Z</time>
      </trkpt>
      <trkpt lat="49.02002" lon="-1.57785">
        <ele>4.757923</ele>
        <time>2015-06-03T16:34:46Z</time>
      </trkpt>
      <trkpt lat="49.02008" lon="-1.57788">
        <ele>4.7533417</ele>
        <time>2015-06-03T16:34:51Z</time>
      </trkpt>
      <trkpt lat="49.02011" lon="-1.57789">
        <ele>4.7533417</ele>
        <time>2015-06-03T16:34:56Z</time>
      </trkpt>
      <trkpt lat="49.02019" lon="-1.57793">
        <ele>4.7599597</ele>
        <time>2015-06-03T16:35:01Z</time>
      </trkpt>
      <trkpt lat="49.02025" lon="-1.57795">
        <ele>4.7599597</ele>
        <time>2015-06-03T16:35:06Z</time>
      </trkpt>
      <trkpt lat="49.02033" lon="-1.57795">
        <ele>4.7482543</ele>
        <time>2015-06-03T16:35:11Z</time>
      </trkpt>
      <trkpt lat="49.02039" lon="-1.57796">
        <ele>4.7482543</ele>
        <time>2015-06-03T16:35:16Z</time>
      </trkpt>
      <trkpt lat="49.02046" lon="-1.57797">
        <ele>4.7773886</ele>
        <time>2015-06-03T16:35:21Z</time>
      </trkpt>
      <trkpt lat="49.02051" lon="-1.57795">
        <ele>4.7773886</ele>
        <time>2015-06-03T16:35:26Z</time>
      </trkpt>
      <trkpt lat="49.02054" lon="-1.5779">
        <ele>4.772364</ele>
        <time>2015-06-03T16:35:31Z</time>
      </trkpt>
      <trkpt lat="49.02055" lon="-1.57787">
        <ele>4.772364</ele>
        <time>2015-06-03T16:35:36Z</time>
      </trkpt>
      <trkpt lat="49.02057" lon="-1.57784">
        <ele>4.772364</ele>
        <time>2015-06-03T16:35:41Z</time>
      </trkpt>
      <trkpt lat="49.02057" lon="-1.57786">
        <ele>4.772364</ele>
        <time>2015-06-03T16:35:46Z</time>
      </trkpt>
      <trkpt lat="49.02057" lon="-1.57786">
        <ele>4.772364</ele>
        <time>2015-06-03T16:35:51Z</time>
      </trkpt>
      <trkpt lat="49.02058" lon="-1.57784">
        <ele>4.772364</ele>
        <time>2015-06-03T16:35:56Z</time>
      </trkpt>
      <trkpt lat="49.02058" lon="-1.57778">
        <ele>4.779075</ele>
        <time>2015-06-03T16:36:01Z</time>
      </trkpt>
      <trkpt lat="49.02059" lon="-1.57772">
        <ele>4.779075</ele>
        <time>2015-06-03T16:36:06Z</time>
      </trkpt>
      <trkpt lat="49.02063" lon="-1.57765">
        <ele>4.7823668</ele>
        <time>2015-06-03T16:36:11Z</time>
      </trkpt>
      <trkpt lat="49.02067" lon="-1.5776">
        <ele>4.7823668</ele>
        <time>2015-06-03T16:36:16Z</time>
      </trkpt>
      <trkpt lat="49.02072" lon="-1.57753">
        <ele>4.7393827</ele>
        <time>2015-06-03T16:36:21Z</time>
      </trkpt>
      <trkpt lat="49.02076" lon="-1.57747">
        <ele>4.7393827</ele>
        <time>2015-06-03T16:36:26Z</time>
      </trkpt>
      <trkpt lat="49.0208" lon="-1.5774">
        <ele>4.682598</ele>
        <time>2015-06-03T16:36:31Z</time>
      </trkpt>
      <trkpt lat="49.02084" lon="-1.57733">
        <ele>4.682598</ele>
        <time>2015-06-03T16:36:36Z</time>
      </trkpt>
      <trkpt lat="49.02089" lon="-1.57727">
        <ele>4.6421385</ele>
        <time>2015-06-03T16:36:41Z</time>
      </trkpt>
      <trkpt lat="49.02092" lon="-1.5772">
        <ele>4.6421385</ele>
        <time>2015-06-03T16:36:46Z</time>
      </trkpt>
      <trkpt lat="49.02095" lon="-1.57712">
        <ele>4.573812</ele>
        <time>2015-06-03T16:36:51Z</time>
      </trkpt>
      <trkpt lat="49.02098" lon="-1.57704">
        <ele>4.573812</ele>
        <time>2015-06-03T16:36:56Z</time>
      </trkpt>
      <trkpt lat="49.021" lon="-1.57696">
        <ele>4.5376263</ele>
        <time>2015-06-03T16:37:01Z</time>
      </trkpt>
      <trkpt lat="49.02103" lon="-1.57686">
        <ele>4.5376263</ele>
        <time>2015-06-03T16:37:06Z</time>
      </trkpt>
      <trkpt lat="49.02106" lon="-1.57678">
        <ele>4.473796</ele>
        <time>2015-06-03T16:37:11Z</time>
      </trkpt>
      <trkpt lat="49.02109" lon="-1.57671">
        <ele>4.473796</ele>
        <time>2015-06-03T16:37:16Z</time>
      </trkpt>
      <trkpt lat="49.02112" lon="-1.57663">
        <ele>4.4567013</ele>
        <time>2015-06-03T16:37:21Z</time>
      </trkpt>
      <trkpt lat="49.02114" lon="-1.57657">
        <ele>4.4567013</ele>
        <time>2015-06-03T16:37:26Z</time>
      </trkpt>
      <trkpt lat="49.02115" lon="-1.5765">
        <ele>4.5551233</ele>
        <time>2015-06-03T16:37:31Z</time>
      </trkpt>
      <trkpt lat="49.02118" lon="-1.5764">
        <ele>4.5551233</ele>
        <time>2015-06-03T16:37:36Z</time>
      </trkpt>
      <trkpt lat="49.02122" lon="-1.5763">
        <ele>4.645116</ele>
        <time>2015-06-03T16:37:41Z</time>
      </trkpt>
      <trkpt lat="49.02126" lon="-1.57623">
        <ele>4.645116</ele>
        <time>2015-06-03T16:37:46Z</time>
      </trkpt>
      <trkpt lat="49.0213" lon="-1.57616">
        <ele>4.6550913</ele>
        <time>2015-06-03T16:37:51Z</time>
      </trkpt>
      <trkpt lat="49.02134" lon="-1.5761">
        <ele>4.6550913</ele>
        <time>2015-06-03T16:37:56Z</time>
      </trkpt>
      <trkpt lat="49.02139" lon="-1.57602">
        <ele>4.648641</ele>
        <time>2015-06-03T16:38:01Z</time>
      </trkpt>
      <trkpt lat="49.02142" lon="-1.57595">
        <ele>4.648641</ele>
        <time>2015-06-03T16:38:06Z</time>
      </trkpt>
      <trkpt lat="49.02144" lon="-1.57589">
        <ele>4.6126723</ele>
        <time>2015-06-03T16:38:11Z</time>
      </trkpt>
      <trkpt lat="49.02148" lon="-1.57583">
        <ele>4.6126723</ele>
        <time>2015-06-03T16:38:16Z</time>
      </trkpt>
      <trkpt lat="49.02151" lon="-1.57575">
        <ele>4.5783653</ele>
        <time>2015-06-03T16:38:21Z</time>
      </trkpt>
      <trkpt lat="49.02154" lon="-1.57566">
        <ele>4.5783653</ele>
        <time>2015-06-03T16:38:26Z</time>
      </trkpt>
      <trkpt lat="49.02157" lon="-1.57559">
        <ele>4.560191</ele>
        <time>2015-06-03T16:38:31Z</time>
      </trkpt>
      <trkpt lat="49.02159" lon="-1.5755">
        <ele>4.560191</ele>
        <time>2015-06-03T16:38:36Z</time>
      </trkpt>
      <trkpt lat="49.0216" lon="-1.57541">
        <ele>4.600331</ele>
        <time>2015-06-03T16:38:41Z</time>
      </trkpt>
      <trkpt lat="49.02162" lon="-1.57534">
        <ele>4.600331</ele>
        <time>2015-06-03T16:38:46Z</time>
      </trkpt>
      <trkpt lat="49.02165" lon="-1.57527">
        <ele>4.62241</ele>
        <time>2015-06-03T16:38:51Z</time>
      </trkpt>
      <trkpt lat="49.02171" lon="-1.5752">
        <ele>4.62241</ele>
        <time>2015-06-03T16:38:56Z</time>
      </trkpt>
      <trkpt lat="49.02177" lon="-1.57515">
        <ele>4.5701227</ele>
        <time>2015-06-03T16:39:01Z</time>
      </trkpt>
      <trkpt lat="49.02183" lon="-1.57511">
        <ele>4.5701227</ele>
        <time>2015-06-03T16:39:06Z</time>
      </trkpt>
      <trkpt lat="49.02188" lon="-1.57507">
        <ele>4.4779706</ele>
        <time>2015-06-03T16:39:11Z</time>
      </trkpt>
      <trkpt lat="49.02194" lon="-1.57503">
        <ele>4.4779706</ele>
        <time>2015-06-03T16:39:16Z</time>
      </trkpt>
      <trkpt lat="49.022" lon="-1.57498">
        <ele>4.3492064</ele>
        <time>2015-06-03T16:39:21Z</time>
      </trkpt>
      <trkpt lat="49.02205" lon="-1.57495">
        <ele>4.3492064</ele>
        <time>2015-06-03T16:39:26Z</time>
      </trkpt>
      <trkpt lat="49.02206" lon="-1.57494">
        <ele>4.3492064</ele>
        <time>2015-06-03T16:39:31Z</time>
      </trkpt>
      <trkpt lat="49.02207" lon="-1.57495">
        <ele>4.3492064</ele>
        <time>2015-06-03T16:39:36Z</time>
      </trkpt>
      <trkpt lat="49.02208" lon="-1.57494">
        <ele>4.17253</ele>
        <time>2015-06-03T16:39:41Z</time>
      </trkpt>
      <trkpt lat="49.0221" lon="-1.57498">
        <ele>4.17253</ele>
        <time>2015-06-03T16:39:46Z</time>
      </trkpt>
      <trkpt lat="49.02207" lon="-1.57496">
        <ele>4.17253</ele>
        <time>2015-06-03T16:39:51Z</time>
      </trkpt>
      <trkpt lat="49.02206" lon="-1.57497">
        <ele>4.17253</ele>
        <time>2015-06-03T16:39:56Z</time>
      </trkpt>
      <trkpt lat="49.02206" lon="-1.57498">
        <ele>4.17253</ele>
        <time>2015-06-03T16:40:01Z</time>
      </trkpt>
      <trkpt lat="49.02207" lon="-1.57498">
        <ele>4.17253</ele>
        <time>2015-06-03T16:40:06Z</time>
      </trkpt>
      <trkpt lat="49.02207" lon="-1.57498">
        <ele>4.17253</ele>
        <time>2015-06-03T16:40:11Z</time>
      </trkpt>
      <trkpt lat="49.02207" lon="-1.57497">
        <ele>3.9808342</ele>
        <time>2015-06-03T16:40:16Z</time>
      </trkpt>
      <trkpt lat="49.02207" lon="-1.57497">
        <ele>3.9808342</ele>
        <time>2015-06-03T16:40:21Z</time>
      </trkpt>
      <trkpt lat="49.02208" lon="-1.57497">
        <ele>3.9808342</ele>
        <time>2015-06-03T16:40:26Z</time>
      </trkpt>
      <trkpt lat="49.02207" lon="-1.57497">
        <ele>3.9808342</ele>
        <time>2015-06-03T16:40:31Z</time>
      </trkpt>
      <trkpt lat="49.02208" lon="-1.57496">
        <ele>3.9808342</ele>
        <time>2015-06-03T16:40:36Z</time>
      </trkpt>
      <trkpt lat="49.02207" lon="-1.57495">
        <ele>3.9808342</ele>
        <time>2015-06-03T16:40:41Z</time>
      </trkpt>
      <trkpt lat="49.02206" lon="-1.57495">
        <ele>3.9808342</ele>
        <time>2015-06-03T16:40:46Z</time>
      </trkpt>
      <trkpt lat="49.02207" lon="-1.57496">
        <ele>3.9808342</ele>
        <time>2015-06-03T16:40:51Z</time>
      </trkpt>
      <trkpt lat="49.02208" lon="-1.57496">
        <ele>3.9808342</ele>
        <time>2015-06-03T16:40:56Z</time>
      </trkpt>
      <trkpt lat="49.02209" lon="-1.57497">
        <ele>3.9808342</ele>
        <time>2015-06-03T16:41:01Z</time>
      </trkpt>
      <trkpt lat="49.02208" lon="-1.57497">
        <ele>3.7325742</ele>
        <time>2015-06-03T16:41:06Z</time>
      </trkpt>
      <trkpt lat="49.02207" lon="-1.57497">
        <ele>3.7325742</ele>
        <time>2015-06-03T16:41:11Z</time>
      </trkpt>
      <trkpt lat="49.02206" lon="-1.57497">
        <ele>3.7325742</ele>
        <time>2015-06-03T16:41:16Z</time>
      </trkpt>
      <trkpt lat="49.02206" lon="-1.57496">
        <ele>3.7325742</ele>
        <time>2015-06-03T16:41:21Z</time>
      </trkpt>
      <trkpt lat="49.02205" lon="-1.57496">
        <ele>3.7325742</ele>
        <time>2015-06-03T16:41:26Z</time>
      </trkpt>
      <trkpt lat="49.02205" lon="-1.57496">
        <ele>3.7325742</ele>
        <time>2015-06-03T16:41:31Z</time>
      </trkpt>
      <trkpt lat="49.02205" lon="-1.57496">
        <ele>3.7325742</ele>
        <time>2015-06-03T16:41:36Z</time>
      </trkpt>
      <trkpt lat="49.02204" lon="-1.57497">
        <ele>3.7325742</ele>
        <time>2015-06-03T16:41:41Z</time>
      </trkpt>
      <trkpt lat="49.02204" lon="-1.57497">
        <ele>3.7325742</ele>
        <time>2015-06-03T16:41:46Z</time>
      </trkpt>
      <trkpt lat="49.02205" lon="-1.57497">
        <ele>3.7325742</ele>
        <time>2015-06-03T16:41:51Z</time>
      </trkpt>
      <trkpt lat="49.02206" lon="-1.57497">
        <ele>3.7325742</ele>
        <time>2015-06-03T16:41:56Z</time>
      </trkpt>
      <trkpt lat="49.02206" lon="-1.57495">
        <ele>3.7325742</ele>
        <time>2015-06-03T16:42:01Z</time>
      </trkpt>
      <trkpt lat="49.02206" lon="-1.57496">
        <ele>3.5191083</ele>
        <time>2015-06-03T16:42:06Z</time>
      </trkpt>
      <trkpt lat="49.02208" lon="-1.57496">
        <ele>3.5191083</ele>
        <time>2015-06-03T16:42:11Z</time>
      </trkpt>
      <trkpt lat="49.02209" lon="-1.57495">
        <ele>3.5191083</ele>
        <time>2015-06-03T16:42:16Z</time>
      </trkpt>
      <trkpt lat="49.02208" lon="-1.57496">
        <ele>3.5191083</ele>
        <time>2015-06-03T16:42:21Z</time>
      </trkpt>
      <trkpt lat="49.02207" lon="-1.57497">
        <ele>3.5191083</ele>
        <time>2015-06-03T16:42:26Z</time>
      </trkpt>
      <trkpt lat="49.02207" lon="-1.57497">
        <ele>3.5191083</ele>
        <time>2015-06-03T16:42:31Z</time>
      </trkpt>
      <trkpt lat="49.02207" lon="-1.57498">
        <ele>3.5191083</ele>
        <time>2015-06-03T16:42:36Z</time>
      </trkpt>
      <trkpt lat="49.02207" lon="-1.57498">
        <ele>3.5191083</ele>
        <time>2015-06-03T16:42:41Z</time>
      </trkpt>
      <trkpt lat="49.02207" lon="-1.57499">
        <ele>3.5191083</ele>
        <time>2015-06-03T16:42:46Z</time>
      </trkpt>
      <trkpt lat="49.02207" lon="-1.57498">
        <ele>3.5191083</ele>
        <time>2015-06-03T16:42:51Z</time>
      </trkpt>
      <trkpt lat="49.02206" lon="-1.57498">
        <ele>3.5191083</ele>
        <time>2015-06-03T16:42:56Z</time>
      </trkpt>
      <trkpt lat="49.02206" lon="-1.57498">
        <ele>3.5191083</ele>
        <time>2015-06-03T16:43:01Z</time>
      </trkpt>
      <trkpt lat="49.02206" lon="-1.57499">
        <ele>3.5191083</ele>
        <time>2015-06-03T16:43:06Z</time>
      </trkpt>
      <trkpt lat="49.02207" lon="-1.57499">
        <ele>3.3096876</ele>
        <time>2015-06-03T16:43:11Z</time>
      </trkpt>
      <trkpt lat="49.02209" lon="-1.57497">
        <ele>3.3096876</ele>
        <time>2015-06-03T16:43:16Z</time>
      </trkpt>
      <trkpt lat="49.02214" lon="-1.57499">
        <ele>3.3096876</ele>
        <time>2015-06-03T16:43:21Z</time>
      </trkpt>
      <trkpt lat="49.02215" lon="-1.57501">
        <ele>3.3096876</ele>
        <time>2015-06-03T16:43:26Z</time>
      </trkpt>
      <trkpt lat="49.02215" lon="-1.575">
        <ele>3.2631443</ele>
        <time>2015-06-03T16:43:31Z</time>
      </trkpt>
      <trkpt lat="49.02215" lon="-1.575">
        <ele>3.2631443</ele>
        <time>2015-06-03T16:43:36Z</time>
      </trkpt>
      <trkpt lat="49.02214" lon="-1.57498">
        <ele>3.2631443</ele>
        <time>2015-06-03T16:43:41Z</time>
      </trkpt>
      <trkpt lat="49.02216" lon="-1.57498">
        <ele>3.2631443</ele>
        <time>2015-06-03T16:43:46Z</time>
      </trkpt>
      <trkpt lat="49.0222" lon="-1.57499">
        <ele>3.2631443</ele>
        <time>2015-06-03T16:43:51Z</time>
      </trkpt>
      <trkpt lat="49.02224" lon="-1.57501">
        <ele>3.3532422</ele>
        <time>2015-06-03T16:43:56Z</time>
      </trkpt>
      <trkpt lat="49.0223" lon="-1.57502">
        <ele>3.3532422</ele>
        <time>2015-06-03T16:44:01Z</time>
      </trkpt>
      <trkpt lat="49.02235" lon="-1.5751">
        <ele>3.5264566</ele>
        <time>2015-06-03T16:44:06Z</time>
      </trkpt>
      <trkpt lat="49.02241" lon="-1.57516">
        <ele>3.5264566</ele>
        <time>2015-06-03T16:44:11Z</time>
      </trkpt>
      <trkpt lat="49.02248" lon="-1.5752">
        <ele>3.689719</ele>
        <time>2015-06-03T16:44:16Z</time>
      </trkpt>
      <trkpt lat="49.02255" lon="-1.57525">
        <ele>3.689719</ele>
        <time>2015-06-03T16:44:21Z</time>
      </trkpt>
      <trkpt lat="49.02259" lon="-1.57529">
        <ele>3.8432841</ele>
        <time>2015-06-03T16:44:26Z</time>
      </trkpt>
      <trkpt lat="49.02265" lon="-1.57532">
        <ele>3.8432841</ele>
        <time>2015-06-03T16:44:31Z</time>
      </trkpt>
      <trkpt lat="49.02271" lon="-1.57538">
        <ele>4.0306435</ele>
        <time>2015-06-03T16:44:36Z</time>
      </trkpt>
      <trkpt lat="49.02277" lon="-1.57541">
        <ele>4.0306435</ele>
        <time>2015-06-03T16:44:41Z</time>
      </trkpt>
      <trkpt lat="49.02282" lon="-1.57545">
        <ele>4.248762</ele>
        <time>2015-06-03T16:44:46Z</time>
      </trkpt>
      <trkpt lat="49.0229" lon="-1.57549">
        <ele>4.248762</ele>
        <time>2015-06-03T16:44:51Z</time>
      </trkpt>
      <trkpt lat="49.02296" lon="-1.57552">
        <ele>4.4515066</ele>
        <time>2015-06-03T16:44:56Z</time>
      </trkpt>
      <trkpt lat="49.023" lon="-1.57555">
        <ele>4.4515066</ele>
        <time>2015-06-03T16:45:01Z</time>
      </trkpt>
      <trkpt lat="49.02306" lon="-1.57558">
        <ele>4.6970534</ele>
        <time>2015-06-03T16:45:06Z</time>
      </trkpt>
      <trkpt lat="49.02313" lon="-1.57561">
        <ele>4.6970534</ele>
        <time>2015-06-03T16:45:11Z</time>
      </trkpt>
      <trkpt lat="49.02319" lon="-1.57567">
        <ele>4.923899</ele>
        <time>2015-06-03T16:45:16Z</time>
      </trkpt>
      <trkpt lat="49.02323" lon="-1.57572">
        <ele>4.923899</ele>
        <time>2015-06-03T16:45:21Z</time>
      </trkpt>
      <trkpt lat="49.02329" lon="-1.57575">
        <ele>5.1327586</ele>
        <time>2015-06-03T16:45:26Z</time>
      </trkpt>
      <trkpt lat="49.02334" lon="-1.57579">
        <ele>5.1327586</ele>
        <time>2015-06-03T16:45:31Z</time>
      </trkpt>
      <trkpt lat="49.0234" lon="-1.57585">
        <ele>5.3387613</ele>
        <time>2015-06-03T16:45:36Z</time>
      </trkpt>
      <trkpt lat="49.02346" lon="-1.57589">
        <ele>5.3387613</ele>
        <time>2015-06-03T16:45:41Z</time>
      </trkpt>
      <trkpt lat="49.02352" lon="-1.57592">
        <ele>5.54153</ele>
        <time>2015-06-03T16:45:46Z</time>
      </trkpt>
      <trkpt lat="49.02358" lon="-1.57595">
        <ele>5.54153</ele>
        <time>2015-06-03T16:45:51Z</time>
      </trkpt>
      <trkpt lat="49.02364" lon="-1.57599">
        <ele>5.783966</ele>
        <time>2015-06-03T16:45:56Z</time>
      </trkpt>
      <trkpt lat="49.0237" lon="-1.57604">
        <ele>5.783966</ele>
        <time>2015-06-03T16:46:01Z</time>
      </trkpt>
      <trkpt lat="49.02376" lon="-1.57609">
        <ele>6.0913057</ele>
        <time>2015-06-03T16:46:06Z</time>
      </trkpt>
      <trkpt lat="49.02381" lon="-1.57613">
        <ele>6.0913057</ele>
        <time>2015-06-03T16:46:11Z</time>
      </trkpt>
      <trkpt lat="49.02387" lon="-1.57616">
        <ele>6.4002943</ele>
        <time>2015-06-03T16:46:16Z</time>
      </trkpt>
      <trkpt lat="49.02393" lon="-1.57619">
        <ele>6.4002943</ele>
        <time>2015-06-03T16:46:21Z</time>
      </trkpt>
      <trkpt lat="49.02398" lon="-1.57624">
        <ele>6.6955647</ele>
        <time>2015-06-03T16:46:26Z</time>
      </trkpt>
      <trkpt lat="49.02404" lon="-1.57629">
        <ele>6.6955647</ele>
        <time>2015-06-03T16:46:31Z</time>
      </trkpt>
      <trkpt lat="49.02411" lon="-1.57633">
        <ele>6.9917545</ele>
        <time>2015-06-03T16:46:36Z</time>
      </trkpt>
      <trkpt lat="49.02417" lon="-1.57636">
        <ele>6.9917545</ele>
        <time>2015-06-03T16:46:41Z</time>
      </trkpt>
      <trkpt lat="49.02424" lon="-1.57639">
        <ele>7.2736144</ele>
        <time>2015-06-03T16:46:46Z</time>
      </trkpt>
      <trkpt lat="49.0243" lon="-1.57644">
        <ele>7.2736144</ele>
        <time>2015-06-03T16:46:51Z</time>
      </trkpt>
      <trkpt lat="49.02436" lon="-1.57648">
        <ele>7.5703073</ele>
        <time>2015-06-03T16:46:56Z</time>
      </trkpt>
      <trkpt lat="49.02441" lon="-1.57652">
        <ele>7.5703073</ele>
        <time>2015-06-03T16:47:01Z</time>
      </trkpt>
      <trkpt lat="49.02448" lon="-1.57656">
        <ele>7.793539</ele>
        <time>2015-06-03T16:47:06Z</time>
      </trkpt>
      <trkpt lat="49.02453" lon="-1.5766">
        <ele>7.793539</ele>
        <time>2015-06-03T16:47:11Z</time>
      </trkpt>
      <trkpt lat="49.0246" lon="-1.57664">
        <ele>7.9914265</ele>
        <time>2015-06-03T16:47:16Z</time>
      </trkpt>
      <trkpt lat="49.02465" lon="-1.57669">
        <ele>7.9914265</ele>
        <time>2015-06-03T16:47:21Z</time>
      </trkpt>
      <trkpt lat="49.0247" lon="-1.57672">
        <ele>8.165408</ele>
        <time>2015-06-03T16:47:26Z</time>
      </trkpt>
      <trkpt lat="49.02477" lon="-1.57677">
        <ele>8.165408</ele>
        <time>2015-06-03T16:47:31Z</time>
      </trkpt>
      <trkpt lat="49.02482" lon="-1.57679">
        <ele>8.316901</ele>
        <time>2015-06-03T16:47:36Z</time>
      </trkpt>
      <trkpt lat="49.02488" lon="-1.57683">
        <ele>8.316901</ele>
        <time>2015-06-03T16:47:41Z</time>
      </trkpt>
      <trkpt lat="49.02494" lon="-1.57685">
        <ele>8.504944</ele>
        <time>2015-06-03T16:47:46Z</time>
      </trkpt>
      <trkpt lat="49.025" lon="-1.57688">
        <ele>8.504944</ele>
        <time>2015-06-03T16:47:51Z</time>
      </trkpt>
      <trkpt lat="49.02506" lon="-1.57693">
        <ele>8.697687</ele>
        <time>2015-06-03T16:47:56Z</time>
      </trkpt>
      <trkpt lat="49.02512" lon="-1.57698">
        <ele>8.697687</ele>
        <time>2015-06-03T16:48:01Z</time>
      </trkpt>
      <trkpt lat="49.02517" lon="-1.57703">
        <ele>8.822391</ele>
        <time>2015-06-03T16:48:06Z</time>
      </trkpt>
      <trkpt lat="49.02522" lon="-1.57708">
        <ele>8.822391</ele>
        <time>2015-06-03T16:48:11Z</time>
      </trkpt>
      <trkpt lat="49.02528" lon="-1.57712">
        <ele>8.970389</ele>
        <time>2015-06-03T16:48:16Z</time>
      </trkpt>
      <trkpt lat="49.02533" lon="-1.57715">
        <ele>8.970389</ele>
        <time>2015-06-03T16:48:21Z</time>
      </trkpt>
      <trkpt lat="49.02534" lon="-1.57716">
        <ele>8.970389</ele>
        <time>2015-06-03T16:48:26Z</time>
      </trkpt>
      <trkpt lat="49.02537" lon="-1.57719">
        <ele>9.197434</ele>
        <time>2015-06-03T16:48:31Z</time>
      </trkpt>
      <trkpt lat="49.0254" lon="-1.57721">
        <ele>9.197434</ele>
        <time>2015-06-03T16:48:36Z</time>
      </trkpt>
      <trkpt lat="49.02547" lon="-1.57727">
        <ele>9.410868</ele>
        <time>2015-06-03T16:48:41Z</time>
      </trkpt>
      <trkpt lat="49.02553" lon="-1.5773">
        <ele>9.410868</ele>
        <time>2015-06-03T16:48:46Z</time>
      </trkpt>
      <trkpt lat="49.02559" lon="-1.57733">
        <ele>9.611355</ele>
        <time>2015-06-03T16:48:51Z</time>
      </trkpt>
      <trkpt lat="49.02565" lon="-1.57737">
        <ele>9.611355</ele>
        <time>2015-06-03T16:48:56Z</time>
      </trkpt>
      <trkpt lat="49.02569" lon="-1.57739">
        <ele>9.828387</ele>
        <time>2015-06-03T16:49:01Z</time>
      </trkpt>
      <trkpt lat="49.02575" lon="-1.57744">
        <ele>9.828387</ele>
        <time>2015-06-03T16:49:06Z</time>
      </trkpt>
      <trkpt lat="49.02581" lon="-1.57749">
        <ele>10.017202</ele>
        <time>2015-06-03T16:49:11Z</time>
      </trkpt>
      <trkpt lat="49.02585" lon="-1.57752">
        <ele>10.017202</ele>
        <time>2015-06-03T16:49:16Z</time>
      </trkpt>
      <trkpt lat="49.02592" lon="-1.57755">
        <ele>10.2373</ele>
        <time>2015-06-03T16:49:21Z</time>
      </trkpt>
      <trkpt lat="49.02598" lon="-1.57761">
        <ele>10.2373</ele>
        <time>2015-06-03T16:49:26Z</time>
      </trkpt>
      <trkpt lat="49.02604" lon="-1.57765">
        <ele>10.457265</ele>
        <time>2015-06-03T16:49:31Z</time>
      </trkpt>
      <trkpt lat="49.02611" lon="-1.57768">
        <ele>10.457265</ele>
        <time>2015-06-03T16:49:36Z</time>
      </trkpt>
      <trkpt lat="49.02615" lon="-1.57771">
        <ele>10.633595</ele>
        <time>2015-06-03T16:49:41Z</time>
      </trkpt>
      <trkpt lat="49.0262" lon="-1.57774">
        <ele>10.633595</ele>
        <time>2015-06-03T16:49:46Z</time>
      </trkpt>
      <trkpt lat="49.02627" lon="-1.57779">
        <ele>10.84141</ele>
        <time>2015-06-03T16:49:51Z</time>
      </trkpt>
      <trkpt lat="49.02632" lon="-1.57782">
        <ele>10.84141</ele>
        <time>2015-06-03T16:49:56Z</time>
      </trkpt>
      <trkpt lat="49.0264" lon="-1.57787">
        <ele>11.0637665</ele>
        <time>2015-06-03T16:50:01Z</time>
      </trkpt>
      <trkpt lat="49.02644" lon="-1.57789">
        <ele>11.0637665</ele>
        <time>2015-06-03T16:50:06Z</time>
      </trkpt>
      <trkpt lat="49.02651" lon="-1.57794">
        <ele>11.299351</ele>
        <time>2015-06-03T16:50:11Z</time>
      </trkpt>
      <trkpt lat="49.02657" lon="-1.578">
        <ele>11.299351</ele>
        <time>2015-06-03T16:50:16Z</time>
      </trkpt>
      <trkpt lat="49.0266" lon="-1.57802">
        <ele>11.532511</ele>
        <time>2015-06-03T16:50:21Z</time>
      </trkpt>
      <trkpt lat="49.02665" lon="-1.57805">
        <ele>11.532511</ele>
        <time>2015-06-03T16:50:26Z</time>
      </trkpt>
      <trkpt lat="49.02672" lon="-1.57811">
        <ele>11.705529</ele>
        <time>2015-06-03T16:50:31Z</time>
      </trkpt>
      <trkpt lat="49.02676" lon="-1.57813">
        <ele>11.705529</ele>
        <time>2015-06-03T16:50:36Z</time>
      </trkpt>
      <trkpt lat="49.02683" lon="-1.57817">
        <ele>11.865986</ele>
        <time>2015-06-03T16:50:41Z</time>
      </trkpt>
      <trkpt lat="49.02688" lon="-1.57822">
        <ele>11.865986</ele>
        <time>2015-06-03T16:50:46Z</time>
      </trkpt>
      <trkpt lat="49.02695" lon="-1.57826">
        <ele>12.00037</ele>
        <time>2015-06-03T16:50:51Z</time>
      </trkpt>
      <trkpt lat="49.02701" lon="-1.57831">
        <ele>12.00037</ele>
        <time>2015-06-03T16:50:56Z</time>
      </trkpt>
      <trkpt lat="49.02709" lon="-1.57835">
        <ele>12.0386</ele>
        <time>2015-06-03T16:51:01Z</time>
      </trkpt>
      <trkpt lat="49.02715" lon="-1.57839">
        <ele>12.0386</ele>
        <time>2015-06-03T16:51:06Z</time>
      </trkpt>
      <trkpt lat="49.02721" lon="-1.57843">
        <ele>12.031312</ele>
        <time>2015-06-03T16:51:11Z</time>
      </trkpt>
      <trkpt lat="49.02727" lon="-1.57846">
        <ele>12.031312</ele>
        <time>2015-06-03T16:51:16Z</time>
      </trkpt>
      <trkpt lat="49.02732" lon="-1.57849">
        <ele>12.0255575</ele>
        <time>2015-06-03T16:51:21Z</time>
      </trkpt>
      <trkpt lat="49.02738" lon="-1.57855">
        <ele>12.0255575</ele>
        <time>2015-06-03T16:51:26Z</time>
      </trkpt>
      <trkpt lat="49.02744" lon="-1.57859">
        <ele>12.021699</ele>
        <time>2015-06-03T16:51:31Z</time>
      </trkpt>
      <trkpt lat="49.02749" lon="-1.57863">
        <ele>12.021699</ele>
        <time>2015-06-03T16:51:36Z</time>
      </trkpt>
      <trkpt lat="49.02755" lon="-1.57869">
        <ele>12.048894</ele>
        <time>2015-06-03T16:51:41Z</time>
      </trkpt>
      <trkpt lat="49.0276" lon="-1.57872">
        <ele>12.048894</ele>
        <time>2015-06-03T16:51:46Z</time>
      </trkpt>
      <trkpt lat="49.02766" lon="-1.57876">
        <ele>12.062018</ele>
        <time>2015-06-03T16:51:51Z</time>
      </trkpt>
      <trkpt lat="49.02773" lon="-1.57882">
        <ele>12.062018</ele>
        <time>2015-06-03T16:51:56Z</time>
      </trkpt>
      <trkpt lat="49.02779" lon="-1.57885">
        <ele>12.091358</ele>
        <time>2015-06-03T16:52:01Z</time>
      </trkpt>
      <trkpt lat="49.02784" lon="-1.57887">
        <ele>12.091358</ele>
        <time>2015-06-03T16:52:06Z</time>
      </trkpt>
      <trkpt lat="49.0279" lon="-1.5789">
        <ele>12.078462</ele>
        <time>2015-06-03T16:52:11Z</time>
      </trkpt>
      <trkpt lat="49.02797" lon="-1.57895">
        <ele>12.078462</ele>
        <time>2015-06-03T16:52:16Z</time>
      </trkpt>
      <trkpt lat="49.02803" lon="-1.57899">
        <ele>12.055756</ele>
        <time>2015-06-03T16:52:21Z</time>
      </trkpt>
      <trkpt lat="49.0281" lon="-1.57904">
        <ele>12.055756</ele>
        <time>2015-06-03T16:52:26Z</time>
      </trkpt>
      <trkpt lat="49.02814" lon="-1.57908">
        <ele>11.966843</ele>
        <time>2015-06-03T16:52:31Z</time>
      </trkpt>
      <trkpt lat="49.0282" lon="-1.57911">
        <ele>11.966843</ele>
        <time>2015-06-03T16:52:36Z</time>
      </trkpt>
      <trkpt lat="49.02825" lon="-1.57914">
        <ele>11.889347</ele>
        <time>2015-06-03T16:52:41Z</time>
      </trkpt>
      <trkpt lat="49.0283" lon="-1.57918">
        <ele>11.889347</ele>
        <time>2015-06-03T16:52:46Z</time>
      </trkpt>
      <trkpt lat="49.02835" lon="-1.57922">
        <ele>11.880745</ele>
        <time>2015-06-03T16:52:51Z</time>
      </trkpt>
      <trkpt lat="49.0284" lon="-1.57925">
        <ele>11.880745</ele>
        <time>2015-06-03T16:52:56Z</time>
      </trkpt>
      <trkpt lat="49.02845" lon="-1.57931">
        <ele>11.893209</ele>
        <time>2015-06-03T16:53:01Z</time>
      </trkpt>
      <trkpt lat="49.0285" lon="-1.57933">
        <ele>11.893209</ele>
        <time>2015-06-03T16:53:06Z</time>
      </trkpt>
      <trkpt lat="49.02856" lon="-1.57939">
        <ele>11.8679495</ele>
        <time>2015-06-03T16:53:11Z</time>
      </trkpt>
      <trkpt lat="49.02861" lon="-1.57943">
        <ele>11.8679495</ele>
        <time>2015-06-03T16:53:16Z</time>
      </trkpt>
      <trkpt lat="49.02866" lon="-1.57947">
        <ele>11.808233</ele>
        <time>2015-06-03T16:53:21Z</time>
      </trkpt>
      <trkpt lat="49.02872" lon="-1.5795">
        <ele>11.808233</ele>
        <time>2015-06-03T16:53:26Z</time>
      </trkpt>
      <trkpt lat="49.02878" lon="-1.57955">
        <ele>11.6883545</ele>
        <time>2015-06-03T16:53:31Z</time>
      </trkpt>
      <trkpt lat="49.02883" lon="-1.5796">
        <ele>11.6883545</ele>
        <time>2015-06-03T16:53:36Z</time>
      </trkpt>
      <trkpt lat="49.0289" lon="-1.57964">
        <ele>11.542295</ele>
        <time>2015-06-03T16:53:41Z</time>
      </trkpt>
      <trkpt lat="49.02897" lon="-1.57966">
        <ele>11.542295</ele>
        <time>2015-06-03T16:53:46Z</time>
      </trkpt>
      <trkpt lat="49.02903" lon="-1.57969">
        <ele>11.430428</ele>
        <time>2015-06-03T16:53:51Z</time>
      </trkpt>
      <trkpt lat="49.02909" lon="-1.57972">
        <ele>11.430428</ele>
        <time>2015-06-03T16:53:56Z</time>
      </trkpt>
      <trkpt lat="49.02915" lon="-1.57977">
        <ele>11.336519</ele>
        <time>2015-06-03T16:54:01Z</time>
      </trkpt>
      <trkpt lat="49.02921" lon="-1.57981">
        <ele>11.336519</ele>
        <time>2015-06-03T16:54:06Z</time>
      </trkpt>
      <trkpt lat="49.02928" lon="-1.57984">
        <ele>11.231058</ele>
        <time>2015-06-03T16:54:11Z</time>
      </trkpt>
      <trkpt lat="49.02934" lon="-1.57989">
        <ele>11.231058</ele>
        <time>2015-06-03T16:54:16Z</time>
      </trkpt>
      <trkpt lat="49.02941" lon="-1.57995">
        <ele>11.129949</ele>
        <time>2015-06-03T16:54:21Z</time>
      </trkpt>
      <trkpt lat="49.02943" lon="-1.57999">
        <ele>11.129949</ele>
        <time>2015-06-03T16:54:26Z</time>
      </trkpt>
      <trkpt lat="49.02943" lon="-1.57998">
        <ele>11.129949</ele>
        <time>2015-06-03T16:54:31Z</time>
      </trkpt>
      <trkpt lat="49.02945" lon="-1.57998">
        <ele>11.129949</ele>
        <time>2015-06-03T16:54:36Z</time>
      </trkpt>
      <trkpt lat="49.02949" lon="-1.58001">
        <ele>10.94702</ele>
        <time>2015-06-03T16:54:41Z</time>
      </trkpt>
      <trkpt lat="49.02954" lon="-1.58004">
        <ele>10.94702</ele>
        <time>2015-06-03T16:54:46Z</time>
      </trkpt>
      <trkpt lat="49.02959" lon="-1.58008">
        <ele>10.789988</ele>
        <time>2015-06-03T16:54:51Z</time>
      </trkpt>
      <trkpt lat="49.02964" lon="-1.58011">
        <ele>10.789988</ele>
        <time>2015-06-03T16:54:56Z</time>
      </trkpt>
      <trkpt lat="49.0297" lon="-1.58015">
        <ele>10.700922</ele>
        <time>2015-06-03T16:55:01Z</time>
      </trkpt>
      <trkpt lat="49.02976" lon="-1.58018">
        <ele>10.700922</ele>
        <time>2015-06-03T16:55:06Z</time>
      </trkpt>
      <trkpt lat="49.02984" lon="-1.58023">
        <ele>10.675358</ele>
        <time>2015-06-03T16:55:11Z</time>
      </trkpt>
      <trkpt lat="49.02989" lon="-1.58026">
        <ele>10.675358</ele>
        <time>2015-06-03T16:55:16Z</time>
      </trkpt>
      <trkpt lat="49.02995" lon="-1.58031">
        <ele>10.694551</ele>
        <time>2015-06-03T16:55:21Z</time>
      </trkpt>
      <trkpt lat="49.02998" lon="-1.58035">
        <ele>10.694551</ele>
        <time>2015-06-03T16:55:26Z</time>
      </trkpt>
      <trkpt lat="49.03005" lon="-1.58039">
        <ele>10.712169</ele>
        <time>2015-06-03T16:55:31Z</time>
      </trkpt>
      <trkpt lat="49.03009" lon="-1.58043">
        <ele>10.712169</ele>
        <time>2015-06-03T16:55:36Z</time>
      </trkpt>
      <trkpt lat="49.03016" lon="-1.58048">
        <ele>10.728498</ele>
        <time>2015-06-03T16:55:41Z</time>
      </trkpt>
      <trkpt lat="49.03023" lon="-1.58051">
        <ele>10.728498</ele>
        <time>2015-06-03T16:55:46Z</time>
      </trkpt>
      <trkpt lat="49.03029" lon="-1.58055">
        <ele>10.758209</ele>
        <time>2015-06-03T16:55:51Z</time>
      </trkpt>
      <trkpt lat="49.03034" lon="-1.58058">
        <ele>10.758209</ele>
        <time>2015-06-03T16:55:56Z</time>
      </trkpt>
      <trkpt lat="49.0304" lon="-1.58062">
        <ele>10.800424</ele>
        <time>2015-06-03T16:56:01Z</time>
      </trkpt>
      <trkpt lat="49.03045" lon="-1.58065">
        <ele>10.800424</ele>
        <time>2015-06-03T16:56:06Z</time>
      </trkpt>
      <trkpt lat="49.03052" lon="-1.5807">
        <ele>10.926335</ele>
        <time>2015-06-03T16:56:11Z</time>
      </trkpt>
      <trkpt lat="49.03057" lon="-1.58075">
        <ele>10.926335</ele>
        <time>2015-06-03T16:56:16Z</time>
      </trkpt>
      <trkpt lat="49.03062" lon="-1.58079">
        <ele>10.956672</ele>
        <time>2015-06-03T16:56:21Z</time>
      </trkpt>
      <trkpt lat="49.03067" lon="-1.58082">
        <ele>10.956672</ele>
        <time>2015-06-03T16:56:26Z</time>
      </trkpt>
      <trkpt lat="49.03074" lon="-1.58086">
        <ele>10.999393</ele>
        <time>2015-06-03T16:56:31Z</time>
      </trkpt>
      <trkpt lat="49.0308" lon="-1.58091">
        <ele>10.999393</ele>
        <time>2015-06-03T16:56:36Z</time>
      </trkpt>
      <trkpt lat="49.03086" lon="-1.58094">
        <ele>11.068019</ele>
        <time>2015-06-03T16:56:41Z</time>
      </trkpt>
      <trkpt lat="49.03092" lon="-1.58098">
        <ele>11.068019</ele>
        <time>2015-06-03T16:56:46Z</time>
      </trkpt>
      <trkpt lat="49.03097" lon="-1.58101">
        <ele>11.174989</ele>
        <time>2015-06-03T16:56:51Z</time>
      </trkpt>
      <trkpt lat="49.03104" lon="-1.58106">
        <ele>11.174989</ele>
        <time>2015-06-03T16:56:56Z</time>
      </trkpt>
      <trkpt lat="49.03111" lon="-1.58112">
        <ele>11.245245</ele>
        <time>2015-06-03T16:57:01Z</time>
      </trkpt>
      <trkpt lat="49.03117" lon="-1.58116">
        <ele>11.245245</ele>
        <time>2015-06-03T16:57:06Z</time>
      </trkpt>
      <trkpt lat="49.03124" lon="-1.5812">
        <ele>11.281396</ele>
        <time>2015-06-03T16:57:11Z</time>
      </trkpt>
      <trkpt lat="49.03129" lon="-1.58125">
        <ele>11.281396</ele>
        <time>2015-06-03T16:57:16Z</time>
      </trkpt>
      <trkpt lat="49.03135" lon="-1.58127">
        <ele>11.24271</ele>
        <time>2015-06-03T16:57:21Z</time>
      </trkpt>
      <trkpt lat="49.03142" lon="-1.58131">
        <ele>11.24271</ele>
        <time>2015-06-03T16:57:26Z</time>
      </trkpt>
      <trkpt lat="49.03148" lon="-1.58136">
        <ele>11.163706</ele>
        <time>2015-06-03T16:57:31Z</time>
      </trkpt>
      <trkpt lat="49.03153" lon="-1.5814">
        <ele>11.163706</ele>
        <time>2015-06-03T16:57:36Z</time>
      </trkpt>
      <trkpt lat="49.03159" lon="-1.58144">
        <ele>11.04765</ele>
        <time>2015-06-03T16:57:41Z</time>
      </trkpt>
      <trkpt lat="49.03165" lon="-1.58147">
        <ele>11.04765</ele>
        <time>2015-06-03T16:57:46Z</time>
      </trkpt>
      <trkpt lat="49.03171" lon="-1.5815">
        <ele>10.955311</ele>
        <time>2015-06-03T16:57:51Z</time>
      </trkpt>
      <trkpt lat="49.03177" lon="-1.58156">
        <ele>10.955311</ele>
        <time>2015-06-03T16:57:56Z</time>
      </trkpt>
      <trkpt lat="49.03181" lon="-1.58159">
        <ele>10.957329</ele>
        <time>2015-06-03T16:58:01Z</time>
      </trkpt>
      <trkpt lat="49.03186" lon="-1.58163">
        <ele>10.957329</ele>
        <time>2015-06-03T16:58:06Z</time>
      </trkpt>
      <trkpt lat="49.03193" lon="-1.58167">
        <ele>10.989181</ele>
        <time>2015-06-03T16:58:11Z</time>
      </trkpt>
      <trkpt lat="49.03198" lon="-1.5817">
        <ele>10.989181</ele>
        <time>2015-06-03T16:58:16Z</time>
      </trkpt>
      <trkpt lat="49.03203" lon="-1.58173">
        <ele>11.106283</ele>
        <time>2015-06-03T16:58:21Z</time>
      </trkpt>
      <trkpt lat="49.03209" lon="-1.58175">
        <ele>11.106283</ele>
        <time>2015-06-03T16:58:26Z</time>
      </trkpt>
      <trkpt lat="49.03217" lon="-1.58181">
        <ele>11.28768</ele>
        <time>2015-06-03T16:58:31Z</time>
      </trkpt>
      <trkpt lat="49.03221" lon="-1.58184">
        <ele>11.28768</ele>
        <time>2015-06-03T16:58:36Z</time>
      </trkpt>
      <trkpt lat="49.03227" lon="-1.58187">
        <ele>11.456121</ele>
        <time>2015-06-03T16:58:41Z</time>
      </trkpt>
      <trkpt lat="49.03233" lon="-1.58192">
        <ele>11.456121</ele>
        <time>2015-06-03T16:58:46Z</time>
      </trkpt>
      <trkpt lat="49.03237" lon="-1.58199">
        <ele>11.525658</ele>
        <time>2015-06-03T16:58:51Z</time>
      </trkpt>
      <trkpt lat="49.03241" lon="-1.582">
        <ele>11.525658</ele>
        <time>2015-06-03T16:58:56Z</time>
      </trkpt>
      <trkpt lat="49.03247" lon="-1.58203">
        <ele>11.589857</ele>
        <time>2015-06-03T16:59:01Z</time>
      </trkpt>
      <trkpt lat="49.03253" lon="-1.58206">
        <ele>11.589857</ele>
        <time>2015-06-03T16:59:06Z</time>
      </trkpt>
      <trkpt lat="49.03257" lon="-1.5821">
        <ele>11.692195</ele>
        <time>2015-06-03T16:59:11Z</time>
      </trkpt>
      <trkpt lat="49.03262" lon="-1.58212">
        <ele>11.692195</ele>
        <time>2015-06-03T16:59:16Z</time>
      </trkpt>
      <trkpt lat="49.03267" lon="-1.58216">
        <ele>11.800792</ele>
        <time>2015-06-03T16:59:21Z</time>
      </trkpt>
      <trkpt lat="49.03272" lon="-1.58221">
        <ele>11.800792</ele>
        <time>2015-06-03T16:59:26Z</time>
      </trkpt>
      <trkpt lat="49.03278" lon="-1.58225">
        <ele>11.958144</ele>
        <time>2015-06-03T16:59:31Z</time>
      </trkpt>
      <trkpt lat="49.03286" lon="-1.58231">
        <ele>11.958144</ele>
        <time>2015-06-03T16:59:36Z</time>
      </trkpt>
      <trkpt lat="49.03289" lon="-1.58233">
        <ele>12.131438</ele>
        <time>2015-06-03T16:59:41Z</time>
      </trkpt>
      <trkpt lat="49.03295" lon="-1.58237">
        <ele>12.131438</ele>
        <time>2015-06-03T16:59:46Z</time>
      </trkpt>
      <trkpt lat="49.03302" lon="-1.58242">
        <ele>12.304638</ele>
        <time>2015-06-03T16:59:51Z</time>
      </trkpt>
      <trkpt lat="49.03306" lon="-1.58244">
        <ele>12.304638</ele>
        <time>2015-06-03T16:59:56Z</time>
      </trkpt>
      <trkpt lat="49.03313" lon="-1.58248">
        <ele>12.448476</ele>
        <time>2015-06-03T17:00:01Z</time>
      </trkpt>
      <trkpt lat="49.03318" lon="-1.58251">
        <ele>12.448476</ele>
        <time>2015-06-03T17:00:06Z</time>
      </trkpt>
      <trkpt lat="49.03322" lon="-1.58256">
        <ele>12.607979</ele>
        <time>2015-06-03T17:00:11Z</time>
      </trkpt>
      <trkpt lat="49.03328" lon="-1.58259">
        <ele>12.607979</ele>
        <time>2015-06-03T17:00:16Z</time>
      </trkpt>
      <trkpt lat="49.03335" lon="-1.58263">
        <ele>12.839236</ele>
        <time>2015-06-03T17:00:21Z</time>
      </trkpt>
      <trkpt lat="49.0334" lon="-1.58268">
        <ele>12.839236</ele>
        <time>2015-06-03T17:00:26Z</time>
      </trkpt>
      <trkpt lat="49.03348" lon="-1.58271">
        <ele>13.0355015</ele>
        <time>2015-06-03T17:00:31Z</time>
      </trkpt>
      <trkpt lat="49.03354" lon="-1.58276">
        <ele>13.0355015</ele>
        <time>2015-06-03T17:00:36Z</time>
      </trkpt>
      <trkpt lat="49.0336" lon="-1.58282">
        <ele>13.155617</ele>
        <time>2015-06-03T17:00:41Z</time>
      </trkpt>
      <trkpt lat="49.03366" lon="-1.58285">
        <ele>13.155617</ele>
        <time>2015-06-03T17:00:46Z</time>
      </trkpt>
      <trkpt lat="49.03371" lon="-1.58289">
        <ele>13.2193165</ele>
        <time>2015-06-03T17:00:51Z</time>
      </trkpt>
      <trkpt lat="49.03378" lon="-1.58293">
        <ele>13.2193165</ele>
        <time>2015-06-03T17:00:56Z</time>
      </trkpt>
      <trkpt lat="49.03383" lon="-1.58299">
        <ele>13.2594595</ele>
        <time>2015-06-03T17:01:01Z</time>
      </trkpt>
      <trkpt lat="49.03389" lon="-1.58303">
        <ele>13.2594595</ele>
        <time>2015-06-03T17:01:06Z</time>
      </trkpt>
      <trkpt lat="49.03396" lon="-1.58306">
        <ele>13.292155</ele>
        <time>2015-06-03T17:01:11Z</time>
      </trkpt>
      <trkpt lat="49.03402" lon="-1.5831">
        <ele>13.292155</ele>
        <time>2015-06-03T17:01:16Z</time>
      </trkpt>
      <trkpt lat="49.03408" lon="-1.58312">
        <ele>13.332357</ele>
        <time>2015-06-03T17:01:21Z</time>
      </trkpt>
      <trkpt lat="49.03413" lon="-1.58316">
        <ele>13.332357</ele>
        <time>2015-06-03T17:01:26Z</time>
      </trkpt>
      <trkpt lat="49.03419" lon="-1.58321">
        <ele>13.29303</ele>
        <time>2015-06-03T17:01:31Z</time>
      </trkpt>
      <trkpt lat="49.03424" lon="-1.58325">
        <ele>13.29303</ele>
        <time>2015-06-03T17:01:36Z</time>
      </trkpt>
      <trkpt lat="49.0343" lon="-1.58329">
        <ele>13.223459</ele>
        <time>2015-06-03T17:01:41Z</time>
      </trkpt>
      <trkpt lat="49.03432" lon="-1.58331">
        <ele>13.223459</ele>
        <time>2015-06-03T17:01:46Z</time>
      </trkpt>
      <trkpt lat="49.03436" lon="-1.58334">
        <ele>13.223459</ele>
        <time>2015-06-03T17:01:51Z</time>
      </trkpt>
      <trkpt lat="49.03442" lon="-1.58337">
        <ele>13.15499</ele>
        <time>2015-06-03T17:01:56Z</time>
      </trkpt>
      <trkpt lat="49.03446" lon="-1.58341">
        <ele>13.15499</ele>
        <time>2015-06-03T17:02:01Z</time>
      </trkpt>
      <trkpt lat="49.03451" lon="-1.58345">
        <ele>13.073432</ele>
        <time>2015-06-03T17:02:06Z</time>
      </trkpt>
      <trkpt lat="49.03456" lon="-1.58347">
        <ele>13.073432</ele>
        <time>2015-06-03T17:02:11Z</time>
      </trkpt>
      <trkpt lat="49.03463" lon="-1.5835">
        <ele>13.023321</ele>
        <time>2015-06-03T17:02:16Z</time>
      </trkpt>
      <trkpt lat="49.03469" lon="-1.58354">
        <ele>13.023321</ele>
        <time>2015-06-03T17:02:21Z</time>
      </trkpt>
      <trkpt lat="49.03474" lon="-1.58358">
        <ele>13.002602</ele>
        <time>2015-06-03T17:02:26Z</time>
      </trkpt>
      <trkpt lat="49.0348" lon="-1.58363">
        <ele>13.002602</ele>
        <time>2015-06-03T17:02:31Z</time>
      </trkpt>
      <trkpt lat="49.03485" lon="-1.58367">
        <ele>13.081345</ele>
        <time>2015-06-03T17:02:36Z</time>
      </trkpt>
      <trkpt lat="49.03491" lon="-1.58371">
        <ele>13.081345</ele>
        <time>2015-06-03T17:02:41Z</time>
      </trkpt>
      <trkpt lat="49.03499" lon="-1.58377">
        <ele>13.151259</ele>
        <time>2015-06-03T17:02:46Z</time>
      </trkpt>
      <trkpt lat="49.03501" lon="-1.58379">
        <ele>13.151259</ele>
        <time>2015-06-03T17:02:51Z</time>
      </trkpt>
      <trkpt lat="49.03501" lon="-1.5838">
        <ele>13.151259</ele>
        <time>2015-06-03T17:02:56Z</time>
      </trkpt>
      <trkpt lat="49.03501" lon="-1.58382">
        <ele>13.151259</ele>
        <time>2015-06-03T17:03:01Z</time>
      </trkpt>
      <trkpt lat="49.03502" lon="-1.58381">
        <ele>13.151259</ele>
        <time>2015-06-03T17:03:06Z</time>
      </trkpt>
      <trkpt lat="49.03504" lon="-1.5838">
        <ele>13.151259</ele>
        <time>2015-06-03T17:03:11Z</time>
      </trkpt>
      <trkpt lat="49.03504" lon="-1.58379">
        <ele>13.151259</ele>
        <time>2015-06-03T17:03:16Z</time>
      </trkpt>
      <trkpt lat="49.03503" lon="-1.58378">
        <ele>13.328205</ele>
        <time>2015-06-03T17:03:21Z</time>
      </trkpt>
      <trkpt lat="49.03502" lon="-1.58378">
        <ele>13.328205</ele>
        <time>2015-06-03T17:03:26Z</time>
      </trkpt>
      <trkpt lat="49.035" lon="-1.58382">
        <ele>13.328205</ele>
        <time>2015-06-03T17:03:31Z</time>
      </trkpt>
      <trkpt lat="49.035" lon="-1.58382">
        <ele>13.328205</ele>
        <time>2015-06-03T17:03:36Z</time>
      </trkpt>
      <trkpt lat="49.03502" lon="-1.58383">
        <ele>13.328205</ele>
        <time>2015-06-03T17:03:41Z</time>
      </trkpt>
      <trkpt lat="49.03502" lon="-1.58384">
        <ele>13.328205</ele>
        <time>2015-06-03T17:03:46Z</time>
      </trkpt>
      <trkpt lat="49.03501" lon="-1.58384">
        <ele>13.328205</ele>
        <time>2015-06-03T17:03:51Z</time>
      </trkpt>
      <trkpt lat="49.03502" lon="-1.58384">
        <ele>13.328205</ele>
        <time>2015-06-03T17:03:56Z</time>
      </trkpt>
      <trkpt lat="49.03502" lon="-1.58383">
        <ele>13.328205</ele>
        <time>2015-06-03T17:04:01Z</time>
      </trkpt>
      <trkpt lat="49.03503" lon="-1.58383">
        <ele>13.286895</ele>
        <time>2015-06-03T17:04:06Z</time>
      </trkpt>
      <trkpt lat="49.03506" lon="-1.58384">
        <ele>13.286895</ele>
        <time>2015-06-03T17:04:11Z</time>
      </trkpt>
      <trkpt lat="49.03508" lon="-1.58384">
        <ele>13.286895</ele>
        <time>2015-06-03T17:04:16Z</time>
      </trkpt>
      <trkpt lat="49.03512" lon="-1.58385">
        <ele>13.286895</ele>
        <time>2015-06-03T17:04:21Z</time>
      </trkpt>
      <trkpt lat="49.03518" lon="-1.58389">
        <ele>13.274174</ele>
        <time>2015-06-03T17:04:26Z</time>
      </trkpt>
      <trkpt lat="49.03523" lon="-1.58394">
        <ele>13.274174</ele>
        <time>2015-06-03T17:04:31Z</time>
      </trkpt>
      <trkpt lat="49.03531" lon="-1.58398">
        <ele>13.187219</ele>
        <time>2015-06-03T17:04:36Z</time>
      </trkpt>
      <trkpt lat="49.03536" lon="-1.58402">
        <ele>13.187219</ele>
        <time>2015-06-03T17:04:41Z</time>
      </trkpt>
      <trkpt lat="49.03541" lon="-1.58406">
        <ele>13.075078</ele>
        <time>2015-06-03T17:04:46Z</time>
      </trkpt>
      <trkpt lat="49.03547" lon="-1.58408">
        <ele>13.075078</ele>
        <time>2015-06-03T17:04:51Z</time>
      </trkpt>
      <trkpt lat="49.03552" lon="-1.58412">
        <ele>12.940035</ele>
        <time>2015-06-03T17:04:56Z</time>
      </trkpt>
      <trkpt lat="49.03558" lon="-1.58417">
        <ele>12.940035</ele>
        <time>2015-06-03T17:05:01Z</time>
      </trkpt>
      <trkpt lat="49.03562" lon="-1.5842">
        <ele>12.827498</ele>
        <time>2015-06-03T17:05:06Z</time>
      </trkpt>
      <trkpt lat="49.03568" lon="-1.58425">
        <ele>12.827498</ele>
        <time>2015-06-03T17:05:11Z</time>
      </trkpt>
      <trkpt lat="49.03576" lon="-1.58429">
        <ele>12.765066</ele>
        <time>2015-06-03T17:05:16Z</time>
      </trkpt>
      <trkpt lat="49.03581" lon="-1.58433">
        <ele>12.765066</ele>
        <time>2015-06-03T17:05:21Z</time>
      </trkpt>
      <trkpt lat="49.03588" lon="-1.58438">
        <ele>12.778164</ele>
        <time>2015-06-03T17:05:26Z</time>
      </trkpt>
      <trkpt lat="49.03593" lon="-1.58442">
        <ele>12.778164</ele>
        <time>2015-06-03T17:05:31Z</time>
      </trkpt>
      <trkpt lat="49.03598" lon="-1.58445">
        <ele>12.774843</ele>
        <time>2015-06-03T17:05:36Z</time>
      </trkpt>
      <trkpt lat="49.03605" lon="-1.58449">
        <ele>12.774843</ele>
        <time>2015-06-03T17:05:41Z</time>
      </trkpt>
      <trkpt lat="49.03611" lon="-1.58453">
        <ele>12.756419</ele>
        <time>2015-06-03T17:05:46Z</time>
      </trkpt>
      <trkpt lat="49.03616" lon="-1.58457">
        <ele>12.756419</ele>
        <time>2015-06-03T17:05:51Z</time>
      </trkpt>
      <trkpt lat="49.03621" lon="-1.5846">
        <ele>12.666503</ele>
        <time>2015-06-03T17:05:56Z</time>
      </trkpt>
      <trkpt lat="49.03627" lon="-1.58466">
        <ele>12.666503</ele>
        <time>2015-06-03T17:06:01Z</time>
      </trkpt>
      <trkpt lat="49.03633" lon="-1.5847">
        <ele>12.55392</ele>
        <time>2015-06-03T17:06:06Z</time>
      </trkpt>
      <trkpt lat="49.03637" lon="-1.58477">
        <ele>12.55392</ele>
        <time>2015-06-03T17:06:11Z</time>
      </trkpt>
      <trkpt lat="49.03642" lon="-1.58483">
        <ele>12.49279</ele>
        <time>2015-06-03T17:06:16Z</time>
      </trkpt>
      <trkpt lat="49.03646" lon="-1.58488">
        <ele>12.49279</ele>
        <time>2015-06-03T17:06:21Z</time>
      </trkpt>
      <trkpt lat="49.03652" lon="-1.58495">
        <ele>12.479585</ele>
        <time>2015-06-03T17:06:26Z</time>
      </trkpt>
      <trkpt lat="49.03657" lon="-1.58498">
        <ele>12.479585</ele>
        <time>2015-06-03T17:06:31Z</time>
      </trkpt>
      <trkpt lat="49.03664" lon="-1.58502">
        <ele>12.467656</ele>
        <time>2015-06-03T17:06:36Z</time>
      </trkpt>
      <trkpt lat="49.0367" lon="-1.58504">
        <ele>12.467656</ele>
        <time>2015-06-03T17:06:41Z</time>
      </trkpt>
      <trkpt lat="49.03675" lon="-1.58509">
        <ele>12.500244</ele>
        <time>2015-06-03T17:06:46Z</time>
      </trkpt>
      <trkpt lat="49.0368" lon="-1.58512">
        <ele>12.500244</ele>
        <time>2015-06-03T17:06:51Z</time>
      </trkpt>
      <trkpt lat="49.03687" lon="-1.58515">
        <ele>12.545222</ele>
        <time>2015-06-03T17:06:56Z</time>
      </trkpt>
      <trkpt lat="49.03692" lon="-1.58517">
        <ele>12.545222</ele>
        <time>2015-06-03T17:07:01Z</time>
      </trkpt>
      <trkpt lat="49.03697" lon="-1.5852">
        <ele>12.572787</ele>
        <time>2015-06-03T17:07:06Z</time>
      </trkpt>
      <trkpt lat="49.03702" lon="-1.58523">
        <ele>12.572787</ele>
        <time>2015-06-03T17:07:11Z</time>
      </trkpt>
      <trkpt lat="49.03709" lon="-1.58527">
        <ele>12.627422</ele>
        <time>2015-06-03T17:07:16Z</time>
      </trkpt>
      <trkpt lat="49.03715" lon="-1.58528">
        <ele>12.627422</ele>
        <time>2015-06-03T17:07:21Z</time>
      </trkpt>
      <trkpt lat="49.0372" lon="-1.58531">
        <ele>12.692619</ele>
        <time>2015-06-03T17:07:26Z</time>
      </trkpt>
      <trkpt lat="49.03725" lon="-1.58535">
        <ele>12.692619</ele>
        <time>2015-06-03T17:07:31Z</time>
      </trkpt>
      <trkpt lat="49.03731" lon="-1.58536">
        <ele>12.695403</ele>
        <time>2015-06-03T17:07:36Z</time>
      </trkpt>
      <trkpt lat="49.03739" lon="-1.5854">
        <ele>12.695403</ele>
        <time>2015-06-03T17:07:41Z</time>
      </trkpt>
      <trkpt lat="49.03745" lon="-1.58541">
        <ele>12.683621</ele>
        <time>2015-06-03T17:07:46Z</time>
      </trkpt>
      <trkpt lat="49.03751" lon="-1.58543">
        <ele>12.683621</ele>
        <time>2015-06-03T17:07:51Z</time>
      </trkpt>
      <trkpt lat="49.03757" lon="-1.58546">
        <ele>12.672822</ele>
        <time>2015-06-03T17:07:56Z</time>
      </trkpt>
      <trkpt lat="49.03762" lon="-1.58549">
        <ele>12.672822</ele>
        <time>2015-06-03T17:08:01Z</time>
      </trkpt>
      <trkpt lat="49.03769" lon="-1.5855">
        <ele>12.735049</ele>
        <time>2015-06-03T17:08:06Z</time>
      </trkpt>
      <trkpt lat="49.03774" lon="-1.58552">
        <ele>12.735049</ele>
        <time>2015-06-03T17:08:11Z</time>
      </trkpt>
      <trkpt lat="49.03779" lon="-1.58554">
        <ele>12.835972</ele>
        <time>2015-06-03T17:08:16Z</time>
      </trkpt>
      <trkpt lat="49.03784" lon="-1.58556">
        <ele>12.835972</ele>
        <time>2015-06-03T17:08:21Z</time>
      </trkpt>
      <trkpt lat="49.03791" lon="-1.58557">
        <ele>12.9292555</ele>
        <time>2015-06-03T17:08:26Z</time>
      </trkpt>
      <trkpt lat="49.03798" lon="-1.5856">
        <ele>12.9292555</ele>
        <time>2015-06-03T17:08:31Z</time>
      </trkpt>
      <trkpt lat="49.03803" lon="-1.58562">
        <ele>12.9575815</ele>
        <time>2015-06-03T17:08:36Z</time>
      </trkpt>
      <trkpt lat="49.03809" lon="-1.58566">
        <ele>12.9575815</ele>
        <time>2015-06-03T17:08:41Z</time>
      </trkpt>
      <trkpt lat="49.03816" lon="-1.58569">
        <ele>12.968899</ele>
        <time>2015-06-03T17:08:46Z</time>
      </trkpt>
      <trkpt lat="49.03821" lon="-1.58571">
        <ele>12.968899</ele>
        <time>2015-06-03T17:08:51Z</time>
      </trkpt>
      <trkpt lat="49.03828" lon="-1.58576">
        <ele>12.921215</ele>
        <time>2015-06-03T17:08:56Z</time>
      </trkpt>
      <trkpt lat="49.03833" lon="-1.58579">
        <ele>12.921215</ele>
        <time>2015-06-03T17:09:01Z</time>
      </trkpt>
      <trkpt lat="49.03839" lon="-1.58583">
        <ele>12.876668</ele>
        <time>2015-06-03T17:09:06Z</time>
      </trkpt>
      <trkpt lat="49.03845" lon="-1.58587">
        <ele>12.876668</ele>
        <time>2015-06-03T17:09:11Z</time>
      </trkpt>
      <trkpt lat="49.03851" lon="-1.58592">
        <ele>12.791939</ele>
        <time>2015-06-03T17:09:16Z</time>
      </trkpt>
      <trkpt lat="49.03857" lon="-1.58595">
        <ele>12.791939</ele>
        <time>2015-06-03T17:09:21Z</time>
      </trkpt>
      <trkpt lat="49.03862" lon="-1.58595">
        <ele>12.713471</ele>
        <time>2015-06-03T17:09:26Z</time>
      </trkpt>
      <trkpt lat="49.03868" lon="-1.58597">
        <ele>12.713471</ele>
        <time>2015-06-03T17:09:31Z</time>
      </trkpt>
      <trkpt lat="49.03875" lon="-1.586">
        <ele>12.698691</ele>
        <time>2015-06-03T17:09:36Z</time>
      </trkpt>
      <trkpt lat="49.0388" lon="-1.58601">
        <ele>12.698691</ele>
        <time>2015-06-03T17:09:41Z</time>
      </trkpt>
      <trkpt lat="49.03887" lon="-1.586">
        <ele>12.786213</ele>
        <time>2015-06-03T17:09:46Z</time>
      </trkpt>
      <trkpt lat="49.03894" lon="-1.58599">
        <ele>12.786213</ele>
        <time>2015-06-03T17:09:51Z</time>
      </trkpt>
      <trkpt lat="49.03899" lon="-1.586">
        <ele>12.939467</ele>
        <time>2015-06-03T17:09:56Z</time>
      </trkpt>
      <trkpt lat="49.03905" lon="-1.58602">
        <ele>12.939467</ele>
        <time>2015-06-03T17:10:01Z</time>
      </trkpt>
      <trkpt lat="49.03912" lon="-1.58604">
        <ele>13.1820345</ele>
        <time>2015-06-03T17:10:06Z</time>
      </trkpt>
      <trkpt lat="49.03918" lon="-1.58606">
        <ele>13.1820345</ele>
        <time>2015-06-03T17:10:11Z</time>
      </trkpt>
      <trkpt lat="49.03923" lon="-1.58607">
        <ele>13.391398</ele>
        <time>2015-06-03T17:10:16Z</time>
      </trkpt>
      <trkpt lat="49.0393" lon="-1.5861">
        <ele>13.391398</ele>
        <time>2015-06-03T17:10:21Z</time>
      </trkpt>
      <trkpt lat="49.03937" lon="-1.58611">
        <ele>13.569429</ele>
        <time>2015-06-03T17:10:26Z</time>
      </trkpt>
      <trkpt lat="49.03944" lon="-1.58611">
        <ele>13.569429</ele>
        <time>2015-06-03T17:10:31Z</time>
      </trkpt>
      <trkpt lat="49.03951" lon="-1.58611">
        <ele>13.703538</ele>
        <time>2015-06-03T17:10:36Z</time>
      </trkpt>
      <trkpt lat="49.03958" lon="-1.58612">
        <ele>13.703538</ele>
        <time>2015-06-03T17:10:41Z</time>
      </trkpt>
      <trkpt lat="49.03963" lon="-1.58612">
        <ele>13.7533655</ele>
        <time>2015-06-03T17:10:46Z</time>
      </trkpt>
      <trkpt lat="49.0397" lon="-1.58614">
        <ele>13.7533655</ele>
        <time>2015-06-03T17:10:51Z</time>
      </trkpt>
      <trkpt lat="49.03977" lon="-1.58616">
        <ele>13.81146</ele>
        <time>2015-06-03T17:10:56Z</time>
      </trkpt>
      <trkpt lat="49.03983" lon="-1.58617">
        <ele>13.81146</ele>
        <time>2015-06-03T17:11:01Z</time>
      </trkpt>
      <trkpt lat="49.03988" lon="-1.58618">
        <ele>13.905906</ele>
        <time>2015-06-03T17:11:06Z</time>
      </trkpt>
      <trkpt lat="49.03995" lon="-1.58619">
        <ele>13.905906</ele>
        <time>2015-06-03T17:11:11Z</time>
      </trkpt>
      <trkpt lat="49.04002" lon="-1.58619">
        <ele>13.990576</ele>
        <time>2015-06-03T17:11:16Z</time>
      </trkpt>
      <trkpt lat="49.04009" lon="-1.58622">
        <ele>13.990576</ele>
        <time>2015-06-03T17:11:21Z</time>
      </trkpt>
      <trkpt lat="49.04014" lon="-1.58624">
        <ele>14.051585</ele>
        <time>2015-06-03T17:11:26Z</time>
      </trkpt>
      <trkpt lat="49.04019" lon="-1.58624">
        <ele>14.051585</ele>
        <time>2015-06-03T17:11:31Z</time>
      </trkpt>
      <trkpt lat="49.04023" lon="-1.58627">
        <ele>14.07614</ele>
        <time>2015-06-03T17:11:36Z</time>
      </trkpt>
      <trkpt lat="49.04025" lon="-1.58634">
        <ele>14.07614</ele>
        <time>2015-06-03T17:11:41Z</time>
      </trkpt>
      <trkpt lat="49.04024" lon="-1.5864">
        <ele>14.07614</ele>
        <time>2015-06-03T17:11:46Z</time>
      </trkpt>
      <trkpt lat="49.04025" lon="-1.58642">
        <ele>14.095729</ele>
        <time>2015-06-03T17:11:51Z</time>
      </trkpt>
      <trkpt lat="49.04029" lon="-1.58645">
        <ele>14.095729</ele>
        <time>2015-06-03T17:11:56Z</time>
      </trkpt>
      <trkpt lat="49.04032" lon="-1.58641">
        <ele>14.095729</ele>
        <time>2015-06-03T17:12:01Z</time>
      </trkpt>
      <trkpt lat="49.04034" lon="-1.58635">
        <ele>14.053078</ele>
        <time>2015-06-03T17:12:06Z</time>
      </trkpt>
      <trkpt lat="49.04038" lon="-1.58629">
        <ele>14.053078</ele>
        <time>2015-06-03T17:12:11Z</time>
      </trkpt>
      <trkpt lat="49.04044" lon="-1.58627">
        <ele>14.053823</ele>
        <time>2015-06-03T17:12:16Z</time>
      </trkpt>
      <trkpt lat="49.04047" lon="-1.58625">
        <ele>14.053823</ele>
        <time>2015-06-03T17:12:21Z</time>
      </trkpt>
      <trkpt lat="49.04053" lon="-1.58626">
        <ele>14.166901</ele>
        <time>2015-06-03T17:12:26Z</time>
      </trkpt>
      <trkpt lat="49.04061" lon="-1.58626">
        <ele>14.166901</ele>
        <time>2015-06-03T17:12:31Z</time>
      </trkpt>
      <trkpt lat="49.04067" lon="-1.58625">
        <ele>14.369404</ele>
        <time>2015-06-03T17:12:36Z</time>
      </trkpt>
      <trkpt lat="49.04073" lon="-1.58624">
        <ele>14.369404</ele>
        <time>2015-06-03T17:12:41Z</time>
      </trkpt>
      <trkpt lat="49.0408" lon="-1.58626">
        <ele>14.524576</ele>
        <time>2015-06-03T17:12:46Z</time>
      </trkpt>
      <trkpt lat="49.04087" lon="-1.58626">
        <ele>14.524576</ele>
        <time>2015-06-03T17:12:51Z</time>
      </trkpt>
      <trkpt lat="49.04092" lon="-1.58626">
        <ele>14.577897</ele>
        <time>2015-06-03T17:12:56Z</time>
      </trkpt>
      <trkpt lat="49.04098" lon="-1.58626">
        <ele>14.577897</ele>
        <time>2015-06-03T17:13:01Z</time>
      </trkpt>
      <trkpt lat="49.04105" lon="-1.58627">
        <ele>14.637666</ele>
        <time>2015-06-03T17:13:06Z</time>
      </trkpt>
      <trkpt lat="49.04112" lon="-1.58628">
        <ele>14.637666</ele>
        <time>2015-06-03T17:13:11Z</time>
      </trkpt>
      <trkpt lat="49.04118" lon="-1.58629">
        <ele>14.660102</ele>
        <time>2015-06-03T17:13:16Z</time>
      </trkpt>
      <trkpt lat="49.04124" lon="-1.58631">
        <ele>14.660102</ele>
        <time>2015-06-03T17:13:21Z</time>
      </trkpt>
      <trkpt lat="49.04131" lon="-1.58634">
        <ele>14.6479845</ele>
        <time>2015-06-03T17:13:26Z</time>
      </trkpt>
      <trkpt lat="49.04135" lon="-1.58635">
        <ele>14.6479845</ele>
        <time>2015-06-03T17:13:31Z</time>
      </trkpt>
      <trkpt lat="49.04141" lon="-1.58636">
        <ele>14.6184</ele>
        <time>2015-06-03T17:13:36Z</time>
      </trkpt>
      <trkpt lat="49.04148" lon="-1.58637">
        <ele>14.6184</ele>
        <time>2015-06-03T17:13:41Z</time>
      </trkpt>
      <trkpt lat="49.04154" lon="-1.58641">
        <ele>14.601644</ele>
        <time>2015-06-03T17:13:46Z</time>
      </trkpt>
      <trkpt lat="49.04162" lon="-1.58644">
        <ele>14.601644</ele>
        <time>2015-06-03T17:13:51Z</time>
      </trkpt>
      <trkpt lat="49.04167" lon="-1.58647">
        <ele>14.611344</ele>
        <time>2015-06-03T17:13:56Z</time>
      </trkpt>
      <trkpt lat="49.04173" lon="-1.58651">
        <ele>14.611344</ele>
        <time>2015-06-03T17:14:01Z</time>
      </trkpt>
      <trkpt lat="49.04179" lon="-1.58653">
        <ele>14.61682</ele>
        <time>2015-06-03T17:14:06Z</time>
      </trkpt>
      <trkpt lat="49.04184" lon="-1.58656">
        <ele>14.61682</ele>
        <time>2015-06-03T17:14:11Z</time>
      </trkpt>
      <trkpt lat="49.04188" lon="-1.58661">
        <ele>14.57525</ele>
        <time>2015-06-03T17:14:16Z</time>
      </trkpt>
      <trkpt lat="49.04194" lon="-1.58665">
        <ele>14.57525</ele>
        <time>2015-06-03T17:14:21Z</time>
      </trkpt>
      <trkpt lat="49.04199" lon="-1.58668">
        <ele>14.447088</ele>
        <time>2015-06-03T17:14:26Z</time>
      </trkpt>
      <trkpt lat="49.04205" lon="-1.5867">
        <ele>14.447088</ele>
        <time>2015-06-03T17:14:31Z</time>
      </trkpt>
      <trkpt lat="49.04211" lon="-1.58673">
        <ele>14.311229</ele>
        <time>2015-06-03T17:14:36Z</time>
      </trkpt>
      <trkpt lat="49.04216" lon="-1.58676">
        <ele>14.311229</ele>
        <time>2015-06-03T17:14:41Z</time>
      </trkpt>
      <trkpt lat="49.04222" lon="-1.58682">
        <ele>14.197556</ele>
        <time>2015-06-03T17:14:46Z</time>
      </trkpt>
      <trkpt lat="49.04228" lon="-1.58686">
        <ele>14.197556</ele>
        <time>2015-06-03T17:14:51Z</time>
      </trkpt>
      <trkpt lat="49.04232" lon="-1.58691">
        <ele>14.104872</ele>
        <time>2015-06-03T17:14:56Z</time>
      </trkpt>
      <trkpt lat="49.04236" lon="-1.58696">
        <ele>14.104872</ele>
        <time>2015-06-03T17:15:01Z</time>
      </trkpt>
      <trkpt lat="49.04242" lon="-1.58701">
        <ele>13.974361</ele>
        <time>2015-06-03T17:15:06Z</time>
      </trkpt>
      <trkpt lat="49.04248" lon="-1.58707">
        <ele>13.974361</ele>
        <time>2015-06-03T17:15:11Z</time>
      </trkpt>
      <trkpt lat="49.04253" lon="-1.58711">
        <ele>13.794865</ele>
        <time>2015-06-03T17:15:16Z</time>
      </trkpt>
      <trkpt lat="49.04258" lon="-1.58715">
        <ele>13.794865</ele>
        <time>2015-06-03T17:15:21Z</time>
      </trkpt>
      <trkpt lat="49.04264" lon="-1.5872">
        <ele>13.541762</ele>
        <time>2015-06-03T17:15:26Z</time>
      </trkpt>
      <trkpt lat="49.04269" lon="-1.58723">
        <ele>13.541762</ele>
        <time>2015-06-03T17:15:31Z</time>
      </trkpt>
      <trkpt lat="49.04274" lon="-1.58727">
        <ele>13.235675</ele>
        <time>2015-06-03T17:15:36Z</time>
      </trkpt>
      <trkpt lat="49.0428" lon="-1.58732">
        <ele>13.235675</ele>
        <time>2015-06-03T17:15:41Z</time>
      </trkpt>
      <trkpt lat="49.04286" lon="-1.58735">
        <ele>12.838203</ele>
        <time>2015-06-03T17:15:46Z</time>
      </trkpt>
      <trkpt lat="49.04291" lon="-1.5874">
        <ele>12.838203</ele>
        <time>2015-06-03T17:15:51Z</time>
      </trkpt>
      <trkpt lat="49.04296" lon="-1.58746">
        <ele>12.429306</ele>
        <time>2015-06-03T17:15:56Z</time>
      </trkpt>
      <trkpt lat="49.043" lon="-1.5875">
        <ele>12.429306</ele>
        <time>2015-06-03T17:16:01Z</time>
      </trkpt>
      <trkpt lat="49.04305" lon="-1.58755">
        <ele>12.155138</ele>
        <time>2015-06-03T17:16:06Z</time>
      </trkpt>
      <trkpt lat="49.0431" lon="-1.58761">
        <ele>12.155138</ele>
        <time>2015-06-03T17:16:11Z</time>
      </trkpt>
      <trkpt lat="49.04315" lon="-1.58764">
        <ele>11.920151</ele>
        <time>2015-06-03T17:16:16Z</time>
      </trkpt>
      <trkpt lat="49.04321" lon="-1.58768">
        <ele>11.920151</ele>
        <time>2015-06-03T17:16:21Z</time>
      </trkpt>
      <trkpt lat="49.04325" lon="-1.58772">
        <ele>11.678917</ele>
        <time>2015-06-03T17:16:26Z</time>
      </trkpt>
      <trkpt lat="49.04331" lon="-1.58776">
        <ele>11.678917</ele>
        <time>2015-06-03T17:16:31Z</time>
      </trkpt>
      <trkpt lat="49.04336" lon="-1.58781">
        <ele>11.446993</ele>
        <time>2015-06-03T17:16:36Z</time>
      </trkpt>
      <trkpt lat="49.04342" lon="-1.58784">
        <ele>11.446993</ele>
        <time>2015-06-03T17:16:41Z</time>
      </trkpt>
      <trkpt lat="49.04347" lon="-1.58789">
        <ele>11.224335</ele>
        <time>2015-06-03T17:16:46Z</time>
      </trkpt>
      <trkpt lat="49.04354" lon="-1.58794">
        <ele>11.224335</ele>
        <time>2015-06-03T17:16:51Z</time>
      </trkpt>
      <trkpt lat="49.04358" lon="-1.58798">
        <ele>10.967626</ele>
        <time>2015-06-03T17:16:56Z</time>
      </trkpt>
      <trkpt lat="49.04363" lon="-1.58804">
        <ele>10.967626</ele>
        <time>2015-06-03T17:17:01Z</time>
      </trkpt>
      <trkpt lat="49.04368" lon="-1.58805">
        <ele>10.7232685</ele>
        <time>2015-06-03T17:17:06Z</time>
      </trkpt>
      <trkpt lat="49.04375" lon="-1.5881">
        <ele>10.7232685</ele>
        <time>2015-06-03T17:17:11Z</time>
      </trkpt>
      <trkpt lat="49.04381" lon="-1.58814">
        <ele>10.519796</ele>
        <time>2015-06-03T17:17:16Z</time>
      </trkpt>
      <trkpt lat="49.04386" lon="-1.58818">
        <ele>10.519796</ele>
        <time>2015-06-03T17:17:21Z</time>
      </trkpt>
      <trkpt lat="49.04392" lon="-1.58822">
        <ele>10.253809</ele>
        <time>2015-06-03T17:17:26Z</time>
      </trkpt>
      <trkpt lat="49.04397" lon="-1.58826">
        <ele>10.253809</ele>
        <time>2015-06-03T17:17:31Z</time>
      </trkpt>
      <trkpt lat="49.04402" lon="-1.58833">
        <ele>9.930534</ele>
        <time>2015-06-03T17:17:36Z</time>
      </trkpt>
      <trkpt lat="49.04408" lon="-1.58836">
        <ele>9.930534</ele>
        <time>2015-06-03T17:17:41Z</time>
      </trkpt>
      <trkpt lat="49.04413" lon="-1.58839">
        <ele>9.598188</ele>
        <time>2015-06-03T17:17:46Z</time>
      </trkpt>
      <trkpt lat="49.04418" lon="-1.58844">
        <ele>9.598188</ele>
        <time>2015-06-03T17:17:51Z</time>
      </trkpt>
      <trkpt lat="49.04424" lon="-1.58849">
        <ele>9.272628</ele>
        <time>2015-06-03T17:17:56Z</time>
      </trkpt>
      <trkpt lat="49.04429" lon="-1.58854">
        <ele>9.272628</ele>
        <time>2015-06-03T17:18:01Z</time>
      </trkpt>
      <trkpt lat="49.04433" lon="-1.58859">
        <ele>8.939682</ele>
        <time>2015-06-03T17:18:06Z</time>
      </trkpt>
      <trkpt lat="49.04437" lon="-1.5886">
        <ele>8.939682</ele>
        <time>2015-06-03T17:18:11Z</time>
      </trkpt>
      <trkpt lat="49.04446" lon="-1.58865">
        <ele>8.687096</ele>
        <time>2015-06-03T17:18:16Z</time>
      </trkpt>
      <trkpt lat="49.0445" lon="-1.58869">
        <ele>8.687096</ele>
        <time>2015-06-03T17:18:21Z</time>
      </trkpt>
      <trkpt lat="49.04455" lon="-1.58873">
        <ele>8.495042</ele>
        <time>2015-06-03T17:18:26Z</time>
      </trkpt>
      <trkpt lat="49.04459" lon="-1.58881">
        <ele>8.495042</ele>
        <time>2015-06-03T17:18:31Z</time>
      </trkpt>
      <trkpt lat="49.04465" lon="-1.58886">
        <ele>8.37378</ele>
        <time>2015-06-03T17:18:36Z</time>
      </trkpt>
      <trkpt lat="49.04471" lon="-1.58893">
        <ele>8.37378</ele>
        <time>2015-06-03T17:18:41Z</time>
      </trkpt>
      <trkpt lat="49.04477" lon="-1.58898">
        <ele>8.260541</ele>
        <time>2015-06-03T17:18:46Z</time>
      </trkpt>
      <trkpt lat="49.04482" lon="-1.58901">
        <ele>8.260541</ele>
        <time>2015-06-03T17:18:51Z</time>
      </trkpt>
      <trkpt lat="49.04488" lon="-1.58904">
        <ele>8.082712</ele>
        <time>2015-06-03T17:18:56Z</time>
      </trkpt>
      <trkpt lat="49.04492" lon="-1.58908">
        <ele>8.082712</ele>
        <time>2015-06-03T17:19:01Z</time>
      </trkpt>
      <trkpt lat="49.04497" lon="-1.58912">
        <ele>7.8740525</ele>
        <time>2015-06-03T17:19:06Z</time>
      </trkpt>
      <trkpt lat="49.04502" lon="-1.58915">
        <ele>7.8740525</ele>
        <time>2015-06-03T17:19:11Z</time>
      </trkpt>
      <trkpt lat="49.04508" lon="-1.58919">
        <ele>7.781201</ele>
        <time>2015-06-03T17:19:16Z</time>
      </trkpt>
      <trkpt lat="49.04515" lon="-1.58925">
        <ele>7.781201</ele>
        <time>2015-06-03T17:19:21Z</time>
      </trkpt>
      <trkpt lat="49.04519" lon="-1.58928">
        <ele>7.7235136</ele>
        <time>2015-06-03T17:19:26Z</time>
      </trkpt>
      <trkpt lat="49.04522" lon="-1.58931">
        <ele>7.7235136</ele>
        <time>2015-06-03T17:19:31Z</time>
      </trkpt>
      <trkpt lat="49.04527" lon="-1.58934">
        <ele>7.741446</ele>
        <time>2015-06-03T17:19:36Z</time>
      </trkpt>
      <trkpt lat="49.04533" lon="-1.58937">
        <ele>7.741446</ele>
        <time>2015-06-03T17:19:41Z</time>
      </trkpt>
      <trkpt lat="49.04538" lon="-1.5894">
        <ele>7.713733</ele>
        <time>2015-06-03T17:19:46Z</time>
      </trkpt>
      <trkpt lat="49.04545" lon="-1.58946">
        <ele>7.713733</ele>
        <time>2015-06-03T17:19:51Z</time>
      </trkpt>
      <trkpt lat="49.0455" lon="-1.58947">
        <ele>7.6866565</ele>
        <time>2015-06-03T17:19:56Z</time>
      </trkpt>
      <trkpt lat="49.04556" lon="-1.58952">
        <ele>7.6866565</ele>
        <time>2015-06-03T17:20:01Z</time>
      </trkpt>
      <trkpt lat="49.04561" lon="-1.58957">
        <ele>7.674263</ele>
        <time>2015-06-03T17:20:06Z</time>
      </trkpt>
      <trkpt lat="49.04566" lon="-1.58962">
        <ele>7.674263</ele>
        <time>2015-06-03T17:20:11Z</time>
      </trkpt>
      <trkpt lat="49.04571" lon="-1.58968">
        <ele>7.732752</ele>
        <time>2015-06-03T17:20:16Z</time>
      </trkpt>
      <trkpt lat="49.04575" lon="-1.58971">
        <ele>7.732752</ele>
        <time>2015-06-03T17:20:21Z</time>
      </trkpt>
      <trkpt lat="49.04581" lon="-1.58975">
        <ele>7.8275228</ele>
        <time>2015-06-03T17:20:26Z</time>
      </trkpt>
      <trkpt lat="49.04584" lon="-1.58979">
        <ele>7.8275228</ele>
        <time>2015-06-03T17:20:31Z</time>
      </trkpt>
      <trkpt lat="49.0459" lon="-1.58984">
        <ele>7.897588</ele>
        <time>2015-06-03T17:20:36Z</time>
      </trkpt>
      <trkpt lat="49.04595" lon="-1.58991">
        <ele>7.897588</ele>
        <time>2015-06-03T17:20:41Z</time>
      </trkpt>
      <trkpt lat="49.04602" lon="-1.58995">
        <ele>7.958563</ele>
        <time>2015-06-03T17:20:46Z</time>
      </trkpt>
      <trkpt lat="49.04606" lon="-1.59002">
        <ele>7.958563</ele>
        <time>2015-06-03T17:20:51Z</time>
      </trkpt>
      <trkpt lat="49.04611" lon="-1.59007">
        <ele>8.0249405</ele>
        <time>2015-06-03T17:20:56Z</time>
      </trkpt>
      <trkpt lat="49.04616" lon="-1.59012">
        <ele>8.0249405</ele>
        <time>2015-06-03T17:21:01Z</time>
      </trkpt>
      <trkpt lat="49.04622" lon="-1.59016">
        <ele>8.110137</ele>
        <time>2015-06-03T17:21:06Z</time>
      </trkpt>
      <trkpt lat="49.04627" lon="-1.59022">
        <ele>8.110137</ele>
        <time>2015-06-03T17:21:11Z</time>
      </trkpt>
      <trkpt lat="49.04632" lon="-1.59027">
        <ele>8.154478</ele>
        <time>2015-06-03T17:21:16Z</time>
      </trkpt>
      <trkpt lat="49.04637" lon="-1.59031">
        <ele>8.154478</ele>
        <time>2015-06-03T17:21:21Z</time>
      </trkpt>
      <trkpt lat="49.04642" lon="-1.59036">
        <ele>8.232491</ele>
        <time>2015-06-03T17:21:26Z</time>
      </trkpt>
      <trkpt lat="49.04647" lon="-1.59042">
        <ele>8.232491</ele>
        <time>2015-06-03T17:21:31Z</time>
      </trkpt>
      <trkpt lat="49.04652" lon="-1.59049">
        <ele>8.312263</ele>
        <time>2015-06-03T17:21:36Z</time>
      </trkpt>
      <trkpt lat="49.04657" lon="-1.59053">
        <ele>8.312263</ele>
        <time>2015-06-03T17:21:41Z</time>
      </trkpt>
      <trkpt lat="49.04662" lon="-1.59058">
        <ele>8.37864</ele>
        <time>2015-06-03T17:21:46Z</time>
      </trkpt>
      <trkpt lat="49.04667" lon="-1.59062">
        <ele>8.37864</ele>
        <time>2015-06-03T17:21:51Z</time>
      </trkpt>
      <trkpt lat="49.04674" lon="-1.59069">
        <ele>8.446451</ele>
        <time>2015-06-03T17:21:56Z</time>
      </trkpt>
      <trkpt lat="49.04678" lon="-1.59072">
        <ele>8.446451</ele>
        <time>2015-06-03T17:22:01Z</time>
      </trkpt>
      <trkpt lat="49.04683" lon="-1.59076">
        <ele>8.500618</ele>
        <time>2015-06-03T17:22:06Z</time>
      </trkpt>
      <trkpt lat="49.04688" lon="-1.59082">
        <ele>8.500618</ele>
        <time>2015-06-03T17:22:11Z</time>
      </trkpt>
      <trkpt lat="49.04694" lon="-1.59087">
        <ele>8.599275</ele>
        <time>2015-06-03T17:22:16Z</time>
      </trkpt>
      <trkpt lat="49.04698" lon="-1.59094">
        <ele>8.599275</ele>
        <time>2015-06-03T17:22:21Z</time>
      </trkpt>
      <trkpt lat="49.04703" lon="-1.59098">
        <ele>8.680882</ele>
        <time>2015-06-03T17:22:26Z</time>
      </trkpt>
      <trkpt lat="49.04709" lon="-1.59102">
        <ele>8.680882</ele>
        <time>2015-06-03T17:22:31Z</time>
      </trkpt>
      <trkpt lat="49.04713" lon="-1.59105">
        <ele>8.717308</ele>
        <time>2015-06-03T17:22:36Z</time>
      </trkpt>
      <trkpt lat="49.04718" lon="-1.59109">
        <ele>8.717308</ele>
        <time>2015-06-03T17:22:41Z</time>
      </trkpt>
      <trkpt lat="49.04722" lon="-1.59117">
        <ele>8.783501</ele>
        <time>2015-06-03T17:22:46Z</time>
      </trkpt>
      <trkpt lat="49.04728" lon="-1.59121">
        <ele>8.783501</ele>
        <time>2015-06-03T17:22:51Z</time>
      </trkpt>
      <trkpt lat="49.04733" lon="-1.59126">
        <ele>8.819135</ele>
        <time>2015-06-03T17:22:56Z</time>
      </trkpt>
      <trkpt lat="49.04738" lon="-1.59132">
        <ele>8.819135</ele>
        <time>2015-06-03T17:23:01Z</time>
      </trkpt>
      <trkpt lat="49.04744" lon="-1.59137">
        <ele>8.782825</ele>
        <time>2015-06-03T17:23:06Z</time>
      </trkpt>
      <trkpt lat="49.04748" lon="-1.59143">
        <ele>8.782825</ele>
        <time>2015-06-03T17:23:11Z</time>
      </trkpt>
      <trkpt lat="49.04755" lon="-1.59148">
        <ele>8.794969</ele>
        <time>2015-06-03T17:23:16Z</time>
      </trkpt>
      <trkpt lat="49.0476" lon="-1.59154">
        <ele>8.794969</ele>
        <time>2015-06-03T17:23:21Z</time>
      </trkpt>
      <trkpt lat="49.04765" lon="-1.59159">
        <ele>8.80847</ele>
        <time>2015-06-03T17:23:26Z</time>
      </trkpt>
      <trkpt lat="49.0477" lon="-1.59164">
        <ele>8.80847</ele>
        <time>2015-06-03T17:23:31Z</time>
      </trkpt>
      <trkpt lat="49.04774" lon="-1.59171">
        <ele>8.837348</ele>
        <time>2015-06-03T17:23:36Z</time>
      </trkpt>
      <trkpt lat="49.04781" lon="-1.59179">
        <ele>8.837348</ele>
        <time>2015-06-03T17:23:41Z</time>
      </trkpt>
      <trkpt lat="49.04785" lon="-1.59184">
        <ele>8.851331</ele>
        <time>2015-06-03T17:23:46Z</time>
      </trkpt>
      <trkpt lat="49.0479" lon="-1.59191">
        <ele>8.851331</ele>
        <time>2015-06-03T17:23:51Z</time>
      </trkpt>
      <trkpt lat="49.04795" lon="-1.59197">
        <ele>8.865658</ele>
        <time>2015-06-03T17:23:56Z</time>
      </trkpt>
      <trkpt lat="49.04798" lon="-1.59205">
        <ele>8.865658</ele>
        <time>2015-06-03T17:24:01Z</time>
      </trkpt>
      <trkpt lat="49.04802" lon="-1.59212">
        <ele>8.923283</ele>
        <time>2015-06-03T17:24:06Z</time>
      </trkpt>
      <trkpt lat="49.04808" lon="-1.59217">
        <ele>8.923283</ele>
        <time>2015-06-03T17:24:11Z</time>
      </trkpt>
      <trkpt lat="49.04814" lon="-1.59223">
        <ele>9.00625</ele>
        <time>2015-06-03T17:24:16Z</time>
      </trkpt>
      <trkpt lat="49.04819" lon="-1.59228">
        <ele>9.00625</ele>
        <time>2015-06-03T17:24:21Z</time>
      </trkpt>
      <trkpt lat="49.04825" lon="-1.59234">
        <ele>8.982581</ele>
        <time>2015-06-03T17:24:26Z</time>
      </trkpt>
      <trkpt lat="49.04831" lon="-1.59239">
        <ele>8.982581</ele>
        <time>2015-06-03T17:24:31Z</time>
      </trkpt>
      <trkpt lat="49.04836" lon="-1.59245">
        <ele>8.87441</ele>
        <time>2015-06-03T17:24:36Z</time>
      </trkpt>
      <trkpt lat="49.04841" lon="-1.59251">
        <ele>8.87441</ele>
        <time>2015-06-03T17:24:41Z</time>
      </trkpt>
      <trkpt lat="49.04846" lon="-1.59255">
        <ele>8.774551</ele>
        <time>2015-06-03T17:24:46Z</time>
      </trkpt>
      <trkpt lat="49.04853" lon="-1.59261">
        <ele>8.774551</ele>
        <time>2015-06-03T17:24:51Z</time>
      </trkpt>
      <trkpt lat="49.04858" lon="-1.59265">
        <ele>8.610468</ele>
        <time>2015-06-03T17:24:56Z</time>
      </trkpt>
      <trkpt lat="49.04863" lon="-1.59269">
        <ele>8.610468</ele>
        <time>2015-06-03T17:25:01Z</time>
      </trkpt>
      <trkpt lat="49.04868" lon="-1.59272">
        <ele>8.430429</ele>
        <time>2015-06-03T17:25:06Z</time>
      </trkpt>
      <trkpt lat="49.04875" lon="-1.59276">
        <ele>8.430429</ele>
        <time>2015-06-03T17:25:11Z</time>
      </trkpt>
      <trkpt lat="49.04882" lon="-1.5928">
        <ele>8.178335</ele>
        <time>2015-06-03T17:25:16Z</time>
      </trkpt>
      <trkpt lat="49.04887" lon="-1.59283">
        <ele>8.178335</ele>
        <time>2015-06-03T17:25:21Z</time>
      </trkpt>
      <trkpt lat="49.04892" lon="-1.59286">
        <ele>7.9032903</ele>
        <time>2015-06-03T17:25:26Z</time>
      </trkpt>
      <trkpt lat="49.04898" lon="-1.59289">
        <ele>7.9032903</ele>
        <time>2015-06-03T17:25:31Z</time>
      </trkpt>
      <trkpt lat="49.04902" lon="-1.59293">
        <ele>7.7229185</ele>
        <time>2015-06-03T17:25:36Z</time>
      </trkpt>
      <trkpt lat="49.04908" lon="-1.59296">
        <ele>7.7229185</ele>
        <time>2015-06-03T17:25:41Z</time>
      </trkpt>
      <trkpt lat="49.04913" lon="-1.593">
        <ele>7.5441833</ele>
        <time>2015-06-03T17:25:46Z</time>
      </trkpt>
      <trkpt lat="49.04918" lon="-1.59304">
        <ele>7.5441833</ele>
        <time>2015-06-03T17:25:51Z</time>
      </trkpt>
      <trkpt lat="49.0492" lon="-1.59306">
        <ele>7.5441833</ele>
        <time>2015-06-03T17:25:56Z</time>
      </trkpt>
      <trkpt lat="49.0492" lon="-1.59309">
        <ele>7.482635</ele>
        <time>2015-06-03T17:26:01Z</time>
      </trkpt>
      <trkpt lat="49.04922" lon="-1.59311">
        <ele>7.482635</ele>
        <time>2015-06-03T17:26:06Z</time>
      </trkpt>
      <trkpt lat="49.04923" lon="-1.59314">
        <ele>7.482635</ele>
        <time>2015-06-03T17:26:11Z</time>
      </trkpt>
      <trkpt lat="49.04923" lon="-1.59315">
        <ele>7.482635</ele>
        <time>2015-06-03T17:26:16Z</time>
      </trkpt>
      <trkpt lat="49.04925" lon="-1.59313">
        <ele>7.482635</ele>
        <time>2015-06-03T17:26:21Z</time>
      </trkpt>
      <trkpt lat="49.04925" lon="-1.59309">
        <ele>7.572952</ele>
        <time>2015-06-03T17:26:26Z</time>
      </trkpt>
      <trkpt lat="49.04925" lon="-1.59304">
        <ele>7.572952</ele>
        <time>2015-06-03T17:26:31Z</time>
      </trkpt>
      <trkpt lat="49.04928" lon="-1.59302">
        <ele>7.572952</ele>
        <time>2015-06-03T17:26:36Z</time>
      </trkpt>
      <trkpt lat="49.04935" lon="-1.59298">
        <ele>7.702728</ele>
        <time>2015-06-03T17:26:41Z</time>
      </trkpt>
      <trkpt lat="49.0494" lon="-1.59296">
        <ele>7.702728</ele>
        <time>2015-06-03T17:26:46Z</time>
      </trkpt>
      <trkpt lat="49.04945" lon="-1.59293">
        <ele>7.8974037</ele>
        <time>2015-06-03T17:26:51Z</time>
      </trkpt>
      <trkpt lat="49.04946" lon="-1.59288">
        <ele>7.8974037</ele>
        <time>2015-06-03T17:26:56Z</time>
      </trkpt>
      <trkpt lat="49.04951" lon="-1.59279">
        <ele>8.180372</ele>
        <time>2015-06-03T17:27:01Z</time>
      </trkpt>
      <trkpt lat="49.04953" lon="-1.59269">
        <ele>8.180372</ele>
        <time>2015-06-03T17:27:06Z</time>
      </trkpt>
      <trkpt lat="49.04954" lon="-1.5926">
        <ele>8.328075</ele>
        <time>2015-06-03T17:27:11Z</time>
      </trkpt>
      <trkpt lat="49.04955" lon="-1.59253">
        <ele>8.328075</ele>
        <time>2015-06-03T17:27:16Z</time>
      </trkpt>
      <trkpt lat="49.04955" lon="-1.59243">
        <ele>8.378752</ele>
        <time>2015-06-03T17:27:21Z</time>
      </trkpt>
      <trkpt lat="49.04956" lon="-1.59234">
        <ele>8.378752</ele>
        <time>2015-06-03T17:27:26Z</time>
      </trkpt>
      <trkpt lat="49.04958" lon="-1.59223">
        <ele>8.425752</ele>
        <time>2015-06-03T17:27:31Z</time>
      </trkpt>
      <trkpt lat="49.04959" lon="-1.59214">
        <ele>8.425752</ele>
        <time>2015-06-03T17:27:36Z</time>
      </trkpt>
      <trkpt lat="49.04961" lon="-1.59206">
        <ele>8.4403</ele>
        <time>2015-06-03T17:27:41Z</time>
      </trkpt>
      <trkpt lat="49.04964" lon="-1.59198">
        <ele>8.4403</ele>
        <time>2015-06-03T17:27:46Z</time>
      </trkpt>
      <trkpt lat="49.04969" lon="-1.59192">
        <ele>8.410242</ele>
        <time>2015-06-03T17:27:51Z</time>
      </trkpt>
      <trkpt lat="49.04972" lon="-1.59187">
        <ele>8.410242</ele>
        <time>2015-06-03T17:27:56Z</time>
      </trkpt>
      <trkpt lat="49.04977" lon="-1.5918">
        <ele>8.396507</ele>
        <time>2015-06-03T17:28:01Z</time>
      </trkpt>
      <trkpt lat="49.04982" lon="-1.59174">
        <ele>8.396507</ele>
        <time>2015-06-03T17:28:06Z</time>
      </trkpt>
      <trkpt lat="49.04988" lon="-1.59169">
        <ele>8.325806</ele>
        <time>2015-06-03T17:28:11Z</time>
      </trkpt>
      <trkpt lat="49.04991" lon="-1.59165">
        <ele>8.325806</ele>
        <time>2015-06-03T17:28:16Z</time>
      </trkpt>
      <trkpt lat="49.04999" lon="-1.59157">
        <ele>8.202457</ele>
        <time>2015-06-03T17:28:21Z</time>
      </trkpt>
      <trkpt lat="49.05003" lon="-1.59153">
        <ele>8.202457</ele>
        <time>2015-06-03T17:28:26Z</time>
      </trkpt>
      <trkpt lat="49.05007" lon="-1.59149">
        <ele>8.073849</ele>
        <time>2015-06-03T17:28:31Z</time>
      </trkpt>
      <trkpt lat="49.05013" lon="-1.59145">
        <ele>8.073849</ele>
        <time>2015-06-03T17:28:36Z</time>
      </trkpt>
      <trkpt lat="49.05018" lon="-1.59142">
        <ele>8.027137</ele>
        <time>2015-06-03T17:28:41Z</time>
      </trkpt>
      <trkpt lat="49.05023" lon="-1.5914">
        <ele>8.027137</ele>
        <time>2015-06-03T17:28:46Z</time>
      </trkpt>
      <trkpt lat="49.0503" lon="-1.59136">
        <ele>8.041975</ele>
        <time>2015-06-03T17:28:51Z</time>
      </trkpt>
      <trkpt lat="49.05036" lon="-1.59133">
        <ele>8.041975</ele>
        <time>2015-06-03T17:28:56Z</time>
      </trkpt>
      <trkpt lat="49.05043" lon="-1.5913">
        <ele>8.12816</ele>
        <time>2015-06-03T17:29:01Z</time>
      </trkpt>
      <trkpt lat="49.05047" lon="-1.59128">
        <ele>8.12816</ele>
        <time>2015-06-03T17:29:06Z</time>
      </trkpt>
      <trkpt lat="49.05053" lon="-1.59126">
        <ele>8.294577</ele>
        <time>2015-06-03T17:29:11Z</time>
      </trkpt>
      <trkpt lat="49.05059" lon="-1.59123">
        <ele>8.294577</ele>
        <time>2015-06-03T17:29:16Z</time>
      </trkpt>
      <trkpt lat="49.05066" lon="-1.59121">
        <ele>8.477176</ele>
        <time>2015-06-03T17:29:21Z</time>
      </trkpt>
      <trkpt lat="49.05071" lon="-1.5912">
        <ele>8.477176</ele>
        <time>2015-06-03T17:29:26Z</time>
      </trkpt>
      <trkpt lat="49.05076" lon="-1.5912">
        <ele>8.717454</ele>
        <time>2015-06-03T17:29:31Z</time>
      </trkpt>
      <trkpt lat="49.05082" lon="-1.59119">
        <ele>8.717454</ele>
        <time>2015-06-03T17:29:36Z</time>
      </trkpt>
      <trkpt lat="49.05087" lon="-1.59116">
        <ele>9.053701</ele>
        <time>2015-06-03T17:29:41Z</time>
      </trkpt>
      <trkpt lat="49.05092" lon="-1.59114">
        <ele>9.053701</ele>
        <time>2015-06-03T17:29:46Z</time>
      </trkpt>
      <trkpt lat="49.05099" lon="-1.59114">
        <ele>9.521134</ele>
        <time>2015-06-03T17:29:51Z</time>
      </trkpt>
      <trkpt lat="49.05105" lon="-1.59115">
        <ele>9.521134</ele>
        <time>2015-06-03T17:29:56Z</time>
      </trkpt>
      <trkpt lat="49.05112" lon="-1.59115">
        <ele>10.007916</ele>
        <time>2015-06-03T17:30:01Z</time>
      </trkpt>
      <trkpt lat="49.05118" lon="-1.59116">
        <ele>10.007916</ele>
        <time>2015-06-03T17:30:06Z</time>
      </trkpt>
      <trkpt lat="49.05124" lon="-1.59116">
        <ele>10.482439</ele>
        <time>2015-06-03T17:30:11Z</time>
      </trkpt>
      <trkpt lat="49.05131" lon="-1.59118">
        <ele>10.482439</ele>
        <time>2015-06-03T17:30:16Z</time>
      </trkpt>
      <trkpt lat="49.05138" lon="-1.59121">
        <ele>10.929876</ele>
        <time>2015-06-03T17:30:21Z</time>
      </trkpt>
      <trkpt lat="49.05143" lon="-1.5912">
        <ele>10.929876</ele>
        <time>2015-06-03T17:30:26Z</time>
      </trkpt>
      <trkpt lat="49.05149" lon="-1.5912">
        <ele>11.307765</ele>
        <time>2015-06-03T17:30:31Z</time>
      </trkpt>
      <trkpt lat="49.05155" lon="-1.5912">
        <ele>11.307765</ele>
        <time>2015-06-03T17:30:36Z</time>
      </trkpt>
      <trkpt lat="49.05161" lon="-1.59121">
        <ele>11.706677</ele>
        <time>2015-06-03T17:30:41Z</time>
      </trkpt>
      <trkpt lat="49.05166" lon="-1.59121">
        <ele>11.706677</ele>
        <time>2015-06-03T17:30:46Z</time>
      </trkpt>
      <trkpt lat="49.05172" lon="-1.59122">
        <ele>12.181674</ele>
        <time>2015-06-03T17:30:51Z</time>
      </trkpt>
      <trkpt lat="49.05178" lon="-1.59122">
        <ele>12.181674</ele>
        <time>2015-06-03T17:30:56Z</time>
      </trkpt>
      <trkpt lat="49.05183" lon="-1.59123">
        <ele>12.668291</ele>
        <time>2015-06-03T17:31:01Z</time>
      </trkpt>
      <trkpt lat="49.05191" lon="-1.59125">
        <ele>12.668291</ele>
        <time>2015-06-03T17:31:06Z</time>
      </trkpt>
      <trkpt lat="49.05197" lon="-1.59126">
        <ele>13.092384</ele>
        <time>2015-06-03T17:31:11Z</time>
      </trkpt>
      <trkpt lat="49.05203" lon="-1.59128">
        <ele>13.092384</ele>
        <time>2015-06-03T17:31:16Z</time>
      </trkpt>
      <trkpt lat="49.0521" lon="-1.59127">
        <ele>13.399868</ele>
        <time>2015-06-03T17:31:21Z</time>
      </trkpt>
      <trkpt lat="49.05216" lon="-1.59129">
        <ele>13.399868</ele>
        <time>2015-06-03T17:31:26Z</time>
      </trkpt>
      <trkpt lat="49.05221" lon="-1.59129">
        <ele>13.526575</ele>
        <time>2015-06-03T17:31:31Z</time>
      </trkpt>
      <trkpt lat="49.05228" lon="-1.5913">
        <ele>13.526575</ele>
        <time>2015-06-03T17:31:36Z</time>
      </trkpt>
      <trkpt lat="49.05233" lon="-1.59131">
        <ele>13.600929</ele>
        <time>2015-06-03T17:31:41Z</time>
      </trkpt>
      <trkpt lat="49.0524" lon="-1.5913">
        <ele>13.600929</ele>
        <time>2015-06-03T17:31:46Z</time>
      </trkpt>
      <trkpt lat="49.05247" lon="-1.59132">
        <ele>13.655629</ele>
        <time>2015-06-03T17:31:51Z</time>
      </trkpt>
      <trkpt lat="49.05253" lon="-1.59132">
        <ele>13.655629</ele>
        <time>2015-06-03T17:31:56Z</time>
      </trkpt>
      <trkpt lat="49.05259" lon="-1.59133">
        <ele>13.6345825</ele>
        <time>2015-06-03T17:32:01Z</time>
      </trkpt>
      <trkpt lat="49.05264" lon="-1.59135">
        <ele>13.6345825</ele>
        <time>2015-06-03T17:32:06Z</time>
      </trkpt>
      <trkpt lat="49.05271" lon="-1.59136">
        <ele>13.543697</ele>
        <time>2015-06-03T17:32:11Z</time>
      </trkpt>
      <trkpt lat="49.05275" lon="-1.59136">
        <ele>13.543697</ele>
        <time>2015-06-03T17:32:16Z</time>
      </trkpt>
      <trkpt lat="49.05284" lon="-1.59135">
        <ele>13.403074</ele>
        <time>2015-06-03T17:32:21Z</time>
      </trkpt>
      <trkpt lat="49.0529" lon="-1.59135">
        <ele>13.403074</ele>
        <time>2015-06-03T17:32:26Z</time>
      </trkpt>
      <trkpt lat="49.05298" lon="-1.59138">
        <ele>13.231493</ele>
        <time>2015-06-03T17:32:31Z</time>
      </trkpt>
      <trkpt lat="49.05303" lon="-1.5914">
        <ele>13.231493</ele>
        <time>2015-06-03T17:32:36Z</time>
      </trkpt>
      <trkpt lat="49.05309" lon="-1.59141">
        <ele>13.003219</ele>
        <time>2015-06-03T17:32:41Z</time>
      </trkpt>
      <trkpt lat="49.05314" lon="-1.59141">
        <ele>13.003219</ele>
        <time>2015-06-03T17:32:46Z</time>
      </trkpt>
      <trkpt lat="49.0532" lon="-1.59141">
        <ele>12.737811</ele>
        <time>2015-06-03T17:32:51Z</time>
      </trkpt>
      <trkpt lat="49.05325" lon="-1.59142">
        <ele>12.737811</ele>
        <time>2015-06-03T17:32:56Z</time>
      </trkpt>
      <trkpt lat="49.05331" lon="-1.59143">
        <ele>12.55438</ele>
        <time>2015-06-03T17:33:01Z</time>
      </trkpt>
      <trkpt lat="49.05337" lon="-1.59147">
        <ele>12.55438</ele>
        <time>2015-06-03T17:33:06Z</time>
      </trkpt>
      <trkpt lat="49.05344" lon="-1.5915">
        <ele>12.332481</ele>
        <time>2015-06-03T17:33:11Z</time>
      </trkpt>
      <trkpt lat="49.05351" lon="-1.59154">
        <ele>12.332481</ele>
        <time>2015-06-03T17:33:16Z</time>
      </trkpt>
      <trkpt lat="49.05356" lon="-1.59159">
        <ele>12.003858</ele>
        <time>2015-06-03T17:33:21Z</time>
      </trkpt>
      <trkpt lat="49.05361" lon="-1.59162">
        <ele>12.003858</ele>
        <time>2015-06-03T17:33:26Z</time>
      </trkpt>
      <trkpt lat="49.05366" lon="-1.59168">
        <ele>11.577617</ele>
        <time>2015-06-03T17:33:31Z</time>
      </trkpt>
      <trkpt lat="49.05371" lon="-1.59173">
        <ele>11.577617</ele>
        <time>2015-06-03T17:33:36Z</time>
      </trkpt>
      <trkpt lat="49.05377" lon="-1.59175">
        <ele>11.1489315</ele>
        <time>2015-06-03T17:33:41Z</time>
      </trkpt>
      <trkpt lat="49.05382" lon="-1.59174">
        <ele>11.1489315</ele>
        <time>2015-06-03T17:33:46Z</time>
      </trkpt>
      <trkpt lat="49.05388" lon="-1.59171">
        <ele>10.820391</ele>
        <time>2015-06-03T17:33:51Z</time>
      </trkpt>
      <trkpt lat="49.05393" lon="-1.59171">
        <ele>10.820391</ele>
        <time>2015-06-03T17:33:56Z</time>
      </trkpt>
      <trkpt lat="49.05399" lon="-1.59172">
        <ele>10.6579275</ele>
        <time>2015-06-03T17:34:01Z</time>
      </trkpt>
      <trkpt lat="49.05407" lon="-1.5918">
        <ele>10.534808</ele>
        <time>2015-06-03T17:34:06Z</time>
      </trkpt>
      <trkpt lat="49.05411" lon="-1.59184">
        <ele>10.534808</ele>
        <time>2015-06-03T17:34:11Z</time>
      </trkpt>
      <trkpt lat="49.05416" lon="-1.59188">
        <ele>10.3623</ele>
        <time>2015-06-03T17:34:16Z</time>
      </trkpt>
      <trkpt lat="49.05422" lon="-1.59191">
        <ele>10.3623</ele>
        <time>2015-06-03T17:34:21Z</time>
      </trkpt>
      <trkpt lat="49.05429" lon="-1.592">
        <ele>10.1159525</ele>
        <time>2015-06-03T17:34:26Z</time>
      </trkpt>
      <trkpt lat="49.05433" lon="-1.59205">
        <ele>10.1159525</ele>
        <time>2015-06-03T17:34:31Z</time>
      </trkpt>
      <trkpt lat="49.05438" lon="-1.5921">
        <ele>9.845355</ele>
        <time>2015-06-03T17:34:36Z</time>
      </trkpt>
      <trkpt lat="49.05443" lon="-1.59215">
        <ele>9.845355</ele>
        <time>2015-06-03T17:34:41Z</time>
      </trkpt>
      <trkpt lat="49.05446" lon="-1.59219">
        <ele>9.567678</ele>
        <time>2015-06-03T17:34:46Z</time>
      </trkpt>
      <trkpt lat="49.05452" lon="-1.59224">
        <ele>9.567678</ele>
        <time>2015-06-03T17:34:51Z</time>
      </trkpt>
      <trkpt lat="49.05456" lon="-1.59228">
        <ele>9.298828</ele>
        <time>2015-06-03T17:34:56Z</time>
      </trkpt>
      <trkpt lat="49.05461" lon="-1.59232">
        <ele>9.298828</ele>
        <time>2015-06-03T17:35:01Z</time>
      </trkpt>
      <trkpt lat="49.05466" lon="-1.59236">
        <ele>8.967029</ele>
        <time>2015-06-03T17:35:06Z</time>
      </trkpt>
      <trkpt lat="49.05471" lon="-1.59241">
        <ele>8.967029</ele>
        <time>2015-06-03T17:35:11Z</time>
      </trkpt>
      <trkpt lat="49.05477" lon="-1.59246">
        <ele>8.664448</ele>
        <time>2015-06-03T17:35:16Z</time>
      </trkpt>
      <trkpt lat="49.05483" lon="-1.5925">
        <ele>8.664448</ele>
        <time>2015-06-03T17:35:21Z</time>
      </trkpt>
      <trkpt lat="49.05488" lon="-1.59254">
        <ele>8.332267</ele>
        <time>2015-06-03T17:35:26Z</time>
      </trkpt>
      <trkpt lat="49.05493" lon="-1.59257">
        <ele>8.332267</ele>
        <time>2015-06-03T17:35:31Z</time>
      </trkpt>
      <trkpt lat="49.05497" lon="-1.59262">
        <ele>7.988098</ele>
        <time>2015-06-03T17:35:36Z</time>
      </trkpt>
      <trkpt lat="49.05503" lon="-1.59269">
        <ele>7.988098</ele>
        <time>2015-06-03T17:35:41Z</time>
      </trkpt>
      <trkpt lat="49.05509" lon="-1.59274">
        <ele>7.662676</ele>
        <time>2015-06-03T17:35:46Z</time>
      </trkpt>
      <trkpt lat="49.05513" lon="-1.59277">
        <ele>7.662676</ele>
        <time>2015-06-03T17:35:51Z</time>
      </trkpt>
      <trkpt lat="49.05515" lon="-1.59282">
        <ele>7.662676</ele>
        <time>2015-06-03T17:35:56Z</time>
      </trkpt>
      <trkpt lat="49.05516" lon="-1.59281">
        <ele>7.29793</ele>
        <time>2015-06-03T17:36:01Z</time>
      </trkpt>
      <trkpt lat="49.05515" lon="-1.59281">
        <ele>7.29793</ele>
        <time>2015-06-03T17:36:06Z</time>
      </trkpt>
      <trkpt lat="49.05515" lon="-1.59282">
        <ele>7.29793</ele>
        <time>2015-06-03T17:36:11Z</time>
      </trkpt>
      <trkpt lat="49.05515" lon="-1.59281">
        <ele>7.29793</ele>
        <time>2015-06-03T17:36:16Z</time>
      </trkpt>
      <trkpt lat="49.05515" lon="-1.59283">
        <ele>7.29793</ele>
        <time>2015-06-03T17:36:21Z</time>
      </trkpt>
      <trkpt lat="49.05517" lon="-1.59285">
        <ele>7.29793</ele>
        <time>2015-06-03T17:36:26Z</time>
      </trkpt>
      <trkpt lat="49.05523" lon="-1.59288">
        <ele>6.9698358</ele>
        <time>2015-06-03T17:36:31Z</time>
      </trkpt>
      <trkpt lat="49.05528" lon="-1.59292">
        <ele>6.9698358</ele>
        <time>2015-06-03T17:36:36Z</time>
      </trkpt>
      <trkpt lat="49.05533" lon="-1.59296">
        <ele>6.618954</ele>
        <time>2015-06-03T17:36:41Z</time>
      </trkpt>
      <trkpt lat="49.05537" lon="-1.59296">
        <ele>6.618954</ele>
        <time>2015-06-03T17:36:46Z</time>
      </trkpt>
      <trkpt lat="49.05543" lon="-1.59297">
        <ele>6.3775916</ele>
        <time>2015-06-03T17:36:51Z</time>
      </trkpt>
      <trkpt lat="49.05549" lon="-1.593">
        <ele>6.3775916</ele>
        <time>2015-06-03T17:36:56Z</time>
      </trkpt>
      <trkpt lat="49.05555" lon="-1.59304">
        <ele>6.2527065</ele>
        <time>2015-06-03T17:37:01Z</time>
      </trkpt>
      <trkpt lat="49.05558" lon="-1.59307">
        <ele>6.2527065</ele>
        <time>2015-06-03T17:37:06Z</time>
      </trkpt>
      <trkpt lat="49.05563" lon="-1.59315">
        <ele>6.149513</ele>
        <time>2015-06-03T17:37:11Z</time>
      </trkpt>
      <trkpt lat="49.05568" lon="-1.59319">
        <ele>6.149513</ele>
        <time>2015-06-03T17:37:16Z</time>
      </trkpt>
      <trkpt lat="49.05572" lon="-1.59324">
        <ele>6.066563</ele>
        <time>2015-06-03T17:37:21Z</time>
      </trkpt>
      <trkpt lat="49.05576" lon="-1.5933">
        <ele>6.066563</ele>
        <time>2015-06-03T17:37:26Z</time>
      </trkpt>
      <trkpt lat="49.05581" lon="-1.59337">
        <ele>5.9159675</ele>
        <time>2015-06-03T17:37:31Z</time>
      </trkpt>
      <trkpt lat="49.05585" lon="-1.59341">
        <ele>5.9159675</ele>
        <time>2015-06-03T17:37:36Z</time>
      </trkpt>
      <trkpt lat="49.05585" lon="-1.59341">
        <ele>5.9159675</ele>
        <time>2015-06-03T17:37:41Z</time>
      </trkpt>
      <trkpt lat="49.05585" lon="-1.59343">
        <ele>5.9159675</ele>
        <time>2015-06-03T17:37:46Z</time>
      </trkpt>
      <trkpt lat="49.05586" lon="-1.59345">
        <ele>5.9159675</ele>
        <time>2015-06-03T17:37:51Z</time>
      </trkpt>
      <trkpt lat="49.05586" lon="-1.59344">
        <ele>5.9159675</ele>
        <time>2015-06-03T17:37:56Z</time>
      </trkpt>
      <trkpt lat="49.0559" lon="-1.59346">
        <ele>5.616453</ele>
        <time>2015-06-03T17:38:01Z</time>
      </trkpt>
      <trkpt lat="49.05595" lon="-1.59348">
        <ele>5.616453</ele>
        <time>2015-06-03T17:38:06Z</time>
      </trkpt>
      <trkpt lat="49.05601" lon="-1.59352">
        <ele>5.5398583</ele>
        <time>2015-06-03T17:38:11Z</time>
      </trkpt>
      <trkpt lat="49.05607" lon="-1.59356">
        <ele>5.5398583</ele>
        <time>2015-06-03T17:38:16Z</time>
      </trkpt>
      <trkpt lat="49.05614" lon="-1.59362">
        <ele>5.5833106</ele>
        <time>2015-06-03T17:38:21Z</time>
      </trkpt>
      <trkpt lat="49.05618" lon="-1.59366">
        <ele>5.5833106</ele>
        <time>2015-06-03T17:38:26Z</time>
      </trkpt>
      <trkpt lat="49.05624" lon="-1.59372">
        <ele>5.636727</ele>
        <time>2015-06-03T17:38:31Z</time>
      </trkpt>
      <trkpt lat="49.05629" lon="-1.59377">
        <ele>5.636727</ele>
        <time>2015-06-03T17:38:36Z</time>
      </trkpt>
      <trkpt lat="49.05634" lon="-1.59384">
        <ele>5.6701174</ele>
        <time>2015-06-03T17:38:41Z</time>
      </trkpt>
      <trkpt lat="49.0564" lon="-1.59388">
        <ele>5.6701174</ele>
        <time>2015-06-03T17:38:46Z</time>
      </trkpt>
      <trkpt lat="49.05644" lon="-1.59393">
        <ele>5.6413245</ele>
        <time>2015-06-03T17:38:51Z</time>
      </trkpt>
      <trkpt lat="49.0565" lon="-1.59397">
        <ele>5.6413245</ele>
        <time>2015-06-03T17:38:56Z</time>
      </trkpt>
      <trkpt lat="49.05656" lon="-1.59403">
        <ele>5.7132034</ele>
        <time>2015-06-03T17:39:01Z</time>
      </trkpt>
      <trkpt lat="49.05661" lon="-1.59406">
        <ele>5.7132034</ele>
        <time>2015-06-03T17:39:06Z</time>
      </trkpt>
      <trkpt lat="49.05666" lon="-1.59412">
        <ele>5.863417</ele>
        <time>2015-06-03T17:39:11Z</time>
      </trkpt>
      <trkpt lat="49.05671" lon="-1.59418">
        <ele>5.863417</ele>
        <time>2015-06-03T17:39:16Z</time>
      </trkpt>
      <trkpt lat="49.05676" lon="-1.59422">
        <ele>6.0566306</ele>
        <time>2015-06-03T17:39:21Z</time>
      </trkpt>
      <trkpt lat="49.05683" lon="-1.59428">
        <ele>6.0566306</ele>
        <time>2015-06-03T17:39:26Z</time>
      </trkpt>
      <trkpt lat="49.05688" lon="-1.59433">
        <ele>6.202332</ele>
        <time>2015-06-03T17:39:31Z</time>
      </trkpt>
      <trkpt lat="49.05692" lon="-1.59436">
        <ele>6.202332</ele>
        <time>2015-06-03T17:39:36Z</time>
      </trkpt>
      <trkpt lat="49.05698" lon="-1.59442">
        <ele>6.317665</ele>
        <time>2015-06-03T17:39:41Z</time>
      </trkpt>
      <trkpt lat="49.05704" lon="-1.59447">
        <ele>6.317665</ele>
        <time>2015-06-03T17:39:46Z</time>
      </trkpt>
      <trkpt lat="49.0571" lon="-1.59451">
        <ele>6.4330106</ele>
        <time>2015-06-03T17:39:51Z</time>
      </trkpt>
      <trkpt lat="49.05716" lon="-1.59456">
        <ele>6.4330106</ele>
        <time>2015-06-03T17:39:56Z</time>
      </trkpt>
      <trkpt lat="49.05721" lon="-1.59462">
        <ele>6.6341615</ele>
        <time>2015-06-03T17:40:01Z</time>
      </trkpt>
      <trkpt lat="49.05725" lon="-1.59466">
        <ele>6.6341615</ele>
        <time>2015-06-03T17:40:06Z</time>
      </trkpt>
      <trkpt lat="49.0573" lon="-1.5947">
        <ele>6.8130274</ele>
        <time>2015-06-03T17:40:11Z</time>
      </trkpt>
      <trkpt lat="49.05735" lon="-1.59474">
        <ele>6.8130274</ele>
        <time>2015-06-03T17:40:16Z</time>
      </trkpt>
      <trkpt lat="49.05742" lon="-1.59479">
        <ele>6.941582</ele>
        <time>2015-06-03T17:40:21Z</time>
      </trkpt>
      <trkpt lat="49.05747" lon="-1.59481">
        <ele>6.941582</ele>
        <time>2015-06-03T17:40:26Z</time>
      </trkpt>
      <trkpt lat="49.05753" lon="-1.59487">
        <ele>7.037239</ele>
        <time>2015-06-03T17:40:31Z</time>
      </trkpt>
      <trkpt lat="49.05758" lon="-1.59489">
        <ele>7.037239</ele>
        <time>2015-06-03T17:40:36Z</time>
      </trkpt>
      <trkpt lat="49.05764" lon="-1.59494">
        <ele>7.015356</ele>
        <time>2015-06-03T17:40:41Z</time>
      </trkpt>
      <trkpt lat="49.05769" lon="-1.595">
        <ele>7.015356</ele>
        <time>2015-06-03T17:40:46Z</time>
      </trkpt>
      <trkpt lat="49.05772" lon="-1.595">
        <ele>7.015356</ele>
        <time>2015-06-03T17:40:51Z</time>
      </trkpt>
      <trkpt lat="49.05776" lon="-1.59495">
        <ele>7.0428367</ele>
        <time>2015-06-03T17:40:56Z</time>
      </trkpt>
      <trkpt lat="49.0578" lon="-1.59489">
        <ele>7.0428367</ele>
        <time>2015-06-03T17:41:01Z</time>
      </trkpt>
      <trkpt lat="49.05783" lon="-1.59485">
        <ele>7.1012635</ele>
        <time>2015-06-03T17:41:06Z</time>
      </trkpt>
      <trkpt lat="49.05789" lon="-1.59479">
        <ele>7.1012635</ele>
        <time>2015-06-03T17:41:11Z</time>
      </trkpt>
      <trkpt lat="49.05794" lon="-1.59476">
        <ele>7.159084</ele>
        <time>2015-06-03T17:41:16Z</time>
      </trkpt>
      <trkpt lat="49.05802" lon="-1.59473">
        <ele>7.159084</ele>
        <time>2015-06-03T17:41:21Z</time>
      </trkpt>
      <trkpt lat="49.0581" lon="-1.59469">
        <ele>7.3311872</ele>
        <time>2015-06-03T17:41:26Z</time>
      </trkpt>
      <trkpt lat="49.05815" lon="-1.59468">
        <ele>7.3311872</ele>
        <time>2015-06-03T17:41:31Z</time>
      </trkpt>
      <trkpt lat="49.05821" lon="-1.59466">
        <ele>7.565193</ele>
        <time>2015-06-03T17:41:36Z</time>
      </trkpt>
      <trkpt lat="49.05823" lon="-1.59468">
        <ele>7.565193</ele>
        <time>2015-06-03T17:41:41Z</time>
      </trkpt>
      <trkpt lat="49.05824" lon="-1.59468">
        <ele>7.565193</ele>
        <time>2015-06-03T17:41:46Z</time>
      </trkpt>
      <trkpt lat="49.05823" lon="-1.59469">
        <ele>7.565193</ele>
        <time>2015-06-03T17:41:51Z</time>
      </trkpt>
      <trkpt lat="49.05824" lon="-1.59469">
        <ele>7.565193</ele>
        <time>2015-06-03T17:41:56Z</time>
      </trkpt>
      <trkpt lat="49.05824" lon="-1.59466">
        <ele>7.565193</ele>
        <time>2015-06-03T17:42:01Z</time>
      </trkpt>
      <trkpt lat="49.05827" lon="-1.59463">
        <ele>7.927699</ele>
        <time>2015-06-03T17:42:06Z</time>
      </trkpt>
      <trkpt lat="49.05828" lon="-1.59457">
        <ele>7.927699</ele>
        <time>2015-06-03T17:42:11Z</time>
      </trkpt>
      <trkpt lat="49.05828" lon="-1.59453">
        <ele>7.927699</ele>
        <time>2015-06-03T17:42:16Z</time>
      </trkpt>
      <trkpt lat="49.05827" lon="-1.59451">
        <ele>7.927699</ele>
        <time>2015-06-03T17:42:21Z</time>
      </trkpt>
      <trkpt lat="49.05827" lon="-1.59452">
        <ele>8.393597</ele>
        <time>2015-06-03T17:42:26Z</time>
      </trkpt>
      <trkpt lat="49.05827" lon="-1.59452">
        <ele>8.393597</ele>
        <time>2015-06-03T17:42:31Z</time>
      </trkpt>
      <trkpt lat="49.05828" lon="-1.59453">
        <ele>8.393597</ele>
        <time>2015-06-03T17:42:36Z</time>
      </trkpt>
      <trkpt lat="49.05828" lon="-1.59457">
        <ele>8.393597</ele>
        <time>2015-06-03T17:42:41Z</time>
      </trkpt>
      <trkpt lat="49.05828" lon="-1.59458">
        <ele>8.393597</ele>
        <time>2015-06-03T17:42:46Z</time>
      </trkpt>
      <trkpt lat="49.05827" lon="-1.59462">
        <ele>8.393597</ele>
        <time>2015-06-03T17:42:51Z</time>
      </trkpt>
      <trkpt lat="49.05826" lon="-1.59463">
        <ele>8.393597</ele>
        <time>2015-06-03T17:42:56Z</time>
      </trkpt>
      <trkpt lat="49.05826" lon="-1.59463">
        <ele>8.393597</ele>
        <time>2015-06-03T17:43:01Z</time>
      </trkpt>
      <trkpt lat="49.05826" lon="-1.59466">
        <ele>8.924939</ele>
        <time>2015-06-03T17:43:06Z</time>
      </trkpt>
      <trkpt lat="49.05825" lon="-1.59465">
        <ele>8.924939</ele>
        <time>2015-06-03T17:43:11Z</time>
      </trkpt>
      <trkpt lat="49.05825" lon="-1.59464">
        <ele>8.924939</ele>
        <time>2015-06-03T17:43:16Z</time>
      </trkpt>
      <trkpt lat="49.05821" lon="-1.59465">
        <ele>8.924939</ele>
        <time>2015-06-03T17:43:21Z</time>
      </trkpt>
      <trkpt lat="49.05817" lon="-1.59467">
        <ele>9.515229</ele>
        <time>2015-06-03T17:43:26Z</time>
      </trkpt>
      <trkpt lat="49.05812" lon="-1.59471">
        <ele>9.515229</ele>
        <time>2015-06-03T17:43:31Z</time>
      </trkpt>
      <trkpt lat="49.05808" lon="-1.59473">
        <ele>9.942138</ele>
        <time>2015-06-03T17:43:36Z</time>
      </trkpt>
      <trkpt lat="49.05804" lon="-1.59478">
        <ele>9.942138</ele>
        <time>2015-06-03T17:43:41Z</time>
      </trkpt>
      <trkpt lat="49.05798" lon="-1.5948">
        <ele>10.273963</ele>
        <time>2015-06-03T17:43:46Z</time>
      </trkpt>
      <trkpt lat="49.05793" lon="-1.59482">
        <ele>10.273963</ele>
        <time>2015-06-03T17:43:51Z</time>
      </trkpt>
      <trkpt lat="49.0579" lon="-1.59486">
        <ele>10.6175165</ele>
        <time>2015-06-03T17:43:56Z</time>
      </trkpt>
      <trkpt lat="49.05784" lon="-1.59491">
        <ele>10.6175165</ele>
        <time>2015-06-03T17:44:01Z</time>
      </trkpt>
      <trkpt lat="49.05782" lon="-1.59497">
        <ele>10.985296</ele>
        <time>2015-06-03T17:44:06Z</time>
      </trkpt>
      <trkpt lat="49.05782" lon="-1.59504">
        <ele>10.985296</ele>
        <time>2015-06-03T17:44:11Z</time>
      </trkpt>
      <trkpt lat="49.05785" lon="-1.59508">
        <ele>10.985296</ele>
        <time>2015-06-03T17:44:16Z</time>
      </trkpt>
      <trkpt lat="49.05785" lon="-1.59509">
        <ele>10.985296</ele>
        <time>2015-06-03T17:44:21Z</time>
      </trkpt>
      <trkpt lat="49.05786" lon="-1.5951">
        <ele>11.201497</ele>
        <time>2015-06-03T17:44:26Z</time>
      </trkpt>
      <trkpt lat="49.05791" lon="-1.59515">
        <ele>11.201497</ele>
        <time>2015-06-03T17:44:31Z</time>
      </trkpt>
      <trkpt lat="49.05795" lon="-1.59518">
        <ele>11.3775015</ele>
        <time>2015-06-03T17:44:36Z</time>
      </trkpt>
      <trkpt lat="49.058" lon="-1.59522">
        <ele>11.3775015</ele>
        <time>2015-06-03T17:44:41Z</time>
      </trkpt>
      <trkpt lat="49.05805" lon="-1.59527">
        <ele>11.530183</ele>
        <time>2015-06-03T17:44:46Z</time>
      </trkpt>
      <trkpt lat="49.05806" lon="-1.59528">
        <ele>11.530183</ele>
        <time>2015-06-03T17:44:51Z</time>
      </trkpt>
      <trkpt lat="49.05807" lon="-1.59529">
        <ele>11.530183</ele>
        <time>2015-06-03T17:44:56Z</time>
      </trkpt>
      <trkpt lat="49.05807" lon="-1.5953">
        <ele>11.530183</ele>
        <time>2015-06-03T17:45:01Z</time>
      </trkpt>
      <trkpt lat="49.05807" lon="-1.5953">
        <ele>11.530183</ele>
        <time>2015-06-03T17:45:06Z</time>
      </trkpt>
      <trkpt lat="49.05808" lon="-1.59529">
        <ele>11.530183</ele>
        <time>2015-06-03T17:45:11Z</time>
      </trkpt>
      <trkpt lat="49.05811" lon="-1.59528">
        <ele>11.530183</ele>
        <time>2015-06-03T17:45:16Z</time>
      </trkpt>
      <trkpt lat="49.05814" lon="-1.59532">
        <ele>11.646453</ele>
        <time>2015-06-03T17:45:21Z</time>
      </trkpt>
      <trkpt lat="49.05818" lon="-1.59536">
        <ele>11.646453</ele>
        <time>2015-06-03T17:45:26Z</time>
      </trkpt>
      <trkpt lat="49.05821" lon="-1.59537">
        <ele>11.646453</ele>
        <time>2015-06-03T17:45:31Z</time>
      </trkpt>
      <trkpt lat="49.05824" lon="-1.59538">
        <ele>11.786369</ele>
        <time>2015-06-03T17:45:36Z</time>
      </trkpt>
      <trkpt lat="49.05826" lon="-1.59538">
        <ele>11.786369</ele>
        <time>2015-06-03T17:45:41Z</time>
      </trkpt>
      <trkpt lat="49.05826" lon="-1.59539">
        <ele>11.786369</ele>
        <time>2015-06-03T17:45:46Z</time>
      </trkpt>
      <trkpt lat="49.05826" lon="-1.59541">
        <ele>11.786369</ele>
        <time>2015-06-03T17:45:51Z</time>
      </trkpt>
      <trkpt lat="49.05829" lon="-1.59539">
        <ele>11.786369</ele>
        <time>2015-06-03T17:45:56Z</time>
      </trkpt>
      <trkpt lat="49.05832" lon="-1.59541">
        <ele>11.991131</ele>
        <time>2015-06-03T17:46:01Z</time>
      </trkpt>
      <trkpt lat="49.05836" lon="-1.59545">
        <ele>11.991131</ele>
        <time>2015-06-03T17:46:06Z</time>
      </trkpt>
      <trkpt lat="49.0584" lon="-1.59549">
        <ele>12.140232</ele>
        <time>2015-06-03T17:46:11Z</time>
      </trkpt>
      <trkpt lat="49.05845" lon="-1.59552">
        <ele>12.140232</ele>
        <time>2015-06-03T17:46:16Z</time>
      </trkpt>
      <trkpt lat="49.05851" lon="-1.59554">
        <ele>12.2519045</ele>
        <time>2015-06-03T17:46:21Z</time>
      </trkpt>
      <trkpt lat="49.05855" lon="-1.59556">
        <ele>12.2519045</ele>
        <time>2015-06-03T17:46:26Z</time>
      </trkpt>
      <trkpt lat="49.05859" lon="-1.59557">
        <ele>12.2519045</ele>
        <time>2015-06-03T17:46:31Z</time>
      </trkpt>
      <trkpt lat="49.05862" lon="-1.59556">
        <ele>12.328754</ele>
        <time>2015-06-03T17:46:36Z</time>
      </trkpt>
      <trkpt lat="49.05864" lon="-1.59552">
        <ele>12.328754</ele>
        <time>2015-06-03T17:46:41Z</time>
      </trkpt>
      <trkpt lat="49.05866" lon="-1.59548">
        <ele>12.328754</ele>
        <time>2015-06-03T17:46:46Z</time>
      </trkpt>
      <trkpt lat="49.05867" lon="-1.5954">
        <ele>12.358912</ele>
        <time>2015-06-03T17:46:51Z</time>
      </trkpt>
      <trkpt lat="49.0587" lon="-1.59535">
        <ele>12.358912</ele>
        <time>2015-06-03T17:46:56Z</time>
      </trkpt>
      <trkpt lat="49.0587" lon="-1.59534">
        <ele>12.358912</ele>
        <time>2015-06-03T17:47:01Z</time>
      </trkpt>
      <trkpt lat="49.05871" lon="-1.59532">
        <ele>12.358912</ele>
        <time>2015-06-03T17:47:06Z</time>
      </trkpt>
      <trkpt lat="49.05872" lon="-1.5953">
        <ele>12.358912</ele>
        <time>2015-06-03T17:47:11Z</time>
      </trkpt>
      <trkpt lat="49.05872" lon="-1.59529">
        <ele>12.259474</ele>
        <time>2015-06-03T17:47:16Z</time>
      </trkpt>
      <trkpt lat="49.0587" lon="-1.5953">
        <ele>12.259474</ele>
        <time>2015-06-03T17:47:21Z</time>
      </trkpt>
      <trkpt lat="49.05868" lon="-1.59535">
        <ele>12.259474</ele>
        <time>2015-06-03T17:47:26Z</time>
      </trkpt>
      <trkpt lat="49.05867" lon="-1.59534">
        <ele>12.259474</ele>
        <time>2015-06-03T17:47:31Z</time>
      </trkpt>
      <trkpt lat="49.05867" lon="-1.59534">
        <ele>12.259474</ele>
        <time>2015-06-03T17:47:36Z</time>
      </trkpt>
      <trkpt lat="49.05865" lon="-1.5954">
        <ele>12.314285</ele>
        <time>2015-06-03T17:47:41Z</time>
      </trkpt>
      <trkpt lat="49.05865" lon="-1.59546">
        <ele>12.314285</ele>
        <time>2015-06-03T17:47:46Z</time>
      </trkpt>
      <trkpt lat="49.05865" lon="-1.59553">
        <ele>12.314285</ele>
        <time>2015-06-03T17:47:51Z</time>
      </trkpt>
      <trkpt lat="49.05868" lon="-1.59561">
        <ele>12.598586</ele>
        <time>2015-06-03T17:47:56Z</time>
      </trkpt>
      <trkpt lat="49.05875" lon="-1.59568">
        <ele>12.598586</ele>
        <time>2015-06-03T17:48:01Z</time>
      </trkpt>
      <trkpt lat="49.05879" lon="-1.59572">
        <ele>12.878825</ele>
        <time>2015-06-03T17:48:06Z</time>
      </trkpt>
      <trkpt lat="49.05884" lon="-1.59574">
        <ele>12.878825</ele>
        <time>2015-06-03T17:48:11Z</time>
      </trkpt>
      <trkpt lat="49.0589" lon="-1.59576">
        <ele>13.053924</ele>
        <time>2015-06-03T17:48:16Z</time>
      </trkpt>
      <trkpt lat="49.05895" lon="-1.59578">
        <ele>13.053924</ele>
        <time>2015-06-03T17:48:21Z</time>
      </trkpt>
      <trkpt lat="49.05901" lon="-1.59582">
        <ele>13.088184</ele>
        <time>2015-06-03T17:48:26Z</time>
      </trkpt>
      <trkpt lat="49.05905" lon="-1.59586">
        <ele>13.088184</ele>
        <time>2015-06-03T17:48:31Z</time>
      </trkpt>
      <trkpt lat="49.05911" lon="-1.59591">
        <ele>13.006585</ele>
        <time>2015-06-03T17:48:36Z</time>
      </trkpt>
      <trkpt lat="49.05916" lon="-1.59592">
        <ele>13.006585</ele>
        <time>2015-06-03T17:48:41Z</time>
      </trkpt>
      <trkpt lat="49.05924" lon="-1.59592">
        <ele>12.947896</ele>
        <time>2015-06-03T17:48:46Z</time>
      </trkpt>
      <trkpt lat="49.05931" lon="-1.59593">
        <ele>12.947896</ele>
        <time>2015-06-03T17:48:51Z</time>
      </trkpt>
      <trkpt lat="49.05938" lon="-1.59595">
        <ele>12.853294</ele>
        <time>2015-06-03T17:48:56Z</time>
      </trkpt>
      <trkpt lat="49.05943" lon="-1.59598">
        <ele>12.853294</ele>
        <time>2015-06-03T17:49:01Z</time>
      </trkpt>
      <trkpt lat="49.0595" lon="-1.596">
        <ele>12.711621</ele>
        <time>2015-06-03T17:49:06Z</time>
      </trkpt>
      <trkpt lat="49.05955" lon="-1.59601">
        <ele>12.711621</ele>
        <time>2015-06-03T17:49:11Z</time>
      </trkpt>
      <trkpt lat="49.05961" lon="-1.59602">
        <ele>12.584732</ele>
        <time>2015-06-03T17:49:16Z</time>
      </trkpt>
      <trkpt lat="49.05967" lon="-1.59605">
        <ele>12.584732</ele>
        <time>2015-06-03T17:49:21Z</time>
      </trkpt>
      <trkpt lat="49.05972" lon="-1.59604">
        <ele>12.443433</ele>
        <time>2015-06-03T17:49:26Z</time>
      </trkpt>
      <trkpt lat="49.05978" lon="-1.59605">
        <ele>12.443433</ele>
        <time>2015-06-03T17:49:31Z</time>
      </trkpt>
      <trkpt lat="49.05982" lon="-1.59606">
        <ele>12.318359</ele>
        <time>2015-06-03T17:49:36Z</time>
      </trkpt>
      <trkpt lat="49.05987" lon="-1.59607">
        <ele>12.318359</ele>
        <time>2015-06-03T17:49:41Z</time>
      </trkpt>
      <trkpt lat="49.05993" lon="-1.59608">
        <ele>12.180204</ele>
        <time>2015-06-03T17:49:46Z</time>
      </trkpt>
      <trkpt lat="49.05999" lon="-1.59609">
        <ele>12.180204</ele>
        <time>2015-06-03T17:49:51Z</time>
      </trkpt>
      <trkpt lat="49.06006" lon="-1.59611">
        <ele>12.00185</ele>
        <time>2015-06-03T17:49:56Z</time>
      </trkpt>
      <trkpt lat="49.06013" lon="-1.59612">
        <ele>12.00185</ele>
        <time>2015-06-03T17:50:01Z</time>
      </trkpt>
      <trkpt lat="49.06018" lon="-1.59612">
        <ele>11.830331</ele>
        <time>2015-06-03T17:50:06Z</time>
      </trkpt>
      <trkpt lat="49.06024" lon="-1.59614">
        <ele>11.830331</ele>
        <time>2015-06-03T17:50:11Z</time>
      </trkpt>
      <trkpt lat="49.0603" lon="-1.59615">
        <ele>11.579499</ele>
        <time>2015-06-03T17:50:16Z</time>
      </trkpt>
      <trkpt lat="49.06036" lon="-1.59616">
        <ele>11.579499</ele>
        <time>2015-06-03T17:50:21Z</time>
      </trkpt>
      <trkpt lat="49.06042" lon="-1.59617">
        <ele>11.256216</ele>
        <time>2015-06-03T17:50:26Z</time>
      </trkpt>
      <trkpt lat="49.06047" lon="-1.59619">
        <ele>11.256216</ele>
        <time>2015-06-03T17:50:31Z</time>
      </trkpt>
      <trkpt lat="49.06052" lon="-1.5962">
        <ele>10.91026</ele>
        <time>2015-06-03T17:50:36Z</time>
      </trkpt>
      <trkpt lat="49.0606" lon="-1.59621">
        <ele>10.91026</ele>
        <time>2015-06-03T17:50:41Z</time>
      </trkpt>
      <trkpt lat="49.06066" lon="-1.59622">
        <ele>10.6742735</ele>
        <time>2015-06-03T17:50:46Z</time>
      </trkpt>
      <trkpt lat="49.06071" lon="-1.59625">
        <ele>10.6742735</ele>
        <time>2015-06-03T17:50:51Z</time>
      </trkpt>
      <trkpt lat="49.06076" lon="-1.59626">
        <ele>10.4690695</ele>
        <time>2015-06-03T17:50:56Z</time>
      </trkpt>
      <trkpt lat="49.06083" lon="-1.59627">
        <ele>10.4690695</ele>
        <time>2015-06-03T17:51:01Z</time>
      </trkpt>
      <trkpt lat="49.06089" lon="-1.59629">
        <ele>10.278819</ele>
        <time>2015-06-03T17:51:06Z</time>
      </trkpt>
      <trkpt lat="49.06095" lon="-1.59629">
        <ele>10.278819</ele>
        <time>2015-06-03T17:51:11Z</time>
      </trkpt>
      <trkpt lat="49.061" lon="-1.5963">
        <ele>10.074384</ele>
        <time>2015-06-03T17:51:16Z</time>
      </trkpt>
      <trkpt lat="49.06106" lon="-1.59629">
        <ele>10.074384</ele>
        <time>2015-06-03T17:51:21Z</time>
      </trkpt>
      <trkpt lat="49.06111" lon="-1.5963">
        <ele>9.90084</ele>
        <time>2015-06-03T17:51:26Z</time>
      </trkpt>
      <trkpt lat="49.06117" lon="-1.59631">
        <ele>9.90084</ele>
        <time>2015-06-03T17:51:31Z</time>
      </trkpt>
      <trkpt lat="49.06122" lon="-1.59628">
        <ele>9.771021</ele>
        <time>2015-06-03T17:51:36Z</time>
      </trkpt>
      <trkpt lat="49.06125" lon="-1.59628">
        <ele>9.771021</ele>
        <time>2015-06-03T17:51:41Z</time>
      </trkpt>
      <trkpt lat="49.06128" lon="-1.59627">
        <ele>9.771021</ele>
        <time>2015-06-03T17:51:46Z</time>
      </trkpt>
      <trkpt lat="49.06135" lon="-1.59626">
        <ele>9.581385</ele>
        <time>2015-06-03T17:51:51Z</time>
      </trkpt>
      <trkpt lat="49.06141" lon="-1.59623">
        <ele>9.581385</ele>
        <time>2015-06-03T17:51:56Z</time>
      </trkpt>
      <trkpt lat="49.06146" lon="-1.59621">
        <ele>9.36584</ele>
        <time>2015-06-03T17:52:01Z</time>
      </trkpt>
      <trkpt lat="49.0615" lon="-1.59618">
        <ele>9.36584</ele>
        <time>2015-06-03T17:52:06Z</time>
      </trkpt>
      <trkpt lat="49.06156" lon="-1.59616">
        <ele>9.0838</ele>
        <time>2015-06-03T17:52:11Z</time>
      </trkpt>
      <trkpt lat="49.06162" lon="-1.59613">
        <ele>9.0838</ele>
        <time>2015-06-03T17:52:16Z</time>
      </trkpt>
      <trkpt lat="49.06168" lon="-1.59611">
        <ele>8.769878</ele>
        <time>2015-06-03T17:52:21Z</time>
      </trkpt>
      <trkpt lat="49.06175" lon="-1.59608">
        <ele>8.769878</ele>
        <time>2015-06-03T17:52:26Z</time>
      </trkpt>
      <trkpt lat="49.06181" lon="-1.59606">
        <ele>8.499442</ele>
        <time>2015-06-03T17:52:31Z</time>
      </trkpt>
      <trkpt lat="49.06187" lon="-1.59604">
        <ele>8.499442</ele>
        <time>2015-06-03T17:52:36Z</time>
      </trkpt>
      <trkpt lat="49.06192" lon="-1.59601">
        <ele>8.270123</ele>
        <time>2015-06-03T17:52:41Z</time>
      </trkpt>
      <trkpt lat="49.062" lon="-1.59598">
        <ele>8.270123</ele>
        <time>2015-06-03T17:52:46Z</time>
      </trkpt>
      <trkpt lat="49.06206" lon="-1.59596">
        <ele>8.238104</ele>
        <time>2015-06-03T17:52:51Z</time>
      </trkpt>
      <trkpt lat="49.0621" lon="-1.59593">
        <ele>8.238104</ele>
        <time>2015-06-03T17:52:56Z</time>
      </trkpt>
      <trkpt lat="49.06217" lon="-1.5959">
        <ele>8.216064</ele>
        <time>2015-06-03T17:53:01Z</time>
      </trkpt>
      <trkpt lat="49.06222" lon="-1.5959">
        <ele>8.216064</ele>
        <time>2015-06-03T17:53:06Z</time>
      </trkpt>
      <trkpt lat="49.06227" lon="-1.59588">
        <ele>8.188914</ele>
        <time>2015-06-03T17:53:11Z</time>
      </trkpt>
      <trkpt lat="49.06233" lon="-1.59585">
        <ele>8.188914</ele>
        <time>2015-06-03T17:53:16Z</time>
      </trkpt>
      <trkpt lat="49.06239" lon="-1.59581">
        <ele>8.214718</ele>
        <time>2015-06-03T17:53:21Z</time>
      </trkpt>
      <trkpt lat="49.06245" lon="-1.59577">
        <ele>8.214718</ele>
        <time>2015-06-03T17:53:26Z</time>
      </trkpt>
      <trkpt lat="49.06251" lon="-1.59576">
        <ele>8.332696</ele>
        <time>2015-06-03T17:53:31Z</time>
      </trkpt>
      <trkpt lat="49.06258" lon="-1.59574">
        <ele>8.332696</ele>
        <time>2015-06-03T17:53:36Z</time>
      </trkpt>
      <trkpt lat="49.06264" lon="-1.59571">
        <ele>8.420385</ele>
        <time>2015-06-03T17:53:41Z</time>
      </trkpt>
      <trkpt lat="49.06269" lon="-1.5957">
        <ele>8.420385</ele>
        <time>2015-06-03T17:53:46Z</time>
      </trkpt>
      <trkpt lat="49.06275" lon="-1.59567">
        <ele>8.465269</ele>
        <time>2015-06-03T17:53:51Z</time>
      </trkpt>
      <trkpt lat="49.06281" lon="-1.59563">
        <ele>8.465269</ele>
        <time>2015-06-03T17:53:56Z</time>
      </trkpt>
      <trkpt lat="49.06288" lon="-1.5956">
        <ele>8.657608</ele>
        <time>2015-06-03T17:54:01Z</time>
      </trkpt>
      <trkpt lat="49.06293" lon="-1.59557">
        <ele>8.657608</ele>
        <time>2015-06-03T17:54:06Z</time>
      </trkpt>
      <trkpt lat="49.06299" lon="-1.59554">
        <ele>8.885041</ele>
        <time>2015-06-03T17:54:11Z</time>
      </trkpt>
      <trkpt lat="49.06304" lon="-1.59553">
        <ele>8.885041</ele>
        <time>2015-06-03T17:54:16Z</time>
      </trkpt>
      <trkpt lat="49.0631" lon="-1.59551">
        <ele>9.072174</ele>
        <time>2015-06-03T17:54:21Z</time>
      </trkpt>
      <trkpt lat="49.06316" lon="-1.59548">
        <ele>9.072174</ele>
        <time>2015-06-03T17:54:26Z</time>
      </trkpt>
      <trkpt lat="49.06323" lon="-1.59544">
        <ele>9.235726</ele>
        <time>2015-06-03T17:54:31Z</time>
      </trkpt>
      <trkpt lat="49.06328" lon="-1.59543">
        <ele>9.235726</ele>
        <time>2015-06-03T17:54:36Z</time>
      </trkpt>
      <trkpt lat="49.06333" lon="-1.59541">
        <ele>9.362427</ele>
        <time>2015-06-03T17:54:41Z</time>
      </trkpt>
      <trkpt lat="49.06339" lon="-1.59539">
        <ele>9.362427</ele>
        <time>2015-06-03T17:54:46Z</time>
      </trkpt>
      <trkpt lat="49.06345" lon="-1.59535">
        <ele>9.555369</ele>
        <time>2015-06-03T17:54:51Z</time>
      </trkpt>
      <trkpt lat="49.0635" lon="-1.59533">
        <ele>9.555369</ele>
        <time>2015-06-03T17:54:56Z</time>
      </trkpt>
      <trkpt lat="49.06355" lon="-1.59529">
        <ele>9.693725</ele>
        <time>2015-06-03T17:55:01Z</time>
      </trkpt>
      <trkpt lat="49.0636" lon="-1.59526">
        <ele>9.693725</ele>
        <time>2015-06-03T17:55:06Z</time>
      </trkpt>
      <trkpt lat="49.06366" lon="-1.59522">
        <ele>9.867446</ele>
        <time>2015-06-03T17:55:11Z</time>
      </trkpt>
      <trkpt lat="49.06372" lon="-1.59518">
        <ele>9.867446</ele>
        <time>2015-06-03T17:55:16Z</time>
      </trkpt>
      <trkpt lat="49.06376" lon="-1.59514">
        <ele>9.94362</ele>
        <time>2015-06-03T17:55:21Z</time>
      </trkpt>
      <trkpt lat="49.06379" lon="-1.59507">
        <ele>9.94362</ele>
        <time>2015-06-03T17:55:26Z</time>
      </trkpt>
      <trkpt lat="49.06382" lon="-1.59502">
        <ele>9.943482</ele>
        <time>2015-06-03T17:55:31Z</time>
      </trkpt>
      <trkpt lat="49.06387" lon="-1.59495">
        <ele>9.943482</ele>
        <time>2015-06-03T17:55:36Z</time>
      </trkpt>
      <trkpt lat="49.0639" lon="-1.59488">
        <ele>9.944575</ele>
        <time>2015-06-03T17:55:41Z</time>
      </trkpt>
      <trkpt lat="49.06393" lon="-1.59482">
        <ele>9.944575</ele>
        <time>2015-06-03T17:55:46Z</time>
      </trkpt>
      <trkpt lat="49.06394" lon="-1.59474">
        <ele>9.932279</ele>
        <time>2015-06-03T17:55:51Z</time>
      </trkpt>
      <trkpt lat="49.06394" lon="-1.59465">
        <ele>9.932279</ele>
        <time>2015-06-03T17:55:56Z</time>
      </trkpt>
      <trkpt lat="49.06394" lon="-1.59457">
        <ele>9.864266</ele>
        <time>2015-06-03T17:56:01Z</time>
      </trkpt>
      <trkpt lat="49.06393" lon="-1.59448">
        <ele>9.864266</ele>
        <time>2015-06-03T17:56:06Z</time>
      </trkpt>
      <trkpt lat="49.06393" lon="-1.59439">
        <ele>9.860007</ele>
        <time>2015-06-03T17:56:11Z</time>
      </trkpt>
      <trkpt lat="49.06392" lon="-1.5943">
        <ele>9.860007</ele>
        <time>2015-06-03T17:56:16Z</time>
      </trkpt>
      <trkpt lat="49.06392" lon="-1.59421">
        <ele>9.857084</ele>
        <time>2015-06-03T17:56:21Z</time>
      </trkpt>
      <trkpt lat="49.06391" lon="-1.59417">
        <ele>9.857084</ele>
        <time>2015-06-03T17:56:26Z</time>
      </trkpt>
      <trkpt lat="49.06391" lon="-1.59416">
        <ele>9.857084</ele>
        <time>2015-06-03T17:56:31Z</time>
      </trkpt>
      <trkpt lat="49.06392" lon="-1.59414">
        <ele>9.857084</ele>
        <time>2015-06-03T17:56:36Z</time>
      </trkpt>
      <trkpt lat="49.06393" lon="-1.59413">
        <ele>9.857084</ele>
        <time>2015-06-03T17:56:41Z</time>
      </trkpt>
      <trkpt lat="49.06391" lon="-1.59413">
        <ele>9.857084</ele>
        <time>2015-06-03T17:56:46Z</time>
      </trkpt>
      <trkpt lat="49.06391" lon="-1.59414">
        <ele>9.857084</ele>
        <time>2015-06-03T17:56:51Z</time>
      </trkpt>
      <trkpt lat="49.06392" lon="-1.59411">
        <ele>9.826491</ele>
        <time>2015-06-03T17:56:56Z</time>
      </trkpt>
      <trkpt lat="49.06392" lon="-1.59401">
        <ele>9.826491</ele>
        <time>2015-06-03T17:57:01Z</time>
      </trkpt>
      <trkpt lat="49.06392" lon="-1.59392">
        <ele>9.871132</ele>
        <time>2015-06-03T17:57:06Z</time>
      </trkpt>
      <trkpt lat="49.06392" lon="-1.59382">
        <ele>9.871132</ele>
        <time>2015-06-03T17:57:11Z</time>
      </trkpt>
      <trkpt lat="49.0639" lon="-1.59372">
        <ele>9.970858</ele>
        <time>2015-06-03T17:57:16Z</time>
      </trkpt>
      <trkpt lat="49.06388" lon="-1.59363">
        <ele>9.970858</ele>
        <time>2015-06-03T17:57:21Z</time>
      </trkpt>
      <trkpt lat="49.06389" lon="-1.59354">
        <ele>10.020383</ele>
        <time>2015-06-03T17:57:26Z</time>
      </trkpt>
      <trkpt lat="49.06389" lon="-1.59343">
        <ele>10.020383</ele>
        <time>2015-06-03T17:57:31Z</time>
      </trkpt>
      <trkpt lat="49.06389" lon="-1.59337">
        <ele>10.037589</ele>
        <time>2015-06-03T17:57:36Z</time>
      </trkpt>
      <trkpt lat="49.06389" lon="-1.59332">
        <ele>10.037589</ele>
        <time>2015-06-03T17:57:41Z</time>
      </trkpt>
      <trkpt lat="49.0639" lon="-1.5932">
        <ele>9.995911</ele>
        <time>2015-06-03T17:57:46Z</time>
      </trkpt>
      <trkpt lat="49.06389" lon="-1.59311">
        <ele>9.995911</ele>
        <time>2015-06-03T17:57:51Z</time>
      </trkpt>
      <trkpt lat="49.06389" lon="-1.59312">
        <ele>9.995911</ele>
        <time>2015-06-03T17:57:56Z</time>
      </trkpt>
      <trkpt lat="49.06388" lon="-1.59312">
        <ele>9.995911</ele>
        <time>2015-06-03T17:58:01Z</time>
      </trkpt>
      <trkpt lat="49.06387" lon="-1.5931">
        <ele>9.995911</ele>
        <time>2015-06-03T17:58:06Z</time>
      </trkpt>
      <trkpt lat="49.06386" lon="-1.59309">
        <ele>9.928543</ele>
        <time>2015-06-03T17:58:11Z</time>
      </trkpt>
      <trkpt lat="49.06385" lon="-1.59308">
        <ele>9.928543</ele>
        <time>2015-06-03T17:58:16Z</time>
      </trkpt>
      <trkpt lat="49.06383" lon="-1.59308">
        <ele>9.928543</ele>
        <time>2015-06-03T17:58:21Z</time>
      </trkpt>
      <trkpt lat="49.06383" lon="-1.59311">
        <ele>9.928543</ele>
        <time>2015-06-03T17:58:26Z</time>
      </trkpt>
      <trkpt lat="49.06384" lon="-1.59311">
        <ele>9.928543</ele>
        <time>2015-06-03T17:58:31Z</time>
      </trkpt>
      <trkpt lat="49.06385" lon="-1.59312">
        <ele>9.928543</ele>
        <time>2015-06-03T17:58:36Z</time>
      </trkpt>
      <trkpt lat="49.06386" lon="-1.59311">
        <ele>9.928543</ele>
        <time>2015-06-03T17:58:41Z</time>
      </trkpt>
      <trkpt lat="49.06387" lon="-1.5931">
        <ele>9.928543</ele>
        <time>2015-06-03T17:58:46Z</time>
      </trkpt>
      <trkpt lat="49.06388" lon="-1.59311">
        <ele>9.4339905</ele>
        <time>2015-06-03T17:58:51Z</time>
      </trkpt>
      <trkpt lat="49.06388" lon="-1.59311">
        <ele>9.4339905</ele>
        <time>2015-06-03T17:58:56Z</time>
      </trkpt>
      <trkpt lat="49.06388" lon="-1.59311">
        <ele>9.4339905</ele>
        <time>2015-06-03T17:59:01Z</time>
      </trkpt>
      <trkpt lat="49.06388" lon="-1.59311">
        <ele>9.4339905</ele>
        <time>2015-06-03T17:59:06Z</time>
      </trkpt>
      <trkpt lat="49.06388" lon="-1.59312">
        <ele>9.4339905</ele>
        <time>2015-06-03T17:59:11Z</time>
      </trkpt>
      <trkpt lat="49.06386" lon="-1.59315">
        <ele>9.4339905</ele>
        <time>2015-06-03T17:59:16Z</time>
      </trkpt>
      <trkpt lat="49.06386" lon="-1.59315">
        <ele>9.4339905</ele>
        <time>2015-06-03T17:59:21Z</time>
      </trkpt>
      <trkpt lat="49.06388" lon="-1.59316">
        <ele>9.4339905</ele>
        <time>2015-06-03T17:59:26Z</time>
      </trkpt>
      <trkpt lat="49.06389" lon="-1.59317">
        <ele>9.4339905</ele>
        <time>2015-06-03T17:59:31Z</time>
      </trkpt>
      <trkpt lat="49.06389" lon="-1.59317">
        <ele>9.4339905</ele>
        <time>2015-06-03T17:59:36Z</time>
      </trkpt>
      <trkpt lat="49.06388" lon="-1.59318">
        <ele>8.516135</ele>
        <time>2015-06-03T17:59:41Z</time>
      </trkpt>
      <trkpt lat="49.06387" lon="-1.59318">
        <ele>8.516135</ele>
        <time>2015-06-03T17:59:46Z</time>
      </trkpt>
      <trkpt lat="49.06386" lon="-1.59316">
        <ele>8.516135</ele>
        <time>2015-06-03T17:59:51Z</time>
      </trkpt>
      <trkpt lat="49.06386" lon="-1.59313">
        <ele>8.516135</ele>
        <time>2015-06-03T17:59:56Z</time>
      </trkpt>
      <trkpt lat="49.06386" lon="-1.5931">
        <ele>8.516135</ele>
        <time>2015-06-03T18:00:01Z</time>
      </trkpt>
      <trkpt lat="49.06387" lon="-1.5931">
        <ele>8.516135</ele>
        <time>2015-06-03T18:00:06Z</time>
      </trkpt>
      <trkpt lat="49.06385" lon="-1.5931">
        <ele>8.516135</ele>
        <time>2015-06-03T18:00:11Z</time>
      </trkpt>
      <trkpt lat="49.06384" lon="-1.59309">
        <ele>7.6409197</ele>
        <time>2015-06-03T18:00:16Z</time>
      </trkpt>
      <trkpt lat="49.06386" lon="-1.5931">
        <ele>7.6409197</ele>
        <time>2015-06-03T18:00:21Z</time>
      </trkpt>
      <trkpt lat="49.06386" lon="-1.59309">
        <ele>7.6409197</ele>
        <time>2015-06-03T18:00:26Z</time>
      </trkpt>
      <trkpt lat="49.06385" lon="-1.59308">
        <ele>7.6409197</ele>
        <time>2015-06-03T18:00:31Z</time>
      </trkpt>
      <trkpt lat="49.06386" lon="-1.59309">
        <ele>7.6409197</ele>
        <time>2015-06-03T18:00:36Z</time>
      </trkpt>
      <trkpt lat="49.06385" lon="-1.59309">
        <ele>7.6409197</ele>
        <time>2015-06-03T18:00:41Z</time>
      </trkpt>
      <trkpt lat="49.06385" lon="-1.59309">
        <ele>7.6409197</ele>
        <time>2015-06-03T18:00:46Z</time>
      </trkpt>
      <trkpt lat="49.06385" lon="-1.5931">
        <ele>7.6409197</ele>
        <time>2015-06-03T18:00:51Z</time>
      </trkpt>
      <trkpt lat="49.06385" lon="-1.5931">
        <ele>7.6409197</ele>
        <time>2015-06-03T18:00:56Z</time>
      </trkpt>
      <trkpt lat="49.06386" lon="-1.5931">
        <ele>7.6409197</ele>
        <time>2015-06-03T18:01:01Z</time>
      </trkpt>
      <trkpt lat="49.06387" lon="-1.59309">
        <ele>7.6409197</ele>
        <time>2015-06-03T18:01:06Z</time>
      </trkpt>
      <trkpt lat="49.06387" lon="-1.5931">
        <ele>7.0381713</ele>
        <time>2015-06-03T18:01:11Z</time>
      </trkpt>
      <trkpt lat="49.06388" lon="-1.59311">
        <ele>7.0381713</ele>
        <time>2015-06-03T18:01:16Z</time>
      </trkpt>
      <trkpt lat="49.06387" lon="-1.59311">
        <ele>7.0381713</ele>
        <time>2015-06-03T18:01:21Z</time>
      </trkpt>
      <trkpt lat="49.06386" lon="-1.59311">
        <ele>7.0381713</ele>
        <time>2015-06-03T18:01:26Z</time>
      </trkpt>
      <trkpt lat="49.06387" lon="-1.59312">
        <ele>7.0381713</ele>
        <time>2015-06-03T18:01:31Z</time>
      </trkpt>
      <trkpt lat="49.06387" lon="-1.59313">
        <ele>7.0381713</ele>
        <time>2015-06-03T18:01:36Z</time>
      </trkpt>
      <trkpt lat="49.06387" lon="-1.59312">
        <ele>7.0381713</ele>
        <time>2015-06-03T18:01:41Z</time>
      </trkpt>
      <trkpt lat="49.06386" lon="-1.59312">
        <ele>7.0381713</ele>
        <time>2015-06-03T18:01:46Z</time>
      </trkpt>
      <trkpt lat="49.06385" lon="-1.59312">
        <ele>7.0381713</ele>
        <time>2015-06-03T18:01:51Z</time>
      </trkpt>
      <trkpt lat="49.06385" lon="-1.59312">
        <ele>7.0381713</ele>
        <time>2015-06-03T18:01:56Z</time>
      </trkpt>
      <trkpt lat="49.06385" lon="-1.59312">
        <ele>7.0381713</ele>
        <time>2015-06-03T18:02:01Z</time>
      </trkpt>
      <trkpt lat="49.06385" lon="-1.59311">
        <ele>7.0381713</ele>
        <time>2015-06-03T18:02:06Z</time>
      </trkpt>
      <trkpt lat="49.06386" lon="-1.59311">
        <ele>7.0381713</ele>
        <time>2015-06-03T18:02:11Z</time>
      </trkpt>
      <trkpt lat="49.06386" lon="-1.5931">
        <ele>6.675072</ele>
        <time>2015-06-03T18:02:16Z</time>
      </trkpt>
      <trkpt lat="49.06388" lon="-1.59307">
        <ele>6.675072</ele>
        <time>2015-06-03T18:02:21Z</time>
      </trkpt>
      <trkpt lat="49.06389" lon="-1.59309">
        <ele>6.675072</ele>
        <time>2015-06-03T18:02:26Z</time>
      </trkpt>
      <trkpt lat="49.06388" lon="-1.5931">
        <ele>6.675072</ele>
        <time>2015-06-03T18:02:31Z</time>
      </trkpt>
      <trkpt lat="49.06386" lon="-1.59309">
        <ele>6.675072</ele>
        <time>2015-06-03T18:02:36Z</time>
      </trkpt>
      <trkpt lat="49.06384" lon="-1.59309">
        <ele>6.102602</ele>
        <time>2015-06-03T18:02:41Z</time>
      </trkpt>
      <trkpt lat="49.06384" lon="-1.5931">
        <ele>6.102602</ele>
        <time>2015-06-03T18:02:46Z</time>
      </trkpt>
      <trkpt lat="49.06385" lon="-1.59309">
        <ele>6.102602</ele>
        <time>2015-06-03T18:02:51Z</time>
      </trkpt>
      <trkpt lat="49.06385" lon="-1.59308">
        <ele>6.102602</ele>
        <time>2015-06-03T18:02:56Z</time>
      </trkpt>
      <trkpt lat="49.06385" lon="-1.59307">
        <ele>6.102602</ele>
        <time>2015-06-03T18:03:01Z</time>
      </trkpt>
      <trkpt lat="49.06385" lon="-1.59306">
        <ele>6.102602</ele>
        <time>2015-06-03T18:03:06Z</time>
      </trkpt>
      <trkpt lat="49.06386" lon="-1.59306">
        <ele>6.102602</ele>
        <time>2015-06-03T18:03:11Z</time>
      </trkpt>
      <trkpt lat="49.06386" lon="-1.5931">
        <ele>6.102602</ele>
        <time>2015-06-03T18:03:16Z</time>
      </trkpt>
      <trkpt lat="49.06387" lon="-1.5931">
        <ele>6.102602</ele>
        <time>2015-06-03T18:03:21Z</time>
      </trkpt>
      <trkpt lat="49.06387" lon="-1.59311">
        <ele>5.842016</ele>
        <time>2015-06-03T18:03:26Z</time>
      </trkpt>
      <trkpt lat="49.06388" lon="-1.59312">
        <ele>5.842016</ele>
        <time>2015-06-03T18:03:31Z</time>
      </trkpt>
      <trkpt lat="49.06386" lon="-1.59311">
        <ele>5.842016</ele>
        <time>2015-06-03T18:03:36Z</time>
      </trkpt>
      <trkpt lat="49.06386" lon="-1.59311">
        <ele>5.842016</ele>
        <time>2015-06-03T18:03:41Z</time>
      </trkpt>
      <trkpt lat="49.06386" lon="-1.59311">
        <ele>5.842016</ele>
        <time>2015-06-03T18:03:46Z</time>
      </trkpt>
      <trkpt lat="49.06386" lon="-1.59311">
        <ele>5.842016</ele>
        <time>2015-06-03T18:03:51Z</time>
      </trkpt>
      <trkpt lat="49.06388" lon="-1.59311">
        <ele>5.842016</ele>
        <time>2015-06-03T18:03:56Z</time>
      </trkpt>
      <trkpt lat="49.06388" lon="-1.59311">
        <ele>5.842016</ele>
        <time>2015-06-03T18:04:01Z</time>
      </trkpt>
      <trkpt lat="49.06388" lon="-1.59313">
        <ele>5.842016</ele>
        <time>2015-06-03T18:04:06Z</time>
      </trkpt>
      <trkpt lat="49.06387" lon="-1.5931">
        <ele>5.842016</ele>
        <time>2015-06-03T18:04:11Z</time>
      </trkpt>
      <trkpt lat="49.06389" lon="-1.59308">
        <ele>5.669238</ele>
        <time>2015-06-03T18:04:16Z</time>
      </trkpt>
      <trkpt lat="49.06389" lon="-1.59309">
        <ele>5.669238</ele>
        <time>2015-06-03T18:04:21Z</time>
      </trkpt>
      <trkpt lat="49.06388" lon="-1.59312">
        <ele>5.669238</ele>
        <time>2015-06-03T18:04:26Z</time>
      </trkpt>
      <trkpt lat="49.06388" lon="-1.5931">
        <ele>5.669238</ele>
        <time>2015-06-03T18:04:31Z</time>
      </trkpt>
      <trkpt lat="49.06388" lon="-1.59309">
        <ele>5.669238</ele>
        <time>2015-06-03T18:04:36Z</time>
      </trkpt>
      <trkpt lat="49.06389" lon="-1.59311">
        <ele>5.669238</ele>
        <time>2015-06-03T18:04:41Z</time>
      </trkpt>
      <trkpt lat="49.06388" lon="-1.59312">
        <ele>5.669238</ele>
        <time>2015-06-03T18:04:46Z</time>
      </trkpt>
      <trkpt lat="49.06387" lon="-1.59312">
        <ele>5.669238</ele>
        <time>2015-06-03T18:04:51Z</time>
      </trkpt>
      <trkpt lat="49.06387" lon="-1.59311">
        <ele>5.722251</ele>
        <time>2015-06-03T18:04:56Z</time>
      </trkpt>
      <trkpt lat="49.06387" lon="-1.59309">
        <ele>5.722251</ele>
        <time>2015-06-03T18:05:01Z</time>
      </trkpt>
      <trkpt lat="49.06387" lon="-1.59305">
        <ele>5.722251</ele>
        <time>2015-06-03T18:05:06Z</time>
      </trkpt>
      <trkpt lat="49.06387" lon="-1.59306">
        <ele>5.722251</ele>
        <time>2015-06-03T18:05:11Z</time>
      </trkpt>
      <trkpt lat="49.06388" lon="-1.59304">
        <ele>5.722251</ele>
        <time>2015-06-03T18:05:16Z</time>
      </trkpt>
      <trkpt lat="49.06388" lon="-1.59295">
        <ele>5.912081</ele>
        <time>2015-06-03T18:05:21Z</time>
      </trkpt>
      <trkpt lat="49.06389" lon="-1.59288">
        <ele>5.912081</ele>
        <time>2015-06-03T18:05:26Z</time>
      </trkpt>
      <trkpt lat="49.06388" lon="-1.59281">
        <ele>6.0838323</ele>
        <time>2015-06-03T18:05:31Z</time>
      </trkpt>
      <trkpt lat="49.06387" lon="-1.59272">
        <ele>6.0838323</ele>
        <time>2015-06-03T18:05:36Z</time>
      </trkpt>
      <trkpt lat="49.06386" lon="-1.59262">
        <ele>6.281368</ele>
        <time>2015-06-03T18:05:41Z</time>
      </trkpt>
      <trkpt lat="49.06385" lon="-1.59252">
        <ele>6.281368</ele>
        <time>2015-06-03T18:05:46Z</time>
      </trkpt>
      <trkpt lat="49.06384" lon="-1.59245">
        <ele>6.559654</ele>
        <time>2015-06-03T18:05:51Z</time>
      </trkpt>
      <trkpt lat="49.06384" lon="-1.59239">
        <ele>6.559654</ele>
        <time>2015-06-03T18:05:56Z</time>
      </trkpt>
      <trkpt lat="49.06383" lon="-1.59231">
        <ele>6.782041</ele>
        <time>2015-06-03T18:06:01Z</time>
      </trkpt>
      <trkpt lat="49.06382" lon="-1.59223">
        <ele>6.782041</ele>
        <time>2015-06-03T18:06:06Z</time>
      </trkpt>
      <trkpt lat="49.06381" lon="-1.59216">
        <ele>6.9805894</ele>
        <time>2015-06-03T18:06:11Z</time>
      </trkpt>
      <trkpt lat="49.0638" lon="-1.59207">
        <ele>6.9805894</ele>
        <time>2015-06-03T18:06:16Z</time>
      </trkpt>
      <trkpt lat="49.06379" lon="-1.59197">
        <ele>7.1562476</ele>
        <time>2015-06-03T18:06:21Z</time>
      </trkpt>
      <trkpt lat="49.06377" lon="-1.59191">
        <ele>7.1562476</ele>
        <time>2015-06-03T18:06:26Z</time>
      </trkpt>
      <trkpt lat="49.06375" lon="-1.59183">
        <ele>7.309958</ele>
        <time>2015-06-03T18:06:31Z</time>
      </trkpt>
      <trkpt lat="49.06372" lon="-1.59175">
        <ele>7.309958</ele>
        <time>2015-06-03T18:06:36Z</time>
      </trkpt>
      <trkpt lat="49.06372" lon="-1.59166">
        <ele>7.399425</ele>
        <time>2015-06-03T18:06:41Z</time>
      </trkpt>
      <trkpt lat="49.06372" lon="-1.59157">
        <ele>7.399425</ele>
        <time>2015-06-03T18:06:46Z</time>
      </trkpt>
      <trkpt lat="49.06371" lon="-1.59146">
        <ele>7.500933</ele>
        <time>2015-06-03T18:06:51Z</time>
      </trkpt>
      <trkpt lat="49.06369" lon="-1.59136">
        <ele>7.500933</ele>
        <time>2015-06-03T18:06:56Z</time>
      </trkpt>
      <trkpt lat="49.0637" lon="-1.59128">
        <ele>7.656312</ele>
        <time>2015-06-03T18:07:01Z</time>
      </trkpt>
      <trkpt lat="49.06368" lon="-1.5912">
        <ele>7.656312</ele>
        <time>2015-06-03T18:07:06Z</time>
      </trkpt>
      <trkpt lat="49.06367" lon="-1.59111">
        <ele>7.8465304</ele>
        <time>2015-06-03T18:07:11Z</time>
      </trkpt>
      <trkpt lat="49.06366" lon="-1.59102">
        <ele>7.8465304</ele>
        <time>2015-06-03T18:07:16Z</time>
      </trkpt>
      <trkpt lat="49.06365" lon="-1.59095">
        <ele>8.039455</ele>
        <time>2015-06-03T18:07:21Z</time>
      </trkpt>
      <trkpt lat="49.06365" lon="-1.59086">
        <ele>8.039455</ele>
        <time>2015-06-03T18:07:26Z</time>
      </trkpt>
      <trkpt lat="49.06364" lon="-1.59077">
        <ele>8.190904</ele>
        <time>2015-06-03T18:07:31Z</time>
      </trkpt>
      <trkpt lat="49.06361" lon="-1.59069">
        <ele>8.190904</ele>
        <time>2015-06-03T18:07:36Z</time>
      </trkpt>
      <trkpt lat="49.06362" lon="-1.59059">
        <ele>8.389768</ele>
        <time>2015-06-03T18:07:41Z</time>
      </trkpt>
      <trkpt lat="49.06361" lon="-1.59049">
        <ele>8.389768</ele>
        <time>2015-06-03T18:07:46Z</time>
      </trkpt>
      <trkpt lat="49.06361" lon="-1.59041">
        <ele>8.6894655</ele>
        <time>2015-06-03T18:07:51Z</time>
      </trkpt>
      <trkpt lat="49.06361" lon="-1.59036">
        <ele>8.6894655</ele>
        <time>2015-06-03T18:07:56Z</time>
      </trkpt>
      <trkpt lat="49.06358" lon="-1.5903">
        <ele>8.6894655</ele>
        <time>2015-06-03T18:08:01Z</time>
      </trkpt>
      <trkpt lat="49.06356" lon="-1.59021">
        <ele>8.908645</ele>
        <time>2015-06-03T18:08:06Z</time>
      </trkpt>
      <trkpt lat="49.06357" lon="-1.59012">
        <ele>8.908645</ele>
        <time>2015-06-03T18:08:11Z</time>
      </trkpt>
      <trkpt lat="49.06356" lon="-1.59005">
        <ele>9.081273</ele>
        <time>2015-06-03T18:08:16Z</time>
      </trkpt>
      <trkpt lat="49.06354" lon="-1.58996">
        <ele>9.081273</ele>
        <time>2015-06-03T18:08:21Z</time>
      </trkpt>
      <trkpt lat="49.06352" lon="-1.58985">
        <ele>9.25338</ele>
        <time>2015-06-03T18:08:26Z</time>
      </trkpt>
      <trkpt lat="49.06352" lon="-1.58979">
        <ele>9.25338</ele>
        <time>2015-06-03T18:08:31Z</time>
      </trkpt>
      <trkpt lat="49.0635" lon="-1.58971">
        <ele>9.467632</ele>
        <time>2015-06-03T18:08:36Z</time>
      </trkpt>
      <trkpt lat="49.06349" lon="-1.58964">
        <ele>9.467632</ele>
        <time>2015-06-03T18:08:41Z</time>
      </trkpt>
      <trkpt lat="49.06347" lon="-1.58956">
        <ele>9.633763</ele>
        <time>2015-06-03T18:08:46Z</time>
      </trkpt>
      <trkpt lat="49.06347" lon="-1.58949">
        <ele>9.633763</ele>
        <time>2015-06-03T18:08:51Z</time>
      </trkpt>
      <trkpt lat="49.06347" lon="-1.58938">
        <ele>9.797991</ele>
        <time>2015-06-03T18:08:56Z</time>
      </trkpt>
      <trkpt lat="49.06346" lon="-1.58929">
        <ele>9.797991</ele>
        <time>2015-06-03T18:09:01Z</time>
      </trkpt>
      <trkpt lat="49.06344" lon="-1.5892">
        <ele>9.931105</ele>
        <time>2015-06-03T18:09:06Z</time>
      </trkpt>
      <trkpt lat="49.06342" lon="-1.5891">
        <ele>9.931105</ele>
        <time>2015-06-03T18:09:11Z</time>
      </trkpt>
      <trkpt lat="49.06341" lon="-1.58903">
        <ele>10.063792</ele>
        <time>2015-06-03T18:09:16Z</time>
      </trkpt>
      <trkpt lat="49.06339" lon="-1.58894">
        <ele>10.063792</ele>
        <time>2015-06-03T18:09:21Z</time>
      </trkpt>
      <trkpt lat="49.06337" lon="-1.58887">
        <ele>10.224507</ele>
        <time>2015-06-03T18:09:26Z</time>
      </trkpt>
      <trkpt lat="49.06336" lon="-1.58877">
        <ele>10.224507</ele>
        <time>2015-06-03T18:09:31Z</time>
      </trkpt>
      <trkpt lat="49.06336" lon="-1.58869">
        <ele>10.396319</ele>
        <time>2015-06-03T18:09:36Z</time>
      </trkpt>
      <trkpt lat="49.06335" lon="-1.58858">
        <ele>10.396319</ele>
        <time>2015-06-03T18:09:41Z</time>
      </trkpt>
      <trkpt lat="49.06335" lon="-1.58851">
        <ele>10.592351</ele>
        <time>2015-06-03T18:09:46Z</time>
      </trkpt>
      <trkpt lat="49.06336" lon="-1.58841">
        <ele>10.592351</ele>
        <time>2015-06-03T18:09:51Z</time>
      </trkpt>
      <trkpt lat="49.06338" lon="-1.58833">
        <ele>10.824713</ele>
        <time>2015-06-03T18:09:56Z</time>
      </trkpt>
      <trkpt lat="49.06341" lon="-1.58826">
        <ele>10.824713</ele>
        <time>2015-06-03T18:10:01Z</time>
      </trkpt>
      <trkpt lat="49.06344" lon="-1.5882">
        <ele>11.162188</ele>
        <time>2015-06-03T18:10:06Z</time>
      </trkpt>
      <trkpt lat="49.06345" lon="-1.58811">
        <ele>11.162188</ele>
        <time>2015-06-03T18:10:11Z</time>
      </trkpt>
      <trkpt lat="49.06347" lon="-1.58802">
        <ele>11.567352</ele>
        <time>2015-06-03T18:10:16Z</time>
      </trkpt>
      <trkpt lat="49.0635" lon="-1.58798">
        <ele>11.567352</ele>
        <time>2015-06-03T18:10:21Z</time>
      </trkpt>
      <trkpt lat="49.06352" lon="-1.58794">
        <ele>11.567352</ele>
        <time>2015-06-03T18:10:26Z</time>
      </trkpt>
      <trkpt lat="49.06352" lon="-1.58793">
        <ele>11.567352</ele>
        <time>2015-06-03T18:10:31Z</time>
      </trkpt>
      <trkpt lat="49.06356" lon="-1.58786">
        <ele>11.890073</ele>
        <time>2015-06-03T18:10:36Z</time>
      </trkpt>
      <trkpt lat="49.06358" lon="-1.58778">
        <ele>11.890073</ele>
        <time>2015-06-03T18:10:41Z</time>
      </trkpt>
      <trkpt lat="49.06358" lon="-1.58768">
        <ele>12.193256</ele>
        <time>2015-06-03T18:10:46Z</time>
      </trkpt>
      <trkpt lat="49.06358" lon="-1.58759">
        <ele>12.193256</ele>
        <time>2015-06-03T18:10:51Z</time>
      </trkpt>
      <trkpt lat="49.0636" lon="-1.58752">
        <ele>12.549674</ele>
        <time>2015-06-03T18:10:56Z</time>
      </trkpt>
      <trkpt lat="49.06362" lon="-1.58748">
        <ele>12.549674</ele>
        <time>2015-06-03T18:11:01Z</time>
      </trkpt>
      <trkpt lat="49.06365" lon="-1.58745">
        <ele>12.549674</ele>
        <time>2015-06-03T18:11:06Z</time>
      </trkpt>
      <trkpt lat="49.06365" lon="-1.58741">
        <ele>13.0842705</ele>
        <time>2015-06-03T18:11:11Z</time>
      </trkpt>
      <trkpt lat="49.06368" lon="-1.58731">
        <ele>13.0842705</ele>
        <time>2015-06-03T18:11:16Z</time>
      </trkpt>
      <trkpt lat="49.06369" lon="-1.58721">
        <ele>13.638528</ele>
        <time>2015-06-03T18:11:21Z</time>
      </trkpt>
      <trkpt lat="49.06371" lon="-1.58715">
        <ele>13.638528</ele>
        <time>2015-06-03T18:11:26Z</time>
      </trkpt>
      <trkpt lat="49.06372" lon="-1.58705">
        <ele>14.152009</ele>
        <time>2015-06-03T18:11:31Z</time>
      </trkpt>
      <trkpt lat="49.06375" lon="-1.58697">
        <ele>14.152009</ele>
        <time>2015-06-03T18:11:36Z</time>
      </trkpt>
      <trkpt lat="49.06377" lon="-1.5869">
        <ele>14.655326</ele>
        <time>2015-06-03T18:11:41Z</time>
      </trkpt>
      <trkpt lat="49.0638" lon="-1.58682">
        <ele>14.655326</ele>
        <time>2015-06-03T18:11:46Z</time>
      </trkpt>
      <trkpt lat="49.06382" lon="-1.58674">
        <ele>15.133665</ele>
        <time>2015-06-03T18:11:51Z</time>
      </trkpt>
      <trkpt lat="49.06382" lon="-1.58667">
        <ele>15.133665</ele>
        <time>2015-06-03T18:11:56Z</time>
      </trkpt>
      <trkpt lat="49.06382" lon="-1.58657">
        <ele>15.616638</ele>
        <time>2015-06-03T18:12:01Z</time>
      </trkpt>
      <trkpt lat="49.06382" lon="-1.5865">
        <ele>15.616638</ele>
        <time>2015-06-03T18:12:06Z</time>
      </trkpt>
      <trkpt lat="49.06384" lon="-1.58645">
        <ele>15.616638</ele>
        <time>2015-06-03T18:12:11Z</time>
      </trkpt>
      <trkpt lat="49.06386" lon="-1.58639">
        <ele>16.16052</ele>
        <time>2015-06-03T18:12:16Z</time>
      </trkpt>
      <trkpt lat="49.06386" lon="-1.58638">
        <ele>16.16052</ele>
        <time>2015-06-03T18:12:21Z</time>
      </trkpt>
      <trkpt lat="49.06385" lon="-1.58638">
        <ele>16.16052</ele>
        <time>2015-06-03T18:12:26Z</time>
      </trkpt>
      <trkpt lat="49.06385" lon="-1.58638">
        <ele>16.16052</ele>
        <time>2015-06-03T18:12:31Z</time>
      </trkpt>
      <trkpt lat="49.06385" lon="-1.58637">
        <ele>16.16052</ele>
        <time>2015-06-03T18:12:36Z</time>
      </trkpt>
      <trkpt lat="49.06385" lon="-1.58634">
        <ele>16.16052</ele>
        <time>2015-06-03T18:12:41Z</time>
      </trkpt>
      <trkpt lat="49.06386" lon="-1.58633">
        <ele>16.16052</ele>
        <time>2015-06-03T18:12:46Z</time>
      </trkpt>
      <trkpt lat="49.06386" lon="-1.58634">
        <ele>16.16052</ele>
        <time>2015-06-03T18:12:51Z</time>
      </trkpt>
      <trkpt lat="49.06387" lon="-1.58633">
        <ele>16.16052</ele>
        <time>2015-06-03T18:12:56Z</time>
      </trkpt>
      <trkpt lat="49.06387" lon="-1.58633">
        <ele>16.16052</ele>
        <time>2015-06-03T18:13:01Z</time>
      </trkpt>
      <trkpt lat="49.06388" lon="-1.58631">
        <ele>16.16052</ele>
        <time>2015-06-03T18:13:06Z</time>
      </trkpt>
      <trkpt lat="49.06388" lon="-1.58632">
        <ele>16.16052</ele>
        <time>2015-06-03T18:13:11Z</time>
      </trkpt>
      <trkpt lat="49.06389" lon="-1.58632">
        <ele>16.759672</ele>
        <time>2015-06-03T18:13:16Z</time>
      </trkpt>
      <trkpt lat="49.06389" lon="-1.58633">
        <ele>16.759672</ele>
        <time>2015-06-03T18:13:21Z</time>
      </trkpt>
      <trkpt lat="49.06389" lon="-1.58634">
        <ele>16.759672</ele>
        <time>2015-06-03T18:13:26Z</time>
      </trkpt>
      <trkpt lat="49.06388" lon="-1.58635">
        <ele>16.759672</ele>
        <time>2015-06-03T18:13:31Z</time>
      </trkpt>
      <trkpt lat="49.06387" lon="-1.58635">
        <ele>16.759672</ele>
        <time>2015-06-03T18:13:36Z</time>
      </trkpt>
      <trkpt lat="49.06385" lon="-1.58644">
        <ele>17.336687</ele>
        <time>2015-06-03T18:13:41Z</time>
      </trkpt>
      <trkpt lat="49.06386" lon="-1.58643">
        <ele>17.336687</ele>
        <time>2015-06-03T18:13:46Z</time>
      </trkpt>
      <trkpt lat="49.06388" lon="-1.58634">
        <ele>17.336687</ele>
        <time>2015-06-03T18:13:51Z</time>
      </trkpt>
      <trkpt lat="49.06391" lon="-1.58624">
        <ele>17.863182</ele>
        <time>2015-06-03T18:13:56Z</time>
      </trkpt>
      <trkpt lat="49.06392" lon="-1.58613">
        <ele>17.863182</ele>
        <time>2015-06-03T18:14:01Z</time>
      </trkpt>
      <trkpt lat="49.06393" lon="-1.58606">
        <ele>18.370672</ele>
        <time>2015-06-03T18:14:06Z</time>
      </trkpt>
      <trkpt lat="49.06395" lon="-1.58593">
        <ele>18.370672</ele>
        <time>2015-06-03T18:14:11Z</time>
      </trkpt>
      <trkpt lat="49.06397" lon="-1.58583">
        <ele>18.9461</ele>
        <time>2015-06-03T18:14:16Z</time>
      </trkpt>
      <trkpt lat="49.06401" lon="-1.58576">
        <ele>18.9461</ele>
        <time>2015-06-03T18:14:21Z</time>
      </trkpt>
      <trkpt lat="49.06406" lon="-1.58572">
        <ele>19.626625</ele>
        <time>2015-06-03T18:14:26Z</time>
      </trkpt>
      <trkpt lat="49.06411" lon="-1.58567">
        <ele>19.626625</ele>
        <time>2015-06-03T18:14:31Z</time>
      </trkpt>
      <trkpt lat="49.06417" lon="-1.58561">
        <ele>20.475252</ele>
        <time>2015-06-03T18:14:36Z</time>
      </trkpt>
      <trkpt lat="49.06422" lon="-1.58558">
        <ele>20.475252</ele>
        <time>2015-06-03T18:14:41Z</time>
      </trkpt>
      <trkpt lat="49.06427" lon="-1.58553">
        <ele>21.36257</ele>
        <time>2015-06-03T18:14:46Z</time>
      </trkpt>
      <trkpt lat="49.06433" lon="-1.58549">
        <ele>21.36257</ele>
        <time>2015-06-03T18:14:51Z</time>
      </trkpt>
      <trkpt lat="49.06439" lon="-1.58545">
        <ele>22.211845</ele>
        <time>2015-06-03T18:14:56Z</time>
      </trkpt>
      <trkpt lat="49.06447" lon="-1.58541">
        <ele>22.211845</ele>
        <time>2015-06-03T18:15:01Z</time>
      </trkpt>
      <trkpt lat="49.06453" lon="-1.58536">
        <ele>22.995363</ele>
        <time>2015-06-03T18:15:06Z</time>
      </trkpt>
      <trkpt lat="49.06459" lon="-1.58533">
        <ele>22.995363</ele>
        <time>2015-06-03T18:15:11Z</time>
      </trkpt>
      <trkpt lat="49.06464" lon="-1.58529">
        <ele>23.673264</ele>
        <time>2015-06-03T18:15:16Z</time>
      </trkpt>
      <trkpt lat="49.06471" lon="-1.58525">
        <ele>23.673264</ele>
        <time>2015-06-03T18:15:21Z</time>
      </trkpt>
      <trkpt lat="49.06476" lon="-1.58522">
        <ele>24.309828</ele>
        <time>2015-06-03T18:15:26Z</time>
      </trkpt>
      <trkpt lat="49.06483" lon="-1.58517">
        <ele>24.309828</ele>
        <time>2015-06-03T18:15:31Z</time>
      </trkpt>
      <trkpt lat="49.06489" lon="-1.58514">
        <ele>24.892727</ele>
        <time>2015-06-03T18:15:36Z</time>
      </trkpt>
      <trkpt lat="49.06495" lon="-1.58512">
        <ele>24.892727</ele>
        <time>2015-06-03T18:15:41Z</time>
      </trkpt>
      <trkpt lat="49.06503" lon="-1.58507">
        <ele>25.396318</ele>
        <time>2015-06-03T18:15:46Z</time>
      </trkpt>
      <trkpt lat="49.06509" lon="-1.58502">
        <ele>25.396318</ele>
        <time>2015-06-03T18:15:51Z</time>
      </trkpt>
      <trkpt lat="49.06514" lon="-1.58498">
        <ele>25.854753</ele>
        <time>2015-06-03T18:15:56Z</time>
      </trkpt>
      <trkpt lat="49.0652" lon="-1.58492">
        <ele>25.854753</ele>
        <time>2015-06-03T18:16:01Z</time>
      </trkpt>
      <trkpt lat="49.06525" lon="-1.58485">
        <ele>26.285435</ele>
        <time>2015-06-03T18:16:06Z</time>
      </trkpt>
      <trkpt lat="49.06531" lon="-1.58482">
        <ele>26.285435</ele>
        <time>2015-06-03T18:16:11Z</time>
      </trkpt>
      <trkpt lat="49.06538" lon="-1.58481">
        <ele>26.733423</ele>
        <time>2015-06-03T18:16:16Z</time>
      </trkpt>
      <trkpt lat="49.06544" lon="-1.58477">
        <ele>26.733423</ele>
        <time>2015-06-03T18:16:21Z</time>
      </trkpt>
      <trkpt lat="49.06549" lon="-1.58469">
        <ele>27.12517</ele>
        <time>2015-06-03T18:16:26Z</time>
      </trkpt>
      <trkpt lat="49.06554" lon="-1.58464">
        <ele>27.12517</ele>
        <time>2015-06-03T18:16:31Z</time>
      </trkpt>
      <trkpt lat="49.06558" lon="-1.58456">
        <ele>27.450367</ele>
        <time>2015-06-03T18:16:36Z</time>
      </trkpt>
      <trkpt lat="49.06562" lon="-1.5845">
        <ele>27.450367</ele>
        <time>2015-06-03T18:16:41Z</time>
      </trkpt>
      <trkpt lat="49.06567" lon="-1.58443">
        <ele>27.65645</ele>
        <time>2015-06-03T18:16:46Z</time>
      </trkpt>
      <trkpt lat="49.06571" lon="-1.58436">
        <ele>27.65645</ele>
        <time>2015-06-03T18:16:51Z</time>
      </trkpt>
      <trkpt lat="49.06575" lon="-1.58428">
        <ele>27.853601</ele>
        <time>2015-06-03T18:16:56Z</time>
      </trkpt>
      <trkpt lat="49.06577" lon="-1.58418">
        <ele>27.853601</ele>
        <time>2015-06-03T18:17:01Z</time>
      </trkpt>
      <trkpt lat="49.06578" lon="-1.58407">
        <ele>28.014256</ele>
        <time>2015-06-03T18:17:06Z</time>
      </trkpt>
      <trkpt lat="49.06579" lon="-1.584">
        <ele>28.014256</ele>
        <time>2015-06-03T18:17:11Z</time>
      </trkpt>
      <trkpt lat="49.0658" lon="-1.58388">
        <ele>28.185059</ele>
        <time>2015-06-03T18:17:16Z</time>
      </trkpt>
      <trkpt lat="49.06579" lon="-1.58379">
        <ele>28.185059</ele>
        <time>2015-06-03T18:17:21Z</time>
      </trkpt>
      <trkpt lat="49.06581" lon="-1.58369">
        <ele>28.308336</ele>
        <time>2015-06-03T18:17:26Z</time>
      </trkpt>
      <trkpt lat="49.0658" lon="-1.5837">
        <ele>28.308336</ele>
        <time>2015-06-03T18:17:31Z</time>
      </trkpt>
      <trkpt lat="49.0658" lon="-1.58368">
        <ele>28.308336</ele>
        <time>2015-06-03T18:17:36Z</time>
      </trkpt>
      <trkpt lat="49.06582" lon="-1.58363">
        <ele>28.308336</ele>
        <time>2015-06-03T18:17:41Z</time>
      </trkpt>
      <trkpt lat="49.06588" lon="-1.58348">
        <ele>28.157867</ele>
        <time>2015-06-03T18:17:46Z</time>
      </trkpt>
      <trkpt lat="49.06589" lon="-1.5834">
        <ele>28.157867</ele>
        <time>2015-06-03T18:17:51Z</time>
      </trkpt>
      <trkpt lat="49.06589" lon="-1.58339">
        <ele>28.157867</ele>
        <time>2015-06-03T18:17:56Z</time>
      </trkpt>
      <trkpt lat="49.06588" lon="-1.58337">
        <ele>28.157867</ele>
        <time>2015-06-03T18:18:01Z</time>
      </trkpt>
      <trkpt lat="49.06587" lon="-1.58336">
        <ele>28.157867</ele>
        <time>2015-06-03T18:18:06Z</time>
      </trkpt>
      <trkpt lat="49.06589" lon="-1.58337">
        <ele>27.697758</ele>
        <time>2015-06-03T18:18:11Z</time>
      </trkpt>
      <trkpt lat="49.06588" lon="-1.58337">
        <ele>27.697758</ele>
        <time>2015-06-03T18:18:16Z</time>
      </trkpt>
      <trkpt lat="49.0659" lon="-1.58337">
        <ele>27.697758</ele>
        <time>2015-06-03T18:18:21Z</time>
      </trkpt>
      <trkpt lat="49.06592" lon="-1.58337">
        <ele>27.697758</ele>
        <time>2015-06-03T18:18:26Z</time>
      </trkpt>
    </trkseg>
  </trk>
</gpx>